<?xml version="1.0" encoding="UTF-8"?>
<TrainingCenterDatabase xmlns="http://www.garmin.com/xmlschemas/TrainingCenterDatabase/v2" xmlns:xsi="http://www.w3.org/2001/XMLSchema-instance" xsi:schemaLocation="http://www.garmin.com/xmlschemas/TrainingCenterDatabase/v2 http://www.garmin.com/xmlschemas/TrainingCenterDatabasev2.xsd">
  <Activities>
    <Activity Sport="Other">
      <Id>2021-08-29T13:57:24.000Z</Id>
      <Lap StartTime="2021-08-29T13:57:24.000Z">
        <TotalTimeSeconds>11194</TotalTimeSeconds>
        <DistanceMeters>18680</DistanceMeters>
        <Track>
          <Trackpoint>
            <Time>2021-08-29T13:57:24.000Z</Time>
            <Position>
              <LatitudeDegrees>-33.0055513791739940643310546875</LatitudeDegrees>
              <LongitudeDegrees>-69.29410069249570369720458984375</LongitudeDegrees>
            </Position>
            <AltitudeMeters>1962.199951171875</AltitudeMeters>
            <DistanceMeters>0</DistanceMeters>
          </Trackpoint>
          <Trackpoint>
            <Time>2021-08-29T13:57:25.000Z</Time>
            <Position>
              <LatitudeDegrees>-33.00553251989185810089111328125</LatitudeDegrees>
              <LongitudeDegrees>-69.29409482516348361968994140625</LongitudeDegrees>
            </Position>
            <AltitudeMeters>1962</AltitudeMeters>
            <DistanceMeters>2.1669424890514</DistanceMeters>
          </Trackpoint>
          <Trackpoint>
            <Time>2021-08-29T13:57:28.000Z</Time>
            <Position>
              <LatitudeDegrees>-33.005545847117900848388671875</LatitudeDegrees>
              <LongitudeDegrees>-69.294074960052967071533203125</LongitudeDegrees>
            </Position>
            <AltitudeMeters>1962</AltitudeMeters>
            <DistanceMeters>4.5407090531911</DistanceMeters>
          </Trackpoint>
          <Trackpoint>
            <Time>2021-08-29T13:57:30.000Z</Time>
            <Position>
              <LatitudeDegrees>-33.00555984489619731903076171875</LatitudeDegrees>
              <LongitudeDegrees>-69.29405920207500457763671875</LongitudeDegrees>
            </Position>
            <AltitudeMeters>1961.800048828125</AltitudeMeters>
            <DistanceMeters>6.6867144088267</DistanceMeters>
          </Trackpoint>
          <Trackpoint>
            <Time>2021-08-29T13:57:34.000Z</Time>
            <Position>
              <LatitudeDegrees>-33.00548139028251171112060546875</LatitudeDegrees>
              <LongitudeDegrees>-69.29398803971707820892333984375</LongitudeDegrees>
            </Position>
            <AltitudeMeters>1960.800048828125</AltitudeMeters>
            <DistanceMeters>17.658082554958</DistanceMeters>
          </Trackpoint>
          <Trackpoint>
            <Time>2021-08-29T13:57:42.000Z</Time>
            <Position>
              <LatitudeDegrees>-33.0052281729876995086669921875</LatitudeDegrees>
              <LongitudeDegrees>-69.2938773147761821746826171875</LongitudeDegrees>
            </Position>
            <AltitudeMeters>1958.5999755859375</AltitudeMeters>
            <DistanceMeters>47.677050201651</DistanceMeters>
          </Trackpoint>
          <Trackpoint>
            <Time>2021-08-29T13:57:47.000Z</Time>
            <Position>
              <LatitudeDegrees>-33.005110658705234527587890625</LatitudeDegrees>
              <LongitudeDegrees>-69.293826855719089508056640625</LongitudeDegrees>
            </Position>
            <AltitudeMeters>1957.5999755859375</AltitudeMeters>
            <DistanceMeters>61.578909647552</DistanceMeters>
          </Trackpoint>
          <Trackpoint>
            <Time>2021-08-29T13:57:52.000Z</Time>
            <Position>
              <LatitudeDegrees>-33.00496104173362255096435546875</LatitudeDegrees>
              <LongitudeDegrees>-69.29378293454647064208984375</LongitudeDegrees>
            </Position>
            <AltitudeMeters>1956.5999755859375</AltitudeMeters>
            <DistanceMeters>78.728796523453</DistanceMeters>
          </Trackpoint>
          <Trackpoint>
            <Time>2021-08-29T13:57:53.000Z</Time>
            <Position>
              <LatitudeDegrees>-33.00490580499172210693359375</LatitudeDegrees>
              <LongitudeDegrees>-69.29377396591007709503173828125</LongitudeDegrees>
            </Position>
            <AltitudeMeters>1956.4000244140625</AltitudeMeters>
            <DistanceMeters>84.933975485983</DistanceMeters>
          </Trackpoint>
          <Trackpoint>
            <Time>2021-08-29T13:57:59.000Z</Time>
            <Position>
              <LatitudeDegrees>-33.00465904176235198974609375</LatitudeDegrees>
              <LongitudeDegrees>-69.29373457096517086029052734375</LongitudeDegrees>
            </Position>
            <AltitudeMeters>1955.199951171875</AltitudeMeters>
            <DistanceMeters>112.64416296748</DistanceMeters>
          </Trackpoint>
          <Trackpoint>
            <Time>2021-08-29T13:58:04.000Z</Time>
            <Position>
              <LatitudeDegrees>-33.0044439621269702911376953125</LatitudeDegrees>
              <LongitudeDegrees>-69.293665252625942230224609375</LongitudeDegrees>
            </Position>
            <AltitudeMeters>1954</AltitudeMeters>
            <DistanceMeters>137.44194806376</DistanceMeters>
          </Trackpoint>
          <Trackpoint>
            <Time>2021-08-29T13:58:07.000Z</Time>
            <Position>
              <LatitudeDegrees>-33.00432108342647552490234375</LatitudeDegrees>
              <LongitudeDegrees>-69.293617643415927886962890625</LongitudeDegrees>
            </Position>
            <AltitudeMeters>1953.199951171875</AltitudeMeters>
            <DistanceMeters>151.8227272749</DistanceMeters>
          </Trackpoint>
          <Trackpoint>
            <Time>2021-08-29T13:58:08.000Z</Time>
            <Position>
              <LatitudeDegrees>-33.0042800121009349822998046875</LatitudeDegrees>
              <LongitudeDegrees>-69.293601550161838531494140625</LongitudeDegrees>
            </Position>
            <AltitudeMeters>1952.800048828125</AltitudeMeters>
            <DistanceMeters>156.634495765</DistanceMeters>
          </Trackpoint>
          <Trackpoint>
            <Time>2021-08-29T13:58:15.000Z</Time>
            <Position>
              <LatitudeDegrees>-33.00403006374835968017578125</LatitudeDegrees>
              <LongitudeDegrees>-69.2934639193117618560791015625</LongitudeDegrees>
            </Position>
            <AltitudeMeters>1950.199951171875</AltitudeMeters>
            <DistanceMeters>187.27718557633</DistanceMeters>
          </Trackpoint>
          <Trackpoint>
            <Time>2021-08-29T13:58:16.000Z</Time>
            <Position>
              <LatitudeDegrees>-33.003994189202785491943359375</LatitudeDegrees>
              <LongitudeDegrees>-69.2934521846473217010498046875</LongitudeDegrees>
            </Position>
            <AltitudeMeters>1949.800048828125</AltitudeMeters>
            <DistanceMeters>191.41712338874</DistanceMeters>
          </Trackpoint>
          <Trackpoint>
            <Time>2021-08-29T13:58:22.000Z</Time>
            <Position>
              <LatitudeDegrees>-33.0037812888622283935546875</LatitudeDegrees>
              <LongitudeDegrees>-69.293411113321781158447265625</LongitudeDegrees>
            </Position>
            <AltitudeMeters>1947.800048828125</AltitudeMeters>
            <DistanceMeters>215.42148086586</DistanceMeters>
          </Trackpoint>
          <Trackpoint>
            <Time>2021-08-29T13:58:23.000Z</Time>
            <Position>
              <LatitudeDegrees>-33.003765530884265899658203125</LatitudeDegrees>
              <LongitudeDegrees>-69.29342159070074558258056640625</LongitudeDegrees>
            </Position>
            <AltitudeMeters>1947.5999755859375</AltitudeMeters>
            <DistanceMeters>217.4305712497</DistanceMeters>
          </Trackpoint>
          <Trackpoint>
            <Time>2021-08-29T13:58:26.000Z</Time>
            <Position>
              <LatitudeDegrees>-33.00374885089695453643798828125</LatitudeDegrees>
              <LongitudeDegrees>-69.293480850756168365478515625</LongitudeDegrees>
            </Position>
            <AltitudeMeters>1947.800048828125</AltitudeMeters>
            <DistanceMeters>223.26601624303</DistanceMeters>
          </Trackpoint>
          <Trackpoint>
            <Time>2021-08-29T13:58:33.000Z</Time>
            <Position>
              <LatitudeDegrees>-33.00375555641949176788330078125</LatitudeDegrees>
              <LongitudeDegrees>-69.29360188543796539306640625</LongitudeDegrees>
            </Position>
            <AltitudeMeters>1948.5999755859375</AltitudeMeters>
            <DistanceMeters>234.58776235933</DistanceMeters>
          </Trackpoint>
          <Trackpoint>
            <Time>2021-08-29T13:58:44.000Z</Time>
            <Position>
              <LatitudeDegrees>-33.0037767626345157623291015625</LatitudeDegrees>
              <LongitudeDegrees>-69.29385409690439701080322265625</LongitudeDegrees>
            </Position>
            <AltitudeMeters>1950.4000244140625</AltitudeMeters>
            <DistanceMeters>258.24769682489</DistanceMeters>
          </Trackpoint>
          <Trackpoint>
            <Time>2021-08-29T13:58:52.000Z</Time>
            <Position>
              <LatitudeDegrees>-33.00379059277474880218505859375</LatitudeDegrees>
              <LongitudeDegrees>-69.29404855705797672271728515625</LongitudeDegrees>
            </Position>
            <AltitudeMeters>1951.4000244140625</AltitudeMeters>
            <DistanceMeters>276.4640973794</DistanceMeters>
          </Trackpoint>
          <Trackpoint>
            <Time>2021-08-29T13:58:56.000Z</Time>
            <Position>
              <LatitudeDegrees>-33.00379796884953975677490234375</LatitudeDegrees>
              <LongitudeDegrees>-69.294143021106719970703125</LongitudeDegrees>
            </Position>
            <AltitudeMeters>1951.800048828125</AltitudeMeters>
            <DistanceMeters>285.31995498416</DistanceMeters>
          </Trackpoint>
          <Trackpoint>
            <Time>2021-08-29T13:59:00.000Z</Time>
            <Position>
              <LatitudeDegrees>-33.00380584783852100372314453125</LatitudeDegrees>
              <LongitudeDegrees>-69.29423329420387744903564453125</LongitudeDegrees>
            </Position>
            <AltitudeMeters>1952.199951171875</AltitudeMeters>
            <DistanceMeters>293.79173446527</DistanceMeters>
          </Trackpoint>
          <Trackpoint>
            <Time>2021-08-29T13:59:02.000Z</Time>
            <Position>
              <LatitudeDegrees>-33.0038096196949481964111328125</LatitudeDegrees>
              <LongitudeDegrees>-69.29427755065262317657470703125</LongitudeDegrees>
            </Position>
            <AltitudeMeters>1952.199951171875</AltitudeMeters>
            <DistanceMeters>297.94365160456</DistanceMeters>
          </Trackpoint>
          <Trackpoint>
            <Time>2021-08-29T13:59:11.000Z</Time>
            <Position>
              <LatitudeDegrees>-33.00382378511130809783935546875</LatitudeDegrees>
              <LongitudeDegrees>-69.29447905160486698150634765625</LongitudeDegrees>
            </Position>
            <AltitudeMeters>1953</AltitudeMeters>
            <DistanceMeters>316.8178804819</DistanceMeters>
          </Trackpoint>
          <Trackpoint>
            <Time>2021-08-29T13:59:15.000Z</Time>
            <Position>
              <LatitudeDegrees>-33.00383032299578189849853515625</LatitudeDegrees>
              <LongitudeDegrees>-69.29456538520753383636474609375</LongitudeDegrees>
            </Position>
            <AltitudeMeters>1953.5999755859375</AltitudeMeters>
            <DistanceMeters>324.90911365236</DistanceMeters>
          </Trackpoint>
          <Trackpoint>
            <Time>2021-08-29T13:59:23.000Z</Time>
            <Position>
              <LatitudeDegrees>-33.00384289585053920745849609375</LatitudeDegrees>
              <LongitudeDegrees>-69.2947617731988430023193359375</LongitudeDegrees>
            </Position>
            <AltitudeMeters>1954.800048828125</AltitudeMeters>
            <DistanceMeters>343.29377468533</DistanceMeters>
          </Trackpoint>
          <Trackpoint>
            <Time>2021-08-29T13:59:31.000Z</Time>
            <Position>
              <LatitudeDegrees>-33.0038639344274997711181640625</LatitudeDegrees>
              <LongitudeDegrees>-69.29495112039148807525634765625</LongitudeDegrees>
            </Position>
            <AltitudeMeters>1956.199951171875</AltitudeMeters>
            <DistanceMeters>361.12186013146</DistanceMeters>
          </Trackpoint>
          <Trackpoint>
            <Time>2021-08-29T13:59:34.000Z</Time>
            <Position>
              <LatitudeDegrees>-33.00387407653033733367919921875</LatitudeDegrees>
              <LongitudeDegrees>-69.29502119310200214385986328125</LongitudeDegrees>
            </Position>
            <AltitudeMeters>1956.4000244140625</AltitudeMeters>
            <DistanceMeters>367.75878056896</DistanceMeters>
          </Trackpoint>
          <Trackpoint>
            <Time>2021-08-29T13:59:39.000Z</Time>
            <Position>
              <LatitudeDegrees>-33.00389670766890048980712890625</LatitudeDegrees>
              <LongitudeDegrees>-69.2951322533190250396728515625</LongitudeDegrees>
            </Position>
            <AltitudeMeters>1957</AltitudeMeters>
            <DistanceMeters>378.42677257416</DistanceMeters>
          </Trackpoint>
          <Trackpoint>
            <Time>2021-08-29T13:59:47.000Z</Time>
            <Position>
              <LatitudeDegrees>-33.00392151810228824615478515625</LatitudeDegrees>
              <LongitudeDegrees>-69.2953002266585826873779296875</LongitudeDegrees>
            </Position>
            <AltitudeMeters>1957.800048828125</AltitudeMeters>
            <DistanceMeters>394.34707990879</DistanceMeters>
          </Trackpoint>
          <Trackpoint>
            <Time>2021-08-29T13:59:50.000Z</Time>
            <Position>
              <LatitudeDegrees>-33.00392889417707920074462890625</LatitudeDegrees>
              <LongitudeDegrees>-69.29536451585590839385986328125</LongitudeDegrees>
            </Position>
            <AltitudeMeters>1958.4000244140625</AltitudeMeters>
            <DistanceMeters>400.40424100883</DistanceMeters>
          </Trackpoint>
          <Trackpoint>
            <Time>2021-08-29T14:00:01.000Z</Time>
            <Position>
              <LatitudeDegrees>-33.00397901795804500579833984375</LatitudeDegrees>
              <LongitudeDegrees>-69.29562049917876720428466796875</LongitudeDegrees>
            </Position>
            <AltitudeMeters>1960.5999755859375</AltitudeMeters>
            <DistanceMeters>424.94083055578</DistanceMeters>
          </Trackpoint>
          <Trackpoint>
            <Time>2021-08-29T14:00:03.000Z</Time>
            <Position>
              <LatitudeDegrees>-33.00398622639477252960205078125</LatitudeDegrees>
              <LongitudeDegrees>-69.295669533312320709228515625</LongitudeDegrees>
            </Position>
            <AltitudeMeters>1961.199951171875</AltitudeMeters>
            <DistanceMeters>429.58840442329</DistanceMeters>
          </Trackpoint>
          <Trackpoint>
            <Time>2021-08-29T14:00:14.000Z</Time>
            <Position>
              <LatitudeDegrees>-33.0040359310805797576904296875</LatitudeDegrees>
              <LongitudeDegrees>-69.295972287654876708984375</LongitudeDegrees>
            </Position>
            <AltitudeMeters>1963.800048828125</AltitudeMeters>
            <DistanceMeters>458.38447810872</DistanceMeters>
          </Trackpoint>
          <Trackpoint>
            <Time>2021-08-29T14:00:15.000Z</Time>
            <Position>
              <LatitudeDegrees>-33.00403903238475322723388671875</LatitudeDegrees>
              <LongitudeDegrees>-69.29599936120212078094482421875</LongitudeDegrees>
            </Position>
            <AltitudeMeters>1964</AltitudeMeters>
            <DistanceMeters>460.93785140547</DistanceMeters>
          </Trackpoint>
          <Trackpoint>
            <Time>2021-08-29T14:00:24.000Z</Time>
            <Position>
              <LatitudeDegrees>-33.00406618975102901458740234375</LatitudeDegrees>
              <LongitudeDegrees>-69.29632692597806453704833984375</LongitudeDegrees>
            </Position>
            <AltitudeMeters>1966.800048828125</AltitudeMeters>
            <DistanceMeters>491.66220870224</DistanceMeters>
          </Trackpoint>
          <Trackpoint>
            <Time>2021-08-29T14:00:29.000Z</Time>
            <Position>
              <LatitudeDegrees>-33.00405227579176425933837890625</LatitudeDegrees>
              <LongitudeDegrees>-69.2965449392795562744140625</LongitudeDegrees>
            </Position>
            <AltitudeMeters>1968.199951171875</AltitudeMeters>
            <DistanceMeters>512.07084109096</DistanceMeters>
          </Trackpoint>
          <Trackpoint>
            <Time>2021-08-29T14:00:32.000Z</Time>
            <Position>
              <LatitudeDegrees>-33.00403182394802570343017578125</LatitudeDegrees>
              <LongitudeDegrees>-69.2966627888381481170654296875</LongitudeDegrees>
            </Position>
            <AltitudeMeters>1968.5999755859375</AltitudeMeters>
            <DistanceMeters>523.30410812365</DistanceMeters>
          </Trackpoint>
          <Trackpoint>
            <Time>2021-08-29T14:00:40.000Z</Time>
            <Position>
              <LatitudeDegrees>-33.0039671994745731353759765625</LatitudeDegrees>
              <LongitudeDegrees>-69.296944253146648406982421875</LongitudeDegrees>
            </Position>
            <AltitudeMeters>1970</AltitudeMeters>
            <DistanceMeters>550.54314740728</DistanceMeters>
          </Trackpoint>
          <Trackpoint>
            <Time>2021-08-29T14:00:42.000Z</Time>
            <Position>
              <LatitudeDegrees>-33.00394398160278797149658203125</LatitudeDegrees>
              <LongitudeDegrees>-69.29700988344848155975341796875</LongitudeDegrees>
            </Position>
            <AltitudeMeters>1970.199951171875</AltitudeMeters>
            <DistanceMeters>557.19162273575</DistanceMeters>
          </Trackpoint>
          <Trackpoint>
            <Time>2021-08-29T14:00:44.000Z</Time>
            <Position>
              <LatitudeDegrees>-33.00391799770295619964599609375</LatitudeDegrees>
              <LongitudeDegrees>-69.29707274772226810455322265625</LongitudeDegrees>
            </Position>
            <AltitudeMeters>1970.4000244140625</AltitudeMeters>
            <DistanceMeters>563.73329929974</DistanceMeters>
          </Trackpoint>
          <Trackpoint>
            <Time>2021-08-29T14:00:48.000Z</Time>
            <Position>
              <LatitudeDegrees>-33.003864772617816925048828125</LatitudeDegrees>
              <LongitudeDegrees>-69.29718037135899066925048828125</LongitudeDegrees>
            </Position>
            <AltitudeMeters>1970.4000244140625</AltitudeMeters>
            <DistanceMeters>575.39567518971</DistanceMeters>
          </Trackpoint>
          <Trackpoint>
            <Time>2021-08-29T14:00:50.000Z</Time>
            <Position>
              <LatitudeDegrees>-33.00383560359477996826171875</LatitudeDegrees>
              <LongitudeDegrees>-69.29722999222576618194580078125</LongitudeDegrees>
            </Position>
            <AltitudeMeters>1970.4000244140625</AltitudeMeters>
            <DistanceMeters>581.05275844147</DistanceMeters>
          </Trackpoint>
          <Trackpoint>
            <Time>2021-08-29T14:00:57.000Z</Time>
            <Position>
              <LatitudeDegrees>-33.00374348647892475128173828125</LatitudeDegrees>
              <LongitudeDegrees>-69.2973229475319385528564453125</LongitudeDegrees>
            </Position>
            <AltitudeMeters>1969.800048828125</AltitudeMeters>
            <DistanceMeters>594.48450803986</DistanceMeters>
          </Trackpoint>
          <Trackpoint>
            <Time>2021-08-29T14:01:06.000Z</Time>
            <Position>
              <LatitudeDegrees>-33.00365044735372066497802734375</LatitudeDegrees>
              <LongitudeDegrees>-69.29739595390856266021728515625</LongitudeDegrees>
            </Position>
            <AltitudeMeters>1969.199951171875</AltitudeMeters>
            <DistanceMeters>606.88139760941</DistanceMeters>
          </Trackpoint>
          <Trackpoint>
            <Time>2021-08-29T14:01:12.000Z</Time>
            <Position>
              <LatitudeDegrees>-33.0036004073917865753173828125</LatitudeDegrees>
              <LongitudeDegrees>-69.29741405881941318511962890625</LongitudeDegrees>
            </Position>
            <AltitudeMeters>1968.5999755859375</AltitudeMeters>
            <DistanceMeters>612.7021232358</DistanceMeters>
          </Trackpoint>
          <Trackpoint>
            <Time>2021-08-29T14:01:18.000Z</Time>
            <Position>
              <LatitudeDegrees>-33.003603257238864898681640625</LatitudeDegrees>
              <LongitudeDegrees>-69.29742000997066497802734375</LongitudeDegrees>
            </Position>
            <AltitudeMeters>1968.800048828125</AltitudeMeters>
            <DistanceMeters>613.33958181483</DistanceMeters>
          </Trackpoint>
          <Trackpoint>
            <Time>2021-08-29T14:01:25.000Z</Time>
            <Position>
              <LatitudeDegrees>-33.00357886590063571929931640625</LatitudeDegrees>
              <LongitudeDegrees>-69.2974007315933704376220703125</LongitudeDegrees>
            </Position>
            <AltitudeMeters>1968.199951171875</AltitudeMeters>
            <DistanceMeters>616.59831928479</DistanceMeters>
          </Trackpoint>
          <Trackpoint>
            <Time>2021-08-29T14:01:29.000Z</Time>
            <Position>
              <LatitudeDegrees>-33.00353310070931911468505859375</LatitudeDegrees>
              <LongitudeDegrees>-69.29740617983043193817138671875</LongitudeDegrees>
            </Position>
            <AltitudeMeters>1967.800048828125</AltitudeMeters>
            <DistanceMeters>621.71742876206</DistanceMeters>
          </Trackpoint>
          <Trackpoint>
            <Time>2021-08-29T14:01:32.000Z</Time>
            <Position>
              <LatitudeDegrees>-33.00350778736174106597900390625</LatitudeDegrees>
              <LongitudeDegrees>-69.2973883263766765594482421875</LongitudeDegrees>
            </Position>
            <AltitudeMeters>1967.199951171875</AltitudeMeters>
            <DistanceMeters>624.98999207887</DistanceMeters>
          </Trackpoint>
          <Trackpoint>
            <Time>2021-08-29T14:01:33.000Z</Time>
            <Position>
              <LatitudeDegrees>-33.003499992191791534423828125</LatitudeDegrees>
              <LongitudeDegrees>-69.29738245904445648193359375</LongitudeDegrees>
            </Position>
            <AltitudeMeters>1967</AltitudeMeters>
            <DistanceMeters>626.0134611148</DistanceMeters>
          </Trackpoint>
          <Trackpoint>
            <Time>2021-08-29T14:01:38.000Z</Time>
            <Position>
              <LatitudeDegrees>-33.0034723319113254547119140625</LatitudeDegrees>
              <LongitudeDegrees>-69.2973749153316020965576171875</LongitudeDegrees>
            </Position>
            <AltitudeMeters>1966.5999755859375</AltitudeMeters>
            <DistanceMeters>629.17372448152</DistanceMeters>
          </Trackpoint>
          <Trackpoint>
            <Time>2021-08-29T14:01:40.000Z</Time>
            <Position>
              <LatitudeDegrees>-33.0034642852842807769775390625</LatitudeDegrees>
              <LongitudeDegrees>-69.29737986065447330474853515625</LongitudeDegrees>
            </Position>
            <AltitudeMeters>1966.5999755859375</AltitudeMeters>
            <DistanceMeters>630.17939269804</DistanceMeters>
          </Trackpoint>
          <Trackpoint>
            <Time>2021-08-29T14:01:44.000Z</Time>
            <Position>
              <LatitudeDegrees>-33.003462441265583038330078125</LatitudeDegrees>
              <LongitudeDegrees>-69.297382123768329620361328125</LongitudeDegrees>
            </Position>
            <AltitudeMeters>1966.5999755859375</AltitudeMeters>
            <DistanceMeters>630.47989355401</DistanceMeters>
          </Trackpoint>
          <Trackpoint>
            <Time>2021-08-29T14:01:49.000Z</Time>
            <Position>
              <LatitudeDegrees>-33.003461770713329315185546875</LatitudeDegrees>
              <LongitudeDegrees>-69.29738488979637622833251953125</LongitudeDegrees>
            </Position>
            <AltitudeMeters>1966.5999755859375</AltitudeMeters>
            <DistanceMeters>630.74866969051</DistanceMeters>
          </Trackpoint>
          <Trackpoint>
            <Time>2021-08-29T14:01:59.000Z</Time>
            <Position>
              <LatitudeDegrees>-33.003461770713329315185546875</LatitudeDegrees>
              <LongitudeDegrees>-69.29738488979637622833251953125</LongitudeDegrees>
            </Position>
            <AltitudeMeters>1966.5999755859375</AltitudeMeters>
            <DistanceMeters>630.84369640488</DistanceMeters>
          </Trackpoint>
          <Trackpoint>
            <Time>2021-08-29T14:10:17.000Z</Time>
            <Position>
              <LatitudeDegrees>-33.00331215374171733856201171875</LatitudeDegrees>
              <LongitudeDegrees>-69.29702438414096832275390625</LongitudeDegrees>
            </Position>
            <AltitudeMeters>1965</AltitudeMeters>
            <DistanceMeters>668.38923107303</DistanceMeters>
          </Trackpoint>
          <Trackpoint>
            <Time>2021-08-29T14:10:21.000Z</Time>
            <Position>
              <LatitudeDegrees>-33.00331081263720989227294921875</LatitudeDegrees>
              <LongitudeDegrees>-69.297018013894557952880859375</LongitudeDegrees>
            </Position>
            <AltitudeMeters>1965</AltitudeMeters>
            <DistanceMeters>669.00507456828</DistanceMeters>
          </Trackpoint>
          <Trackpoint>
            <Time>2021-08-29T14:10:25.000Z</Time>
            <Position>
              <LatitudeDegrees>-33.0032778717577457427978515625</LatitudeDegrees>
              <LongitudeDegrees>-69.29698524065315723419189453125</LongitudeDegrees>
            </Position>
            <AltitudeMeters>1965.199951171875</AltitudeMeters>
            <DistanceMeters>673.78105332634</DistanceMeters>
          </Trackpoint>
          <Trackpoint>
            <Time>2021-08-29T14:10:31.000Z</Time>
            <Position>
              <LatitudeDegrees>-33.0031883530318737030029296875</LatitudeDegrees>
              <LongitudeDegrees>-69.2968958057463169097900390625</LongitudeDegrees>
            </Position>
            <AltitudeMeters>1965.4000244140625</AltitudeMeters>
            <DistanceMeters>686.77923513252</DistanceMeters>
          </Trackpoint>
          <Trackpoint>
            <Time>2021-08-29T14:10:36.000Z</Time>
            <Position>
              <LatitudeDegrees>-33.00311869941651821136474609375</LatitudeDegrees>
              <LongitudeDegrees>-69.29681525565683841705322265625</LongitudeDegrees>
            </Position>
            <AltitudeMeters>1965.4000244140625</AltitudeMeters>
            <DistanceMeters>697.57888639309</DistanceMeters>
          </Trackpoint>
          <Trackpoint>
            <Time>2021-08-29T14:10:42.000Z</Time>
            <Position>
              <LatitudeDegrees>-33.00305382348597049713134765625</LatitudeDegrees>
              <LongitudeDegrees>-69.296668656170368194580078125</LongitudeDegrees>
            </Position>
            <AltitudeMeters>1964.4000244140625</AltitudeMeters>
            <DistanceMeters>713.05161681414</DistanceMeters>
          </Trackpoint>
          <Trackpoint>
            <Time>2021-08-29T14:10:47.000Z</Time>
            <Position>
              <LatitudeDegrees>-33.00300286151468753814697265625</LatitudeDegrees>
              <LongitudeDegrees>-69.29650294594466686248779296875</LongitudeDegrees>
            </Position>
            <AltitudeMeters>1963</AltitudeMeters>
            <DistanceMeters>729.52662934076</DistanceMeters>
          </Trackpoint>
          <Trackpoint>
            <Time>2021-08-29T14:10:49.000Z</Time>
            <Position>
              <LatitudeDegrees>-33.002977631986141204833984375</LatitudeDegrees>
              <LongitudeDegrees>-69.29642164148390293121337890625</LongitudeDegrees>
            </Position>
            <AltitudeMeters>1962.5999755859375</AltitudeMeters>
            <DistanceMeters>737.61897846642</DistanceMeters>
          </Trackpoint>
          <Trackpoint>
            <Time>2021-08-29T14:10:52.000Z</Time>
            <Position>
              <LatitudeDegrees>-33.002944104373455047607421875</LatitudeDegrees>
              <LongitudeDegrees>-69.29631636478006839752197265625</LongitudeDegrees>
            </Position>
            <AltitudeMeters>1962</AltitudeMeters>
            <DistanceMeters>748.13049669017</DistanceMeters>
          </Trackpoint>
          <Trackpoint>
            <Time>2021-08-29T14:11:00.000Z</Time>
            <Position>
              <LatitudeDegrees>-33.00284452736377716064453125</LatitudeDegrees>
              <LongitudeDegrees>-69.2960388399660587310791015625</LongitudeDegrees>
            </Position>
            <AltitudeMeters>1960.4000244140625</AltitudeMeters>
            <DistanceMeters>776.30667866582</DistanceMeters>
          </Trackpoint>
          <Trackpoint>
            <Time>2021-08-29T14:11:09.000Z</Time>
            <Position>
              <LatitudeDegrees>-33.0026949942111968994140625</LatitudeDegrees>
              <LongitudeDegrees>-69.29579266346991062164306640625</LongitudeDegrees>
            </Position>
            <AltitudeMeters>1959.199951171875</AltitudeMeters>
            <DistanceMeters>804.67975243268</DistanceMeters>
          </Trackpoint>
          <Trackpoint>
            <Time>2021-08-29T14:11:17.000Z</Time>
            <Position>
              <LatitudeDegrees>-33.00261880271136760711669921875</LatitudeDegrees>
              <LongitudeDegrees>-69.2955875582993030548095703125</LongitudeDegrees>
            </Position>
            <AltitudeMeters>1957.800048828125</AltitudeMeters>
            <DistanceMeters>825.61886252982</DistanceMeters>
          </Trackpoint>
          <Trackpoint>
            <Time>2021-08-29T14:11:23.000Z</Time>
            <Position>
              <LatitudeDegrees>-33.00252945162355899810791015625</LatitudeDegrees>
              <LongitudeDegrees>-69.29547951556742191314697265625</LongitudeDegrees>
            </Position>
            <AltitudeMeters>1957.5999755859375</AltitudeMeters>
            <DistanceMeters>839.78262538716</DistanceMeters>
          </Trackpoint>
          <Trackpoint>
            <Time>2021-08-29T14:11:35.000Z</Time>
            <Position>
              <LatitudeDegrees>-33.00227061845362186431884765625</LatitudeDegrees>
              <LongitudeDegrees>-69.29534171707928180694580078125</LongitudeDegrees>
            </Position>
            <AltitudeMeters>1959.199951171875</AltitudeMeters>
            <DistanceMeters>871.33235322147</DistanceMeters>
          </Trackpoint>
          <Trackpoint>
            <Time>2021-08-29T14:11:40.000Z</Time>
            <Position>
              <LatitudeDegrees>-33.00216919742524623870849609375</LatitudeDegrees>
              <LongitudeDegrees>-69.29529377259314060211181640625</LongitudeDegrees>
            </Position>
            <AltitudeMeters>1959.800048828125</AltitudeMeters>
            <DistanceMeters>883.47571141967</DistanceMeters>
          </Trackpoint>
          <Trackpoint>
            <Time>2021-08-29T14:11:44.000Z</Time>
            <Position>
              <LatitudeDegrees>-33.00205872394144535064697265625</LatitudeDegrees>
              <LongitudeDegrees>-69.29526351392269134521484375</LongitudeDegrees>
            </Position>
            <AltitudeMeters>1960.800048828125</AltitudeMeters>
            <DistanceMeters>896.09173802876</DistanceMeters>
          </Trackpoint>
          <Trackpoint>
            <Time>2021-08-29T14:11:48.000Z</Time>
            <Position>
              <LatitudeDegrees>-33.00194154493510723114013671875</LatitudeDegrees>
              <LongitudeDegrees>-69.29523074068129062652587890625</LongitudeDegrees>
            </Position>
            <AltitudeMeters>1961.800048828125</AltitudeMeters>
            <DistanceMeters>909.48814572811</DistanceMeters>
          </Trackpoint>
          <Trackpoint>
            <Time>2021-08-29T14:11:52.000Z</Time>
            <Position>
              <LatitudeDegrees>-33.00184406340122222900390625</LatitudeDegrees>
              <LongitudeDegrees>-69.2951983027160167694091796875</LongitudeDegrees>
            </Position>
            <AltitudeMeters>1962.4000244140625</AltitudeMeters>
            <DistanceMeters>920.75272002945</DistanceMeters>
          </Trackpoint>
          <Trackpoint>
            <Time>2021-08-29T14:12:00.000Z</Time>
            <Position>
              <LatitudeDegrees>-33.0016946978867053985595703125</LatitudeDegrees>
              <LongitudeDegrees>-69.29511926136910915374755859375</LongitudeDegrees>
            </Position>
            <AltitudeMeters>1963</AltitudeMeters>
            <DistanceMeters>938.94109132884</DistanceMeters>
          </Trackpoint>
          <Trackpoint>
            <Time>2021-08-29T14:12:06.000Z</Time>
            <Position>
              <LatitudeDegrees>-33.0015924386680126190185546875</LatitudeDegrees>
              <LongitudeDegrees>-69.2950675450265407562255859375</LongitudeDegrees>
            </Position>
            <AltitudeMeters>1963.5999755859375</AltitudeMeters>
            <DistanceMeters>951.30406321631</DistanceMeters>
          </Trackpoint>
          <Trackpoint>
            <Time>2021-08-29T14:12:10.000Z</Time>
            <Position>
              <LatitudeDegrees>-33.00151817500591278076171875</LatitudeDegrees>
              <LongitudeDegrees>-69.29502882063388824462890625</LongitudeDegrees>
            </Position>
            <AltitudeMeters>1963.800048828125</AltitudeMeters>
            <DistanceMeters>960.32509691057</DistanceMeters>
          </Trackpoint>
          <Trackpoint>
            <Time>2021-08-29T14:12:14.000Z</Time>
            <Position>
              <LatitudeDegrees>-33.00144030712544918060302734375</LatitudeDegrees>
              <LongitudeDegrees>-69.29500644095242023468017578125</LongitudeDegrees>
            </Position>
            <AltitudeMeters>1964.4000244140625</AltitudeMeters>
            <DistanceMeters>969.24040581491</DistanceMeters>
          </Trackpoint>
          <Trackpoint>
            <Time>2021-08-29T14:12:17.000Z</Time>
            <Position>
              <LatitudeDegrees>-33.001375012099742889404296875</LatitudeDegrees>
              <LongitudeDegrees>-69.29500174708664417266845703125</LongitudeDegrees>
            </Position>
            <AltitudeMeters>1965.199951171875</AltitudeMeters>
            <DistanceMeters>976.52096545864</DistanceMeters>
          </Trackpoint>
          <Trackpoint>
            <Time>2021-08-29T14:12:20.000Z</Time>
            <Position>
              <LatitudeDegrees>-33.00132212229073047637939453125</LatitudeDegrees>
              <LongitudeDegrees>-69.29501532576978206634521484375</LongitudeDegrees>
            </Position>
            <AltitudeMeters>1965.800048828125</AltitudeMeters>
            <DistanceMeters>982.54224081545</DistanceMeters>
          </Trackpoint>
          <Trackpoint>
            <Time>2021-08-29T14:12:23.000Z</Time>
            <Position>
              <LatitudeDegrees>-33.00128750503063201904296875</LatitudeDegrees>
              <LongitudeDegrees>-69.29503678344190120697021484375</LongitudeDegrees>
            </Position>
            <AltitudeMeters>1966.5999755859375</AltitudeMeters>
            <DistanceMeters>986.88549186638</DistanceMeters>
          </Trackpoint>
          <Trackpoint>
            <Time>2021-08-29T14:12:26.000Z</Time>
            <Position>
              <LatitudeDegrees>-33.00128138624131679534912109375</LatitudeDegrees>
              <LongitudeDegrees>-69.29503678344190120697021484375</LongitudeDegrees>
            </Position>
            <AltitudeMeters>1966.5999755859375</AltitudeMeters>
            <DistanceMeters>987.56411834585</DistanceMeters>
          </Trackpoint>
          <Trackpoint>
            <Time>2021-08-29T14:12:33.000Z</Time>
            <Position>
              <LatitudeDegrees>-33.00128356553614139556884765625</LatitudeDegrees>
              <LongitudeDegrees>-69.2950534634292125701904296875</LongitudeDegrees>
            </Position>
            <AltitudeMeters>1966.800048828125</AltitudeMeters>
            <DistanceMeters>989.14282069225</DistanceMeters>
          </Trackpoint>
          <Trackpoint>
            <Time>2021-08-29T14:12:35.000Z</Time>
            <Position>
              <LatitudeDegrees>-33.00127686001360416412353515625</LatitudeDegrees>
              <LongitudeDegrees>-69.295076765120029449462890625</LongitudeDegrees>
            </Position>
            <AltitudeMeters>1967.199951171875</AltitudeMeters>
            <DistanceMeters>991.44317388169</DistanceMeters>
          </Trackpoint>
          <Trackpoint>
            <Time>2021-08-29T14:12:36.000Z</Time>
            <Position>
              <LatitudeDegrees>-33.0012695677578449249267578125</LatitudeDegrees>
              <LongitudeDegrees>-69.29509210400283336639404296875</LongitudeDegrees>
            </Position>
            <AltitudeMeters>1967.4000244140625</AltitudeMeters>
            <DistanceMeters>993.08908485534</DistanceMeters>
          </Trackpoint>
          <Trackpoint>
            <Time>2021-08-29T14:12:42.000Z</Time>
            <Position>
              <LatitudeDegrees>-33.00119907595217227935791015625</LatitudeDegrees>
              <LongitudeDegrees>-69.29515178315341472625732421875</LongitudeDegrees>
            </Position>
            <AltitudeMeters>1969</AltitudeMeters>
            <DistanceMeters>1002.7116834574</DistanceMeters>
          </Trackpoint>
          <Trackpoint>
            <Time>2021-08-29T14:12:43.000Z</Time>
            <Position>
              <LatitudeDegrees>-33.00118432380259037017822265625</LatitudeDegrees>
              <LongitudeDegrees>-69.2951573990285396575927734375</LongitudeDegrees>
            </Position>
            <AltitudeMeters>1969.199951171875</AltitudeMeters>
            <DistanceMeters>1004.4353119412</DistanceMeters>
          </Trackpoint>
          <Trackpoint>
            <Time>2021-08-29T14:12:45.000Z</Time>
            <Position>
              <LatitudeDegrees>-33.00114962272346019744873046875</LatitudeDegrees>
              <LongitudeDegrees>-69.29515848867595195770263671875</LongitudeDegrees>
            </Position>
            <AltitudeMeters>1969.5999755859375</AltitudeMeters>
            <DistanceMeters>1008.2988228266</DistanceMeters>
          </Trackpoint>
          <Trackpoint>
            <Time>2021-08-29T14:12:50.000Z</Time>
            <Position>
              <LatitudeDegrees>-33.00105775706470012664794921875</LatitudeDegrees>
              <LongitudeDegrees>-69.29514876566827297210693359375</LongitudeDegrees>
            </Position>
            <AltitudeMeters>1970.4000244140625</AltitudeMeters>
            <DistanceMeters>1018.5634675817</DistanceMeters>
          </Trackpoint>
          <Trackpoint>
            <Time>2021-08-29T14:12:52.000Z</Time>
            <Position>
              <LatitudeDegrees>-33.0010239779949188232421875</LatitudeDegrees>
              <LongitudeDegrees>-69.2951386235654354095458984375</LongitudeDegrees>
            </Position>
            <AltitudeMeters>1970.800048828125</AltitudeMeters>
            <DistanceMeters>1022.4398121488</DistanceMeters>
          </Trackpoint>
          <Trackpoint>
            <Time>2021-08-29T14:12:56.000Z</Time>
            <Position>
              <LatitudeDegrees>-33.00096136517822742462158203125</LatitudeDegrees>
              <LongitudeDegrees>-69.295110963284969329833984375</LongitudeDegrees>
            </Position>
            <AltitudeMeters>1971</AltitudeMeters>
            <DistanceMeters>1029.8725779653</DistanceMeters>
          </Trackpoint>
          <Trackpoint>
            <Time>2021-08-29T14:13:02.000Z</Time>
            <Position>
              <LatitudeDegrees>-33.0008685775101184844970703125</LatitudeDegrees>
              <LongitudeDegrees>-69.29505203850567340850830078125</LongitudeDegrees>
            </Position>
            <AltitudeMeters>1971.4000244140625</AltitudeMeters>
            <DistanceMeters>1041.572832616</DistanceMeters>
          </Trackpoint>
          <Trackpoint>
            <Time>2021-08-29T14:13:04.000Z</Time>
            <Position>
              <LatitudeDegrees>-33.00083245150744915008544921875</LatitudeDegrees>
              <LongitudeDegrees>-69.29503845982253551483154296875</LongitudeDegrees>
            </Position>
            <AltitudeMeters>1971.5999755859375</AltitudeMeters>
            <DistanceMeters>1045.7884215952</DistanceMeters>
          </Trackpoint>
          <Trackpoint>
            <Time>2021-08-29T14:13:09.000Z</Time>
            <Position>
              <LatitudeDegrees>-33.00075014121830463409423828125</LatitudeDegrees>
              <LongitudeDegrees>-69.29500610567629337310791015625</LongitudeDegrees>
            </Position>
            <AltitudeMeters>1972.4000244140625</AltitudeMeters>
            <DistanceMeters>1055.4344522648</DistanceMeters>
          </Trackpoint>
          <Trackpoint>
            <Time>2021-08-29T14:13:13.000Z</Time>
            <Position>
              <LatitudeDegrees>-33.00068442709743976593017578125</LatitudeDegrees>
              <LongitudeDegrees>-69.2949954606592655181884765625</LongitudeDegrees>
            </Position>
            <AltitudeMeters>1973</AltitudeMeters>
            <DistanceMeters>1062.8147924406</DistanceMeters>
          </Trackpoint>
          <Trackpoint>
            <Time>2021-08-29T14:13:22.000Z</Time>
            <Position>
              <LatitudeDegrees>-33.000504635274410247802734375</LatitudeDegrees>
              <LongitudeDegrees>-69.2949686385691165924072265625</LongitudeDegrees>
            </Position>
            <AltitudeMeters>1974</AltitudeMeters>
            <DistanceMeters>1082.9817360107</DistanceMeters>
          </Trackpoint>
          <Trackpoint>
            <Time>2021-08-29T14:13:28.000Z</Time>
            <Position>
              <LatitudeDegrees>-33.00037731416523456573486328125</LatitudeDegrees>
              <LongitudeDegrees>-69.2949384637176990509033203125</LongitudeDegrees>
            </Position>
            <AltitudeMeters>1974.199951171875</AltitudeMeters>
            <DistanceMeters>1097.4295471625</DistanceMeters>
          </Trackpoint>
          <Trackpoint>
            <Time>2021-08-29T14:13:38.000Z</Time>
            <Position>
              <LatitudeDegrees>-33.0001893080770969390869140625</LatitudeDegrees>
              <LongitudeDegrees>-69.29480494000017642974853515625</LongitudeDegrees>
            </Position>
            <AltitudeMeters>1974.199951171875</AltitudeMeters>
            <DistanceMeters>1121.785693038</DistanceMeters>
          </Trackpoint>
          <Trackpoint>
            <Time>2021-08-29T14:13:45.000Z</Time>
            <Position>
              <LatitudeDegrees>-33.00007045269012451171875</LatitudeDegrees>
              <LongitudeDegrees>-69.29477862082421779632568359375</LongitudeDegrees>
            </Position>
            <AltitudeMeters>1974.4000244140625</AltitudeMeters>
            <DistanceMeters>1135.2406167668</DistanceMeters>
          </Trackpoint>
          <Trackpoint>
            <Time>2021-08-29T14:13:52.000Z</Time>
            <Position>
              <LatitudeDegrees>-32.99997012130916118621826171875</LatitudeDegrees>
              <LongitudeDegrees>-69.29474878124892711639404296875</LongitudeDegrees>
            </Position>
            <AltitudeMeters>1974</AltitudeMeters>
            <DistanceMeters>1146.7506233485</DistanceMeters>
          </Trackpoint>
          <Trackpoint>
            <Time>2021-08-29T14:13:55.000Z</Time>
            <Position>
              <LatitudeDegrees>-32.9999376833438873291015625</LatitudeDegrees>
              <LongitudeDegrees>-69.2947470210492610931396484375</LongitudeDegrees>
            </Position>
            <AltitudeMeters>1974</AltitudeMeters>
            <DistanceMeters>1150.3641383322</DistanceMeters>
          </Trackpoint>
          <Trackpoint>
            <Time>2021-08-29T14:14:01.000Z</Time>
            <Position>
              <LatitudeDegrees>-32.999936677515506744384765625</LatitudeDegrees>
              <LongitudeDegrees>-69.29474710486829280853271484375</LongitudeDegrees>
            </Position>
            <AltitudeMeters>1974</AltitudeMeters>
            <DistanceMeters>1150.4591650466</DistanceMeters>
          </Trackpoint>
          <Trackpoint>
            <Time>2021-08-29T14:14:05.000Z</Time>
            <Position>
              <LatitudeDegrees>-32.9999376833438873291015625</LatitudeDegrees>
              <LongitudeDegrees>-69.29474727250635623931884765625</LongitudeDegrees>
            </Position>
            <AltitudeMeters>1974</AltitudeMeters>
            <DistanceMeters>1150.554191761</DistanceMeters>
          </Trackpoint>
          <Trackpoint>
            <Time>2021-08-29T14:14:07.000Z</Time>
            <Position>
              <LatitudeDegrees>-32.9999375157058238983154296875</LatitudeDegrees>
              <LongitudeDegrees>-69.2947493679821491241455078125</LongitudeDegrees>
            </Position>
            <AltitudeMeters>1974</AltitudeMeters>
            <DistanceMeters>1150.7442451897</DistanceMeters>
          </Trackpoint>
          <Trackpoint>
            <Time>2021-08-29T14:14:12.000Z</Time>
            <Position>
              <LatitudeDegrees>-32.9999375157058238983154296875</LatitudeDegrees>
              <LongitudeDegrees>-69.2947493679821491241455078125</LongitudeDegrees>
            </Position>
            <AltitudeMeters>1974</AltitudeMeters>
            <DistanceMeters>1150.7442451897</DistanceMeters>
          </Trackpoint>
          <Trackpoint>
            <Time>2021-08-29T14:14:17.000Z</Time>
            <Position>
              <LatitudeDegrees>-32.99993726424872875213623046875</LatitudeDegrees>
              <LongitudeDegrees>-69.2947493679821491241455078125</LongitudeDegrees>
            </Position>
            <AltitudeMeters>1974</AltitudeMeters>
            <DistanceMeters>1150.7442451897</DistanceMeters>
          </Trackpoint>
          <Trackpoint>
            <Time>2021-08-29T14:14:29.000Z</Time>
            <Position>
              <LatitudeDegrees>-32.99994396977126598358154296875</LatitudeDegrees>
              <LongitudeDegrees>-69.29475196637213230133056640625</LongitudeDegrees>
            </Position>
            <AltitudeMeters>1974</AltitudeMeters>
            <DistanceMeters>1151.5278555509</DistanceMeters>
          </Trackpoint>
          <Trackpoint>
            <Time>2021-08-29T14:14:32.000Z</Time>
            <Position>
              <LatitudeDegrees>-33.000008426606655120849609375</LatitudeDegrees>
              <LongitudeDegrees>-69.29480259306728839874267578125</LongitudeDegrees>
            </Position>
            <AltitudeMeters>1974.199951171875</AltitudeMeters>
            <DistanceMeters>1160.1181864351</DistanceMeters>
          </Trackpoint>
          <Trackpoint>
            <Time>2021-08-29T14:14:36.000Z</Time>
            <Position>
              <LatitudeDegrees>-33.0000655911862850189208984375</LatitudeDegrees>
              <LongitudeDegrees>-69.294891022145748138427734375</LongitudeDegrees>
            </Position>
            <AltitudeMeters>1974.4000244140625</AltitudeMeters>
            <DistanceMeters>1170.5404121832</DistanceMeters>
          </Trackpoint>
          <Trackpoint>
            <Time>2021-08-29T14:14:39.000Z</Time>
            <Position>
              <LatitudeDegrees>-33.0000736378133296966552734375</LatitudeDegrees>
              <LongitudeDegrees>-69.29497241042554378509521484375</LongitudeDegrees>
            </Position>
            <AltitudeMeters>1974.5999755859375</AltitudeMeters>
            <DistanceMeters>1178.1899151316</DistanceMeters>
          </Trackpoint>
          <Trackpoint>
            <Time>2021-08-29T14:14:42.000Z</Time>
            <Position>
              <LatitudeDegrees>-33.0000619031488895416259765625</LatitudeDegrees>
              <LongitudeDegrees>-69.29507316090166568756103515625</LongitudeDegrees>
            </Position>
            <AltitudeMeters>1974.5999755859375</AltitudeMeters>
            <DistanceMeters>1187.6845058621</DistanceMeters>
          </Trackpoint>
          <Trackpoint>
            <Time>2021-08-29T14:14:45.000Z</Time>
            <Position>
              <LatitudeDegrees>-33.0000263638794422149658203125</LatitudeDegrees>
              <LongitudeDegrees>-69.2951912619173526763916015625</LongitudeDegrees>
            </Position>
            <AltitudeMeters>1974.800048828125</AltitudeMeters>
            <DistanceMeters>1199.397102557</DistanceMeters>
          </Trackpoint>
          <Trackpoint>
            <Time>2021-08-29T14:14:48.000Z</Time>
            <Position>
              <LatitudeDegrees>-32.99997456371784210205078125</LatitudeDegrees>
              <LongitudeDegrees>-69.295302070677280426025390625</LongitudeDegrees>
            </Position>
            <AltitudeMeters>1973.5999755859375</AltitudeMeters>
            <DistanceMeters>1211.2392766468</DistanceMeters>
          </Trackpoint>
          <Trackpoint>
            <Time>2021-08-29T14:14:52.000Z</Time>
            <Position>
              <LatitudeDegrees>-32.9999351687729358673095703125</LatitudeDegrees>
              <LongitudeDegrees>-69.29546979255974292755126953125</LongitudeDegrees>
            </Position>
            <AltitudeMeters>1974.4000244140625</AltitudeMeters>
            <DistanceMeters>1227.4980114629</DistanceMeters>
          </Trackpoint>
          <Trackpoint>
            <Time>2021-08-29T14:14:57.000Z</Time>
            <Position>
              <LatitudeDegrees>-32.9999026469886302947998046875</LatitudeDegrees>
              <LongitudeDegrees>-69.29567062295973300933837890625</LongitudeDegrees>
            </Position>
            <AltitudeMeters>1975.800048828125</AltitudeMeters>
            <DistanceMeters>1246.5912881885</DistanceMeters>
          </Trackpoint>
          <Trackpoint>
            <Time>2021-08-29T14:15:01.000Z</Time>
            <Position>
              <LatitudeDegrees>-32.999877668917179107666015625</LatitudeDegrees>
              <LongitudeDegrees>-69.29580238647758960723876953125</LongitudeDegrees>
            </Position>
            <AltitudeMeters>1976.5999755859375</AltitudeMeters>
            <DistanceMeters>1259.2008712913</DistanceMeters>
          </Trackpoint>
          <Trackpoint>
            <Time>2021-08-29T14:15:07.000Z</Time>
            <Position>
              <LatitudeDegrees>-32.99986903555691242218017578125</LatitudeDegrees>
              <LongitudeDegrees>-69.29598259739577770233154296875</LongitudeDegrees>
            </Position>
            <AltitudeMeters>1977.5999755859375</AltitudeMeters>
            <DistanceMeters>1276.0501019361</DistanceMeters>
          </Trackpoint>
          <Trackpoint>
            <Time>2021-08-29T14:15:13.000Z</Time>
            <Position>
              <LatitudeDegrees>-32.9999148845672607421875</LatitudeDegrees>
              <LongitudeDegrees>-69.29610514082014560699462890625</LongitudeDegrees>
            </Position>
            <AltitudeMeters>1978.800048828125</AltitudeMeters>
            <DistanceMeters>1288.5756178191</DistanceMeters>
          </Trackpoint>
          <Trackpoint>
            <Time>2021-08-29T14:15:22.000Z</Time>
            <Position>
              <LatitudeDegrees>-32.9999593086540699005126953125</LatitudeDegrees>
              <LongitudeDegrees>-69.2963318713009357452392578125</LongitudeDegrees>
            </Position>
            <AltitudeMeters>1979.800048828125</AltitudeMeters>
            <DistanceMeters>1310.3099537634</DistanceMeters>
          </Trackpoint>
          <Trackpoint>
            <Time>2021-08-29T14:15:26.000Z</Time>
            <Position>
              <LatitudeDegrees>-32.9999484121799468994140625</LatitudeDegrees>
              <LongitudeDegrees>-69.2964264191687107086181640625</LongitudeDegrees>
            </Position>
            <AltitudeMeters>1979.5999755859375</AltitudeMeters>
            <DistanceMeters>1319.2181697346</DistanceMeters>
          </Trackpoint>
          <Trackpoint>
            <Time>2021-08-29T14:15:30.000Z</Time>
            <Position>
              <LatitudeDegrees>-32.9999093525111675262451171875</LatitudeDegrees>
              <LongitudeDegrees>-69.29651074111461639404296875</LongitudeDegrees>
            </Position>
            <AltitudeMeters>1978.800048828125</AltitudeMeters>
            <DistanceMeters>1328.2101275013</DistanceMeters>
          </Trackpoint>
          <Trackpoint>
            <Time>2021-08-29T14:15:35.000Z</Time>
            <Position>
              <LatitudeDegrees>-32.99983953125774860382080078125</LatitudeDegrees>
              <LongitudeDegrees>-69.29661224596202373504638671875</LongitudeDegrees>
            </Position>
            <AltitudeMeters>1977.5999755859375</AltitudeMeters>
            <DistanceMeters>1340.4645214587</DistanceMeters>
          </Trackpoint>
          <Trackpoint>
            <Time>2021-08-29T14:15:42.000Z</Time>
            <Position>
              <LatitudeDegrees>-32.999714724719524383544921875</LatitudeDegrees>
              <LongitudeDegrees>-69.29673680104315280914306640625</LongitudeDegrees>
            </Position>
            <AltitudeMeters>1976.5999755859375</AltitudeMeters>
            <DistanceMeters>1358.5795146404</DistanceMeters>
          </Trackpoint>
          <Trackpoint>
            <Time>2021-08-29T14:15:53.000Z</Time>
            <Position>
              <LatitudeDegrees>-32.99949939362704753875732421875</LatitudeDegrees>
              <LongitudeDegrees>-69.29690368473529815673828125</LongitudeDegrees>
            </Position>
            <AltitudeMeters>1975.800048828125</AltitudeMeters>
            <DistanceMeters>1387.1642390056</DistanceMeters>
          </Trackpoint>
          <Trackpoint>
            <Time>2021-08-29T14:15:57.000Z</Time>
            <Position>
              <LatitudeDegrees>-32.9994092881679534912109375</LatitudeDegrees>
              <LongitudeDegrees>-69.29696227423846721649169921875</LongitudeDegrees>
            </Position>
            <AltitudeMeters>1975.5999755859375</AltitudeMeters>
            <DistanceMeters>1398.5872248068</DistanceMeters>
          </Trackpoint>
          <Trackpoint>
            <Time>2021-08-29T14:16:04.000Z</Time>
            <Position>
              <LatitudeDegrees>-32.99925480969250202178955078125</LatitudeDegrees>
              <LongitudeDegrees>-69.29705430753529071807861328125</LongitudeDegrees>
            </Position>
            <AltitudeMeters>1975.800048828125</AltitudeMeters>
            <DistanceMeters>1417.8075376899</DistanceMeters>
          </Trackpoint>
          <Trackpoint>
            <Time>2021-08-29T14:16:07.000Z</Time>
            <Position>
              <LatitudeDegrees>-32.99919630400836467742919921875</LatitudeDegrees>
              <LongitudeDegrees>-69.29708699695765972137451171875</LongitudeDegrees>
            </Position>
            <AltitudeMeters>1976.4000244140625</AltitudeMeters>
            <DistanceMeters>1424.9988691239</DistanceMeters>
          </Trackpoint>
          <Trackpoint>
            <Time>2021-08-29T14:16:11.000Z</Time>
            <Position>
              <LatitudeDegrees>-32.99911298789083957672119140625</LatitudeDegrees>
              <LongitudeDegrees>-69.29713075049221515655517578125</LongitudeDegrees>
            </Position>
            <AltitudeMeters>1977</AltitudeMeters>
            <DistanceMeters>1435.1315868822</DistanceMeters>
          </Trackpoint>
          <Trackpoint>
            <Time>2021-08-29T14:16:14.000Z</Time>
            <Position>
              <LatitudeDegrees>-32.99904107116162776947021484375</LatitudeDegrees>
              <LongitudeDegrees>-69.2971566505730152130126953125</LongitudeDegrees>
            </Position>
            <AltitudeMeters>1977.4000244140625</AltitudeMeters>
            <DistanceMeters>1443.492857828</DistanceMeters>
          </Trackpoint>
          <Trackpoint>
            <Time>2021-08-29T14:16:23.000Z</Time>
            <Position>
              <LatitudeDegrees>-32.99887041561305522918701171875</LatitudeDegrees>
              <LongitudeDegrees>-69.29720811545848846435546875</LongitudeDegrees>
            </Position>
            <AltitudeMeters>1978</AltitudeMeters>
            <DistanceMeters>1463.0854214589</DistanceMeters>
          </Trackpoint>
          <Trackpoint>
            <Time>2021-08-29T14:16:28.000Z</Time>
            <Position>
              <LatitudeDegrees>-32.998755834996700286865234375</LatitudeDegrees>
              <LongitudeDegrees>-69.29721574299037456512451171875</LongitudeDegrees>
            </Position>
            <AltitudeMeters>1978</AltitudeMeters>
            <DistanceMeters>1475.8579451342</DistanceMeters>
          </Trackpoint>
          <Trackpoint>
            <Time>2021-08-29T14:16:32.000Z</Time>
            <Position>
              <LatitudeDegrees>-32.99865349195897579193115234375</LatitudeDegrees>
              <LongitudeDegrees>-69.29718858562409877777099609375</LongitudeDegrees>
            </Position>
            <AltitudeMeters>1977.199951171875</AltitudeMeters>
            <DistanceMeters>1487.5276744735</DistanceMeters>
          </Trackpoint>
          <Trackpoint>
            <Time>2021-08-29T14:16:40.000Z</Time>
            <Position>
              <LatitudeDegrees>-32.9984502308070659637451171875</LatitudeDegrees>
              <LongitudeDegrees>-69.2970277369022369384765625</LongitudeDegrees>
            </Position>
            <AltitudeMeters>1973</AltitudeMeters>
            <DistanceMeters>1514.6803837553</DistanceMeters>
          </Trackpoint>
          <Trackpoint>
            <Time>2021-08-29T14:16:45.000Z</Time>
            <Position>
              <LatitudeDegrees>-32.9982856102287769317626953125</LatitudeDegrees>
              <LongitudeDegrees>-69.296830594539642333984375</LongitudeDegrees>
            </Position>
            <AltitudeMeters>1970.5999755859375</AltitudeMeters>
            <DistanceMeters>1540.6492914911</DistanceMeters>
          </Trackpoint>
          <Trackpoint>
            <Time>2021-08-29T14:16:49.000Z</Time>
            <Position>
              <LatitudeDegrees>-32.9981987737119197845458984375</LatitudeDegrees>
              <LongitudeDegrees>-69.2967365495860576629638671875</LongitudeDegrees>
            </Position>
            <AltitudeMeters>1969.800048828125</AltitudeMeters>
            <DistanceMeters>1553.7056992325</DistanceMeters>
          </Trackpoint>
          <Trackpoint>
            <Time>2021-08-29T14:16:53.000Z</Time>
            <Position>
              <LatitudeDegrees>-32.99817346036434173583984375</LatitudeDegrees>
              <LongitudeDegrees>-69.29670545272529125213623046875</LongitudeDegrees>
            </Position>
            <AltitudeMeters>1969.4000244140625</AltitudeMeters>
            <DistanceMeters>1557.7507577631</DistanceMeters>
          </Trackpoint>
          <Trackpoint>
            <Time>2021-08-29T14:17:00.000Z</Time>
            <Position>
              <LatitudeDegrees>-32.99816482700407505035400390625</LatitudeDegrees>
              <LongitudeDegrees>-69.29667175747454166412353515625</LongitudeDegrees>
            </Position>
            <AltitudeMeters>1969.199951171875</AltitudeMeters>
            <DistanceMeters>1561.0398353815</DistanceMeters>
          </Trackpoint>
          <Trackpoint>
            <Time>2021-08-29T14:17:05.000Z</Time>
            <Position>
              <LatitudeDegrees>-32.9980861209332942962646484375</LatitudeDegrees>
              <LongitudeDegrees>-69.29661937057971954345703125</LongitudeDegrees>
            </Position>
            <AltitudeMeters>1968.5999755859375</AltitudeMeters>
            <DistanceMeters>1571.0722444663</DistanceMeters>
          </Trackpoint>
          <Trackpoint>
            <Time>2021-08-29T14:17:08.000Z</Time>
            <Position>
              <LatitudeDegrees>-32.99802803434431552886962890625</LatitudeDegrees>
              <LongitudeDegrees>-69.296600259840488433837890625</LongitudeDegrees>
            </Position>
            <AltitudeMeters>1968.5999755859375</AltitudeMeters>
            <DistanceMeters>1577.7781956062</DistanceMeters>
          </Trackpoint>
          <Trackpoint>
            <Time>2021-08-29T14:17:12.000Z</Time>
            <Position>
              <LatitudeDegrees>-32.99795108847320079803466796875</LatitudeDegrees>
              <LongitudeDegrees>-69.29657352156937122344970703125</LongitudeDegrees>
            </Position>
            <AltitudeMeters>1968.4000244140625</AltitudeMeters>
            <DistanceMeters>1586.6985674384</DistanceMeters>
          </Trackpoint>
          <Trackpoint>
            <Time>2021-08-29T14:17:19.000Z</Time>
            <Position>
              <LatitudeDegrees>-32.99780122004449367523193359375</LatitudeDegrees>
              <LongitudeDegrees>-69.29646723903715610504150390625</LongitudeDegrees>
            </Position>
            <AltitudeMeters>1967.5999755859375</AltitudeMeters>
            <DistanceMeters>1606.1068287923</DistanceMeters>
          </Trackpoint>
          <Trackpoint>
            <Time>2021-08-29T14:17:23.000Z</Time>
            <Position>
              <LatitudeDegrees>-32.9977236874401569366455078125</LatitudeDegrees>
              <LongitudeDegrees>-69.296416528522968292236328125</LongitudeDegrees>
            </Position>
            <AltitudeMeters>1967.199951171875</AltitudeMeters>
            <DistanceMeters>1615.950238783</DistanceMeters>
          </Trackpoint>
          <Trackpoint>
            <Time>2021-08-29T14:17:24.000Z</Time>
            <Position>
              <LatitudeDegrees>-32.99770633690059185028076171875</LatitudeDegrees>
              <LongitudeDegrees>-69.29640839807689189910888671875</LongitudeDegrees>
            </Position>
            <AltitudeMeters>1967.199951171875</AltitudeMeters>
            <DistanceMeters>1618.0278279002</DistanceMeters>
          </Trackpoint>
          <Trackpoint>
            <Time>2021-08-29T14:17:34.000Z</Time>
            <Position>
              <LatitudeDegrees>-32.9974920116364955902099609375</LatitudeDegrees>
              <LongitudeDegrees>-69.2963576875627040863037109375</LongitudeDegrees>
            </Position>
            <AltitudeMeters>1967.4000244140625</AltitudeMeters>
            <DistanceMeters>1642.3479842953</DistanceMeters>
          </Trackpoint>
          <Trackpoint>
            <Time>2021-08-29T14:17:41.000Z</Time>
            <Position>
              <LatitudeDegrees>-32.9973511956632137298583984375</LatitudeDegrees>
              <LongitudeDegrees>-69.29636481218039989471435546875</LongitudeDegrees>
            </Position>
            <AltitudeMeters>1968.199951171875</AltitudeMeters>
            <DistanceMeters>1658.0351651526</DistanceMeters>
          </Trackpoint>
          <Trackpoint>
            <Time>2021-08-29T14:17:44.000Z</Time>
            <Position>
              <LatitudeDegrees>-32.99729327671229839324951171875</LatitudeDegrees>
              <LongitudeDegrees>-69.296374283730983734130859375</LongitudeDegrees>
            </Position>
            <AltitudeMeters>1968.5999755859375</AltitudeMeters>
            <DistanceMeters>1664.5429342421</DistanceMeters>
          </Trackpoint>
          <Trackpoint>
            <Time>2021-08-29T14:17:49.000Z</Time>
            <Position>
              <LatitudeDegrees>-32.9971922747790813446044921875</LatitudeDegrees>
              <LongitudeDegrees>-69.2963975854218006134033203125</LongitudeDegrees>
            </Position>
            <AltitudeMeters>1969.4000244140625</AltitudeMeters>
            <DistanceMeters>1675.9927661105</DistanceMeters>
          </Trackpoint>
          <Trackpoint>
            <Time>2021-08-29T14:17:55.000Z</Time>
            <Position>
              <LatitudeDegrees>-32.99708180129528045654296875</LatitudeDegrees>
              <LongitudeDegrees>-69.29647293873131275177001953125</LongitudeDegrees>
            </Position>
            <AltitudeMeters>1971</AltitudeMeters>
            <DistanceMeters>1690.1584414822</DistanceMeters>
          </Trackpoint>
          <Trackpoint>
            <Time>2021-08-29T14:17:57.000Z</Time>
            <Position>
              <LatitudeDegrees>-32.99704852513968944549560546875</LatitudeDegrees>
              <LongitudeDegrees>-69.29649657569825649261474609375</LongitudeDegrees>
            </Position>
            <AltitudeMeters>1971.5999755859375</AltitudeMeters>
            <DistanceMeters>1694.469345949</DistanceMeters>
          </Trackpoint>
          <Trackpoint>
            <Time>2021-08-29T14:18:01.000Z</Time>
            <Position>
              <LatitudeDegrees>-32.997005693614482879638671875</LatitudeDegrees>
              <LongitudeDegrees>-69.29653814993798732757568359375</LongitudeDegrees>
            </Position>
            <AltitudeMeters>1972.800048828125</AltitudeMeters>
            <DistanceMeters>1700.6160393561</DistanceMeters>
          </Trackpoint>
          <Trackpoint>
            <Time>2021-08-29T14:18:03.000Z</Time>
            <Position>
              <LatitudeDegrees>-32.996983565390110015869140625</LatitudeDegrees>
              <LongitudeDegrees>-69.296553321182727813720703125</LongitudeDegrees>
            </Position>
            <AltitudeMeters>1973.4000244140625</AltitudeMeters>
            <DistanceMeters>1703.457322225</DistanceMeters>
          </Trackpoint>
          <Trackpoint>
            <Time>2021-08-29T14:18:05.000Z</Time>
            <Position>
              <LatitudeDegrees>-32.99695246852934360504150390625</LatitudeDegrees>
              <LongitudeDegrees>-69.29657553322613239288330078125</LongitudeDegrees>
            </Position>
            <AltitudeMeters>1974</AltitudeMeters>
            <DistanceMeters>1707.4912034518</DistanceMeters>
          </Trackpoint>
          <Trackpoint>
            <Time>2021-08-29T14:18:07.000Z</Time>
            <Position>
              <LatitudeDegrees>-32.9969282448291778564453125</LatitudeDegrees>
              <LongitudeDegrees>-69.296604953706264495849609375</LongitudeDegrees>
            </Position>
            <AltitudeMeters>1974.800048828125</AltitudeMeters>
            <DistanceMeters>1711.3394920803</DistanceMeters>
          </Trackpoint>
          <Trackpoint>
            <Time>2021-08-29T14:18:09.000Z</Time>
            <Position>
              <LatitudeDegrees>-32.9969046078622341156005859375</LatitudeDegrees>
              <LongitudeDegrees>-69.29663814604282379150390625</LongitudeDegrees>
            </Position>
            <AltitudeMeters>1975.5999755859375</AltitudeMeters>
            <DistanceMeters>1715.4034814769</DistanceMeters>
          </Trackpoint>
          <Trackpoint>
            <Time>2021-08-29T14:18:12.000Z</Time>
            <Position>
              <LatitudeDegrees>-32.99687124788761138916015625</LatitudeDegrees>
              <LongitudeDegrees>-69.296694807708263397216796875</LongitudeDegrees>
            </Position>
            <AltitudeMeters>1977</AltitudeMeters>
            <DistanceMeters>1721.8652980541</DistanceMeters>
          </Trackpoint>
          <Trackpoint>
            <Time>2021-08-29T14:18:21.000Z</Time>
            <Position>
              <LatitudeDegrees>-32.9967275820672512054443359375</LatitudeDegrees>
              <LongitudeDegrees>-69.2968565784394741058349609375</LongitudeDegrees>
            </Position>
            <AltitudeMeters>1981.199951171875</AltitudeMeters>
            <DistanceMeters>1743.8594153381</DistanceMeters>
          </Trackpoint>
          <Trackpoint>
            <Time>2021-08-29T14:18:27.000Z</Time>
            <Position>
              <LatitudeDegrees>-32.99662574194371700286865234375</LatitudeDegrees>
              <LongitudeDegrees>-69.29683855734765529632568359375</LongitudeDegrees>
            </Position>
            <AltitudeMeters>1981.800048828125</AltitudeMeters>
            <DistanceMeters>1755.3187072729</DistanceMeters>
          </Trackpoint>
          <Trackpoint>
            <Time>2021-08-29T14:18:34.000Z</Time>
            <Position>
              <LatitudeDegrees>-32.99655013717710971832275390625</LatitudeDegrees>
              <LongitudeDegrees>-69.2967217974364757537841796875</LongitudeDegrees>
            </Position>
            <AltitudeMeters>1980.5999755859375</AltitudeMeters>
            <DistanceMeters>1769.0887306996</DistanceMeters>
          </Trackpoint>
          <Trackpoint>
            <Time>2021-08-29T14:18:42.000Z</Time>
            <Position>
              <LatitudeDegrees>-32.99652884714305400848388671875</LatitudeDegrees>
              <LongitudeDegrees>-69.29651702754199504852294921875</LongitudeDegrees>
            </Position>
            <AltitudeMeters>1977</AltitudeMeters>
            <DistanceMeters>1788.350343321</DistanceMeters>
          </Trackpoint>
          <Trackpoint>
            <Time>2021-08-29T14:18:45.000Z</Time>
            <Position>
              <LatitudeDegrees>-32.99651174806058406829833984375</LatitudeDegrees>
              <LongitudeDegrees>-69.2964626289904117584228515625</LongitudeDegrees>
            </Position>
            <AltitudeMeters>1976.199951171875</AltitudeMeters>
            <DistanceMeters>1793.7743629609</DistanceMeters>
          </Trackpoint>
          <Trackpoint>
            <Time>2021-08-29T14:18:49.000Z</Time>
            <Position>
              <LatitudeDegrees>-32.9964560084044933319091796875</LatitudeDegrees>
              <LongitudeDegrees>-69.29639942944049835205078125</LongitudeDegrees>
            </Position>
            <AltitudeMeters>1975.5999755859375</AltitudeMeters>
            <DistanceMeters>1802.3362646522</DistanceMeters>
          </Trackpoint>
          <Trackpoint>
            <Time>2021-08-29T14:18:51.000Z</Time>
            <Position>
              <LatitudeDegrees>-32.99642843194305896759033203125</LatitudeDegrees>
              <LongitudeDegrees>-69.296395741403102874755859375</LongitudeDegrees>
            </Position>
            <AltitudeMeters>1975.800048828125</AltitudeMeters>
            <DistanceMeters>1805.4242673603</DistanceMeters>
          </Trackpoint>
          <Trackpoint>
            <Time>2021-08-29T14:18:55.000Z</Time>
            <Position>
              <LatitudeDegrees>-32.99635685048997402191162109375</LatitudeDegrees>
              <LongitudeDegrees>-69.29641426540911197662353515625</LongitudeDegrees>
            </Position>
            <AltitudeMeters>1976.800048828125</AltitudeMeters>
            <DistanceMeters>1813.5772050335</DistanceMeters>
          </Trackpoint>
          <Trackpoint>
            <Time>2021-08-29T14:18:57.000Z</Time>
            <Position>
              <LatitudeDegrees>-32.99631946720182895660400390625</LatitudeDegrees>
              <LongitudeDegrees>-69.29644091986119747161865234375</LongitudeDegrees>
            </Position>
            <AltitudeMeters>1977.5999755859375</AltitudeMeters>
            <DistanceMeters>1818.4254303773</DistanceMeters>
          </Trackpoint>
          <Trackpoint>
            <Time>2021-08-29T14:19:03.000Z</Time>
            <Position>
              <LatitudeDegrees>-32.9962246678769588470458984375</LatitudeDegrees>
              <LongitudeDegrees>-69.2965259961783885955810546875</LongitudeDegrees>
            </Position>
            <AltitudeMeters>1979.5999755859375</AltitudeMeters>
            <DistanceMeters>1831.6314088098</DistanceMeters>
          </Trackpoint>
          <Trackpoint>
            <Time>2021-08-29T14:19:09.000Z</Time>
            <Position>
              <LatitudeDegrees>-32.996114529669284820556640625</LatitudeDegrees>
              <LongitudeDegrees>-69.29656983353197574615478515625</LongitudeDegrees>
            </Position>
            <AltitudeMeters>1980.5999755859375</AltitudeMeters>
            <DistanceMeters>1844.5546925965</DistanceMeters>
          </Trackpoint>
          <Trackpoint>
            <Time>2021-08-29T14:19:13.000Z</Time>
            <Position>
              <LatitudeDegrees>-32.9960235022008419036865234375</LatitudeDegrees>
              <LongitudeDegrees>-69.29654753766953945159912109375</LongitudeDegrees>
            </Position>
            <AltitudeMeters>1980.5999755859375</AltitudeMeters>
            <DistanceMeters>1854.8982096825</DistanceMeters>
          </Trackpoint>
          <Trackpoint>
            <Time>2021-08-29T14:19:16.000Z</Time>
            <Position>
              <LatitudeDegrees>-32.99596508033573627471923828125</LatitudeDegrees>
              <LongitudeDegrees>-69.2965072207152843475341796875</LongitudeDegrees>
            </Position>
            <AltitudeMeters>1980.4000244140625</AltitudeMeters>
            <DistanceMeters>1862.4119329891</DistanceMeters>
          </Trackpoint>
          <Trackpoint>
            <Time>2021-08-29T14:19:21.000Z</Time>
            <Position>
              <LatitudeDegrees>-32.99586902372539043426513671875</LatitudeDegrees>
              <LongitudeDegrees>-69.296430610120296478271484375</LongitudeDegrees>
            </Position>
            <AltitudeMeters>1979.5999755859375</AltitudeMeters>
            <DistanceMeters>1875.2746333512</DistanceMeters>
          </Trackpoint>
          <Trackpoint>
            <Time>2021-08-29T14:19:24.000Z</Time>
            <Position>
              <LatitudeDegrees>-32.9958139546215534210205078125</LatitudeDegrees>
              <LongitudeDegrees>-69.2963920533657073974609375</LongitudeDegrees>
            </Position>
            <AltitudeMeters>1979.199951171875</AltitudeMeters>
            <DistanceMeters>1882.3819709419</DistanceMeters>
          </Trackpoint>
          <Trackpoint>
            <Time>2021-08-29T14:19:28.000Z</Time>
            <Position>
              <LatitudeDegrees>-32.99573290161788463592529296875</LatitudeDegrees>
              <LongitudeDegrees>-69.296336062252521514892578125</LongitudeDegrees>
            </Position>
            <AltitudeMeters>1978.5999755859375</AltitudeMeters>
            <DistanceMeters>1892.8080948732</DistanceMeters>
          </Trackpoint>
          <Trackpoint>
            <Time>2021-08-29T14:19:41.000Z</Time>
            <Position>
              <LatitudeDegrees>-32.9954525269567966461181640625</LatitudeDegrees>
              <LongitudeDegrees>-69.29619734175503253936767578125</LongitudeDegrees>
            </Position>
            <AltitudeMeters>1977.4000244140625</AltitudeMeters>
            <DistanceMeters>1926.5944686578</DistanceMeters>
          </Trackpoint>
          <Trackpoint>
            <Time>2021-08-29T14:19:49.000Z</Time>
            <Position>
              <LatitudeDegrees>-32.99526955001056194305419921875</LatitudeDegrees>
              <LongitudeDegrees>-69.2961310409009456634521484375</LongitudeDegrees>
            </Position>
            <AltitudeMeters>1976.800048828125</AltitudeMeters>
            <DistanceMeters>1947.8798163276</DistanceMeters>
          </Trackpoint>
          <Trackpoint>
            <Time>2021-08-29T14:19:52.000Z</Time>
            <Position>
              <LatitudeDegrees>-32.99520148895680904388427734375</LatitudeDegrees>
              <LongitudeDegrees>-69.29611670784652233123779296875</LongitudeDegrees>
            </Position>
            <AltitudeMeters>1976.5999755859375</AltitudeMeters>
            <DistanceMeters>1955.571699118</DistanceMeters>
          </Trackpoint>
          <Trackpoint>
            <Time>2021-08-29T14:19:54.000Z</Time>
            <Position>
              <LatitudeDegrees>-32.99515555612742900848388671875</LatitudeDegrees>
              <LongitudeDegrees>-69.29611352272331714630126953125</LongitudeDegrees>
            </Position>
            <AltitudeMeters>1976.5999755859375</AltitudeMeters>
            <DistanceMeters>1960.692572285</DistanceMeters>
          </Trackpoint>
          <Trackpoint>
            <Time>2021-08-29T14:19:56.000Z</Time>
            <Position>
              <LatitudeDegrees>-32.99511012621223926544189453125</LatitudeDegrees>
              <LongitudeDegrees>-69.29611134342849254608154296875</LongitudeDegrees>
            </Position>
            <AltitudeMeters>1976.5999755859375</AltitudeMeters>
            <DistanceMeters>1965.7531351781</DistanceMeters>
          </Trackpoint>
          <Trackpoint>
            <Time>2021-08-29T14:20:03.000Z</Time>
            <Position>
              <LatitudeDegrees>-32.99494584091007709503173828125</LatitudeDegrees>
              <LongitudeDegrees>-69.29611670784652233123779296875</LongitudeDegrees>
            </Position>
            <AltitudeMeters>1976.199951171875</AltitudeMeters>
            <DistanceMeters>1984.0449755032</DistanceMeters>
          </Trackpoint>
          <Trackpoint>
            <Time>2021-08-29T14:20:12.000Z</Time>
            <Position>
              <LatitudeDegrees>-32.9947611875832080841064453125</LatitudeDegrees>
              <LongitudeDegrees>-69.29616297595202922821044921875</LongitudeDegrees>
            </Position>
            <AltitudeMeters>1976.4000244140625</AltitudeMeters>
            <DistanceMeters>2005.0465243468</DistanceMeters>
          </Trackpoint>
          <Trackpoint>
            <Time>2021-08-29T14:20:19.000Z</Time>
            <Position>
              <LatitudeDegrees>-32.99461140297353267669677734375</LatitudeDegrees>
              <LongitudeDegrees>-69.2962205596268177032470703125</LongitudeDegrees>
            </Position>
            <AltitudeMeters>1976.5999755859375</AltitudeMeters>
            <DistanceMeters>2022.5631726418</DistanceMeters>
          </Trackpoint>
          <Trackpoint>
            <Time>2021-08-29T14:20:22.000Z</Time>
            <Position>
              <LatitudeDegrees>-32.99454552121460437774658203125</LatitudeDegrees>
              <LongitudeDegrees>-69.29625735618174076080322265625</LongitudeDegrees>
            </Position>
            <AltitudeMeters>1977</AltitudeMeters>
            <DistanceMeters>2030.6605416626</DistanceMeters>
          </Trackpoint>
          <Trackpoint>
            <Time>2021-08-29T14:20:23.000Z</Time>
            <Position>
              <LatitudeDegrees>-32.99452289007604122161865234375</LatitudeDegrees>
              <LongitudeDegrees>-69.2962681688368320465087890625</LongitudeDegrees>
            </Position>
            <AltitudeMeters>1977.199951171875</AltitudeMeters>
            <DistanceMeters>2033.3750475805</DistanceMeters>
          </Trackpoint>
          <Trackpoint>
            <Time>2021-08-29T14:20:27.000Z</Time>
            <Position>
              <LatitudeDegrees>-32.99442918039858341217041015625</LatitudeDegrees>
              <LongitudeDegrees>-69.2962956614792346954345703125</LongitudeDegrees>
            </Position>
            <AltitudeMeters>1977.199951171875</AltitudeMeters>
            <DistanceMeters>2044.1160092063</DistanceMeters>
          </Trackpoint>
          <Trackpoint>
            <Time>2021-08-29T14:20:31.000Z</Time>
            <Position>
              <LatitudeDegrees>-32.99434888176620006561279296875</LatitudeDegrees>
              <LongitudeDegrees>-69.29629490710794925689697265625</LongitudeDegrees>
            </Position>
            <AltitudeMeters>1977.199951171875</AltitudeMeters>
            <DistanceMeters>2053.0545838341</DistanceMeters>
          </Trackpoint>
          <Trackpoint>
            <Time>2021-08-29T14:20:32.000Z</Time>
            <Position>
              <LatitudeDegrees>-32.99432675354182720184326171875</LatitudeDegrees>
              <LongitudeDegrees>-69.29629557766020298004150390625</LongitudeDegrees>
            </Position>
            <AltitudeMeters>1977.199951171875</AltitudeMeters>
            <DistanceMeters>2055.5197900013</DistanceMeters>
          </Trackpoint>
          <Trackpoint>
            <Time>2021-08-29T14:20:40.000Z</Time>
            <Position>
              <LatitudeDegrees>-32.99410060979425907135009765625</LatitudeDegrees>
              <LongitudeDegrees>-69.29635793901979923248291015625</LongitudeDegrees>
            </Position>
            <AltitudeMeters>1978.5999755859375</AltitudeMeters>
            <DistanceMeters>2081.3544761834</DistanceMeters>
          </Trackpoint>
          <Trackpoint>
            <Time>2021-08-29T14:20:42.000Z</Time>
            <Position>
              <LatitudeDegrees>-32.9940390028059482574462890625</LatitudeDegrees>
              <LongitudeDegrees>-69.29637419991195201873779296875</LongitudeDegrees>
            </Position>
            <AltitudeMeters>1979.199951171875</AltitudeMeters>
            <DistanceMeters>2088.3774582805</DistanceMeters>
          </Trackpoint>
          <Trackpoint>
            <Time>2021-08-29T14:20:46.000Z</Time>
            <Position>
              <LatitudeDegrees>-32.9939169622957706451416015625</LatitudeDegrees>
              <LongitudeDegrees>-69.2963596992194652557373046875</LongitudeDegrees>
            </Position>
            <AltitudeMeters>1979.199951171875</AltitudeMeters>
            <DistanceMeters>2102.0282698863</DistanceMeters>
          </Trackpoint>
          <Trackpoint>
            <Time>2021-08-29T14:20:49.000Z</Time>
            <Position>
              <LatitudeDegrees>-32.993838675320148468017578125</LatitudeDegrees>
              <LongitudeDegrees>-69.2963114194571971893310546875</LongitudeDegrees>
            </Position>
            <AltitudeMeters>1978.4000244140625</AltitudeMeters>
            <DistanceMeters>2111.8390590909</DistanceMeters>
          </Trackpoint>
          <Trackpoint>
            <Time>2021-08-29T14:20:51.000Z</Time>
            <Position>
              <LatitudeDegrees>-32.99378712661564350128173828125</LatitudeDegrees>
              <LongitudeDegrees>-69.29627663455903530120849609375</LongitudeDegrees>
            </Position>
            <AltitudeMeters>1977.800048828125</AltitudeMeters>
            <DistanceMeters>2118.4322971422</DistanceMeters>
          </Trackpoint>
          <Trackpoint>
            <Time>2021-08-29T14:20:53.000Z</Time>
            <Position>
              <LatitudeDegrees>-32.99373297952115535736083984375</LatitudeDegrees>
              <LongitudeDegrees>-69.29624562151730060577392578125</LongitudeDegrees>
            </Position>
            <AltitudeMeters>1977.4000244140625</AltitudeMeters>
            <DistanceMeters>2125.1180191225</DistanceMeters>
          </Trackpoint>
          <Trackpoint>
            <Time>2021-08-29T14:21:00.000Z</Time>
            <Position>
              <LatitudeDegrees>-32.9935484938323497772216796875</LatitudeDegrees>
              <LongitudeDegrees>-69.296214021742343902587890625</LongitudeDegrees>
            </Position>
            <AltitudeMeters>1977.199951171875</AltitudeMeters>
            <DistanceMeters>2145.8625924614</DistanceMeters>
          </Trackpoint>
          <Trackpoint>
            <Time>2021-08-29T14:21:02.000Z</Time>
            <Position>
              <LatitudeDegrees>-32.993496023118495941162109375</LatitudeDegrees>
              <LongitudeDegrees>-69.29623313248157501220703125</LongitudeDegrees>
            </Position>
            <AltitudeMeters>1977.5999755859375</AltitudeMeters>
            <DistanceMeters>2151.9687521086</DistanceMeters>
          </Trackpoint>
          <Trackpoint>
            <Time>2021-08-29T14:21:03.000Z</Time>
            <Position>
              <LatitudeDegrees>-32.9934676922857761383056640625</LatitudeDegrees>
              <LongitudeDegrees>-69.296246208250522613525390625</LongitudeDegrees>
            </Position>
            <AltitudeMeters>1977.5999755859375</AltitudeMeters>
            <DistanceMeters>2155.3498875359</DistanceMeters>
          </Trackpoint>
          <Trackpoint>
            <Time>2021-08-29T14:21:04.000Z</Time>
            <Position>
              <LatitudeDegrees>-32.993440367281436920166015625</LatitudeDegrees>
              <LongitudeDegrees>-69.29626397788524627685546875</LongitudeDegrees>
            </Position>
            <AltitudeMeters>1977.800048828125</AltitudeMeters>
            <DistanceMeters>2158.8154324672</DistanceMeters>
          </Trackpoint>
          <Trackpoint>
            <Time>2021-08-29T14:21:06.000Z</Time>
            <Position>
              <LatitudeDegrees>-32.99338177777826786041259765625</LatitudeDegrees>
              <LongitudeDegrees>-69.2963010258972644805908203125</LongitudeDegrees>
            </Position>
            <AltitudeMeters>1978.199951171875</AltitudeMeters>
            <DistanceMeters>2166.1969960727</DistanceMeters>
          </Trackpoint>
          <Trackpoint>
            <Time>2021-08-29T14:21:07.000Z</Time>
            <Position>
              <LatitudeDegrees>-32.99334950745105743408203125</LatitudeDegrees>
              <LongitudeDegrees>-69.29632038809359073638916015625</LongitudeDegrees>
            </Position>
            <AltitudeMeters>1978.800048828125</AltitudeMeters>
            <DistanceMeters>2170.2185463846</DistanceMeters>
          </Trackpoint>
          <Trackpoint>
            <Time>2021-08-29T14:21:11.000Z</Time>
            <Position>
              <LatitudeDegrees>-32.99323014914989471435546875</LatitudeDegrees>
              <LongitudeDegrees>-69.29631762206554412841796875</LongitudeDegrees>
            </Position>
            <AltitudeMeters>1979.5999755859375</AltitudeMeters>
            <DistanceMeters>2183.5053065044</DistanceMeters>
          </Trackpoint>
          <Trackpoint>
            <Time>2021-08-29T14:21:17.000Z</Time>
            <Position>
              <LatitudeDegrees>-32.99310031346976757049560546875</LatitudeDegrees>
              <LongitudeDegrees>-69.29618108086287975311279296875</LongitudeDegrees>
            </Position>
            <AltitudeMeters>1978.800048828125</AltitudeMeters>
            <DistanceMeters>2202.7748872828</DistanceMeters>
          </Trackpoint>
          <Trackpoint>
            <Time>2021-08-29T14:21:20.000Z</Time>
            <Position>
              <LatitudeDegrees>-32.99304566346108913421630859375</LatitudeDegrees>
              <LongitudeDegrees>-69.29610145278275012969970703125</LongitudeDegrees>
            </Position>
            <AltitudeMeters>1978.4000244140625</AltitudeMeters>
            <DistanceMeters>2212.3805794028</DistanceMeters>
          </Trackpoint>
          <Trackpoint>
            <Time>2021-08-29T14:21:22.000Z</Time>
            <Position>
              <LatitudeDegrees>-32.9930224455893039703369140625</LatitudeDegrees>
              <LongitudeDegrees>-69.296060465276241302490234375</LongitudeDegrees>
            </Position>
            <AltitudeMeters>1978</AltitudeMeters>
            <DistanceMeters>2216.9989168266</DistanceMeters>
          </Trackpoint>
          <Trackpoint>
            <Time>2021-08-29T14:21:24.000Z</Time>
            <Position>
              <LatitudeDegrees>-32.99300107173621654510498046875</LatitudeDegrees>
              <LongitudeDegrees>-69.2959976010024547576904296875</LongitudeDegrees>
            </Position>
            <AltitudeMeters>1977.5999755859375</AltitudeMeters>
            <DistanceMeters>2223.3315757854</DistanceMeters>
          </Trackpoint>
          <Trackpoint>
            <Time>2021-08-29T14:21:31.000Z</Time>
            <Position>
              <LatitudeDegrees>-32.99291021190583705902099609375</LatitudeDegrees>
              <LongitudeDegrees>-69.295778162777423858642578125</LongitudeDegrees>
            </Position>
            <AltitudeMeters>1975.800048828125</AltitudeMeters>
            <DistanceMeters>2246.1771521254</DistanceMeters>
          </Trackpoint>
          <Trackpoint>
            <Time>2021-08-29T14:21:40.000Z</Time>
            <Position>
              <LatitudeDegrees>-32.9928056895732879638671875</LatitudeDegrees>
              <LongitudeDegrees>-69.2955691181123256683349609375</LongitudeDegrees>
            </Position>
            <AltitudeMeters>1974.4000244140625</AltitudeMeters>
            <DistanceMeters>2268.8964874945</DistanceMeters>
          </Trackpoint>
          <Trackpoint>
            <Time>2021-08-29T14:21:52.000Z</Time>
            <Position>
              <LatitudeDegrees>-32.99261986277997493743896484375</LatitudeDegrees>
              <LongitudeDegrees>-69.29528756998479366302490234375</LongitudeDegrees>
            </Position>
            <AltitudeMeters>1972.5999755859375</AltitudeMeters>
            <DistanceMeters>2302.3421112676</DistanceMeters>
          </Trackpoint>
          <Trackpoint>
            <Time>2021-08-29T14:21:55.000Z</Time>
            <Position>
              <LatitudeDegrees>-32.99257895909249782562255859375</LatitudeDegrees>
              <LongitudeDegrees>-69.2952345125377178192138671875</LongitudeDegrees>
            </Position>
            <AltitudeMeters>1972.199951171875</AltitudeMeters>
            <DistanceMeters>2309.069573132</DistanceMeters>
          </Trackpoint>
          <Trackpoint>
            <Time>2021-08-29T14:21:58.000Z</Time>
            <Position>
              <LatitudeDegrees>-32.99253872595727443695068359375</LatitudeDegrees>
              <LongitudeDegrees>-69.29516963660717010498046875</LongitudeDegrees>
            </Position>
            <AltitudeMeters>1971.4000244140625</AltitudeMeters>
            <DistanceMeters>2316.6013020319</DistanceMeters>
          </Trackpoint>
          <Trackpoint>
            <Time>2021-08-29T14:22:00.000Z</Time>
            <Position>
              <LatitudeDegrees>-32.992506287992000579833984375</LatitudeDegrees>
              <LongitudeDegrees>-69.29512043483555316925048828125</LongitudeDegrees>
            </Position>
            <AltitudeMeters>1970.800048828125</AltitudeMeters>
            <DistanceMeters>2322.4421605994</DistanceMeters>
          </Trackpoint>
          <Trackpoint>
            <Time>2021-08-29T14:22:03.000Z</Time>
            <Position>
              <LatitudeDegrees>-32.99245239235460758209228515625</LatitudeDegrees>
              <LongitudeDegrees>-69.29503963328897953033447265625</LongitudeDegrees>
            </Position>
            <AltitudeMeters>1969.800048828125</AltitudeMeters>
            <DistanceMeters>2332.0792937948</DistanceMeters>
          </Trackpoint>
          <Trackpoint>
            <Time>2021-08-29T14:22:10.000Z</Time>
            <Position>
              <LatitudeDegrees>-32.9923351295292377471923828125</LatitudeDegrees>
              <LongitudeDegrees>-69.2948774434626102447509765625</LongitudeDegrees>
            </Position>
            <AltitudeMeters>1968</AltitudeMeters>
            <DistanceMeters>2352.0692648502</DistanceMeters>
          </Trackpoint>
          <Trackpoint>
            <Time>2021-08-29T14:22:16.000Z</Time>
            <Position>
              <LatitudeDegrees>-32.99228291027247905731201171875</LatitudeDegrees>
              <LongitudeDegrees>-69.294787086546421051025390625</LongitudeDegrees>
            </Position>
            <AltitudeMeters>1966.800048828125</AltitudeMeters>
            <DistanceMeters>2362.3127744187</DistanceMeters>
          </Trackpoint>
          <Trackpoint>
            <Time>2021-08-29T14:22:18.000Z</Time>
            <Position>
              <LatitudeDegrees>-32.992273271083831787109375</LatitudeDegrees>
              <LongitudeDegrees>-69.29477727971971035003662109375</LongitudeDegrees>
            </Position>
            <AltitudeMeters>1966.800048828125</AltitudeMeters>
            <DistanceMeters>2363.7222483694</DistanceMeters>
          </Trackpoint>
          <Trackpoint>
            <Time>2021-08-29T14:22:21.000Z</Time>
            <Position>
              <LatitudeDegrees>-32.992250137031078338623046875</LatitudeDegrees>
              <LongitudeDegrees>-69.2947371304035186767578125</LongitudeDegrees>
            </Position>
            <AltitudeMeters>1966.199951171875</AltitudeMeters>
            <DistanceMeters>2368.2696514807</DistanceMeters>
          </Trackpoint>
          <Trackpoint>
            <Time>2021-08-29T14:22:24.000Z</Time>
            <Position>
              <LatitudeDegrees>-32.99222524277865886688232421875</LatitudeDegrees>
              <LongitudeDegrees>-69.29468818008899688720703125</LongitudeDegrees>
            </Position>
            <AltitudeMeters>1965.5999755859375</AltitudeMeters>
            <DistanceMeters>2373.6131617235</DistanceMeters>
          </Trackpoint>
          <Trackpoint>
            <Time>2021-08-29T14:22:26.000Z</Time>
            <Position>
              <LatitudeDegrees>-32.992214597761631011962890625</LatitudeDegrees>
              <LongitudeDegrees>-69.2946585081517696380615234375</LongitudeDegrees>
            </Position>
            <AltitudeMeters>1965.4000244140625</AltitudeMeters>
            <DistanceMeters>2376.6271718268</DistanceMeters>
          </Trackpoint>
          <Trackpoint>
            <Time>2021-08-29T14:22:32.000Z</Time>
            <Position>
              <LatitudeDegrees>-32.99217830412089824676513671875</LatitudeDegrees>
              <LongitudeDegrees>-69.29457007907330989837646484375</LongitudeDegrees>
            </Position>
            <AltitudeMeters>1964.199951171875</AltitudeMeters>
            <DistanceMeters>2385.8177830718</DistanceMeters>
          </Trackpoint>
          <Trackpoint>
            <Time>2021-08-29T14:22:36.000Z</Time>
            <Position>
              <LatitudeDegrees>-32.992131449282169342041015625</LatitudeDegrees>
              <LongitudeDegrees>-69.29450922645628452301025390625</LongitudeDegrees>
            </Position>
            <AltitudeMeters>1963.5999755859375</AltitudeMeters>
            <DistanceMeters>2393.5295976093</DistanceMeters>
          </Trackpoint>
          <Trackpoint>
            <Time>2021-08-29T14:22:43.000Z</Time>
            <Position>
              <LatitudeDegrees>-32.9920317046344280242919921875</LatitudeDegrees>
              <LongitudeDegrees>-69.29436053149402141571044921875</LongitudeDegrees>
            </Position>
            <AltitudeMeters>1961.800048828125</AltitudeMeters>
            <DistanceMeters>2411.3041660863</DistanceMeters>
          </Trackpoint>
          <Trackpoint>
            <Time>2021-08-29T14:22:56.000Z</Time>
            <Position>
              <LatitudeDegrees>-32.99183405935764312744140625</LatitudeDegrees>
              <LongitudeDegrees>-69.29412835277616977691650390625</LongitudeDegrees>
            </Position>
            <AltitudeMeters>1959.4000244140625</AltitudeMeters>
            <DistanceMeters>2442.186532474</DistanceMeters>
          </Trackpoint>
          <Trackpoint>
            <Time>2021-08-29T14:23:06.000Z</Time>
            <Position>
              <LatitudeDegrees>-32.99164018593728542327880859375</LatitudeDegrees>
              <LongitudeDegrees>-69.29399357177317142486572265625</LongitudeDegrees>
            </Position>
            <AltitudeMeters>1957.199951171875</AltitudeMeters>
            <DistanceMeters>2467.1653667537</DistanceMeters>
          </Trackpoint>
          <Trackpoint>
            <Time>2021-08-29T14:23:09.000Z</Time>
            <Position>
              <LatitudeDegrees>-32.9915908165276050567626953125</LatitudeDegrees>
              <LongitudeDegrees>-69.2939472198486328125</LongitudeDegrees>
            </Position>
            <AltitudeMeters>1956.4000244140625</AltitudeMeters>
            <DistanceMeters>2474.1587131645</DistanceMeters>
          </Trackpoint>
          <Trackpoint>
            <Time>2021-08-29T14:23:17.000Z</Time>
            <Position>
              <LatitudeDegrees>-32.99143918789923191070556640625</LatitudeDegrees>
              <LongitudeDegrees>-69.2938166297972202301025390625</LongitudeDegrees>
            </Position>
            <AltitudeMeters>1954.199951171875</AltitudeMeters>
            <DistanceMeters>2494.9780231749</DistanceMeters>
          </Trackpoint>
          <Trackpoint>
            <Time>2021-08-29T14:23:20.000Z</Time>
            <Position>
              <LatitudeDegrees>-32.99138336442410945892333984375</LatitudeDegrees>
              <LongitudeDegrees>-69.2937656678259372711181640625</LongitudeDegrees>
            </Position>
            <AltitudeMeters>1953.199951171875</AltitudeMeters>
            <DistanceMeters>2502.8037486009</DistanceMeters>
          </Trackpoint>
          <Trackpoint>
            <Time>2021-08-29T14:23:28.000Z</Time>
            <Position>
              <LatitudeDegrees>-32.99126048572361469268798828125</LatitudeDegrees>
              <LongitudeDegrees>-69.29365209303796291351318359375</LongitudeDegrees>
            </Position>
            <AltitudeMeters>1951.199951171875</AltitudeMeters>
            <DistanceMeters>2520.1090499616</DistanceMeters>
          </Trackpoint>
          <Trackpoint>
            <Time>2021-08-29T14:23:34.000Z</Time>
            <Position>
              <LatitudeDegrees>-32.99110156483948230743408203125</LatitudeDegrees>
              <LongitudeDegrees>-69.29358822293579578399658203125</LongitudeDegrees>
            </Position>
            <AltitudeMeters>1949.800048828125</AltitudeMeters>
            <DistanceMeters>2538.77520917</DistanceMeters>
          </Trackpoint>
          <Trackpoint>
            <Time>2021-08-29T14:23:39.000Z</Time>
            <Position>
              <LatitudeDegrees>-32.99097969196736812591552734375</LatitudeDegrees>
              <LongitudeDegrees>-69.2935406975448131561279296875</LongitudeDegrees>
            </Position>
            <AltitudeMeters>1948.5999755859375</AltitudeMeters>
            <DistanceMeters>2553.046943622</DistanceMeters>
          </Trackpoint>
          <Trackpoint>
            <Time>2021-08-29T14:23:41.000Z</Time>
            <Position>
              <LatitudeDegrees>-32.9909469187259674072265625</LatitudeDegrees>
              <LongitudeDegrees>-69.29349593818187713623046875</LongitudeDegrees>
            </Position>
            <AltitudeMeters>1947.800048828125</AltitudeMeters>
            <DistanceMeters>2558.5927925533</DistanceMeters>
          </Trackpoint>
          <Trackpoint>
            <Time>2021-08-29T14:23:48.000Z</Time>
            <Position>
              <LatitudeDegrees>-32.990892268717288970947265625</LatitudeDegrees>
              <LongitudeDegrees>-69.29332218132913112640380859375</LongitudeDegrees>
            </Position>
            <AltitudeMeters>1945.800048828125</AltitudeMeters>
            <DistanceMeters>2575.9171295036</DistanceMeters>
          </Trackpoint>
          <Trackpoint>
            <Time>2021-08-29T14:23:51.000Z</Time>
            <Position>
              <LatitudeDegrees>-32.9908652789890766143798828125</LatitudeDegrees>
              <LongitudeDegrees>-69.29325596429407596588134765625</LongitudeDegrees>
            </Position>
            <AltitudeMeters>1945</AltitudeMeters>
            <DistanceMeters>2582.7906555241</DistanceMeters>
          </Trackpoint>
          <Trackpoint>
            <Time>2021-08-29T14:23:53.000Z</Time>
            <Position>
              <LatitudeDegrees>-32.99083652906119823455810546875</LatitudeDegrees>
              <LongitudeDegrees>-69.2931973747909069061279296875</LongitudeDegrees>
            </Position>
            <AltitudeMeters>1944.4000244140625</AltitudeMeters>
            <DistanceMeters>2589.1283033545</DistanceMeters>
          </Trackpoint>
          <Trackpoint>
            <Time>2021-08-29T14:23:55.000Z</Time>
            <Position>
              <LatitudeDegrees>-32.9908045940101146697998046875</LatitudeDegrees>
              <LongitudeDegrees>-69.29314549081027507781982421875</LongitudeDegrees>
            </Position>
            <AltitudeMeters>1943.5999755859375</AltitudeMeters>
            <DistanceMeters>2595.1368177818</DistanceMeters>
          </Trackpoint>
          <Trackpoint>
            <Time>2021-08-29T14:23:56.000Z</Time>
            <Position>
              <LatitudeDegrees>-32.99077852629125118255615234375</LatitudeDegrees>
              <LongitudeDegrees>-69.29311112500727176666259765625</LongitudeDegrees>
            </Position>
            <AltitudeMeters>1943.199951171875</AltitudeMeters>
            <DistanceMeters>2599.4623603364</DistanceMeters>
          </Trackpoint>
          <Trackpoint>
            <Time>2021-08-29T14:24:02.000Z</Time>
            <Position>
              <LatitudeDegrees>-32.990626394748687744140625</LatitudeDegrees>
              <LongitudeDegrees>-69.29301540367305278778076171875</LongitudeDegrees>
            </Position>
            <AltitudeMeters>1941.4000244140625</AltitudeMeters>
            <DistanceMeters>2618.6082978472</DistanceMeters>
          </Trackpoint>
          <Trackpoint>
            <Time>2021-08-29T14:24:08.000Z</Time>
            <Position>
              <LatitudeDegrees>-32.99050292931497097015380859375</LatitudeDegrees>
              <LongitudeDegrees>-69.293064437806606292724609375</LongitudeDegrees>
            </Position>
            <AltitudeMeters>1941</AltitudeMeters>
            <DistanceMeters>2633.0926261376</DistanceMeters>
          </Trackpoint>
          <Trackpoint>
            <Time>2021-08-29T14:24:17.000Z</Time>
            <Position>
              <LatitudeDegrees>-32.9903335310518741607666015625</LatitudeDegrees>
              <LongitudeDegrees>-69.29321187548339366912841796875</LongitudeDegrees>
            </Position>
            <AltitudeMeters>1941.4000244140625</AltitudeMeters>
            <DistanceMeters>2656.4367271749</DistanceMeters>
          </Trackpoint>
          <Trackpoint>
            <Time>2021-08-29T14:24:19.000Z</Time>
            <Position>
              <LatitudeDegrees>-32.99030059017241001129150390625</LatitudeDegrees>
              <LongitudeDegrees>-69.293244145810604095458984375</LongitudeDegrees>
            </Position>
            <AltitudeMeters>1941.5999755859375</AltitudeMeters>
            <DistanceMeters>2661.1823578654</DistanceMeters>
          </Trackpoint>
          <Trackpoint>
            <Time>2021-08-29T14:24:21.000Z</Time>
            <Position>
              <LatitudeDegrees>-32.99026588909327983856201171875</LatitudeDegrees>
              <LongitudeDegrees>-69.29328010417520999908447265625</LongitudeDegrees>
            </Position>
            <AltitudeMeters>1941.800048828125</AltitudeMeters>
            <DistanceMeters>2666.2997030451</DistanceMeters>
          </Trackpoint>
          <Trackpoint>
            <Time>2021-08-29T14:24:26.000Z</Time>
            <Position>
              <LatitudeDegrees>-32.99018844030797481536865234375</LatitudeDegrees>
              <LongitudeDegrees>-69.29336157627403736114501953125</LongitudeDegrees>
            </Position>
            <AltitudeMeters>1942</AltitudeMeters>
            <DistanceMeters>2677.7955792082</DistanceMeters>
          </Trackpoint>
          <Trackpoint>
            <Time>2021-08-29T14:24:34.000Z</Time>
            <Position>
              <LatitudeDegrees>-32.990022562444210052490234375</LatitudeDegrees>
              <LongitudeDegrees>-69.2934850417077541351318359375</LongitudeDegrees>
            </Position>
            <AltitudeMeters>1942.800048828125</AltitudeMeters>
            <DistanceMeters>2699.5606385982</DistanceMeters>
          </Trackpoint>
          <Trackpoint>
            <Time>2021-08-29T14:24:35.000Z</Time>
            <Position>
              <LatitudeDegrees>-32.99000169150531291961669921875</LatitudeDegrees>
              <LongitudeDegrees>-69.293495602905750274658203125</LongitudeDegrees>
            </Position>
            <AltitudeMeters>1943</AltitudeMeters>
            <DistanceMeters>2702.0855611652</DistanceMeters>
          </Trackpoint>
          <Trackpoint>
            <Time>2021-08-29T14:24:38.000Z</Time>
            <Position>
              <LatitudeDegrees>-32.98992373980581760406494140625</LatitudeDegrees>
              <LongitudeDegrees>-69.29352133534848690032958984375</LongitudeDegrees>
            </Position>
            <AltitudeMeters>1943.800048828125</AltitudeMeters>
            <DistanceMeters>2711.088558786</DistanceMeters>
          </Trackpoint>
          <Trackpoint>
            <Time>2021-08-29T14:24:41.000Z</Time>
            <Position>
              <LatitudeDegrees>-32.98983975313603878021240234375</LatitudeDegrees>
              <LongitudeDegrees>-69.29350666701793670654296875</LongitudeDegrees>
            </Position>
            <AltitudeMeters>1944.199951171875</AltitudeMeters>
            <DistanceMeters>2720.5369097387</DistanceMeters>
          </Trackpoint>
          <Trackpoint>
            <Time>2021-08-29T14:24:43.000Z</Time>
            <Position>
              <LatitudeDegrees>-32.98979314975440502166748046875</LatitudeDegrees>
              <LongitudeDegrees>-69.293476156890392303466796875</LongitudeDegrees>
            </Position>
            <AltitudeMeters>1944.199951171875</AltitudeMeters>
            <DistanceMeters>2726.4545643797</DistanceMeters>
          </Trackpoint>
          <Trackpoint>
            <Time>2021-08-29T14:24:47.000Z</Time>
            <Position>
              <LatitudeDegrees>-32.9897136054933071136474609375</LatitudeDegrees>
              <LongitudeDegrees>-69.2933884821832180023193359375</LongitudeDegrees>
            </Position>
            <AltitudeMeters>1943.800048828125</AltitudeMeters>
            <DistanceMeters>2738.5117282531</DistanceMeters>
          </Trackpoint>
          <Trackpoint>
            <Time>2021-08-29T14:24:52.000Z</Time>
            <Position>
              <LatitudeDegrees>-32.98963473178446292877197265625</LatitudeDegrees>
              <LongitudeDegrees>-69.29325009696185588836669921875</LongitudeDegrees>
            </Position>
            <AltitudeMeters>1942.5999755859375</AltitudeMeters>
            <DistanceMeters>2754.1314147212</DistanceMeters>
          </Trackpoint>
          <Trackpoint>
            <Time>2021-08-29T14:24:56.000Z</Time>
            <Position>
              <LatitudeDegrees>-32.9895784892141819000244140625</LatitudeDegrees>
              <LongitudeDegrees>-69.29312646389007568359375</LongitudeDegrees>
            </Position>
            <AltitudeMeters>1941.5999755859375</AltitudeMeters>
            <DistanceMeters>2767.2616172889</DistanceMeters>
          </Trackpoint>
          <Trackpoint>
            <Time>2021-08-29T14:25:04.000Z</Time>
            <Position>
              <LatitudeDegrees>-32.98954471014440059661865234375</LatitudeDegrees>
              <LongitudeDegrees>-69.2929087020456790924072265625</LongitudeDegrees>
            </Position>
            <AltitudeMeters>1939.5999755859375</AltitudeMeters>
            <DistanceMeters>2787.9357704353</DistanceMeters>
          </Trackpoint>
          <Trackpoint>
            <Time>2021-08-29T14:25:10.000Z</Time>
            <Position>
              <LatitudeDegrees>-32.989521324634552001953125</LatitudeDegrees>
              <LongitudeDegrees>-69.29276193492114543914794921875</LongitudeDegrees>
            </Position>
            <AltitudeMeters>1938.199951171875</AltitudeMeters>
            <DistanceMeters>2801.8823774278</DistanceMeters>
          </Trackpoint>
          <Trackpoint>
            <Time>2021-08-29T14:25:11.000Z</Time>
            <Position>
              <LatitudeDegrees>-32.98950967378914356231689453125</LatitudeDegrees>
              <LongitudeDegrees>-69.2927427403628826141357421875</LongitudeDegrees>
            </Position>
            <AltitudeMeters>1938</AltitudeMeters>
            <DistanceMeters>2804.0946842403</DistanceMeters>
          </Trackpoint>
          <Trackpoint>
            <Time>2021-08-29T14:25:18.000Z</Time>
            <Position>
              <LatitudeDegrees>-32.98937723971903324127197265625</LatitudeDegrees>
              <LongitudeDegrees>-69.29264190606772899627685546875</LongitudeDegrees>
            </Position>
            <AltitudeMeters>1937.4000244140625</AltitudeMeters>
            <DistanceMeters>2821.5842471126</DistanceMeters>
          </Trackpoint>
          <Trackpoint>
            <Time>2021-08-29T14:25:26.000Z</Time>
            <Position>
              <LatitudeDegrees>-32.98919568769633769989013671875</LatitudeDegrees>
              <LongitudeDegrees>-69.2925261519849300384521484375</LongitudeDegrees>
            </Position>
            <AltitudeMeters>1937</AltitudeMeters>
            <DistanceMeters>2844.4994816803</DistanceMeters>
          </Trackpoint>
          <Trackpoint>
            <Time>2021-08-29T14:25:34.000Z</Time>
            <Position>
              <LatitudeDegrees>-32.98899385146796703338623046875</LatitudeDegrees>
              <LongitudeDegrees>-69.29237703792750835418701171875</LongitudeDegrees>
            </Position>
            <AltitudeMeters>1936.4000244140625</AltitudeMeters>
            <DistanceMeters>2870.9280151785</DistanceMeters>
          </Trackpoint>
          <Trackpoint>
            <Time>2021-08-29T14:25:41.000Z</Time>
            <Position>
              <LatitudeDegrees>-32.9888512752950191497802734375</LatitudeDegrees>
              <LongitudeDegrees>-69.29227209649980068206787109375</LongitudeDegrees>
            </Position>
            <AltitudeMeters>1936</AltitudeMeters>
            <DistanceMeters>2889.5774769486</DistanceMeters>
          </Trackpoint>
          <Trackpoint>
            <Time>2021-08-29T14:25:43.000Z</Time>
            <Position>
              <LatitudeDegrees>-32.988818250596523284912109375</LatitudeDegrees>
              <LongitudeDegrees>-69.2922534048557281494140625</LongitudeDegrees>
            </Position>
            <AltitudeMeters>1936</AltitudeMeters>
            <DistanceMeters>2893.645907865</DistanceMeters>
          </Trackpoint>
          <Trackpoint>
            <Time>2021-08-29T14:25:51.000Z</Time>
            <Position>
              <LatitudeDegrees>-32.9886450804769992828369140625</LatitudeDegrees>
              <LongitudeDegrees>-69.2922056280076503753662109375</LongitudeDegrees>
            </Position>
            <AltitudeMeters>1936.4000244140625</AltitudeMeters>
            <DistanceMeters>2913.4292739394</DistanceMeters>
          </Trackpoint>
          <Trackpoint>
            <Time>2021-08-29T14:25:56.000Z</Time>
            <Position>
              <LatitudeDegrees>-32.988449446856975555419921875</LatitudeDegrees>
              <LongitudeDegrees>-69.29224980063736438751220703125</LongitudeDegrees>
            </Position>
            <AltitudeMeters>1938</AltitudeMeters>
            <DistanceMeters>2935.5906772712</DistanceMeters>
          </Trackpoint>
          <Trackpoint>
            <Time>2021-08-29T14:25:57.000Z</Time>
            <Position>
              <LatitudeDegrees>-32.98840812407433986663818359375</LatitudeDegrees>
              <LongitudeDegrees>-69.292247034609317779541015625</LongitudeDegrees>
            </Position>
            <AltitudeMeters>1938</AltitudeMeters>
            <DistanceMeters>2940.1972681629</DistanceMeters>
          </Trackpoint>
          <Trackpoint>
            <Time>2021-08-29T14:25:59.000Z</Time>
            <Position>
              <LatitudeDegrees>-32.988343499600887298583984375</LatitudeDegrees>
              <LongitudeDegrees>-69.2922193743288516998291015625</LongitudeDegrees>
            </Position>
            <AltitudeMeters>1938</AltitudeMeters>
            <DistanceMeters>2947.8408664381</DistanceMeters>
          </Trackpoint>
          <Trackpoint>
            <Time>2021-08-29T14:26:01.000Z</Time>
            <Position>
              <LatitudeDegrees>-32.98831173218786716461181640625</LatitudeDegrees>
              <LongitudeDegrees>-69.29215827025473117828369140625</LongitudeDegrees>
            </Position>
            <AltitudeMeters>1937.5999755859375</AltitudeMeters>
            <DistanceMeters>2954.5522017227</DistanceMeters>
          </Trackpoint>
          <Trackpoint>
            <Time>2021-08-29T14:26:05.000Z</Time>
            <Position>
              <LatitudeDegrees>-32.98829094506800174713134765625</LatitudeDegrees>
              <LongitudeDegrees>-69.29198493249714374542236328125</LongitudeDegrees>
            </Position>
            <AltitudeMeters>1935.800048828125</AltitudeMeters>
            <DistanceMeters>2970.8992825693</DistanceMeters>
          </Trackpoint>
          <Trackpoint>
            <Time>2021-08-29T14:26:06.000Z</Time>
            <Position>
              <LatitudeDegrees>-32.98829060979187488555908203125</LatitudeDegrees>
              <LongitudeDegrees>-69.29194830358028411865234375</LongitudeDegrees>
            </Position>
            <AltitudeMeters>1935.4000244140625</AltitudeMeters>
            <DistanceMeters>2974.3202442867</DistanceMeters>
          </Trackpoint>
          <Trackpoint>
            <Time>2021-08-29T14:26:11.000Z</Time>
            <Position>
              <LatitudeDegrees>-32.98829714767634868621826171875</LatitudeDegrees>
              <LongitudeDegrees>-69.29178066551685333251953125</LongitudeDegrees>
            </Position>
            <AltitudeMeters>1933.800048828125</AltitudeMeters>
            <DistanceMeters>2989.9872649958</DistanceMeters>
          </Trackpoint>
          <Trackpoint>
            <Time>2021-08-29T14:26:14.000Z</Time>
            <Position>
              <LatitudeDegrees>-32.98830024898052215576171875</LatitudeDegrees>
              <LongitudeDegrees>-69.29168905131518840789794921875</LongitudeDegrees>
            </Position>
            <AltitudeMeters>1932.800048828125</AltitudeMeters>
            <DistanceMeters>2998.5470570649</DistanceMeters>
          </Trackpoint>
          <Trackpoint>
            <Time>2021-08-29T14:26:20.000Z</Time>
            <Position>
              <LatitudeDegrees>-32.9882980696856975555419921875</LatitudeDegrees>
              <LongitudeDegrees>-69.2915625683963298797607421875</LongitudeDegrees>
            </Position>
            <AltitudeMeters>1931.5999755859375</AltitudeMeters>
            <DistanceMeters>3010.3579258266</DistanceMeters>
          </Trackpoint>
          <Trackpoint>
            <Time>2021-08-29T14:26:24.000Z</Time>
            <Position>
              <LatitudeDegrees>-32.98829195089638233184814453125</LatitudeDegrees>
              <LongitudeDegrees>-69.29147531278431415557861328125</LongitudeDegrees>
            </Position>
            <AltitudeMeters>1930.800048828125</AltitudeMeters>
            <DistanceMeters>3018.5324328873</DistanceMeters>
          </Trackpoint>
          <Trackpoint>
            <Time>2021-08-29T14:26:27.000Z</Time>
            <Position>
              <LatitudeDegrees>-32.98828625120222568511962890625</LatitudeDegrees>
              <LongitudeDegrees>-69.2914116941392421722412109375</LongitudeDegrees>
            </Position>
            <AltitudeMeters>1930.4000244140625</AltitudeMeters>
            <DistanceMeters>3024.5062810697</DistanceMeters>
          </Trackpoint>
          <Trackpoint>
            <Time>2021-08-29T14:26:28.000Z</Time>
            <Position>
              <LatitudeDegrees>-32.98828423954546451568603515625</LatitudeDegrees>
              <LongitudeDegrees>-69.291388727724552154541015625</LongitudeDegrees>
            </Position>
            <AltitudeMeters>1930</AltitudeMeters>
            <DistanceMeters>3026.6627804016</DistanceMeters>
          </Trackpoint>
          <Trackpoint>
            <Time>2021-08-29T14:26:32.000Z</Time>
            <Position>
              <LatitudeDegrees>-32.9882883466780185699462890625</LatitudeDegrees>
              <LongitudeDegrees>-69.29126693867146968841552734375</LongitudeDegrees>
            </Position>
            <AltitudeMeters>1929</AltitudeMeters>
            <DistanceMeters>3038.0422046492</DistanceMeters>
          </Trackpoint>
          <Trackpoint>
            <Time>2021-08-29T14:26:34.000Z</Time>
            <Position>
              <LatitudeDegrees>-32.9882856644690036773681640625</LatitudeDegrees>
              <LongitudeDegrees>-69.29119049571454524993896484375</LongitudeDegrees>
            </Position>
            <AltitudeMeters>1928.199951171875</AltitudeMeters>
            <DistanceMeters>3045.1843963178</DistanceMeters>
          </Trackpoint>
          <Trackpoint>
            <Time>2021-08-29T14:26:37.000Z</Time>
            <Position>
              <LatitudeDegrees>-32.988273762166500091552734375</LatitudeDegrees>
              <LongitudeDegrees>-69.291072227060794830322265625</LongitudeDegrees>
            </Position>
            <AltitudeMeters>1927.199951171875</AltitudeMeters>
            <DistanceMeters>3056.3049582146</DistanceMeters>
          </Trackpoint>
          <Trackpoint>
            <Time>2021-08-29T14:26:41.000Z</Time>
            <Position>
              <LatitudeDegrees>-32.9882762767374515533447265625</LatitudeDegrees>
              <LongitudeDegrees>-69.29090534336864948272705078125</LongitudeDegrees>
            </Position>
            <AltitudeMeters>1925.4000244140625</AltitudeMeters>
            <DistanceMeters>3071.8873112302</DistanceMeters>
          </Trackpoint>
          <Trackpoint>
            <Time>2021-08-29T14:26:47.000Z</Time>
            <Position>
              <LatitudeDegrees>-32.9882524721324443817138671875</LatitudeDegrees>
              <LongitudeDegrees>-69.29057492874562740325927734375</LongitudeDegrees>
            </Position>
            <AltitudeMeters>1922</AltitudeMeters>
            <DistanceMeters>3102.8479422748</DistanceMeters>
          </Trackpoint>
          <Trackpoint>
            <Time>2021-08-29T14:26:50.000Z</Time>
            <Position>
              <LatitudeDegrees>-32.98824165947735309600830078125</LatitudeDegrees>
              <LongitudeDegrees>-69.29045028984546661376953125</LongitudeDegrees>
            </Position>
            <AltitudeMeters>1920.5999755859375</AltitudeMeters>
            <DistanceMeters>3114.5458813425</DistanceMeters>
          </Trackpoint>
          <Trackpoint>
            <Time>2021-08-29T14:26:53.000Z</Time>
            <Position>
              <LatitudeDegrees>-32.98823361285030841827392578125</LatitudeDegrees>
              <LongitudeDegrees>-69.2903391458094120025634765625</LongitudeDegrees>
            </Position>
            <AltitudeMeters>1919.5999755859375</AltitudeMeters>
            <DistanceMeters>3124.9607398747</DistanceMeters>
          </Trackpoint>
          <Trackpoint>
            <Time>2021-08-29T14:26:58.000Z</Time>
            <Position>
              <LatitudeDegrees>-32.98820897005498409271240234375</LatitudeDegrees>
              <LongitudeDegrees>-69.29019187577068805694580078125</LongitudeDegrees>
            </Position>
            <AltitudeMeters>1918.199951171875</AltitudeMeters>
            <DistanceMeters>3138.9806426545</DistanceMeters>
          </Trackpoint>
          <Trackpoint>
            <Time>2021-08-29T14:27:04.000Z</Time>
            <Position>
              <LatitudeDegrees>-32.988166473805904388427734375</LatitudeDegrees>
              <LongitudeDegrees>-69.2899059690535068511962890625</LongitudeDegrees>
            </Position>
            <AltitudeMeters>1915.800048828125</AltitudeMeters>
            <DistanceMeters>3166.0884183047</DistanceMeters>
          </Trackpoint>
          <Trackpoint>
            <Time>2021-08-29T14:27:06.000Z</Time>
            <Position>
              <LatitudeDegrees>-32.988141663372516632080078125</LatitudeDegrees>
              <LongitudeDegrees>-69.2898053862154483795166015625</LongitudeDegrees>
            </Position>
            <AltitudeMeters>1915.199951171875</AltitudeMeters>
            <DistanceMeters>3175.8766311687</DistanceMeters>
          </Trackpoint>
          <Trackpoint>
            <Time>2021-08-29T14:27:08.000Z</Time>
            <Position>
              <LatitudeDegrees>-32.98812263645231723785400390625</LatitudeDegrees>
              <LongitudeDegrees>-69.28972332738339900970458984375</LongitudeDegrees>
            </Position>
            <AltitudeMeters>1914.5999755859375</AltitudeMeters>
            <DistanceMeters>3183.8248646078</DistanceMeters>
          </Trackpoint>
          <Trackpoint>
            <Time>2021-08-29T14:27:10.000Z</Time>
            <Position>
              <LatitudeDegrees>-32.9881015978753566741943359375</LatitudeDegrees>
              <LongitudeDegrees>-69.28963967598974704742431640625</LongitudeDegrees>
            </Position>
            <AltitudeMeters>1914</AltitudeMeters>
            <DistanceMeters>3191.977802281</DistanceMeters>
          </Trackpoint>
          <Trackpoint>
            <Time>2021-08-29T14:27:13.000Z</Time>
            <Position>
              <LatitudeDegrees>-32.98805742524564266204833984375</LatitudeDegrees>
              <LongitudeDegrees>-69.28950422443449497222900390625</LongitudeDegrees>
            </Position>
            <AltitudeMeters>1913</AltitudeMeters>
            <DistanceMeters>3205.5456738306</DistanceMeters>
          </Trackpoint>
          <Trackpoint>
            <Time>2021-08-29T14:27:17.000Z</Time>
            <Position>
              <LatitudeDegrees>-32.9880018532276153564453125</LatitudeDegrees>
              <LongitudeDegrees>-69.28937832824885845184326171875</LongitudeDegrees>
            </Position>
            <AltitudeMeters>1912.199951171875</AltitudeMeters>
            <DistanceMeters>3218.8273357497</DistanceMeters>
          </Trackpoint>
          <Trackpoint>
            <Time>2021-08-29T14:27:21.000Z</Time>
            <Position>
              <LatitudeDegrees>-32.9879027791321277618408203125</LatitudeDegrees>
              <LongitudeDegrees>-69.2892332375049591064453125</LongitudeDegrees>
            </Position>
            <AltitudeMeters>1911.199951171875</AltitudeMeters>
            <DistanceMeters>3236.2941661071</DistanceMeters>
          </Trackpoint>
          <Trackpoint>
            <Time>2021-08-29T14:27:26.000Z</Time>
            <Position>
              <LatitudeDegrees>-32.98781032674014568328857421875</LatitudeDegrees>
              <LongitudeDegrees>-69.28900332190096378326416015625</LongitudeDegrees>
            </Position>
            <AltitudeMeters>1909.4000244140625</AltitudeMeters>
            <DistanceMeters>3260.0979312863</DistanceMeters>
          </Trackpoint>
          <Trackpoint>
            <Time>2021-08-29T14:27:34.000Z</Time>
            <Position>
              <LatitudeDegrees>-32.9876707680523395538330078125</LatitudeDegrees>
              <LongitudeDegrees>-69.288656897842884063720703125</LongitudeDegrees>
            </Position>
            <AltitudeMeters>1907</AltitudeMeters>
            <DistanceMeters>3295.9765254254</DistanceMeters>
          </Trackpoint>
          <Trackpoint>
            <Time>2021-08-29T14:27:40.000Z</Time>
            <Position>
              <LatitudeDegrees>-32.98762676306068897247314453125</LatitudeDegrees>
              <LongitudeDegrees>-69.288510717451572418212890625</LongitudeDegrees>
            </Position>
            <AltitudeMeters>1905.5999755859375</AltitudeMeters>
            <DistanceMeters>3310.4758085005</DistanceMeters>
          </Trackpoint>
          <Trackpoint>
            <Time>2021-08-29T14:27:45.000Z</Time>
            <Position>
              <LatitudeDegrees>-32.987552918493747711181640625</LatitudeDegrees>
              <LongitudeDegrees>-69.2883425764739513397216796875</LongitudeDegrees>
            </Position>
            <AltitudeMeters>1903.5999755859375</AltitudeMeters>
            <DistanceMeters>3328.1946599814</DistanceMeters>
          </Trackpoint>
          <Trackpoint>
            <Time>2021-08-29T14:27:46.000Z</Time>
            <Position>
              <LatitudeDegrees>-32.9875336401164531707763671875</LatitudeDegrees>
              <LongitudeDegrees>-69.28830628283321857452392578125</LongitudeDegrees>
            </Position>
            <AltitudeMeters>1903.199951171875</AltitudeMeters>
            <DistanceMeters>3332.2038414528</DistanceMeters>
          </Trackpoint>
          <Trackpoint>
            <Time>2021-08-29T14:27:54.000Z</Time>
            <Position>
              <LatitudeDegrees>-32.98737086355686187744140625</LatitudeDegrees>
              <LongitudeDegrees>-69.288066141307353973388671875</LongitudeDegrees>
            </Position>
            <AltitudeMeters>1900.800048828125</AltitudeMeters>
            <DistanceMeters>3361.0285940742</DistanceMeters>
          </Trackpoint>
          <Trackpoint>
            <Time>2021-08-29T14:28:00.000Z</Time>
            <Position>
              <LatitudeDegrees>-32.98725024797022342681884765625</LatitudeDegrees>
              <LongitudeDegrees>-69.28788333199918270111083984375</LongitudeDegrees>
            </Position>
            <AltitudeMeters>1898.800048828125</AltitudeMeters>
            <DistanceMeters>3382.742770124</DistanceMeters>
          </Trackpoint>
          <Trackpoint>
            <Time>2021-08-29T14:28:05.000Z</Time>
            <Position>
              <LatitudeDegrees>-32.987157963216304779052734375</LatitudeDegrees>
              <LongitudeDegrees>-69.28764629177749156951904296875</LongitudeDegrees>
            </Position>
            <AltitudeMeters>1896.5999755859375</AltitudeMeters>
            <DistanceMeters>3407.1402197644</DistanceMeters>
          </Trackpoint>
          <Trackpoint>
            <Time>2021-08-29T14:28:09.000Z</Time>
            <Position>
              <LatitudeDegrees>-32.98710021190345287322998046875</LatitudeDegrees>
              <LongitudeDegrees>-69.28750731982290744781494140625</LongitudeDegrees>
            </Position>
            <AltitudeMeters>1895.4000244140625</AltitudeMeters>
            <DistanceMeters>3421.619871517</DistanceMeters>
          </Trackpoint>
          <Trackpoint>
            <Time>2021-08-29T14:28:13.000Z</Time>
            <Position>
              <LatitudeDegrees>-32.9870538599789142608642578125</LatitudeDegrees>
              <LongitudeDegrees>-69.28735929541289806365966796875</LongitudeDegrees>
            </Position>
            <AltitudeMeters>1894</AltitudeMeters>
            <DistanceMeters>3436.3713725303</DistanceMeters>
          </Trackpoint>
          <Trackpoint>
            <Time>2021-08-29T14:28:16.000Z</Time>
            <Position>
              <LatitudeDegrees>-32.98702594824135303497314453125</LatitudeDegrees>
              <LongitudeDegrees>-69.28722904063761234283447265625</LongitudeDegrees>
            </Position>
            <AltitudeMeters>1892.800048828125</AltitudeMeters>
            <DistanceMeters>3448.9224554941</DistanceMeters>
          </Trackpoint>
          <Trackpoint>
            <Time>2021-08-29T14:28:22.000Z</Time>
            <Position>
              <LatitudeDegrees>-32.9869868047535419464111328125</LatitudeDegrees>
              <LongitudeDegrees>-69.28704715333878993988037109375</LongitudeDegrees>
            </Position>
            <AltitudeMeters>1891.4000244140625</AltitudeMeters>
            <DistanceMeters>3466.4532746905</DistanceMeters>
          </Trackpoint>
          <Trackpoint>
            <Time>2021-08-29T14:28:23.000Z</Time>
            <Position>
              <LatitudeDegrees>-32.98698454163968563079833984375</LatitudeDegrees>
              <LongitudeDegrees>-69.28702167235314846038818359375</LongitudeDegrees>
            </Position>
            <AltitudeMeters>1891.199951171875</AltitudeMeters>
            <DistanceMeters>3468.8440984792</DistanceMeters>
          </Trackpoint>
          <Trackpoint>
            <Time>2021-08-29T14:28:26.000Z</Time>
            <Position>
              <LatitudeDegrees>-32.98700298182666301727294921875</LatitudeDegrees>
              <LongitudeDegrees>-69.28694472648203372955322265625</LongitudeDegrees>
            </Position>
            <AltitudeMeters>1890.5999755859375</AltitudeMeters>
            <DistanceMeters>3476.314431298</DistanceMeters>
          </Trackpoint>
          <Trackpoint>
            <Time>2021-08-29T14:28:28.000Z</Time>
            <Position>
              <LatitudeDegrees>-32.98700633458793163299560546875</LatitudeDegrees>
              <LongitudeDegrees>-69.28688102401793003082275390625</LongitudeDegrees>
            </Position>
            <AltitudeMeters>1890</AltitudeMeters>
            <DistanceMeters>3482.2731442948</DistanceMeters>
          </Trackpoint>
          <Trackpoint>
            <Time>2021-08-29T14:28:32.000Z</Time>
            <Position>
              <LatitudeDegrees>-32.986961491405963897705078125</LatitudeDegrees>
              <LongitudeDegrees>-69.286690168082714080810546875</LongitudeDegrees>
            </Position>
            <AltitudeMeters>1888.800048828125</AltitudeMeters>
            <DistanceMeters>3500.7772637984</DistanceMeters>
          </Trackpoint>
          <Trackpoint>
            <Time>2021-08-29T14:28:39.000Z</Time>
            <Position>
              <LatitudeDegrees>-32.986832745373249053955078125</LatitudeDegrees>
              <LongitudeDegrees>-69.28641733713448047637939453125</LongitudeDegrees>
            </Position>
            <AltitudeMeters>1887</AltitudeMeters>
            <DistanceMeters>3530.0028839061</DistanceMeters>
          </Trackpoint>
          <Trackpoint>
            <Time>2021-08-29T14:28:44.000Z</Time>
            <Position>
              <LatitudeDegrees>-32.98671682365238666534423828125</LatitudeDegrees>
              <LongitudeDegrees>-69.2862531356513500213623046875</LongitudeDegrees>
            </Position>
            <AltitudeMeters>1885.800048828125</AltitudeMeters>
            <DistanceMeters>3550.0397798408</DistanceMeters>
          </Trackpoint>
          <Trackpoint>
            <Time>2021-08-29T14:28:46.000Z</Time>
            <Position>
              <LatitudeDegrees>-32.98667591996490955352783203125</LatitudeDegrees>
              <LongitudeDegrees>-69.2861820571124553680419921875</LongitudeDegrees>
            </Position>
            <AltitudeMeters>1885.199951171875</AltitudeMeters>
            <DistanceMeters>3558.087370055</DistanceMeters>
          </Trackpoint>
          <Trackpoint>
            <Time>2021-08-29T14:28:50.000Z</Time>
            <Position>
              <LatitudeDegrees>-32.9866066016256809234619140625</LatitudeDegrees>
              <LongitudeDegrees>-69.28603000938892364501953125</LongitudeDegrees>
            </Position>
            <AltitudeMeters>1883.5999755859375</AltitudeMeters>
            <DistanceMeters>3574.2438678118</DistanceMeters>
          </Trackpoint>
          <Trackpoint>
            <Time>2021-08-29T14:28:56.000Z</Time>
            <Position>
              <LatitudeDegrees>-32.986487410962581634521484375</LatitudeDegrees>
              <LongitudeDegrees>-69.28579724393784999847412109375</LongitudeDegrees>
            </Position>
            <AltitudeMeters>1881</AltitudeMeters>
            <DistanceMeters>3599.7039347295</DistanceMeters>
          </Trackpoint>
          <Trackpoint>
            <Time>2021-08-29T14:29:00.000Z</Time>
            <Position>
              <LatitudeDegrees>-32.9864064417779445648193359375</LatitudeDegrees>
              <LongitudeDegrees>-69.28566447459161281585693359375</LongitudeDegrees>
            </Position>
            <AltitudeMeters>1879.5999755859375</AltitudeMeters>
            <DistanceMeters>3615.0291837726</DistanceMeters>
          </Trackpoint>
          <Trackpoint>
            <Time>2021-08-29T14:29:03.000Z</Time>
            <Position>
              <LatitudeDegrees>-32.9863538034260272979736328125</LatitudeDegrees>
              <LongitudeDegrees>-69.285584427416324615478515625</LongitudeDegrees>
            </Position>
            <AltitudeMeters>1878.800048828125</AltitudeMeters>
            <DistanceMeters>3624.5252010098</DistanceMeters>
          </Trackpoint>
          <Trackpoint>
            <Time>2021-08-29T14:29:09.000Z</Time>
            <Position>
              <LatitudeDegrees>-32.98625431023538112640380859375</LatitudeDegrees>
              <LongitudeDegrees>-69.285426177084445953369140625</LongitudeDegrees>
            </Position>
            <AltitudeMeters>1877</AltitudeMeters>
            <DistanceMeters>3642.9885272495</DistanceMeters>
          </Trackpoint>
          <Trackpoint>
            <Time>2021-08-29T14:29:13.000Z</Time>
            <Position>
              <LatitudeDegrees>-32.9861881770193576812744140625</LatitudeDegrees>
              <LongitudeDegrees>-69.28532266058027744293212890625</LongitudeDegrees>
            </Position>
            <AltitudeMeters>1875.800048828125</AltitudeMeters>
            <DistanceMeters>3655.1367180335</DistanceMeters>
          </Trackpoint>
          <Trackpoint>
            <Time>2021-08-29T14:29:22.000Z</Time>
            <Position>
              <LatitudeDegrees>-32.98605130054056644439697265625</LatitudeDegrees>
              <LongitudeDegrees>-69.28506768308579921722412109375</LongitudeDegrees>
            </Position>
            <AltitudeMeters>1873.4000244140625</AltitudeMeters>
            <DistanceMeters>3683.3991390538</DistanceMeters>
          </Trackpoint>
          <Trackpoint>
            <Time>2021-08-29T14:29:29.000Z</Time>
            <Position>
              <LatitudeDegrees>-32.98591048456728458404541015625</LatitudeDegrees>
              <LongitudeDegrees>-69.284893088042736053466796875</LongitudeDegrees>
            </Position>
            <AltitudeMeters>1871.5999755859375</AltitudeMeters>
            <DistanceMeters>3706.0119033411</DistanceMeters>
          </Trackpoint>
          <Trackpoint>
            <Time>2021-08-29T14:29:35.000Z</Time>
            <Position>
              <LatitudeDegrees>-32.98581358976662158966064453125</LatitudeDegrees>
              <LongitudeDegrees>-69.2847313173115253448486328125</LongitudeDegrees>
            </Position>
            <AltitudeMeters>1871.800048828125</AltitudeMeters>
            <DistanceMeters>3724.5701121872</DistanceMeters>
          </Trackpoint>
          <Trackpoint>
            <Time>2021-08-29T14:29:36.000Z</Time>
            <Position>
              <LatitudeDegrees>-32.98580202274024486541748046875</LatitudeDegrees>
              <LongitudeDegrees>-69.2847011424601078033447265625</LongitudeDegrees>
            </Position>
            <AltitudeMeters>1871.800048828125</AltitudeMeters>
            <DistanceMeters>3727.6683328475</DistanceMeters>
          </Trackpoint>
          <Trackpoint>
            <Time>2021-08-29T14:29:42.000Z</Time>
            <Position>
              <LatitudeDegrees>-32.9856788925826549530029296875</LatitudeDegrees>
              <LongitudeDegrees>-69.284573905169963836669921875</LongitudeDegrees>
            </Position>
            <AltitudeMeters>1872.4000244140625</AltitudeMeters>
            <DistanceMeters>3745.8047482747</DistanceMeters>
          </Trackpoint>
          <Trackpoint>
            <Time>2021-08-29T14:29:47.000Z</Time>
            <Position>
              <LatitudeDegrees>-32.9855521582067012786865234375</LatitudeDegrees>
              <LongitudeDegrees>-69.28455236367881298065185546875</LongitudeDegrees>
            </Position>
            <AltitudeMeters>1873.800048828125</AltitudeMeters>
            <DistanceMeters>3760.0530526865</DistanceMeters>
          </Trackpoint>
          <Trackpoint>
            <Time>2021-08-29T14:29:49.000Z</Time>
            <Position>
              <LatitudeDegrees>-32.9855226539075374603271484375</LatitudeDegrees>
              <LongitudeDegrees>-69.2845153994858264923095703125</LongitudeDegrees>
            </Position>
            <AltitudeMeters>1874</AltitudeMeters>
            <DistanceMeters>3764.8157779596</DistanceMeters>
          </Trackpoint>
          <Trackpoint>
            <Time>2021-08-29T14:29:51.000Z</Time>
            <Position>
              <LatitudeDegrees>-32.9855156131088733673095703125</LatitudeDegrees>
              <LongitudeDegrees>-69.2844614200294017791748046875</LongitudeDegrees>
            </Position>
            <AltitudeMeters>1873.800048828125</AltitudeMeters>
            <DistanceMeters>3769.9154465919</DistanceMeters>
          </Trackpoint>
          <Trackpoint>
            <Time>2021-08-29T14:29:55.000Z</Time>
            <Position>
              <LatitudeDegrees>-32.98552282154560089111328125</LatitudeDegrees>
              <LongitudeDegrees>-69.28433577530086040496826171875</LongitudeDegrees>
            </Position>
            <AltitudeMeters>1872.4000244140625</AltitudeMeters>
            <DistanceMeters>3781.6730586063</DistanceMeters>
          </Trackpoint>
          <Trackpoint>
            <Time>2021-08-29T14:29:57.000Z</Time>
            <Position>
              <LatitudeDegrees>-32.9855079017579555511474609375</LatitudeDegrees>
              <LongitudeDegrees>-69.284283556044101715087890625</LongitudeDegrees>
            </Position>
            <AltitudeMeters>1872</AltitudeMeters>
            <DistanceMeters>3786.8238221023</DistanceMeters>
          </Trackpoint>
          <Trackpoint>
            <Time>2021-08-29T14:30:03.000Z</Time>
            <Position>
              <LatitudeDegrees>-32.9854555986821651458740234375</LatitudeDegrees>
              <LongitudeDegrees>-69.28416998125612735748291015625</LongitudeDegrees>
            </Position>
            <AltitudeMeters>1871.4000244140625</AltitudeMeters>
            <DistanceMeters>3798.9202413534</DistanceMeters>
          </Trackpoint>
          <Trackpoint>
            <Time>2021-08-29T14:30:05.000Z</Time>
            <Position>
              <LatitudeDegrees>-32.985440008342266082763671875</LatitudeDegrees>
              <LongitudeDegrees>-69.28413813002407550811767578125</LongitudeDegrees>
            </Position>
            <AltitudeMeters>1871.199951171875</AltitudeMeters>
            <DistanceMeters>3802.3622553415</DistanceMeters>
          </Trackpoint>
          <Trackpoint>
            <Time>2021-08-29T14:30:06.000Z</Time>
            <Position>
              <LatitudeDegrees>-32.98543271608650684356689453125</LatitudeDegrees>
              <LongitudeDegrees>-69.2841234616935253143310546875</LongitudeDegrees>
            </Position>
            <AltitudeMeters>1871</AltitudeMeters>
            <DistanceMeters>3803.9551933443</DistanceMeters>
          </Trackpoint>
          <Trackpoint>
            <Time>2021-08-29T14:30:13.000Z</Time>
            <Position>
              <LatitudeDegrees>-32.985388375818729400634765625</LatitudeDegrees>
              <LongitudeDegrees>-69.2840245552361011505126953125</LongitudeDegrees>
            </Position>
            <AltitudeMeters>1870.5999755859375</AltitudeMeters>
            <DistanceMeters>3814.4249640177</DistanceMeters>
          </Trackpoint>
          <Trackpoint>
            <Time>2021-08-29T14:30:17.000Z</Time>
            <Position>
              <LatitudeDegrees>-32.985365577042102813720703125</LatitudeDegrees>
              <LongitudeDegrees>-69.28396563045680522918701171875</LongitudeDegrees>
            </Position>
            <AltitudeMeters>1870.199951171875</AltitudeMeters>
            <DistanceMeters>3820.4828704769</DistanceMeters>
          </Trackpoint>
          <Trackpoint>
            <Time>2021-08-29T14:30:25.000Z</Time>
            <Position>
              <LatitudeDegrees>-32.98533632420003414154052734375</LatitudeDegrees>
              <LongitudeDegrees>-69.28380285389721393585205078125</LongitudeDegrees>
            </Position>
            <AltitudeMeters>1869.199951171875</AltitudeMeters>
            <DistanceMeters>3836.0243145772</DistanceMeters>
          </Trackpoint>
          <Trackpoint>
            <Time>2021-08-29T14:30:29.000Z</Time>
            <Position>
              <LatitudeDegrees>-32.98525284044444561004638671875</LatitudeDegrees>
              <LongitudeDegrees>-69.28360286168754100799560546875</LongitudeDegrees>
            </Position>
            <AltitudeMeters>1868.4000244140625</AltitudeMeters>
            <DistanceMeters>3856.8802430444</DistanceMeters>
          </Trackpoint>
          <Trackpoint>
            <Time>2021-08-29T14:30:32.000Z</Time>
            <Position>
              <LatitudeDegrees>-32.9851920716464519500732421875</LatitudeDegrees>
              <LongitudeDegrees>-69.2834374867379665374755859375</LongitudeDegrees>
            </Position>
            <AltitudeMeters>1866.4000244140625</AltitudeMeters>
            <DistanceMeters>3873.7367072462</DistanceMeters>
          </Trackpoint>
          <Trackpoint>
            <Time>2021-08-29T14:30:34.000Z</Time>
            <Position>
              <LatitudeDegrees>-32.9851773194968700408935546875</LatitudeDegrees>
              <LongitudeDegrees>-69.2833516560494899749755859375</LongitudeDegrees>
            </Position>
            <AltitudeMeters>1865.199951171875</AltitudeMeters>
            <DistanceMeters>3881.9167357577</DistanceMeters>
          </Trackpoint>
          <Trackpoint>
            <Time>2021-08-29T14:30:37.000Z</Time>
            <Position>
              <LatitudeDegrees>-32.9851521737873554229736328125</LatitudeDegrees>
              <LongitudeDegrees>-69.283236823976039886474609375</LongitudeDegrees>
            </Position>
            <AltitudeMeters>1863.800048828125</AltitudeMeters>
            <DistanceMeters>3892.9962149503</DistanceMeters>
          </Trackpoint>
          <Trackpoint>
            <Time>2021-08-29T14:30:41.000Z</Time>
            <Position>
              <LatitudeDegrees>-32.98511378467082977294921875</LatitudeDegrees>
              <LongitudeDegrees>-69.2830767296254634857177734375</LongitudeDegrees>
            </Position>
            <AltitudeMeters>1861.800048828125</AltitudeMeters>
            <DistanceMeters>3908.5411448517</DistanceMeters>
          </Trackpoint>
          <Trackpoint>
            <Time>2021-08-29T14:30:47.000Z</Time>
            <Position>
              <LatitudeDegrees>-32.9850009642541408538818359375</LatitudeDegrees>
              <LongitudeDegrees>-69.28290079347789287567138671875</LongitudeDegrees>
            </Position>
            <AltitudeMeters>1860.199951171875</AltitudeMeters>
            <DistanceMeters>3929.216826675</DistanceMeters>
          </Trackpoint>
          <Trackpoint>
            <Time>2021-08-29T14:30:53.000Z</Time>
            <Position>
              <LatitudeDegrees>-32.9848242737352848052978515625</LatitudeDegrees>
              <LongitudeDegrees>-69.2828468978404998779296875</LongitudeDegrees>
            </Position>
            <AltitudeMeters>1860.800048828125</AltitudeMeters>
            <DistanceMeters>3949.5165436298</DistanceMeters>
          </Trackpoint>
          <Trackpoint>
            <Time>2021-08-29T14:30:56.000Z</Time>
            <Position>
              <LatitudeDegrees>-32.984744645655155181884765625</LatitudeDegrees>
              <LongitudeDegrees>-69.282853938639163970947265625</LongitudeDegrees>
            </Position>
            <AltitudeMeters>1861.5999755859375</AltitudeMeters>
            <DistanceMeters>3958.4039548758</DistanceMeters>
          </Trackpoint>
          <Trackpoint>
            <Time>2021-08-29T14:30:57.000Z</Time>
            <Position>
              <LatitudeDegrees>-32.9847149737179279327392578125</LatitudeDegrees>
              <LongitudeDegrees>-69.2828534357249736785888671875</LongitudeDegrees>
            </Position>
            <AltitudeMeters>1861.800048828125</AltitudeMeters>
            <DistanceMeters>3961.7067313357</DistanceMeters>
          </Trackpoint>
          <Trackpoint>
            <Time>2021-08-29T14:30:59.000Z</Time>
            <Position>
              <LatitudeDegrees>-32.98464548774063587188720703125</LatitudeDegrees>
              <LongitudeDegrees>-69.282845221459865570068359375</LongitudeDegrees>
            </Position>
            <AltitudeMeters>1862.4000244140625</AltitudeMeters>
            <DistanceMeters>3969.4780343961</DistanceMeters>
          </Trackpoint>
          <Trackpoint>
            <Time>2021-08-29T14:31:01.000Z</Time>
            <Position>
              <LatitudeDegrees>-32.9845640994608402252197265625</LatitudeDegrees>
              <LongitudeDegrees>-69.282815046608448028564453125</LongitudeDegrees>
            </Position>
            <AltitudeMeters>1862.5999755859375</AltitudeMeters>
            <DistanceMeters>3978.9645375369</DistanceMeters>
          </Trackpoint>
          <Trackpoint>
            <Time>2021-08-29T14:31:03.000Z</Time>
            <Position>
              <LatitudeDegrees>-32.9844913445413112640380859375</LatitudeDegrees>
              <LongitudeDegrees>-69.28276819176971912384033203125</LongitudeDegrees>
            </Position>
            <AltitudeMeters>1862.5999755859375</AltitudeMeters>
            <DistanceMeters>3988.1679128441</DistanceMeters>
          </Trackpoint>
          <Trackpoint>
            <Time>2021-08-29T14:31:04.000Z</Time>
            <Position>
              <LatitudeDegrees>-32.984463684260845184326171875</LatitudeDegrees>
              <LongitudeDegrees>-69.28274321369826793670654296875</LongitudeDegrees>
            </Position>
            <AltitudeMeters>1862.5999755859375</AltitudeMeters>
            <DistanceMeters>3992.0302549166</DistanceMeters>
          </Trackpoint>
          <Trackpoint>
            <Time>2021-08-29T14:31:12.000Z</Time>
            <Position>
              <LatitudeDegrees>-32.9842747561633586883544921875</LatitudeDegrees>
              <LongitudeDegrees>-69.28254053927958011627197265625</LongitudeDegrees>
            </Position>
            <AltitudeMeters>1862.4000244140625</AltitudeMeters>
            <DistanceMeters>4020.318544266</DistanceMeters>
          </Trackpoint>
          <Trackpoint>
            <Time>2021-08-29T14:31:17.000Z</Time>
            <Position>
              <LatitudeDegrees>-32.98413067124783992767333984375</LatitudeDegrees>
              <LongitudeDegrees>-69.2823444865643978118896484375</LongitudeDegrees>
            </Position>
            <AltitudeMeters>1863.4000244140625</AltitudeMeters>
            <DistanceMeters>4044.6541047367</DistanceMeters>
          </Trackpoint>
          <Trackpoint>
            <Time>2021-08-29T14:31:20.000Z</Time>
            <Position>
              <LatitudeDegrees>-32.98407375812530517578125</LatitudeDegrees>
              <LongitudeDegrees>-69.28220425732433795928955078125</LongitudeDegrees>
            </Position>
            <AltitudeMeters>1863.199951171875</AltitudeMeters>
            <DistanceMeters>4059.1984703391</DistanceMeters>
          </Trackpoint>
          <Trackpoint>
            <Time>2021-08-29T14:31:22.000Z</Time>
            <Position>
              <LatitudeDegrees>-32.9840541444718837738037109375</LatitudeDegrees>
              <LongitudeDegrees>-69.28210283629596233367919921875</LongitudeDegrees>
            </Position>
            <AltitudeMeters>1862.800048828125</AltitudeMeters>
            <DistanceMeters>4068.9153875096</DistanceMeters>
          </Trackpoint>
          <Trackpoint>
            <Time>2021-08-29T14:31:24.000Z</Time>
            <Position>
              <LatitudeDegrees>-32.9840551503002643585205078125</LatitudeDegrees>
              <LongitudeDegrees>-69.2819971404969692230224609375</LongitudeDegrees>
            </Position>
            <AltitudeMeters>1861.5999755859375</AltitudeMeters>
            <DistanceMeters>4078.7844505109</DistanceMeters>
          </Trackpoint>
          <Trackpoint>
            <Time>2021-08-29T14:31:28.000Z</Time>
            <Position>
              <LatitudeDegrees>-32.98408381640911102294921875</LatitudeDegrees>
              <LongitudeDegrees>-69.281797818839550018310546875</LongitudeDegrees>
            </Position>
            <AltitudeMeters>1859.4000244140625</AltitudeMeters>
            <DistanceMeters>4097.6653762789</DistanceMeters>
          </Trackpoint>
          <Trackpoint>
            <Time>2021-08-29T14:31:31.000Z</Time>
            <Position>
              <LatitudeDegrees>-32.98411491326987743377685546875</LatitudeDegrees>
              <LongitudeDegrees>-69.28166949190199375152587890625</LongitudeDegrees>
            </Position>
            <AltitudeMeters>1857.800048828125</AltitudeMeters>
            <DistanceMeters>4110.1367048637</DistanceMeters>
          </Trackpoint>
          <Trackpoint>
            <Time>2021-08-29T14:31:34.000Z</Time>
            <Position>
              <LatitudeDegrees>-32.9841409809887409210205078125</LatitudeDegrees>
              <LongitudeDegrees>-69.28154644556343555450439453125</LongitudeDegrees>
            </Position>
            <AltitudeMeters>1856.199951171875</AltitudeMeters>
            <DistanceMeters>4121.9857397844</DistanceMeters>
          </Trackpoint>
          <Trackpoint>
            <Time>2021-08-29T14:31:38.000Z</Time>
            <Position>
              <LatitudeDegrees>-32.9841084592044353485107421875</LatitudeDegrees>
              <LongitudeDegrees>-69.28138987161219120025634765625</LongitudeDegrees>
            </Position>
            <AltitudeMeters>1855.800048828125</AltitudeMeters>
            <DistanceMeters>4137.0456003404</DistanceMeters>
          </Trackpoint>
          <Trackpoint>
            <Time>2021-08-29T14:31:41.000Z</Time>
            <Position>
              <LatitudeDegrees>-32.98404484055936336517333984375</LatitudeDegrees>
              <LongitudeDegrees>-69.28129616193473339080810546875</LongitudeDegrees>
            </Position>
            <AltitudeMeters>1856.5999755859375</AltitudeMeters>
            <DistanceMeters>4148.3013532032</DistanceMeters>
          </Trackpoint>
          <Trackpoint>
            <Time>2021-08-29T14:31:45.000Z</Time>
            <Position>
              <LatitudeDegrees>-32.98392690718173980712890625</LatitudeDegrees>
              <LongitudeDegrees>-69.2811458744108676910400390625</LongitudeDegrees>
            </Position>
            <AltitudeMeters>1858</AltitudeMeters>
            <DistanceMeters>4167.5153224771</DistanceMeters>
          </Trackpoint>
          <Trackpoint>
            <Time>2021-08-29T14:31:48.000Z</Time>
            <Position>
              <LatitudeDegrees>-32.9838412441313266754150390625</LatitudeDegrees>
              <LongitudeDegrees>-69.2810261808335781097412109375</LongitudeDegrees>
            </Position>
            <AltitudeMeters>1859.5999755859375</AltitudeMeters>
            <DistanceMeters>4182.2048666056</DistanceMeters>
          </Trackpoint>
          <Trackpoint>
            <Time>2021-08-29T14:31:50.000Z</Time>
            <Position>
              <LatitudeDegrees>-32.98381903208792209625244140625</LatitudeDegrees>
              <LongitudeDegrees>-69.2809289507567882537841796875</LongitudeDegrees>
            </Position>
            <AltitudeMeters>1860</AltitudeMeters>
            <DistanceMeters>4191.6129912489</DistanceMeters>
          </Trackpoint>
          <Trackpoint>
            <Time>2021-08-29T14:31:52.000Z</Time>
            <Position>
              <LatitudeDegrees>-32.98382825218141078948974609375</LatitudeDegrees>
              <LongitudeDegrees>-69.28081923164427280426025390625</LongitudeDegrees>
            </Position>
            <AltitudeMeters>1859.5999755859375</AltitudeMeters>
            <DistanceMeters>4201.908380377</DistanceMeters>
          </Trackpoint>
          <Trackpoint>
            <Time>2021-08-29T14:31:54.000Z</Time>
            <Position>
              <LatitudeDegrees>-32.9838766157627105712890625</LatitudeDegrees>
              <LongitudeDegrees>-69.28072325885295867919921875</LongitudeDegrees>
            </Position>
            <AltitudeMeters>1858.5999755859375</AltitudeMeters>
            <DistanceMeters>4212.3613189577</DistanceMeters>
          </Trackpoint>
          <Trackpoint>
            <Time>2021-08-29T14:31:56.000Z</Time>
            <Position>
              <LatitudeDegrees>-32.9839307628571987152099609375</LatitudeDegrees>
              <LongitudeDegrees>-69.28064907900989055633544921875</LongitudeDegrees>
            </Position>
            <AltitudeMeters>1858</AltitudeMeters>
            <DistanceMeters>4221.5420996178</DistanceMeters>
          </Trackpoint>
          <Trackpoint>
            <Time>2021-08-29T14:31:58.000Z</Time>
            <Position>
              <LatitudeDegrees>-32.98398323357105255126953125</LatitudeDegrees>
              <LongitudeDegrees>-69.28059644065797328948974609375</LongitudeDegrees>
            </Position>
            <AltitudeMeters>1857.4000244140625</AltitudeMeters>
            <DistanceMeters>4229.1744664289</DistanceMeters>
          </Trackpoint>
          <Trackpoint>
            <Time>2021-08-29T14:32:05.000Z</Time>
            <Position>
              <LatitudeDegrees>-32.98414391465485095977783203125</LatitudeDegrees>
              <LongitudeDegrees>-69.28050423972308635711669921875</LongitudeDegrees>
            </Position>
            <AltitudeMeters>1855</AltitudeMeters>
            <DistanceMeters>4249.0225422788</DistanceMeters>
          </Trackpoint>
          <Trackpoint>
            <Time>2021-08-29T14:32:12.000Z</Time>
            <Position>
              <LatitudeDegrees>-32.9842475987970829010009765625</LatitudeDegrees>
              <LongitudeDegrees>-69.28040550090372562408447265625</LongitudeDegrees>
            </Position>
            <AltitudeMeters>1853.5999755859375</AltitudeMeters>
            <DistanceMeters>4263.7923962637</DistanceMeters>
          </Trackpoint>
          <Trackpoint>
            <Time>2021-08-29T14:32:17.000Z</Time>
            <Position>
              <LatitudeDegrees>-32.9842703975737094879150390625</LatitudeDegrees>
              <LongitudeDegrees>-69.28035319782793521881103515625</LongitudeDegrees>
            </Position>
            <AltitudeMeters>1853.5999755859375</AltitudeMeters>
            <DistanceMeters>4269.2949271647</DistanceMeters>
          </Trackpoint>
          <Trackpoint>
            <Time>2021-08-29T14:32:25.000Z</Time>
            <Position>
              <LatitudeDegrees>-32.98427551053464412689208984375</LatitudeDegrees>
              <LongitudeDegrees>-69.2803666926920413970947265625</LongitudeDegrees>
            </Position>
            <AltitudeMeters>1853.5999755859375</AltitudeMeters>
            <DistanceMeters>4270.6785370107</DistanceMeters>
          </Trackpoint>
          <Trackpoint>
            <Time>2021-08-29T14:32:39.000Z</Time>
            <Position>
              <LatitudeDegrees>-32.9842754267156124114990234375</LatitudeDegrees>
              <LongitudeDegrees>-69.280368201434612274169921875</LongitudeDegrees>
            </Position>
            <AltitudeMeters>1853.5999755859375</AltitudeMeters>
            <DistanceMeters>4270.812925079</DistanceMeters>
          </Trackpoint>
          <Trackpoint>
            <Time>2021-08-29T14:32:51.000Z</Time>
            <Position>
              <LatitudeDegrees>-32.98427551053464412689208984375</LatitudeDegrees>
              <LongitudeDegrees>-69.2803747393190860748291015625</LongitudeDegrees>
            </Position>
            <AltitudeMeters>1853.5999755859375</AltitudeMeters>
            <DistanceMeters>4271.4287685743</DistanceMeters>
          </Trackpoint>
          <Trackpoint>
            <Time>2021-08-29T14:32:54.000Z</Time>
            <Position>
              <LatitudeDegrees>-32.98427584581077098846435546875</LatitudeDegrees>
              <LongitudeDegrees>-69.28037566132843494415283203125</LongitudeDegrees>
            </Position>
            <AltitudeMeters>1853.5999755859375</AltitudeMeters>
            <DistanceMeters>4271.5237952886</DistanceMeters>
          </Trackpoint>
          <Trackpoint>
            <Time>2021-08-29T14:32:56.000Z</Time>
            <Position>
              <LatitudeDegrees>-32.9842762649059295654296875</LatitudeDegrees>
              <LongitudeDegrees>-69.28037591278553009033203125</LongitudeDegrees>
            </Position>
            <AltitudeMeters>1853.5999755859375</AltitudeMeters>
            <DistanceMeters>4271.5237952886</DistanceMeters>
          </Trackpoint>
          <Trackpoint>
            <Time>2021-08-29T14:32:58.000Z</Time>
            <Position>
              <LatitudeDegrees>-32.98427685163915157318115234375</LatitudeDegrees>
              <LongitudeDegrees>-69.28037616424262523651123046875</LongitudeDegrees>
            </Position>
            <AltitudeMeters>1853.5999755859375</AltitudeMeters>
            <DistanceMeters>4271.5237952886</DistanceMeters>
          </Trackpoint>
          <Trackpoint>
            <Time>2021-08-29T14:33:33.000Z</Time>
            <Position>
              <LatitudeDegrees>-32.9842781089246273040771484375</LatitudeDegrees>
              <LongitudeDegrees>-69.280378930270671844482421875</LongitudeDegrees>
            </Position>
            <AltitudeMeters>1853.5999755859375</AltitudeMeters>
            <DistanceMeters>4271.8242961446</DistanceMeters>
          </Trackpoint>
          <Trackpoint>
            <Time>2021-08-29T14:33:37.000Z</Time>
            <Position>
              <LatitudeDegrees>-32.9842801205813884735107421875</LatitudeDegrees>
              <LongitudeDegrees>-69.28037717007100582122802734375</LongitudeDegrees>
            </Position>
            <AltitudeMeters>1853.5999755859375</AltitudeMeters>
            <DistanceMeters>4272.0930722811</DistanceMeters>
          </Trackpoint>
          <Trackpoint>
            <Time>2021-08-29T14:33:44.000Z</Time>
            <Position>
              <LatitudeDegrees>-32.98428238369524478912353515625</LatitudeDegrees>
              <LongitudeDegrees>-69.2803770862519741058349609375</LongitudeDegrees>
            </Position>
            <AltitudeMeters>1853.5999755859375</AltitudeMeters>
            <DistanceMeters>4272.3444893352</DistanceMeters>
          </Trackpoint>
          <Trackpoint>
            <Time>2021-08-29T14:33:50.000Z</Time>
            <Position>
              <LatitudeDegrees>-32.98428255133330821990966796875</LatitudeDegrees>
              <LongitudeDegrees>-69.28037649951875209808349609375</LongitudeDegrees>
            </Position>
            <AltitudeMeters>1853.5999755859375</AltitudeMeters>
            <DistanceMeters>4272.3444893352</DistanceMeters>
          </Trackpoint>
          <Trackpoint>
            <Time>2021-08-29T14:33:52.000Z</Time>
            <Position>
              <LatitudeDegrees>-32.98428255133330821990966796875</LatitudeDegrees>
              <LongitudeDegrees>-69.28037633188068866729736328125</LongitudeDegrees>
            </Position>
            <AltitudeMeters>1853.5999755859375</AltitudeMeters>
            <DistanceMeters>4272.3444893352</DistanceMeters>
          </Trackpoint>
          <Trackpoint>
            <Time>2021-08-29T14:33:59.000Z</Time>
            <Position>
              <LatitudeDegrees>-32.98428255133330821990966796875</LatitudeDegrees>
              <LongitudeDegrees>-69.2803757451474666595458984375</LongitudeDegrees>
            </Position>
            <AltitudeMeters>1853.5999755859375</AltitudeMeters>
            <DistanceMeters>4272.3444893352</DistanceMeters>
          </Trackpoint>
          <Trackpoint>
            <Time>2021-08-29T14:34:08.000Z</Time>
            <Position>
              <LatitudeDegrees>-32.9842784442007541656494140625</LatitudeDegrees>
              <LongitudeDegrees>-69.28037482313811779022216796875</LongitudeDegrees>
            </Position>
            <AltitudeMeters>1853.5999755859375</AltitudeMeters>
            <DistanceMeters>4272.8100232595</DistanceMeters>
          </Trackpoint>
          <Trackpoint>
            <Time>2021-08-29T14:34:10.000Z</Time>
            <Position>
              <LatitudeDegrees>-32.9842771030962467193603515625</LatitudeDegrees>
              <LongitudeDegrees>-69.28037448786199092864990234375</LongitudeDegrees>
            </Position>
            <AltitudeMeters>1853.5999755859375</AltitudeMeters>
            <DistanceMeters>4272.9444113278</DistanceMeters>
          </Trackpoint>
          <Trackpoint>
            <Time>2021-08-29T14:34:16.000Z</Time>
            <Position>
              <LatitudeDegrees>-32.9842764325439929962158203125</LatitudeDegrees>
              <LongitudeDegrees>-69.28037348203361034393310546875</LongitudeDegrees>
            </Position>
            <AltitudeMeters>1853.5999755859375</AltitudeMeters>
            <DistanceMeters>4273.0394380421</DistanceMeters>
          </Trackpoint>
          <Trackpoint>
            <Time>2021-08-29T14:34:26.000Z</Time>
            <Position>
              <LatitudeDegrees>-32.9842774383723735809326171875</LatitudeDegrees>
              <LongitudeDegrees>-69.28037331439554691314697265625</LongitudeDegrees>
            </Position>
            <AltitudeMeters>1853.5999755859375</AltitudeMeters>
            <DistanceMeters>4273.0394380421</DistanceMeters>
          </Trackpoint>
          <Trackpoint>
            <Time>2021-08-29T14:34:33.000Z</Time>
            <Position>
              <LatitudeDegrees>-32.98428422771394252777099609375</LatitudeDegrees>
              <LongitudeDegrees>-69.2802889086306095123291015625</LongitudeDegrees>
            </Position>
            <AltitudeMeters>1853.4000244140625</AltitudeMeters>
            <DistanceMeters>4280.955796455</DistanceMeters>
          </Trackpoint>
          <Trackpoint>
            <Time>2021-08-29T14:34:37.000Z</Time>
            <Position>
              <LatitudeDegrees>-32.98428556881844997406005859375</LatitudeDegrees>
              <LongitudeDegrees>-69.28016091696918010711669921875</LongitudeDegrees>
            </Position>
            <AltitudeMeters>1852.5999755859375</AltitudeMeters>
            <DistanceMeters>4292.9065156399</DistanceMeters>
          </Trackpoint>
          <Trackpoint>
            <Time>2021-08-29T14:34:41.000Z</Time>
            <Position>
              <LatitudeDegrees>-32.9842824675142765045166015625</LatitudeDegrees>
              <LongitudeDegrees>-69.28004357032477855682373046875</LongitudeDegrees>
            </Position>
            <AltitudeMeters>1851.800048828125</AltitudeMeters>
            <DistanceMeters>4303.867590728</DistanceMeters>
          </Trackpoint>
          <Trackpoint>
            <Time>2021-08-29T14:34:48.000Z</Time>
            <Position>
              <LatitudeDegrees>-32.984334267675876617431640625</LatitudeDegrees>
              <LongitudeDegrees>-69.279874674975872039794921875</LongitudeDegrees>
            </Position>
            <AltitudeMeters>1850</AltitudeMeters>
            <DistanceMeters>4320.6569583836</DistanceMeters>
          </Trackpoint>
          <Trackpoint>
            <Time>2021-08-29T14:34:53.000Z</Time>
            <Position>
              <LatitudeDegrees>-32.98438129015266895294189453125</LatitudeDegrees>
              <LongitudeDegrees>-69.27976277656853199005126953125</LongitudeDegrees>
            </Position>
            <AltitudeMeters>1848.5999755859375</AltitudeMeters>
            <DistanceMeters>4332.3421535429</DistanceMeters>
          </Trackpoint>
          <Trackpoint>
            <Time>2021-08-29T14:34:55.000Z</Time>
            <Position>
              <LatitudeDegrees>-32.9843795299530029296875</LatitudeDegrees>
              <LongitudeDegrees>-69.27971617318689823150634765625</LongitudeDegrees>
            </Position>
            <AltitudeMeters>1848.199951171875</AltitudeMeters>
            <DistanceMeters>4336.6988978187</DistanceMeters>
          </Trackpoint>
          <Trackpoint>
            <Time>2021-08-29T14:35:02.000Z</Time>
            <Position>
              <LatitudeDegrees>-32.98434591852128505706787109375</LatitudeDegrees>
              <LongitudeDegrees>-69.27952473051846027374267578125</LongitudeDegrees>
            </Position>
            <AltitudeMeters>1847.5999755859375</AltitudeMeters>
            <DistanceMeters>4354.9598578954</DistanceMeters>
          </Trackpoint>
          <Trackpoint>
            <Time>2021-08-29T14:35:09.000Z</Time>
            <Position>
              <LatitudeDegrees>-32.98437089659273624420166015625</LatitudeDegrees>
              <LongitudeDegrees>-69.27934301085770130157470703125</LongitudeDegrees>
            </Position>
            <AltitudeMeters>1844.4000244140625</AltitudeMeters>
            <DistanceMeters>4372.1515536236</DistanceMeters>
          </Trackpoint>
          <Trackpoint>
            <Time>2021-08-29T14:35:10.000Z</Time>
            <Position>
              <LatitudeDegrees>-32.98437525518238544464111328125</LatitudeDegrees>
              <LongitudeDegrees>-69.27931501530110836029052734375</LongitudeDegrees>
            </Position>
            <AltitudeMeters>1843.5999755859375</AltitudeMeters>
            <DistanceMeters>4374.8089056475</DistanceMeters>
          </Trackpoint>
          <Trackpoint>
            <Time>2021-08-29T14:35:12.000Z</Time>
            <Position>
              <LatitudeDegrees>-32.98438145779073238372802734375</LatitudeDegrees>
              <LongitudeDegrees>-69.27925877273082733154296875</LongitudeDegrees>
            </Position>
            <AltitudeMeters>1842.4000244140625</AltitudeMeters>
            <DistanceMeters>4380.1065917073</DistanceMeters>
          </Trackpoint>
          <Trackpoint>
            <Time>2021-08-29T14:35:17.000Z</Time>
            <Position>
              <LatitudeDegrees>-32.984405346214771270751953125</LatitudeDegrees>
              <LongitudeDegrees>-69.27912675775587558746337890625</LongitudeDegrees>
            </Position>
            <AltitudeMeters>1839.199951171875</AltitudeMeters>
            <DistanceMeters>4392.7154586616</DistanceMeters>
          </Trackpoint>
          <Trackpoint>
            <Time>2021-08-29T14:35:21.000Z</Time>
            <Position>
              <LatitudeDegrees>-32.9844175837934017181396484375</LatitudeDegrees>
              <LongitudeDegrees>-69.27903271280229091644287109375</LongitudeDegrees>
            </Position>
            <AltitudeMeters>1837.199951171875</AltitudeMeters>
            <DistanceMeters>4401.6003294133</DistanceMeters>
          </Trackpoint>
          <Trackpoint>
            <Time>2021-08-29T14:35:27.000Z</Time>
            <Position>
              <LatitudeDegrees>-32.98437743447721004486083984375</LatitudeDegrees>
              <LongitudeDegrees>-69.27889860235154628753662109375</LongitudeDegrees>
            </Position>
            <AltitudeMeters>1835.199951171875</AltitudeMeters>
            <DistanceMeters>4414.8945633574</DistanceMeters>
          </Trackpoint>
          <Trackpoint>
            <Time>2021-08-29T14:35:33.000Z</Time>
            <Position>
              <LatitudeDegrees>-32.9842734150588512420654296875</LatitudeDegrees>
              <LongitudeDegrees>-69.27883909083902835845947265625</LongitudeDegrees>
            </Position>
            <AltitudeMeters>1835.800048828125</AltitudeMeters>
            <DistanceMeters>4427.7361853741</DistanceMeters>
          </Trackpoint>
          <Trackpoint>
            <Time>2021-08-29T14:35:36.000Z</Time>
            <Position>
              <LatitudeDegrees>-32.98421926796436309814453125</LatitudeDegrees>
              <LongitudeDegrees>-69.278844036161899566650390625</LongitudeDegrees>
            </Position>
            <AltitudeMeters>1836.199951171875</AltitudeMeters>
            <DistanceMeters>4433.7806613061</DistanceMeters>
          </Trackpoint>
          <Trackpoint>
            <Time>2021-08-29T14:35:41.000Z</Time>
            <Position>
              <LatitudeDegrees>-32.98413201235234737396240234375</LatitudeDegrees>
              <LongitudeDegrees>-69.27888284437358379364013671875</LongitudeDegrees>
            </Position>
            <AltitudeMeters>1836.800048828125</AltitudeMeters>
            <DistanceMeters>4444.1468520087</DistanceMeters>
          </Trackpoint>
          <Trackpoint>
            <Time>2021-08-29T14:35:50.000Z</Time>
            <Position>
              <LatitudeDegrees>-32.98397007398307323455810546875</LatitudeDegrees>
              <LongitudeDegrees>-69.27890203893184661865234375</LongitudeDegrees>
            </Position>
            <AltitudeMeters>1836.5999755859375</AltitudeMeters>
            <DistanceMeters>4462.2598511353</DistanceMeters>
          </Trackpoint>
          <Trackpoint>
            <Time>2021-08-29T14:35:54.000Z</Time>
            <Position>
              <LatitudeDegrees>-32.98389396630227565765380859375</LatitudeDegrees>
              <LongitudeDegrees>-69.27884194068610668182373046875</LongitudeDegrees>
            </Position>
            <AltitudeMeters>1835</AltitudeMeters>
            <DistanceMeters>4472.4201579175</DistanceMeters>
          </Trackpoint>
          <Trackpoint>
            <Time>2021-08-29T14:35:59.000Z</Time>
            <Position>
              <LatitudeDegrees>-32.98379547894001007080078125</LatitudeDegrees>
              <LongitudeDegrees>-69.2787674255669116973876953125</LongitudeDegrees>
            </Position>
            <AltitudeMeters>1833.199951171875</AltitudeMeters>
            <DistanceMeters>4485.403046922</DistanceMeters>
          </Trackpoint>
          <Trackpoint>
            <Time>2021-08-29T14:36:03.000Z</Time>
            <Position>
              <LatitudeDegrees>-32.98376723192632198333740234375</LatitudeDegrees>
              <LongitudeDegrees>-69.27875610999763011932373046875</LongitudeDegrees>
            </Position>
            <AltitudeMeters>1832.800048828125</AltitudeMeters>
            <DistanceMeters>4488.7208267798</DistanceMeters>
          </Trackpoint>
          <Trackpoint>
            <Time>2021-08-29T14:36:07.000Z</Time>
            <Position>
              <LatitudeDegrees>-32.983770668506622314453125</LatitudeDegrees>
              <LongitudeDegrees>-69.2787543497979640960693359375</LongitudeDegrees>
            </Position>
            <AltitudeMeters>1832.800048828125</AltitudeMeters>
            <DistanceMeters>4489.1457991658</DistanceMeters>
          </Trackpoint>
          <Trackpoint>
            <Time>2021-08-29T14:36:10.000Z</Time>
            <Position>
              <LatitudeDegrees>-32.9837735183537006378173828125</LatitudeDegrees>
              <LongitudeDegrees>-69.2787556909024715423583984375</LongitudeDegrees>
            </Position>
            <AltitudeMeters>1832.800048828125</AltitudeMeters>
            <DistanceMeters>4489.4749813606</DistanceMeters>
          </Trackpoint>
          <Trackpoint>
            <Time>2021-08-29T14:36:21.000Z</Time>
            <Position>
              <LatitudeDegrees>-32.983775697648525238037109375</LatitudeDegrees>
              <LongitudeDegrees>-69.27875661291182041168212890625</LongitudeDegrees>
            </Position>
            <AltitudeMeters>1832.800048828125</AltitudeMeters>
            <DistanceMeters>4489.7437574971</DistanceMeters>
          </Trackpoint>
          <Trackpoint>
            <Time>2021-08-29T14:36:45.000Z</Time>
            <Position>
              <LatitudeDegrees>-32.98378340899944305419921875</LatitudeDegrees>
              <LongitudeDegrees>-69.2787580378353595733642578125</LongitudeDegrees>
            </Position>
            <AltitudeMeters>1833</AltitudeMeters>
            <DistanceMeters>4490.6146917204</DistanceMeters>
          </Trackpoint>
          <Trackpoint>
            <Time>2021-08-29T14:36:48.000Z</Time>
            <Position>
              <LatitudeDegrees>-32.9837580956518650054931640625</LatitudeDegrees>
              <LongitudeDegrees>-69.27869274280965328216552734375</LongitudeDegrees>
            </Position>
            <AltitudeMeters>1831.5999755859375</AltitudeMeters>
            <DistanceMeters>4497.3314068337</DistanceMeters>
          </Trackpoint>
          <Trackpoint>
            <Time>2021-08-29T14:36:51.000Z</Time>
            <Position>
              <LatitudeDegrees>-32.98372549004852771759033203125</LatitudeDegrees>
              <LongitudeDegrees>-69.2785499989986419677734375</LongitudeDegrees>
            </Position>
            <AltitudeMeters>1829.4000244140625</AltitudeMeters>
            <DistanceMeters>4511.14399005</DistanceMeters>
          </Trackpoint>
          <Trackpoint>
            <Time>2021-08-29T14:36:54.000Z</Time>
            <Position>
              <LatitudeDegrees>-32.9836980812251567840576171875</LatitudeDegrees>
              <LongitudeDegrees>-69.27840608172118663787841796875</LongitudeDegrees>
            </Position>
            <AltitudeMeters>1827.800048828125</AltitudeMeters>
            <DistanceMeters>4524.9228636337</DistanceMeters>
          </Trackpoint>
          <Trackpoint>
            <Time>2021-08-29T14:36:56.000Z</Time>
            <Position>
              <LatitudeDegrees>-32.98369246535003185272216796875</LatitudeDegrees>
              <LongitudeDegrees>-69.27831639535725116729736328125</LongitudeDegrees>
            </Position>
            <AltitudeMeters>1827</AltitudeMeters>
            <DistanceMeters>4533.3196985656</DistanceMeters>
          </Trackpoint>
          <Trackpoint>
            <Time>2021-08-29T14:37:03.000Z</Time>
            <Position>
              <LatitudeDegrees>-32.98369950614869594573974609375</LatitudeDegrees>
              <LongitudeDegrees>-69.2779867351055145263671875</LongitudeDegrees>
            </Position>
            <AltitudeMeters>1824</AltitudeMeters>
            <DistanceMeters>4564.1077674313</DistanceMeters>
          </Trackpoint>
          <Trackpoint>
            <Time>2021-08-29T14:37:08.000Z</Time>
            <Position>
              <LatitudeDegrees>-32.9837255738675594329833984375</LatitudeDegrees>
              <LongitudeDegrees>-69.27781708538532257080078125</LongitudeDegrees>
            </Position>
            <AltitudeMeters>1823</AltitudeMeters>
            <DistanceMeters>4580.2102397574</DistanceMeters>
          </Trackpoint>
          <Trackpoint>
            <Time>2021-08-29T14:37:17.000Z</Time>
            <Position>
              <LatitudeDegrees>-32.98387753777205944061279296875</LatitudeDegrees>
              <LongitudeDegrees>-69.2775334417819976806640625</LongitudeDegrees>
            </Position>
            <AltitudeMeters>1824.800048828125</AltitudeMeters>
            <DistanceMeters>4611.6326301588</DistanceMeters>
          </Trackpoint>
          <Trackpoint>
            <Time>2021-08-29T14:37:21.000Z</Time>
            <Position>
              <LatitudeDegrees>-32.98391173593699932098388671875</LatitudeDegrees>
              <LongitudeDegrees>-69.277440570294857025146484375</LongitudeDegrees>
            </Position>
            <AltitudeMeters>1825.199951171875</AltitudeMeters>
            <DistanceMeters>4621.1024606306</DistanceMeters>
          </Trackpoint>
          <Trackpoint>
            <Time>2021-08-29T14:37:23.000Z</Time>
            <Position>
              <LatitudeDegrees>-32.983923889696598052978515625</LatitudeDegrees>
              <LongitudeDegrees>-69.27740092389285564422607421875</LongitudeDegrees>
            </Position>
            <AltitudeMeters>1825.199951171875</AltitudeMeters>
            <DistanceMeters>4625.0434924096</DistanceMeters>
          </Trackpoint>
          <Trackpoint>
            <Time>2021-08-29T14:37:27.000Z</Time>
            <Position>
              <LatitudeDegrees>-32.9839543998241424560546875</LatitudeDegrees>
              <LongitudeDegrees>-69.27732582204043865203857421875</LongitudeDegrees>
            </Position>
            <AltitudeMeters>1825</AltitudeMeters>
            <DistanceMeters>4632.8345240394</DistanceMeters>
          </Trackpoint>
          <Trackpoint>
            <Time>2021-08-29T14:37:30.000Z</Time>
            <Position>
              <LatitudeDegrees>-32.9839785397052764892578125</LatitudeDegrees>
              <LongitudeDegrees>-69.27722674794495105743408203125</LongitudeDegrees>
            </Position>
            <AltitudeMeters>1825</AltitudeMeters>
            <DistanceMeters>4642.466502309</DistanceMeters>
          </Trackpoint>
          <Trackpoint>
            <Time>2021-08-29T14:37:35.000Z</Time>
            <Position>
              <LatitudeDegrees>-32.98399840481579303741455078125</LatitudeDegrees>
              <LongitudeDegrees>-69.277042262256145477294921875</LongitudeDegrees>
            </Position>
            <AltitudeMeters>1824.800048828125</AltitudeMeters>
            <DistanceMeters>4659.8317081174</DistanceMeters>
          </Trackpoint>
          <Trackpoint>
            <Time>2021-08-29T14:37:42.000Z</Time>
            <Position>
              <LatitudeDegrees>-32.98393101431429386138916015625</LatitudeDegrees>
              <LongitudeDegrees>-69.27682642824947834014892578125</LongitudeDegrees>
            </Position>
            <AltitudeMeters>1823.5999755859375</AltitudeMeters>
            <DistanceMeters>4681.3331690841</DistanceMeters>
          </Trackpoint>
          <Trackpoint>
            <Time>2021-08-29T14:37:49.000Z</Time>
            <Position>
              <LatitudeDegrees>-32.983877956867218017578125</LatitudeDegrees>
              <LongitudeDegrees>-69.27666717208921909332275390625</LongitudeDegrees>
            </Position>
            <AltitudeMeters>1822.4000244140625</AltitudeMeters>
            <DistanceMeters>4697.3315592133</DistanceMeters>
          </Trackpoint>
          <Trackpoint>
            <Time>2021-08-29T14:37:53.000Z</Time>
            <Position>
              <LatitudeDegrees>-32.98387770541012287139892578125</LatitudeDegrees>
              <LongitudeDegrees>-69.27650607191026210784912109375</LongitudeDegrees>
            </Position>
            <AltitudeMeters>1821.800048828125</AltitudeMeters>
            <DistanceMeters>4712.3725201251</DistanceMeters>
          </Trackpoint>
          <Trackpoint>
            <Time>2021-08-29T14:37:57.000Z</Time>
            <Position>
              <LatitudeDegrees>-32.98386228270828723907470703125</LatitudeDegrees>
              <LongitudeDegrees>-69.2764359153807163238525390625</LongitudeDegrees>
            </Position>
            <AltitudeMeters>1821.5999755859375</AltitudeMeters>
            <DistanceMeters>4719.144132059</DistanceMeters>
          </Trackpoint>
          <Trackpoint>
            <Time>2021-08-29T14:38:08.000Z</Time>
            <Position>
              <LatitudeDegrees>-32.98384736292064189910888671875</LatitudeDegrees>
              <LongitudeDegrees>-69.27632753737270832061767578125</LongitudeDegrees>
            </Position>
            <AltitudeMeters>1821.4000244140625</AltitudeMeters>
            <DistanceMeters>4729.3982146661</DistanceMeters>
          </Trackpoint>
          <Trackpoint>
            <Time>2021-08-29T14:38:17.000Z</Time>
            <Position>
              <LatitudeDegrees>-32.9838409088551998138427734375</LatitudeDegrees>
              <LongitudeDegrees>-69.27628478966653347015380859375</LongitudeDegrees>
            </Position>
            <AltitudeMeters>1821.199951171875</AltitudeMeters>
            <DistanceMeters>4733.4521928515</DistanceMeters>
          </Trackpoint>
          <Trackpoint>
            <Time>2021-08-29T14:38:30.000Z</Time>
            <Position>
              <LatitudeDegrees>-32.98384845256805419921875</LatitudeDegrees>
              <LongitudeDegrees>-69.27629493176937103271484375</LongitudeDegrees>
            </Position>
            <AltitudeMeters>1821.4000244140625</AltitudeMeters>
            <DistanceMeters>4734.7164410592</DistanceMeters>
          </Trackpoint>
          <Trackpoint>
            <Time>2021-08-29T14:38:40.000Z</Time>
            <Position>
              <LatitudeDegrees>-32.9838432557880878448486328125</LatitudeDegrees>
              <LongitudeDegrees>-69.27629518322646617889404296875</LongitudeDegrees>
            </Position>
            <AltitudeMeters>1821.199951171875</AltitudeMeters>
            <DistanceMeters>4735.3022250679</DistanceMeters>
          </Trackpoint>
          <Trackpoint>
            <Time>2021-08-29T14:39:09.000Z</Time>
            <Position>
              <LatitudeDegrees>-32.98382573761045932769775390625</LatitudeDegrees>
              <LongitudeDegrees>-69.2762781679630279541015625</LongitudeDegrees>
            </Position>
            <AltitudeMeters>1821.199951171875</AltitudeMeters>
            <DistanceMeters>4737.8163956092</DistanceMeters>
          </Trackpoint>
          <Trackpoint>
            <Time>2021-08-29T14:39:21.000Z</Time>
            <Position>
              <LatitudeDegrees>-32.98382707871496677398681640625</LatitudeDegrees>
              <LongitudeDegrees>-69.2762790061533451080322265625</LongitudeDegrees>
            </Position>
            <AltitudeMeters>1821.199951171875</AltitudeMeters>
            <DistanceMeters>4738.0064490379</DistanceMeters>
          </Trackpoint>
          <Trackpoint>
            <Time>2021-08-29T14:39:23.000Z</Time>
            <Position>
              <LatitudeDegrees>-32.98382841981947422027587890625</LatitudeDegrees>
              <LongitudeDegrees>-69.27627942524850368499755859375</LongitudeDegrees>
            </Position>
            <AltitudeMeters>1821.199951171875</AltitudeMeters>
            <DistanceMeters>4738.1408371062</DistanceMeters>
          </Trackpoint>
          <Trackpoint>
            <Time>2021-08-29T14:39:26.000Z</Time>
            <Position>
              <LatitudeDegrees>-32.983829341828823089599609375</LatitudeDegrees>
              <LongitudeDegrees>-69.27628017961978912353515625</LongitudeDegrees>
            </Position>
            <AltitudeMeters>1821.199951171875</AltitudeMeters>
            <DistanceMeters>4738.2752251744</DistanceMeters>
          </Trackpoint>
          <Trackpoint>
            <Time>2021-08-29T14:39:29.000Z</Time>
            <Position>
              <LatitudeDegrees>-32.98383059911429882049560546875</LatitudeDegrees>
              <LongitudeDegrees>-69.2762810178101062774658203125</LongitudeDegrees>
            </Position>
            <AltitudeMeters>1821.199951171875</AltitudeMeters>
            <DistanceMeters>4738.4398162718</DistanceMeters>
          </Trackpoint>
          <Trackpoint>
            <Time>2021-08-29T14:39:31.000Z</Time>
            <Position>
              <LatitudeDegrees>-32.9838308505713939666748046875</LatitudeDegrees>
              <LongitudeDegrees>-69.27628152072429656982421875</LongitudeDegrees>
            </Position>
            <AltitudeMeters>1821.199951171875</AltitudeMeters>
            <DistanceMeters>4738.4398162718</DistanceMeters>
          </Trackpoint>
          <Trackpoint>
            <Time>2021-08-29T14:39:33.000Z</Time>
            <Position>
              <LatitudeDegrees>-32.98383076675236225128173828125</LatitudeDegrees>
              <LongitudeDegrees>-69.27628244273364543914794921875</LongitudeDegrees>
            </Position>
            <AltitudeMeters>1821.199951171875</AltitudeMeters>
            <DistanceMeters>4738.5348429862</DistanceMeters>
          </Trackpoint>
          <Trackpoint>
            <Time>2021-08-29T14:39:38.000Z</Time>
            <Position>
              <LatitudeDegrees>-32.98383026383817195892333984375</LatitudeDegrees>
              <LongitudeDegrees>-69.276283197104930877685546875</LongitudeDegrees>
            </Position>
            <AltitudeMeters>1821.199951171875</AltitudeMeters>
            <DistanceMeters>4738.6298697006</DistanceMeters>
          </Trackpoint>
          <Trackpoint>
            <Time>2021-08-29T14:39:41.000Z</Time>
            <Position>
              <LatitudeDegrees>-32.98383026383817195892333984375</LatitudeDegrees>
              <LongitudeDegrees>-69.27628411911427974700927734375</LongitudeDegrees>
            </Position>
            <AltitudeMeters>1821.199951171875</AltitudeMeters>
            <DistanceMeters>4738.7642577688</DistanceMeters>
          </Trackpoint>
          <Trackpoint>
            <Time>2021-08-29T14:39:44.000Z</Time>
            <Position>
              <LatitudeDegrees>-32.98383034765720367431640625</LatitudeDegrees>
              <LongitudeDegrees>-69.27628478966653347015380859375</LongitudeDegrees>
            </Position>
            <AltitudeMeters>1821.199951171875</AltitudeMeters>
            <DistanceMeters>4738.8986458371</DistanceMeters>
          </Trackpoint>
          <Trackpoint>
            <Time>2021-08-29T14:39:47.000Z</Time>
            <Position>
              <LatitudeDegrees>-32.9838308505713939666748046875</LatitudeDegrees>
              <LongitudeDegrees>-69.2762850411236286163330078125</LongitudeDegrees>
            </Position>
            <AltitudeMeters>1821.199951171875</AltitudeMeters>
            <DistanceMeters>4738.8986458371</DistanceMeters>
          </Trackpoint>
          <Trackpoint>
            <Time>2021-08-29T14:39:50.000Z</Time>
            <Position>
              <LatitudeDegrees>-32.98383126966655254364013671875</LatitudeDegrees>
              <LongitudeDegrees>-69.2762862145900726318359375</LongitudeDegrees>
            </Position>
            <AltitudeMeters>1821.199951171875</AltitudeMeters>
            <DistanceMeters>4739.0330339053</DistanceMeters>
          </Trackpoint>
          <Trackpoint>
            <Time>2021-08-29T14:39:52.000Z</Time>
            <Position>
              <LatitudeDegrees>-32.9838318563997745513916015625</LatitudeDegrees>
              <LongitudeDegrees>-69.2762867175042629241943359375</LongitudeDegrees>
            </Position>
            <AltitudeMeters>1821.199951171875</AltitudeMeters>
            <DistanceMeters>4739.1674219736</DistanceMeters>
          </Trackpoint>
          <Trackpoint>
            <Time>2021-08-29T14:39:54.000Z</Time>
            <Position>
              <LatitudeDegrees>-32.98383194021880626678466796875</LatitudeDegrees>
              <LongitudeDegrees>-69.27628713659942150115966796875</LongitudeDegrees>
            </Position>
            <AltitudeMeters>1821.199951171875</AltitudeMeters>
            <DistanceMeters>4739.1674219736</DistanceMeters>
          </Trackpoint>
          <Trackpoint>
            <Time>2021-08-29T14:39:56.000Z</Time>
            <Position>
              <LatitudeDegrees>-32.983831353485584259033203125</LatitudeDegrees>
              <LongitudeDegrees>-69.27628747187554836273193359375</LongitudeDegrees>
            </Position>
            <AltitudeMeters>1821.199951171875</AltitudeMeters>
            <DistanceMeters>4739.1674219736</DistanceMeters>
          </Trackpoint>
          <Trackpoint>
            <Time>2021-08-29T14:39:58.000Z</Time>
            <Position>
              <LatitudeDegrees>-32.98383093439042568206787109375</LatitudeDegrees>
              <LongitudeDegrees>-69.27628814242780208587646484375</LongitudeDegrees>
            </Position>
            <AltitudeMeters>1821.199951171875</AltitudeMeters>
            <DistanceMeters>4739.3018100418</DistanceMeters>
          </Trackpoint>
          <Trackpoint>
            <Time>2021-08-29T14:40:00.000Z</Time>
            <Position>
              <LatitudeDegrees>-32.9838308505713939666748046875</LatitudeDegrees>
              <LongitudeDegrees>-69.27628898061811923980712890625</LongitudeDegrees>
            </Position>
            <AltitudeMeters>1821.199951171875</AltitudeMeters>
            <DistanceMeters>4739.3018100418</DistanceMeters>
          </Trackpoint>
          <Trackpoint>
            <Time>2021-08-29T14:40:04.000Z</Time>
            <Position>
              <LatitudeDegrees>-32.98383043147623538970947265625</LatitudeDegrees>
              <LongitudeDegrees>-69.27628931589424610137939453125</LongitudeDegrees>
            </Position>
            <AltitudeMeters>1821.199951171875</AltitudeMeters>
            <DistanceMeters>4739.3018100418</DistanceMeters>
          </Trackpoint>
          <Trackpoint>
            <Time>2021-08-29T14:40:14.000Z</Time>
            <Position>
              <LatitudeDegrees>-32.98382942564785480499267578125</LatitudeDegrees>
              <LongitudeDegrees>-69.276289902627468109130859375</LongitudeDegrees>
            </Position>
            <AltitudeMeters>1821.199951171875</AltitudeMeters>
            <DistanceMeters>4739.4361981101</DistanceMeters>
          </Trackpoint>
          <Trackpoint>
            <Time>2021-08-29T14:40:20.000Z</Time>
            <Position>
              <LatitudeDegrees>-32.98382841981947422027587890625</LatitudeDegrees>
              <LongitudeDegrees>-69.27628965117037296295166015625</LongitudeDegrees>
            </Position>
            <AltitudeMeters>1821.199951171875</AltitudeMeters>
            <DistanceMeters>4739.5312248244</DistanceMeters>
          </Trackpoint>
          <Trackpoint>
            <Time>2021-08-29T14:40:23.000Z</Time>
            <Position>
              <LatitudeDegrees>-32.98382825218141078948974609375</LatitudeDegrees>
              <LongitudeDegrees>-69.27628898061811923980712890625</LongitudeDegrees>
            </Position>
            <AltitudeMeters>1821.199951171875</AltitudeMeters>
            <DistanceMeters>4739.6262515388</DistanceMeters>
          </Trackpoint>
          <Trackpoint>
            <Time>2021-08-29T14:40:28.000Z</Time>
            <Position>
              <LatitudeDegrees>-32.98382841981947422027587890625</LatitudeDegrees>
              <LongitudeDegrees>-69.2762870527803897857666015625</LongitudeDegrees>
            </Position>
            <AltitudeMeters>1821.199951171875</AltitudeMeters>
            <DistanceMeters>4739.8163049675</DistanceMeters>
          </Trackpoint>
          <Trackpoint>
            <Time>2021-08-29T14:40:47.000Z</Time>
            <Position>
              <LatitudeDegrees>-32.983844764530658721923828125</LatitudeDegrees>
              <LongitudeDegrees>-69.27626165561378002166748046875</LongitudeDegrees>
            </Position>
            <AltitudeMeters>1821.199951171875</AltitudeMeters>
            <DistanceMeters>4742.8062507328</DistanceMeters>
          </Trackpoint>
          <Trackpoint>
            <Time>2021-08-29T14:40:51.000Z</Time>
            <Position>
              <LatitudeDegrees>-32.98384669236838817596435546875</LatitudeDegrees>
              <LongitudeDegrees>-69.27625997923314571380615234375</LongitudeDegrees>
            </Position>
            <AltitudeMeters>1821.199951171875</AltitudeMeters>
            <DistanceMeters>4743.0750268693</DistanceMeters>
          </Trackpoint>
          <Trackpoint>
            <Time>2021-08-29T14:40:54.000Z</Time>
            <Position>
              <LatitudeDegrees>-32.9838482849299907684326171875</LatitudeDegrees>
              <LongitudeDegrees>-69.27625872194766998291015625</LongitudeDegrees>
            </Position>
            <AltitudeMeters>1821.199951171875</AltitudeMeters>
            <DistanceMeters>4743.2875130624</DistanceMeters>
          </Trackpoint>
          <Trackpoint>
            <Time>2021-08-29T14:41:00.000Z</Time>
            <Position>
              <LatitudeDegrees>-32.98385205678641796112060546875</LatitudeDegrees>
              <LongitudeDegrees>-69.27625645883381366729736328125</LongitudeDegrees>
            </Position>
            <AltitudeMeters>1821.4000244140625</AltitudeMeters>
            <DistanceMeters>4743.7626466342</DistanceMeters>
          </Trackpoint>
          <Trackpoint>
            <Time>2021-08-29T14:41:05.000Z</Time>
            <Position>
              <LatitudeDegrees>-32.98385339789092540740966796875</LatitudeDegrees>
              <LongitudeDegrees>-69.27625603973865509033203125</LongitudeDegrees>
            </Position>
            <AltitudeMeters>1821.4000244140625</AltitudeMeters>
            <DistanceMeters>4743.9527000629</DistanceMeters>
          </Trackpoint>
          <Trackpoint>
            <Time>2021-08-29T14:41:32.000Z</Time>
            <Position>
              <LatitudeDegrees>-32.983870916068553924560546875</LatitudeDegrees>
              <LongitudeDegrees>-69.276257716119289398193359375</LongitudeDegrees>
            </Position>
            <AltitudeMeters>1821.4000244140625</AltitudeMeters>
            <DistanceMeters>4745.9094198723</DistanceMeters>
          </Trackpoint>
          <Trackpoint>
            <Time>2021-08-29T14:41:34.000Z</Time>
            <Position>
              <LatitudeDegrees>-32.98387116752564907073974609375</LatitudeDegrees>
              <LongitudeDegrees>-69.276257716119289398193359375</LongitudeDegrees>
            </Position>
            <AltitudeMeters>1821.4000244140625</AltitudeMeters>
            <DistanceMeters>4745.9094198723</DistanceMeters>
          </Trackpoint>
          <Trackpoint>
            <Time>2021-08-29T14:41:49.000Z</Time>
            <Position>
              <LatitudeDegrees>-32.98387133516371250152587890625</LatitudeDegrees>
              <LongitudeDegrees>-69.27625746466219425201416015625</LongitudeDegrees>
            </Position>
            <AltitudeMeters>1821.4000244140625</AltitudeMeters>
            <DistanceMeters>4745.9094198723</DistanceMeters>
          </Trackpoint>
          <Trackpoint>
            <Time>2021-08-29T14:42:09.000Z</Time>
            <Position>
              <LatitudeDegrees>-32.98387058079242706298828125</LatitudeDegrees>
              <LongitudeDegrees>-69.27625738084316253662109375</LongitudeDegrees>
            </Position>
            <AltitudeMeters>1821.4000244140625</AltitudeMeters>
            <DistanceMeters>4746.0044465866</DistanceMeters>
          </Trackpoint>
          <Trackpoint>
            <Time>2021-08-29T14:42:11.000Z</Time>
            <Position>
              <LatitudeDegrees>-32.98387049697339534759521484375</LatitudeDegrees>
              <LongitudeDegrees>-69.27625729702413082122802734375</LongitudeDegrees>
            </Position>
            <AltitudeMeters>1821.4000244140625</AltitudeMeters>
            <DistanceMeters>4746.099473301</DistanceMeters>
          </Trackpoint>
          <Trackpoint>
            <Time>2021-08-29T14:42:13.000Z</Time>
            <Position>
              <LatitudeDegrees>-32.9838704131543636322021484375</LatitudeDegrees>
              <LongitudeDegrees>-69.27625729702413082122802734375</LongitudeDegrees>
            </Position>
            <AltitudeMeters>1821.4000244140625</AltitudeMeters>
            <DistanceMeters>4746.099473301</DistanceMeters>
          </Trackpoint>
          <Trackpoint>
            <Time>2021-08-29T14:42:26.000Z</Time>
            <Position>
              <LatitudeDegrees>-32.9838700778782367706298828125</LatitudeDegrees>
              <LongitudeDegrees>-69.2762572132050991058349609375</LongitudeDegrees>
            </Position>
            <AltitudeMeters>1821.4000244140625</AltitudeMeters>
            <DistanceMeters>4746.099473301</DistanceMeters>
          </Trackpoint>
          <Trackpoint>
            <Time>2021-08-29T14:42:28.000Z</Time>
            <Position>
              <LatitudeDegrees>-32.98386999405920505523681640625</LatitudeDegrees>
              <LongitudeDegrees>-69.2762572132050991058349609375</LongitudeDegrees>
            </Position>
            <AltitudeMeters>1821.4000244140625</AltitudeMeters>
            <DistanceMeters>4746.099473301</DistanceMeters>
          </Trackpoint>
          <Trackpoint>
            <Time>2021-08-29T14:42:31.000Z</Time>
            <Position>
              <LatitudeDegrees>-32.98386991024017333984375</LatitudeDegrees>
              <LongitudeDegrees>-69.2762572132050991058349609375</LongitudeDegrees>
            </Position>
            <AltitudeMeters>1821.4000244140625</AltitudeMeters>
            <DistanceMeters>4746.099473301</DistanceMeters>
          </Trackpoint>
          <Trackpoint>
            <Time>2021-08-29T14:42:37.000Z</Time>
            <Position>
              <LatitudeDegrees>-32.98386982642114162445068359375</LatitudeDegrees>
              <LongitudeDegrees>-69.2762572132050991058349609375</LongitudeDegrees>
            </Position>
            <AltitudeMeters>1821.4000244140625</AltitudeMeters>
            <DistanceMeters>4746.099473301</DistanceMeters>
          </Trackpoint>
          <Trackpoint>
            <Time>2021-08-29T14:43:01.000Z</Time>
            <Position>
              <LatitudeDegrees>-32.98386965878307819366455078125</LatitudeDegrees>
              <LongitudeDegrees>-69.27625738084316253662109375</LongitudeDegrees>
            </Position>
            <AltitudeMeters>1821.4000244140625</AltitudeMeters>
            <DistanceMeters>4746.099473301</DistanceMeters>
          </Trackpoint>
          <Trackpoint>
            <Time>2021-08-29T14:43:26.000Z</Time>
            <Position>
              <LatitudeDegrees>-32.98386982642114162445068359375</LatitudeDegrees>
              <LongitudeDegrees>-69.27625746466219425201416015625</LongitudeDegrees>
            </Position>
            <AltitudeMeters>1821.4000244140625</AltitudeMeters>
            <DistanceMeters>4746.099473301</DistanceMeters>
          </Trackpoint>
          <Trackpoint>
            <Time>2021-08-29T14:43:31.000Z</Time>
            <Position>
              <LatitudeDegrees>-32.98386991024017333984375</LatitudeDegrees>
              <LongitudeDegrees>-69.27625746466219425201416015625</LongitudeDegrees>
            </Position>
            <AltitudeMeters>1821.4000244140625</AltitudeMeters>
            <DistanceMeters>4746.099473301</DistanceMeters>
          </Trackpoint>
          <Trackpoint>
            <Time>2021-08-29T14:43:41.000Z</Time>
            <Position>
              <LatitudeDegrees>-32.98386991024017333984375</LatitudeDegrees>
              <LongitudeDegrees>-69.27625746466219425201416015625</LongitudeDegrees>
            </Position>
            <AltitudeMeters>1821.4000244140625</AltitudeMeters>
            <DistanceMeters>4746.099473301</DistanceMeters>
          </Trackpoint>
          <Trackpoint>
            <Time>2021-08-29T14:43:43.000Z</Time>
            <Position>
              <LatitudeDegrees>-32.98386991024017333984375</LatitudeDegrees>
              <LongitudeDegrees>-69.2762575484812259674072265625</LongitudeDegrees>
            </Position>
            <AltitudeMeters>1821.4000244140625</AltitudeMeters>
            <DistanceMeters>4746.099473301</DistanceMeters>
          </Trackpoint>
          <Trackpoint>
            <Time>2021-08-29T14:43:54.000Z</Time>
            <Position>
              <LatitudeDegrees>-32.98386991024017333984375</LatitudeDegrees>
              <LongitudeDegrees>-69.27625779993832111358642578125</LongitudeDegrees>
            </Position>
            <AltitudeMeters>1821.4000244140625</AltitudeMeters>
            <DistanceMeters>4746.099473301</DistanceMeters>
          </Trackpoint>
          <Trackpoint>
            <Time>2021-08-29T14:43:56.000Z</Time>
            <Position>
              <LatitudeDegrees>-32.98386991024017333984375</LatitudeDegrees>
              <LongitudeDegrees>-69.2762578837573528289794921875</LongitudeDegrees>
            </Position>
            <AltitudeMeters>1821.4000244140625</AltitudeMeters>
            <DistanceMeters>4746.099473301</DistanceMeters>
          </Trackpoint>
          <Trackpoint>
            <Time>2021-08-29T14:43:58.000Z</Time>
            <Position>
              <LatitudeDegrees>-32.98386999405920505523681640625</LatitudeDegrees>
              <LongitudeDegrees>-69.2762578837573528289794921875</LongitudeDegrees>
            </Position>
            <AltitudeMeters>1821.4000244140625</AltitudeMeters>
            <DistanceMeters>4746.099473301</DistanceMeters>
          </Trackpoint>
          <Trackpoint>
            <Time>2021-08-29T14:44:01.000Z</Time>
            <Position>
              <LatitudeDegrees>-32.98386999405920505523681640625</LatitudeDegrees>
              <LongitudeDegrees>-69.27625796757638454437255859375</LongitudeDegrees>
            </Position>
            <AltitudeMeters>1821.4000244140625</AltitudeMeters>
            <DistanceMeters>4746.099473301</DistanceMeters>
          </Trackpoint>
          <Trackpoint>
            <Time>2021-08-29T14:44:14.000Z</Time>
            <Position>
              <LatitudeDegrees>-32.9838700778782367706298828125</LatitudeDegrees>
              <LongitudeDegrees>-69.27625830285251140594482421875</LongitudeDegrees>
            </Position>
            <AltitudeMeters>1821.4000244140625</AltitudeMeters>
            <DistanceMeters>4746.099473301</DistanceMeters>
          </Trackpoint>
          <Trackpoint>
            <Time>2021-08-29T14:44:16.000Z</Time>
            <Position>
              <LatitudeDegrees>-32.9838700778782367706298828125</LatitudeDegrees>
              <LongitudeDegrees>-69.276258386671543121337890625</LongitudeDegrees>
            </Position>
            <AltitudeMeters>1821.4000244140625</AltitudeMeters>
            <DistanceMeters>4746.099473301</DistanceMeters>
          </Trackpoint>
          <Trackpoint>
            <Time>2021-08-29T14:44:26.000Z</Time>
            <Position>
              <LatitudeDegrees>-32.9838700778782367706298828125</LatitudeDegrees>
              <LongitudeDegrees>-69.276258386671543121337890625</LongitudeDegrees>
            </Position>
            <AltitudeMeters>1821.4000244140625</AltitudeMeters>
            <DistanceMeters>4746.099473301</DistanceMeters>
          </Trackpoint>
          <Trackpoint>
            <Time>2021-08-29T14:44:30.000Z</Time>
            <Position>
              <LatitudeDegrees>-32.9838700778782367706298828125</LatitudeDegrees>
              <LongitudeDegrees>-69.276258386671543121337890625</LongitudeDegrees>
            </Position>
            <AltitudeMeters>1821.4000244140625</AltitudeMeters>
            <DistanceMeters>4746.099473301</DistanceMeters>
          </Trackpoint>
          <Trackpoint>
            <Time>2021-08-29T14:44:34.000Z</Time>
            <Position>
              <LatitudeDegrees>-32.9838700778782367706298828125</LatitudeDegrees>
              <LongitudeDegrees>-69.276258386671543121337890625</LongitudeDegrees>
            </Position>
            <AltitudeMeters>1821.4000244140625</AltitudeMeters>
            <DistanceMeters>4746.099473301</DistanceMeters>
          </Trackpoint>
          <Trackpoint>
            <Time>2021-08-29T14:44:36.000Z</Time>
            <Position>
              <LatitudeDegrees>-32.9838700778782367706298828125</LatitudeDegrees>
              <LongitudeDegrees>-69.276258386671543121337890625</LongitudeDegrees>
            </Position>
            <AltitudeMeters>1821.4000244140625</AltitudeMeters>
            <DistanceMeters>4746.099473301</DistanceMeters>
          </Trackpoint>
          <Trackpoint>
            <Time>2021-08-29T14:44:39.000Z</Time>
            <Position>
              <LatitudeDegrees>-32.98387016169726848602294921875</LatitudeDegrees>
              <LongitudeDegrees>-69.276258386671543121337890625</LongitudeDegrees>
            </Position>
            <AltitudeMeters>1821.4000244140625</AltitudeMeters>
            <DistanceMeters>4746.099473301</DistanceMeters>
          </Trackpoint>
          <Trackpoint>
            <Time>2021-08-29T14:44:50.000Z</Time>
            <Position>
              <LatitudeDegrees>-32.983870245516300201416015625</LatitudeDegrees>
              <LongitudeDegrees>-69.276258386671543121337890625</LongitudeDegrees>
            </Position>
            <AltitudeMeters>1821.4000244140625</AltitudeMeters>
            <DistanceMeters>4746.099473301</DistanceMeters>
          </Trackpoint>
          <Trackpoint>
            <Time>2021-08-29T14:45:04.000Z</Time>
            <Position>
              <LatitudeDegrees>-32.9838704131543636322021484375</LatitudeDegrees>
              <LongitudeDegrees>-69.27625863812863826751708984375</LongitudeDegrees>
            </Position>
            <AltitudeMeters>1821.4000244140625</AltitudeMeters>
            <DistanceMeters>4746.099473301</DistanceMeters>
          </Trackpoint>
          <Trackpoint>
            <Time>2021-08-29T14:45:06.000Z</Time>
            <Position>
              <LatitudeDegrees>-32.9838704131543636322021484375</LatitudeDegrees>
              <LongitudeDegrees>-69.27625863812863826751708984375</LongitudeDegrees>
            </Position>
            <AltitudeMeters>1821.4000244140625</AltitudeMeters>
            <DistanceMeters>4746.099473301</DistanceMeters>
          </Trackpoint>
          <Trackpoint>
            <Time>2021-08-29T14:45:22.000Z</Time>
            <Position>
              <LatitudeDegrees>-32.98387058079242706298828125</LatitudeDegrees>
              <LongitudeDegrees>-69.2762588895857334136962890625</LongitudeDegrees>
            </Position>
            <AltitudeMeters>1821.4000244140625</AltitudeMeters>
            <DistanceMeters>4746.099473301</DistanceMeters>
          </Trackpoint>
          <Trackpoint>
            <Time>2021-08-29T14:45:40.000Z</Time>
            <Position>
              <LatitudeDegrees>-32.9838710837066173553466796875</LatitudeDegrees>
              <LongitudeDegrees>-69.2762588895857334136962890625</LongitudeDegrees>
            </Position>
            <AltitudeMeters>1821.4000244140625</AltitudeMeters>
            <DistanceMeters>4746.099473301</DistanceMeters>
          </Trackpoint>
          <Trackpoint>
            <Time>2021-08-29T14:45:58.000Z</Time>
            <Position>
              <LatitudeDegrees>-32.9838717542588710784912109375</LatitudeDegrees>
              <LongitudeDegrees>-69.27625880576670169830322265625</LongitudeDegrees>
            </Position>
            <AltitudeMeters>1821.4000244140625</AltitudeMeters>
            <DistanceMeters>4746.099473301</DistanceMeters>
          </Trackpoint>
          <Trackpoint>
            <Time>2021-08-29T14:46:11.000Z</Time>
            <Position>
              <LatitudeDegrees>-32.98387234099209308624267578125</LatitudeDegrees>
              <LongitudeDegrees>-69.2762588895857334136962890625</LongitudeDegrees>
            </Position>
            <AltitudeMeters>1821.4000244140625</AltitudeMeters>
            <DistanceMeters>4746.099473301</DistanceMeters>
          </Trackpoint>
          <Trackpoint>
            <Time>2021-08-29T14:46:22.000Z</Time>
            <Position>
              <LatitudeDegrees>-32.9838727600872516632080078125</LatitudeDegrees>
              <LongitudeDegrees>-69.276259057223796844482421875</LongitudeDegrees>
            </Position>
            <AltitudeMeters>1821.4000244140625</AltitudeMeters>
            <DistanceMeters>4746.099473301</DistanceMeters>
          </Trackpoint>
          <Trackpoint>
            <Time>2021-08-29T14:46:26.000Z</Time>
            <Position>
              <LatitudeDegrees>-32.983872927725315093994140625</LatitudeDegrees>
              <LongitudeDegrees>-69.276259057223796844482421875</LongitudeDegrees>
            </Position>
            <AltitudeMeters>1821.4000244140625</AltitudeMeters>
            <DistanceMeters>4746.099473301</DistanceMeters>
          </Trackpoint>
          <Trackpoint>
            <Time>2021-08-29T14:46:29.000Z</Time>
            <Position>
              <LatitudeDegrees>-32.98387301154434680938720703125</LatitudeDegrees>
              <LongitudeDegrees>-69.27625914104282855987548828125</LongitudeDegrees>
            </Position>
            <AltitudeMeters>1821.4000244140625</AltitudeMeters>
            <DistanceMeters>4746.099473301</DistanceMeters>
          </Trackpoint>
          <Trackpoint>
            <Time>2021-08-29T14:46:38.000Z</Time>
            <Position>
              <LatitudeDegrees>-32.9838730953633785247802734375</LatitudeDegrees>
              <LongitudeDegrees>-69.27625914104282855987548828125</LongitudeDegrees>
            </Position>
            <AltitudeMeters>1821.4000244140625</AltitudeMeters>
            <DistanceMeters>4746.099473301</DistanceMeters>
          </Trackpoint>
          <Trackpoint>
            <Time>2021-08-29T14:46:42.000Z</Time>
            <Position>
              <LatitudeDegrees>-32.9838730953633785247802734375</LatitudeDegrees>
              <LongitudeDegrees>-69.27625914104282855987548828125</LongitudeDegrees>
            </Position>
            <AltitudeMeters>1821.4000244140625</AltitudeMeters>
            <DistanceMeters>4746.1945000154</DistanceMeters>
          </Trackpoint>
          <Trackpoint>
            <Time>2021-08-29T14:47:08.000Z</Time>
            <Position>
              <LatitudeDegrees>-32.98387317918241024017333984375</LatitudeDegrees>
              <LongitudeDegrees>-69.2762592248618602752685546875</LongitudeDegrees>
            </Position>
            <AltitudeMeters>1821.4000244140625</AltitudeMeters>
            <DistanceMeters>4746.1945000154</DistanceMeters>
          </Trackpoint>
          <Trackpoint>
            <Time>2021-08-29T14:47:19.000Z</Time>
            <Position>
              <LatitudeDegrees>-32.98387326300144195556640625</LatitudeDegrees>
              <LongitudeDegrees>-69.27625930868089199066162109375</LongitudeDegrees>
            </Position>
            <AltitudeMeters>1821.4000244140625</AltitudeMeters>
            <DistanceMeters>4746.1945000154</DistanceMeters>
          </Trackpoint>
          <Trackpoint>
            <Time>2021-08-29T14:47:24.000Z</Time>
            <Position>
              <LatitudeDegrees>-32.98387334682047367095947265625</LatitudeDegrees>
              <LongitudeDegrees>-69.2762593924999237060546875</LongitudeDegrees>
            </Position>
            <AltitudeMeters>1821.4000244140625</AltitudeMeters>
            <DistanceMeters>4746.1945000154</DistanceMeters>
          </Trackpoint>
          <Trackpoint>
            <Time>2021-08-29T14:47:32.000Z</Time>
            <Position>
              <LatitudeDegrees>-32.98387334682047367095947265625</LatitudeDegrees>
              <LongitudeDegrees>-69.27625930868089199066162109375</LongitudeDegrees>
            </Position>
            <AltitudeMeters>1821.4000244140625</AltitudeMeters>
            <DistanceMeters>4746.2895267298</DistanceMeters>
          </Trackpoint>
          <Trackpoint>
            <Time>2021-08-29T14:47:34.000Z</Time>
            <Position>
              <LatitudeDegrees>-32.9838734306395053863525390625</LatitudeDegrees>
              <LongitudeDegrees>-69.27625930868089199066162109375</LongitudeDegrees>
            </Position>
            <AltitudeMeters>1821.4000244140625</AltitudeMeters>
            <DistanceMeters>4746.2895267298</DistanceMeters>
          </Trackpoint>
          <Trackpoint>
            <Time>2021-08-29T14:47:36.000Z</Time>
            <Position>
              <LatitudeDegrees>-32.9838734306395053863525390625</LatitudeDegrees>
              <LongitudeDegrees>-69.27625930868089199066162109375</LongitudeDegrees>
            </Position>
            <AltitudeMeters>1821.4000244140625</AltitudeMeters>
            <DistanceMeters>4746.2895267298</DistanceMeters>
          </Trackpoint>
          <Trackpoint>
            <Time>2021-08-29T14:47:38.000Z</Time>
            <Position>
              <LatitudeDegrees>-32.9838734306395053863525390625</LatitudeDegrees>
              <LongitudeDegrees>-69.2762592248618602752685546875</LongitudeDegrees>
            </Position>
            <AltitudeMeters>1821.4000244140625</AltitudeMeters>
            <DistanceMeters>4746.2895267298</DistanceMeters>
          </Trackpoint>
          <Trackpoint>
            <Time>2021-08-29T14:47:54.000Z</Time>
            <Position>
              <LatitudeDegrees>-32.98387351445853710174560546875</LatitudeDegrees>
              <LongitudeDegrees>-69.276259057223796844482421875</LongitudeDegrees>
            </Position>
            <AltitudeMeters>1821.4000244140625</AltitudeMeters>
            <DistanceMeters>4746.2895267298</DistanceMeters>
          </Trackpoint>
          <Trackpoint>
            <Time>2021-08-29T14:48:07.000Z</Time>
            <Position>
              <LatitudeDegrees>-32.983873598277568817138671875</LatitudeDegrees>
              <LongitudeDegrees>-69.2762588895857334136962890625</LongitudeDegrees>
            </Position>
            <AltitudeMeters>1821.4000244140625</AltitudeMeters>
            <DistanceMeters>4746.2895267298</DistanceMeters>
          </Trackpoint>
          <Trackpoint>
            <Time>2021-08-29T14:48:10.000Z</Time>
            <Position>
              <LatitudeDegrees>-32.983873598277568817138671875</LatitudeDegrees>
              <LongitudeDegrees>-69.2762588895857334136962890625</LongitudeDegrees>
            </Position>
            <AltitudeMeters>1821.4000244140625</AltitudeMeters>
            <DistanceMeters>4746.2895267298</DistanceMeters>
          </Trackpoint>
          <Trackpoint>
            <Time>2021-08-29T14:48:18.000Z</Time>
            <Position>
              <LatitudeDegrees>-32.98387368209660053253173828125</LatitudeDegrees>
              <LongitudeDegrees>-69.2762588895857334136962890625</LongitudeDegrees>
            </Position>
            <AltitudeMeters>1821.4000244140625</AltitudeMeters>
            <DistanceMeters>4746.2895267298</DistanceMeters>
          </Trackpoint>
          <Trackpoint>
            <Time>2021-08-29T14:48:25.000Z</Time>
            <Position>
              <LatitudeDegrees>-32.98387368209660053253173828125</LatitudeDegrees>
              <LongitudeDegrees>-69.2762588895857334136962890625</LongitudeDegrees>
            </Position>
            <AltitudeMeters>1821.4000244140625</AltitudeMeters>
            <DistanceMeters>4746.2895267298</DistanceMeters>
          </Trackpoint>
          <Trackpoint>
            <Time>2021-08-29T14:48:42.000Z</Time>
            <Position>
              <LatitudeDegrees>-32.98387401737272739410400390625</LatitudeDegrees>
              <LongitudeDegrees>-69.276259057223796844482421875</LongitudeDegrees>
            </Position>
            <AltitudeMeters>1821.4000244140625</AltitudeMeters>
            <DistanceMeters>4746.2895267298</DistanceMeters>
          </Trackpoint>
          <Trackpoint>
            <Time>2021-08-29T14:49:25.000Z</Time>
            <Position>
              <LatitudeDegrees>-32.9838747717440128326416015625</LatitudeDegrees>
              <LongitudeDegrees>-69.27625914104282855987548828125</LongitudeDegrees>
            </Position>
            <AltitudeMeters>1821.4000244140625</AltitudeMeters>
            <DistanceMeters>4746.2895267298</DistanceMeters>
          </Trackpoint>
          <Trackpoint>
            <Time>2021-08-29T14:49:35.000Z</Time>
            <Position>
              <LatitudeDegrees>-32.98386261798441410064697265625</LatitudeDegrees>
              <LongitudeDegrees>-69.27627188153564929962158203125</LongitudeDegrees>
            </Position>
            <AltitudeMeters>1821.4000244140625</AltitudeMeters>
            <DistanceMeters>4748.0925318656</DistanceMeters>
          </Trackpoint>
          <Trackpoint>
            <Time>2021-08-29T14:49:41.000Z</Time>
            <Position>
              <LatitudeDegrees>-32.9838476143777370452880859375</LatitudeDegrees>
              <LongitudeDegrees>-69.27629434503614902496337890625</LongitudeDegrees>
            </Position>
            <AltitudeMeters>1821.4000244140625</AltitudeMeters>
            <DistanceMeters>4750.7718808113</DistanceMeters>
          </Trackpoint>
          <Trackpoint>
            <Time>2021-08-29T14:49:50.000Z</Time>
            <Position>
              <LatitudeDegrees>-32.98384199850261211395263671875</LatitudeDegrees>
              <LongitudeDegrees>-69.27629987709224224090576171875</LongitudeDegrees>
            </Position>
            <AltitudeMeters>1821.199951171875</AltitudeMeters>
            <DistanceMeters>4751.5837894148</DistanceMeters>
          </Trackpoint>
          <Trackpoint>
            <Time>2021-08-29T14:50:03.000Z</Time>
            <Position>
              <LatitudeDegrees>-32.9838392324745655059814453125</LatitudeDegrees>
              <LongitudeDegrees>-69.276299290359020233154296875</LongitudeDegrees>
            </Position>
            <AltitudeMeters>1821.199951171875</AltitudeMeters>
            <DistanceMeters>4751.8842902708</DistanceMeters>
          </Trackpoint>
          <Trackpoint>
            <Time>2021-08-29T14:50:33.000Z</Time>
            <Position>
              <LatitudeDegrees>-32.98382875509560108184814453125</LatitudeDegrees>
              <LongitudeDegrees>-69.27627615630626678466796875</LongitudeDegrees>
            </Position>
            <AltitudeMeters>1821.199951171875</AltitudeMeters>
            <DistanceMeters>4754.336642389</DistanceMeters>
          </Trackpoint>
          <Trackpoint>
            <Time>2021-08-29T14:50:37.000Z</Time>
            <Position>
              <LatitudeDegrees>-32.98382272012531757354736328125</LatitudeDegrees>
              <LongitudeDegrees>-69.27627640776336193084716796875</LongitudeDegrees>
            </Position>
            <AltitudeMeters>1821.199951171875</AltitudeMeters>
            <DistanceMeters>4755.0085827302</DistanceMeters>
          </Trackpoint>
          <Trackpoint>
            <Time>2021-08-29T14:50:38.000Z</Time>
            <Position>
              <LatitudeDegrees>-32.98382221721112728118896484375</LatitudeDegrees>
              <LongitudeDegrees>-69.27627640776336193084716796875</LongitudeDegrees>
            </Position>
            <AltitudeMeters>1821.199951171875</AltitudeMeters>
            <DistanceMeters>4755.0085827302</DistanceMeters>
          </Trackpoint>
          <Trackpoint>
            <Time>2021-08-29T14:50:39.000Z</Time>
            <Position>
              <LatitudeDegrees>-32.98382121138274669647216796875</LatitudeDegrees>
              <LongitudeDegrees>-69.276277832686901092529296875</LongitudeDegrees>
            </Position>
            <AltitudeMeters>1821.199951171875</AltitudeMeters>
            <DistanceMeters>4755.198636159</DistanceMeters>
          </Trackpoint>
          <Trackpoint>
            <Time>2021-08-29T14:50:41.000Z</Time>
            <Position>
              <LatitudeDegrees>-32.98382087610661983489990234375</LatitudeDegrees>
              <LongitudeDegrees>-69.27627841942012310028076171875</LongitudeDegrees>
            </Position>
            <AltitudeMeters>1821.199951171875</AltitudeMeters>
            <DistanceMeters>4755.2936628733</DistanceMeters>
          </Trackpoint>
          <Trackpoint>
            <Time>2021-08-29T14:50:47.000Z</Time>
            <Position>
              <LatitudeDegrees>-32.9838207922875881195068359375</LatitudeDegrees>
              <LongitudeDegrees>-69.276278503239154815673828125</LongitudeDegrees>
            </Position>
            <AltitudeMeters>1821.199951171875</AltitudeMeters>
            <DistanceMeters>4755.2936628733</DistanceMeters>
          </Trackpoint>
          <Trackpoint>
            <Time>2021-08-29T14:50:49.000Z</Time>
            <Position>
              <LatitudeDegrees>-32.9838207922875881195068359375</LatitudeDegrees>
              <LongitudeDegrees>-69.276278503239154815673828125</LongitudeDegrees>
            </Position>
            <AltitudeMeters>1821.199951171875</AltitudeMeters>
            <DistanceMeters>4755.2936628733</DistanceMeters>
          </Trackpoint>
          <Trackpoint>
            <Time>2021-08-29T14:50:53.000Z</Time>
            <Position>
              <LatitudeDegrees>-32.98382137902081012725830078125</LatitudeDegrees>
              <LongitudeDegrees>-69.2762776650488376617431640625</LongitudeDegrees>
            </Position>
            <AltitudeMeters>1821.199951171875</AltitudeMeters>
            <DistanceMeters>4755.3886895877</DistanceMeters>
          </Trackpoint>
          <Trackpoint>
            <Time>2021-08-29T14:51:10.000Z</Time>
            <Position>
              <LatitudeDegrees>-32.98382632434368133544921875</LatitudeDegrees>
              <LongitudeDegrees>-69.27626810967922210693359375</LongitudeDegrees>
            </Position>
            <AltitudeMeters>1821.199951171875</AltitudeMeters>
            <DistanceMeters>4756.4339834458</DistanceMeters>
          </Trackpoint>
          <Trackpoint>
            <Time>2021-08-29T14:51:14.000Z</Time>
            <Position>
              <LatitudeDegrees>-32.983826659619808197021484375</LatitudeDegrees>
              <LongitudeDegrees>-69.27626819349825382232666015625</LongitudeDegrees>
            </Position>
            <AltitudeMeters>1821.199951171875</AltitudeMeters>
            <DistanceMeters>4756.4339834458</DistanceMeters>
          </Trackpoint>
          <Trackpoint>
            <Time>2021-08-29T14:51:20.000Z</Time>
            <Position>
              <LatitudeDegrees>-32.9838378913700580596923828125</LatitudeDegrees>
              <LongitudeDegrees>-69.27626802586019039154052734375</LongitudeDegrees>
            </Position>
            <AltitudeMeters>1821.199951171875</AltitudeMeters>
            <DistanceMeters>4757.6838647301</DistanceMeters>
          </Trackpoint>
          <Trackpoint>
            <Time>2021-08-29T14:51:23.000Z</Time>
            <Position>
              <LatitudeDegrees>-32.98384132795035839080810546875</LatitudeDegrees>
              <LongitudeDegrees>-69.2762676067650318145751953125</LongitudeDegrees>
            </Position>
            <AltitudeMeters>1821.199951171875</AltitudeMeters>
            <DistanceMeters>4758.0639715875</DistanceMeters>
          </Trackpoint>
          <Trackpoint>
            <Time>2021-08-29T14:51:45.000Z</Time>
            <Position>
              <LatitudeDegrees>-32.983846776187419891357421875</LatitudeDegrees>
              <LongitudeDegrees>-69.276267774403095245361328125</LongitudeDegrees>
            </Position>
            <AltitudeMeters>1821.199951171875</AltitudeMeters>
            <DistanceMeters>4758.6724394455</DistanceMeters>
          </Trackpoint>
          <Trackpoint>
            <Time>2021-08-29T14:52:00.000Z</Time>
            <Position>
              <LatitudeDegrees>-32.983846776187419891357421875</LatitudeDegrees>
              <LongitudeDegrees>-69.276265762746334075927734375</LongitudeDegrees>
            </Position>
            <AltitudeMeters>1821.199951171875</AltitudeMeters>
            <DistanceMeters>4758.8624928743</DistanceMeters>
          </Trackpoint>
          <Trackpoint>
            <Time>2021-08-29T14:52:07.000Z</Time>
            <Position>
              <LatitudeDegrees>-32.9838471114635467529296875</LatitudeDegrees>
              <LongitudeDegrees>-69.27626450546085834503173828125</LongitudeDegrees>
            </Position>
            <AltitudeMeters>1821.199951171875</AltitudeMeters>
            <DistanceMeters>4758.9575195886</DistanceMeters>
          </Trackpoint>
          <Trackpoint>
            <Time>2021-08-29T14:52:20.000Z</Time>
            <Position>
              <LatitudeDegrees>-32.98385918140411376953125</LatitudeDegrees>
              <LongitudeDegrees>-69.2762655951082706451416015625</LongitudeDegrees>
            </Position>
            <AltitudeMeters>1821.4000244140625</AltitudeMeters>
            <DistanceMeters>4760.3014002711</DistanceMeters>
          </Trackpoint>
          <Trackpoint>
            <Time>2021-08-29T14:52:24.000Z</Time>
            <Position>
              <LatitudeDegrees>-32.98386119306087493896484375</LatitudeDegrees>
              <LongitudeDegrees>-69.2762659303843975067138671875</LongitudeDegrees>
            </Position>
            <AltitudeMeters>1821.4000244140625</AltitudeMeters>
            <DistanceMeters>4760.5341672333</DistanceMeters>
          </Trackpoint>
          <Trackpoint>
            <Time>2021-08-29T14:52:28.000Z</Time>
            <Position>
              <LatitudeDegrees>-32.983861863613128662109375</LatitudeDegrees>
              <LongitudeDegrees>-69.2762662656605243682861328125</LongitudeDegrees>
            </Position>
            <AltitudeMeters>1821.4000244140625</AltitudeMeters>
            <DistanceMeters>4760.6685553015</DistanceMeters>
          </Trackpoint>
          <Trackpoint>
            <Time>2021-08-29T14:52:39.000Z</Time>
            <Position>
              <LatitudeDegrees>-32.9838616959750652313232421875</LatitudeDegrees>
              <LongitudeDegrees>-69.27626735530793666839599609375</LongitudeDegrees>
            </Position>
            <AltitudeMeters>1821.4000244140625</AltitudeMeters>
            <DistanceMeters>4760.6685553015</DistanceMeters>
          </Trackpoint>
          <Trackpoint>
            <Time>2021-08-29T14:52:52.000Z</Time>
            <Position>
              <LatitudeDegrees>-32.98385993577539920806884765625</LatitudeDegrees>
              <LongitudeDegrees>-69.27626819349825382232666015625</LongitudeDegrees>
            </Position>
            <AltitudeMeters>1821.4000244140625</AltitudeMeters>
            <DistanceMeters>4760.8586087303</DistanceMeters>
          </Trackpoint>
          <Trackpoint>
            <Time>2021-08-29T14:52:54.000Z</Time>
            <Position>
              <LatitudeDegrees>-32.9838596843183040618896484375</LatitudeDegrees>
              <LongitudeDegrees>-69.2762682773172855377197265625</LongitudeDegrees>
            </Position>
            <AltitudeMeters>1821.4000244140625</AltitudeMeters>
            <DistanceMeters>4760.8586087303</DistanceMeters>
          </Trackpoint>
          <Trackpoint>
            <Time>2021-08-29T14:53:12.000Z</Time>
            <Position>
              <LatitudeDegrees>-32.98385892994701862335205078125</LatitudeDegrees>
              <LongitudeDegrees>-69.27626819349825382232666015625</LongitudeDegrees>
            </Position>
            <AltitudeMeters>1821.4000244140625</AltitudeMeters>
            <DistanceMeters>4760.9536354446</DistanceMeters>
          </Trackpoint>
          <Trackpoint>
            <Time>2021-08-29T14:53:14.000Z</Time>
            <Position>
              <LatitudeDegrees>-32.983858846127986907958984375</LatitudeDegrees>
              <LongitudeDegrees>-69.27626810967922210693359375</LongitudeDegrees>
            </Position>
            <AltitudeMeters>1821.4000244140625</AltitudeMeters>
            <DistanceMeters>4760.9536354446</DistanceMeters>
          </Trackpoint>
          <Trackpoint>
            <Time>2021-08-29T14:53:17.000Z</Time>
            <Position>
              <LatitudeDegrees>-32.983858846127986907958984375</LatitudeDegrees>
              <LongitudeDegrees>-69.27626810967922210693359375</LongitudeDegrees>
            </Position>
            <AltitudeMeters>1821.4000244140625</AltitudeMeters>
            <DistanceMeters>4760.9536354446</DistanceMeters>
          </Trackpoint>
          <Trackpoint>
            <Time>2021-08-29T14:53:19.000Z</Time>
            <Position>
              <LatitudeDegrees>-32.983858846127986907958984375</LatitudeDegrees>
              <LongitudeDegrees>-69.27626810967922210693359375</LongitudeDegrees>
            </Position>
            <AltitudeMeters>1821.4000244140625</AltitudeMeters>
            <DistanceMeters>4760.9536354446</DistanceMeters>
          </Trackpoint>
          <Trackpoint>
            <Time>2021-08-29T14:53:25.000Z</Time>
            <Position>
              <LatitudeDegrees>-32.98385876230895519256591796875</LatitudeDegrees>
              <LongitudeDegrees>-69.27626810967922210693359375</LongitudeDegrees>
            </Position>
            <AltitudeMeters>1821.4000244140625</AltitudeMeters>
            <DistanceMeters>4760.9536354446</DistanceMeters>
          </Trackpoint>
          <Trackpoint>
            <Time>2021-08-29T14:53:29.000Z</Time>
            <Position>
              <LatitudeDegrees>-32.98385876230895519256591796875</LatitudeDegrees>
              <LongitudeDegrees>-69.27626810967922210693359375</LongitudeDegrees>
            </Position>
            <AltitudeMeters>1821.4000244140625</AltitudeMeters>
            <DistanceMeters>4760.9536354446</DistanceMeters>
          </Trackpoint>
          <Trackpoint>
            <Time>2021-08-29T14:53:33.000Z</Time>
            <Position>
              <LatitudeDegrees>-32.98385876230895519256591796875</LatitudeDegrees>
              <LongitudeDegrees>-69.27626810967922210693359375</LongitudeDegrees>
            </Position>
            <AltitudeMeters>1821.4000244140625</AltitudeMeters>
            <DistanceMeters>4760.9536354446</DistanceMeters>
          </Trackpoint>
          <Trackpoint>
            <Time>2021-08-29T14:53:34.000Z</Time>
            <Position>
              <LatitudeDegrees>-32.98385876230895519256591796875</LatitudeDegrees>
              <LongitudeDegrees>-69.27626810967922210693359375</LongitudeDegrees>
            </Position>
            <AltitudeMeters>1821.4000244140625</AltitudeMeters>
            <DistanceMeters>4760.9536354446</DistanceMeters>
          </Trackpoint>
          <Trackpoint>
            <Time>2021-08-29T14:54:11.000Z</Time>
            <Position>
              <LatitudeDegrees>-32.98385859467089176177978515625</LatitudeDegrees>
              <LongitudeDegrees>-69.27626852877438068389892578125</LongitudeDegrees>
            </Position>
            <AltitudeMeters>1821.4000244140625</AltitudeMeters>
            <DistanceMeters>4760.9536354446</DistanceMeters>
          </Trackpoint>
          <Trackpoint>
            <Time>2021-08-29T14:54:26.000Z</Time>
            <Position>
              <LatitudeDegrees>-32.98385809175670146942138671875</LatitudeDegrees>
              <LongitudeDegrees>-69.27626869641244411468505859375</LongitudeDegrees>
            </Position>
            <AltitudeMeters>1821.4000244140625</AltitudeMeters>
            <DistanceMeters>4760.9536354446</DistanceMeters>
          </Trackpoint>
          <Trackpoint>
            <Time>2021-08-29T14:54:34.000Z</Time>
            <Position>
              <LatitudeDegrees>-32.98385775648057460784912109375</LatitudeDegrees>
              <LongitudeDegrees>-69.276268780231475830078125</LongitudeDegrees>
            </Position>
            <AltitudeMeters>1821.4000244140625</AltitudeMeters>
            <DistanceMeters>4760.9536354446</DistanceMeters>
          </Trackpoint>
          <Trackpoint>
            <Time>2021-08-29T14:54:39.000Z</Time>
            <Position>
              <LatitudeDegrees>-32.98385758884251117706298828125</LatitudeDegrees>
              <LongitudeDegrees>-69.27626886405050754547119140625</LongitudeDegrees>
            </Position>
            <AltitudeMeters>1821.4000244140625</AltitudeMeters>
            <DistanceMeters>4760.9536354446</DistanceMeters>
          </Trackpoint>
          <Trackpoint>
            <Time>2021-08-29T14:54:42.000Z</Time>
            <Position>
              <LatitudeDegrees>-32.983857505023479461669921875</LatitudeDegrees>
              <LongitudeDegrees>-69.2762689478695392608642578125</LongitudeDegrees>
            </Position>
            <AltitudeMeters>1821.4000244140625</AltitudeMeters>
            <DistanceMeters>4760.9536354446</DistanceMeters>
          </Trackpoint>
          <Trackpoint>
            <Time>2021-08-29T14:54:46.000Z</Time>
            <Position>
              <LatitudeDegrees>-32.9838573373854160308837890625</LatitudeDegrees>
              <LongitudeDegrees>-69.27626903168857097625732421875</LongitudeDegrees>
            </Position>
            <AltitudeMeters>1821.4000244140625</AltitudeMeters>
            <DistanceMeters>4760.9536354446</DistanceMeters>
          </Trackpoint>
          <Trackpoint>
            <Time>2021-08-29T14:55:01.000Z</Time>
            <Position>
              <LatitudeDegrees>-32.983856834471225738525390625</LatitudeDegrees>
              <LongitudeDegrees>-69.2762696184217929840087890625</LongitudeDegrees>
            </Position>
            <AltitudeMeters>1821.4000244140625</AltitudeMeters>
            <DistanceMeters>4760.9536354446</DistanceMeters>
          </Trackpoint>
          <Trackpoint>
            <Time>2021-08-29T14:55:06.000Z</Time>
            <Position>
              <LatitudeDegrees>-32.98385658301413059234619140625</LatitudeDegrees>
              <LongitudeDegrees>-69.276269786059856414794921875</LongitudeDegrees>
            </Position>
            <AltitudeMeters>1821.4000244140625</AltitudeMeters>
            <DistanceMeters>4760.9536354446</DistanceMeters>
          </Trackpoint>
          <Trackpoint>
            <Time>2021-08-29T14:55:24.000Z</Time>
            <Position>
              <LatitudeDegrees>-32.9838645458221435546875</LatitudeDegrees>
              <LongitudeDegrees>-69.27636140026152133941650390625</LongitudeDegrees>
            </Position>
            <AltitudeMeters>1821.5999755859375</AltitudeMeters>
            <DistanceMeters>4769.5534218417</DistanceMeters>
          </Trackpoint>
          <Trackpoint>
            <Time>2021-08-29T14:55:25.000Z</Time>
            <Position>
              <LatitudeDegrees>-32.9838660545647144317626953125</LatitudeDegrees>
              <LongitudeDegrees>-69.27637916989624500274658203125</LongitudeDegrees>
            </Position>
            <AltitudeMeters>1821.5999755859375</AltitudeMeters>
            <DistanceMeters>4771.2211339106</DistanceMeters>
          </Trackpoint>
          <Trackpoint>
            <Time>2021-08-29T14:55:27.000Z</Time>
            <Position>
              <LatitudeDegrees>-32.98386731185019016265869140625</LatitudeDegrees>
              <LongitudeDegrees>-69.27641370333731174468994140625</LongitudeDegrees>
            </Position>
            <AltitudeMeters>1821.5999755859375</AltitudeMeters>
            <DistanceMeters>4774.4478471207</DistanceMeters>
          </Trackpoint>
          <Trackpoint>
            <Time>2021-08-29T14:55:30.000Z</Time>
            <Position>
              <LatitudeDegrees>-32.983874939382076263427734375</LatitudeDegrees>
              <LongitudeDegrees>-69.276458211243152618408203125</LongitudeDegrees>
            </Position>
            <AltitudeMeters>1821.800048828125</AltitudeMeters>
            <DistanceMeters>4778.6890630167</DistanceMeters>
          </Trackpoint>
          <Trackpoint>
            <Time>2021-08-29T14:55:35.000Z</Time>
            <Position>
              <LatitudeDegrees>-32.9838848300278186798095703125</LatitudeDegrees>
              <LongitudeDegrees>-69.276529289782047271728515625</LongitudeDegrees>
            </Position>
            <AltitudeMeters>1821.800048828125</AltitudeMeters>
            <DistanceMeters>4785.4165248811</DistanceMeters>
          </Trackpoint>
          <Trackpoint>
            <Time>2021-08-29T14:55:38.000Z</Time>
            <Position>
              <LatitudeDegrees>-32.98388759605586528778076171875</LatitudeDegrees>
              <LongitudeDegrees>-69.27657513879239559173583984375</LongitudeDegrees>
            </Position>
            <AltitudeMeters>1822</AltitudeMeters>
            <DistanceMeters>4789.7085355923</DistanceMeters>
          </Trackpoint>
          <Trackpoint>
            <Time>2021-08-29T14:55:41.000Z</Time>
            <Position>
              <LatitudeDegrees>-32.983883656561374664306640625</LatitudeDegrees>
              <LongitudeDegrees>-69.27661805413663387298583984375</LongitudeDegrees>
            </Position>
            <AltitudeMeters>1822</AltitudeMeters>
            <DistanceMeters>4793.7401776398</DistanceMeters>
          </Trackpoint>
          <Trackpoint>
            <Time>2021-08-29T14:55:47.000Z</Time>
            <Position>
              <LatitudeDegrees>-32.98388667404651641845703125</LatitudeDegrees>
              <LongitudeDegrees>-69.27669030614197254180908203125</LongitudeDegrees>
            </Position>
            <AltitudeMeters>1822.5999755859375</AltitudeMeters>
            <DistanceMeters>4800.4944315731</DistanceMeters>
          </Trackpoint>
          <Trackpoint>
            <Time>2021-08-29T14:55:53.000Z</Time>
            <Position>
              <LatitudeDegrees>-32.98389648087322711944580078125</LatitudeDegrees>
              <LongitudeDegrees>-69.2767073214054107666015625</LongitudeDegrees>
            </Position>
            <AltitudeMeters>1822.800048828125</AltitudeMeters>
            <DistanceMeters>4802.4209209757</DistanceMeters>
          </Trackpoint>
          <Trackpoint>
            <Time>2021-08-29T14:55:56.000Z</Time>
            <Position>
              <LatitudeDegrees>-32.98389472067356109619140625</LatitudeDegrees>
              <LongitudeDegrees>-69.2767126858234405517578125</LongitudeDegrees>
            </Position>
            <AltitudeMeters>1822.800048828125</AltitudeMeters>
            <DistanceMeters>4802.9584732487</DistanceMeters>
          </Trackpoint>
          <Trackpoint>
            <Time>2021-08-29T14:56:00.000Z</Time>
            <Position>
              <LatitudeDegrees>-32.9838925413787364959716796875</LatitudeDegrees>
              <LongitudeDegrees>-69.2767234146595001220703125</LongitudeDegrees>
            </Position>
            <AltitudeMeters>1822.800048828125</AltitudeMeters>
            <DistanceMeters>4803.9907275877</DistanceMeters>
          </Trackpoint>
          <Trackpoint>
            <Time>2021-08-29T14:56:03.000Z</Time>
            <Position>
              <LatitudeDegrees>-32.983894385397434234619140625</LatitudeDegrees>
              <LongitudeDegrees>-69.2767279408872127532958984375</LongitudeDegrees>
            </Position>
            <AltitudeMeters>1822.800048828125</AltitudeMeters>
            <DistanceMeters>4804.4658611596</DistanceMeters>
          </Trackpoint>
          <Trackpoint>
            <Time>2021-08-29T14:56:07.000Z</Time>
            <Position>
              <LatitudeDegrees>-32.9839451797306537628173828125</LatitudeDegrees>
              <LongitudeDegrees>-69.2768677510321140289306640625</LongitudeDegrees>
            </Position>
            <AltitudeMeters>1824</AltitudeMeters>
            <DistanceMeters>4818.6906969392</DistanceMeters>
          </Trackpoint>
          <Trackpoint>
            <Time>2021-08-29T14:56:08.000Z</Time>
            <Position>
              <LatitudeDegrees>-32.98396068625152111053466796875</LatitudeDegrees>
              <LongitudeDegrees>-69.2769022844731807708740234375</LongitudeDegrees>
            </Position>
            <AltitudeMeters>1824.199951171875</AltitudeMeters>
            <DistanceMeters>4822.3476824756</DistanceMeters>
          </Trackpoint>
          <Trackpoint>
            <Time>2021-08-29T14:56:10.000Z</Time>
            <Position>
              <LatitudeDegrees>-32.9839904420077800750732421875</LatitudeDegrees>
              <LongitudeDegrees>-69.27696355618536472320556640625</LongitudeDegrees>
            </Position>
            <AltitudeMeters>1824.5999755859375</AltitudeMeters>
            <DistanceMeters>4828.9587013069</DistanceMeters>
          </Trackpoint>
          <Trackpoint>
            <Time>2021-08-29T14:56:13.000Z</Time>
            <Position>
              <LatitudeDegrees>-32.98400477506220340728759765625</LatitudeDegrees>
              <LongitudeDegrees>-69.277023486793041229248046875</LongitudeDegrees>
            </Position>
            <AltitudeMeters>1824.800048828125</AltitudeMeters>
            <DistanceMeters>4834.7770994188</DistanceMeters>
          </Trackpoint>
          <Trackpoint>
            <Time>2021-08-29T14:56:19.000Z</Time>
            <Position>
              <LatitudeDegrees>-32.98398767597973346710205078125</LatitudeDegrees>
              <LongitudeDegrees>-69.2772093974053859710693359375</LongitudeDegrees>
            </Position>
            <AltitudeMeters>1825</AltitudeMeters>
            <DistanceMeters>4852.2382420233</DistanceMeters>
          </Trackpoint>
          <Trackpoint>
            <Time>2021-08-29T14:56:22.000Z</Time>
            <Position>
              <LatitudeDegrees>-32.98396848142147064208984375</LatitudeDegrees>
              <LongitudeDegrees>-69.27729950286448001861572265625</LongitudeDegrees>
            </Position>
            <AltitudeMeters>1825</AltitudeMeters>
            <DistanceMeters>4860.9174642059</DistanceMeters>
          </Trackpoint>
          <Trackpoint>
            <Time>2021-08-29T14:56:24.000Z</Time>
            <Position>
              <LatitudeDegrees>-32.98395498655736446380615234375</LatitudeDegrees>
              <LongitudeDegrees>-69.2773441784083843231201171875</LongitudeDegrees>
            </Position>
            <AltitudeMeters>1825.199951171875</AltitudeMeters>
            <DistanceMeters>4865.3502338077</DistanceMeters>
          </Trackpoint>
          <Trackpoint>
            <Time>2021-08-29T14:56:32.000Z</Time>
            <Position>
              <LatitudeDegrees>-32.98388340510427951812744140625</LatitudeDegrees>
              <LongitudeDegrees>-69.2775146663188934326171875</LongitudeDegrees>
            </Position>
            <AltitudeMeters>1824.800048828125</AltitudeMeters>
            <DistanceMeters>4883.1499321791</DistanceMeters>
          </Trackpoint>
          <Trackpoint>
            <Time>2021-08-29T14:56:39.000Z</Time>
            <Position>
              <LatitudeDegrees>-32.9837751947343349456787109375</LatitudeDegrees>
              <LongitudeDegrees>-69.27775195799767971038818359375</LongitudeDegrees>
            </Position>
            <AltitudeMeters>1823.4000244140625</AltitudeMeters>
            <DistanceMeters>4908.3664127613</DistanceMeters>
          </Trackpoint>
          <Trackpoint>
            <Time>2021-08-29T14:56:41.000Z</Time>
            <Position>
              <LatitudeDegrees>-32.98375030048191547393798828125</LatitudeDegrees>
              <LongitudeDegrees>-69.277800656855106353759765625</LongitudeDegrees>
            </Position>
            <AltitudeMeters>1823</AltitudeMeters>
            <DistanceMeters>4913.6921493405</DistanceMeters>
          </Trackpoint>
          <Trackpoint>
            <Time>2021-08-29T14:56:45.000Z</Time>
            <Position>
              <LatitudeDegrees>-32.98372264020144939422607421875</LatitudeDegrees>
              <LongitudeDegrees>-69.27790702320635318756103515625</LongitudeDegrees>
            </Position>
            <AltitudeMeters>1823.5999755859375</AltitudeMeters>
            <DistanceMeters>4924.0896526555</DistanceMeters>
          </Trackpoint>
          <Trackpoint>
            <Time>2021-08-29T14:56:52.000Z</Time>
            <Position>
              <LatitudeDegrees>-32.98369263298809528350830078125</LatitudeDegrees>
              <LongitudeDegrees>-69.27815579809248447418212890625</LongitudeDegrees>
            </Position>
            <AltitudeMeters>1825.4000244140625</AltitudeMeters>
            <DistanceMeters>4947.5550947209</DistanceMeters>
          </Trackpoint>
          <Trackpoint>
            <Time>2021-08-29T14:56:57.000Z</Time>
            <Position>
              <LatitudeDegrees>-32.98368425108492374420166015625</LatitudeDegrees>
              <LongitudeDegrees>-69.27822670899331569671630859375</LongitudeDegrees>
            </Position>
            <AltitudeMeters>1826.199951171875</AltitudeMeters>
            <DistanceMeters>4954.2421672157</DistanceMeters>
          </Trackpoint>
          <Trackpoint>
            <Time>2021-08-29T14:57:03.000Z</Time>
            <Position>
              <LatitudeDegrees>-32.983682155609130859375</LatitudeDegrees>
              <LongitudeDegrees>-69.278270043432712554931640625</LongitudeDegrees>
            </Position>
            <AltitudeMeters>1826.5999755859375</AltitudeMeters>
            <DistanceMeters>4958.2950315178</DistanceMeters>
          </Trackpoint>
          <Trackpoint>
            <Time>2021-08-29T14:57:05.000Z</Time>
            <Position>
              <LatitudeDegrees>-32.9836836643517017364501953125</LatitudeDegrees>
              <LongitudeDegrees>-69.27829393185675144195556640625</LongitudeDegrees>
            </Position>
            <AltitudeMeters>1826.800048828125</AltitudeMeters>
            <DistanceMeters>4960.5316947357</DistanceMeters>
          </Trackpoint>
          <Trackpoint>
            <Time>2021-08-29T14:57:06.000Z</Time>
            <Position>
              <LatitudeDegrees>-32.9836856760084629058837890625</LatitudeDegrees>
              <LongitudeDegrees>-69.27829963155090808868408203125</LongitudeDegrees>
            </Position>
            <AltitudeMeters>1826.800048828125</AltitudeMeters>
            <DistanceMeters>4961.1174787444</DistanceMeters>
          </Trackpoint>
          <Trackpoint>
            <Time>2021-08-29T14:57:11.000Z</Time>
            <Position>
              <LatitudeDegrees>-32.9836890287697315216064453125</LatitudeDegrees>
              <LongitudeDegrees>-69.2783141322433948516845703125</LongitudeDegrees>
            </Position>
            <AltitudeMeters>1827</AltitudeMeters>
            <DistanceMeters>4962.520531368</DistanceMeters>
          </Trackpoint>
          <Trackpoint>
            <Time>2021-08-29T14:57:12.000Z</Time>
            <Position>
              <LatitudeDegrees>-32.98369112424552440643310546875</LatitudeDegrees>
              <LongitudeDegrees>-69.2783251963555812835693359375</LongitudeDegrees>
            </Position>
            <AltitudeMeters>1827</AltitudeMeters>
            <DistanceMeters>4963.5787040756</DistanceMeters>
          </Trackpoint>
          <Trackpoint>
            <Time>2021-08-29T14:57:18.000Z</Time>
            <Position>
              <LatitudeDegrees>-32.98369799740612506866455078125</LatitudeDegrees>
              <LongitudeDegrees>-69.2784301377832889556884765625</LongitudeDegrees>
            </Position>
            <AltitudeMeters>1828.199951171875</AltitudeMeters>
            <DistanceMeters>4973.4060469295</DistanceMeters>
          </Trackpoint>
          <Trackpoint>
            <Time>2021-08-29T14:57:24.000Z</Time>
            <Position>
              <LatitudeDegrees>-32.98372012563049793243408203125</LatitudeDegrees>
              <LongitudeDegrees>-69.278544299304485321044921875</LongitudeDegrees>
            </Position>
            <AltitudeMeters>1829.199951171875</AltitudeMeters>
            <DistanceMeters>4984.3452687042</DistanceMeters>
          </Trackpoint>
          <Trackpoint>
            <Time>2021-08-29T14:57:28.000Z</Time>
            <Position>
              <LatitudeDegrees>-32.983738146722316741943359375</LatitudeDegrees>
              <LongitudeDegrees>-69.27862585522234439849853515625</LongitudeDegrees>
            </Position>
            <AltitudeMeters>1830.199951171875</AltitudeMeters>
            <DistanceMeters>4992.2198820243</DistanceMeters>
          </Trackpoint>
          <Trackpoint>
            <Time>2021-08-29T14:57:32.000Z</Time>
            <Position>
              <LatitudeDegrees>-32.9837544076144695281982421875</LatitudeDegrees>
              <LongitudeDegrees>-69.27867463789880275726318359375</LongitudeDegrees>
            </Position>
            <AltitudeMeters>1831.199951171875</AltitudeMeters>
            <DistanceMeters>4997.120902667</DistanceMeters>
          </Trackpoint>
          <Trackpoint>
            <Time>2021-08-29T14:57:33.000Z</Time>
            <Position>
              <LatitudeDegrees>-32.98375532962381839752197265625</LatitudeDegrees>
              <LongitudeDegrees>-69.278670363128185272216796875</LongitudeDegrees>
            </Position>
            <AltitudeMeters>1831</AltitudeMeters>
            <DistanceMeters>4997.5458750531</DistanceMeters>
          </Trackpoint>
          <Trackpoint>
            <Time>2021-08-29T14:57:39.000Z</Time>
            <Position>
              <LatitudeDegrees>-32.983757592737674713134765625</LatitudeDegrees>
              <LongitudeDegrees>-69.2786819301545619964599609375</LongitudeDegrees>
            </Position>
            <AltitudeMeters>1831.4000244140625</AltitudeMeters>
            <DistanceMeters>4998.6540674535</DistanceMeters>
          </Trackpoint>
          <Trackpoint>
            <Time>2021-08-29T14:57:42.000Z</Time>
            <Position>
              <LatitudeDegrees>-32.98376371152698993682861328125</LatitudeDegrees>
              <LongitudeDegrees>-69.278705902397632598876953125</LongitudeDegrees>
            </Position>
            <AltitudeMeters>1831.800048828125</AltitudeMeters>
            <DistanceMeters>5000.9933464717</DistanceMeters>
          </Trackpoint>
          <Trackpoint>
            <Time>2021-08-29T14:57:46.000Z</Time>
            <Position>
              <LatitudeDegrees>-32.9837658070027828216552734375</LatitudeDegrees>
              <LongitudeDegrees>-69.278720319271087646484375</LongitudeDegrees>
            </Position>
            <AltitudeMeters>1832.199951171875</AltitudeMeters>
            <DistanceMeters>5002.3605428087</DistanceMeters>
          </Trackpoint>
          <Trackpoint>
            <Time>2021-08-29T14:57:49.000Z</Time>
            <Position>
              <LatitudeDegrees>-32.9837627895176410675048828125</LatitudeDegrees>
              <LongitudeDegrees>-69.27871688269078731536865234375</LongitudeDegrees>
            </Position>
            <AltitudeMeters>1832</AltitudeMeters>
            <DistanceMeters>5002.826076733</DistanceMeters>
          </Trackpoint>
          <Trackpoint>
            <Time>2021-08-29T14:57:52.000Z</Time>
            <Position>
              <LatitudeDegrees>-32.98376589082181453704833984375</LatitudeDegrees>
              <LongitudeDegrees>-69.2787446267902851104736328125</LongitudeDegrees>
            </Position>
            <AltitudeMeters>1832.5999755859375</AltitudeMeters>
            <DistanceMeters>5005.4388794028</DistanceMeters>
          </Trackpoint>
          <Trackpoint>
            <Time>2021-08-29T14:57:55.000Z</Time>
            <Position>
              <LatitudeDegrees>-32.98375667072832584381103515625</LatitudeDegrees>
              <LongitudeDegrees>-69.27878645248711109161376953125</LongitudeDegrees>
            </Position>
            <AltitudeMeters>1833.4000244140625</AltitudeMeters>
            <DistanceMeters>5009.4772352635</DistanceMeters>
          </Trackpoint>
          <Trackpoint>
            <Time>2021-08-29T14:58:00.000Z</Time>
            <Position>
              <LatitudeDegrees>-32.98373638652265071868896484375</LatitudeDegrees>
              <LongitudeDegrees>-69.27888418547809123992919921875</LongitudeDegrees>
            </Position>
            <AltitudeMeters>1835.4000244140625</AltitudeMeters>
            <DistanceMeters>5018.8771979233</DistanceMeters>
          </Trackpoint>
          <Trackpoint>
            <Time>2021-08-29T14:58:03.000Z</Time>
            <Position>
              <LatitudeDegrees>-32.98373102210462093353271484375</LatitudeDegrees>
              <LongitudeDegrees>-69.27896884270012378692626953125</LongitudeDegrees>
            </Position>
            <AltitudeMeters>1837.199951171875</AltitudeMeters>
            <DistanceMeters>5026.8038158589</DistanceMeters>
          </Trackpoint>
          <Trackpoint>
            <Time>2021-08-29T14:58:05.000Z</Time>
            <Position>
              <LatitudeDegrees>-32.98371660523116588592529296875</LatitudeDegrees>
              <LongitudeDegrees>-69.27904679439961910247802734375</LongitudeDegrees>
            </Position>
            <AltitudeMeters>1839</AltitudeMeters>
            <DistanceMeters>5034.2559947436</DistanceMeters>
          </Trackpoint>
          <Trackpoint>
            <Time>2021-08-29T14:58:08.000Z</Time>
            <Position>
              <LatitudeDegrees>-32.983684502542018890380859375</LatitudeDegrees>
              <LongitudeDegrees>-69.279167242348194122314453125</LongitudeDegrees>
            </Position>
            <AltitudeMeters>1842</AltitudeMeters>
            <DistanceMeters>5046.0550069284</DistanceMeters>
          </Trackpoint>
          <Trackpoint>
            <Time>2021-08-29T14:58:09.000Z</Time>
            <Position>
              <LatitudeDegrees>-32.98367553390562534332275390625</LatitudeDegrees>
              <LongitudeDegrees>-69.27919817157089710235595703125</LongitudeDegrees>
            </Position>
            <AltitudeMeters>1842.5999755859375</AltitudeMeters>
            <DistanceMeters>5049.1091956859</DistanceMeters>
          </Trackpoint>
          <Trackpoint>
            <Time>2021-08-29T14:58:14.000Z</Time>
            <Position>
              <LatitudeDegrees>-32.98355500213801860809326171875</LatitudeDegrees>
              <LongitudeDegrees>-69.2792988382279872894287109375</LongitudeDegrees>
            </Position>
            <AltitudeMeters>1845</AltitudeMeters>
            <DistanceMeters>5065.4891111711</DistanceMeters>
          </Trackpoint>
          <Trackpoint>
            <Time>2021-08-29T14:58:18.000Z</Time>
            <Position>
              <LatitudeDegrees>-32.98342801630496978759765625</LatitudeDegrees>
              <LongitudeDegrees>-69.2792244069278240203857421875</LongitudeDegrees>
            </Position>
            <AltitudeMeters>1843.199951171875</AltitudeMeters>
            <DistanceMeters>5081.2386244918</DistanceMeters>
          </Trackpoint>
          <Trackpoint>
            <Time>2021-08-29T14:58:27.000Z</Time>
            <Position>
              <LatitudeDegrees>-32.98316180706024169921875</LatitudeDegrees>
              <LongitudeDegrees>-69.279031455516815185546875</LongitudeDegrees>
            </Position>
            <AltitudeMeters>1836.5999755859375</AltitudeMeters>
            <DistanceMeters>5115.9146525102</DistanceMeters>
          </Trackpoint>
          <Trackpoint>
            <Time>2021-08-29T14:58:35.000Z</Time>
            <Position>
              <LatitudeDegrees>-32.982939518988132476806640625</LatitudeDegrees>
              <LongitudeDegrees>-69.27881998009979724884033203125</LongitudeDegrees>
            </Position>
            <AltitudeMeters>1829.5999755859375</AltitudeMeters>
            <DistanceMeters>5147.5681066964</DistanceMeters>
          </Trackpoint>
          <Trackpoint>
            <Time>2021-08-29T14:58:39.000Z</Time>
            <Position>
              <LatitudeDegrees>-32.98287204466760158538818359375</LatitudeDegrees>
              <LongitudeDegrees>-69.27870799787342548370361328125</LongitudeDegrees>
            </Position>
            <AltitudeMeters>1826.4000244140625</AltitudeMeters>
            <DistanceMeters>5160.4406318079</DistanceMeters>
          </Trackpoint>
          <Trackpoint>
            <Time>2021-08-29T14:58:41.000Z</Time>
            <Position>
              <LatitudeDegrees>-32.982852347195148468017578125</LatitudeDegrees>
              <LongitudeDegrees>-69.27865502424538135528564453125</LongitudeDegrees>
            </Position>
            <AltitudeMeters>1825</AltitudeMeters>
            <DistanceMeters>5165.851316407</DistanceMeters>
          </Trackpoint>
          <Trackpoint>
            <Time>2021-08-29T14:58:44.000Z</Time>
            <Position>
              <LatitudeDegrees>-32.98281647264957427978515625</LatitudeDegrees>
              <LongitudeDegrees>-69.2785553634166717529296875</LongitudeDegrees>
            </Position>
            <AltitudeMeters>1823.199951171875</AltitudeMeters>
            <DistanceMeters>5175.9769022145</DistanceMeters>
          </Trackpoint>
          <Trackpoint>
            <Time>2021-08-29T14:58:49.000Z</Time>
            <Position>
              <LatitudeDegrees>-32.9827774129807949066162109375</LatitudeDegrees>
              <LongitudeDegrees>-69.27840717136859893798828125</LongitudeDegrees>
            </Position>
            <AltitudeMeters>1821.199951171875</AltitudeMeters>
            <DistanceMeters>5190.4796102558</DistanceMeters>
          </Trackpoint>
          <Trackpoint>
            <Time>2021-08-29T14:58:53.000Z</Time>
            <Position>
              <LatitudeDegrees>-32.982755117118358612060546875</LatitudeDegrees>
              <LongitudeDegrees>-69.27837339229881763458251953125</LongitudeDegrees>
            </Position>
            <AltitudeMeters>1820.800048828125</AltitudeMeters>
            <DistanceMeters>5194.4932938976</DistanceMeters>
          </Trackpoint>
          <Trackpoint>
            <Time>2021-08-29T14:58:58.000Z</Time>
            <Position>
              <LatitudeDegrees>-32.98275478184223175048828125</LatitudeDegrees>
              <LongitudeDegrees>-69.27836098708212375640869140625</LongitudeDegrees>
            </Position>
            <AltitudeMeters>1820.5999755859375</AltitudeMeters>
            <DistanceMeters>5195.6493437727</DistanceMeters>
          </Trackpoint>
          <Trackpoint>
            <Time>2021-08-29T14:59:01.000Z</Time>
            <Position>
              <LatitudeDegrees>-32.98274480737745761871337890625</LatitudeDegrees>
              <LongitudeDegrees>-69.27834120579063892364501953125</LongitudeDegrees>
            </Position>
            <AltitudeMeters>1820.199951171875</AltitudeMeters>
            <DistanceMeters>5197.8058431046</DistanceMeters>
          </Trackpoint>
          <Trackpoint>
            <Time>2021-08-29T14:59:09.000Z</Time>
            <Position>
              <LatitudeDegrees>-32.98269250430166721343994140625</LatitudeDegrees>
              <LongitudeDegrees>-69.27829720079898834228515625</LongitudeDegrees>
            </Position>
            <AltitudeMeters>1819.4000244140625</AltitudeMeters>
            <DistanceMeters>5204.9322131428</DistanceMeters>
          </Trackpoint>
          <Trackpoint>
            <Time>2021-08-29T14:59:15.000Z</Time>
            <Position>
              <LatitudeDegrees>-32.98265093006193637847900390625</LatitudeDegrees>
              <LongitudeDegrees>-69.278278760612010955810546875</LongitudeDegrees>
            </Position>
            <AltitudeMeters>1818.800048828125</AltitudeMeters>
            <DistanceMeters>5209.8690315841</DistanceMeters>
          </Trackpoint>
          <Trackpoint>
            <Time>2021-08-29T14:59:19.000Z</Time>
            <Position>
              <LatitudeDegrees>-32.9826087690889835357666015625</LatitudeDegrees>
              <LongitudeDegrees>-69.27828068844974040985107421875</LongitudeDegrees>
            </Position>
            <AltitudeMeters>1818.4000244140625</AltitudeMeters>
            <DistanceMeters>5214.565889763</DistanceMeters>
          </Trackpoint>
          <Trackpoint>
            <Time>2021-08-29T14:59:21.000Z</Time>
            <Position>
              <LatitudeDegrees>-32.98258957453072071075439453125</LatitudeDegrees>
              <LongitudeDegrees>-69.27829921245574951171875</LongitudeDegrees>
            </Position>
            <AltitudeMeters>1818.5999755859375</AltitudeMeters>
            <DistanceMeters>5217.3134603093</DistanceMeters>
          </Trackpoint>
          <Trackpoint>
            <Time>2021-08-29T14:59:29.000Z</Time>
            <Position>
              <LatitudeDegrees>-32.9824850521981716156005859375</LatitudeDegrees>
              <LongitudeDegrees>-69.27837498486042022705078125</LongitudeDegrees>
            </Position>
            <AltitudeMeters>1818.4000244140625</AltitudeMeters>
            <DistanceMeters>5230.929167026</DistanceMeters>
          </Trackpoint>
          <Trackpoint>
            <Time>2021-08-29T14:59:35.000Z</Time>
            <Position>
              <LatitudeDegrees>-32.9824179969727993011474609375</LatitudeDegrees>
              <LongitudeDegrees>-69.278495348989963531494140625</LongitudeDegrees>
            </Position>
            <AltitudeMeters>1819</AltitudeMeters>
            <DistanceMeters>5244.4196140405</DistanceMeters>
          </Trackpoint>
          <Trackpoint>
            <Time>2021-08-29T14:59:39.000Z</Time>
            <Position>
              <LatitudeDegrees>-32.98246937803924083709716796875</LatitudeDegrees>
              <LongitudeDegrees>-69.27864178083837032318115234375</LongitudeDegrees>
            </Position>
            <AltitudeMeters>1820.5999755859375</AltitudeMeters>
            <DistanceMeters>5259.2395168495</DistanceMeters>
          </Trackpoint>
          <Trackpoint>
            <Time>2021-08-29T14:59:42.000Z</Time>
            <Position>
              <LatitudeDegrees>-32.9824941046535968780517578125</LatitudeDegrees>
              <LongitudeDegrees>-69.2787499912083148956298828125</LongitudeDegrees>
            </Position>
            <AltitudeMeters>1822.800048828125</AltitudeMeters>
            <DistanceMeters>5269.7105811786</DistanceMeters>
          </Trackpoint>
          <Trackpoint>
            <Time>2021-08-29T14:59:44.000Z</Time>
            <Position>
              <LatitudeDegrees>-32.9824756644666194915771484375</LatitudeDegrees>
              <LongitudeDegrees>-69.27882333286106586456298828125</LongitudeDegrees>
            </Position>
            <AltitudeMeters>1823.800048828125</AltitudeMeters>
            <DistanceMeters>5276.8584600611</DistanceMeters>
          </Trackpoint>
          <Trackpoint>
            <Time>2021-08-29T14:59:45.000Z</Time>
            <Position>
              <LatitudeDegrees>-32.982465438544750213623046875</LatitudeDegrees>
              <LongitudeDegrees>-69.27883691154420375823974609375</LongitudeDegrees>
            </Position>
            <AltitudeMeters>1823.800048828125</AltitudeMeters>
            <DistanceMeters>5278.5636534856</DistanceMeters>
          </Trackpoint>
          <Trackpoint>
            <Time>2021-08-29T14:59:47.000Z</Time>
            <Position>
              <LatitudeDegrees>-32.9824604094028472900390625</LatitudeDegrees>
              <LongitudeDegrees>-69.278845377266407012939453125</LongitudeDegrees>
            </Position>
            <AltitudeMeters>1824</AltitudeMeters>
            <DistanceMeters>5279.5327396274</DistanceMeters>
          </Trackpoint>
          <Trackpoint>
            <Time>2021-08-29T14:59:52.000Z</Time>
            <Position>
              <LatitudeDegrees>-32.98246803693473339080810546875</LatitudeDegrees>
              <LongitudeDegrees>-69.27885510027408599853515625</LongitudeDegrees>
            </Position>
            <AltitudeMeters>1824.199951171875</AltitudeMeters>
            <DistanceMeters>5280.775375162</DistanceMeters>
          </Trackpoint>
          <Trackpoint>
            <Time>2021-08-29T14:59:55.000Z</Time>
            <Position>
              <LatitudeDegrees>-32.98246971331536769866943359375</LatitudeDegrees>
              <LongitudeDegrees>-69.27885618992149829864501953125</LongitudeDegrees>
            </Position>
            <AltitudeMeters>1824.199951171875</AltitudeMeters>
            <DistanceMeters>5280.987861355</DistanceMeters>
          </Trackpoint>
          <Trackpoint>
            <Time>2021-08-29T15:00:02.000Z</Time>
            <Position>
              <LatitudeDegrees>-32.982445992529392242431640625</LatitudeDegrees>
              <LongitudeDegrees>-69.27887513302266597747802734375</LongitudeDegrees>
            </Position>
            <AltitudeMeters>1824.199951171875</AltitudeMeters>
            <DistanceMeters>5284.1666434396</DistanceMeters>
          </Trackpoint>
          <Trackpoint>
            <Time>2021-08-29T15:00:03.000Z</Time>
            <Position>
              <LatitudeDegrees>-32.982437275350093841552734375</LatitudeDegrees>
              <LongitudeDegrees>-69.27887982688844203948974609375</LongitudeDegrees>
            </Position>
            <AltitudeMeters>1824.199951171875</AltitudeMeters>
            <DistanceMeters>5285.2333156628</DistanceMeters>
          </Trackpoint>
          <Trackpoint>
            <Time>2021-08-29T15:00:11.000Z</Time>
            <Position>
              <LatitudeDegrees>-32.982310540974140167236328125</LatitudeDegrees>
              <LongitudeDegrees>-69.27890262566506862640380859375</LongitudeDegrees>
            </Position>
            <AltitudeMeters>1822.800048828125</AltitudeMeters>
            <DistanceMeters>5299.4990379655</DistanceMeters>
          </Trackpoint>
          <Trackpoint>
            <Time>2021-08-29T15:00:19.000Z</Time>
            <Position>
              <LatitudeDegrees>-32.98220953904092311859130859375</LatitudeDegrees>
              <LongitudeDegrees>-69.27900128066539764404296875</LongitudeDegrees>
            </Position>
            <AltitudeMeters>1823</AltitudeMeters>
            <DistanceMeters>5314.0328450434</DistanceMeters>
          </Trackpoint>
          <Trackpoint>
            <Time>2021-08-29T15:00:21.000Z</Time>
            <Position>
              <LatitudeDegrees>-32.98219981603324413299560546875</LatitudeDegrees>
              <LongitudeDegrees>-69.2790400050580501556396484375</LongitudeDegrees>
            </Position>
            <AltitudeMeters>1823.4000244140625</AltitudeMeters>
            <DistanceMeters>5317.8064945438</DistanceMeters>
          </Trackpoint>
          <Trackpoint>
            <Time>2021-08-29T15:00:23.000Z</Time>
            <Position>
              <LatitudeDegrees>-32.982193194329738616943359375</LatitudeDegrees>
              <LongitudeDegrees>-69.2790842615067958831787109375</LongitudeDegrees>
            </Position>
            <AltitudeMeters>1824</AltitudeMeters>
            <DistanceMeters>5322.0049120098</DistanceMeters>
          </Trackpoint>
          <Trackpoint>
            <Time>2021-08-29T15:00:24.000Z</Time>
            <Position>
              <LatitudeDegrees>-32.98219612799584865570068359375</LatitudeDegrees>
              <LongitudeDegrees>-69.2791030369699001312255859375</LongitudeDegrees>
            </Position>
            <AltitudeMeters>1824.4000244140625</AltitudeMeters>
            <DistanceMeters>5323.7877712046</DistanceMeters>
          </Trackpoint>
          <Trackpoint>
            <Time>2021-08-29T15:00:25.000Z</Time>
            <Position>
              <LatitudeDegrees>-32.98219981603324413299560546875</LatitudeDegrees>
              <LongitudeDegrees>-69.279116950929164886474609375</LongitudeDegrees>
            </Position>
            <AltitudeMeters>1824.5999755859375</AltitudeMeters>
            <DistanceMeters>5325.1516611369</DistanceMeters>
          </Trackpoint>
          <Trackpoint>
            <Time>2021-08-29T15:00:27.000Z</Time>
            <Position>
              <LatitudeDegrees>-32.9822055995464324951171875</LatitudeDegrees>
              <LongitudeDegrees>-69.279157184064388275146484375</LongitudeDegrees>
            </Position>
            <AltitudeMeters>1825.199951171875</AltitudeMeters>
            <DistanceMeters>5328.9645895488</DistanceMeters>
          </Trackpoint>
          <Trackpoint>
            <Time>2021-08-29T15:00:33.000Z</Time>
            <Position>
              <LatitudeDegrees>-32.98216712661087512969970703125</LatitudeDegrees>
              <LongitudeDegrees>-69.27928634919226169586181640625</LongitudeDegrees>
            </Position>
            <AltitudeMeters>1826.199951171875</AltitudeMeters>
            <DistanceMeters>5341.7621868415</DistanceMeters>
          </Trackpoint>
          <Trackpoint>
            <Time>2021-08-29T15:00:44.000Z</Time>
            <Position>
              <LatitudeDegrees>-32.98206436447799205780029296875</LatitudeDegrees>
              <LongitudeDegrees>-69.27951215766370296478271484375</LongitudeDegrees>
            </Position>
            <AltitudeMeters>1827.199951171875</AltitudeMeters>
            <DistanceMeters>5365.7475394586</DistanceMeters>
          </Trackpoint>
          <Trackpoint>
            <Time>2021-08-29T15:00:54.000Z</Time>
            <Position>
              <LatitudeDegrees>-32.98198674805462360382080078125</LatitudeDegrees>
              <LongitudeDegrees>-69.279782809317111968994140625</LongitudeDegrees>
            </Position>
            <AltitudeMeters>1828.4000244140625</AltitudeMeters>
            <DistanceMeters>5392.4525823763</DistanceMeters>
          </Trackpoint>
          <Trackpoint>
            <Time>2021-08-29T15:01:00.000Z</Time>
            <Position>
              <LatitudeDegrees>-32.98190988600254058837890625</LatitudeDegrees>
              <LongitudeDegrees>-69.27997500635683536529541015625</LongitudeDegrees>
            </Position>
            <AltitudeMeters>1828.199951171875</AltitudeMeters>
            <DistanceMeters>5412.3320256657</DistanceMeters>
          </Trackpoint>
          <Trackpoint>
            <Time>2021-08-29T15:01:04.000Z</Time>
            <Position>
              <LatitudeDegrees>-32.98183168284595012664794921875</LatitudeDegrees>
              <LongitudeDegrees>-69.2800441570580005645751953125</LongitudeDegrees>
            </Position>
            <AltitudeMeters>1827</AltitudeMeters>
            <DistanceMeters>5423.1692381408</DistanceMeters>
          </Trackpoint>
          <Trackpoint>
            <Time>2021-08-29T15:01:05.000Z</Time>
            <Position>
              <LatitudeDegrees>-32.98180796205997467041015625</LatitudeDegrees>
              <LongitudeDegrees>-69.2800525389611721038818359375</LongitudeDegrees>
            </Position>
            <AltitudeMeters>1826.5999755859375</AltitudeMeters>
            <DistanceMeters>5425.9233739785</DistanceMeters>
          </Trackpoint>
          <Trackpoint>
            <Time>2021-08-29T15:01:09.000Z</Time>
            <Position>
              <LatitudeDegrees>-32.98171265982091426849365234375</LatitudeDegrees>
              <LongitudeDegrees>-69.280046336352825164794921875</LongitudeDegrees>
            </Position>
            <AltitudeMeters>1826</AltitudeMeters>
            <DistanceMeters>5436.5468336502</DistanceMeters>
          </Trackpoint>
          <Trackpoint>
            <Time>2021-08-29T15:01:10.000Z</Time>
            <Position>
              <LatitudeDegrees>-32.98168458044528961181640625</LatitudeDegrees>
              <LongitudeDegrees>-69.28003166802227497100830078125</LongitudeDegrees>
            </Position>
            <AltitudeMeters>1826.4000244140625</AltitudeMeters>
            <DistanceMeters>5439.959867288</DistanceMeters>
          </Trackpoint>
          <Trackpoint>
            <Time>2021-08-29T15:01:13.000Z</Time>
            <Position>
              <LatitudeDegrees>-32.98160604201257228851318359375</LatitudeDegrees>
              <LongitudeDegrees>-69.27995254285633563995361328125</LongitudeDegrees>
            </Position>
            <AltitudeMeters>1827.5999755859375</AltitudeMeters>
            <DistanceMeters>5451.4049661909</DistanceMeters>
          </Trackpoint>
          <Trackpoint>
            <Time>2021-08-29T15:01:14.000Z</Time>
            <Position>
              <LatitudeDegrees>-32.9815858416259288787841796875</LatitudeDegrees>
              <LongitudeDegrees>-69.27991918288171291351318359375</LongitudeDegrees>
            </Position>
            <AltitudeMeters>1827.800048828125</AltitudeMeters>
            <DistanceMeters>5455.2462088166</DistanceMeters>
          </Trackpoint>
          <Trackpoint>
            <Time>2021-08-29T15:01:16.000Z</Time>
            <Position>
              <LatitudeDegrees>-32.9815606959164142608642578125</LatitudeDegrees>
              <LongitudeDegrees>-69.2798500321805477142333984375</LongitudeDegrees>
            </Position>
            <AltitudeMeters>1827.800048828125</AltitudeMeters>
            <DistanceMeters>5462.2833203845</DistanceMeters>
          </Trackpoint>
          <Trackpoint>
            <Time>2021-08-29T15:01:17.000Z</Time>
            <Position>
              <LatitudeDegrees>-32.9815519787371158599853515625</LatitudeDegrees>
              <LongitudeDegrees>-69.2798133194446563720703125</LongitudeDegrees>
            </Position>
            <AltitudeMeters>1827.800048828125</AltitudeMeters>
            <DistanceMeters>5465.8452380426</DistanceMeters>
          </Trackpoint>
          <Trackpoint>
            <Time>2021-08-29T15:01:19.000Z</Time>
            <Position>
              <LatitudeDegrees>-32.98154552467167377471923828125</LatitudeDegrees>
              <LongitudeDegrees>-69.27973092533648014068603515625</LongitudeDegrees>
            </Position>
            <AltitudeMeters>1827.199951171875</AltitudeMeters>
            <DistanceMeters>5473.571091089</DistanceMeters>
          </Trackpoint>
          <Trackpoint>
            <Time>2021-08-29T15:01:21.000Z</Time>
            <Position>
              <LatitudeDegrees>-32.98153932206332683563232421875</LatitudeDegrees>
              <LongitudeDegrees>-69.27964258007705211639404296875</LongitudeDegrees>
            </Position>
            <AltitudeMeters>1826.800048828125</AltitudeMeters>
            <DistanceMeters>5481.8482397515</DistanceMeters>
          </Trackpoint>
          <Trackpoint>
            <Time>2021-08-29T15:01:25.000Z</Time>
            <Position>
              <LatitudeDegrees>-32.98152658157050609588623046875</LatitudeDegrees>
              <LongitudeDegrees>-69.27944728173315525054931640625</LongitudeDegrees>
            </Position>
            <AltitudeMeters>1825.4000244140625</AltitudeMeters>
            <DistanceMeters>5500.137364707</DistanceMeters>
          </Trackpoint>
          <Trackpoint>
            <Time>2021-08-29T15:01:29.000Z</Time>
            <Position>
              <LatitudeDegrees>-32.981506548821926116943359375</LatitudeDegrees>
              <LongitudeDegrees>-69.27925407886505126953125</LongitudeDegrees>
            </Position>
            <AltitudeMeters>1821.5999755859375</AltitudeMeters>
            <DistanceMeters>5518.313071478</DistanceMeters>
          </Trackpoint>
          <Trackpoint>
            <Time>2021-08-29T15:01:33.000Z</Time>
            <Position>
              <LatitudeDegrees>-32.9814946465194225311279296875</LatitudeDegrees>
              <LongitudeDegrees>-69.2790649831295013427734375</LongitudeDegrees>
            </Position>
            <AltitudeMeters>1819</AltitudeMeters>
            <DistanceMeters>5536.0179025588</DistanceMeters>
          </Trackpoint>
          <Trackpoint>
            <Time>2021-08-29T15:01:35.000Z</Time>
            <Position>
              <LatitudeDegrees>-32.98148685134947299957275390625</LatitudeDegrees>
              <LongitudeDegrees>-69.27898250520229339599609375</LongitudeDegrees>
            </Position>
            <AltitudeMeters>1818</AltitudeMeters>
            <DistanceMeters>5543.7670966041</DistanceMeters>
          </Trackpoint>
          <Trackpoint>
            <Time>2021-08-29T15:01:37.000Z</Time>
            <Position>
              <LatitudeDegrees>-32.98148601315915584564208984375</LatitudeDegrees>
              <LongitudeDegrees>-69.27890832535922527313232421875</LongitudeDegrees>
            </Position>
            <AltitudeMeters>1817.199951171875</AltitudeMeters>
            <DistanceMeters>5550.6936250381</DistanceMeters>
          </Trackpoint>
          <Trackpoint>
            <Time>2021-08-29T15:01:38.000Z</Time>
            <Position>
              <LatitudeDegrees>-32.981487773358821868896484375</LatitudeDegrees>
              <LongitudeDegrees>-69.27886851131916046142578125</LongitudeDegrees>
            </Position>
            <AltitudeMeters>1816.5999755859375</AltitudeMeters>
            <DistanceMeters>5554.4154709867</DistanceMeters>
          </Trackpoint>
          <Trackpoint>
            <Time>2021-08-29T15:01:40.000Z</Time>
            <Position>
              <LatitudeDegrees>-32.98148752190172672271728515625</LatitudeDegrees>
              <LongitudeDegrees>-69.27878393791615962982177734375</LongitudeDegrees>
            </Position>
            <AltitudeMeters>1815.4000244140625</AltitudeMeters>
            <DistanceMeters>5562.3118421688</DistanceMeters>
          </Trackpoint>
          <Trackpoint>
            <Time>2021-08-29T15:01:44.000Z</Time>
            <Position>
              <LatitudeDegrees>-32.9814706742763519287109375</LatitudeDegrees>
              <LongitudeDegrees>-69.27860020659863948822021484375</LongitudeDegrees>
            </Position>
            <AltitudeMeters>1813.199951171875</AltitudeMeters>
            <DistanceMeters>5579.567762044</DistanceMeters>
          </Trackpoint>
          <Trackpoint>
            <Time>2021-08-29T15:01:47.000Z</Time>
            <Position>
              <LatitudeDegrees>-32.9814644716680049896240234375</LatitudeDegrees>
              <LongitudeDegrees>-69.27846726961433887481689453125</LongitudeDegrees>
            </Position>
            <AltitudeMeters>1811.5999755859375</AltitudeMeters>
            <DistanceMeters>5591.9984767503</DistanceMeters>
          </Trackpoint>
          <Trackpoint>
            <Time>2021-08-29T15:01:52.000Z</Time>
            <Position>
              <LatitudeDegrees>-32.981481738388538360595703125</LatitudeDegrees>
              <LongitudeDegrees>-69.27823442034423351287841796875</LongitudeDegrees>
            </Position>
            <AltitudeMeters>1809.4000244140625</AltitudeMeters>
            <DistanceMeters>5613.8231983353</DistanceMeters>
          </Trackpoint>
          <Trackpoint>
            <Time>2021-08-29T15:01:58.000Z</Time>
            <Position>
              <LatitudeDegrees>-32.98148970119655132293701171875</LatitudeDegrees>
              <LongitudeDegrees>-69.27797474898397922515869140625</LongitudeDegrees>
            </Position>
            <AltitudeMeters>1808</AltitudeMeters>
            <DistanceMeters>5638.0836878717</DistanceMeters>
          </Trackpoint>
          <Trackpoint>
            <Time>2021-08-29T15:02:05.000Z</Time>
            <Position>
              <LatitudeDegrees>-32.9814963229000568389892578125</LatitudeDegrees>
              <LongitudeDegrees>-69.2776972241699695587158203125</LongitudeDegrees>
            </Position>
            <AltitudeMeters>1806.4000244140625</AltitudeMeters>
            <DistanceMeters>5664.0052616702</DistanceMeters>
          </Trackpoint>
          <Trackpoint>
            <Time>2021-08-29T15:02:11.000Z</Time>
            <Position>
              <LatitudeDegrees>-32.9815016873180866241455078125</LatitudeDegrees>
              <LongitudeDegrees>-69.2774129100143909454345703125</LongitudeDegrees>
            </Position>
            <AltitudeMeters>1804</AltitudeMeters>
            <DistanceMeters>5690.5570248534</DistanceMeters>
          </Trackpoint>
          <Trackpoint>
            <Time>2021-08-29T15:02:16.000Z</Time>
            <Position>
              <LatitudeDegrees>-32.98150529153645038604736328125</LatitudeDegrees>
              <LongitudeDegrees>-69.2772637121379375457763671875</LongitudeDegrees>
            </Position>
            <AltitudeMeters>1802.5999755859375</AltitudeMeters>
            <DistanceMeters>5704.4926204274</DistanceMeters>
          </Trackpoint>
          <Trackpoint>
            <Time>2021-08-29T15:02:19.000Z</Time>
            <Position>
              <LatitudeDegrees>-32.98150353133678436279296875</LatitudeDegrees>
              <LongitudeDegrees>-69.27711476571857929229736328125</LongitudeDegrees>
            </Position>
            <AltitudeMeters>1801.199951171875</AltitudeMeters>
            <DistanceMeters>5718.4003246747</DistanceMeters>
          </Trackpoint>
          <Trackpoint>
            <Time>2021-08-29T15:02:21.000Z</Time>
            <Position>
              <LatitudeDegrees>-32.9814963229000568389892578125</LatitudeDegrees>
              <LongitudeDegrees>-69.277011416852474212646484375</LongitudeDegrees>
            </Position>
            <AltitudeMeters>1800.199951171875</AltitudeMeters>
            <DistanceMeters>5728.0827961382</DistanceMeters>
          </Trackpoint>
          <Trackpoint>
            <Time>2021-08-29T15:02:24.000Z</Time>
            <Position>
              <LatitudeDegrees>-32.9814684949815273284912109375</LatitudeDegrees>
              <LongitudeDegrees>-69.27686196751892566680908203125</LongitudeDegrees>
            </Position>
            <AltitudeMeters>1799.5999755859375</AltitudeMeters>
            <DistanceMeters>5742.375711145</DistanceMeters>
          </Trackpoint>
          <Trackpoint>
            <Time>2021-08-29T15:02:25.000Z</Time>
            <Position>
              <LatitudeDegrees>-32.9814492166042327880859375</LatitudeDegrees>
              <LongitudeDegrees>-69.27681930363178253173828125</LongitudeDegrees>
            </Position>
            <AltitudeMeters>1799.4000244140625</AltitudeMeters>
            <DistanceMeters>5746.8992223058</DistanceMeters>
          </Trackpoint>
          <Trackpoint>
            <Time>2021-08-29T15:02:26.000Z</Time>
            <Position>
              <LatitudeDegrees>-32.9814277589321136474609375</LatitudeDegrees>
              <LongitudeDegrees>-69.276780746877193450927734375</LongitudeDegrees>
            </Position>
            <AltitudeMeters>1799.4000244140625</AltitudeMeters>
            <DistanceMeters>5751.2184974688</DistanceMeters>
          </Trackpoint>
          <Trackpoint>
            <Time>2021-08-29T15:02:27.000Z</Time>
            <Position>
              <LatitudeDegrees>-32.98140772618353366851806640625</LatitudeDegrees>
              <LongitudeDegrees>-69.27674512378871440887451171875</LongitudeDegrees>
            </Position>
            <AltitudeMeters>1799.4000244140625</AltitudeMeters>
            <DistanceMeters>5755.2209161889</DistanceMeters>
          </Trackpoint>
          <Trackpoint>
            <Time>2021-08-29T15:02:35.000Z</Time>
            <Position>
              <LatitudeDegrees>-32.98127177171409130096435546875</LatitudeDegrees>
              <LongitudeDegrees>-69.27645318210124969482421875</LongitudeDegrees>
            </Position>
            <AltitudeMeters>1798.800048828125</AltitudeMeters>
            <DistanceMeters>5786.3966309011</DistanceMeters>
          </Trackpoint>
          <Trackpoint>
            <Time>2021-08-29T15:02:38.000Z</Time>
            <Position>
              <LatitudeDegrees>-32.98122592270374298095703125</LatitudeDegrees>
              <LongitudeDegrees>-69.276328794658184051513671875</LongitudeDegrees>
            </Position>
            <AltitudeMeters>1798.4000244140625</AltitudeMeters>
            <DistanceMeters>5799.0815405246</DistanceMeters>
          </Trackpoint>
          <Trackpoint>
            <Time>2021-08-29T15:02:39.000Z</Time>
            <Position>
              <LatitudeDegrees>-32.981210164725780487060546875</LatitudeDegrees>
              <LongitudeDegrees>-69.2762709595263004302978515625</LongitudeDegrees>
            </Position>
            <AltitudeMeters>1798.199951171875</AltitudeMeters>
            <DistanceMeters>5804.7593370078</DistanceMeters>
          </Trackpoint>
          <Trackpoint>
            <Time>2021-08-29T15:02:40.000Z</Time>
            <Position>
              <LatitudeDegrees>-32.98120387829840183258056640625</LatitudeDegrees>
              <LongitudeDegrees>-69.27622175775468349456787109375</LongitudeDegrees>
            </Position>
            <AltitudeMeters>1797.800048828125</AltitudeMeters>
            <DistanceMeters>5809.4059392909</DistanceMeters>
          </Trackpoint>
          <Trackpoint>
            <Time>2021-08-29T15:02:45.000Z</Time>
            <Position>
              <LatitudeDegrees>-32.98119046725332736968994140625</LatitudeDegrees>
              <LongitudeDegrees>-69.27602830342948436737060546875</LongitudeDegrees>
            </Position>
            <AltitudeMeters>1796.5999755859375</AltitudeMeters>
            <DistanceMeters>5827.529404759</DistanceMeters>
          </Trackpoint>
          <Trackpoint>
            <Time>2021-08-29T15:02:53.000Z</Time>
            <Position>
              <LatitudeDegrees>-32.9811556823551654815673828125</LatitudeDegrees>
              <LongitudeDegrees>-69.27570375613868236541748046875</LongitudeDegrees>
            </Position>
            <AltitudeMeters>1794.5999755859375</AltitudeMeters>
            <DistanceMeters>5858.0772050026</DistanceMeters>
          </Trackpoint>
          <Trackpoint>
            <Time>2021-08-29T15:03:01.000Z</Time>
            <Position>
              <LatitudeDegrees>-32.98114411532878875732421875</LatitudeDegrees>
              <LongitudeDegrees>-69.2753566615283489227294921875</LongitudeDegrees>
            </Position>
            <AltitudeMeters>1791.800048828125</AltitudeMeters>
            <DistanceMeters>5890.5095873464</DistanceMeters>
          </Trackpoint>
          <Trackpoint>
            <Time>2021-08-29T15:03:09.000Z</Time>
            <Position>
              <LatitudeDegrees>-32.9812579415738582611083984375</LatitudeDegrees>
              <LongitudeDegrees>-69.27504611201584339141845703125</LongitudeDegrees>
            </Position>
            <AltitudeMeters>1786.199951171875</AltitudeMeters>
            <DistanceMeters>5922.151342918</DistanceMeters>
          </Trackpoint>
          <Trackpoint>
            <Time>2021-08-29T15:03:10.000Z</Time>
            <Position>
              <LatitudeDegrees>-32.98126992769539356231689453125</LatitudeDegrees>
              <LongitudeDegrees>-69.27501694299280643463134765625</LongitudeDegrees>
            </Position>
            <AltitudeMeters>1785.800048828125</AltitudeMeters>
            <DistanceMeters>5925.183275935</DistanceMeters>
          </Trackpoint>
          <Trackpoint>
            <Time>2021-08-29T15:03:14.000Z</Time>
            <Position>
              <LatitudeDegrees>-32.981311418116092681884765625</LatitudeDegrees>
              <LongitudeDegrees>-69.2748540826141834259033203125</LongitudeDegrees>
            </Position>
            <AltitudeMeters>1783</AltitudeMeters>
            <DistanceMeters>5941.0746294907</DistanceMeters>
          </Trackpoint>
          <Trackpoint>
            <Time>2021-08-29T15:03:16.000Z</Time>
            <Position>
              <LatitudeDegrees>-32.98132382333278656005859375</LatitudeDegrees>
              <LongitudeDegrees>-69.274763055145740509033203125</LongitudeDegrees>
            </Position>
            <AltitudeMeters>1782.4000244140625</AltitudeMeters>
            <DistanceMeters>5949.6849098349</DistanceMeters>
          </Trackpoint>
          <Trackpoint>
            <Time>2021-08-29T15:03:19.000Z</Time>
            <Position>
              <LatitudeDegrees>-32.98132650554180145263671875</LatitudeDegrees>
              <LongitudeDegrees>-69.27468049339950084686279296875</LongitudeDegrees>
            </Position>
            <AltitudeMeters>1782</AltitudeMeters>
            <DistanceMeters>5957.399065898</DistanceMeters>
          </Trackpoint>
          <Trackpoint>
            <Time>2021-08-29T15:03:25.000Z</Time>
            <Position>
              <LatitudeDegrees>-32.98139045946300029754638671875</LatitudeDegrees>
              <LongitudeDegrees>-69.274498187005519866943359375</LongitudeDegrees>
            </Position>
            <AltitudeMeters>1781</AltitudeMeters>
            <DistanceMeters>5975.8489374864</DistanceMeters>
          </Trackpoint>
          <Trackpoint>
            <Time>2021-08-29T15:03:30.000Z</Time>
            <Position>
              <LatitudeDegrees>-32.9814403317868709564208984375</LatitudeDegrees>
              <LongitudeDegrees>-69.27436550147831439971923828125</LongitudeDegrees>
            </Position>
            <AltitudeMeters>1779.4000244140625</AltitudeMeters>
            <DistanceMeters>5989.4237954965</DistanceMeters>
          </Trackpoint>
          <Trackpoint>
            <Time>2021-08-29T15:03:34.000Z</Time>
            <Position>
              <LatitudeDegrees>-32.98150361515581607818603515625</LatitudeDegrees>
              <LongitudeDegrees>-69.27427095361053943634033203125</LongitudeDegrees>
            </Position>
            <AltitudeMeters>1777.800048828125</AltitudeMeters>
            <DistanceMeters>6000.7171917834</DistanceMeters>
          </Trackpoint>
          <Trackpoint>
            <Time>2021-08-29T15:03:39.000Z</Time>
            <Position>
              <LatitudeDegrees>-32.9815851710736751556396484375</LatitudeDegrees>
              <LongitudeDegrees>-69.27416936494410037994384765625</LongitudeDegrees>
            </Position>
            <AltitudeMeters>1777</AltitudeMeters>
            <DistanceMeters>6013.8456749055</DistanceMeters>
          </Trackpoint>
          <Trackpoint>
            <Time>2021-08-29T15:03:43.000Z</Time>
            <Position>
              <LatitudeDegrees>-32.98164040781557559967041015625</LatitudeDegrees>
              <LongitudeDegrees>-69.27408856339752674102783203125</LongitudeDegrees>
            </Position>
            <AltitudeMeters>1776.4000244140625</AltitudeMeters>
            <DistanceMeters>6023.5774497561</DistanceMeters>
          </Trackpoint>
          <Trackpoint>
            <Time>2021-08-29T15:03:47.000Z</Time>
            <Position>
              <LatitudeDegrees>-32.98165784217417240142822265625</LatitudeDegrees>
              <LongitudeDegrees>-69.274039529263973236083984375</LongitudeDegrees>
            </Position>
            <AltitudeMeters>1776.199951171875</AltitudeMeters>
            <DistanceMeters>6028.5498082814</DistanceMeters>
          </Trackpoint>
          <Trackpoint>
            <Time>2021-08-29T15:03:49.000Z</Time>
            <Position>
              <LatitudeDegrees>-32.98165180720388889312744140625</LatitudeDegrees>
              <LongitudeDegrees>-69.27403693087399005889892578125</LongitudeDegrees>
            </Position>
            <AltitudeMeters>1776</AltitudeMeters>
            <DistanceMeters>6029.2609230969</DistanceMeters>
          </Trackpoint>
          <Trackpoint>
            <Time>2021-08-29T15:03:52.000Z</Time>
            <Position>
              <LatitudeDegrees>-32.98165717162191867828369140625</LatitudeDegrees>
              <LongitudeDegrees>-69.27404053509235382080078125</LongitudeDegrees>
            </Position>
            <AltitudeMeters>1776.199951171875</AltitudeMeters>
            <DistanceMeters>6029.9527280199</DistanceMeters>
          </Trackpoint>
          <Trackpoint>
            <Time>2021-08-29T15:03:57.000Z</Time>
            <Position>
              <LatitudeDegrees>-32.98165448941290378570556640625</LatitudeDegrees>
              <LongitudeDegrees>-69.27404464222490787506103515625</LongitudeDegrees>
            </Position>
            <AltitudeMeters>1776.199951171875</AltitudeMeters>
            <DistanceMeters>6030.4372710908</DistanceMeters>
          </Trackpoint>
          <Trackpoint>
            <Time>2021-08-29T15:04:03.000Z</Time>
            <Position>
              <LatitudeDegrees>-32.98167360015213489532470703125</LatitudeDegrees>
              <LongitudeDegrees>-69.2740098573267459869384765625</LongitudeDegrees>
            </Position>
            <AltitudeMeters>1776</AltitudeMeters>
            <DistanceMeters>6034.3205979714</DistanceMeters>
          </Trackpoint>
          <Trackpoint>
            <Time>2021-08-29T15:04:10.000Z</Time>
            <Position>
              <LatitudeDegrees>-32.9816746897995471954345703125</LatitudeDegrees>
              <LongitudeDegrees>-69.27399703301489353179931640625</LongitudeDegrees>
            </Position>
            <AltitudeMeters>1775.800048828125</AltitudeMeters>
            <DistanceMeters>6035.5263518051</DistanceMeters>
          </Trackpoint>
          <Trackpoint>
            <Time>2021-08-29T15:04:11.000Z</Time>
            <Position>
              <LatitudeDegrees>-32.9816745221614837646484375</LatitudeDegrees>
              <LongitudeDegrees>-69.2739910818636417388916015625</LongitudeDegrees>
            </Position>
            <AltitudeMeters>1775.800048828125</AltitudeMeters>
            <DistanceMeters>6036.0804480053</DistanceMeters>
          </Trackpoint>
          <Trackpoint>
            <Time>2021-08-29T15:04:13.000Z</Time>
            <Position>
              <LatitudeDegrees>-32.98166320659220218658447265625</LatitudeDegrees>
              <LongitudeDegrees>-69.27391983568668365478515625</LongitudeDegrees>
            </Position>
            <AltitudeMeters>1775.199951171875</AltitudeMeters>
            <DistanceMeters>6042.8500593644</DistanceMeters>
          </Trackpoint>
          <Trackpoint>
            <Time>2021-08-29T15:04:19.000Z</Time>
            <Position>
              <LatitudeDegrees>-32.98159766010940074920654296875</LatitudeDegrees>
              <LongitudeDegrees>-69.27375680766999721527099609375</LongitudeDegrees>
            </Position>
            <AltitudeMeters>1773.5999755859375</AltitudeMeters>
            <DistanceMeters>6059.7292756342</DistanceMeters>
          </Trackpoint>
          <Trackpoint>
            <Time>2021-08-29T15:04:23.000Z</Time>
            <Position>
              <LatitudeDegrees>-32.98154384829103946685791015625</LatitudeDegrees>
              <LongitudeDegrees>-69.27368187345564365386962890625</LongitudeDegrees>
            </Position>
            <AltitudeMeters>1772.800048828125</AltitudeMeters>
            <DistanceMeters>6068.9385360802</DistanceMeters>
          </Trackpoint>
          <Trackpoint>
            <Time>2021-08-29T15:04:27.000Z</Time>
            <Position>
              <LatitudeDegrees>-32.9814812354743480682373046875</LatitudeDegrees>
              <LongitudeDegrees>-69.27363811992108821868896484375</LongitudeDegrees>
            </Position>
            <AltitudeMeters>1772.199951171875</AltitudeMeters>
            <DistanceMeters>6077.016365763</DistanceMeters>
          </Trackpoint>
          <Trackpoint>
            <Time>2021-08-29T15:04:29.000Z</Time>
            <Position>
              <LatitudeDegrees>-32.98145650885999202728271484375</LatitudeDegrees>
              <LongitudeDegrees>-69.27361582405865192413330078125</LongitudeDegrees>
            </Position>
            <AltitudeMeters>1771.800048828125</AltitudeMeters>
            <DistanceMeters>6080.4662412322</DistanceMeters>
          </Trackpoint>
          <Trackpoint>
            <Time>2021-08-29T15:04:32.000Z</Time>
            <Position>
              <LatitudeDegrees>-32.98145449720323085784912109375</LatitudeDegrees>
              <LongitudeDegrees>-69.2736093699932098388671875</LongitudeDegrees>
            </Position>
            <AltitudeMeters>1771.800048828125</AltitudeMeters>
            <DistanceMeters>6081.0965771454</DistanceMeters>
          </Trackpoint>
          <Trackpoint>
            <Time>2021-08-29T15:04:39.000Z</Time>
            <Position>
              <LatitudeDegrees>-32.98142046667635440826416015625</LatitudeDegrees>
              <LongitudeDegrees>-69.27359604276716709136962890625</LongitudeDegrees>
            </Position>
            <AltitudeMeters>1771.5999755859375</AltitudeMeters>
            <DistanceMeters>6085.0831714992</DistanceMeters>
          </Trackpoint>
          <Trackpoint>
            <Time>2021-08-29T15:04:40.000Z</Time>
            <Position>
              <LatitudeDegrees>-32.981405295431613922119140625</LatitudeDegrees>
              <LongitudeDegrees>-69.27359486930072307586669921875</LongitudeDegrees>
            </Position>
            <AltitudeMeters>1771.5999755859375</AltitudeMeters>
            <DistanceMeters>6086.7750740474</DistanceMeters>
          </Trackpoint>
          <Trackpoint>
            <Time>2021-08-29T15:04:43.000Z</Time>
            <Position>
              <LatitudeDegrees>-32.98132876865565776824951171875</LatitudeDegrees>
              <LongitudeDegrees>-69.27359621040523052215576171875</LongitudeDegrees>
            </Position>
            <AltitudeMeters>1771.4000244140625</AltitudeMeters>
            <DistanceMeters>6095.2936240592</DistanceMeters>
          </Trackpoint>
          <Trackpoint>
            <Time>2021-08-29T15:04:44.000Z</Time>
            <Position>
              <LatitudeDegrees>-32.981297671794891357421875</LatitudeDegrees>
              <LongitudeDegrees>-69.27360123954713344573974609375</LongitudeDegrees>
            </Position>
            <AltitudeMeters>1771.199951171875</AltitudeMeters>
            <DistanceMeters>6098.7851284913</DistanceMeters>
          </Trackpoint>
          <Trackpoint>
            <Time>2021-08-29T15:04:50.000Z</Time>
            <Position>
              <LatitudeDegrees>-32.9811416007578372955322265625</LatitudeDegrees>
              <LongitudeDegrees>-69.27364566363394260406494140625</LongitudeDegrees>
            </Position>
            <AltitudeMeters>1771</AltitudeMeters>
            <DistanceMeters>6116.6443370426</DistanceMeters>
          </Trackpoint>
          <Trackpoint>
            <Time>2021-08-29T15:04:51.000Z</Time>
            <Position>
              <LatitudeDegrees>-32.98111335374414920806884765625</LatitudeDegrees>
              <LongitudeDegrees>-69.2736574821174144744873046875</LongitudeDegrees>
            </Position>
            <AltitudeMeters>1771</AltitudeMeters>
            <DistanceMeters>6119.9770527559</DistanceMeters>
          </Trackpoint>
          <Trackpoint>
            <Time>2021-08-29T15:05:00.000Z</Time>
            <Position>
              <LatitudeDegrees>-32.980801798403263092041015625</LatitudeDegrees>
              <LongitudeDegrees>-69.27373434416949748992919921875</LongitudeDegrees>
            </Position>
            <AltitudeMeters>1771.199951171875</AltitudeMeters>
            <DistanceMeters>6155.3884999937</DistanceMeters>
          </Trackpoint>
          <Trackpoint>
            <Time>2021-08-29T15:05:05.000Z</Time>
            <Position>
              <LatitudeDegrees>-32.98062200658023357391357421875</LatitudeDegrees>
              <LongitudeDegrees>-69.2737684585154056549072265625</LongitudeDegrees>
            </Position>
            <AltitudeMeters>1771.4000244140625</AltitudeMeters>
            <DistanceMeters>6175.6517074374</DistanceMeters>
          </Trackpoint>
          <Trackpoint>
            <Time>2021-08-29T15:05:13.000Z</Time>
            <Position>
              <LatitudeDegrees>-32.98036920838057994842529296875</LatitudeDegrees>
              <LongitudeDegrees>-69.27383962087333202362060546875</LongitudeDegrees>
            </Position>
            <AltitudeMeters>1771.800048828125</AltitudeMeters>
            <DistanceMeters>6204.5624823445</DistanceMeters>
          </Trackpoint>
          <Trackpoint>
            <Time>2021-08-29T15:05:16.000Z</Time>
            <Position>
              <LatitudeDegrees>-32.98028572462499141693115234375</LatitudeDegrees>
              <LongitudeDegrees>-69.27387264557182788848876953125</LongitudeDegrees>
            </Position>
            <AltitudeMeters>1772</AltitudeMeters>
            <DistanceMeters>6214.3525401266</DistanceMeters>
          </Trackpoint>
          <Trackpoint>
            <Time>2021-08-29T15:05:22.000Z</Time>
            <Position>
              <LatitudeDegrees>-32.9801454953849315643310546875</LatitudeDegrees>
              <LongitudeDegrees>-69.27393056452274322509765625</LongitudeDegrees>
            </Position>
            <AltitudeMeters>1772.5999755859375</AltitudeMeters>
            <DistanceMeters>6230.8702497038</DistanceMeters>
          </Trackpoint>
          <Trackpoint>
            <Time>2021-08-29T15:05:32.000Z</Time>
            <Position>
              <LatitudeDegrees>-32.97987886704504489898681640625</LatitudeDegrees>
              <LongitudeDegrees>-69.27402066998183727264404296875</LongitudeDegrees>
            </Position>
            <AltitudeMeters>1775</AltitudeMeters>
            <DistanceMeters>6261.7160441431</DistanceMeters>
          </Trackpoint>
          <Trackpoint>
            <Time>2021-08-29T15:05:35.000Z</Time>
            <Position>
              <LatitudeDegrees>-32.97981482930481433868408203125</LatitudeDegrees>
              <LongitudeDegrees>-69.27406392060220241546630859375</LongitudeDegrees>
            </Position>
            <AltitudeMeters>1776.199951171875</AltitudeMeters>
            <DistanceMeters>6269.9082067472</DistanceMeters>
          </Trackpoint>
          <Trackpoint>
            <Time>2021-08-29T15:05:40.000Z</Time>
            <Position>
              <LatitudeDegrees>-32.979716174304485321044921875</LatitudeDegrees>
              <LongitudeDegrees>-69.2741350829601287841796875</LongitudeDegrees>
            </Position>
            <AltitudeMeters>1777.5999755859375</AltitudeMeters>
            <DistanceMeters>6282.7424431645</DistanceMeters>
          </Trackpoint>
          <Trackpoint>
            <Time>2021-08-29T15:05:46.000Z</Time>
            <Position>
              <LatitudeDegrees>-32.9796026833355426788330078125</LatitudeDegrees>
              <LongitudeDegrees>-69.27418311126530170440673828125</LongitudeDegrees>
            </Position>
            <AltitudeMeters>1777.800048828125</AltitudeMeters>
            <DistanceMeters>6296.1469372274</DistanceMeters>
          </Trackpoint>
          <Trackpoint>
            <Time>2021-08-29T15:05:47.000Z</Time>
            <Position>
              <LatitudeDegrees>-32.97958516515791416168212890625</LatitudeDegrees>
              <LongitudeDegrees>-69.27418579347431659698486328125</LongitudeDegrees>
            </Position>
            <AltitudeMeters>1777.800048828125</AltitudeMeters>
            <DistanceMeters>6298.1128651808</DistanceMeters>
          </Trackpoint>
          <Trackpoint>
            <Time>2021-08-29T15:05:51.000Z</Time>
            <Position>
              <LatitudeDegrees>-32.97952800057828426361083984375</LatitudeDegrees>
              <LongitudeDegrees>-69.27418981678783893585205078125</LongitudeDegrees>
            </Position>
            <AltitudeMeters>1777.800048828125</AltitudeMeters>
            <DistanceMeters>6304.486034239</DistanceMeters>
          </Trackpoint>
          <Trackpoint>
            <Time>2021-08-29T15:05:54.000Z</Time>
            <Position>
              <LatitudeDegrees>-32.97948190011084079742431640625</LatitudeDegrees>
              <LongitudeDegrees>-69.27418126724660396575927734375</LongitudeDegrees>
            </Position>
            <AltitudeMeters>1777.5999755859375</AltitudeMeters>
            <DistanceMeters>6309.6787029423</DistanceMeters>
          </Trackpoint>
          <Trackpoint>
            <Time>2021-08-29T15:06:01.000Z</Time>
            <Position>
              <LatitudeDegrees>-32.979366816580295562744140625</LatitudeDegrees>
              <LongitudeDegrees>-69.2741355858743190765380859375</LongitudeDegrees>
            </Position>
            <AltitudeMeters>1777.199951171875</AltitudeMeters>
            <DistanceMeters>6323.1791867464</DistanceMeters>
          </Trackpoint>
          <Trackpoint>
            <Time>2021-08-29T15:06:06.000Z</Time>
            <Position>
              <LatitudeDegrees>-32.97926531173288822174072265625</LatitudeDegrees>
              <LongitudeDegrees>-69.27410147152841091156005859375</LongitudeDegrees>
            </Position>
            <AltitudeMeters>1776.800048828125</AltitudeMeters>
            <DistanceMeters>6334.9175825677</DistanceMeters>
          </Trackpoint>
          <Trackpoint>
            <Time>2021-08-29T15:06:14.000Z</Time>
            <Position>
              <LatitudeDegrees>-32.97910907305777072906494140625</LatitudeDegrees>
              <LongitudeDegrees>-69.27405059337615966796875</LongitudeDegrees>
            </Position>
            <AltitudeMeters>1776.199951171875</AltitudeMeters>
            <DistanceMeters>6352.9443782061</DistanceMeters>
          </Trackpoint>
          <Trackpoint>
            <Time>2021-08-29T15:06:16.000Z</Time>
            <Position>
              <LatitudeDegrees>-32.9790638945996761322021484375</LatitudeDegrees>
              <LongitudeDegrees>-69.27404011599719524383544921875</LongitudeDegrees>
            </Position>
            <AltitudeMeters>1776</AltitudeMeters>
            <DistanceMeters>6358.0670144557</DistanceMeters>
          </Trackpoint>
          <Trackpoint>
            <Time>2021-08-29T15:06:17.000Z</Time>
            <Position>
              <LatitudeDegrees>-32.979042269289493560791015625</LatitudeDegrees>
              <LongitudeDegrees>-69.274038858711719512939453125</LongitudeDegrees>
            </Position>
            <AltitudeMeters>1776</AltitudeMeters>
            <DistanceMeters>6360.4747746342</DistanceMeters>
          </Trackpoint>
          <Trackpoint>
            <Time>2021-08-29T15:06:20.000Z</Time>
            <Position>
              <LatitudeDegrees>-32.97897395677864551544189453125</LatitudeDegrees>
              <LongitudeDegrees>-69.27404145710170269012451171875</LongitudeDegrees>
            </Position>
            <AltitudeMeters>1775.800048828125</AltitudeMeters>
            <DistanceMeters>6368.0816616357</DistanceMeters>
          </Trackpoint>
          <Trackpoint>
            <Time>2021-08-29T15:06:25.000Z</Time>
            <Position>
              <LatitudeDegrees>-32.9788823425769805908203125</LatitudeDegrees>
              <LongitudeDegrees>-69.27405889146029949188232421875</LongitudeDegrees>
            </Position>
            <AltitudeMeters>1775.800048828125</AltitudeMeters>
            <DistanceMeters>6378.4077036</DistanceMeters>
          </Trackpoint>
          <Trackpoint>
            <Time>2021-08-29T15:06:26.000Z</Time>
            <Position>
              <LatitudeDegrees>-32.978875637054443359375</LatitudeDegrees>
              <LongitudeDegrees>-69.27406040020287036895751953125</LongitudeDegrees>
            </Position>
            <AltitudeMeters>1775.800048828125</AltitudeMeters>
            <DistanceMeters>6379.1619547624</DistanceMeters>
          </Trackpoint>
          <Trackpoint>
            <Time>2021-08-29T15:06:31.000Z</Time>
            <Position>
              <LatitudeDegrees>-32.97888359986245632171630859375</LatitudeDegrees>
              <LongitudeDegrees>-69.27406727336347103118896484375</LongitudeDegrees>
            </Position>
            <AltitudeMeters>1775.800048828125</AltitudeMeters>
            <DistanceMeters>6380.2578562941</DistanceMeters>
          </Trackpoint>
          <Trackpoint>
            <Time>2021-08-29T15:06:33.000Z</Time>
            <Position>
              <LatitudeDegrees>-32.97887840308248996734619140625</LatitudeDegrees>
              <LongitudeDegrees>-69.27406442351639270782470703125</LongitudeDegrees>
            </Position>
            <AltitudeMeters>1775.800048828125</AltitudeMeters>
            <DistanceMeters>6380.8953148731</DistanceMeters>
          </Trackpoint>
          <Trackpoint>
            <Time>2021-08-29T15:11:31.000Z</Time>
            <Position>
              <LatitudeDegrees>-32.974652163684368133544921875</LatitudeDegrees>
              <LongitudeDegrees>-69.2748753726482391357421875</LongitudeDegrees>
            </Position>
            <AltitudeMeters>1788.4000244140625</AltitudeMeters>
            <DistanceMeters>6857.3393889587</DistanceMeters>
          </Trackpoint>
          <Trackpoint>
            <Time>2021-08-29T15:11:32.000Z</Time>
            <Position>
              <LatitudeDegrees>-32.974650822579860687255859375</LatitudeDegrees>
              <LongitudeDegrees>-69.27487604320049285888671875</LongitudeDegrees>
            </Position>
            <AltitudeMeters>1788.5999755859375</AltitudeMeters>
            <DistanceMeters>6857.5294423874</DistanceMeters>
          </Trackpoint>
          <Trackpoint>
            <Time>2021-08-29T15:11:33.000Z</Time>
            <Position>
              <LatitudeDegrees>-32.97465224750339984893798828125</LatitudeDegrees>
              <LongitudeDegrees>-69.27487478591501712799072265625</LongitudeDegrees>
            </Position>
            <AltitudeMeters>1788.4000244140625</AltitudeMeters>
            <DistanceMeters>6857.7194958162</DistanceMeters>
          </Trackpoint>
          <Trackpoint>
            <Time>2021-08-29T15:11:42.000Z</Time>
            <Position>
              <LatitudeDegrees>-32.97464990057051181793212890625</LatitudeDegrees>
              <LongitudeDegrees>-69.27488668821752071380615234375</LongitudeDegrees>
            </Position>
            <AltitudeMeters>1788.5999755859375</AltitudeMeters>
            <DistanceMeters>6858.8677079746</DistanceMeters>
          </Trackpoint>
          <Trackpoint>
            <Time>2021-08-29T15:11:47.000Z</Time>
            <Position>
              <LatitudeDegrees>-32.97462542541325092315673828125</LatitudeDegrees>
              <LongitudeDegrees>-69.2749446071684360504150390625</LongitudeDegrees>
            </Position>
            <AltitudeMeters>1789.199951171875</AltitudeMeters>
            <DistanceMeters>6864.9241236238</DistanceMeters>
          </Trackpoint>
          <Trackpoint>
            <Time>2021-08-29T15:11:48.000Z</Time>
            <Position>
              <LatitudeDegrees>-32.97462240792810916900634765625</LatitudeDegrees>
              <LongitudeDegrees>-69.2749677412211894989013671875</LongitudeDegrees>
            </Position>
            <AltitudeMeters>1789.4000244140625</AltitudeMeters>
            <DistanceMeters>6867.1118028771</DistanceMeters>
          </Trackpoint>
          <Trackpoint>
            <Time>2021-08-29T15:11:51.000Z</Time>
            <Position>
              <LatitudeDegrees>-32.97461754642426967620849609375</LatitudeDegrees>
              <LongitudeDegrees>-69.2750304378569126129150390625</LongitudeDegrees>
            </Position>
            <AltitudeMeters>1789.800048828125</AltitudeMeters>
            <DistanceMeters>6872.9904168762</DistanceMeters>
          </Trackpoint>
          <Trackpoint>
            <Time>2021-08-29T15:11:54.000Z</Time>
            <Position>
              <LatitudeDegrees>-32.9746100865304470062255859375</LatitudeDegrees>
              <LongitudeDegrees>-69.275085590779781341552734375</LongitudeDegrees>
            </Position>
            <AltitudeMeters>1790.4000244140625</AltitudeMeters>
            <DistanceMeters>6878.2065093146</DistanceMeters>
          </Trackpoint>
          <Trackpoint>
            <Time>2021-08-29T15:11:56.000Z</Time>
            <Position>
              <LatitudeDegrees>-32.97459910623729228973388671875</LatitudeDegrees>
              <LongitudeDegrees>-69.27512993104755878448486328125</LongitudeDegrees>
            </Position>
            <AltitudeMeters>1790.800048828125</AltitudeMeters>
            <DistanceMeters>6882.5226473689</DistanceMeters>
          </Trackpoint>
          <Trackpoint>
            <Time>2021-08-29T15:11:58.000Z</Time>
            <Position>
              <LatitudeDegrees>-32.974585779011249542236328125</LatitudeDegrees>
              <LongitudeDegrees>-69.275174438953399658203125</LongitudeDegrees>
            </Position>
            <AltitudeMeters>1791.199951171875</AltitudeMeters>
            <DistanceMeters>6886.9349987617</DistanceMeters>
          </Trackpoint>
          <Trackpoint>
            <Time>2021-08-29T15:12:05.000Z</Time>
            <Position>
              <LatitudeDegrees>-32.974534146487712860107421875</LatitudeDegrees>
              <LongitudeDegrees>-69.275310896337032318115234375</LongitudeDegrees>
            </Position>
            <AltitudeMeters>1792.4000244140625</AltitudeMeters>
            <DistanceMeters>6900.9123269708</DistanceMeters>
          </Trackpoint>
          <Trackpoint>
            <Time>2021-08-29T15:12:09.000Z</Time>
            <Position>
              <LatitudeDegrees>-32.97450858168303966522216796875</LatitudeDegrees>
              <LongitudeDegrees>-69.2753849923610687255859375</LongitudeDegrees>
            </Position>
            <AltitudeMeters>1793.199951171875</AltitudeMeters>
            <DistanceMeters>6908.3935310049</DistanceMeters>
          </Trackpoint>
          <Trackpoint>
            <Time>2021-08-29T15:12:11.000Z</Time>
            <Position>
              <LatitudeDegrees>-32.974491901695728302001953125</LatitudeDegrees>
              <LongitudeDegrees>-69.27541474811732769012451171875</LongitudeDegrees>
            </Position>
            <AltitudeMeters>1793.5999755859375</AltitudeMeters>
            <DistanceMeters>6911.7357166013</DistanceMeters>
          </Trackpoint>
          <Trackpoint>
            <Time>2021-08-29T15:12:14.000Z</Time>
            <Position>
              <LatitudeDegrees>-32.9744679294526576995849609375</LatitudeDegrees>
              <LongitudeDegrees>-69.27546218968927860260009765625</LongitudeDegrees>
            </Position>
            <AltitudeMeters>1794</AltitudeMeters>
            <DistanceMeters>6916.9074751443</DistanceMeters>
          </Trackpoint>
          <Trackpoint>
            <Time>2021-08-29T15:12:19.000Z</Time>
            <Position>
              <LatitudeDegrees>-32.97443767078220844268798828125</LatitudeDegrees>
              <LongitudeDegrees>-69.27554793655872344970703125</LongitudeDegrees>
            </Position>
            <AltitudeMeters>1794.800048828125</AltitudeMeters>
            <DistanceMeters>6925.5939772462</DistanceMeters>
          </Trackpoint>
          <Trackpoint>
            <Time>2021-08-29T15:12:32.000Z</Time>
            <Position>
              <LatitudeDegrees>-32.97440246678888797760009765625</LatitudeDegrees>
              <LongitudeDegrees>-69.2757874913513660430908203125</LongitudeDegrees>
            </Position>
            <AltitudeMeters>1797</AltitudeMeters>
            <DistanceMeters>6948.302379775</DistanceMeters>
          </Trackpoint>
          <Trackpoint>
            <Time>2021-08-29T15:12:41.000Z</Time>
            <Position>
              <LatitudeDegrees>-32.9743428714573383331298828125</LatitudeDegrees>
              <LongitudeDegrees>-69.27594959735870361328125</LongitudeDegrees>
            </Position>
            <AltitudeMeters>1798.4000244140625</AltitudeMeters>
            <DistanceMeters>6964.8282876765</DistanceMeters>
          </Trackpoint>
          <Trackpoint>
            <Time>2021-08-29T15:12:43.000Z</Time>
            <Position>
              <LatitudeDegrees>-32.97432837076485157012939453125</LatitudeDegrees>
              <LongitudeDegrees>-69.27598354406654834747314453125</LongitudeDegrees>
            </Position>
            <AltitudeMeters>1798.5999755859375</AltitudeMeters>
            <DistanceMeters>6968.3864005435</DistanceMeters>
          </Trackpoint>
          <Trackpoint>
            <Time>2021-08-29T15:12:52.000Z</Time>
            <Position>
              <LatitudeDegrees>-32.97426802106201648712158203125</LatitudeDegrees>
              <LongitudeDegrees>-69.27615319378674030303955078125</LongitudeDegrees>
            </Position>
            <AltitudeMeters>1800.4000244140625</AltitudeMeters>
            <DistanceMeters>6985.5922723941</DistanceMeters>
          </Trackpoint>
          <Trackpoint>
            <Time>2021-08-29T15:13:01.000Z</Time>
            <Position>
              <LatitudeDegrees>-32.9741913266479969024658203125</LatitudeDegrees>
              <LongitudeDegrees>-69.27628495730459690093994140625</LongitudeDegrees>
            </Position>
            <AltitudeMeters>1802</AltitudeMeters>
            <DistanceMeters>7000.5667459494</DistanceMeters>
          </Trackpoint>
          <Trackpoint>
            <Time>2021-08-29T15:13:06.000Z</Time>
            <Position>
              <LatitudeDegrees>-32.97408613376319408416748046875</LatitudeDegrees>
              <LongitudeDegrees>-69.2762702889740467071533203125</LongitudeDegrees>
            </Position>
            <AltitudeMeters>1803.4000244140625</AltitudeMeters>
            <DistanceMeters>7012.3546557013</DistanceMeters>
          </Trackpoint>
          <Trackpoint>
            <Time>2021-08-29T15:13:11.000Z</Time>
            <Position>
              <LatitudeDegrees>-32.97402528114616870880126953125</LatitudeDegrees>
              <LongitudeDegrees>-69.276174567639827728271484375</LongitudeDegrees>
            </Position>
            <AltitudeMeters>1803.5999755859375</AltitudeMeters>
            <DistanceMeters>7023.5690158986</DistanceMeters>
          </Trackpoint>
          <Trackpoint>
            <Time>2021-08-29T15:13:17.000Z</Time>
            <Position>
              <LatitudeDegrees>-32.9740521870553493499755859375</LatitudeDegrees>
              <LongitudeDegrees>-69.27600919269025325775146484375</LongitudeDegrees>
            </Position>
            <AltitudeMeters>1800.4000244140625</AltitudeMeters>
            <DistanceMeters>7039.2981619152</DistanceMeters>
          </Trackpoint>
          <Trackpoint>
            <Time>2021-08-29T15:13:21.000Z</Time>
            <Position>
              <LatitudeDegrees>-32.97406844794750213623046875</LatitudeDegrees>
              <LongitudeDegrees>-69.27588866092264652252197265625</LongitudeDegrees>
            </Position>
            <AltitudeMeters>1798.5999755859375</AltitudeMeters>
            <DistanceMeters>7050.6974075055</DistanceMeters>
          </Trackpoint>
          <Trackpoint>
            <Time>2021-08-29T15:13:25.000Z</Time>
            <Position>
              <LatitudeDegrees>-32.9740840382874011993408203125</LatitudeDegrees>
              <LongitudeDegrees>-69.27577014081180095672607421875</LongitudeDegrees>
            </Position>
            <AltitudeMeters>1797.5999755859375</AltitudeMeters>
            <DistanceMeters>7061.9000858647</DistanceMeters>
          </Trackpoint>
          <Trackpoint>
            <Time>2021-08-29T15:13:29.000Z</Time>
            <Position>
              <LatitudeDegrees>-32.9740823619067668914794921875</LatitudeDegrees>
              <LongitudeDegrees>-69.2756584100425243377685546875</LongitudeDegrees>
            </Position>
            <AltitudeMeters>1796.5999755859375</AltitudeMeters>
            <DistanceMeters>7072.3348672117</DistanceMeters>
          </Trackpoint>
          <Trackpoint>
            <Time>2021-08-29T15:13:33.000Z</Time>
            <Position>
              <LatitudeDegrees>-32.97406115569174289703369140625</LatitudeDegrees>
              <LongitudeDegrees>-69.275576435029506683349609375</LongitudeDegrees>
            </Position>
            <AltitudeMeters>1796</AltitudeMeters>
            <DistanceMeters>7080.3447793919</DistanceMeters>
          </Trackpoint>
          <Trackpoint>
            <Time>2021-08-29T15:13:36.000Z</Time>
            <Position>
              <LatitudeDegrees>-32.97403181903064250946044921875</LatitudeDegrees>
              <LongitudeDegrees>-69.275524131953716278076171875</LongitudeDegrees>
            </Position>
            <AltitudeMeters>1795.5999755859375</AltitudeMeters>
            <DistanceMeters>7086.2195519125</DistanceMeters>
          </Trackpoint>
          <Trackpoint>
            <Time>2021-08-29T15:13:38.000Z</Time>
            <Position>
              <LatitudeDegrees>-32.974002063274383544921875</LatitudeDegrees>
              <LongitudeDegrees>-69.2755051888525485992431640625</LongitudeDegrees>
            </Position>
            <AltitudeMeters>1795.5999755859375</AltitudeMeters>
            <DistanceMeters>7089.9728064006</DistanceMeters>
          </Trackpoint>
          <Trackpoint>
            <Time>2021-08-29T15:13:39.000Z</Time>
            <Position>
              <LatitudeDegrees>-32.973985634744167327880859375</LatitudeDegrees>
              <LongitudeDegrees>-69.275500662624835968017578125</LongitudeDegrees>
            </Position>
            <AltitudeMeters>1795.5999755859375</AltitudeMeters>
            <DistanceMeters>7091.8494336447</DistanceMeters>
          </Trackpoint>
          <Trackpoint>
            <Time>2021-08-29T15:13:42.000Z</Time>
            <Position>
              <LatitudeDegrees>-32.97393274493515491485595703125</LatitudeDegrees>
              <LongitudeDegrees>-69.275500662624835968017578125</LongitudeDegrees>
            </Position>
            <AltitudeMeters>1795.800048828125</AltitudeMeters>
            <DistanceMeters>7097.7364900732</DistanceMeters>
          </Trackpoint>
          <Trackpoint>
            <Time>2021-08-29T15:13:47.000Z</Time>
            <Position>
              <LatitudeDegrees>-32.9738397896289825439453125</LatitudeDegrees>
              <LongitudeDegrees>-69.2755232937633991241455078125</LongitudeDegrees>
            </Position>
            <AltitudeMeters>1796.4000244140625</AltitudeMeters>
            <DistanceMeters>7108.2968614721</DistanceMeters>
          </Trackpoint>
          <Trackpoint>
            <Time>2021-08-29T15:13:50.000Z</Time>
            <Position>
              <LatitudeDegrees>-32.97378857620060443878173828125</LatitudeDegrees>
              <LongitudeDegrees>-69.275534860789775848388671875</LongitudeDegrees>
            </Position>
            <AltitudeMeters>1796.5999755859375</AltitudeMeters>
            <DistanceMeters>7114.0981626112</DistanceMeters>
          </Trackpoint>
          <Trackpoint>
            <Time>2021-08-29T15:13:56.000Z</Time>
            <Position>
              <LatitudeDegrees>-32.97368547879159450531005859375</LatitudeDegrees>
              <LongitudeDegrees>-69.2755574919283390045166015625</LongitudeDegrees>
            </Position>
            <AltitudeMeters>1797.199951171875</AltitudeMeters>
            <DistanceMeters>7125.7659572815</DistanceMeters>
          </Trackpoint>
          <Trackpoint>
            <Time>2021-08-29T15:14:01.000Z</Time>
            <Position>
              <LatitudeDegrees>-32.973592691123485565185546875</LatitudeDegrees>
              <LongitudeDegrees>-69.27560585550963878631591796875</LongitudeDegrees>
            </Position>
            <AltitudeMeters>1799.4000244140625</AltitudeMeters>
            <DistanceMeters>7137.0377439884</DistanceMeters>
          </Trackpoint>
          <Trackpoint>
            <Time>2021-08-29T15:14:07.000Z</Time>
            <Position>
              <LatitudeDegrees>-32.9734745062887668609619140625</LatitudeDegrees>
              <LongitudeDegrees>-69.2756547220051288604736328125</LongitudeDegrees>
            </Position>
            <AltitudeMeters>1802</AltitudeMeters>
            <DistanceMeters>7150.9610223775</DistanceMeters>
          </Trackpoint>
          <Trackpoint>
            <Time>2021-08-29T15:14:15.000Z</Time>
            <Position>
              <LatitudeDegrees>-32.97332857735455036163330078125</LatitudeDegrees>
              <LongitudeDegrees>-69.27567609585821628570556640625</LongitudeDegrees>
            </Position>
            <AltitudeMeters>1803.800048828125</AltitudeMeters>
            <DistanceMeters>7167.3254944747</DistanceMeters>
          </Trackpoint>
          <Trackpoint>
            <Time>2021-08-29T15:14:23.000Z</Time>
            <Position>
              <LatitudeDegrees>-32.97316663898527622222900390625</LatitudeDegrees>
              <LongitudeDegrees>-69.2756268940865993499755859375</LongitudeDegrees>
            </Position>
            <AltitudeMeters>1803.800048828125</AltitudeMeters>
            <DistanceMeters>7185.9259877175</DistanceMeters>
          </Trackpoint>
          <Trackpoint>
            <Time>2021-08-29T15:14:34.000Z</Time>
            <Position>
              <LatitudeDegrees>-32.97296463511884212493896484375</LatitudeDegrees>
              <LongitudeDegrees>-69.2755061946809291839599609375</LongitudeDegrees>
            </Position>
            <AltitudeMeters>1802.800048828125</AltitudeMeters>
            <DistanceMeters>7211.0759526199</DistanceMeters>
          </Trackpoint>
          <Trackpoint>
            <Time>2021-08-29T15:14:35.000Z</Time>
            <Position>
              <LatitudeDegrees>-32.97294326126575469970703125</LatitudeDegrees>
              <LongitudeDegrees>-69.2754887603223323822021484375</LongitudeDegrees>
            </Position>
            <AltitudeMeters>1802.5999755859375</AltitudeMeters>
            <DistanceMeters>7213.9582555756</DistanceMeters>
          </Trackpoint>
          <Trackpoint>
            <Time>2021-08-29T15:14:39.000Z</Time>
            <Position>
              <LatitudeDegrees>-32.97288349829614162445068359375</LatitudeDegrees>
              <LongitudeDegrees>-69.2754206992685794830322265625</LongitudeDegrees>
            </Position>
            <AltitudeMeters>1801.5999755859375</AltitudeMeters>
            <DistanceMeters>7223.1586869017</DistanceMeters>
          </Trackpoint>
          <Trackpoint>
            <Time>2021-08-29T15:14:45.000Z</Time>
            <Position>
              <LatitudeDegrees>-32.97279884107410907745361328125</LatitudeDegrees>
              <LongitudeDegrees>-69.27531684748828411102294921875</LongitudeDegrees>
            </Position>
            <AltitudeMeters>1800</AltitudeMeters>
            <DistanceMeters>7236.6798897951</DistanceMeters>
          </Trackpoint>
          <Trackpoint>
            <Time>2021-08-29T15:14:47.000Z</Time>
            <Position>
              <LatitudeDegrees>-32.97276246361434459686279296875</LatitudeDegrees>
              <LongitudeDegrees>-69.27529790438711643218994140625</LongitudeDegrees>
            </Position>
            <AltitudeMeters>1800</AltitudeMeters>
            <DistanceMeters>7241.0983765578</DistanceMeters>
          </Trackpoint>
          <Trackpoint>
            <Time>2021-08-29T15:14:52.000Z</Time>
            <Position>
              <LatitudeDegrees>-32.97265199013054370880126953125</LatitudeDegrees>
              <LongitudeDegrees>-69.275278039276599884033203125</LongitudeDegrees>
            </Position>
            <AltitudeMeters>1800.4000244140625</AltitudeMeters>
            <DistanceMeters>7253.5334490958</DistanceMeters>
          </Trackpoint>
          <Trackpoint>
            <Time>2021-08-29T15:15:00.000Z</Time>
            <Position>
              <LatitudeDegrees>-32.9724794067442417144775390625</LatitudeDegrees>
              <LongitudeDegrees>-69.27531852386891841888427734375</LongitudeDegrees>
            </Position>
            <AltitudeMeters>1802</AltitudeMeters>
            <DistanceMeters>7273.110797348</DistanceMeters>
          </Trackpoint>
          <Trackpoint>
            <Time>2021-08-29T15:15:04.000Z</Time>
            <Position>
              <LatitudeDegrees>-32.97239114530384540557861328125</LatitudeDegrees>
              <LongitudeDegrees>-69.2753261514008045196533203125</LongitudeDegrees>
            </Position>
            <AltitudeMeters>1802.800048828125</AltitudeMeters>
            <DistanceMeters>7282.9601684567</DistanceMeters>
          </Trackpoint>
          <Trackpoint>
            <Time>2021-08-29T15:15:09.000Z</Time>
            <Position>
              <LatitudeDegrees>-32.972284443676471710205078125</LatitudeDegrees>
              <LongitudeDegrees>-69.275314919650554656982421875</LongitudeDegrees>
            </Position>
            <AltitudeMeters>1803.199951171875</AltitudeMeters>
            <DistanceMeters>7294.8825186153</DistanceMeters>
          </Trackpoint>
          <Trackpoint>
            <Time>2021-08-29T15:15:11.000Z</Time>
            <Position>
              <LatitudeDegrees>-32.97224245034158229827880859375</LatitudeDegrees>
              <LongitudeDegrees>-69.2753016762435436248779296875</LongitudeDegrees>
            </Position>
            <AltitudeMeters>1803.199951171875</AltitudeMeters>
            <DistanceMeters>7299.7167546291</DistanceMeters>
          </Trackpoint>
          <Trackpoint>
            <Time>2021-08-29T15:15:18.000Z</Time>
            <Position>
              <LatitudeDegrees>-32.97211068682372570037841796875</LatitudeDegrees>
              <LongitudeDegrees>-69.275194220244884490966796875</LongitudeDegrees>
            </Position>
            <AltitudeMeters>1803.199951171875</AltitudeMeters>
            <DistanceMeters>7317.4862420448</DistanceMeters>
          </Trackpoint>
          <Trackpoint>
            <Time>2021-08-29T15:15:27.000Z</Time>
            <Position>
              <LatitudeDegrees>-32.972028963267803192138671875</LatitudeDegrees>
              <LongitudeDegrees>-69.27499137818813323974609375</LongitudeDegrees>
            </Position>
            <AltitudeMeters>1802.4000244140625</AltitudeMeters>
            <DistanceMeters>7338.4974630295</DistanceMeters>
          </Trackpoint>
          <Trackpoint>
            <Time>2021-08-29T15:15:33.000Z</Time>
            <Position>
              <LatitudeDegrees>-32.971947826445102691650390625</LatitudeDegrees>
              <LongitudeDegrees>-69.27489171735942363739013671875</LongitudeDegrees>
            </Position>
            <AltitudeMeters>1802.4000244140625</AltitudeMeters>
            <DistanceMeters>7351.4646930137</DistanceMeters>
          </Trackpoint>
          <Trackpoint>
            <Time>2021-08-29T15:15:34.000Z</Time>
            <Position>
              <LatitudeDegrees>-32.97192670404911041259765625</LatitudeDegrees>
              <LongitudeDegrees>-69.2748849280178546905517578125</LongitudeDegrees>
            </Position>
            <AltitudeMeters>1802.4000244140625</AltitudeMeters>
            <DistanceMeters>7353.8985644456</DistanceMeters>
          </Trackpoint>
          <Trackpoint>
            <Time>2021-08-29T15:15:43.000Z</Time>
            <Position>
              <LatitudeDegrees>-32.9717676155269145965576171875</LatitudeDegrees>
              <LongitudeDegrees>-69.27482164464890956878662109375</LongitudeDegrees>
            </Position>
            <AltitudeMeters>1803</AltitudeMeters>
            <DistanceMeters>7372.5654492907</DistanceMeters>
          </Trackpoint>
          <Trackpoint>
            <Time>2021-08-29T15:15:50.000Z</Time>
            <Position>
              <LatitudeDegrees>-32.971648089587688446044921875</LatitudeDegrees>
              <LongitudeDegrees>-69.27479851059615612030029296875</LongitudeDegrees>
            </Position>
            <AltitudeMeters>1802.5999755859375</AltitudeMeters>
            <DistanceMeters>7386.0431723086</DistanceMeters>
          </Trackpoint>
          <Trackpoint>
            <Time>2021-08-29T15:15:55.000Z</Time>
            <Position>
              <LatitudeDegrees>-32.9715262167155742645263671875</LatitudeDegrees>
              <LongitudeDegrees>-69.2747994326055049896240234375</LongitudeDegrees>
            </Position>
            <AltitudeMeters>1802.199951171875</AltitudeMeters>
            <DistanceMeters>7399.608381403</DistanceMeters>
          </Trackpoint>
          <Trackpoint>
            <Time>2021-08-29T15:16:01.000Z</Time>
            <Position>
              <LatitudeDegrees>-32.97136754728853702545166015625</LatitudeDegrees>
              <LongitudeDegrees>-69.2748530767858028411865234375</LongitudeDegrees>
            </Position>
            <AltitudeMeters>1802</AltitudeMeters>
            <DistanceMeters>7417.9652701007</DistanceMeters>
          </Trackpoint>
          <Trackpoint>
            <Time>2021-08-29T15:16:08.000Z</Time>
            <Position>
              <LatitudeDegrees>-32.97121030278503894805908203125</LatitudeDegrees>
              <LongitudeDegrees>-69.27499003708362579345703125</LongitudeDegrees>
            </Position>
            <AltitudeMeters>1802</AltitudeMeters>
            <DistanceMeters>7439.6415697759</DistanceMeters>
          </Trackpoint>
          <Trackpoint>
            <Time>2021-08-29T15:16:15.000Z</Time>
            <Position>
              <LatitudeDegrees>-32.9711513780057430267333984375</LatitudeDegrees>
              <LongitudeDegrees>-69.275262616574764251708984375</LongitudeDegrees>
            </Position>
            <AltitudeMeters>1803</AltitudeMeters>
            <DistanceMeters>7465.9255192193</DistanceMeters>
          </Trackpoint>
          <Trackpoint>
            <Time>2021-08-29T15:16:17.000Z</Time>
            <Position>
              <LatitudeDegrees>-32.9711403138935565948486328125</LatitudeDegrees>
              <LongitudeDegrees>-69.2753734253346920013427734375</LongitudeDegrees>
            </Position>
            <AltitudeMeters>1803.800048828125</AltitudeMeters>
            <DistanceMeters>7476.3455786799</DistanceMeters>
          </Trackpoint>
          <Trackpoint>
            <Time>2021-08-29T15:16:20.000Z</Time>
            <Position>
              <LatitudeDegrees>-32.9711010865867137908935546875</LatitudeDegrees>
              <LongitudeDegrees>-69.27549839951097965240478515625</LongitudeDegrees>
            </Position>
            <AltitudeMeters>1804.800048828125</AltitudeMeters>
            <DistanceMeters>7488.8053168082</DistanceMeters>
          </Trackpoint>
          <Trackpoint>
            <Time>2021-08-29T15:16:26.000Z</Time>
            <Position>
              <LatitudeDegrees>-32.97098985873162746429443359375</LatitudeDegrees>
              <LongitudeDegrees>-69.275644831359386444091796875</LongitudeDegrees>
            </Position>
            <AltitudeMeters>1805.4000244140625</AltitudeMeters>
            <DistanceMeters>7507.2502933628</DistanceMeters>
          </Trackpoint>
          <Trackpoint>
            <Time>2021-08-29T15:16:32.000Z</Time>
            <Position>
              <LatitudeDegrees>-32.9708506353199481964111328125</LatitudeDegrees>
              <LongitudeDegrees>-69.2756805382668972015380859375</LongitudeDegrees>
            </Position>
            <AltitudeMeters>1805.5999755859375</AltitudeMeters>
            <DistanceMeters>7523.1006809551</DistanceMeters>
          </Trackpoint>
          <Trackpoint>
            <Time>2021-08-29T15:16:36.000Z</Time>
            <Position>
              <LatitudeDegrees>-32.97076907940208911895751953125</LatitudeDegrees>
              <LongitudeDegrees>-69.27567592822015285491943359375</LongitudeDegrees>
            </Position>
            <AltitudeMeters>1806</AltitudeMeters>
            <DistanceMeters>7532.1885343406</DistanceMeters>
          </Trackpoint>
          <Trackpoint>
            <Time>2021-08-29T15:16:40.000Z</Time>
            <Position>
              <LatitudeDegrees>-32.97069733031094074249267578125</LatitudeDegrees>
              <LongitudeDegrees>-69.2756396345794200897216796875</LongitudeDegrees>
            </Position>
            <AltitudeMeters>1806.199951171875</AltitudeMeters>
            <DistanceMeters>7540.8635938265</DistanceMeters>
          </Trackpoint>
          <Trackpoint>
            <Time>2021-08-29T15:16:44.000Z</Time>
            <Position>
              <LatitudeDegrees>-32.97063664533197879791259765625</LatitudeDegrees>
              <LongitudeDegrees>-69.275569729506969451904296875</LongitudeDegrees>
            </Position>
            <AltitudeMeters>1806</AltitudeMeters>
            <DistanceMeters>7550.2573101843</DistanceMeters>
          </Trackpoint>
          <Trackpoint>
            <Time>2021-08-29T15:16:48.000Z</Time>
            <Position>
              <LatitudeDegrees>-32.97057948075234889984130859375</LatitudeDegrees>
              <LongitudeDegrees>-69.27549026906490325927734375</LongitudeDegrees>
            </Position>
            <AltitudeMeters>1805.5999755859375</AltitudeMeters>
            <DistanceMeters>7560.0316750627</DistanceMeters>
          </Trackpoint>
          <Trackpoint>
            <Time>2021-08-29T15:16:55.000Z</Time>
            <Position>
              <LatitudeDegrees>-32.97045727260410785675048828125</LatitudeDegrees>
              <LongitudeDegrees>-69.275377281010150909423828125</LongitudeDegrees>
            </Position>
            <AltitudeMeters>1805.4000244140625</AltitudeMeters>
            <DistanceMeters>7577.2459420696</DistanceMeters>
          </Trackpoint>
          <Trackpoint>
            <Time>2021-08-29T15:16:57.000Z</Time>
            <Position>
              <LatitudeDegrees>-32.97042340971529483795166015625</LatitudeDegrees>
              <LongitudeDegrees>-69.2753462679684162139892578125</LongitudeDegrees>
            </Position>
            <AltitudeMeters>1805.4000244140625</AltitudeMeters>
            <DistanceMeters>7581.9972777881</DistanceMeters>
          </Trackpoint>
          <Trackpoint>
            <Time>2021-08-29T15:17:02.000Z</Time>
            <Position>
              <LatitudeDegrees>-32.970336489379405975341796875</LatitudeDegrees>
              <LongitudeDegrees>-69.27527627907693386077880859375</LongitudeDegrees>
            </Position>
            <AltitudeMeters>1805.4000244140625</AltitudeMeters>
            <DistanceMeters>7593.6724224948</DistanceMeters>
          </Trackpoint>
          <Trackpoint>
            <Time>2021-08-29T15:17:05.000Z</Time>
            <Position>
              <LatitudeDegrees>-32.97028242610394954681396484375</LatitudeDegrees>
              <LongitudeDegrees>-69.27523554302752017974853515625</LongitudeDegrees>
            </Position>
            <AltitudeMeters>1805.5999755859375</AltitudeMeters>
            <DistanceMeters>7600.7911856601</DistanceMeters>
          </Trackpoint>
          <Trackpoint>
            <Time>2021-08-29T15:17:09.000Z</Time>
            <Position>
              <LatitudeDegrees>-32.97022140584886074066162109375</LatitudeDegrees>
              <LongitudeDegrees>-69.27518357522785663604736328125</LongitudeDegrees>
            </Position>
            <AltitudeMeters>1805.800048828125</AltitudeMeters>
            <DistanceMeters>7609.138404948</DistanceMeters>
          </Trackpoint>
          <Trackpoint>
            <Time>2021-08-29T15:17:15.000Z</Time>
            <Position>
              <LatitudeDegrees>-32.970117218792438507080078125</LatitudeDegrees>
              <LongitudeDegrees>-69.2751521430909633636474609375</LongitudeDegrees>
            </Position>
            <AltitudeMeters>1806.199951171875</AltitudeMeters>
            <DistanceMeters>7621.1004529053</DistanceMeters>
          </Trackpoint>
          <Trackpoint>
            <Time>2021-08-29T15:17:17.000Z</Time>
            <Position>
              <LatitudeDegrees>-32.97007908113300800323486328125</LatitudeDegrees>
              <LongitudeDegrees>-69.275160022079944610595703125</LongitudeDegrees>
            </Position>
            <AltitudeMeters>1806.5999755859375</AltitudeMeters>
            <DistanceMeters>7625.4092621571</DistanceMeters>
          </Trackpoint>
          <Trackpoint>
            <Time>2021-08-29T15:17:23.000Z</Time>
            <Position>
              <LatitudeDegrees>-32.97003666870296001434326171875</LatitudeDegrees>
              <LongitudeDegrees>-69.27518441341817378997802734375</LongitudeDegrees>
            </Position>
            <AltitudeMeters>1806.5999755859375</AltitudeMeters>
            <DistanceMeters>7630.6503968188</DistanceMeters>
          </Trackpoint>
          <Trackpoint>
            <Time>2021-08-29T15:17:25.000Z</Time>
            <Position>
              <LatitudeDegrees>-32.97003750689327716827392578125</LatitudeDegrees>
              <LongitudeDegrees>-69.2751838266849517822265625</LongitudeDegrees>
            </Position>
            <AltitudeMeters>1806.5999755859375</AltitudeMeters>
            <DistanceMeters>7630.7847848871</DistanceMeters>
          </Trackpoint>
          <Trackpoint>
            <Time>2021-08-29T15:17:30.000Z</Time>
            <Position>
              <LatitudeDegrees>-32.97004220075905323028564453125</LatitudeDegrees>
              <LongitudeDegrees>-69.27518106065690517425537109375</LongitudeDegrees>
            </Position>
            <AltitudeMeters>1806.5999755859375</AltitudeMeters>
            <DistanceMeters>7631.3628098246</DistanceMeters>
          </Trackpoint>
          <Trackpoint>
            <Time>2021-08-29T15:17:33.000Z</Time>
            <Position>
              <LatitudeDegrees>-32.97004236839711666107177734375</LatitudeDegrees>
              <LongitudeDegrees>-69.27518089301884174346923828125</LongitudeDegrees>
            </Position>
            <AltitudeMeters>1806.5999755859375</AltitudeMeters>
            <DistanceMeters>7631.3628098246</DistanceMeters>
          </Trackpoint>
          <Trackpoint>
            <Time>2021-08-29T15:17:35.000Z</Time>
            <Position>
              <LatitudeDegrees>-32.97004236839711666107177734375</LatitudeDegrees>
              <LongitudeDegrees>-69.27518089301884174346923828125</LongitudeDegrees>
            </Position>
            <AltitudeMeters>1806.5999755859375</AltitudeMeters>
            <DistanceMeters>7631.3628098246</DistanceMeters>
          </Trackpoint>
          <Trackpoint>
            <Time>2021-08-29T15:17:43.000Z</Time>
            <Position>
              <LatitudeDegrees>-32.97004236839711666107177734375</LatitudeDegrees>
              <LongitudeDegrees>-69.27518223412334918975830078125</LongitudeDegrees>
            </Position>
            <AltitudeMeters>1806.5999755859375</AltitudeMeters>
            <DistanceMeters>7631.3628098246</DistanceMeters>
          </Trackpoint>
          <Trackpoint>
            <Time>2021-08-29T15:17:56.000Z</Time>
            <Position>
              <LatitudeDegrees>-32.97004320658743381500244140625</LatitudeDegrees>
              <LongitudeDegrees>-69.27518256939947605133056640625</LongitudeDegrees>
            </Position>
            <AltitudeMeters>1806.5999755859375</AltitudeMeters>
            <DistanceMeters>7631.3628098246</DistanceMeters>
          </Trackpoint>
          <Trackpoint>
            <Time>2021-08-29T15:17:59.000Z</Time>
            <Position>
              <LatitudeDegrees>-32.970044128596782684326171875</LatitudeDegrees>
              <LongitudeDegrees>-69.27518223412334918975830078125</LongitudeDegrees>
            </Position>
            <AltitudeMeters>1806.5999755859375</AltitudeMeters>
            <DistanceMeters>7631.4971978929</DistanceMeters>
          </Trackpoint>
          <Trackpoint>
            <Time>2021-08-29T15:18:03.000Z</Time>
            <Position>
              <LatitudeDegrees>-32.9700459726154804229736328125</LatitudeDegrees>
              <LongitudeDegrees>-69.27518181502819061279296875</LongitudeDegrees>
            </Position>
            <AltitudeMeters>1806.5999755859375</AltitudeMeters>
            <DistanceMeters>7631.7096840859</DistanceMeters>
          </Trackpoint>
          <Trackpoint>
            <Time>2021-08-29T15:18:09.000Z</Time>
            <Position>
              <LatitudeDegrees>-32.97004957683384418487548828125</LatitudeDegrees>
              <LongitudeDegrees>-69.27518039010465145111083984375</LongitudeDegrees>
            </Position>
            <AltitudeMeters>1806.5999755859375</AltitudeMeters>
            <DistanceMeters>7632.1346564719</DistanceMeters>
          </Trackpoint>
          <Trackpoint>
            <Time>2021-08-29T15:18:11.000Z</Time>
            <Position>
              <LatitudeDegrees>-32.97005158849060535430908203125</LatitudeDegrees>
              <LongitudeDegrees>-69.27518039010465145111083984375</LongitudeDegrees>
            </Position>
            <AltitudeMeters>1806.5999755859375</AltitudeMeters>
            <DistanceMeters>7632.3674234341</DistanceMeters>
          </Trackpoint>
          <Trackpoint>
            <Time>2021-08-29T15:18:13.000Z</Time>
            <Position>
              <LatitudeDegrees>-32.9700523428618907928466796875</LatitudeDegrees>
              <LongitudeDegrees>-69.27518039010465145111083984375</LongitudeDegrees>
            </Position>
            <AltitudeMeters>1806.5999755859375</AltitudeMeters>
            <DistanceMeters>7632.4624501484</DistanceMeters>
          </Trackpoint>
          <Trackpoint>
            <Time>2021-08-29T15:18:14.000Z</Time>
            <Position>
              <LatitudeDegrees>-32.9700526781380176544189453125</LatitudeDegrees>
              <LongitudeDegrees>-69.2751803062856197357177734375</LongitudeDegrees>
            </Position>
            <AltitudeMeters>1806.5999755859375</AltitudeMeters>
            <DistanceMeters>7632.4624501484</DistanceMeters>
          </Trackpoint>
          <Trackpoint>
            <Time>2021-08-29T15:18:16.000Z</Time>
            <Position>
              <LatitudeDegrees>-32.97005318105220794677734375</LatitudeDegrees>
              <LongitudeDegrees>-69.2751799710094928741455078125</LongitudeDegrees>
            </Position>
            <AltitudeMeters>1806.5999755859375</AltitudeMeters>
            <DistanceMeters>7632.4624501484</DistanceMeters>
          </Trackpoint>
          <Trackpoint>
            <Time>2021-08-29T15:18:18.000Z</Time>
            <Position>
              <LatitudeDegrees>-32.9700551927089691162109375</LatitudeDegrees>
              <LongitudeDegrees>-69.275179803371429443359375</LongitudeDegrees>
            </Position>
            <AltitudeMeters>1806.5999755859375</AltitudeMeters>
            <DistanceMeters>7632.6952171106</DistanceMeters>
          </Trackpoint>
          <Trackpoint>
            <Time>2021-08-29T15:18:24.000Z</Time>
            <Position>
              <LatitudeDegrees>-32.9700573720037937164306640625</LatitudeDegrees>
              <LongitudeDegrees>-69.27517904900014400482177734375</LongitudeDegrees>
            </Position>
            <AltitudeMeters>1806.5999755859375</AltitudeMeters>
            <DistanceMeters>7632.9639932471</DistanceMeters>
          </Trackpoint>
          <Trackpoint>
            <Time>2021-08-29T15:18:29.000Z</Time>
            <Position>
              <LatitudeDegrees>-32.9700583778321743011474609375</LatitudeDegrees>
              <LongitudeDegrees>-69.27517686970531940460205078125</LongitudeDegrees>
            </Position>
            <AltitudeMeters>1806.5999755859375</AltitudeMeters>
            <DistanceMeters>7633.2327693836</DistanceMeters>
          </Trackpoint>
          <Trackpoint>
            <Time>2021-08-29T15:18:33.000Z</Time>
            <Position>
              <LatitudeDegrees>-32.9700590483844280242919921875</LatitudeDegrees>
              <LongitudeDegrees>-69.27517469041049480438232421875</LongitudeDegrees>
            </Position>
            <AltitudeMeters>1806.5999755859375</AltitudeMeters>
            <DistanceMeters>7633.4655363457</DistanceMeters>
          </Trackpoint>
          <Trackpoint>
            <Time>2021-08-29T15:18:34.000Z</Time>
            <Position>
              <LatitudeDegrees>-32.97005913220345973968505859375</LatitudeDegrees>
              <LongitudeDegrees>-69.27517452277243137359619140625</LongitudeDegrees>
            </Position>
            <AltitudeMeters>1806.5999755859375</AltitudeMeters>
            <DistanceMeters>7633.4655363457</DistanceMeters>
          </Trackpoint>
          <Trackpoint>
            <Time>2021-08-29T15:18:37.000Z</Time>
            <Position>
              <LatitudeDegrees>-32.97005946747958660125732421875</LatitudeDegrees>
              <LongitudeDegrees>-69.2751732654869556427001953125</LongitudeDegrees>
            </Position>
            <AltitudeMeters>1806.5999755859375</AltitudeMeters>
            <DistanceMeters>7633.5605630601</DistanceMeters>
          </Trackpoint>
          <Trackpoint>
            <Time>2021-08-29T15:18:39.000Z</Time>
            <Position>
              <LatitudeDegrees>-32.97005963511765003204345703125</LatitudeDegrees>
              <LongitudeDegrees>-69.27517284639179706573486328125</LongitudeDegrees>
            </Position>
            <AltitudeMeters>1806.5999755859375</AltitudeMeters>
            <DistanceMeters>7633.5605630601</DistanceMeters>
          </Trackpoint>
          <Trackpoint>
            <Time>2021-08-29T15:18:45.000Z</Time>
            <Position>
              <LatitudeDegrees>-32.97006097622215747833251953125</LatitudeDegrees>
              <LongitudeDegrees>-69.27517251111567020416259765625</LongitudeDegrees>
            </Position>
            <AltitudeMeters>1806.5999755859375</AltitudeMeters>
            <DistanceMeters>7633.7506164888</DistanceMeters>
          </Trackpoint>
          <Trackpoint>
            <Time>2021-08-29T15:18:55.000Z</Time>
            <Position>
              <LatitudeDegrees>-32.9700406081974506378173828125</LatitudeDegrees>
              <LongitudeDegrees>-69.2751900292932987213134765625</LongitudeDegrees>
            </Position>
            <AltitudeMeters>1806.5999755859375</AltitudeMeters>
            <DistanceMeters>7636.5470510403</DistanceMeters>
          </Trackpoint>
          <Trackpoint>
            <Time>2021-08-29T15:18:57.000Z</Time>
            <Position>
              <LatitudeDegrees>-32.97000179998576641082763671875</LatitudeDegrees>
              <LongitudeDegrees>-69.2752316035330295562744140625</LongitudeDegrees>
            </Position>
            <AltitudeMeters>1806.800048828125</AltitudeMeters>
            <DistanceMeters>7642.354575084</DistanceMeters>
          </Trackpoint>
          <Trackpoint>
            <Time>2021-08-29T15:19:01.000Z</Time>
            <Position>
              <LatitudeDegrees>-32.96992217190563678741455078125</LatitudeDegrees>
              <LongitudeDegrees>-69.27531768567860126495361328125</LongitudeDegrees>
            </Position>
            <AltitudeMeters>1807.4000244140625</AltitudeMeters>
            <DistanceMeters>7654.3196422356</DistanceMeters>
          </Trackpoint>
          <Trackpoint>
            <Time>2021-08-29T15:19:05.000Z</Time>
            <Position>
              <LatitudeDegrees>-32.9698498360812664031982421875</LatitudeDegrees>
              <LongitudeDegrees>-69.27540712058544158935546875</LongitudeDegrees>
            </Position>
            <AltitudeMeters>1808</AltitudeMeters>
            <DistanceMeters>7665.919909438</DistanceMeters>
          </Trackpoint>
          <Trackpoint>
            <Time>2021-08-29T15:19:09.000Z</Time>
            <Position>
              <LatitudeDegrees>-32.969804070889949798583984375</LatitudeDegrees>
              <LongitudeDegrees>-69.27548264153301715850830078125</LongitudeDegrees>
            </Position>
            <AltitudeMeters>1808.4000244140625</AltitudeMeters>
            <DistanceMeters>7674.6188772274</DistanceMeters>
          </Trackpoint>
          <Trackpoint>
            <Time>2021-08-29T15:19:11.000Z</Time>
            <Position>
              <LatitudeDegrees>-32.96977817080914974212646484375</LatitudeDegrees>
              <LongitudeDegrees>-69.275516755878925323486328125</LongitudeDegrees>
            </Position>
            <AltitudeMeters>1808.5999755859375</AltitudeMeters>
            <DistanceMeters>7678.9150937316</DistanceMeters>
          </Trackpoint>
          <Trackpoint>
            <Time>2021-08-29T15:19:13.000Z</Time>
            <Position>
              <LatitudeDegrees>-32.969753444194793701171875</LatitudeDegrees>
              <LongitudeDegrees>-69.275543577969074249267578125</LongitudeDegrees>
            </Position>
            <AltitudeMeters>1808.800048828125</AltitudeMeters>
            <DistanceMeters>7682.6369396802</DistanceMeters>
          </Trackpoint>
          <Trackpoint>
            <Time>2021-08-29T15:19:18.000Z</Time>
            <Position>
              <LatitudeDegrees>-32.96968731097877025604248046875</LatitudeDegrees>
              <LongitudeDegrees>-69.27560694515705108642578125</LongitudeDegrees>
            </Position>
            <AltitudeMeters>1809.4000244140625</AltitudeMeters>
            <DistanceMeters>7692.0814669375</DistanceMeters>
          </Trackpoint>
          <Trackpoint>
            <Time>2021-08-29T15:19:21.000Z</Time>
            <Position>
              <LatitudeDegrees>-32.96961556188762187957763671875</LatitudeDegrees>
              <LongitudeDegrees>-69.27563083358108997344970703125</LongitudeDegrees>
            </Position>
            <AltitudeMeters>1809.5999755859375</AltitudeMeters>
            <DistanceMeters>7700.3727860103</DistanceMeters>
          </Trackpoint>
          <Trackpoint>
            <Time>2021-08-29T15:19:24.000Z</Time>
            <Position>
              <LatitudeDegrees>-32.96952034346759319305419921875</LatitudeDegrees>
              <LongitudeDegrees>-69.27564390935003757476806640625</LongitudeDegrees>
            </Position>
            <AltitudeMeters>1809.800048828125</AltitudeMeters>
            <DistanceMeters>7711.0407780155</DistanceMeters>
          </Trackpoint>
          <Trackpoint>
            <Time>2021-08-29T15:19:26.000Z</Time>
            <Position>
              <LatitudeDegrees>-32.96941288746893405914306640625</LatitudeDegrees>
              <LongitudeDegrees>-69.2756433226168155670166015625</LongitudeDegrees>
            </Position>
            <AltitudeMeters>1810</AltitudeMeters>
            <DistanceMeters>7723.0005610768</DistanceMeters>
          </Trackpoint>
          <Trackpoint>
            <Time>2021-08-29T15:19:31.000Z</Time>
            <Position>
              <LatitudeDegrees>-32.96918054111301898956298828125</LatitudeDegrees>
              <LongitudeDegrees>-69.2756144888699054718017578125</LongitudeDegrees>
            </Position>
            <AltitudeMeters>1810.199951171875</AltitudeMeters>
            <DistanceMeters>7749.0010926656</DistanceMeters>
          </Trackpoint>
          <Trackpoint>
            <Time>2021-08-29T15:19:37.000Z</Time>
            <Position>
              <LatitudeDegrees>-32.969010807573795318603515625</LatitudeDegrees>
              <LongitudeDegrees>-69.27560971118509769439697265625</LongitudeDegrees>
            </Position>
            <AltitudeMeters>1810</AltitudeMeters>
            <DistanceMeters>7767.8982724301</DistanceMeters>
          </Trackpoint>
          <Trackpoint>
            <Time>2021-08-29T15:19:41.000Z</Time>
            <Position>
              <LatitudeDegrees>-32.968851886689662933349609375</LatitudeDegrees>
              <LongitudeDegrees>-69.2755390517413616180419921875</LongitudeDegrees>
            </Position>
            <AltitudeMeters>1809.199951171875</AltitudeMeters>
            <DistanceMeters>7786.7768067242</DistanceMeters>
          </Trackpoint>
          <Trackpoint>
            <Time>2021-08-29T15:19:48.000Z</Time>
            <Position>
              <LatitudeDegrees>-32.96854737214744091033935546875</LatitudeDegrees>
              <LongitudeDegrees>-69.27536764182150363922119140625</LongitudeDegrees>
            </Position>
            <AltitudeMeters>1807.5999755859375</AltitudeMeters>
            <DistanceMeters>7824.2592748054</DistanceMeters>
          </Trackpoint>
          <Trackpoint>
            <Time>2021-08-29T15:19:53.000Z</Time>
            <Position>
              <LatitudeDegrees>-32.96839666552841663360595703125</LatitudeDegrees>
              <LongitudeDegrees>-69.275331683456897735595703125</LongitudeDegrees>
            </Position>
            <AltitudeMeters>1807.4000244140625</AltitudeMeters>
            <DistanceMeters>7841.3661949664</DistanceMeters>
          </Trackpoint>
          <Trackpoint>
            <Time>2021-08-29T15:19:58.000Z</Time>
            <Position>
              <LatitudeDegrees>-32.96823422424495220184326171875</LatitudeDegrees>
              <LongitudeDegrees>-69.2754300870001316070556640625</LongitudeDegrees>
            </Position>
            <AltitudeMeters>1807.800048828125</AltitudeMeters>
            <DistanceMeters>7861.6472201383</DistanceMeters>
          </Trackpoint>
          <Trackpoint>
            <Time>2021-08-29T15:20:00.000Z</Time>
            <Position>
              <LatitudeDegrees>-32.96815308742225170135498046875</LatitudeDegrees>
              <LongitudeDegrees>-69.27549588494002819061279296875</LongitudeDegrees>
            </Position>
            <AltitudeMeters>1808</AltitudeMeters>
            <DistanceMeters>7872.5699198951</DistanceMeters>
          </Trackpoint>
          <Trackpoint>
            <Time>2021-08-29T15:20:02.000Z</Time>
            <Position>
              <LatitudeDegrees>-32.9680420272052288055419921875</LatitudeDegrees>
              <LongitudeDegrees>-69.275548271834850311279296875</LongitudeDegrees>
            </Position>
            <AltitudeMeters>1808.199951171875</AltitudeMeters>
            <DistanceMeters>7885.8638142111</DistanceMeters>
          </Trackpoint>
          <Trackpoint>
            <Time>2021-08-29T15:20:03.000Z</Time>
            <Position>
              <LatitudeDegrees>-32.96799249015748500823974609375</LatitudeDegrees>
              <LongitudeDegrees>-69.27556092850863933563232421875</LongitudeDegrees>
            </Position>
            <AltitudeMeters>1808</AltitudeMeters>
            <DistanceMeters>7891.5017100139</DistanceMeters>
          </Trackpoint>
          <Trackpoint>
            <Time>2021-08-29T15:20:05.000Z</Time>
            <Position>
              <LatitudeDegrees>-32.967916466295719146728515625</LatitudeDegrees>
              <LongitudeDegrees>-69.2755621857941150665283203125</LongitudeDegrees>
            </Position>
            <AltitudeMeters>1807.5999755859375</AltitudeMeters>
            <DistanceMeters>7899.9638909503</DistanceMeters>
          </Trackpoint>
          <Trackpoint>
            <Time>2021-08-29T15:20:06.000Z</Time>
            <Position>
              <LatitudeDegrees>-32.9678723774850368499755859375</LatitudeDegrees>
              <LongitudeDegrees>-69.27555757574737071990966796875</LongitudeDegrees>
            </Position>
            <AltitudeMeters>1807.199951171875</AltitudeMeters>
            <DistanceMeters>7904.8906389123</DistanceMeters>
          </Trackpoint>
          <Trackpoint>
            <Time>2021-08-29T15:20:12.000Z</Time>
            <Position>
              <LatitudeDegrees>-32.967704571783542633056640625</LatitudeDegrees>
              <LongitudeDegrees>-69.2755467630922794342041015625</LongitudeDegrees>
            </Position>
            <AltitudeMeters>1806.4000244140625</AltitudeMeters>
            <DistanceMeters>7923.5952180774</DistanceMeters>
          </Trackpoint>
          <Trackpoint>
            <Time>2021-08-29T15:20:21.000Z</Time>
            <Position>
              <LatitudeDegrees>-32.96748002059757709503173828125</LatitudeDegrees>
              <LongitudeDegrees>-69.27555891685187816619873046875</LongitudeDegrees>
            </Position>
            <AltitudeMeters>1806.199951171875</AltitudeMeters>
            <DistanceMeters>7948.6139672241</DistanceMeters>
          </Trackpoint>
          <Trackpoint>
            <Time>2021-08-29T15:20:29.000Z</Time>
            <Position>
              <LatitudeDegrees>-32.96732143498957157135009765625</LatitudeDegrees>
              <LongitudeDegrees>-69.27572487853467464447021484375</LongitudeDegrees>
            </Position>
            <AltitudeMeters>1809</AltitudeMeters>
            <DistanceMeters>7972.1026796319</DistanceMeters>
          </Trackpoint>
          <Trackpoint>
            <Time>2021-08-29T15:20:38.000Z</Time>
            <Position>
              <LatitudeDegrees>-32.96722018159925937652587890625</LatitudeDegrees>
              <LongitudeDegrees>-69.275981448590755462646484375</LongitudeDegrees>
            </Position>
            <AltitudeMeters>1811.800048828125</AltitudeMeters>
            <DistanceMeters>7998.5795165747</DistanceMeters>
          </Trackpoint>
          <Trackpoint>
            <Time>2021-08-29T15:20:39.000Z</Time>
            <Position>
              <LatitudeDegrees>-32.9672095365822315216064453125</LatitudeDegrees>
              <LongitudeDegrees>-69.27600785158574581146240234375</LongitudeDegrees>
            </Position>
            <AltitudeMeters>1812</AltitudeMeters>
            <DistanceMeters>8001.3139092487</DistanceMeters>
          </Trackpoint>
          <Trackpoint>
            <Time>2021-08-29T15:20:49.000Z</Time>
            <Position>
              <LatitudeDegrees>-32.96709612943232059478759765625</LatitudeDegrees>
              <LongitudeDegrees>-69.2762513458728790283203125</LongitudeDegrees>
            </Position>
            <AltitudeMeters>1815.199951171875</AltitudeMeters>
            <DistanceMeters>8027.3203443274</DistanceMeters>
          </Trackpoint>
          <Trackpoint>
            <Time>2021-08-29T15:20:50.000Z</Time>
            <Position>
              <LatitudeDegrees>-32.96708087436854839324951171875</LatitudeDegrees>
              <LongitudeDegrees>-69.2762739770114421844482421875</LongitudeDegrees>
            </Position>
            <AltitudeMeters>1815.5999755859375</AltitudeMeters>
            <DistanceMeters>8030.0331864352</DistanceMeters>
          </Trackpoint>
          <Trackpoint>
            <Time>2021-08-29T15:20:55.000Z</Time>
            <Position>
              <LatitudeDegrees>-32.966989763081073760986328125</LatitudeDegrees>
              <LongitudeDegrees>-69.27635553292930126190185546875</LongitudeDegrees>
            </Position>
            <AltitudeMeters>1816.800048828125</AltitudeMeters>
            <DistanceMeters>8042.7148922142</DistanceMeters>
          </Trackpoint>
          <Trackpoint>
            <Time>2021-08-29T15:20:57.000Z</Time>
            <Position>
              <LatitudeDegrees>-32.96694986522197723388671875</LatitudeDegrees>
              <LongitudeDegrees>-69.27636332809925079345703125</LongitudeDegrees>
            </Position>
            <AltitudeMeters>1816.5999755859375</AltitudeMeters>
            <DistanceMeters>8047.214384562</DistanceMeters>
          </Trackpoint>
          <Trackpoint>
            <Time>2021-08-29T15:21:00.000Z</Time>
            <Position>
              <LatitudeDegrees>-32.96688457019627094268798828125</LatitudeDegrees>
              <LongitudeDegrees>-69.27636223845183849334716796875</LongitudeDegrees>
            </Position>
            <AltitudeMeters>1815.5999755859375</AltitudeMeters>
            <DistanceMeters>8054.4825306253</DistanceMeters>
          </Trackpoint>
          <Trackpoint>
            <Time>2021-08-29T15:21:02.000Z</Time>
            <Position>
              <LatitudeDegrees>-32.96684215776622295379638671875</LatitudeDegrees>
              <LongitudeDegrees>-69.27634815685451030731201171875</LongitudeDegrees>
            </Position>
            <AltitudeMeters>1815</AltitudeMeters>
            <DistanceMeters>8059.3817084326</DistanceMeters>
          </Trackpoint>
          <Trackpoint>
            <Time>2021-08-29T15:21:03.000Z</Time>
            <Position>
              <LatitudeDegrees>-32.966824471950531005859375</LatitudeDegrees>
              <LongitudeDegrees>-69.27633608691394329071044921875</LongitudeDegrees>
            </Position>
            <AltitudeMeters>1814.5999755859375</AltitudeMeters>
            <DistanceMeters>8061.6504401428</DistanceMeters>
          </Trackpoint>
          <Trackpoint>
            <Time>2021-08-29T15:21:04.000Z</Time>
            <Position>
              <LatitudeDegrees>-32.9668058641254901885986328125</LatitudeDegrees>
              <LongitudeDegrees>-69.27632099948823451995849609375</LongitudeDegrees>
            </Position>
            <AltitudeMeters>1814.199951171875</AltitudeMeters>
            <DistanceMeters>8064.1538124787</DistanceMeters>
          </Trackpoint>
          <Trackpoint>
            <Time>2021-08-29T15:21:16.000Z</Time>
            <Position>
              <LatitudeDegrees>-32.96662976033985614776611328125</LatitudeDegrees>
              <LongitudeDegrees>-69.27610575221478939056396484375</LongitudeDegrees>
            </Position>
            <AltitudeMeters>1811.199951171875</AltitudeMeters>
            <DistanceMeters>8092.2286989876</DistanceMeters>
          </Trackpoint>
          <Trackpoint>
            <Time>2021-08-29T15:21:25.000Z</Time>
            <Position>
              <LatitudeDegrees>-32.96646832488477230072021484375</LatitudeDegrees>
              <LongitudeDegrees>-69.27591129206120967864990234375</LongitudeDegrees>
            </Position>
            <AltitudeMeters>1809.4000244140625</AltitudeMeters>
            <DistanceMeters>8117.7744533209</DistanceMeters>
          </Trackpoint>
          <Trackpoint>
            <Time>2021-08-29T15:21:32.000Z</Time>
            <Position>
              <LatitudeDegrees>-32.9662491381168365478515625</LatitudeDegrees>
              <LongitudeDegrees>-69.27578690461814403533935546875</LongitudeDegrees>
            </Position>
            <AltitudeMeters>1808.5999755859375</AltitudeMeters>
            <DistanceMeters>8144.7944770162</DistanceMeters>
          </Trackpoint>
          <Trackpoint>
            <Time>2021-08-29T15:21:37.000Z</Time>
            <Position>
              <LatitudeDegrees>-32.9660397581756114959716796875</LatitudeDegrees>
              <LongitudeDegrees>-69.27578673698008060455322265625</LongitudeDegrees>
            </Position>
            <AltitudeMeters>1809.4000244140625</AltitudeMeters>
            <DistanceMeters>8168.0988947855</DistanceMeters>
          </Trackpoint>
          <Trackpoint>
            <Time>2021-08-29T15:21:38.000Z</Time>
            <Position>
              <LatitudeDegrees>-32.96600438654422760009765625</LatitudeDegrees>
              <LongitudeDegrees>-69.2757955379784107208251953125</LongitudeDegrees>
            </Position>
            <AltitudeMeters>1809.5999755859375</AltitudeMeters>
            <DistanceMeters>8172.1215676516</DistanceMeters>
          </Trackpoint>
          <Trackpoint>
            <Time>2021-08-29T15:21:41.000Z</Time>
            <Position>
              <LatitudeDegrees>-32.96590891666710376739501953125</LatitudeDegrees>
              <LongitudeDegrees>-69.2758294008672237396240234375</LongitudeDegrees>
            </Position>
            <AltitudeMeters>1810.4000244140625</AltitudeMeters>
            <DistanceMeters>8183.2083796621</DistanceMeters>
          </Trackpoint>
          <Trackpoint>
            <Time>2021-08-29T15:21:43.000Z</Time>
            <Position>
              <LatitudeDegrees>-32.96586264856159687042236328125</LatitudeDegrees>
              <LongitudeDegrees>-69.2758599109947681427001953125</LongitudeDegrees>
            </Position>
            <AltitudeMeters>1810.4000244140625</AltitudeMeters>
            <DistanceMeters>8189.0939020041</DistanceMeters>
          </Trackpoint>
          <Trackpoint>
            <Time>2021-08-29T15:21:47.000Z</Time>
            <Position>
              <LatitudeDegrees>-32.96578352339565753936767578125</LatitudeDegrees>
              <LongitudeDegrees>-69.2759407125413417816162109375</LongitudeDegrees>
            </Position>
            <AltitudeMeters>1810.800048828125</AltitudeMeters>
            <DistanceMeters>8200.6910550408</DistanceMeters>
          </Trackpoint>
          <Trackpoint>
            <Time>2021-08-29T15:21:50.000Z</Time>
            <Position>
              <LatitudeDegrees>-32.9657046496868133544921875</LatitudeDegrees>
              <LongitudeDegrees>-69.27600349299609661102294921875</LongitudeDegrees>
            </Position>
            <AltitudeMeters>1811.199951171875</AltitudeMeters>
            <DistanceMeters>8211.2471501199</DistanceMeters>
          </Trackpoint>
          <Trackpoint>
            <Time>2021-08-29T15:21:56.000Z</Time>
            <Position>
              <LatitudeDegrees>-32.96560063026845455169677734375</LatitudeDegrees>
              <LongitudeDegrees>-69.276055879890918731689453125</LongitudeDegrees>
            </Position>
            <AltitudeMeters>1811.4000244140625</AltitudeMeters>
            <DistanceMeters>8223.8158476384</DistanceMeters>
          </Trackpoint>
          <Trackpoint>
            <Time>2021-08-29T15:22:02.000Z</Time>
            <Position>
              <LatitudeDegrees>-32.96547808684408664703369140625</LatitudeDegrees>
              <LongitudeDegrees>-69.27602402865886688232421875</LongitudeDegrees>
            </Position>
            <AltitudeMeters>1810.4000244140625</AltitudeMeters>
            <DistanceMeters>8237.7757215539</DistanceMeters>
          </Trackpoint>
          <Trackpoint>
            <Time>2021-08-29T15:22:09.000Z</Time>
            <Position>
              <LatitudeDegrees>-32.9653772525489330291748046875</LatitudeDegrees>
              <LongitudeDegrees>-69.2759992182254791259765625</LongitudeDegrees>
            </Position>
            <AltitudeMeters>1809.5999755859375</AltitudeMeters>
            <DistanceMeters>8249.2354074887</DistanceMeters>
          </Trackpoint>
          <Trackpoint>
            <Time>2021-08-29T15:22:13.000Z</Time>
            <Position>
              <LatitudeDegrees>-32.96535956673324108123779296875</LatitudeDegrees>
              <LongitudeDegrees>-69.275995530188083648681640625</LongitudeDegrees>
            </Position>
            <AltitudeMeters>1809.4000244140625</AltitudeMeters>
            <DistanceMeters>8251.2332297501</DistanceMeters>
          </Trackpoint>
          <Trackpoint>
            <Time>2021-08-29T15:22:22.000Z</Time>
            <Position>
              <LatitudeDegrees>-32.96523115597665309906005859375</LatitudeDegrees>
              <LongitudeDegrees>-69.2759628407657146453857421875</LongitudeDegrees>
            </Position>
            <AltitudeMeters>1808.4000244140625</AltitudeMeters>
            <DistanceMeters>8265.8482024906</DistanceMeters>
          </Trackpoint>
          <Trackpoint>
            <Time>2021-08-29T15:22:25.000Z</Time>
            <Position>
              <LatitudeDegrees>-32.9651888273656368255615234375</LatitudeDegrees>
              <LongitudeDegrees>-69.27597482688724994659423828125</LongitudeDegrees>
            </Position>
            <AltitudeMeters>1808.4000244140625</AltitudeMeters>
            <DistanceMeters>8270.6899045104</DistanceMeters>
          </Trackpoint>
          <Trackpoint>
            <Time>2021-08-29T15:22:27.000Z</Time>
            <Position>
              <LatitudeDegrees>-32.965162508189678192138671875</LatitudeDegrees>
              <LongitudeDegrees>-69.275989495217800140380859375</LongitudeDegrees>
            </Position>
            <AltitudeMeters>1808.4000244140625</AltitudeMeters>
            <DistanceMeters>8273.9250024376</DistanceMeters>
          </Trackpoint>
          <Trackpoint>
            <Time>2021-08-29T15:22:28.000Z</Time>
            <Position>
              <LatitudeDegrees>-32.9651502706110477447509765625</LatitudeDegrees>
              <LongitudeDegrees>-69.2760027386248111724853515625</LongitudeDegrees>
            </Position>
            <AltitudeMeters>1808.5999755859375</AltitudeMeters>
            <DistanceMeters>8275.7676387943</DistanceMeters>
          </Trackpoint>
          <Trackpoint>
            <Time>2021-08-29T15:22:29.000Z</Time>
            <Position>
              <LatitudeDegrees>-32.96514071524143218994140625</LatitudeDegrees>
              <LongitudeDegrees>-69.27601422183215618133544921875</LongitudeDegrees>
            </Position>
            <AltitudeMeters>1808.5999755859375</AltitudeMeters>
            <DistanceMeters>8277.276141119</DistanceMeters>
          </Trackpoint>
          <Trackpoint>
            <Time>2021-08-29T15:22:30.000Z</Time>
            <Position>
              <LatitudeDegrees>-32.9651261307299137115478515625</LatitudeDegrees>
              <LongitudeDegrees>-69.2760255374014377593994140625</LongitudeDegrees>
            </Position>
            <AltitudeMeters>1808.800048828125</AltitudeMeters>
            <DistanceMeters>8279.2119824669</DistanceMeters>
          </Trackpoint>
          <Trackpoint>
            <Time>2021-08-29T15:22:37.000Z</Time>
            <Position>
              <LatitudeDegrees>-32.96497701667249202728271484375</LatitudeDegrees>
              <LongitudeDegrees>-69.2760379426181316375732421875</LongitudeDegrees>
            </Position>
            <AltitudeMeters>1808.800048828125</AltitudeMeters>
            <DistanceMeters>8295.849257882</DistanceMeters>
          </Trackpoint>
          <Trackpoint>
            <Time>2021-08-29T15:22:45.000Z</Time>
            <Position>
              <LatitudeDegrees>-32.96477484516799449920654296875</LatitudeDegrees>
              <LongitudeDegrees>-69.27607901394367218017578125</LongitudeDegrees>
            </Position>
            <AltitudeMeters>1808.4000244140625</AltitudeMeters>
            <DistanceMeters>8318.6758535758</DistanceMeters>
          </Trackpoint>
          <Trackpoint>
            <Time>2021-08-29T15:22:53.000Z</Time>
            <Position>
              <LatitudeDegrees>-32.964583821594715118408203125</LatitudeDegrees>
              <LongitudeDegrees>-69.27610022015869617462158203125</LongitudeDegrees>
            </Position>
            <AltitudeMeters>1808</AltitudeMeters>
            <DistanceMeters>8340.0291830577</DistanceMeters>
          </Trackpoint>
          <Trackpoint>
            <Time>2021-08-29T15:22:56.000Z</Time>
            <Position>
              <LatitudeDegrees>-32.96452514827251434326171875</LatitudeDegrees>
              <LongitudeDegrees>-69.27613358013331890106201171875</LongitudeDegrees>
            </Position>
            <AltitudeMeters>1808.199951171875</AltitudeMeters>
            <DistanceMeters>8347.2649541446</DistanceMeters>
          </Trackpoint>
          <Trackpoint>
            <Time>2021-08-29T15:23:03.000Z</Time>
            <Position>
              <LatitudeDegrees>-32.96443219296634197235107421875</LatitudeDegrees>
              <LongitudeDegrees>-69.2762642540037631988525390625</LongitudeDegrees>
            </Position>
            <AltitudeMeters>1810.4000244140625</AltitudeMeters>
            <DistanceMeters>8363.2633442739</DistanceMeters>
          </Trackpoint>
          <Trackpoint>
            <Time>2021-08-29T15:23:14.000Z</Time>
            <Position>
              <LatitudeDegrees>-32.964367233216762542724609375</LatitudeDegrees>
              <LongitudeDegrees>-69.27649676799774169921875</LongitudeDegrees>
            </Position>
            <AltitudeMeters>1813.4000244140625</AltitudeMeters>
            <DistanceMeters>8386.1480184783</DistanceMeters>
          </Trackpoint>
          <Trackpoint>
            <Time>2021-08-29T15:23:20.000Z</Time>
            <Position>
              <LatitudeDegrees>-32.96434200368821620941162109375</LatitudeDegrees>
              <LongitudeDegrees>-69.27664085291326045989990234375</LongitudeDegrees>
            </Position>
            <AltitudeMeters>1815.4000244140625</AltitudeMeters>
            <DistanceMeters>8399.8930997571</DistanceMeters>
          </Trackpoint>
          <Trackpoint>
            <Time>2021-08-29T15:23:25.000Z</Time>
            <Position>
              <LatitudeDegrees>-32.96431618742644786834716796875</LatitudeDegrees>
              <LongitudeDegrees>-69.27674353122711181640625</LongitudeDegrees>
            </Position>
            <AltitudeMeters>1816.5999755859375</AltitudeMeters>
            <DistanceMeters>8409.902981286</DistanceMeters>
          </Trackpoint>
          <Trackpoint>
            <Time>2021-08-29T15:23:29.000Z</Time>
            <Position>
              <LatitudeDegrees>-32.96429053880274295806884765625</LatitudeDegrees>
              <LongitudeDegrees>-69.27682936191558837890625</LongitudeDegrees>
            </Position>
            <AltitudeMeters>1817.5999755859375</AltitudeMeters>
            <DistanceMeters>8418.4109242086</DistanceMeters>
          </Trackpoint>
          <Trackpoint>
            <Time>2021-08-29T15:23:40.000Z</Time>
            <Position>
              <LatitudeDegrees>-32.96423236839473247528076171875</LatitudeDegrees>
              <LongitudeDegrees>-69.2770474590361118316650390625</LongitudeDegrees>
            </Position>
            <AltitudeMeters>1820.5999755859375</AltitudeMeters>
            <DistanceMeters>8439.7817963552</DistanceMeters>
          </Trackpoint>
          <Trackpoint>
            <Time>2021-08-29T15:23:44.000Z</Time>
            <Position>
              <LatitudeDegrees>-32.9641776345670223236083984375</LatitudeDegrees>
              <LongitudeDegrees>-69.27711677737534046173095703125</LongitudeDegrees>
            </Position>
            <AltitudeMeters>1822</AltitudeMeters>
            <DistanceMeters>8448.6707315493</DistanceMeters>
          </Trackpoint>
          <Trackpoint>
            <Time>2021-08-29T15:23:47.000Z</Time>
            <Position>
              <LatitudeDegrees>-32.964121140539646148681640625</LatitudeDegrees>
              <LongitudeDegrees>-69.2771426774561405181884765625</LongitudeDegrees>
            </Position>
            <AltitudeMeters>1823</AltitudeMeters>
            <DistanceMeters>8455.4075827579</DistanceMeters>
          </Trackpoint>
          <Trackpoint>
            <Time>2021-08-29T15:23:53.000Z</Time>
            <Position>
              <LatitudeDegrees>-32.964020557701587677001953125</LatitudeDegrees>
              <LongitudeDegrees>-69.27708911709487438201904296875</LongitudeDegrees>
            </Position>
            <AltitudeMeters>1822.800048828125</AltitudeMeters>
            <DistanceMeters>8467.669343349</DistanceMeters>
          </Trackpoint>
          <Trackpoint>
            <Time>2021-08-29T15:23:54.000Z</Time>
            <Position>
              <LatitudeDegrees>-32.96401594765484333038330078125</LatitudeDegrees>
              <LongitudeDegrees>-69.27706883288919925689697265625</LongitudeDegrees>
            </Position>
            <AltitudeMeters>1822.4000244140625</AltitudeMeters>
            <DistanceMeters>8469.6306726342</DistanceMeters>
          </Trackpoint>
          <Trackpoint>
            <Time>2021-08-29T15:23:58.000Z</Time>
            <Position>
              <LatitudeDegrees>-32.96401695348322391510009765625</LatitudeDegrees>
              <LongitudeDegrees>-69.27698182873427867889404296875</LongitudeDegrees>
            </Position>
            <AltitudeMeters>1821</AltitudeMeters>
            <DistanceMeters>8477.755873486</DistanceMeters>
          </Trackpoint>
          <Trackpoint>
            <Time>2021-08-29T15:24:08.000Z</Time>
            <Position>
              <LatitudeDegrees>-32.9639533348381519317626953125</LatitudeDegrees>
              <LongitudeDegrees>-69.2767701856791973114013671875</LongitudeDegrees>
            </Position>
            <AltitudeMeters>1816.800048828125</AltitudeMeters>
            <DistanceMeters>8498.7501115343</DistanceMeters>
          </Trackpoint>
          <Trackpoint>
            <Time>2021-08-29T15:24:18.000Z</Time>
            <Position>
              <LatitudeDegrees>-32.96380304731428623199462890625</LatitudeDegrees>
              <LongitudeDegrees>-69.2766377516090869903564453125</LongitudeDegrees>
            </Position>
            <AltitudeMeters>1814.800048828125</AltitudeMeters>
            <DistanceMeters>8519.5529330617</DistanceMeters>
          </Trackpoint>
          <Trackpoint>
            <Time>2021-08-29T15:24:28.000Z</Time>
            <Position>
              <LatitudeDegrees>-32.9636217467486858367919921875</LatitudeDegrees>
              <LongitudeDegrees>-69.276598356664180755615234375</LongitudeDegrees>
            </Position>
            <AltitudeMeters>1815.199951171875</AltitudeMeters>
            <DistanceMeters>8540.0646205027</DistanceMeters>
          </Trackpoint>
          <Trackpoint>
            <Time>2021-08-29T15:24:38.000Z</Time>
            <Position>
              <LatitudeDegrees>-32.96342854388058185577392578125</LatitudeDegrees>
              <LongitudeDegrees>-69.2766069062054157257080078125</LongitudeDegrees>
            </Position>
            <AltitudeMeters>1816.800048828125</AltitudeMeters>
            <DistanceMeters>8561.5830837353</DistanceMeters>
          </Trackpoint>
          <Trackpoint>
            <Time>2021-08-29T15:24:44.000Z</Time>
            <Position>
              <LatitudeDegrees>-32.96330918557941913604736328125</LatitudeDegrees>
              <LongitudeDegrees>-69.27661017514765262603759765625</LongitudeDegrees>
            </Position>
            <AltitudeMeters>1818</AltitudeMeters>
            <DistanceMeters>8574.8718825877</DistanceMeters>
          </Trackpoint>
          <Trackpoint>
            <Time>2021-08-29T15:24:53.000Z</Time>
            <Position>
              <LatitudeDegrees>-32.96316853724420070648193359375</LatitudeDegrees>
              <LongitudeDegrees>-69.27667739801108837127685546875</LongitudeDegrees>
            </Position>
            <AltitudeMeters>1821.199951171875</AltitudeMeters>
            <DistanceMeters>8591.7385220956</DistanceMeters>
          </Trackpoint>
          <Trackpoint>
            <Time>2021-08-29T15:24:57.000Z</Time>
            <Position>
              <LatitudeDegrees>-32.963117659091949462890625</LatitudeDegrees>
              <LongitudeDegrees>-69.276736490428447723388671875</LongitudeDegrees>
            </Position>
            <AltitudeMeters>1822.4000244140625</AltitudeMeters>
            <DistanceMeters>8599.6451787355</DistanceMeters>
          </Trackpoint>
          <Trackpoint>
            <Time>2021-08-29T15:25:05.000Z</Time>
            <Position>
              <LatitudeDegrees>-32.963018752634525299072265625</LatitudeDegrees>
              <LongitudeDegrees>-69.27687101997435092926025390625</LongitudeDegrees>
            </Position>
            <AltitudeMeters>1824.5999755859375</AltitudeMeters>
            <DistanceMeters>8616.3488101361</DistanceMeters>
          </Trackpoint>
          <Trackpoint>
            <Time>2021-08-29T15:25:10.000Z</Time>
            <Position>
              <LatitudeDegrees>-32.96292445622384548187255859375</LatitudeDegrees>
              <LongitudeDegrees>-69.27687470801174640655517578125</LongitudeDegrees>
            </Position>
            <AltitudeMeters>1825</AltitudeMeters>
            <DistanceMeters>8626.850014521</DistanceMeters>
          </Trackpoint>
          <Trackpoint>
            <Time>2021-08-29T15:25:12.000Z</Time>
            <Position>
              <LatitudeDegrees>-32.96288372017443180084228515625</LatitudeDegrees>
              <LongitudeDegrees>-69.2768472991883754730224609375</LongitudeDegrees>
            </Position>
            <AltitudeMeters>1824.5999755859375</AltitudeMeters>
            <DistanceMeters>8632.056576677</DistanceMeters>
          </Trackpoint>
          <Trackpoint>
            <Time>2021-08-29T15:25:16.000Z</Time>
            <Position>
              <LatitudeDegrees>-32.96279822476208209991455078125</LatitudeDegrees>
              <LongitudeDegrees>-69.2768038809299468994140625</LongitudeDegrees>
            </Position>
            <AltitudeMeters>1824.199951171875</AltitudeMeters>
            <DistanceMeters>8642.400093763</DistanceMeters>
          </Trackpoint>
          <Trackpoint>
            <Time>2021-08-29T15:25:18.000Z</Time>
            <Position>
              <LatitudeDegrees>-32.9627580754458904266357421875</LatitudeDegrees>
              <LongitudeDegrees>-69.27680027671158313751220703125</LongitudeDegrees>
            </Position>
            <AltitudeMeters>1824.199951171875</AltitudeMeters>
            <DistanceMeters>8646.8814875207</DistanceMeters>
          </Trackpoint>
          <Trackpoint>
            <Time>2021-08-29T15:25:25.000Z</Time>
            <Position>
              <LatitudeDegrees>-32.96262773685157299041748046875</LatitudeDegrees>
              <LongitudeDegrees>-69.27683095447719097137451171875</LongitudeDegrees>
            </Position>
            <AltitudeMeters>1825</AltitudeMeters>
            <DistanceMeters>8661.6684503939</DistanceMeters>
          </Trackpoint>
          <Trackpoint>
            <Time>2021-08-29T15:25:33.000Z</Time>
            <Position>
              <LatitudeDegrees>-32.9624814726412296295166015625</LatitudeDegrees>
              <LongitudeDegrees>-69.276809580624103546142578125</LongitudeDegrees>
            </Position>
            <AltitudeMeters>1826.199951171875</AltitudeMeters>
            <DistanceMeters>8678.0698520799</DistanceMeters>
          </Trackpoint>
          <Trackpoint>
            <Time>2021-08-29T15:25:39.000Z</Time>
            <Position>
              <LatitudeDegrees>-32.96238449402153491973876953125</LatitudeDegrees>
              <LongitudeDegrees>-69.2767990194261074066162109375</LongitudeDegrees>
            </Position>
            <AltitudeMeters>1826.800048828125</AltitudeMeters>
            <DistanceMeters>8688.9087309212</DistanceMeters>
          </Trackpoint>
          <Trackpoint>
            <Time>2021-08-29T15:25:41.000Z</Time>
            <Position>
              <LatitudeDegrees>-32.96236068941652774810791015625</LatitudeDegrees>
              <LongitudeDegrees>-69.27680564112961292266845703125</LongitudeDegrees>
            </Position>
            <AltitudeMeters>1826.5999755859375</AltitudeMeters>
            <DistanceMeters>8691.6298819063</DistanceMeters>
          </Trackpoint>
          <Trackpoint>
            <Time>2021-08-29T15:25:42.000Z</Time>
            <Position>
              <LatitudeDegrees>-32.9623483680188655853271484375</LatitudeDegrees>
              <LongitudeDegrees>-69.27680547349154949188232421875</LongitudeDegrees>
            </Position>
            <AltitudeMeters>1826.4000244140625</AltitudeMeters>
            <DistanceMeters>8693.0036671795</DistanceMeters>
          </Trackpoint>
          <Trackpoint>
            <Time>2021-08-29T15:25:46.000Z</Time>
            <Position>
              <LatitudeDegrees>-32.96230905689299106597900390625</LatitudeDegrees>
              <LongitudeDegrees>-69.276783429086208343505859375</LongitudeDegrees>
            </Position>
            <AltitudeMeters>1826.199951171875</AltitudeMeters>
            <DistanceMeters>8697.8397707754</DistanceMeters>
          </Trackpoint>
          <Trackpoint>
            <Time>2021-08-29T15:25:48.000Z</Time>
            <Position>
              <LatitudeDegrees>-32.962299250066280364990234375</LatitudeDegrees>
              <LongitudeDegrees>-69.27675903774797916412353515625</LongitudeDegrees>
            </Position>
            <AltitudeMeters>1826.4000244140625</AltitudeMeters>
            <DistanceMeters>8700.3646933424</DistanceMeters>
          </Trackpoint>
          <Trackpoint>
            <Time>2021-08-29T15:25:55.000Z</Time>
            <Position>
              <LatitudeDegrees>-32.96229623258113861083984375</LatitudeDegrees>
              <LongitudeDegrees>-69.2766273580491542816162109375</LongitudeDegrees>
            </Position>
            <AltitudeMeters>1826.199951171875</AltitudeMeters>
            <DistanceMeters>8712.6661575255</DistanceMeters>
          </Trackpoint>
          <Trackpoint>
            <Time>2021-08-29T15:26:00.000Z</Time>
            <Position>
              <LatitudeDegrees>-32.962302267551422119140625</LatitudeDegrees>
              <LongitudeDegrees>-69.27659936249256134033203125</LongitudeDegrees>
            </Position>
            <AltitudeMeters>1825.800048828125</AltitudeMeters>
            <DistanceMeters>8715.3673242672</DistanceMeters>
          </Trackpoint>
          <Trackpoint>
            <Time>2021-08-29T15:26:04.000Z</Time>
            <Position>
              <LatitudeDegrees>-32.9623195342719554901123046875</LatitudeDegrees>
              <LongitudeDegrees>-69.276569522917270660400390625</LongitudeDegrees>
            </Position>
            <AltitudeMeters>1825</AltitudeMeters>
            <DistanceMeters>8718.7524634087</DistanceMeters>
          </Trackpoint>
          <Trackpoint>
            <Time>2021-08-29T15:26:09.000Z</Time>
            <Position>
              <LatitudeDegrees>-32.96233101747930049896240234375</LatitudeDegrees>
              <LongitudeDegrees>-69.2765437066555023193359375</LongitudeDegrees>
            </Position>
            <AltitudeMeters>1824.5999755859375</AltitudeMeters>
            <DistanceMeters>8721.4802432733</DistanceMeters>
          </Trackpoint>
          <Trackpoint>
            <Time>2021-08-29T15:26:11.000Z</Time>
            <Position>
              <LatitudeDegrees>-32.96233906410634517669677734375</LatitudeDegrees>
              <LongitudeDegrees>-69.27652652375400066375732421875</LongitudeDegrees>
            </Position>
            <AltitudeMeters>1824.199951171875</AltitudeMeters>
            <DistanceMeters>8723.3179724672</DistanceMeters>
          </Trackpoint>
          <Trackpoint>
            <Time>2021-08-29T15:26:16.000Z</Time>
            <Position>
              <LatitudeDegrees>-32.96237468719482421875</LatitudeDegrees>
              <LongitudeDegrees>-69.27647941745817661285400390625</LongitudeDegrees>
            </Position>
            <AltitudeMeters>1823</AltitudeMeters>
            <DistanceMeters>8729.2402032047</DistanceMeters>
          </Trackpoint>
          <Trackpoint>
            <Time>2021-08-29T15:26:19.000Z</Time>
            <Position>
              <LatitudeDegrees>-32.9623926244676113128662109375</LatitudeDegrees>
              <LongitudeDegrees>-69.27645427174866199493408203125</LongitudeDegrees>
            </Position>
            <AltitudeMeters>1822.4000244140625</AltitudeMeters>
            <DistanceMeters>8732.3208866261</DistanceMeters>
          </Trackpoint>
          <Trackpoint>
            <Time>2021-08-29T15:26:30.000Z</Time>
            <Position>
              <LatitudeDegrees>-32.9624073766171932220458984375</LatitudeDegrees>
              <LongitudeDegrees>-69.27635218016803264617919921875</LongitudeDegrees>
            </Position>
            <AltitudeMeters>1820.5999755859375</AltitudeMeters>
            <DistanceMeters>8741.9954275631</DistanceMeters>
          </Trackpoint>
          <Trackpoint>
            <Time>2021-08-29T15:26:31.000Z</Time>
            <Position>
              <LatitudeDegrees>-32.96240578405559062957763671875</LatitudeDegrees>
              <LongitudeDegrees>-69.2763411998748779296875</LongitudeDegrees>
            </Position>
            <AltitudeMeters>1820.5999755859375</AltitudeMeters>
            <DistanceMeters>8743.0363930636</DistanceMeters>
          </Trackpoint>
          <Trackpoint>
            <Time>2021-08-29T15:26:38.000Z</Time>
            <Position>
              <LatitudeDegrees>-32.96237560920417308807373046875</LatitudeDegrees>
              <LongitudeDegrees>-69.2763135395944118499755859375</LongitudeDegrees>
            </Position>
            <AltitudeMeters>1820.5999755859375</AltitudeMeters>
            <DistanceMeters>8747.2733485709</DistanceMeters>
          </Trackpoint>
          <Trackpoint>
            <Time>2021-08-29T15:26:45.000Z</Time>
            <Position>
              <LatitudeDegrees>-32.96235146932303905487060546875</LatitudeDegrees>
              <LongitudeDegrees>-69.27632083185017108917236328125</LongitudeDegrees>
            </Position>
            <AltitudeMeters>1821</AltitudeMeters>
            <DistanceMeters>8750.0438295719</DistanceMeters>
          </Trackpoint>
          <Trackpoint>
            <Time>2021-08-29T15:26:51.000Z</Time>
            <Position>
              <LatitudeDegrees>-32.96235264278948307037353515625</LatitudeDegrees>
              <LongitudeDegrees>-69.27631907165050506591796875</LongitudeDegrees>
            </Position>
            <AltitudeMeters>1821</AltitudeMeters>
            <DistanceMeters>8750.2765965341</DistanceMeters>
          </Trackpoint>
          <Trackpoint>
            <Time>2021-08-29T15:26:55.000Z</Time>
            <Position>
              <LatitudeDegrees>-32.96235264278948307037353515625</LatitudeDegrees>
              <LongitudeDegrees>-69.27631907165050506591796875</LongitudeDegrees>
            </Position>
            <AltitudeMeters>1821</AltitudeMeters>
            <DistanceMeters>8750.2765965341</DistanceMeters>
          </Trackpoint>
          <Trackpoint>
            <Time>2021-08-29T15:27:14.000Z</Time>
            <Position>
              <LatitudeDegrees>-32.9623520560562610626220703125</LatitudeDegrees>
              <LongitudeDegrees>-69.2763272859156131744384765625</LongitudeDegrees>
            </Position>
            <AltitudeMeters>1821</AltitudeMeters>
            <DistanceMeters>8751.0427263983</DistanceMeters>
          </Trackpoint>
          <Trackpoint>
            <Time>2021-08-29T15:27:19.000Z</Time>
            <Position>
              <LatitudeDegrees>-32.9623473621904850006103515625</LatitudeDegrees>
              <LongitudeDegrees>-69.276326112449169158935546875</LongitudeDegrees>
            </Position>
            <AltitudeMeters>1821.199951171875</AltitudeMeters>
            <DistanceMeters>8751.5718127521</DistanceMeters>
          </Trackpoint>
          <Trackpoint>
            <Time>2021-08-29T15:27:22.000Z</Time>
            <Position>
              <LatitudeDegrees>-32.962288521230220794677734375</LatitudeDegrees>
              <LongitudeDegrees>-69.2762843705713748931884765625</LongitudeDegrees>
            </Position>
            <AltitudeMeters>1821.4000244140625</AltitudeMeters>
            <DistanceMeters>8759.1929315471</DistanceMeters>
          </Trackpoint>
          <Trackpoint>
            <Time>2021-08-29T15:27:26.000Z</Time>
            <Position>
              <LatitudeDegrees>-32.96214426867663860321044921875</LatitudeDegrees>
              <LongitudeDegrees>-69.276188649237155914306640625</LongitudeDegrees>
            </Position>
            <AltitudeMeters>1822</AltitudeMeters>
            <DistanceMeters>8777.569486414</DistanceMeters>
          </Trackpoint>
          <Trackpoint>
            <Time>2021-08-29T15:27:27.000Z</Time>
            <Position>
              <LatitudeDegrees>-32.96209984458982944488525390625</LatitudeDegrees>
              <LongitudeDegrees>-69.27616995759308338165283203125</LongitudeDegrees>
            </Position>
            <AltitudeMeters>1822.4000244140625</AltitudeMeters>
            <DistanceMeters>8782.8140657916</DistanceMeters>
          </Trackpoint>
          <Trackpoint>
            <Time>2021-08-29T15:27:33.000Z</Time>
            <Position>
              <LatitudeDegrees>-32.96188811771571636199951171875</LatitudeDegrees>
              <LongitudeDegrees>-69.27600701339542865753173828125</LongitudeDegrees>
            </Position>
            <AltitudeMeters>1824.4000244140625</AltitudeMeters>
            <DistanceMeters>8810.8656235274</DistanceMeters>
          </Trackpoint>
          <Trackpoint>
            <Time>2021-08-29T15:27:39.000Z</Time>
            <Position>
              <LatitudeDegrees>-32.96174847520887851715087890625</LatitudeDegrees>
              <LongitudeDegrees>-69.27579713054001331329345703125</LongitudeDegrees>
            </Position>
            <AltitudeMeters>1825.800048828125</AltitudeMeters>
            <DistanceMeters>8835.8802216075</DistanceMeters>
          </Trackpoint>
          <Trackpoint>
            <Time>2021-08-29T15:27:40.000Z</Time>
            <Position>
              <LatitudeDegrees>-32.9617269337177276611328125</LatitudeDegrees>
              <LongitudeDegrees>-69.27576947025954723358154296875</LongitudeDegrees>
            </Position>
            <AltitudeMeters>1825.5999755859375</AltitudeMeters>
            <DistanceMeters>8839.4039064842</DistanceMeters>
          </Trackpoint>
          <Trackpoint>
            <Time>2021-08-29T15:27:43.000Z</Time>
            <Position>
              <LatitudeDegrees>-32.9616679251194000244140625</LatitudeDegrees>
              <LongitudeDegrees>-69.27568783052265644073486328125</LongitudeDegrees>
            </Position>
            <AltitudeMeters>1824.800048828125</AltitudeMeters>
            <DistanceMeters>8849.4668721128</DistanceMeters>
          </Trackpoint>
          <Trackpoint>
            <Time>2021-08-29T15:27:48.000Z</Time>
            <Position>
              <LatitudeDegrees>-32.96157195232808589935302734375</LatitudeDegrees>
              <LongitudeDegrees>-69.275552295148372650146484375</LongitudeDegrees>
            </Position>
            <AltitudeMeters>1823.5999755859375</AltitudeMeters>
            <DistanceMeters>8866.0290770426</DistanceMeters>
          </Trackpoint>
          <Trackpoint>
            <Time>2021-08-29T15:27:54.000Z</Time>
            <Position>
              <LatitudeDegrees>-32.96152484603226184844970703125</LatitudeDegrees>
              <LongitudeDegrees>-69.27536730654537677764892578125</LongitudeDegrees>
            </Position>
            <AltitudeMeters>1822.5999755859375</AltitudeMeters>
            <DistanceMeters>8884.0826522888</DistanceMeters>
          </Trackpoint>
          <Trackpoint>
            <Time>2021-08-29T15:27:56.000Z</Time>
            <Position>
              <LatitudeDegrees>-32.96151411719620227813720703125</LatitudeDegrees>
              <LongitudeDegrees>-69.27531248889863491058349609375</LongitudeDegrees>
            </Position>
            <AltitudeMeters>1822.4000244140625</AltitudeMeters>
            <DistanceMeters>8889.3392703954</DistanceMeters>
          </Trackpoint>
          <Trackpoint>
            <Time>2021-08-29T15:28:01.000Z</Time>
            <Position>
              <LatitudeDegrees>-32.9614699445664882659912109375</LatitudeDegrees>
              <LongitudeDegrees>-69.2751725949347019195556640625</LongitudeDegrees>
            </Position>
            <AltitudeMeters>1823</AltitudeMeters>
            <DistanceMeters>8903.298173988</DistanceMeters>
          </Trackpoint>
          <Trackpoint>
            <Time>2021-08-29T15:28:04.000Z</Time>
            <Position>
              <LatitudeDegrees>-32.96144538559019565582275390625</LatitudeDegrees>
              <LongitudeDegrees>-69.275100342929363250732421875</LongitudeDegrees>
            </Position>
            <AltitudeMeters>1823.4000244140625</AltitudeMeters>
            <DistanceMeters>8910.5787336317</DistanceMeters>
          </Trackpoint>
          <Trackpoint>
            <Time>2021-08-29T15:28:05.000Z</Time>
            <Position>
              <LatitudeDegrees>-32.96143792569637298583984375</LatitudeDegrees>
              <LongitudeDegrees>-69.275078214704990386962890625</LongitudeDegrees>
            </Position>
            <AltitudeMeters>1823.5999755859375</AltitudeMeters>
            <DistanceMeters>8912.8073076251</DistanceMeters>
          </Trackpoint>
          <Trackpoint>
            <Time>2021-08-29T15:28:06.000Z</Time>
            <Position>
              <LatitudeDegrees>-32.961433567106723785400390625</LatitudeDegrees>
              <LongitudeDegrees>-69.2750482074916362762451171875</LongitudeDegrees>
            </Position>
            <AltitudeMeters>1823.800048828125</AltitudeMeters>
            <DistanceMeters>8915.648590494</DistanceMeters>
          </Trackpoint>
          <Trackpoint>
            <Time>2021-08-29T15:28:10.000Z</Time>
            <Position>
              <LatitudeDegrees>-32.96141386963427066802978515625</LatitudeDegrees>
              <LongitudeDegrees>-69.27495072595775127410888671875</LongitudeDegrees>
            </Position>
            <AltitudeMeters>1824.199951171875</AltitudeMeters>
            <DistanceMeters>8925.0119772848</DistanceMeters>
          </Trackpoint>
          <Trackpoint>
            <Time>2021-08-29T15:28:13.000Z</Time>
            <Position>
              <LatitudeDegrees>-32.96139107085764408111572265625</LatitudeDegrees>
              <LongitudeDegrees>-69.27486171014606952667236328125</LongitudeDegrees>
            </Position>
            <AltitudeMeters>1823.800048828125</AltitudeMeters>
            <DistanceMeters>8933.7026366026</DistanceMeters>
          </Trackpoint>
          <Trackpoint>
            <Time>2021-08-29T15:28:16.000Z</Time>
            <Position>
              <LatitudeDegrees>-32.96137229539453983306884765625</LatitudeDegrees>
              <LongitudeDegrees>-69.2747788131237030029296875</LongitudeDegrees>
            </Position>
            <AltitudeMeters>1823.199951171875</AltitudeMeters>
            <DistanceMeters>8941.7209995453</DistanceMeters>
          </Trackpoint>
          <Trackpoint>
            <Time>2021-08-29T15:28:20.000Z</Time>
            <Position>
              <LatitudeDegrees>-32.96134547330439090728759765625</LatitudeDegrees>
              <LongitudeDegrees>-69.27467999048531055450439453125</LongitudeDegrees>
            </Position>
            <AltitudeMeters>1822.5999755859375</AltitudeMeters>
            <DistanceMeters>8951.4211746234</DistanceMeters>
          </Trackpoint>
          <Trackpoint>
            <Time>2021-08-29T15:28:26.000Z</Time>
            <Position>
              <LatitudeDegrees>-32.96126936562359333038330078125</LatitudeDegrees>
              <LongitudeDegrees>-69.27453934215009212493896484375</LongitudeDegrees>
            </Position>
            <AltitudeMeters>1822.199951171875</AltitudeMeters>
            <DistanceMeters>8967.0506860669</DistanceMeters>
          </Trackpoint>
          <Trackpoint>
            <Time>2021-08-29T15:28:38.000Z</Time>
            <Position>
              <LatitudeDegrees>-32.9611770808696746826171875</LatitudeDegrees>
              <LongitudeDegrees>-69.274278245866298675537109375</LongitudeDegrees>
            </Position>
            <AltitudeMeters>1821.800048828125</AltitudeMeters>
            <DistanceMeters>8993.5085876468</DistanceMeters>
          </Trackpoint>
          <Trackpoint>
            <Time>2021-08-29T15:28:50.000Z</Time>
            <Position>
              <LatitudeDegrees>-32.96111094765365123748779296875</LatitudeDegrees>
              <LongitudeDegrees>-69.27403944544494152069091796875</LongitudeDegrees>
            </Position>
            <AltitudeMeters>1821.5999755859375</AltitudeMeters>
            <DistanceMeters>9016.9926862827</DistanceMeters>
          </Trackpoint>
          <Trackpoint>
            <Time>2021-08-29T15:28:55.000Z</Time>
            <Position>
              <LatitudeDegrees>-32.9610847122967243194580078125</LatitudeDegrees>
              <LongitudeDegrees>-69.27395495586097240447998046875</LongitudeDegrees>
            </Position>
            <AltitudeMeters>1821.4000244140625</AltitudeMeters>
            <DistanceMeters>9025.4056369641</DistanceMeters>
          </Trackpoint>
          <Trackpoint>
            <Time>2021-08-29T15:29:01.000Z</Time>
            <Position>
              <LatitudeDegrees>-32.961066104471683502197265625</LatitudeDegrees>
              <LongitudeDegrees>-69.27386811934411525726318359375</LongitudeDegrees>
            </Position>
            <AltitudeMeters>1821.4000244140625</AltitudeMeters>
            <DistanceMeters>9033.7755433585</DistanceMeters>
          </Trackpoint>
          <Trackpoint>
            <Time>2021-08-29T15:29:07.000Z</Time>
            <Position>
              <LatitudeDegrees>-32.96105495654046535491943359375</LatitudeDegrees>
              <LongitudeDegrees>-69.27383291535079479217529296875</LongitudeDegrees>
            </Position>
            <AltitudeMeters>1821.4000244140625</AltitudeMeters>
            <DistanceMeters>9037.2902474108</DistanceMeters>
          </Trackpoint>
          <Trackpoint>
            <Time>2021-08-29T15:29:10.000Z</Time>
            <Position>
              <LatitudeDegrees>-32.96106107532978057861328125</LatitudeDegrees>
              <LongitudeDegrees>-69.27381581626832485198974609375</LongitudeDegrees>
            </Position>
            <AltitudeMeters>1821.199951171875</AltitudeMeters>
            <DistanceMeters>9039.0269239876</DistanceMeters>
          </Trackpoint>
          <Trackpoint>
            <Time>2021-08-29T15:29:13.000Z</Time>
            <Position>
              <LatitudeDegrees>-32.9610671103000640869140625</LatitudeDegrees>
              <LongitudeDegrees>-69.27375647239387035369873046875</LongitudeDegrees>
            </Position>
            <AltitudeMeters>1820.800048828125</AltitudeMeters>
            <DistanceMeters>9044.6100972685</DistanceMeters>
          </Trackpoint>
          <Trackpoint>
            <Time>2021-08-29T15:29:17.000Z</Time>
            <Position>
              <LatitudeDegrees>-32.9610676132142543792724609375</LatitudeDegrees>
              <LongitudeDegrees>-69.2736537940800189971923828125</LongitudeDegrees>
            </Position>
            <AltitudeMeters>1819.4000244140625</AltitudeMeters>
            <DistanceMeters>9054.1988530977</DistanceMeters>
          </Trackpoint>
          <Trackpoint>
            <Time>2021-08-29T15:29:20.000Z</Time>
            <Position>
              <LatitudeDegrees>-32.96106769703328609466552734375</LatitudeDegrees>
              <LongitudeDegrees>-69.27358053624629974365234375</LongitudeDegrees>
            </Position>
            <AltitudeMeters>1819.199951171875</AltitudeMeters>
            <DistanceMeters>9061.0407765324</DistanceMeters>
          </Trackpoint>
          <Trackpoint>
            <Time>2021-08-29T15:29:25.000Z</Time>
            <Position>
              <LatitudeDegrees>-32.96104875393211841583251953125</LatitudeDegrees>
              <LongitudeDegrees>-69.27346930839121341705322265625</LongitudeDegrees>
            </Position>
            <AltitudeMeters>1819.4000244140625</AltitudeMeters>
            <DistanceMeters>9071.639557168</DistanceMeters>
          </Trackpoint>
          <Trackpoint>
            <Time>2021-08-29T15:29:27.000Z</Time>
            <Position>
              <LatitudeDegrees>-32.961034588515758514404296875</LatitudeDegrees>
              <LongitudeDegrees>-69.27342069335281848907470703125</LongitudeDegrees>
            </Position>
            <AltitudeMeters>1819.800048828125</AltitudeMeters>
            <DistanceMeters>9076.4447528422</DistanceMeters>
          </Trackpoint>
          <Trackpoint>
            <Time>2021-08-29T15:29:28.000Z</Time>
            <Position>
              <LatitudeDegrees>-32.96103081665933132171630859375</LatitudeDegrees>
              <LongitudeDegrees>-69.273395799100399017333984375</LongitudeDegrees>
            </Position>
            <AltitudeMeters>1819.800048828125</AltitudeMeters>
            <DistanceMeters>9078.8070795009</DistanceMeters>
          </Trackpoint>
          <Trackpoint>
            <Time>2021-08-29T15:29:37.000Z</Time>
            <Position>
              <LatitudeDegrees>-32.9610280506312847137451171875</LatitudeDegrees>
              <LongitudeDegrees>-69.27318113856017589569091796875</LongitudeDegrees>
            </Position>
            <AltitudeMeters>1819.800048828125</AltitudeMeters>
            <DistanceMeters>9098.8561398985</DistanceMeters>
          </Trackpoint>
          <Trackpoint>
            <Time>2021-08-29T15:29:42.000Z</Time>
            <Position>
              <LatitudeDegrees>-32.96102084219455718994140625</LatitudeDegrees>
              <LongitudeDegrees>-69.27306228317320346832275390625</LongitudeDegrees>
            </Position>
            <AltitudeMeters>1820</AltitudeMeters>
            <DistanceMeters>9109.9844132754</DistanceMeters>
          </Trackpoint>
          <Trackpoint>
            <Time>2021-08-29T15:29:45.000Z</Time>
            <Position>
              <LatitudeDegrees>-32.961013130843639373779296875</LatitudeDegrees>
              <LongitudeDegrees>-69.272980727255344390869140625</LongitudeDegrees>
            </Position>
            <AltitudeMeters>1820.199951171875</AltitudeMeters>
            <DistanceMeters>9117.6492470861</DistanceMeters>
          </Trackpoint>
          <Trackpoint>
            <Time>2021-08-29T15:29:47.000Z</Time>
            <Position>
              <LatitudeDegrees>-32.96101153828203678131103515625</LatitudeDegrees>
              <LongitudeDegrees>-69.27292884327471256256103515625</LongitudeDegrees>
            </Position>
            <AltitudeMeters>1820.199951171875</AltitudeMeters>
            <DistanceMeters>9122.4984036169</DistanceMeters>
          </Trackpoint>
          <Trackpoint>
            <Time>2021-08-29T15:29:57.000Z</Time>
            <Position>
              <LatitudeDegrees>-32.96095906756818294525146484375</LatitudeDegrees>
              <LongitudeDegrees>-69.27262491546571254730224609375</LongitudeDegrees>
            </Position>
            <AltitudeMeters>1820.5999755859375</AltitudeMeters>
            <DistanceMeters>9151.4759428231</DistanceMeters>
          </Trackpoint>
          <Trackpoint>
            <Time>2021-08-29T15:30:01.000Z</Time>
            <Position>
              <LatitudeDegrees>-32.96094297431409358978271484375</LatitudeDegrees>
              <LongitudeDegrees>-69.27248426713049411773681640625</LongitudeDegrees>
            </Position>
            <AltitudeMeters>1820.800048828125</AltitudeMeters>
            <DistanceMeters>9164.732084328</DistanceMeters>
          </Trackpoint>
          <Trackpoint>
            <Time>2021-08-29T15:30:04.000Z</Time>
            <Position>
              <LatitudeDegrees>-32.960940040647983551025390625</LatitudeDegrees>
              <LongitudeDegrees>-69.2723889648914337158203125</LongitudeDegrees>
            </Position>
            <AltitudeMeters>1820.800048828125</AltitudeMeters>
            <DistanceMeters>9173.6382727094</DistanceMeters>
          </Trackpoint>
          <Trackpoint>
            <Time>2021-08-29T15:30:07.000Z</Time>
            <Position>
              <LatitudeDegrees>-32.96094900928437709808349609375</LatitudeDegrees>
              <LongitudeDegrees>-69.27228896878659725189208984375</LongitudeDegrees>
            </Position>
            <AltitudeMeters>1820.4000244140625</AltitudeMeters>
            <DistanceMeters>9183.0295855371</DistanceMeters>
          </Trackpoint>
          <Trackpoint>
            <Time>2021-08-29T15:30:16.000Z</Time>
            <Position>
              <LatitudeDegrees>-32.96098287217319011688232421875</LatitudeDegrees>
              <LongitudeDegrees>-69.27201236598193645477294921875</LongitudeDegrees>
            </Position>
            <AltitudeMeters>1819.4000244140625</AltitudeMeters>
            <DistanceMeters>9209.1341002571</DistanceMeters>
          </Trackpoint>
          <Trackpoint>
            <Time>2021-08-29T15:30:26.000Z</Time>
            <Position>
              <LatitudeDegrees>-32.96105143614113330841064453125</LatitudeDegrees>
              <LongitudeDegrees>-69.2717921733856201171875</LongitudeDegrees>
            </Position>
            <AltitudeMeters>1817</AltitudeMeters>
            <DistanceMeters>9231.0675751882</DistanceMeters>
          </Trackpoint>
          <Trackpoint>
            <Time>2021-08-29T15:30:33.000Z</Time>
            <Position>
              <LatitudeDegrees>-32.96109854243695735931396484375</LatitudeDegrees>
              <LongitudeDegrees>-69.27160718478262424468994140625</LongitudeDegrees>
            </Position>
            <AltitudeMeters>1814.800048828125</AltitudeMeters>
            <DistanceMeters>9249.1216506096</DistanceMeters>
          </Trackpoint>
          <Trackpoint>
            <Time>2021-08-29T15:30:40.000Z</Time>
            <Position>
              <LatitudeDegrees>-32.9611314833164215087890625</LatitudeDegrees>
              <LongitudeDegrees>-69.2714238725602626800537109375</LongitudeDegrees>
            </Position>
            <AltitudeMeters>1812.800048828125</AltitudeMeters>
            <DistanceMeters>9266.6290171944</DistanceMeters>
          </Trackpoint>
          <Trackpoint>
            <Time>2021-08-29T15:30:45.000Z</Time>
            <Position>
              <LatitudeDegrees>-32.96113089658319950103759765625</LatitudeDegrees>
              <LongitudeDegrees>-69.27127920091152191162109375</LongitudeDegrees>
            </Position>
            <AltitudeMeters>1813</AltitudeMeters>
            <DistanceMeters>9280.1395303319</DistanceMeters>
          </Trackpoint>
          <Trackpoint>
            <Time>2021-08-29T15:30:46.000Z</Time>
            <Position>
              <LatitudeDegrees>-32.961124442517757415771484375</LatitudeDegrees>
              <LongitudeDegrees>-69.27124743349850177764892578125</LongitudeDegrees>
            </Position>
            <AltitudeMeters>1813.199951171875</AltitudeMeters>
            <DistanceMeters>9283.1892809344</DistanceMeters>
          </Trackpoint>
          <Trackpoint>
            <Time>2021-08-29T15:30:51.000Z</Time>
            <Position>
              <LatitudeDegrees>-32.9611500911414623260498046875</LatitudeDegrees>
              <LongitudeDegrees>-69.2710983194410800933837890625</LongitudeDegrees>
            </Position>
            <AltitudeMeters>1813.800048828125</AltitudeMeters>
            <DistanceMeters>9297.4039561157</DistanceMeters>
          </Trackpoint>
          <Trackpoint>
            <Time>2021-08-29T15:30:52.000Z</Time>
            <Position>
              <LatitudeDegrees>-32.96115520410239696502685546875</LatitudeDegrees>
              <LongitudeDegrees>-69.271073676645755767822265625</LongitudeDegrees>
            </Position>
            <AltitudeMeters>1813.5999755859375</AltitudeMeters>
            <DistanceMeters>9299.7758198606</DistanceMeters>
          </Trackpoint>
          <Trackpoint>
            <Time>2021-08-29T15:30:55.000Z</Time>
            <Position>
              <LatitudeDegrees>-32.96115771867334842681884765625</LatitudeDegrees>
              <LongitudeDegrees>-69.2710091359913349151611328125</LongitudeDegrees>
            </Position>
            <AltitudeMeters>1813</AltitudeMeters>
            <DistanceMeters>9305.8098291598</DistanceMeters>
          </Trackpoint>
          <Trackpoint>
            <Time>2021-08-29T15:30:59.000Z</Time>
            <Position>
              <LatitudeDegrees>-32.96115637756884098052978515625</LatitudeDegrees>
              <LongitudeDegrees>-69.27093587815761566162109375</LongitudeDegrees>
            </Position>
            <AltitudeMeters>1812.199951171875</AltitudeMeters>
            <DistanceMeters>9312.6524124703</DistanceMeters>
          </Trackpoint>
          <Trackpoint>
            <Time>2021-08-29T15:31:06.000Z</Time>
            <Position>
              <LatitudeDegrees>-32.96120113693177700042724609375</LatitudeDegrees>
              <LongitudeDegrees>-69.270822890102863311767578125</LongitudeDegrees>
            </Position>
            <AltitudeMeters>1811</AltitudeMeters>
            <DistanceMeters>9324.3209810467</DistanceMeters>
          </Trackpoint>
          <Trackpoint>
            <Time>2021-08-29T15:31:09.000Z</Time>
            <Position>
              <LatitudeDegrees>-32.9612258635461330413818359375</LatitudeDegrees>
              <LongitudeDegrees>-69.27078290842473506927490234375</LongitudeDegrees>
            </Position>
            <AltitudeMeters>1810.5999755859375</AltitudeMeters>
            <DistanceMeters>9328.9588299112</DistanceMeters>
          </Trackpoint>
          <Trackpoint>
            <Time>2021-08-29T15:31:14.000Z</Time>
            <Position>
              <LatitudeDegrees>-32.96126768924295902252197265625</LatitudeDegrees>
              <LongitudeDegrees>-69.27065424621105194091796875</LongitudeDegrees>
            </Position>
            <AltitudeMeters>1809.199951171875</AltitudeMeters>
            <DistanceMeters>9341.8446766296</DistanceMeters>
          </Trackpoint>
          <Trackpoint>
            <Time>2021-08-29T15:31:20.000Z</Time>
            <Position>
              <LatitudeDegrees>-32.96125981025397777557373046875</LatitudeDegrees>
              <LongitudeDegrees>-69.27046322263777256011962890625</LongitudeDegrees>
            </Position>
            <AltitudeMeters>1808.5999755859375</AltitudeMeters>
            <DistanceMeters>9359.7054019938</DistanceMeters>
          </Trackpoint>
          <Trackpoint>
            <Time>2021-08-29T15:31:27.000Z</Time>
            <Position>
              <LatitudeDegrees>-32.96125059016048908233642578125</LatitudeDegrees>
              <LongitudeDegrees>-69.2702373303472995758056640625</LongitudeDegrees>
            </Position>
            <AltitudeMeters>1807</AltitudeMeters>
            <DistanceMeters>9380.8257172419</DistanceMeters>
          </Trackpoint>
          <Trackpoint>
            <Time>2021-08-29T15:31:35.000Z</Time>
            <Position>
              <LatitudeDegrees>-32.96128177084028720855712890625</LatitudeDegrees>
              <LongitudeDegrees>-69.2700847797095775604248046875</LongitudeDegrees>
            </Position>
            <AltitudeMeters>1803.800048828125</AltitudeMeters>
            <DistanceMeters>9395.4881883835</DistanceMeters>
          </Trackpoint>
          <Trackpoint>
            <Time>2021-08-29T15:31:40.000Z</Time>
            <Position>
              <LatitudeDegrees>-32.961285375058650970458984375</LatitudeDegrees>
              <LongitudeDegrees>-69.270075224339962005615234375</LongitudeDegrees>
            </Position>
            <AltitudeMeters>1803.5999755859375</AltitudeMeters>
            <DistanceMeters>9396.4665482882</DistanceMeters>
          </Trackpoint>
          <Trackpoint>
            <Time>2021-08-29T15:31:49.000Z</Time>
            <Position>
              <LatitudeDegrees>-32.96129442751407623291015625</LatitudeDegrees>
              <LongitudeDegrees>-69.27007782272994518280029296875</LongitudeDegrees>
            </Position>
            <AltitudeMeters>1803.800048828125</AltitudeMeters>
            <DistanceMeters>9397.4988026272</DistanceMeters>
          </Trackpoint>
          <Trackpoint>
            <Time>2021-08-29T15:31:56.000Z</Time>
            <Position>
              <LatitudeDegrees>-32.9612996242940425872802734375</LatitudeDegrees>
              <LongitudeDegrees>-69.27007413469254970550537109375</LongitudeDegrees>
            </Position>
            <AltitudeMeters>1803.5999755859375</AltitudeMeters>
            <DistanceMeters>9398.1840500096</DistanceMeters>
          </Trackpoint>
          <Trackpoint>
            <Time>2021-08-29T15:32:02.000Z</Time>
            <Position>
              <LatitudeDegrees>-32.9612996242940425872802734375</LatitudeDegrees>
              <LongitudeDegrees>-69.27007413469254970550537109375</LongitudeDegrees>
            </Position>
            <AltitudeMeters>1803.5999755859375</AltitudeMeters>
            <DistanceMeters>9398.1840500096</DistanceMeters>
          </Trackpoint>
          <Trackpoint>
            <Time>2021-08-29T15:32:04.000Z</Time>
            <Position>
              <LatitudeDegrees>-32.9612996242940425872802734375</LatitudeDegrees>
              <LongitudeDegrees>-69.27007597871124744415283203125</LongitudeDegrees>
            </Position>
            <AltitudeMeters>1803.5999755859375</AltitudeMeters>
            <DistanceMeters>9398.3741034383</DistanceMeters>
          </Trackpoint>
          <Trackpoint>
            <Time>2021-08-29T15:32:06.000Z</Time>
            <Position>
              <LatitudeDegrees>-32.9612996242940425872802734375</LatitudeDegrees>
              <LongitudeDegrees>-69.27007698453962802886962890625</LongitudeDegrees>
            </Position>
            <AltitudeMeters>1803.800048828125</AltitudeMeters>
            <DistanceMeters>9398.5084915066</DistanceMeters>
          </Trackpoint>
          <Trackpoint>
            <Time>2021-08-29T15:32:09.000Z</Time>
            <Position>
              <LatitudeDegrees>-32.9612996242940425872802734375</LatitudeDegrees>
              <LongitudeDegrees>-69.27007832564413547515869140625</LongitudeDegrees>
            </Position>
            <AltitudeMeters>1803.800048828125</AltitudeMeters>
            <DistanceMeters>9398.6428795748</DistanceMeters>
          </Trackpoint>
          <Trackpoint>
            <Time>2021-08-29T15:32:18.000Z</Time>
            <Position>
              <LatitudeDegrees>-32.96131328679621219635009765625</LatitudeDegrees>
              <LongitudeDegrees>-69.27008419297635555267333984375</LongitudeDegrees>
            </Position>
            <AltitudeMeters>1804</AltitudeMeters>
            <DistanceMeters>9400.2611262089</DistanceMeters>
          </Trackpoint>
          <Trackpoint>
            <Time>2021-08-29T15:32:21.000Z</Time>
            <Position>
              <LatitudeDegrees>-32.9613138735294342041015625</LatitudeDegrees>
              <LongitudeDegrees>-69.27008419297635555267333984375</LongitudeDegrees>
            </Position>
            <AltitudeMeters>1804</AltitudeMeters>
            <DistanceMeters>9400.3955142772</DistanceMeters>
          </Trackpoint>
          <Trackpoint>
            <Time>2021-08-29T15:32:24.000Z</Time>
            <Position>
              <LatitudeDegrees>-32.961315549910068511962890625</LatitudeDegrees>
              <LongitudeDegrees>-69.27008427679538726806640625</LongitudeDegrees>
            </Position>
            <AltitudeMeters>1804</AltitudeMeters>
            <DistanceMeters>9400.5855677059</DistanceMeters>
          </Trackpoint>
          <Trackpoint>
            <Time>2021-08-29T15:32:26.000Z</Time>
            <Position>
              <LatitudeDegrees>-32.96131630428135395050048828125</LatitudeDegrees>
              <LongitudeDegrees>-69.27008427679538726806640625</LongitudeDegrees>
            </Position>
            <AltitudeMeters>1804</AltitudeMeters>
            <DistanceMeters>9400.5855677059</DistanceMeters>
          </Trackpoint>
          <Trackpoint>
            <Time>2021-08-29T15:32:28.000Z</Time>
            <Position>
              <LatitudeDegrees>-32.96131722629070281982421875</LatitudeDegrees>
              <LongitudeDegrees>-69.27008427679538726806640625</LongitudeDegrees>
            </Position>
            <AltitudeMeters>1804</AltitudeMeters>
            <DistanceMeters>9400.7199557742</DistanceMeters>
          </Trackpoint>
          <Trackpoint>
            <Time>2021-08-29T15:32:30.000Z</Time>
            <Position>
              <LatitudeDegrees>-32.961317561566829681396484375</LatitudeDegrees>
              <LongitudeDegrees>-69.2700841091573238372802734375</LongitudeDegrees>
            </Position>
            <AltitudeMeters>1804</AltitudeMeters>
            <DistanceMeters>9400.7199557742</DistanceMeters>
          </Trackpoint>
          <Trackpoint>
            <Time>2021-08-29T15:32:33.000Z</Time>
            <Position>
              <LatitudeDegrees>-32.96131831593811511993408203125</LatitudeDegrees>
              <LongitudeDegrees>-69.27008352242410182952880859375</LongitudeDegrees>
            </Position>
            <AltitudeMeters>1804</AltitudeMeters>
            <DistanceMeters>9400.8149824885</DistanceMeters>
          </Trackpoint>
          <Trackpoint>
            <Time>2021-08-29T15:32:38.000Z</Time>
            <Position>
              <LatitudeDegrees>-32.96132200397551059722900390625</LatitudeDegrees>
              <LongitudeDegrees>-69.27007815800607204437255859375</LongitudeDegrees>
            </Position>
            <AltitudeMeters>1803.800048828125</AltitudeMeters>
            <DistanceMeters>9401.4594850226</DistanceMeters>
          </Trackpoint>
          <Trackpoint>
            <Time>2021-08-29T15:32:51.000Z</Time>
            <Position>
              <LatitudeDegrees>-32.96132435090839862823486328125</LatitudeDegrees>
              <LongitudeDegrees>-69.27006474696099758148193359375</LongitudeDegrees>
            </Position>
            <AltitudeMeters>1803.5999755859375</AltitudeMeters>
            <DistanceMeters>9402.7414654877</DistanceMeters>
          </Trackpoint>
          <Trackpoint>
            <Time>2021-08-29T15:32:53.000Z</Time>
            <Position>
              <LatitudeDegrees>-32.9613240994513034820556640625</LatitudeDegrees>
              <LongitudeDegrees>-69.27006307058036327362060546875</LongitudeDegrees>
            </Position>
            <AltitudeMeters>1803.4000244140625</AltitudeMeters>
            <DistanceMeters>9402.9315189164</DistanceMeters>
          </Trackpoint>
          <Trackpoint>
            <Time>2021-08-29T15:32:55.000Z</Time>
            <Position>
              <LatitudeDegrees>-32.96132351271808147430419921875</LatitudeDegrees>
              <LongitudeDegrees>-69.270062148571014404296875</LongitudeDegrees>
            </Position>
            <AltitudeMeters>1803.4000244140625</AltitudeMeters>
            <DistanceMeters>9403.0961100138</DistanceMeters>
          </Trackpoint>
          <Trackpoint>
            <Time>2021-08-29T15:32:57.000Z</Time>
            <Position>
              <LatitudeDegrees>-32.96132351271808147430419921875</LatitudeDegrees>
              <LongitudeDegrees>-69.27006189711391925811767578125</LongitudeDegrees>
            </Position>
            <AltitudeMeters>1803.4000244140625</AltitudeMeters>
            <DistanceMeters>9403.0961100138</DistanceMeters>
          </Trackpoint>
          <Trackpoint>
            <Time>2021-08-29T15:33:03.000Z</Time>
            <Position>
              <LatitudeDegrees>-32.96132384799420833587646484375</LatitudeDegrees>
              <LongitudeDegrees>-69.27006189711391925811767578125</LongitudeDegrees>
            </Position>
            <AltitudeMeters>1803.4000244140625</AltitudeMeters>
            <DistanceMeters>9403.0961100138</DistanceMeters>
          </Trackpoint>
          <Trackpoint>
            <Time>2021-08-29T15:33:13.000Z</Time>
            <Position>
              <LatitudeDegrees>-32.9613217525184154510498046875</LatitudeDegrees>
              <LongitudeDegrees>-69.27006223239004611968994140625</LongitudeDegrees>
            </Position>
            <AltitudeMeters>1803.4000244140625</AltitudeMeters>
            <DistanceMeters>9403.3288769759</DistanceMeters>
          </Trackpoint>
          <Trackpoint>
            <Time>2021-08-29T16:09:53.000Z</Time>
            <Position>
              <LatitudeDegrees>-32.9612694494426250457763671875</LatitudeDegrees>
              <LongitudeDegrees>-69.270198605954647064208984375</LongitudeDegrees>
            </Position>
            <AltitudeMeters>1806.199951171875</AltitudeMeters>
            <DistanceMeters>9417.3317009734</DistanceMeters>
          </Trackpoint>
          <Trackpoint>
            <Time>2021-08-29T16:10:06.000Z</Time>
            <Position>
              <LatitudeDegrees>-32.96126232482492923736572265625</LatitudeDegrees>
              <LongitudeDegrees>-69.27036180160939693450927734375</LongitudeDegrees>
            </Position>
            <AltitudeMeters>1808.4000244140625</AltitudeMeters>
            <DistanceMeters>9432.5928847952</DistanceMeters>
          </Trackpoint>
          <Trackpoint>
            <Time>2021-08-29T16:10:07.000Z</Time>
            <Position>
              <LatitudeDegrees>-32.9612627439200878143310546875</LatitudeDegrees>
              <LongitudeDegrees>-69.27036146633327007293701171875</LongitudeDegrees>
            </Position>
            <AltitudeMeters>1808.4000244140625</AltitudeMeters>
            <DistanceMeters>9432.5928847952</DistanceMeters>
          </Trackpoint>
          <Trackpoint>
            <Time>2021-08-29T16:10:10.000Z</Time>
            <Position>
              <LatitudeDegrees>-32.9612630791962146759033203125</LatitudeDegrees>
              <LongitudeDegrees>-69.27038107998669147491455078125</LongitudeDegrees>
            </Position>
            <AltitudeMeters>1808.4000244140625</AltitudeMeters>
            <DistanceMeters>9434.4256936879</DistanceMeters>
          </Trackpoint>
          <Trackpoint>
            <Time>2021-08-29T16:10:12.000Z</Time>
            <Position>
              <LatitudeDegrees>-32.9612664319574832916259765625</LatitudeDegrees>
              <LongitudeDegrees>-69.270417205989360809326171875</LongitudeDegrees>
            </Position>
            <AltitudeMeters>1808.5999755859375</AltitudeMeters>
            <DistanceMeters>9437.8201564646</DistanceMeters>
          </Trackpoint>
          <Trackpoint>
            <Time>2021-08-29T16:10:13.000Z</Time>
            <Position>
              <LatitudeDegrees>-32.96127020381391048431396484375</LatitudeDegrees>
              <LongitudeDegrees>-69.27043497562408447265625</LongitudeDegrees>
            </Position>
            <AltitudeMeters>1808.5999755859375</AltitudeMeters>
            <DistanceMeters>9439.5306373232</DistanceMeters>
          </Trackpoint>
          <Trackpoint>
            <Time>2021-08-29T16:10:20.000Z</Time>
            <Position>
              <LatitudeDegrees>-32.96128629706799983978271484375</LatitudeDegrees>
              <LongitudeDegrees>-69.2705876938998699188232421875</LongitudeDegrees>
            </Position>
            <AltitudeMeters>1809</AltitudeMeters>
            <DistanceMeters>9453.904821791</DistanceMeters>
          </Trackpoint>
          <Trackpoint>
            <Time>2021-08-29T16:10:22.000Z</Time>
            <Position>
              <LatitudeDegrees>-32.96128503978252410888671875</LatitudeDegrees>
              <LongitudeDegrees>-69.27063169889152050018310546875</LongitudeDegrees>
            </Position>
            <AltitudeMeters>1809.199951171875</AltitudeMeters>
            <DistanceMeters>9458.0163060854</DistanceMeters>
          </Trackpoint>
          <Trackpoint>
            <Time>2021-08-29T16:10:31.000Z</Time>
            <Position>
              <LatitudeDegrees>-32.9612054117023944854736328125</LatitudeDegrees>
              <LongitudeDegrees>-69.270829595625400543212890625</LongitudeDegrees>
            </Position>
            <AltitudeMeters>1811</AltitudeMeters>
            <DistanceMeters>9478.5123590286</DistanceMeters>
          </Trackpoint>
          <Trackpoint>
            <Time>2021-08-29T16:10:32.000Z</Time>
            <Position>
              <LatitudeDegrees>-32.96119744889438152313232421875</LatitudeDegrees>
              <LongitudeDegrees>-69.2708502151072025299072265625</LongitudeDegrees>
            </Position>
            <AltitudeMeters>1811.199951171875</AltitudeMeters>
            <DistanceMeters>9480.6287044438</DistanceMeters>
          </Trackpoint>
          <Trackpoint>
            <Time>2021-08-29T16:10:35.000Z</Time>
            <Position>
              <LatitudeDegrees>-32.96117280609905719757080078125</LatitudeDegrees>
              <LongitudeDegrees>-69.2709057033061981201171875</LongitudeDegrees>
            </Position>
            <AltitudeMeters>1812</AltitudeMeters>
            <DistanceMeters>9486.4911673175</DistanceMeters>
          </Trackpoint>
          <Trackpoint>
            <Time>2021-08-29T16:10:39.000Z</Time>
            <Position>
              <LatitudeDegrees>-32.96116274781525135040283203125</LatitudeDegrees>
              <LongitudeDegrees>-69.2709839902818202972412109375</LongitudeDegrees>
            </Position>
            <AltitudeMeters>1812.800048828125</AltitudeMeters>
            <DistanceMeters>9493.8873962956</DistanceMeters>
          </Trackpoint>
          <Trackpoint>
            <Time>2021-08-29T16:10:41.000Z</Time>
            <Position>
              <LatitudeDegrees>-32.9611695371568202972412109375</LatitudeDegrees>
              <LongitudeDegrees>-69.27102095447480678558349609375</LongitudeDegrees>
            </Position>
            <AltitudeMeters>1813</AltitudeMeters>
            <DistanceMeters>9497.4200391654</DistanceMeters>
          </Trackpoint>
          <Trackpoint>
            <Time>2021-08-29T16:10:43.000Z</Time>
            <Position>
              <LatitudeDegrees>-32.9611705429852008819580078125</LatitudeDegrees>
              <LongitudeDegrees>-69.27105615846812725067138671875</LongitudeDegrees>
            </Position>
            <AltitudeMeters>1813.4000244140625</AltitudeMeters>
            <DistanceMeters>9500.7104892344</DistanceMeters>
          </Trackpoint>
          <Trackpoint>
            <Time>2021-08-29T16:10:45.000Z</Time>
            <Position>
              <LatitudeDegrees>-32.961157970130443572998046875</LatitudeDegrees>
              <LongitudeDegrees>-69.27110209129750728607177734375</LongitudeDegrees>
            </Position>
            <AltitudeMeters>1813.800048828125</AltitudeMeters>
            <DistanceMeters>9505.2220069729</DistanceMeters>
          </Trackpoint>
          <Trackpoint>
            <Time>2021-08-29T16:10:47.000Z</Time>
            <Position>
              <LatitudeDegrees>-32.9611420445144176483154296875</LatitudeDegrees>
              <LongitudeDegrees>-69.27115808241069316864013671875</LongitudeDegrees>
            </Position>
            <AltitudeMeters>1814</AltitudeMeters>
            <DistanceMeters>9510.7425602059</DistanceMeters>
          </Trackpoint>
          <Trackpoint>
            <Time>2021-08-29T16:10:49.000Z</Time>
            <Position>
              <LatitudeDegrees>-32.96113609336316585540771484375</LatitudeDegrees>
              <LongitudeDegrees>-69.27122899331152439117431640625</LongitudeDegrees>
            </Position>
            <AltitudeMeters>1813.4000244140625</AltitudeMeters>
            <DistanceMeters>9517.3971447069</DistanceMeters>
          </Trackpoint>
          <Trackpoint>
            <Time>2021-08-29T16:10:50.000Z</Time>
            <Position>
              <LatitudeDegrees>-32.9611417092382907867431640625</LatitudeDegrees>
              <LongitudeDegrees>-69.27126972936093807220458984375</LongitudeDegrees>
            </Position>
            <AltitudeMeters>1813</AltitudeMeters>
            <DistanceMeters>9521.2524664609</DistanceMeters>
          </Trackpoint>
          <Trackpoint>
            <Time>2021-08-29T16:10:53.000Z</Time>
            <Position>
              <LatitudeDegrees>-32.9611504264175891876220703125</LatitudeDegrees>
              <LongitudeDegrees>-69.27138506434857845306396484375</LongitudeDegrees>
            </Position>
            <AltitudeMeters>1812.199951171875</AltitudeMeters>
            <DistanceMeters>9532.067157862</DistanceMeters>
          </Trackpoint>
          <Trackpoint>
            <Time>2021-08-29T16:10:56.000Z</Time>
            <Position>
              <LatitudeDegrees>-32.96113240532577037811279296875</LatitudeDegrees>
              <LongitudeDegrees>-69.27146083675324916839599609375</LongitudeDegrees>
            </Position>
            <AltitudeMeters>1813.199951171875</AltitudeMeters>
            <DistanceMeters>9539.4217590001</DistanceMeters>
          </Trackpoint>
          <Trackpoint>
            <Time>2021-08-29T16:11:04.000Z</Time>
            <Position>
              <LatitudeDegrees>-32.9611078463494777679443359375</LatitudeDegrees>
              <LongitudeDegrees>-69.2716384492814540863037109375</LongitudeDegrees>
            </Position>
            <AltitudeMeters>1814.800048828125</AltitudeMeters>
            <DistanceMeters>9556.2318209321</DistanceMeters>
          </Trackpoint>
          <Trackpoint>
            <Time>2021-08-29T16:11:11.000Z</Time>
            <Position>
              <LatitudeDegrees>-32.9610954411327838897705078125</LatitudeDegrees>
              <LongitudeDegrees>-69.27176199853420257568359375</LongitudeDegrees>
            </Position>
            <AltitudeMeters>1816</AltitudeMeters>
            <DistanceMeters>9567.8523098695</DistanceMeters>
          </Trackpoint>
          <Trackpoint>
            <Time>2021-08-29T16:11:19.000Z</Time>
            <Position>
              <LatitudeDegrees>-32.96108948998153209686279296875</LatitudeDegrees>
              <LongitudeDegrees>-69.27175940014421939849853515625</LongitudeDegrees>
            </Position>
            <AltitudeMeters>1816</AltitudeMeters>
            <DistanceMeters>9568.5506107559</DistanceMeters>
          </Trackpoint>
          <Trackpoint>
            <Time>2021-08-29T16:11:27.000Z</Time>
            <Position>
              <LatitudeDegrees>-32.96109150163829326629638671875</LatitudeDegrees>
              <LongitudeDegrees>-69.271756298840045928955078125</LongitudeDegrees>
            </Position>
            <AltitudeMeters>1816</AltitudeMeters>
            <DistanceMeters>9568.9186476381</DistanceMeters>
          </Trackpoint>
          <Trackpoint>
            <Time>2021-08-29T16:11:40.000Z</Time>
            <Position>
              <LatitudeDegrees>-32.96109217219054698944091796875</LatitudeDegrees>
              <LongitudeDegrees>-69.271753616631031036376953125</LongitudeDegrees>
            </Position>
            <AltitudeMeters>1816</AltitudeMeters>
            <DistanceMeters>9569.1874237746</DistanceMeters>
          </Trackpoint>
          <Trackpoint>
            <Time>2021-08-29T16:11:43.000Z</Time>
            <Position>
              <LatitudeDegrees>-32.96109368093311786651611328125</LatitudeDegrees>
              <LongitudeDegrees>-69.271753616631031036376953125</LongitudeDegrees>
            </Position>
            <AltitudeMeters>1816</AltitudeMeters>
            <DistanceMeters>9569.3218118429</DistanceMeters>
          </Trackpoint>
          <Trackpoint>
            <Time>2021-08-29T16:11:46.000Z</Time>
            <Position>
              <LatitudeDegrees>-32.9610939323902130126953125</LatitudeDegrees>
              <LongitudeDegrees>-69.271753616631031036376953125</LongitudeDegrees>
            </Position>
            <AltitudeMeters>1816</AltitudeMeters>
            <DistanceMeters>9569.3218118429</DistanceMeters>
          </Trackpoint>
          <Trackpoint>
            <Time>2021-08-29T16:11:47.000Z</Time>
            <Position>
              <LatitudeDegrees>-32.96109192073345184326171875</LatitudeDegrees>
              <LongitudeDegrees>-69.27175705321133136749267578125</LongitudeDegrees>
            </Position>
            <AltitudeMeters>1816</AltitudeMeters>
            <DistanceMeters>9569.7019187003</DistanceMeters>
          </Trackpoint>
          <Trackpoint>
            <Time>2021-08-29T16:11:55.000Z</Time>
            <Position>
              <LatitudeDegrees>-32.96101639978587627410888671875</LatitudeDegrees>
              <LongitudeDegrees>-69.271921254694461822509765625</LongitudeDegrees>
            </Position>
            <AltitudeMeters>1818.5999755859375</AltitudeMeters>
            <DistanceMeters>9587.1886416244</DistanceMeters>
          </Trackpoint>
          <Trackpoint>
            <Time>2021-08-29T16:12:06.000Z</Time>
            <Position>
              <LatitudeDegrees>-32.96097122132778167724609375</LatitudeDegrees>
              <LongitudeDegrees>-69.27215033210813999176025390625</LongitudeDegrees>
            </Position>
            <AltitudeMeters>1819.800048828125</AltitudeMeters>
            <DistanceMeters>9609.1642755907</DistanceMeters>
          </Trackpoint>
          <Trackpoint>
            <Time>2021-08-29T16:12:14.000Z</Time>
            <Position>
              <LatitudeDegrees>-32.9609519429504871368408203125</LatitudeDegrees>
              <LongitudeDegrees>-69.2723153717815876007080078125</LongitudeDegrees>
            </Position>
            <AltitudeMeters>1820.4000244140625</AltitudeMeters>
            <DistanceMeters>9624.7254622396</DistanceMeters>
          </Trackpoint>
          <Trackpoint>
            <Time>2021-08-29T16:12:19.000Z</Time>
            <Position>
              <LatitudeDegrees>-32.96093769371509552001953125</LatitudeDegrees>
              <LongitudeDegrees>-69.27242911420762538909912109375</LongitudeDegrees>
            </Position>
            <AltitudeMeters>1821</AltitudeMeters>
            <DistanceMeters>9635.4647423059</DistanceMeters>
          </Trackpoint>
          <Trackpoint>
            <Time>2021-08-29T16:12:25.000Z</Time>
            <Position>
              <LatitudeDegrees>-32.96095311641693115234375</LatitudeDegrees>
              <LongitudeDegrees>-69.272569678723812103271484375</LongitudeDegrees>
            </Position>
            <AltitudeMeters>1820.800048828125</AltitudeMeters>
            <DistanceMeters>9648.7031607773</DistanceMeters>
          </Trackpoint>
          <Trackpoint>
            <Time>2021-08-29T16:12:27.000Z</Time>
            <Position>
              <LatitudeDegrees>-32.9609609954059123992919921875</LatitudeDegrees>
              <LongitudeDegrees>-69.27261418662965297698974609375</LongitudeDegrees>
            </Position>
            <AltitudeMeters>1820.5999755859375</AltitudeMeters>
            <DistanceMeters>9652.9507592441</DistanceMeters>
          </Trackpoint>
          <Trackpoint>
            <Time>2021-08-29T16:12:28.000Z</Time>
            <Position>
              <LatitudeDegrees>-32.96096543781459331512451171875</LatitudeDegrees>
              <LongitudeDegrees>-69.2726325429975986480712890625</LongitudeDegrees>
            </Position>
            <AltitudeMeters>1820.5999755859375</AltitudeMeters>
            <DistanceMeters>9654.7336184388</DistanceMeters>
          </Trackpoint>
          <Trackpoint>
            <Time>2021-08-29T16:12:31.000Z</Time>
            <Position>
              <LatitudeDegrees>-32.96097566373646259307861328125</LatitudeDegrees>
              <LongitudeDegrees>-69.272697754204273223876953125</LongitudeDegrees>
            </Position>
            <AltitudeMeters>1820.4000244140625</AltitudeMeters>
            <DistanceMeters>9660.9286022876</DistanceMeters>
          </Trackpoint>
          <Trackpoint>
            <Time>2021-08-29T16:12:34.000Z</Time>
            <Position>
              <LatitudeDegrees>-32.9609918408095836639404296875</LatitudeDegrees>
              <LongitudeDegrees>-69.27276053465902805328369140625</LongitudeDegrees>
            </Position>
            <AltitudeMeters>1820</AltitudeMeters>
            <DistanceMeters>9667.0605871468</DistanceMeters>
          </Trackpoint>
          <Trackpoint>
            <Time>2021-08-29T16:12:37.000Z</Time>
            <Position>
              <LatitudeDegrees>-32.96100852079689502716064453125</LatitudeDegrees>
              <LongitudeDegrees>-69.27282239310443401336669921875</LongitudeDegrees>
            </Position>
            <AltitudeMeters>1819.800048828125</AltitudeMeters>
            <DistanceMeters>9673.1281749427</DistanceMeters>
          </Trackpoint>
          <Trackpoint>
            <Time>2021-08-29T16:12:40.000Z</Time>
            <Position>
              <LatitudeDegrees>-32.9610193334519863128662109375</LatitudeDegrees>
              <LongitudeDegrees>-69.27289112471044063568115234375</LongitudeDegrees>
            </Position>
            <AltitudeMeters>1820</AltitudeMeters>
            <DistanceMeters>9679.6587990358</DistanceMeters>
          </Trackpoint>
          <Trackpoint>
            <Time>2021-08-29T16:12:52.000Z</Time>
            <Position>
              <LatitudeDegrees>-32.96104229986667633056640625</LatitudeDegrees>
              <LongitudeDegrees>-69.2731813900172710418701171875</LongitudeDegrees>
            </Position>
            <AltitudeMeters>1819.5999755859375</AltitudeMeters>
            <DistanceMeters>9706.8859012612</DistanceMeters>
          </Trackpoint>
          <Trackpoint>
            <Time>2021-08-29T16:13:05.000Z</Time>
            <Position>
              <LatitudeDegrees>-32.96105965040624141693115234375</LatitudeDegrees>
              <LongitudeDegrees>-69.2734861560165882110595703125</LongitudeDegrees>
            </Position>
            <AltitudeMeters>1819.4000244140625</AltitudeMeters>
            <DistanceMeters>9735.4122814876</DistanceMeters>
          </Trackpoint>
          <Trackpoint>
            <Time>2021-08-29T16:13:09.000Z</Time>
            <Position>
              <LatitudeDegrees>-32.96107557602226734161376953125</LatitudeDegrees>
              <LongitudeDegrees>-69.273565448820590972900390625</LongitudeDegrees>
            </Position>
            <AltitudeMeters>1819</AltitudeMeters>
            <DistanceMeters>9743.0256946968</DistanceMeters>
          </Trackpoint>
          <Trackpoint>
            <Time>2021-08-29T16:13:12.000Z</Time>
            <Position>
              <LatitudeDegrees>-32.96107976697385311126708984375</LatitudeDegrees>
              <LongitudeDegrees>-69.2736393772065639495849609375</LongitudeDegrees>
            </Position>
            <AltitudeMeters>1819</AltitudeMeters>
            <DistanceMeters>9749.9457015886</DistanceMeters>
          </Trackpoint>
          <Trackpoint>
            <Time>2021-08-29T16:13:14.000Z</Time>
            <Position>
              <LatitudeDegrees>-32.9610776714980602264404296875</LatitudeDegrees>
              <LongitudeDegrees>-69.27369411103427410125732421875</LongitudeDegrees>
            </Position>
            <AltitudeMeters>1819.800048828125</AltitudeMeters>
            <DistanceMeters>9755.0621643913</DistanceMeters>
          </Trackpoint>
          <Trackpoint>
            <Time>2021-08-29T16:13:16.000Z</Time>
            <Position>
              <LatitudeDegrees>-32.96107926405966281890869140625</LatitudeDegrees>
              <LongitudeDegrees>-69.27374389953911304473876953125</LongitudeDegrees>
            </Position>
            <AltitudeMeters>1820.4000244140625</AltitudeMeters>
            <DistanceMeters>9759.7155635051</DistanceMeters>
          </Trackpoint>
          <Trackpoint>
            <Time>2021-08-29T16:13:24.000Z</Time>
            <Position>
              <LatitudeDegrees>-32.9610974527895450592041015625</LatitudeDegrees>
              <LongitudeDegrees>-69.27391849458217620849609375</LongitudeDegrees>
            </Position>
            <AltitudeMeters>1821.199951171875</AltitudeMeters>
            <DistanceMeters>9776.1455697502</DistanceMeters>
          </Trackpoint>
          <Trackpoint>
            <Time>2021-08-29T16:13:33.000Z</Time>
            <Position>
              <LatitudeDegrees>-32.96113374643027782440185546875</LatitudeDegrees>
              <LongitudeDegrees>-69.274071045219898223876953125</LongitudeDegrees>
            </Position>
            <AltitudeMeters>1821.4000244140625</AltitudeMeters>
            <DistanceMeters>9790.9538909368</DistanceMeters>
          </Trackpoint>
          <Trackpoint>
            <Time>2021-08-29T16:13:38.000Z</Time>
            <Position>
              <LatitudeDegrees>-32.961156629025936126708984375</LatitudeDegrees>
              <LongitudeDegrees>-69.274164251983165740966796875</LongitudeDegrees>
            </Position>
            <AltitudeMeters>1821.5999755859375</AltitudeMeters>
            <DistanceMeters>9800.022845466</DistanceMeters>
          </Trackpoint>
          <Trackpoint>
            <Time>2021-08-29T16:13:45.000Z</Time>
            <Position>
              <LatitudeDegrees>-32.96119610778987407684326171875</LatitudeDegrees>
              <LongitudeDegrees>-69.27432619035243988037109375</LongitudeDegrees>
            </Position>
            <AltitudeMeters>1821.800048828125</AltitudeMeters>
            <DistanceMeters>9815.7709253317</DistanceMeters>
          </Trackpoint>
          <Trackpoint>
            <Time>2021-08-29T16:13:50.000Z</Time>
            <Position>
              <LatitudeDegrees>-32.961245812475681304931640625</LatitudeDegrees>
              <LongitudeDegrees>-69.2744608037173748016357421875</LongitudeDegrees>
            </Position>
            <AltitudeMeters>1821.800048828125</AltitudeMeters>
            <DistanceMeters>9829.5051623632</DistanceMeters>
          </Trackpoint>
          <Trackpoint>
            <Time>2021-08-29T16:13:55.000Z</Time>
            <Position>
              <LatitudeDegrees>-32.9613070003688335418701171875</LatitudeDegrees>
              <LongitudeDegrees>-69.27460388280451297760009765625</LongitudeDegrees>
            </Position>
            <AltitudeMeters>1822.4000244140625</AltitudeMeters>
            <DistanceMeters>9844.5022325434</DistanceMeters>
          </Trackpoint>
          <Trackpoint>
            <Time>2021-08-29T16:14:02.000Z</Time>
            <Position>
              <LatitudeDegrees>-32.96140582300722599029541015625</LatitudeDegrees>
              <LongitudeDegrees>-69.2748681642115116119384765625</LongitudeDegrees>
            </Position>
            <AltitudeMeters>1823.5999755859375</AltitudeMeters>
            <DistanceMeters>9871.5225904361</DistanceMeters>
          </Trackpoint>
          <Trackpoint>
            <Time>2021-08-29T16:14:11.000Z</Time>
            <Position>
              <LatitudeDegrees>-32.9615162126719951629638671875</LatitudeDegrees>
              <LongitudeDegrees>-69.27525482140481472015380859375</LongitudeDegrees>
            </Position>
            <AltitudeMeters>1822.800048828125</AltitudeMeters>
            <DistanceMeters>9909.6641876159</DistanceMeters>
          </Trackpoint>
          <Trackpoint>
            <Time>2021-08-29T16:14:14.000Z</Time>
            <Position>
              <LatitudeDegrees>-32.96153993345797061920166015625</LatitudeDegrees>
              <LongitudeDegrees>-69.27535573951900005340576171875</LongitudeDegrees>
            </Position>
            <AltitudeMeters>1822.800048828125</AltitudeMeters>
            <DistanceMeters>9919.4514778904</DistanceMeters>
          </Trackpoint>
          <Trackpoint>
            <Time>2021-08-29T16:14:16.000Z</Time>
            <Position>
              <LatitudeDegrees>-32.9615561105310916900634765625</LatitudeDegrees>
              <LongitudeDegrees>-69.2754317633807659149169921875</LongitudeDegrees>
            </Position>
            <AltitudeMeters>1823.199951171875</AltitudeMeters>
            <DistanceMeters>9926.7765522402</DistanceMeters>
          </Trackpoint>
          <Trackpoint>
            <Time>2021-08-29T16:14:23.000Z</Time>
            <Position>
              <LatitudeDegrees>-32.96164772473275661468505859375</LatitudeDegrees>
              <LongitudeDegrees>-69.27566218189895153045654296875</LongitudeDegrees>
            </Position>
            <AltitudeMeters>1824.5999755859375</AltitudeMeters>
            <DistanceMeters>9950.5884721543</DistanceMeters>
          </Trackpoint>
          <Trackpoint>
            <Time>2021-08-29T16:14:32.000Z</Time>
            <Position>
              <LatitudeDegrees>-32.9617894627153873443603515625</LatitudeDegrees>
              <LongitudeDegrees>-69.27586485631763935089111328125</LongitudeDegrees>
            </Position>
            <AltitudeMeters>1825.4000244140625</AltitudeMeters>
            <DistanceMeters>9975.2278931987</DistanceMeters>
          </Trackpoint>
          <Trackpoint>
            <Time>2021-08-29T16:14:35.000Z</Time>
            <Position>
              <LatitudeDegrees>-32.96182609163224697113037109375</LatitudeDegrees>
              <LongitudeDegrees>-69.275914728641510009765625</LongitudeDegrees>
            </Position>
            <AltitudeMeters>1825</AltitudeMeters>
            <DistanceMeters>9981.4170437281</DistanceMeters>
          </Trackpoint>
          <Trackpoint>
            <Time>2021-08-29T16:14:37.000Z</Time>
            <Position>
              <LatitudeDegrees>-32.9618424363434314727783203125</LatitudeDegrees>
              <LongitudeDegrees>-69.27593811415135860443115234375</LongitudeDegrees>
            </Position>
            <AltitudeMeters>1824.800048828125</AltitudeMeters>
            <DistanceMeters>9984.2583265969</DistanceMeters>
          </Trackpoint>
          <Trackpoint>
            <Time>2021-08-29T16:14:39.000Z</Time>
            <Position>
              <LatitudeDegrees>-32.96186028979718685150146484375</LatitudeDegrees>
              <LongitudeDegrees>-69.27595940418541431427001953125</LongitudeDegrees>
            </Position>
            <AltitudeMeters>1824.800048828125</AltitudeMeters>
            <DistanceMeters>9987.0692547156</DistanceMeters>
          </Trackpoint>
          <Trackpoint>
            <Time>2021-08-29T16:14:45.000Z</Time>
            <Position>
              <LatitudeDegrees>-32.9619012773036956787109375</LatitudeDegrees>
              <LongitudeDegrees>-69.27601790986955165863037109375</LongitudeDegrees>
            </Position>
            <AltitudeMeters>1824.4000244140625</AltitudeMeters>
            <DistanceMeters>9994.1873836079</DistanceMeters>
          </Trackpoint>
          <Trackpoint>
            <Time>2021-08-29T16:14:46.000Z</Time>
            <Position>
              <LatitudeDegrees>-32.96189683489501476287841796875</LatitudeDegrees>
              <LongitudeDegrees>-69.2760179936885833740234375</LongitudeDegrees>
            </Position>
            <AltitudeMeters>1824.4000244140625</AltitudeMeters>
            <DistanceMeters>9994.6811569</DistanceMeters>
          </Trackpoint>
          <Trackpoint>
            <Time>2021-08-29T16:14:50.000Z</Time>
            <Position>
              <LatitudeDegrees>-32.96188124455511569976806640625</LatitudeDegrees>
              <LongitudeDegrees>-69.276000559329986572265625</LongitudeDegrees>
            </Position>
            <AltitudeMeters>1824.5999755859375</AltitudeMeters>
            <DistanceMeters>9997.0606227918</DistanceMeters>
          </Trackpoint>
          <Trackpoint>
            <Time>2021-08-29T16:14:51.000Z</Time>
            <Position>
              <LatitudeDegrees>-32.96187453903257846832275390625</LatitudeDegrees>
              <LongitudeDegrees>-69.27598756738007068634033203125</LongitudeDegrees>
            </Position>
            <AltitudeMeters>1824.5999755859375</AltitudeMeters>
            <DistanceMeters>9998.4891875528</DistanceMeters>
          </Trackpoint>
          <Trackpoint>
            <Time>2021-08-29T16:14:54.000Z</Time>
            <Position>
              <LatitudeDegrees>-32.96183397062122821807861328125</LatitudeDegrees>
              <LongitudeDegrees>-69.27592453546822071075439453125</LongitudeDegrees>
            </Position>
            <AltitudeMeters>1825</AltitudeMeters>
            <DistanceMeters>10005.90857742</DistanceMeters>
          </Trackpoint>
          <Trackpoint>
            <Time>2021-08-29T16:14:58.000Z</Time>
            <Position>
              <LatitudeDegrees>-32.96175937168300151824951171875</LatitudeDegrees>
              <LongitudeDegrees>-69.2758257128298282623291015625</LongitudeDegrees>
            </Position>
            <AltitudeMeters>1825.5999755859375</AltitudeMeters>
            <DistanceMeters>10018.322572933</DistanceMeters>
          </Trackpoint>
          <Trackpoint>
            <Time>2021-08-29T16:15:01.000Z</Time>
            <Position>
              <LatitudeDegrees>-32.9617162048816680908203125</LatitudeDegrees>
              <LongitudeDegrees>-69.27576117217540740966796875</LongitudeDegrees>
            </Position>
            <AltitudeMeters>1825.4000244140625</AltitudeMeters>
            <DistanceMeters>10026.030288089</DistanceMeters>
          </Trackpoint>
          <Trackpoint>
            <Time>2021-08-29T16:15:02.000Z</Time>
            <Position>
              <LatitudeDegrees>-32.96169851906597614288330078125</LatitudeDegrees>
              <LongitudeDegrees>-69.27573460154235363006591796875</LongitudeDegrees>
            </Position>
            <AltitudeMeters>1825.199951171875</AltitudeMeters>
            <DistanceMeters>10029.199112004</DistanceMeters>
          </Trackpoint>
          <Trackpoint>
            <Time>2021-08-29T16:15:07.000Z</Time>
            <Position>
              <LatitudeDegrees>-32.96161972917616367340087890625</LatitudeDegrees>
              <LongitudeDegrees>-69.275623373687267303466796875</LongitudeDegrees>
            </Position>
            <AltitudeMeters>1824.199951171875</AltitudeMeters>
            <DistanceMeters>10042.792915164</DistanceMeters>
          </Trackpoint>
          <Trackpoint>
            <Time>2021-08-29T16:15:10.000Z</Time>
            <Position>
              <LatitudeDegrees>-32.96158921904861927032470703125</LatitudeDegrees>
              <LongitudeDegrees>-69.27556847222149372100830078125</LongitudeDegrees>
            </Position>
            <AltitudeMeters>1823.800048828125</AltitudeMeters>
            <DistanceMeters>10048.942546059</DistanceMeters>
          </Trackpoint>
          <Trackpoint>
            <Time>2021-08-29T16:15:14.000Z</Time>
            <Position>
              <LatitudeDegrees>-32.96158569864928722381591796875</LatitudeDegrees>
              <LongitudeDegrees>-69.27557467482984066009521484375</LongitudeDegrees>
            </Position>
            <AltitudeMeters>1823.800048828125</AltitudeMeters>
            <DistanceMeters>10049.640846946</DistanceMeters>
          </Trackpoint>
          <Trackpoint>
            <Time>2021-08-29T16:15:22.000Z</Time>
            <Position>
              <LatitudeDegrees>-32.96158972196280956268310546875</LatitudeDegrees>
              <LongitudeDegrees>-69.27557635121047496795654296875</LongitudeDegrees>
            </Position>
            <AltitudeMeters>1824</AltitudeMeters>
            <DistanceMeters>10050.125390016</DistanceMeters>
          </Trackpoint>
          <Trackpoint>
            <Time>2021-08-29T16:15:27.000Z</Time>
            <Position>
              <LatitudeDegrees>-32.96158871613442897796630859375</LatitudeDegrees>
              <LongitudeDegrees>-69.27557601593434810638427734375</LongitudeDegrees>
            </Position>
            <AltitudeMeters>1823.800048828125</AltitudeMeters>
            <DistanceMeters>10050.259778085</DistanceMeters>
          </Trackpoint>
          <Trackpoint>
            <Time>2021-08-29T16:15:32.000Z</Time>
            <Position>
              <LatitudeDegrees>-32.96158871613442897796630859375</LatitudeDegrees>
              <LongitudeDegrees>-69.27557601593434810638427734375</LongitudeDegrees>
            </Position>
            <AltitudeMeters>1823.800048828125</AltitudeMeters>
            <DistanceMeters>10050.259778085</DistanceMeters>
          </Trackpoint>
          <Trackpoint>
            <Time>2021-08-29T16:15:36.000Z</Time>
            <Position>
              <LatitudeDegrees>-32.96158871613442897796630859375</LatitudeDegrees>
              <LongitudeDegrees>-69.27557601593434810638427734375</LongitudeDegrees>
            </Position>
            <AltitudeMeters>1823.800048828125</AltitudeMeters>
            <DistanceMeters>10050.259778085</DistanceMeters>
          </Trackpoint>
          <Trackpoint>
            <Time>2021-08-29T16:15:39.000Z</Time>
            <Position>
              <LatitudeDegrees>-32.96158871613442897796630859375</LatitudeDegrees>
              <LongitudeDegrees>-69.27557601593434810638427734375</LongitudeDegrees>
            </Position>
            <AltitudeMeters>1823.800048828125</AltitudeMeters>
            <DistanceMeters>10050.259778085</DistanceMeters>
          </Trackpoint>
          <Trackpoint>
            <Time>2021-08-29T16:15:41.000Z</Time>
            <Position>
              <LatitudeDegrees>-32.961588799953460693359375</LatitudeDegrees>
              <LongitudeDegrees>-69.27557341754436492919921875</LongitudeDegrees>
            </Position>
            <AltitudeMeters>1823.800048828125</AltitudeMeters>
            <DistanceMeters>10050.492545047</DistanceMeters>
          </Trackpoint>
          <Trackpoint>
            <Time>2021-08-29T16:15:43.000Z</Time>
            <Position>
              <LatitudeDegrees>-32.96158938668668270111083984375</LatitudeDegrees>
              <LongitudeDegrees>-69.2755727469921112060546875</LongitudeDegrees>
            </Position>
            <AltitudeMeters>1823.800048828125</AltitudeMeters>
            <DistanceMeters>10050.626933115</DistanceMeters>
          </Trackpoint>
          <Trackpoint>
            <Time>2021-08-29T16:15:49.000Z</Time>
            <Position>
              <LatitudeDegrees>-32.96159273944795131683349609375</LatitudeDegrees>
              <LongitudeDegrees>-69.27557752467691898345947265625</LongitudeDegrees>
            </Position>
            <AltitudeMeters>1824</AltitudeMeters>
            <DistanceMeters>10051.212717124</DistanceMeters>
          </Trackpoint>
          <Trackpoint>
            <Time>2021-08-29T16:15:53.000Z</Time>
            <Position>
              <LatitudeDegrees>-32.96164906583726406097412109375</LatitudeDegrees>
              <LongitudeDegrees>-69.2756540514528751373291015625</LongitudeDegrees>
            </Position>
            <AltitudeMeters>1824.5999755859375</AltitudeMeters>
            <DistanceMeters>10060.719663801</DistanceMeters>
          </Trackpoint>
          <Trackpoint>
            <Time>2021-08-29T16:16:01.000Z</Time>
            <Position>
              <LatitudeDegrees>-32.961784936487674713134765625</LatitudeDegrees>
              <LongitudeDegrees>-69.27584256045520305633544921875</LongitudeDegrees>
            </Position>
            <AltitudeMeters>1825.4000244140625</AltitudeMeters>
            <DistanceMeters>10083.927592179</DistanceMeters>
          </Trackpoint>
          <Trackpoint>
            <Time>2021-08-29T16:16:10.000Z</Time>
            <Position>
              <LatitudeDegrees>-32.96194042079150676727294921875</LatitudeDegrees>
              <LongitudeDegrees>-69.2760604061186313629150390625</LongitudeDegrees>
            </Position>
            <AltitudeMeters>1824</AltitudeMeters>
            <DistanceMeters>10110.636354391</DistanceMeters>
          </Trackpoint>
          <Trackpoint>
            <Time>2021-08-29T16:16:17.000Z</Time>
            <Position>
              <LatitudeDegrees>-32.96209598891437053680419921875</LatitudeDegrees>
              <LongitudeDegrees>-69.27616274915635585784912109375</LongitudeDegrees>
            </Position>
            <AltitudeMeters>1822.4000244140625</AltitudeMeters>
            <DistanceMeters>10130.413785752</DistanceMeters>
          </Trackpoint>
          <Trackpoint>
            <Time>2021-08-29T16:16:21.000Z</Time>
            <Position>
              <LatitudeDegrees>-32.9621921293437480926513671875</LatitudeDegrees>
              <LongitudeDegrees>-69.27621002309024333953857421875</LongitudeDegrees>
            </Position>
            <AltitudeMeters>1821.800048828125</AltitudeMeters>
            <DistanceMeters>10141.98911617</DistanceMeters>
          </Trackpoint>
          <Trackpoint>
            <Time>2021-08-29T16:16:26.000Z</Time>
            <Position>
              <LatitudeDegrees>-32.96229464001953601837158203125</LatitudeDegrees>
              <LongitudeDegrees>-69.27628780715167522430419921875</LongitudeDegrees>
            </Position>
            <AltitudeMeters>1821.4000244140625</AltitudeMeters>
            <DistanceMeters>10155.514993175</DistanceMeters>
          </Trackpoint>
          <Trackpoint>
            <Time>2021-08-29T16:16:32.000Z</Time>
            <Position>
              <LatitudeDegrees>-32.96234744600951671600341796875</LatitudeDegrees>
              <LongitudeDegrees>-69.27632619626820087432861328125</LongitudeDegrees>
            </Position>
            <AltitudeMeters>1821.199951171875</AltitudeMeters>
            <DistanceMeters>10162.399676992</DistanceMeters>
          </Trackpoint>
          <Trackpoint>
            <Time>2021-08-29T16:16:40.000Z</Time>
            <Position>
              <LatitudeDegrees>-32.96234526671469211578369140625</LatitudeDegrees>
              <LongitudeDegrees>-69.276322089135646820068359375</LongitudeDegrees>
            </Position>
            <AltitudeMeters>1821.199951171875</AltitudeMeters>
            <DistanceMeters>10162.84539179</DistanceMeters>
          </Trackpoint>
          <Trackpoint>
            <Time>2021-08-29T16:16:44.000Z</Time>
            <Position>
              <LatitudeDegrees>-32.9623547382652759552001953125</LatitudeDegrees>
              <LongitudeDegrees>-69.27633918821811676025390625</LongitudeDegrees>
            </Position>
            <AltitudeMeters>1821.199951171875</AltitudeMeters>
            <DistanceMeters>10164.760127029</DistanceMeters>
          </Trackpoint>
          <Trackpoint>
            <Time>2021-08-29T16:16:46.000Z</Time>
            <Position>
              <LatitudeDegrees>-32.96236068941652774810791015625</LatitudeDegrees>
              <LongitudeDegrees>-69.2763453908264636993408203125</LongitudeDegrees>
            </Position>
            <AltitudeMeters>1821.199951171875</AltitudeMeters>
            <DistanceMeters>10165.641368525</DistanceMeters>
          </Trackpoint>
          <Trackpoint>
            <Time>2021-08-29T16:16:47.000Z</Time>
            <Position>
              <LatitudeDegrees>-32.96235783956944942474365234375</LatitudeDegrees>
              <LongitudeDegrees>-69.27634815685451030731201171875</LongitudeDegrees>
            </Position>
            <AltitudeMeters>1821.4000244140625</AltitudeMeters>
            <DistanceMeters>10166.04453273</DistanceMeters>
          </Trackpoint>
          <Trackpoint>
            <Time>2021-08-29T16:16:48.000Z</Time>
            <Position>
              <LatitudeDegrees>-32.9623604379594326019287109375</LatitudeDegrees>
              <LongitudeDegrees>-69.2763507552444934844970703125</LongitudeDegrees>
            </Position>
            <AltitudeMeters>1821.4000244140625</AltitudeMeters>
            <DistanceMeters>10166.400090138</DistanceMeters>
          </Trackpoint>
          <Trackpoint>
            <Time>2021-08-29T16:16:49.000Z</Time>
            <Position>
              <LatitudeDegrees>-32.96236060559749603271484375</LatitudeDegrees>
              <LongitudeDegrees>-69.27635352127254009246826171875</LongitudeDegrees>
            </Position>
            <AltitudeMeters>1821.4000244140625</AltitudeMeters>
            <DistanceMeters>10166.6328571</DistanceMeters>
          </Trackpoint>
          <Trackpoint>
            <Time>2021-08-29T16:16:50.000Z</Time>
            <Position>
              <LatitudeDegrees>-32.9623611085116863250732421875</LatitudeDegrees>
              <LongitudeDegrees>-69.27635394036769866943359375</LongitudeDegrees>
            </Position>
            <AltitudeMeters>1821.4000244140625</AltitudeMeters>
            <DistanceMeters>10166.6328571</DistanceMeters>
          </Trackpoint>
          <Trackpoint>
            <Time>2021-08-29T16:16:52.000Z</Time>
            <Position>
              <LatitudeDegrees>-32.96236420981585979461669921875</LatitudeDegrees>
              <LongitudeDegrees>-69.27635402418673038482666015625</LongitudeDegrees>
            </Position>
            <AltitudeMeters>1821.199951171875</AltitudeMeters>
            <DistanceMeters>10166.962039295</DistanceMeters>
          </Trackpoint>
          <Trackpoint>
            <Time>2021-08-29T16:16:53.000Z</Time>
            <Position>
              <LatitudeDegrees>-32.96236638911068439483642578125</LatitudeDegrees>
              <LongitudeDegrees>-69.27635150961577892303466796875</LongitudeDegrees>
            </Position>
            <AltitudeMeters>1821.199951171875</AltitudeMeters>
            <DistanceMeters>10167.291221489</DistanceMeters>
          </Trackpoint>
          <Trackpoint>
            <Time>2021-08-29T16:16:54.000Z</Time>
            <Position>
              <LatitudeDegrees>-32.962367646396160125732421875</LatitudeDegrees>
              <LongitudeDegrees>-69.2763505876064300537109375</LongitudeDegrees>
            </Position>
            <AltitudeMeters>1821.199951171875</AltitudeMeters>
            <DistanceMeters>10167.455812587</DistanceMeters>
          </Trackpoint>
          <Trackpoint>
            <Time>2021-08-29T16:16:56.000Z</Time>
            <Position>
              <LatitudeDegrees>-32.96237544156610965728759765625</LatitudeDegrees>
              <LongitudeDegrees>-69.2763547785580158233642578125</LongitudeDegrees>
            </Position>
            <AltitudeMeters>1821.199951171875</AltitudeMeters>
            <DistanceMeters>10168.406079731</DistanceMeters>
          </Trackpoint>
          <Trackpoint>
            <Time>2021-08-29T16:17:02.000Z</Time>
            <Position>
              <LatitudeDegrees>-32.9624181054532527923583984375</LatitudeDegrees>
              <LongitudeDegrees>-69.27639224566519260406494140625</LongitudeDegrees>
            </Position>
            <AltitudeMeters>1821</AltitudeMeters>
            <DistanceMeters>10174.303863591</DistanceMeters>
          </Trackpoint>
          <Trackpoint>
            <Time>2021-08-29T16:17:04.000Z</Time>
            <Position>
              <LatitudeDegrees>-32.9624154232442378997802734375</LatitudeDegrees>
              <LongitudeDegrees>-69.276415295898914337158203125</LongitudeDegrees>
            </Position>
            <AltitudeMeters>1821.4000244140625</AltitudeMeters>
            <DistanceMeters>10176.477047886</DistanceMeters>
          </Trackpoint>
          <Trackpoint>
            <Time>2021-08-29T16:17:11.000Z</Time>
            <Position>
              <LatitudeDegrees>-32.9623802192509174346923828125</LatitudeDegrees>
              <LongitudeDegrees>-69.2764811776578426361083984375</LongitudeDegrees>
            </Position>
            <AltitudeMeters>1822.800048828125</AltitudeMeters>
            <DistanceMeters>10183.771238068</DistanceMeters>
          </Trackpoint>
          <Trackpoint>
            <Time>2021-08-29T16:17:16.000Z</Time>
            <Position>
              <LatitudeDegrees>-32.96235767193138599395751953125</LatitudeDegrees>
              <LongitudeDegrees>-69.27652283571660518646240234375</LongitudeDegrees>
            </Position>
            <AltitudeMeters>1823.800048828125</AltitudeMeters>
            <DistanceMeters>10188.401292223</DistanceMeters>
          </Trackpoint>
          <Trackpoint>
            <Time>2021-08-29T16:17:18.000Z</Time>
            <Position>
              <LatitudeDegrees>-32.9623518884181976318359375</LatitudeDegrees>
              <LongitudeDegrees>-69.27654169499874114990234375</LongitudeDegrees>
            </Position>
            <AltitudeMeters>1824.199951171875</AltitudeMeters>
            <DistanceMeters>10190.277919467</DistanceMeters>
          </Trackpoint>
          <Trackpoint>
            <Time>2021-08-29T16:17:21.000Z</Time>
            <Position>
              <LatitudeDegrees>-32.96234409324824810028076171875</LatitudeDegrees>
              <LongitudeDegrees>-69.27656390704214572906494140625</LongitudeDegrees>
            </Position>
            <AltitudeMeters>1824.5999755859375</AltitudeMeters>
            <DistanceMeters>10192.528668872</DistanceMeters>
          </Trackpoint>
          <Trackpoint>
            <Time>2021-08-29T16:17:24.000Z</Time>
            <Position>
              <LatitudeDegrees>-32.962334454059600830078125</LatitudeDegrees>
              <LongitudeDegrees>-69.2765841074287891387939453125</LongitudeDegrees>
            </Position>
            <AltitudeMeters>1825</AltitudeMeters>
            <DistanceMeters>10194.695611361</DistanceMeters>
          </Trackpoint>
          <Trackpoint>
            <Time>2021-08-29T16:17:25.000Z</Time>
            <Position>
              <LatitudeDegrees>-32.96232816763222217559814453125</LatitudeDegrees>
              <LongitudeDegrees>-69.27659533917903900146484375</LongitudeDegrees>
            </Position>
            <AltitudeMeters>1825.199951171875</AltitudeMeters>
            <DistanceMeters>10195.956283187</DistanceMeters>
          </Trackpoint>
          <Trackpoint>
            <Time>2021-08-29T16:17:28.000Z</Time>
            <Position>
              <LatitudeDegrees>-32.96231593005359172821044921875</LatitudeDegrees>
              <LongitudeDegrees>-69.276622831821441650390625</LongitudeDegrees>
            </Position>
            <AltitudeMeters>1825.800048828125</AltitudeMeters>
            <DistanceMeters>10198.863541613</DistanceMeters>
          </Trackpoint>
          <Trackpoint>
            <Time>2021-08-29T16:17:29.000Z</Time>
            <Position>
              <LatitudeDegrees>-32.96231073327362537384033203125</LatitudeDegrees>
              <LongitudeDegrees>-69.2766377516090869903564453125</LongitudeDegrees>
            </Position>
            <AltitudeMeters>1826.199951171875</AltitudeMeters>
            <DistanceMeters>10200.372043937</DistanceMeters>
          </Trackpoint>
          <Trackpoint>
            <Time>2021-08-29T16:17:31.000Z</Time>
            <Position>
              <LatitudeDegrees>-32.962310314178466796875</LatitudeDegrees>
              <LongitudeDegrees>-69.27666063420474529266357421875</LongitudeDegrees>
            </Position>
            <AltitudeMeters>1826.4000244140625</AltitudeMeters>
            <DistanceMeters>10202.507503748</DistanceMeters>
          </Trackpoint>
          <Trackpoint>
            <Time>2021-08-29T16:17:36.000Z</Time>
            <Position>
              <LatitudeDegrees>-32.96233084984123706817626953125</LatitudeDegrees>
              <LongitudeDegrees>-69.27670857869088649749755859375</LongitudeDegrees>
            </Position>
            <AltitudeMeters>1826.800048828125</AltitudeMeters>
            <DistanceMeters>10207.534048674</DistanceMeters>
          </Trackpoint>
          <Trackpoint>
            <Time>2021-08-29T16:17:45.000Z</Time>
            <Position>
              <LatitudeDegrees>-32.96236286871135234832763671875</LatitudeDegrees>
              <LongitudeDegrees>-69.2767302878201007843017578125</LongitudeDegrees>
            </Position>
            <AltitudeMeters>1826.800048828125</AltitudeMeters>
            <DistanceMeters>10211.63343549</DistanceMeters>
          </Trackpoint>
          <Trackpoint>
            <Time>2021-08-29T16:17:52.000Z</Time>
            <Position>
              <LatitudeDegrees>-32.9623691551387310028076171875</LatitudeDegrees>
              <LongitudeDegrees>-69.2767423577606678009033203125</LongitudeDegrees>
            </Position>
            <AltitudeMeters>1826.800048828125</AltitudeMeters>
            <DistanceMeters>10212.963809491</DistanceMeters>
          </Trackpoint>
          <Trackpoint>
            <Time>2021-08-29T16:17:56.000Z</Time>
            <Position>
              <LatitudeDegrees>-32.96237275935709476470947265625</LatitudeDegrees>
              <LongitudeDegrees>-69.27674378268420696258544921875</LongitudeDegrees>
            </Position>
            <AltitudeMeters>1826.800048828125</AltitudeMeters>
            <DistanceMeters>10213.378021336</DistanceMeters>
          </Trackpoint>
          <Trackpoint>
            <Time>2021-08-29T16:17:59.000Z</Time>
            <Position>
              <LatitudeDegrees>-32.96241802163422107696533203125</LatitudeDegrees>
              <LongitudeDegrees>-69.27676389925181865692138671875</LongitudeDegrees>
            </Position>
            <AltitudeMeters>1826.4000244140625</AltitudeMeters>
            <DistanceMeters>10218.755223654</DistanceMeters>
          </Trackpoint>
          <Trackpoint>
            <Time>2021-08-29T16:18:07.000Z</Time>
            <Position>
              <LatitudeDegrees>-32.9625951312482357025146484375</LatitudeDegrees>
              <LongitudeDegrees>-69.2768131010234355926513671875</LongitudeDegrees>
            </Position>
            <AltitudeMeters>1824.800048828125</AltitudeMeters>
            <DistanceMeters>10238.996359945</DistanceMeters>
          </Trackpoint>
          <Trackpoint>
            <Time>2021-08-29T16:18:13.000Z</Time>
            <Position>
              <LatitudeDegrees>-32.962769307196140289306640625</LatitudeDegrees>
              <LongitudeDegrees>-69.276806227862834930419921875</LongitudeDegrees>
            </Position>
            <AltitudeMeters>1824.199951171875</AltitudeMeters>
            <DistanceMeters>10258.393451611</DistanceMeters>
          </Trackpoint>
          <Trackpoint>
            <Time>2021-08-29T16:18:14.000Z</Time>
            <Position>
              <LatitudeDegrees>-32.9628030024468898773193359375</LatitudeDegrees>
              <LongitudeDegrees>-69.27680589258670806884765625</LongitudeDegrees>
            </Position>
            <AltitudeMeters>1824.199951171875</AltitudeMeters>
            <DistanceMeters>10262.144299395</DistanceMeters>
          </Trackpoint>
          <Trackpoint>
            <Time>2021-08-29T16:18:18.000Z</Time>
            <Position>
              <LatitudeDegrees>-32.962932251393795013427734375</LatitudeDegrees>
              <LongitudeDegrees>-69.276858530938625335693359375</LongitudeDegrees>
            </Position>
            <AltitudeMeters>1824.5999755859375</AltitudeMeters>
            <DistanceMeters>10277.346791839</DistanceMeters>
          </Trackpoint>
          <Trackpoint>
            <Time>2021-08-29T16:18:20.000Z</Time>
            <Position>
              <LatitudeDegrees>-32.9630105383694171905517578125</LatitudeDegrees>
              <LongitudeDegrees>-69.2768736183643341064453125</LongitudeDegrees>
            </Position>
            <AltitudeMeters>1824.5999755859375</AltitudeMeters>
            <DistanceMeters>10286.173540933</DistanceMeters>
          </Trackpoint>
          <Trackpoint>
            <Time>2021-08-29T16:18:22.000Z</Time>
            <Position>
              <LatitudeDegrees>-32.96307130716741085052490234375</LatitudeDegrees>
              <LongitudeDegrees>-69.2768275178968906402587890625</LongitudeDegrees>
            </Position>
            <AltitudeMeters>1823.800048828125</AltitudeMeters>
            <DistanceMeters>10294.191903875</DistanceMeters>
          </Trackpoint>
          <Trackpoint>
            <Time>2021-08-29T16:18:26.000Z</Time>
            <Position>
              <LatitudeDegrees>-32.9632006399333477020263671875</LatitudeDegrees>
              <LongitudeDegrees>-69.2766679264605045318603515625</LongitudeDegrees>
            </Position>
            <AltitudeMeters>1820.5999755859375</AltitudeMeters>
            <DistanceMeters>10314.912086173</DistanceMeters>
          </Trackpoint>
          <Trackpoint>
            <Time>2021-08-29T16:18:28.000Z</Time>
            <Position>
              <LatitudeDegrees>-32.96327515505254268646240234375</LatitudeDegrees>
              <LongitudeDegrees>-69.2766193114221096038818359375</LongitudeDegrees>
            </Position>
            <AltitudeMeters>1818.5999755859375</AltitudeMeters>
            <DistanceMeters>10324.366647333</DistanceMeters>
          </Trackpoint>
          <Trackpoint>
            <Time>2021-08-29T16:18:30.000Z</Time>
            <Position>
              <LatitudeDegrees>-32.96336383558809757232666015625</LatitudeDegrees>
              <LongitudeDegrees>-69.27660346962511539459228515625</LongitudeDegrees>
            </Position>
            <AltitudeMeters>1817.4000244140625</AltitudeMeters>
            <DistanceMeters>10334.347167021</DistanceMeters>
          </Trackpoint>
          <Trackpoint>
            <Time>2021-08-29T16:18:32.000Z</Time>
            <Position>
              <LatitudeDegrees>-32.96345486305654048919677734375</LatitudeDegrees>
              <LongitudeDegrees>-69.2766080796718597412109375</LongitudeDegrees>
            </Position>
            <AltitudeMeters>1816.5999755859375</AltitudeMeters>
            <DistanceMeters>10344.487902228</DistanceMeters>
          </Trackpoint>
          <Trackpoint>
            <Time>2021-08-29T16:18:39.000Z</Time>
            <Position>
              <LatitudeDegrees>-32.96373364515602588653564453125</LatitudeDegrees>
              <LongitudeDegrees>-69.2766092531383037567138671875</LongitudeDegrees>
            </Position>
            <AltitudeMeters>1814.5999755859375</AltitudeMeters>
            <DistanceMeters>10375.517143932</DistanceMeters>
          </Trackpoint>
          <Trackpoint>
            <Time>2021-08-29T16:18:44.000Z</Time>
            <Position>
              <LatitudeDegrees>-32.96383640728890895843505859375</LatitudeDegrees>
              <LongitudeDegrees>-69.2766545154154300689697265625</LongitudeDegrees>
            </Position>
            <AltitudeMeters>1815</AltitudeMeters>
            <DistanceMeters>10387.710963626</DistanceMeters>
          </Trackpoint>
          <Trackpoint>
            <Time>2021-08-29T16:18:52.000Z</Time>
            <Position>
              <LatitudeDegrees>-32.9639975912868976593017578125</LatitudeDegrees>
              <LongitudeDegrees>-69.276786111295223236083984375</LongitudeDegrees>
            </Position>
            <AltitudeMeters>1816.800048828125</AltitudeMeters>
            <DistanceMeters>10409.456514505</DistanceMeters>
          </Trackpoint>
          <Trackpoint>
            <Time>2021-08-29T16:18:57.000Z</Time>
            <Position>
              <LatitudeDegrees>-32.9640458710491657257080078125</LatitudeDegrees>
              <LongitudeDegrees>-69.2769421823322772979736328125</LongitudeDegrees>
            </Position>
            <AltitudeMeters>1820</AltitudeMeters>
            <DistanceMeters>10424.990403353</DistanceMeters>
          </Trackpoint>
          <Trackpoint>
            <Time>2021-08-29T16:19:02.000Z</Time>
            <Position>
              <LatitudeDegrees>-32.96407730318605899810791015625</LatitudeDegrees>
              <LongitudeDegrees>-69.277112670242786407470703125</LongitudeDegrees>
            </Position>
            <AltitudeMeters>1822.800048828125</AltitudeMeters>
            <DistanceMeters>10441.291293802</DistanceMeters>
          </Trackpoint>
          <Trackpoint>
            <Time>2021-08-29T16:19:05.000Z</Time>
            <Position>
              <LatitudeDegrees>-32.9641578532755374908447265625</LatitudeDegrees>
              <LongitudeDegrees>-69.27712884731590747833251953125</LongitudeDegrees>
            </Position>
            <AltitudeMeters>1822.4000244140625</AltitudeMeters>
            <DistanceMeters>10450.383617479</DistanceMeters>
          </Trackpoint>
          <Trackpoint>
            <Time>2021-08-29T16:19:09.000Z</Time>
            <Position>
              <LatitudeDegrees>-32.96424980275332927703857421875</LatitudeDegrees>
              <LongitudeDegrees>-69.2770166136324405670166015625</LongitudeDegrees>
            </Position>
            <AltitudeMeters>1820</AltitudeMeters>
            <DistanceMeters>10465.032533364</DistanceMeters>
          </Trackpoint>
          <Trackpoint>
            <Time>2021-08-29T16:19:16.000Z</Time>
            <Position>
              <LatitudeDegrees>-32.964339070022106170654296875</LatitudeDegrees>
              <LongitudeDegrees>-69.2766920663416385650634765625</LongitudeDegrees>
            </Position>
            <AltitudeMeters>1816</AltitudeMeters>
            <DistanceMeters>10496.926986982</DistanceMeters>
          </Trackpoint>
          <Trackpoint>
            <Time>2021-08-29T16:19:19.000Z</Time>
            <Position>
              <LatitudeDegrees>-32.9643788002431392669677734375</LatitudeDegrees>
              <LongitudeDegrees>-69.2765123583376407623291015625</LongitudeDegrees>
            </Position>
            <AltitudeMeters>1813.800048828125</AltitudeMeters>
            <DistanceMeters>10514.281789479</DistanceMeters>
          </Trackpoint>
          <Trackpoint>
            <Time>2021-08-29T16:19:23.000Z</Time>
            <Position>
              <LatitudeDegrees>-32.96443529427051544189453125</LatitudeDegrees>
              <LongitudeDegrees>-69.27628294564783573150634765625</LongitudeDegrees>
            </Position>
            <AltitudeMeters>1810.800048828125</AltitudeMeters>
            <DistanceMeters>10536.60922552</DistanceMeters>
          </Trackpoint>
          <Trackpoint>
            <Time>2021-08-29T16:19:25.000Z</Time>
            <Position>
              <LatitudeDegrees>-32.9644735157489776611328125</LatitudeDegrees>
              <LongitudeDegrees>-69.27619166672229766845703125</LongitudeDegrees>
            </Position>
            <AltitudeMeters>1809.199951171875</AltitudeMeters>
            <DistanceMeters>10546.135624014</DistanceMeters>
          </Trackpoint>
          <Trackpoint>
            <Time>2021-08-29T16:19:27.000Z</Time>
            <Position>
              <LatitudeDegrees>-32.96452783048152923583984375</LatitudeDegrees>
              <LongitudeDegrees>-69.276123940944671630859375</LongitudeDegrees>
            </Position>
            <AltitudeMeters>1808</AltitudeMeters>
            <DistanceMeters>10554.884276935</DistanceMeters>
          </Trackpoint>
          <Trackpoint>
            <Time>2021-08-29T16:19:31.000Z</Time>
            <Position>
              <LatitudeDegrees>-32.964656911790370941162109375</LatitudeDegrees>
              <LongitudeDegrees>-69.276073984801769256591796875</LongitudeDegrees>
            </Position>
            <AltitudeMeters>1808</AltitudeMeters>
            <DistanceMeters>10569.989639281</DistanceMeters>
          </Trackpoint>
          <Trackpoint>
            <Time>2021-08-29T16:19:36.000Z</Time>
            <Position>
              <LatitudeDegrees>-32.9648344404995441436767578125</LatitudeDegrees>
              <LongitudeDegrees>-69.27606618963181972503662109375</LongitudeDegrees>
            </Position>
            <AltitudeMeters>1808.5999755859375</AltitudeMeters>
            <DistanceMeters>10589.762275919</DistanceMeters>
          </Trackpoint>
          <Trackpoint>
            <Time>2021-08-29T16:19:39.000Z</Time>
            <Position>
              <LatitudeDegrees>-32.9649269767105579376220703125</LatitudeDegrees>
              <LongitudeDegrees>-69.2760490067303180694580078125</LongitudeDegrees>
            </Position>
            <AltitudeMeters>1808.5999755859375</AltitudeMeters>
            <DistanceMeters>10600.185801224</DistanceMeters>
          </Trackpoint>
          <Trackpoint>
            <Time>2021-08-29T16:19:41.000Z</Time>
            <Position>
              <LatitudeDegrees>-32.9649745859205722808837890625</LatitudeDegrees>
              <LongitudeDegrees>-69.276039786636829376220703125</LongitudeDegrees>
            </Position>
            <AltitudeMeters>1808.800048828125</AltitudeMeters>
            <DistanceMeters>10605.554600346</DistanceMeters>
          </Trackpoint>
          <Trackpoint>
            <Time>2021-08-29T16:19:47.000Z</Time>
            <Position>
              <LatitudeDegrees>-32.965156137943267822265625</LatitudeDegrees>
              <LongitudeDegrees>-69.2759764194488525390625</LongitudeDegrees>
            </Position>
            <AltitudeMeters>1808.199951171875</AltitudeMeters>
            <DistanceMeters>10626.610255954</DistanceMeters>
          </Trackpoint>
          <Trackpoint>
            <Time>2021-08-29T16:19:48.000Z</Time>
            <Position>
              <LatitudeDegrees>-32.96519167721271514892578125</LatitudeDegrees>
              <LongitudeDegrees>-69.27596678026020526885986328125</LongitudeDegrees>
            </Position>
            <AltitudeMeters>1808.199951171875</AltitudeMeters>
            <DistanceMeters>10630.666460988</DistanceMeters>
          </Trackpoint>
          <Trackpoint>
            <Time>2021-08-29T16:19:49.000Z</Time>
            <Position>
              <LatitudeDegrees>-32.9652233608067035675048828125</LatitudeDegrees>
              <LongitudeDegrees>-69.275959320366382598876953125</LongitudeDegrees>
            </Position>
            <AltitudeMeters>1808.199951171875</AltitudeMeters>
            <DistanceMeters>10634.262440614</DistanceMeters>
          </Trackpoint>
          <Trackpoint>
            <Time>2021-08-29T16:19:51.000Z</Time>
            <Position>
              <LatitudeDegrees>-32.9652835428714752197265625</LatitudeDegrees>
              <LongitudeDegrees>-69.27595353685319423675537109375</LongitudeDegrees>
            </Position>
            <AltitudeMeters>1808.4000244140625</AltitudeMeters>
            <DistanceMeters>10640.981844026</DistanceMeters>
          </Trackpoint>
          <Trackpoint>
            <Time>2021-08-29T16:19:55.000Z</Time>
            <Position>
              <LatitudeDegrees>-32.96540357172489166259765625</LatitudeDegrees>
              <LongitudeDegrees>-69.27595906890928745269775390625</LongitudeDegrees>
            </Position>
            <AltitudeMeters>1809.199951171875</AltitudeMeters>
            <DistanceMeters>10654.351261857</DistanceMeters>
          </Trackpoint>
          <Trackpoint>
            <Time>2021-08-29T16:20:01.000Z</Time>
            <Position>
              <LatitudeDegrees>-32.96558571048080921173095703125</LatitudeDegrees>
              <LongitudeDegrees>-69.27603970281779766082763671875</LongitudeDegrees>
            </Position>
            <AltitudeMeters>1811.199951171875</AltitudeMeters>
            <DistanceMeters>10675.976886912</DistanceMeters>
          </Trackpoint>
          <Trackpoint>
            <Time>2021-08-29T16:20:03.000Z</Time>
            <Position>
              <LatitudeDegrees>-32.9656689427793025970458984375</LatitudeDegrees>
              <LongitudeDegrees>-69.276033751666545867919921875</LongitudeDegrees>
            </Position>
            <AltitudeMeters>1811.4000244140625</AltitudeMeters>
            <DistanceMeters>10685.257450964</DistanceMeters>
          </Trackpoint>
          <Trackpoint>
            <Time>2021-08-29T16:20:05.000Z</Time>
            <Position>
              <LatitudeDegrees>-32.9657591320574283599853515625</LatitudeDegrees>
              <LongitudeDegrees>-69.27598706446588039398193359375</LongitudeDegrees>
            </Position>
            <AltitudeMeters>1811.199951171875</AltitudeMeters>
            <DistanceMeters>10696.20162448</DistanceMeters>
          </Trackpoint>
          <Trackpoint>
            <Time>2021-08-29T16:20:10.000Z</Time>
            <Position>
              <LatitudeDegrees>-32.96591109596192836761474609375</LatitudeDegrees>
              <LongitudeDegrees>-69.2758490145206451416015625</LongitudeDegrees>
            </Position>
            <AltitudeMeters>1810.5999755859375</AltitudeMeters>
            <DistanceMeters>10717.468085131</DistanceMeters>
          </Trackpoint>
          <Trackpoint>
            <Time>2021-08-29T16:20:15.000Z</Time>
            <Position>
              <LatitudeDegrees>-32.96609382145106792449951171875</LatitudeDegrees>
              <LongitudeDegrees>-69.27579201757907867431640625</LongitudeDegrees>
            </Position>
            <AltitudeMeters>1809.199951171875</AltitudeMeters>
            <DistanceMeters>10738.490692042</DistanceMeters>
          </Trackpoint>
          <Trackpoint>
            <Time>2021-08-29T16:20:21.000Z</Time>
            <Position>
              <LatitudeDegrees>-32.9662861861288547515869140625</LatitudeDegrees>
              <LongitudeDegrees>-69.27579159848392009735107421875</LongitudeDegrees>
            </Position>
            <AltitudeMeters>1808.5999755859375</AltitudeMeters>
            <DistanceMeters>10759.901246231</DistanceMeters>
          </Trackpoint>
          <Trackpoint>
            <Time>2021-08-29T16:20:22.000Z</Time>
            <Position>
              <LatitudeDegrees>-32.96631376259028911590576171875</LatitudeDegrees>
              <LongitudeDegrees>-69.275797046720981597900390625</LongitudeDegrees>
            </Position>
            <AltitudeMeters>1808.5999755859375</AltitudeMeters>
            <DistanceMeters>10763.01255495</DistanceMeters>
          </Trackpoint>
          <Trackpoint>
            <Time>2021-08-29T16:20:29.000Z</Time>
            <Position>
              <LatitudeDegrees>-32.966490201652050018310546875</LatitudeDegrees>
              <LongitudeDegrees>-69.275896959006786346435546875</LongitudeDegrees>
            </Position>
            <AltitudeMeters>1809.199951171875</AltitudeMeters>
            <DistanceMeters>10784.754160494</DistanceMeters>
          </Trackpoint>
          <Trackpoint>
            <Time>2021-08-29T16:20:33.000Z</Time>
            <Position>
              <LatitudeDegrees>-32.96656337566673755645751953125</LatitudeDegrees>
              <LongitudeDegrees>-69.275982119143009185791015625</LongitudeDegrees>
            </Position>
            <AltitudeMeters>1809.800048828125</AltitudeMeters>
            <DistanceMeters>10796.136758476</DistanceMeters>
          </Trackpoint>
          <Trackpoint>
            <Time>2021-08-29T16:20:35.000Z</Time>
            <Position>
              <LatitudeDegrees>-32.96659707091748714447021484375</LatitudeDegrees>
              <LongitudeDegrees>-69.27602360956370830535888671875</LongitudeDegrees>
            </Position>
            <AltitudeMeters>1810.199951171875</AltitudeMeters>
            <DistanceMeters>10801.529053548</DistanceMeters>
          </Trackpoint>
          <Trackpoint>
            <Time>2021-08-29T16:20:40.000Z</Time>
            <Position>
              <LatitudeDegrees>-32.96668407507240772247314453125</LatitudeDegrees>
              <LongitudeDegrees>-69.27613257430493831634521484375</LongitudeDegrees>
            </Position>
            <AltitudeMeters>1811.199951171875</AltitudeMeters>
            <DistanceMeters>10815.575660623</DistanceMeters>
          </Trackpoint>
          <Trackpoint>
            <Time>2021-08-29T16:20:46.000Z</Time>
            <Position>
              <LatitudeDegrees>-32.96679966151714324951171875</LatitudeDegrees>
              <LongitudeDegrees>-69.276280514895915985107421875</LongitudeDegrees>
            </Position>
            <AltitudeMeters>1813.5999755859375</AltitudeMeters>
            <DistanceMeters>10834.453238242</DistanceMeters>
          </Trackpoint>
          <Trackpoint>
            <Time>2021-08-29T16:20:51.000Z</Time>
            <Position>
              <LatitudeDegrees>-32.96691365540027618408203125</LatitudeDegrees>
              <LongitudeDegrees>-69.27635771222412586212158203125</LongitudeDegrees>
            </Position>
            <AltitudeMeters>1816</AltitudeMeters>
            <DistanceMeters>10849.0459509</DistanceMeters>
          </Trackpoint>
          <Trackpoint>
            <Time>2021-08-29T16:20:57.000Z</Time>
            <Position>
              <LatitudeDegrees>-32.96706427820026874542236328125</LatitudeDegrees>
              <LongitudeDegrees>-69.27628965117037296295166015625</LongitudeDegrees>
            </Position>
            <AltitudeMeters>1815.800048828125</AltitudeMeters>
            <DistanceMeters>10866.97505186</DistanceMeters>
          </Trackpoint>
          <Trackpoint>
            <Time>2021-08-29T16:21:05.000Z</Time>
            <Position>
              <LatitudeDegrees>-32.967187575995922088623046875</LatitudeDegrees>
              <LongitudeDegrees>-69.2760832048952579498291015625</LongitudeDegrees>
            </Position>
            <AltitudeMeters>1812.5999755859375</AltitudeMeters>
            <DistanceMeters>10890.638802629</DistanceMeters>
          </Trackpoint>
          <Trackpoint>
            <Time>2021-08-29T16:21:10.000Z</Time>
            <Position>
              <LatitudeDegrees>-32.96723074279725551605224609375</LatitudeDegrees>
              <LongitudeDegrees>-69.2759832926094532012939453125</LongitudeDegrees>
            </Position>
            <AltitudeMeters>1812</AltitudeMeters>
            <DistanceMeters>10901.133985927</DistanceMeters>
          </Trackpoint>
          <Trackpoint>
            <Time>2021-08-29T16:21:12.000Z</Time>
            <Position>
              <LatitudeDegrees>-32.96724767424166202545166015625</LatitudeDegrees>
              <LongitudeDegrees>-69.2759403772652149200439453125</LongitudeDegrees>
            </Position>
            <AltitudeMeters>1811.5999755859375</AltitudeMeters>
            <DistanceMeters>10905.563698797</DistanceMeters>
          </Trackpoint>
          <Trackpoint>
            <Time>2021-08-29T16:21:13.000Z</Time>
            <Position>
              <LatitudeDegrees>-32.9672576487064361572265625</LatitudeDegrees>
              <LongitudeDegrees>-69.27591397427022457122802734375</LongitudeDegrees>
            </Position>
            <AltitudeMeters>1811.4000244140625</AltitudeMeters>
            <DistanceMeters>10908.268206501</DistanceMeters>
          </Trackpoint>
          <Trackpoint>
            <Time>2021-08-29T16:21:17.000Z</Time>
            <Position>
              <LatitudeDegrees>-32.9672957025468349456787109375</LatitudeDegrees>
              <LongitudeDegrees>-69.27579394541680812835693359375</LongitudeDegrees>
            </Position>
            <AltitudeMeters>1810.199951171875</AltitudeMeters>
            <DistanceMeters>10920.249865623</DistanceMeters>
          </Trackpoint>
          <Trackpoint>
            <Time>2021-08-29T16:21:18.000Z</Time>
            <Position>
              <LatitudeDegrees>-32.967307604849338531494140625</LatitudeDegrees>
              <LongitudeDegrees>-69.27576511166989803314208984375</LongitudeDegrees>
            </Position>
            <AltitudeMeters>1809.5999755859375</AltitudeMeters>
            <DistanceMeters>10923.250363284</DistanceMeters>
          </Trackpoint>
          <Trackpoint>
            <Time>2021-08-29T16:21:21.000Z</Time>
            <Position>
              <LatitudeDegrees>-32.96735026873648166656494140625</LatitudeDegrees>
              <LongitudeDegrees>-69.2756916023790836334228515625</LongitudeDegrees>
            </Position>
            <AltitudeMeters>1808.4000244140625</AltitudeMeters>
            <DistanceMeters>10931.597041651</DistanceMeters>
          </Trackpoint>
          <Trackpoint>
            <Time>2021-08-29T16:21:26.000Z</Time>
            <Position>
              <LatitudeDegrees>-32.96738061122596263885498046875</LatitudeDegrees>
              <LongitudeDegrees>-69.27564877085387706756591796875</LongitudeDegrees>
            </Position>
            <AltitudeMeters>1807.800048828125</AltitudeMeters>
            <DistanceMeters>10936.83300499</DistanceMeters>
          </Trackpoint>
          <Trackpoint>
            <Time>2021-08-29T16:21:45.000Z</Time>
            <Position>
              <LatitudeDegrees>-32.96738731674849987030029296875</LatitudeDegrees>
              <LongitudeDegrees>-69.27566670812666416168212890625</LongitudeDegrees>
            </Position>
            <AltitudeMeters>1808</AltitudeMeters>
            <DistanceMeters>10938.665813883</DistanceMeters>
          </Trackpoint>
          <Trackpoint>
            <Time>2021-08-29T16:21:50.000Z</Time>
            <Position>
              <LatitudeDegrees>-32.9673875682055950164794921875</LatitudeDegrees>
              <LongitudeDegrees>-69.27566670812666416168212890625</LongitudeDegrees>
            </Position>
            <AltitudeMeters>1808</AltitudeMeters>
            <DistanceMeters>10938.665813883</DistanceMeters>
          </Trackpoint>
          <Trackpoint>
            <Time>2021-08-29T16:21:55.000Z</Time>
            <Position>
              <LatitudeDegrees>-32.967387735843658447265625</LatitudeDegrees>
              <LongitudeDegrees>-69.2756580747663974761962890625</LongitudeDegrees>
            </Position>
            <AltitudeMeters>1807.800048828125</AltitudeMeters>
            <DistanceMeters>10939.472142292</DistanceMeters>
          </Trackpoint>
          <Trackpoint>
            <Time>2021-08-29T16:21:56.000Z</Time>
            <Position>
              <LatitudeDegrees>-32.96738798730075359344482421875</LatitudeDegrees>
              <LongitudeDegrees>-69.2756389640271663665771484375</LongitudeDegrees>
            </Position>
            <AltitudeMeters>1807.5999755859375</AltitudeMeters>
            <DistanceMeters>10941.255001487</DistanceMeters>
          </Trackpoint>
          <Trackpoint>
            <Time>2021-08-29T16:21:59.000Z</Time>
            <Position>
              <LatitudeDegrees>-32.96738572418689727783203125</LatitudeDegrees>
              <LongitudeDegrees>-69.2755769379436969757080078125</LongitudeDegrees>
            </Position>
            <AltitudeMeters>1806.5999755859375</AltitudeMeters>
            <DistanceMeters>10947.052409918</DistanceMeters>
          </Trackpoint>
          <Trackpoint>
            <Time>2021-08-29T16:22:01.000Z</Time>
            <Position>
              <LatitudeDegrees>-32.96739821322262287139892578125</LatitudeDegrees>
              <LongitudeDegrees>-69.27556109614670276641845703125</LongitudeDegrees>
            </Position>
            <AltitudeMeters>1806.4000244140625</AltitudeMeters>
            <DistanceMeters>10949.081625249</DistanceMeters>
          </Trackpoint>
          <Trackpoint>
            <Time>2021-08-29T16:22:03.000Z</Time>
            <Position>
              <LatitudeDegrees>-32.967402823269367218017578125</LatitudeDegrees>
              <LongitudeDegrees>-69.2755491100251674652099609375</LongitudeDegrees>
            </Position>
            <AltitudeMeters>1806.199951171875</AltitudeMeters>
            <DistanceMeters>10950.31331224</DistanceMeters>
          </Trackpoint>
          <Trackpoint>
            <Time>2021-08-29T16:22:06.000Z</Time>
            <Position>
              <LatitudeDegrees>-32.96740676276385784149169921875</LatitudeDegrees>
              <LongitudeDegrees>-69.27555137313902378082275390625</LongitudeDegrees>
            </Position>
            <AltitudeMeters>1806.199951171875</AltitudeMeters>
            <DistanceMeters>10950.797855311</DistanceMeters>
          </Trackpoint>
          <Trackpoint>
            <Time>2021-08-29T16:22:08.000Z</Time>
            <Position>
              <LatitudeDegrees>-32.9674026556313037872314453125</LatitudeDegrees>
              <LongitudeDegrees>-69.27554684691131114959716796875</LongitudeDegrees>
            </Position>
            <AltitudeMeters>1806.199951171875</AltitudeMeters>
            <DistanceMeters>10951.428191224</DistanceMeters>
          </Trackpoint>
          <Trackpoint>
            <Time>2021-08-29T16:22:10.000Z</Time>
            <Position>
              <LatitudeDegrees>-32.96739620156586170196533203125</LatitudeDegrees>
              <LongitudeDegrees>-69.27554651163518428802490234375</LongitudeDegrees>
            </Position>
            <AltitudeMeters>1806.199951171875</AltitudeMeters>
            <DistanceMeters>10952.139306039</DistanceMeters>
          </Trackpoint>
          <Trackpoint>
            <Time>2021-08-29T16:22:12.000Z</Time>
            <Position>
              <LatitudeDegrees>-32.96739234589040279388427734375</LatitudeDegrees>
              <LongitudeDegrees>-69.27554600872099399566650390625</LongitudeDegrees>
            </Position>
            <AltitudeMeters>1806.199951171875</AltitudeMeters>
            <DistanceMeters>10952.564278425</DistanceMeters>
          </Trackpoint>
          <Trackpoint>
            <Time>2021-08-29T16:22:13.000Z</Time>
            <Position>
              <LatitudeDegrees>-32.96739385463297367095947265625</LatitudeDegrees>
              <LongitudeDegrees>-69.27554483525454998016357421875</LongitudeDegrees>
            </Position>
            <AltitudeMeters>1806.199951171875</AltitudeMeters>
            <DistanceMeters>10952.754331854</DistanceMeters>
          </Trackpoint>
          <Trackpoint>
            <Time>2021-08-29T16:22:17.000Z</Time>
            <Position>
              <LatitudeDegrees>-32.9673929326236248016357421875</LatitudeDegrees>
              <LongitudeDegrees>-69.27554567344486713409423828125</LongitudeDegrees>
            </Position>
            <AltitudeMeters>1806.199951171875</AltitudeMeters>
            <DistanceMeters>10952.888719922</DistanceMeters>
          </Trackpoint>
          <Trackpoint>
            <Time>2021-08-29T16:22:21.000Z</Time>
            <Position>
              <LatitudeDegrees>-32.967395447194576263427734375</LatitudeDegrees>
              <LongitudeDegrees>-69.27554584108293056488037109375</LongitudeDegrees>
            </Position>
            <AltitudeMeters>1806.199951171875</AltitudeMeters>
            <DistanceMeters>10953.157496059</DistanceMeters>
          </Trackpoint>
          <Trackpoint>
            <Time>2021-08-29T16:22:28.000Z</Time>
            <Position>
              <LatitudeDegrees>-32.9673905856907367706298828125</LatitudeDegrees>
              <LongitudeDegrees>-69.27554500289261341094970703125</LongitudeDegrees>
            </Position>
            <AltitudeMeters>1806.199951171875</AltitudeMeters>
            <DistanceMeters>10953.703382973</DistanceMeters>
          </Trackpoint>
          <Trackpoint>
            <Time>2021-08-29T16:22:31.000Z</Time>
            <Position>
              <LatitudeDegrees>-32.9673272185027599334716796875</LatitudeDegrees>
              <LongitudeDegrees>-69.2755548097193241119384765625</LongitudeDegrees>
            </Position>
            <AltitudeMeters>1806.4000244140625</AltitudeMeters>
            <DistanceMeters>10960.815800862</DistanceMeters>
          </Trackpoint>
          <Trackpoint>
            <Time>2021-08-29T16:22:34.000Z</Time>
            <Position>
              <LatitudeDegrees>-32.9672698862850666046142578125</LatitudeDegrees>
              <LongitudeDegrees>-69.275556318461894989013671875</LongitudeDegrees>
            </Position>
            <AltitudeMeters>1806.4000244140625</AltitudeMeters>
            <DistanceMeters>10967.198173058</DistanceMeters>
          </Trackpoint>
          <Trackpoint>
            <Time>2021-08-29T16:22:37.000Z</Time>
            <Position>
              <LatitudeDegrees>-32.967256642878055572509765625</LatitudeDegrees>
              <LongitudeDegrees>-69.27555288188159465789794921875</LongitudeDegrees>
            </Position>
            <AltitudeMeters>1806.4000244140625</AltitudeMeters>
            <DistanceMeters>10968.706675383</DistanceMeters>
          </Trackpoint>
          <Trackpoint>
            <Time>2021-08-29T16:22:39.000Z</Time>
            <Position>
              <LatitudeDegrees>-32.96726913191378116607666015625</LatitudeDegrees>
              <LongitudeDegrees>-69.2755591683089733123779296875</LongitudeDegrees>
            </Position>
            <AltitudeMeters>1806.4000244140625</AltitudeMeters>
            <DistanceMeters>10970.215177707</DistanceMeters>
          </Trackpoint>
          <Trackpoint>
            <Time>2021-08-29T16:22:43.000Z</Time>
            <Position>
              <LatitudeDegrees>-32.967285476624965667724609375</LatitudeDegrees>
              <LongitudeDegrees>-69.27555992268025875091552734375</LongitudeDegrees>
            </Position>
            <AltitudeMeters>1806.4000244140625</AltitudeMeters>
            <DistanceMeters>10972.038106157</DistanceMeters>
          </Trackpoint>
          <Trackpoint>
            <Time>2021-08-29T16:22:50.000Z</Time>
            <Position>
              <LatitudeDegrees>-32.96728723682463169097900390625</LatitudeDegrees>
              <LongitudeDegrees>-69.27555975504219532012939453125</LongitudeDegrees>
            </Position>
            <AltitudeMeters>1806.4000244140625</AltitudeMeters>
            <DistanceMeters>10972.228159585</DistanceMeters>
          </Trackpoint>
          <Trackpoint>
            <Time>2021-08-29T16:22:55.000Z</Time>
            <Position>
              <LatitudeDegrees>-32.96728556044399738311767578125</LatitudeDegrees>
              <LongitudeDegrees>-69.27555975504219532012939453125</LongitudeDegrees>
            </Position>
            <AltitudeMeters>1806.4000244140625</AltitudeMeters>
            <DistanceMeters>10972.418213014</DistanceMeters>
          </Trackpoint>
          <Trackpoint>
            <Time>2021-08-29T16:23:05.000Z</Time>
            <Position>
              <LatitudeDegrees>-32.9672826267778873443603515625</LatitudeDegrees>
              <LongitudeDegrees>-69.27555992268025875091552734375</LongitudeDegrees>
            </Position>
            <AltitudeMeters>1806.4000244140625</AltitudeMeters>
            <DistanceMeters>10972.747395209</DistanceMeters>
          </Trackpoint>
          <Trackpoint>
            <Time>2021-08-29T16:23:07.000Z</Time>
            <Position>
              <LatitudeDegrees>-32.96728245913982391357421875</LatitudeDegrees>
              <LongitudeDegrees>-69.275560341775417327880859375</LongitudeDegrees>
            </Position>
            <AltitudeMeters>1806.4000244140625</AltitudeMeters>
            <DistanceMeters>10972.747395209</DistanceMeters>
          </Trackpoint>
          <Trackpoint>
            <Time>2021-08-29T16:23:17.000Z</Time>
            <Position>
              <LatitudeDegrees>-32.96728245913982391357421875</LatitudeDegrees>
              <LongitudeDegrees>-69.27556076087057590484619140625</LongitudeDegrees>
            </Position>
            <AltitudeMeters>1806.4000244140625</AltitudeMeters>
            <DistanceMeters>10972.747395209</DistanceMeters>
          </Trackpoint>
          <Trackpoint>
            <Time>2021-08-29T16:23:29.000Z</Time>
            <Position>
              <LatitudeDegrees>-32.9672983847558498382568359375</LatitudeDegrees>
              <LongitudeDegrees>-69.275554306805133819580078125</LongitudeDegrees>
            </Position>
            <AltitudeMeters>1806.4000244140625</AltitudeMeters>
            <DistanceMeters>10974.621614976</DistanceMeters>
          </Trackpoint>
          <Trackpoint>
            <Time>2021-08-29T16:23:31.000Z</Time>
            <Position>
              <LatitudeDegrees>-32.9673208482563495635986328125</LatitudeDegrees>
              <LongitudeDegrees>-69.275542907416820526123046875</LongitudeDegrees>
            </Position>
            <AltitudeMeters>1806.199951171875</AltitudeMeters>
            <DistanceMeters>10977.339445459</DistanceMeters>
          </Trackpoint>
          <Trackpoint>
            <Time>2021-08-29T16:23:33.000Z</Time>
            <Position>
              <LatitudeDegrees>-32.96734909527003765106201171875</LatitudeDegrees>
              <LongitudeDegrees>-69.2755403928458690643310546875</LongitudeDegrees>
            </Position>
            <AltitudeMeters>1806</AltitudeMeters>
            <DistanceMeters>10980.491125025</DistanceMeters>
          </Trackpoint>
          <Trackpoint>
            <Time>2021-08-29T16:23:38.000Z</Time>
            <Position>
              <LatitudeDegrees>-32.96737927012145519256591796875</LatitudeDegrees>
              <LongitudeDegrees>-69.2755380459129810333251953125</LongitudeDegrees>
            </Position>
            <AltitudeMeters>1806</AltitudeMeters>
            <DistanceMeters>10983.857539429</DistanceMeters>
          </Trackpoint>
          <Trackpoint>
            <Time>2021-08-29T16:23:46.000Z</Time>
            <Position>
              <LatitudeDegrees>-32.96737893484532833099365234375</LatitudeDegrees>
              <LongitudeDegrees>-69.27553729154169559478759765625</LongitudeDegrees>
            </Position>
            <AltitudeMeters>1806</AltitudeMeters>
            <DistanceMeters>10983.952566143</DistanceMeters>
          </Trackpoint>
          <Trackpoint>
            <Time>2021-08-29T16:23:47.000Z</Time>
            <Position>
              <LatitudeDegrees>-32.96737893484532833099365234375</LatitudeDegrees>
              <LongitudeDegrees>-69.27553729154169559478759765625</LongitudeDegrees>
            </Position>
            <AltitudeMeters>1806</AltitudeMeters>
            <DistanceMeters>10983.952566143</DistanceMeters>
          </Trackpoint>
          <Trackpoint>
            <Time>2021-08-29T16:23:49.000Z</Time>
            <Position>
              <LatitudeDegrees>-32.96737893484532833099365234375</LatitudeDegrees>
              <LongitudeDegrees>-69.27553729154169559478759765625</LongitudeDegrees>
            </Position>
            <AltitudeMeters>1806</AltitudeMeters>
            <DistanceMeters>10983.952566143</DistanceMeters>
          </Trackpoint>
          <Trackpoint>
            <Time>2021-08-29T16:23:51.000Z</Time>
            <Position>
              <LatitudeDegrees>-32.96737893484532833099365234375</LatitudeDegrees>
              <LongitudeDegrees>-69.27553729154169559478759765625</LongitudeDegrees>
            </Position>
            <AltitudeMeters>1806</AltitudeMeters>
            <DistanceMeters>10983.952566143</DistanceMeters>
          </Trackpoint>
          <Trackpoint>
            <Time>2021-08-29T16:23:59.000Z</Time>
            <Position>
              <LatitudeDegrees>-32.96737927012145519256591796875</LatitudeDegrees>
              <LongitudeDegrees>-69.27553729154169559478759765625</LongitudeDegrees>
            </Position>
            <AltitudeMeters>1806</AltitudeMeters>
            <DistanceMeters>10983.952566143</DistanceMeters>
          </Trackpoint>
          <Trackpoint>
            <Time>2021-08-29T16:24:21.000Z</Time>
            <Position>
              <LatitudeDegrees>-32.96739284880459308624267578125</LatitudeDegrees>
              <LongitudeDegrees>-69.27553695626556873321533203125</LongitudeDegrees>
            </Position>
            <AltitudeMeters>1806</AltitudeMeters>
            <DistanceMeters>10985.461068468</DistanceMeters>
          </Trackpoint>
          <Trackpoint>
            <Time>2021-08-29T16:24:25.000Z</Time>
            <Position>
              <LatitudeDegrees>-32.96740190126001834869384765625</LatitudeDegrees>
              <LongitudeDegrees>-69.2755346931517124176025390625</LongitudeDegrees>
            </Position>
            <AltitudeMeters>1806</AltitudeMeters>
            <DistanceMeters>10986.484537504</DistanceMeters>
          </Trackpoint>
          <Trackpoint>
            <Time>2021-08-29T16:24:28.000Z</Time>
            <Position>
              <LatitudeDegrees>-32.96747314743697643280029296875</LatitudeDegrees>
              <LongitudeDegrees>-69.27552555687725543975830078125</LongitudeDegrees>
            </Position>
            <AltitudeMeters>1805.800048828125</AltitudeMeters>
            <DistanceMeters>10994.459991</DistanceMeters>
          </Trackpoint>
          <Trackpoint>
            <Time>2021-08-29T16:24:33.000Z</Time>
            <Position>
              <LatitudeDegrees>-32.967591248452663421630859375</LatitudeDegrees>
              <LongitudeDegrees>-69.27551466040313243865966796875</LongitudeDegrees>
            </Position>
            <AltitudeMeters>1805.4000244140625</AltitudeMeters>
            <DistanceMeters>11007.644412548</DistanceMeters>
          </Trackpoint>
          <Trackpoint>
            <Time>2021-08-29T16:24:35.000Z</Time>
            <Position>
              <LatitudeDegrees>-32.96765872277319431304931640625</LatitudeDegrees>
              <LongitudeDegrees>-69.27551709115505218505859375</LongitudeDegrees>
            </Position>
            <AltitudeMeters>1805.800048828125</AltitudeMeters>
            <DistanceMeters>11015.158135854</DistanceMeters>
          </Trackpoint>
          <Trackpoint>
            <Time>2021-08-29T16:24:36.000Z</Time>
            <Position>
              <LatitudeDegrees>-32.96768453903496265411376953125</LatitudeDegrees>
              <LongitudeDegrees>-69.275520779192447662353515625</LongitudeDegrees>
            </Position>
            <AltitudeMeters>1805.800048828125</AltitudeMeters>
            <DistanceMeters>11018.049822349</DistanceMeters>
          </Trackpoint>
          <Trackpoint>
            <Time>2021-08-29T16:24:41.000Z</Time>
            <Position>
              <LatitudeDegrees>-32.96789190731942653656005859375</LatitudeDegrees>
              <LongitudeDegrees>-69.2755514569580554962158203125</LongitudeDegrees>
            </Position>
            <AltitudeMeters>1807.199951171875</AltitudeMeters>
            <DistanceMeters>11041.307501493</DistanceMeters>
          </Trackpoint>
          <Trackpoint>
            <Time>2021-08-29T16:24:43.000Z</Time>
            <Position>
              <LatitudeDegrees>-32.96799249015748500823974609375</LatitudeDegrees>
              <LongitudeDegrees>-69.27554986439645290374755859375</LongitudeDegrees>
            </Position>
            <AltitudeMeters>1807.800048828125</AltitudeMeters>
            <DistanceMeters>11052.503326211</DistanceMeters>
          </Trackpoint>
          <Trackpoint>
            <Time>2021-08-29T16:24:47.000Z</Time>
            <Position>
              <LatitudeDegrees>-32.9681682586669921875</LatitudeDegrees>
              <LongitudeDegrees>-69.2754994891583919525146484375</LongitudeDegrees>
            </Position>
            <AltitudeMeters>1808.199951171875</AltitudeMeters>
            <DistanceMeters>11072.624097002</DistanceMeters>
          </Trackpoint>
          <Trackpoint>
            <Time>2021-08-29T16:24:52.000Z</Time>
            <Position>
              <LatitudeDegrees>-32.96831779181957244873046875</LatitudeDegrees>
              <LongitudeDegrees>-69.27539010532200336456298828125</LongitudeDegrees>
            </Position>
            <AltitudeMeters>1807.5999755859375</AltitudeMeters>
            <DistanceMeters>11092.151797792</DistanceMeters>
          </Trackpoint>
          <Trackpoint>
            <Time>2021-08-29T16:24:57.000Z</Time>
            <Position>
              <LatitudeDegrees>-32.96846355311572551727294921875</LatitudeDegrees>
              <LongitudeDegrees>-69.27532531321048736572265625</LongitudeDegrees>
            </Position>
            <AltitudeMeters>1807.199951171875</AltitudeMeters>
            <DistanceMeters>11109.467010701</DistanceMeters>
          </Trackpoint>
          <Trackpoint>
            <Time>2021-08-29T16:25:02.000Z</Time>
            <Position>
              <LatitudeDegrees>-32.9686213843524456024169921875</LatitudeDegrees>
              <LongitudeDegrees>-69.27537166513502597808837890625</LongitudeDegrees>
            </Position>
            <AltitudeMeters>1807.800048828125</AltitudeMeters>
            <DistanceMeters>11127.559058981</DistanceMeters>
          </Trackpoint>
          <Trackpoint>
            <Time>2021-08-29T16:25:06.000Z</Time>
            <Position>
              <LatitudeDegrees>-32.96875675208866596221923828125</LatitudeDegrees>
              <LongitudeDegrees>-69.27545950748026371002197265625</LongitudeDegrees>
            </Position>
            <AltitudeMeters>1808.5999755859375</AltitudeMeters>
            <DistanceMeters>11144.713947243</DistanceMeters>
          </Trackpoint>
          <Trackpoint>
            <Time>2021-08-29T16:25:07.000Z</Time>
            <Position>
              <LatitudeDegrees>-32.96878105960786342620849609375</LatitudeDegrees>
              <LongitudeDegrees>-69.27547392435371875762939453125</LongitudeDegrees>
            </Position>
            <AltitudeMeters>1808.800048828125</AltitudeMeters>
            <DistanceMeters>11147.736932086</DistanceMeters>
          </Trackpoint>
          <Trackpoint>
            <Time>2021-08-29T16:25:09.000Z</Time>
            <Position>
              <LatitudeDegrees>-32.96884157694876194000244140625</LatitudeDegrees>
              <LongitudeDegrees>-69.27550761960446834564208984375</LongitudeDegrees>
            </Position>
            <AltitudeMeters>1809</AltitudeMeters>
            <DistanceMeters>11155.171520032</DistanceMeters>
          </Trackpoint>
          <Trackpoint>
            <Time>2021-08-29T16:25:10.000Z</Time>
            <Position>
              <LatitudeDegrees>-32.96886672265827655792236328125</LatitudeDegrees>
              <LongitudeDegrees>-69.27552270703017711639404296875</LongitudeDegrees>
            </Position>
            <AltitudeMeters>1809.199951171875</AltitudeMeters>
            <DistanceMeters>11158.304520685</DistanceMeters>
          </Trackpoint>
          <Trackpoint>
            <Time>2021-08-29T16:25:12.000Z</Time>
            <Position>
              <LatitudeDegrees>-32.96891265548765659332275390625</LatitudeDegrees>
              <LongitudeDegrees>-69.2755486071109771728515625</LongitudeDegrees>
            </Position>
            <AltitudeMeters>1809.4000244140625</AltitudeMeters>
            <DistanceMeters>11163.960805759</DistanceMeters>
          </Trackpoint>
          <Trackpoint>
            <Time>2021-08-29T16:25:14.000Z</Time>
            <Position>
              <LatitudeDegrees>-32.96896277926862239837646484375</LatitudeDegrees>
              <LongitudeDegrees>-69.27557785995304584503173828125</LongitudeDegrees>
            </Position>
            <AltitudeMeters>1809.5999755859375</AltitudeMeters>
            <DistanceMeters>11170.171802987</DistanceMeters>
          </Trackpoint>
          <Trackpoint>
            <Time>2021-08-29T16:25:19.000Z</Time>
            <Position>
              <LatitudeDegrees>-32.96909219585359096527099609375</LatitudeDegrees>
              <LongitudeDegrees>-69.27562563680112361907958984375</LongitudeDegrees>
            </Position>
            <AltitudeMeters>1810.199951171875</AltitudeMeters>
            <DistanceMeters>11185.251437765</DistanceMeters>
          </Trackpoint>
          <Trackpoint>
            <Time>2021-08-29T16:25:21.000Z</Time>
            <Position>
              <LatitudeDegrees>-32.96914064325392246246337890625</LatitudeDegrees>
              <LongitudeDegrees>-69.2756268940865993499755859375</LongitudeDegrees>
            </Position>
            <AltitudeMeters>1810.199951171875</AltitudeMeters>
            <DistanceMeters>11190.643732837</DistanceMeters>
          </Trackpoint>
          <Trackpoint>
            <Time>2021-08-29T16:25:23.000Z</Time>
            <Position>
              <LatitudeDegrees>-32.9691943712532520294189453125</LatitudeDegrees>
              <LongitudeDegrees>-69.27561700344085693359375</LongitudeDegrees>
            </Position>
            <AltitudeMeters>1810.199951171875</AltitudeMeters>
            <DistanceMeters>11196.694181573</DistanceMeters>
          </Trackpoint>
          <Trackpoint>
            <Time>2021-08-29T16:25:26.000Z</Time>
            <Position>
              <LatitudeDegrees>-32.9692969657480716705322265625</LatitudeDegrees>
              <LongitudeDegrees>-69.27561792545020580291748046875</LongitudeDegrees>
            </Position>
            <AltitudeMeters>1810.199951171875</AltitudeMeters>
            <DistanceMeters>11208.113609489</DistanceMeters>
          </Trackpoint>
          <Trackpoint>
            <Time>2021-08-29T16:25:27.000Z</Time>
            <Position>
              <LatitudeDegrees>-32.96933493576943874359130859375</LatitudeDegrees>
              <LongitudeDegrees>-69.275621362030506134033203125</LongitudeDegrees>
            </Position>
            <AltitudeMeters>1810.199951171875</AltitudeMeters>
            <DistanceMeters>11212.352695726</DistanceMeters>
          </Trackpoint>
          <Trackpoint>
            <Time>2021-08-29T16:25:31.000Z</Time>
            <Position>
              <LatitudeDegrees>-32.9694662801921367645263671875</LatitudeDegrees>
              <LongitudeDegrees>-69.2756369523704051971435546875</LongitudeDegrees>
            </Position>
            <AltitudeMeters>1810</AltitudeMeters>
            <DistanceMeters>11227.043776594</DistanceMeters>
          </Trackpoint>
          <Trackpoint>
            <Time>2021-08-29T16:25:34.000Z</Time>
            <Position>
              <LatitudeDegrees>-32.9695477522909641265869140625</LatitudeDegrees>
              <LongitudeDegrees>-69.27563837729394435882568359375</LongitudeDegrees>
            </Position>
            <AltitudeMeters>1809.800048828125</AltitudeMeters>
            <DistanceMeters>11236.112731123</DistanceMeters>
          </Trackpoint>
          <Trackpoint>
            <Time>2021-08-29T16:25:40.000Z</Time>
            <Position>
              <LatitudeDegrees>-32.969688065350055694580078125</LatitudeDegrees>
              <LongitudeDegrees>-69.27559378556907176971435546875</LongitudeDegrees>
            </Position>
            <AltitudeMeters>1809.199951171875</AltitudeMeters>
            <DistanceMeters>11252.275096401</DistanceMeters>
          </Trackpoint>
          <Trackpoint>
            <Time>2021-08-29T16:25:46.000Z</Time>
            <Position>
              <LatitudeDegrees>-32.96980247832834720611572265625</LatitudeDegrees>
              <LongitudeDegrees>-69.275491945445537567138671875</LongitudeDegrees>
            </Position>
            <AltitudeMeters>1808.5999755859375</AltitudeMeters>
            <DistanceMeters>11268.16815458</DistanceMeters>
          </Trackpoint>
          <Trackpoint>
            <Time>2021-08-29T16:25:47.000Z</Time>
            <Position>
              <LatitudeDegrees>-32.9698196612298488616943359375</LatitudeDegrees>
              <LongitudeDegrees>-69.2754662968218326568603515625</LongitudeDegrees>
            </Position>
            <AltitudeMeters>1808.4000244140625</AltitudeMeters>
            <DistanceMeters>11271.232674037</DistanceMeters>
          </Trackpoint>
          <Trackpoint>
            <Time>2021-08-29T16:25:53.000Z</Time>
            <Position>
              <LatitudeDegrees>-32.96995435841381549835205078125</LatitudeDegrees>
              <LongitudeDegrees>-69.275263287127017974853515625</LongitudeDegrees>
            </Position>
            <AltitudeMeters>1807</AltitudeMeters>
            <DistanceMeters>11295.40105203</DistanceMeters>
          </Trackpoint>
          <Trackpoint>
            <Time>2021-08-29T16:25:59.000Z</Time>
            <Position>
              <LatitudeDegrees>-32.9701183922588825225830078125</LatitudeDegrees>
              <LongitudeDegrees>-69.2751377262175083160400390625</LongitudeDegrees>
            </Position>
            <AltitudeMeters>1806.199951171875</AltitudeMeters>
            <DistanceMeters>11317.098795357</DistanceMeters>
          </Trackpoint>
          <Trackpoint>
            <Time>2021-08-29T16:26:04.000Z</Time>
            <Position>
              <LatitudeDegrees>-32.97025057487189769744873046875</LatitudeDegrees>
              <LongitudeDegrees>-69.27516949363052845001220703125</LongitudeDegrees>
            </Position>
            <AltitudeMeters>1805.5999755859375</AltitudeMeters>
            <DistanceMeters>11332.107000673</DistanceMeters>
          </Trackpoint>
          <Trackpoint>
            <Time>2021-08-29T16:26:09.000Z</Time>
            <Position>
              <LatitudeDegrees>-32.97042542137205600738525390625</LatitudeDegrees>
              <LongitudeDegrees>-69.2753117345273494720458984375</LongitudeDegrees>
            </Position>
            <AltitudeMeters>1805</AltitudeMeters>
            <DistanceMeters>11355.668260815</DistanceMeters>
          </Trackpoint>
          <Trackpoint>
            <Time>2021-08-29T16:26:16.000Z</Time>
            <Position>
              <LatitudeDegrees>-32.9706746153533458709716796875</LatitudeDegrees>
              <LongitudeDegrees>-69.27555589936673641204833984375</LongitudeDegrees>
            </Position>
            <AltitudeMeters>1805.5999755859375</AltitudeMeters>
            <DistanceMeters>11391.572014556</DistanceMeters>
          </Trackpoint>
          <Trackpoint>
            <Time>2021-08-29T16:26:22.000Z</Time>
            <Position>
              <LatitudeDegrees>-32.970840744674205780029296875</LatitudeDegrees>
              <LongitudeDegrees>-69.27567140199244022369384765625</LongitudeDegrees>
            </Position>
            <AltitudeMeters>1805.5999755859375</AltitudeMeters>
            <DistanceMeters>11412.978139826</DistanceMeters>
          </Trackpoint>
          <Trackpoint>
            <Time>2021-08-29T16:26:26.000Z</Time>
            <Position>
              <LatitudeDegrees>-32.97093453817069530487060546875</LatitudeDegrees>
              <LongitudeDegrees>-69.2756657861173152923583984375</LongitudeDegrees>
            </Position>
            <AltitudeMeters>1805.199951171875</AltitudeMeters>
            <DistanceMeters>11423.430214491</DistanceMeters>
          </Trackpoint>
          <Trackpoint>
            <Time>2021-08-29T16:26:28.000Z</Time>
            <Position>
              <LatitudeDegrees>-32.97097862698137760162353515625</LatitudeDegrees>
              <LongitudeDegrees>-69.27565245889127254486083984375</LongitudeDegrees>
            </Position>
            <AltitudeMeters>1805.4000244140625</AltitudeMeters>
            <DistanceMeters>11428.49434493</DistanceMeters>
          </Trackpoint>
          <Trackpoint>
            <Time>2021-08-29T16:26:31.000Z</Time>
            <Position>
              <LatitudeDegrees>-32.9710357077419757843017578125</LatitudeDegrees>
              <LongitudeDegrees>-69.2756255529820919036865234375</LongitudeDegrees>
            </Position>
            <AltitudeMeters>1805.5999755859375</AltitudeMeters>
            <DistanceMeters>11435.32702341</DistanceMeters>
          </Trackpoint>
          <Trackpoint>
            <Time>2021-08-29T16:26:33.000Z</Time>
            <Position>
              <LatitudeDegrees>-32.971075437963008880615234375</LatitudeDegrees>
              <LongitudeDegrees>-69.2755836434662342071533203125</LongitudeDegrees>
            </Position>
            <AltitudeMeters>1805.4000244140625</AltitudeMeters>
            <DistanceMeters>11441.232457791</DistanceMeters>
          </Trackpoint>
          <Trackpoint>
            <Time>2021-08-29T16:26:34.000Z</Time>
            <Position>
              <LatitudeDegrees>-32.97109178267419338226318359375</LatitudeDegrees>
              <LongitudeDegrees>-69.27555690519511699676513671875</LongitudeDegrees>
            </Position>
            <AltitudeMeters>1805.199951171875</AltitudeMeters>
            <DistanceMeters>11444.321922276</DistanceMeters>
          </Trackpoint>
          <Trackpoint>
            <Time>2021-08-29T16:26:36.000Z</Time>
            <Position>
              <LatitudeDegrees>-32.97113218344748020172119140625</LatitudeDegrees>
              <LongitudeDegrees>-69.2754790373146533966064453125</LongitudeDegrees>
            </Position>
            <AltitudeMeters>1804.800048828125</AltitudeMeters>
            <DistanceMeters>11452.871158425</DistanceMeters>
          </Trackpoint>
          <Trackpoint>
            <Time>2021-08-29T16:26:39.000Z</Time>
            <Position>
              <LatitudeDegrees>-32.97117778100073337554931640625</LatitudeDegrees>
              <LongitudeDegrees>-69.27538943476974964141845703125</LongitudeDegrees>
            </Position>
            <AltitudeMeters>1804.199951171875</AltitudeMeters>
            <DistanceMeters>11462.65660326</DistanceMeters>
          </Trackpoint>
          <Trackpoint>
            <Time>2021-08-29T16:26:40.000Z</Time>
            <Position>
              <LatitudeDegrees>-32.97118733637034893035888671875</LatitudeDegrees>
              <LongitudeDegrees>-69.27534786053001880645751953125</LongitudeDegrees>
            </Position>
            <AltitudeMeters>1803.800048828125</AltitudeMeters>
            <DistanceMeters>11466.681520295</DistanceMeters>
          </Trackpoint>
          <Trackpoint>
            <Time>2021-08-29T16:26:48.000Z</Time>
            <Position>
              <LatitudeDegrees>-32.97119714319705963134765625</LatitudeDegrees>
              <LongitudeDegrees>-69.2750619538128376007080078125</LongitudeDegrees>
            </Position>
            <AltitudeMeters>1802.199951171875</AltitudeMeters>
            <DistanceMeters>11493.400761371</DistanceMeters>
          </Trackpoint>
          <Trackpoint>
            <Time>2021-08-29T16:26:50.000Z</Time>
            <Position>
              <LatitudeDegrees>-32.971219606697559356689453125</LatitudeDegrees>
              <LongitudeDegrees>-69.27499380894005298614501953125</LongitudeDegrees>
            </Position>
            <AltitudeMeters>1802</AltitudeMeters>
            <DistanceMeters>11500.237403505</DistanceMeters>
          </Trackpoint>
          <Trackpoint>
            <Time>2021-08-29T16:26:52.000Z</Time>
            <Position>
              <LatitudeDegrees>-32.97124902717769145965576171875</LatitudeDegrees>
              <LongitudeDegrees>-69.2749382369220256805419921875</LongitudeDegrees>
            </Position>
            <AltitudeMeters>1802</AltitudeMeters>
            <DistanceMeters>11506.373068807</DistanceMeters>
          </Trackpoint>
          <Trackpoint>
            <Time>2021-08-29T16:26:54.000Z</Time>
            <Position>
              <LatitudeDegrees>-32.9712916910648345947265625</LatitudeDegrees>
              <LongitudeDegrees>-69.27488434128463268280029296875</LongitudeDegrees>
            </Position>
            <AltitudeMeters>1801.800048828125</AltitudeMeters>
            <DistanceMeters>11513.292423206</DistanceMeters>
          </Trackpoint>
          <Trackpoint>
            <Time>2021-08-29T16:26:57.000Z</Time>
            <Position>
              <LatitudeDegrees>-32.97136218287050724029541015625</LatitudeDegrees>
              <LongitudeDegrees>-69.2748322896659374237060546875</LongitudeDegrees>
            </Position>
            <AltitudeMeters>1801.800048828125</AltitudeMeters>
            <DistanceMeters>11522.521273677</DistanceMeters>
          </Trackpoint>
          <Trackpoint>
            <Time>2021-08-29T16:27:00.000Z</Time>
            <Position>
              <LatitudeDegrees>-32.97144985757768154144287109375</LatitudeDegrees>
              <LongitudeDegrees>-69.27479918114840984344482421875</LongitudeDegrees>
            </Position>
            <AltitudeMeters>1802</AltitudeMeters>
            <DistanceMeters>11532.757728486</DistanceMeters>
          </Trackpoint>
          <Trackpoint>
            <Time>2021-08-29T16:27:09.000Z</Time>
            <Position>
              <LatitudeDegrees>-32.971674911677837371826171875</LatitudeDegrees>
              <LongitudeDegrees>-69.274782501161098480224609375</LongitudeDegrees>
            </Position>
            <AltitudeMeters>1802.5999755859375</AltitudeMeters>
            <DistanceMeters>11557.85521745</DistanceMeters>
          </Trackpoint>
          <Trackpoint>
            <Time>2021-08-29T16:27:18.000Z</Time>
            <Position>
              <LatitudeDegrees>-32.97188420780003070831298828125</LatitudeDegrees>
              <LongitudeDegrees>-69.27484528161585330963134765625</LongitudeDegrees>
            </Position>
            <AltitudeMeters>1802.4000244140625</AltitudeMeters>
            <DistanceMeters>11581.876873199</DistanceMeters>
          </Trackpoint>
          <Trackpoint>
            <Time>2021-08-29T16:27:26.000Z</Time>
            <Position>
              <LatitudeDegrees>-32.97205410897731781005859375</LatitudeDegrees>
              <LongitudeDegrees>-69.27495114505290985107421875</LongitudeDegrees>
            </Position>
            <AltitudeMeters>1802</AltitudeMeters>
            <DistanceMeters>11603.214973266</DistanceMeters>
          </Trackpoint>
          <Trackpoint>
            <Time>2021-08-29T16:27:30.000Z</Time>
            <Position>
              <LatitudeDegrees>-32.97207782976329326629638671875</LatitudeDegrees>
              <LongitudeDegrees>-69.27504024468362331390380859375</LongitudeDegrees>
            </Position>
            <AltitudeMeters>1802.4000244140625</AltitudeMeters>
            <DistanceMeters>11611.943475712</DistanceMeters>
          </Trackpoint>
          <Trackpoint>
            <Time>2021-08-29T16:27:32.000Z</Time>
            <Position>
              <LatitudeDegrees>-32.97209325246512889862060546875</LatitudeDegrees>
              <LongitudeDegrees>-69.275104366242885589599609375</LongitudeDegrees>
            </Position>
            <AltitudeMeters>1802.800048828125</AltitudeMeters>
            <DistanceMeters>11618.171895127</DistanceMeters>
          </Trackpoint>
          <Trackpoint>
            <Time>2021-08-29T16:27:34.000Z</Time>
            <Position>
              <LatitudeDegrees>-32.97212242148816585540771484375</LatitudeDegrees>
              <LongitudeDegrees>-69.27517603151500225067138671875</LongitudeDegrees>
            </Position>
            <AltitudeMeters>1803</AltitudeMeters>
            <DistanceMeters>11625.609518961</DistanceMeters>
          </Trackpoint>
          <Trackpoint>
            <Time>2021-08-29T16:27:35.000Z</Time>
            <Position>
              <LatitudeDegrees>-32.9721434600651264190673828125</LatitudeDegrees>
              <LongitudeDegrees>-69.27520905621349811553955078125</LongitudeDegrees>
            </Position>
            <AltitudeMeters>1803</AltitudeMeters>
            <DistanceMeters>11629.481201656</DistanceMeters>
          </Trackpoint>
          <Trackpoint>
            <Time>2021-08-29T16:27:40.000Z</Time>
            <Position>
              <LatitudeDegrees>-32.972280420362949371337890625</LatitudeDegrees>
              <LongitudeDegrees>-69.27531634457409381866455078125</LongitudeDegrees>
            </Position>
            <AltitudeMeters>1803.199951171875</AltitudeMeters>
            <DistanceMeters>11647.722123418</DistanceMeters>
          </Trackpoint>
          <Trackpoint>
            <Time>2021-08-29T16:27:47.000Z</Time>
            <Position>
              <LatitudeDegrees>-32.97249591909348964691162109375</LatitudeDegrees>
              <LongitudeDegrees>-69.27532388828694820404052734375</LongitudeDegrees>
            </Position>
            <AltitudeMeters>1802</AltitudeMeters>
            <DistanceMeters>11671.717827083</DistanceMeters>
          </Trackpoint>
          <Trackpoint>
            <Time>2021-08-29T16:27:52.000Z</Time>
            <Position>
              <LatitudeDegrees>-32.97266758047044277191162109375</LatitudeDegrees>
              <LongitudeDegrees>-69.275294132530689239501953125</LongitudeDegrees>
            </Position>
            <AltitudeMeters>1800.4000244140625</AltitudeMeters>
            <DistanceMeters>11691.024860921</DistanceMeters>
          </Trackpoint>
          <Trackpoint>
            <Time>2021-08-29T16:27:55.000Z</Time>
            <Position>
              <LatitudeDegrees>-32.97275894321501255035400390625</LatitudeDegrees>
              <LongitudeDegrees>-69.27530276589095592498779296875</LongitudeDegrees>
            </Position>
            <AltitudeMeters>1800</AltitudeMeters>
            <DistanceMeters>11701.225526138</DistanceMeters>
          </Trackpoint>
          <Trackpoint>
            <Time>2021-08-29T16:28:00.000Z</Time>
            <Position>
              <LatitudeDegrees>-32.97286941669881343841552734375</LatitudeDegrees>
              <LongitudeDegrees>-69.2753818072378635406494140625</LongitudeDegrees>
            </Position>
            <AltitudeMeters>1801</AltitudeMeters>
            <DistanceMeters>11715.566376566</DistanceMeters>
          </Trackpoint>
          <Trackpoint>
            <Time>2021-08-29T16:28:09.000Z</Time>
            <Position>
              <LatitudeDegrees>-32.9730939678847789764404296875</LatitudeDegrees>
              <LongitudeDegrees>-69.27558473311364650726318359375</LongitudeDegrees>
            </Position>
            <AltitudeMeters>1803.4000244140625</AltitudeMeters>
            <DistanceMeters>11746.930087242</DistanceMeters>
          </Trackpoint>
          <Trackpoint>
            <Time>2021-08-29T16:28:18.000Z</Time>
            <Position>
              <LatitudeDegrees>-32.973369397222995758056640625</LatitudeDegrees>
              <LongitudeDegrees>-69.275681041181087493896484375</LongitudeDegrees>
            </Position>
            <AltitudeMeters>1803.5999755859375</AltitudeMeters>
            <DistanceMeters>11778.877723779</DistanceMeters>
          </Trackpoint>
          <Trackpoint>
            <Time>2021-08-29T16:28:23.000Z</Time>
            <Position>
              <LatitudeDegrees>-32.9735532961785793304443359375</LatitudeDegrees>
              <LongitudeDegrees>-69.27563108503818511962890625</LongitudeDegrees>
            </Position>
            <AltitudeMeters>1800.4000244140625</AltitudeMeters>
            <DistanceMeters>11799.871101566</DistanceMeters>
          </Trackpoint>
          <Trackpoint>
            <Time>2021-08-29T16:28:28.000Z</Time>
            <Position>
              <LatitudeDegrees>-32.9737578146159648895263671875</LatitudeDegrees>
              <LongitudeDegrees>-69.27554483525454998016357421875</LongitudeDegrees>
            </Position>
            <AltitudeMeters>1796.800048828125</AltitudeMeters>
            <DistanceMeters>11824.016864249</DistanceMeters>
          </Trackpoint>
          <Trackpoint>
            <Time>2021-08-29T16:28:31.000Z</Time>
            <Position>
              <LatitudeDegrees>-32.97389410436153411865234375</LatitudeDegrees>
              <LongitudeDegrees>-69.2755072005093097686767578125</LongitudeDegrees>
            </Position>
            <AltitudeMeters>1796</AltitudeMeters>
            <DistanceMeters>11839.587622819</DistanceMeters>
          </Trackpoint>
          <Trackpoint>
            <Time>2021-08-29T16:28:35.000Z</Time>
            <Position>
              <LatitudeDegrees>-32.97404766082763671875</LatitudeDegrees>
              <LongitudeDegrees>-69.275506697595119476318359375</LongitudeDegrees>
            </Position>
            <AltitudeMeters>1795.4000244140625</AltitudeMeters>
            <DistanceMeters>11856.678699813</DistanceMeters>
          </Trackpoint>
          <Trackpoint>
            <Time>2021-08-29T16:28:36.000Z</Time>
            <Position>
              <LatitudeDegrees>-32.97407272271811962127685546875</LatitudeDegrees>
              <LongitudeDegrees>-69.27552379667758941650390625</LongitudeDegrees>
            </Position>
            <AltitudeMeters>1795.5999755859375</AltitudeMeters>
            <DistanceMeters>11859.891389866</DistanceMeters>
          </Trackpoint>
          <Trackpoint>
            <Time>2021-08-29T16:28:38.000Z</Time>
            <Position>
              <LatitudeDegrees>-32.9741001315414905548095703125</LatitudeDegrees>
              <LongitudeDegrees>-69.2755700647830963134765625</LongitudeDegrees>
            </Position>
            <AltitudeMeters>1795.800048828125</AltitudeMeters>
            <DistanceMeters>11865.179692689</DistanceMeters>
          </Trackpoint>
          <Trackpoint>
            <Time>2021-08-29T16:28:40.000Z</Time>
            <Position>
              <LatitudeDegrees>-32.97411262057721614837646484375</LatitudeDegrees>
              <LongitudeDegrees>-69.275628067553043365478515625</LongitudeDegrees>
            </Position>
            <AltitudeMeters>1796.199951171875</AltitudeMeters>
            <DistanceMeters>11870.770946989</DistanceMeters>
          </Trackpoint>
          <Trackpoint>
            <Time>2021-08-29T16:28:43.000Z</Time>
            <Position>
              <LatitudeDegrees>-32.9741135425865650177001953125</LatitudeDegrees>
              <LongitudeDegrees>-69.27574331872165203094482421875</LongitudeDegrees>
            </Position>
            <AltitudeMeters>1797.199951171875</AltitudeMeters>
            <DistanceMeters>11881.53290594</DistanceMeters>
          </Trackpoint>
          <Trackpoint>
            <Time>2021-08-29T16:28:45.000Z</Time>
            <Position>
              <LatitudeDegrees>-32.97410323284566402435302734375</LatitudeDegrees>
              <LongitudeDegrees>-69.275839626789093017578125</LongitudeDegrees>
            </Position>
            <AltitudeMeters>1798</AltitudeMeters>
            <DistanceMeters>11890.597876742</DistanceMeters>
          </Trackpoint>
          <Trackpoint>
            <Time>2021-08-29T16:28:52.000Z</Time>
            <Position>
              <LatitudeDegrees>-32.9740568809211254119873046875</LatitudeDegrees>
              <LongitudeDegrees>-69.27610851824283599853515625</LongitudeDegrees>
            </Position>
            <AltitudeMeters>1802.4000244140625</AltitudeMeters>
            <DistanceMeters>11916.229736638</DistanceMeters>
          </Trackpoint>
          <Trackpoint>
            <Time>2021-08-29T16:28:54.000Z</Time>
            <Position>
              <LatitudeDegrees>-32.9740575514733791351318359375</LatitudeDegrees>
              <LongitudeDegrees>-69.276173897087574005126953125</LongitudeDegrees>
            </Position>
            <AltitudeMeters>1803</AltitudeMeters>
            <DistanceMeters>11922.334417259</DistanceMeters>
          </Trackpoint>
          <Trackpoint>
            <Time>2021-08-29T16:28:57.000Z</Time>
            <Position>
              <LatitudeDegrees>-32.97410457395017147064208984375</LatitudeDegrees>
              <LongitudeDegrees>-69.2762593924999237060546875</LongitudeDegrees>
            </Position>
            <AltitudeMeters>1803.199951171875</AltitudeMeters>
            <DistanceMeters>11931.879754934</DistanceMeters>
          </Trackpoint>
          <Trackpoint>
            <Time>2021-08-29T16:29:01.000Z</Time>
            <Position>
              <LatitudeDegrees>-32.97420280985534191131591796875</LatitudeDegrees>
              <LongitudeDegrees>-69.276261739432811737060546875</LongitudeDegrees>
            </Position>
            <AltitudeMeters>1801.800048828125</AltitudeMeters>
            <DistanceMeters>11942.815674302</DistanceMeters>
          </Trackpoint>
          <Trackpoint>
            <Time>2021-08-29T16:29:03.000Z</Time>
            <Position>
              <LatitudeDegrees>-32.97423952259123325347900390625</LatitudeDegrees>
              <LongitudeDegrees>-69.27621840499341487884521484375</LongitudeDegrees>
            </Position>
            <AltitudeMeters>1800.800048828125</AltitudeMeters>
            <DistanceMeters>11948.56616471</DistanceMeters>
          </Trackpoint>
          <Trackpoint>
            <Time>2021-08-29T16:29:05.000Z</Time>
            <Position>
              <LatitudeDegrees>-32.97426936216652393341064453125</LatitudeDegrees>
              <LongitudeDegrees>-69.27616174332797527313232421875</LongitudeDegrees>
            </Position>
            <AltitudeMeters>1800.4000244140625</AltitudeMeters>
            <DistanceMeters>11954.811957714</DistanceMeters>
          </Trackpoint>
          <Trackpoint>
            <Time>2021-08-29T16:29:06.000Z</Time>
            <Position>
              <LatitudeDegrees>-32.97428076155483722686767578125</LatitudeDegrees>
              <LongitudeDegrees>-69.27612821571528911590576171875</LongitudeDegrees>
            </Position>
            <AltitudeMeters>1800</AltitudeMeters>
            <DistanceMeters>11958.190421362</DistanceMeters>
          </Trackpoint>
          <Trackpoint>
            <Time>2021-08-29T16:29:11.000Z</Time>
            <Position>
              <LatitudeDegrees>-32.97434337437152862548828125</LatitudeDegrees>
              <LongitudeDegrees>-69.27592922933399677276611328125</LongitudeDegrees>
            </Position>
            <AltitudeMeters>1798.199951171875</AltitudeMeters>
            <DistanceMeters>11978.034402152</DistanceMeters>
          </Trackpoint>
          <Trackpoint>
            <Time>2021-08-29T16:29:15.000Z</Time>
            <Position>
              <LatitudeDegrees>-32.9744223318994045257568359375</LatitudeDegrees>
              <LongitudeDegrees>-69.27573963068425655364990234375</LongitudeDegrees>
            </Position>
            <AltitudeMeters>1796.5999755859375</AltitudeMeters>
            <DistanceMeters>11997.798816559</DistanceMeters>
          </Trackpoint>
          <Trackpoint>
            <Time>2021-08-29T16:29:17.000Z</Time>
            <Position>
              <LatitudeDegrees>-32.97444538213312625885009765625</LatitudeDegrees>
              <LongitudeDegrees>-69.275636784732341766357421875</LongitudeDegrees>
            </Position>
            <AltitudeMeters>1795.5999755859375</AltitudeMeters>
            <DistanceMeters>12007.738538204</DistanceMeters>
          </Trackpoint>
          <Trackpoint>
            <Time>2021-08-29T16:29:20.000Z</Time>
            <Position>
              <LatitudeDegrees>-32.974469102919101715087890625</LatitudeDegrees>
              <LongitudeDegrees>-69.2754830606281757354736328125</LongitudeDegrees>
            </Position>
            <AltitudeMeters>1794.199951171875</AltitudeMeters>
            <DistanceMeters>12022.333107165</DistanceMeters>
          </Trackpoint>
          <Trackpoint>
            <Time>2021-08-29T16:29:22.000Z</Time>
            <Position>
              <LatitudeDegrees>-32.97450791113078594207763671875</LatitudeDegrees>
              <LongitudeDegrees>-69.2753756046295166015625</LongitudeDegrees>
            </Position>
            <AltitudeMeters>1793.199951171875</AltitudeMeters>
            <DistanceMeters>12033.256633616</DistanceMeters>
          </Trackpoint>
          <Trackpoint>
            <Time>2021-08-29T16:29:28.000Z</Time>
            <Position>
              <LatitudeDegrees>-32.9746131040155887603759765625</LatitudeDegrees>
              <LongitudeDegrees>-69.2750964872539043426513671875</LongitudeDegrees>
            </Position>
            <AltitudeMeters>1790.4000244140625</AltitudeMeters>
            <DistanceMeters>12061.827454751</DistanceMeters>
          </Trackpoint>
          <Trackpoint>
            <Time>2021-08-29T16:29:34.000Z</Time>
            <Position>
              <LatitudeDegrees>-32.9746556840837001800537109375</LatitudeDegrees>
              <LongitudeDegrees>-69.27488216198980808258056640625</LongitudeDegrees>
            </Position>
            <AltitudeMeters>1788.5999755859375</AltitudeMeters>
            <DistanceMeters>12082.392781404</DistanceMeters>
          </Trackpoint>
          <Trackpoint>
            <Time>2021-08-29T16:29:39.000Z</Time>
            <Position>
              <LatitudeDegrees>-32.9747830890119075775146484375</LatitudeDegrees>
              <LongitudeDegrees>-69.2746569402515888214111328125</LongitudeDegrees>
            </Position>
            <AltitudeMeters>1786.4000244140625</AltitudeMeters>
            <DistanceMeters>12107.756548987</DistanceMeters>
          </Trackpoint>
          <Trackpoint>
            <Time>2021-08-29T16:29:46.000Z</Time>
            <Position>
              <LatitudeDegrees>-32.9750425927340984344482421875</LatitudeDegrees>
              <LongitudeDegrees>-69.27440808154642581939697265625</LongitudeDegrees>
            </Position>
            <AltitudeMeters>1783.800048828125</AltitudeMeters>
            <DistanceMeters>12144.826469045</DistanceMeters>
          </Trackpoint>
          <Trackpoint>
            <Time>2021-08-29T16:29:48.000Z</Time>
            <Position>
              <LatitudeDegrees>-32.9751165211200714111328125</LatitudeDegrees>
              <LongitudeDegrees>-69.2743702791631221771240234375</LongitudeDegrees>
            </Position>
            <AltitudeMeters>1783.199951171875</AltitudeMeters>
            <DistanceMeters>12153.779680122</DistanceMeters>
          </Trackpoint>
          <Trackpoint>
            <Time>2021-08-29T16:29:49.000Z</Time>
            <Position>
              <LatitudeDegrees>-32.97515180893242359161376953125</LatitudeDegrees>
              <LongitudeDegrees>-69.27435728721320629119873046875</LongitudeDegrees>
            </Position>
            <AltitudeMeters>1783.199951171875</AltitudeMeters>
            <DistanceMeters>12157.890066117</DistanceMeters>
          </Trackpoint>
          <Trackpoint>
            <Time>2021-08-29T16:29:51.000Z</Time>
            <Position>
              <LatitudeDegrees>-32.97522523440420627593994140625</LatitudeDegrees>
              <LongitudeDegrees>-69.2743307165801525115966796875</LongitudeDegrees>
            </Position>
            <AltitudeMeters>1782.800048828125</AltitudeMeters>
            <DistanceMeters>12166.430848137</DistanceMeters>
          </Trackpoint>
          <Trackpoint>
            <Time>2021-08-29T16:29:54.000Z</Time>
            <Position>
              <LatitudeDegrees>-32.97532749362289905548095703125</LatitudeDegrees>
              <LongitudeDegrees>-69.27429978735744953155517578125</LongitudeDegrees>
            </Position>
            <AltitudeMeters>1782.5999755859375</AltitudeMeters>
            <DistanceMeters>12178.173474219</DistanceMeters>
          </Trackpoint>
          <Trackpoint>
            <Time>2021-08-29T16:29:58.000Z</Time>
            <Position>
              <LatitudeDegrees>-32.9754298366606235504150390625</LatitudeDegrees>
              <LongitudeDegrees>-69.27426449954509735107421875</LongitudeDegrees>
            </Position>
            <AltitudeMeters>1782.199951171875</AltitudeMeters>
            <DistanceMeters>12190.03126998</DistanceMeters>
          </Trackpoint>
          <Trackpoint>
            <Time>2021-08-29T16:30:02.000Z</Time>
            <Position>
              <LatitudeDegrees>-32.97553486190736293792724609375</LatitudeDegrees>
              <LongitudeDegrees>-69.27424170076847076416015625</LongitudeDegrees>
            </Position>
            <AltitudeMeters>1781.800048828125</AltitudeMeters>
            <DistanceMeters>12201.913029745</DistanceMeters>
          </Trackpoint>
          <Trackpoint>
            <Time>2021-08-29T16:30:05.000Z</Time>
            <Position>
              <LatitudeDegrees>-32.97564022243022918701171875</LatitudeDegrees>
              <LongitudeDegrees>-69.2742462269961833953857421875</LongitudeDegrees>
            </Position>
            <AltitudeMeters>1781.800048828125</AltitudeMeters>
            <DistanceMeters>12213.647193781</DistanceMeters>
          </Trackpoint>
          <Trackpoint>
            <Time>2021-08-29T16:30:10.000Z</Time>
            <Position>
              <LatitudeDegrees>-32.97577860765159130096435546875</LatitudeDegrees>
              <LongitudeDegrees>-69.27422921173274517059326171875</LongitudeDegrees>
            </Position>
            <AltitudeMeters>1781.4000244140625</AltitudeMeters>
            <DistanceMeters>12229.131008866</DistanceMeters>
          </Trackpoint>
          <Trackpoint>
            <Time>2021-08-29T16:30:11.000Z</Time>
            <Position>
              <LatitudeDegrees>-32.9758019931614398956298828125</LatitudeDegrees>
              <LongitudeDegrees>-69.27422552369534969329833984375</LongitudeDegrees>
            </Position>
            <AltitudeMeters>1781.4000244140625</AltitudeMeters>
            <DistanceMeters>12231.755879973</DistanceMeters>
          </Trackpoint>
          <Trackpoint>
            <Time>2021-08-29T16:30:14.000Z</Time>
            <Position>
              <LatitudeDegrees>-32.97587214969098567962646484375</LatitudeDegrees>
              <LongitudeDegrees>-69.27423977293074131011962890625</LongitudeDegrees>
            </Position>
            <AltitudeMeters>1781.4000244140625</AltitudeMeters>
            <DistanceMeters>12239.676799814</DistanceMeters>
          </Trackpoint>
          <Trackpoint>
            <Time>2021-08-29T16:30:17.000Z</Time>
            <Position>
              <LatitudeDegrees>-32.97595948912203311920166015625</LatitudeDegrees>
              <LongitudeDegrees>-69.2742713727056980133056640625</LongitudeDegrees>
            </Position>
            <AltitudeMeters>1781.5999755859375</AltitudeMeters>
            <DistanceMeters>12249.83532892</DistanceMeters>
          </Trackpoint>
          <Trackpoint>
            <Time>2021-08-29T16:30:19.000Z</Time>
            <Position>
              <LatitudeDegrees>-32.97603392042219638824462890625</LatitudeDegrees>
              <LongitudeDegrees>-69.27430263720452785491943359375</LongitudeDegrees>
            </Position>
            <AltitudeMeters>1781.800048828125</AltitudeMeters>
            <DistanceMeters>12258.618491395</DistanceMeters>
          </Trackpoint>
          <Trackpoint>
            <Time>2021-08-29T16:30:22.000Z</Time>
            <Position>
              <LatitudeDegrees>-32.9761453159153461456298828125</LatitudeDegrees>
              <LongitudeDegrees>-69.27431956864893436431884765625</LongitudeDegrees>
            </Position>
            <AltitudeMeters>1782</AltitudeMeters>
            <DistanceMeters>12271.117304238</DistanceMeters>
          </Trackpoint>
          <Trackpoint>
            <Time>2021-08-29T16:30:23.000Z</Time>
            <Position>
              <LatitudeDegrees>-32.97618806362152099609375</LatitudeDegrees>
              <LongitudeDegrees>-69.2743095941841602325439453125</LongitudeDegrees>
            </Position>
            <AltitudeMeters>1782</AltitudeMeters>
            <DistanceMeters>12275.966460769</DistanceMeters>
          </Trackpoint>
          <Trackpoint>
            <Time>2021-08-29T16:30:27.000Z</Time>
            <Position>
              <LatitudeDegrees>-32.97633089125156402587890625</LatitudeDegrees>
              <LongitudeDegrees>-69.27425771020352840423583984375</LongitudeDegrees>
            </Position>
            <AltitudeMeters>1781.5999755859375</AltitudeMeters>
            <DistanceMeters>12292.585000355</DistanceMeters>
          </Trackpoint>
          <Trackpoint>
            <Time>2021-08-29T16:30:33.000Z</Time>
            <Position>
              <LatitudeDegrees>-32.97653582878410816192626953125</LatitudeDegrees>
              <LongitudeDegrees>-69.27425377070903778076171875</LongitudeDegrees>
            </Position>
            <AltitudeMeters>1781.5999755859375</AltitudeMeters>
            <DistanceMeters>12315.397746038</DistanceMeters>
          </Trackpoint>
          <Trackpoint>
            <Time>2021-08-29T16:30:34.000Z</Time>
            <Position>
              <LatitudeDegrees>-32.976577319204807281494140625</LatitudeDegrees>
              <LongitudeDegrees>-69.2742569558322429656982421875</LongitudeDegrees>
            </Position>
            <AltitudeMeters>1781.4000244140625</AltitudeMeters>
            <DistanceMeters>12320.025849464</DistanceMeters>
          </Trackpoint>
          <Trackpoint>
            <Time>2021-08-29T16:30:39.000Z</Time>
            <Position>
              <LatitudeDegrees>-32.9767112620174884796142578125</LatitudeDegrees>
              <LongitudeDegrees>-69.2741878889501094818115234375</LongitudeDegrees>
            </Position>
            <AltitudeMeters>1780.4000244140625</AltitudeMeters>
            <DistanceMeters>12336.268747711</DistanceMeters>
          </Trackpoint>
          <Trackpoint>
            <Time>2021-08-29T16:30:44.000Z</Time>
            <Position>
              <LatitudeDegrees>-32.97680564224720001220703125</LatitudeDegrees>
              <LongitudeDegrees>-69.274092502892017364501953125</LongitudeDegrees>
            </Position>
            <AltitudeMeters>1779.4000244140625</AltitudeMeters>
            <DistanceMeters>12350.040738331</DistanceMeters>
          </Trackpoint>
          <Trackpoint>
            <Time>2021-08-29T16:30:49.000Z</Time>
            <Position>
              <LatitudeDegrees>-32.97689792700111865997314453125</LatitudeDegrees>
              <LongitudeDegrees>-69.2740990407764911651611328125</LongitudeDegrees>
            </Position>
            <AltitudeMeters>1779.199951171875</AltitudeMeters>
            <DistanceMeters>12360.330863519</DistanceMeters>
          </Trackpoint>
          <Trackpoint>
            <Time>2021-08-29T16:30:52.000Z</Time>
            <Position>
              <LatitudeDegrees>-32.9769633896648883819580078125</LatitudeDegrees>
              <LongitudeDegrees>-69.2741349153220653533935546875</LongitudeDegrees>
            </Position>
            <AltitudeMeters>1779.4000244140625</AltitudeMeters>
            <DistanceMeters>12368.349789529</DistanceMeters>
          </Trackpoint>
          <Trackpoint>
            <Time>2021-08-29T16:30:56.000Z</Time>
            <Position>
              <LatitudeDegrees>-32.9770374856889247894287109375</LatitudeDegrees>
              <LongitudeDegrees>-69.274203479290008544921875</LongitudeDegrees>
            </Position>
            <AltitudeMeters>1779.800048828125</AltitudeMeters>
            <DistanceMeters>12378.788896892</DistanceMeters>
          </Trackpoint>
          <Trackpoint>
            <Time>2021-08-29T16:30:57.000Z</Time>
            <Position>
              <LatitudeDegrees>-32.97705399803817272186279296875</LatitudeDegrees>
              <LongitudeDegrees>-69.274223260581493377685546875</LongitudeDegrees>
            </Position>
            <AltitudeMeters>1780</AltitudeMeters>
            <DistanceMeters>12381.394778218</DistanceMeters>
          </Trackpoint>
          <Trackpoint>
            <Time>2021-08-29T16:31:05.000Z</Time>
            <Position>
              <LatitudeDegrees>-32.9771482944488525390625</LatitudeDegrees>
              <LongitudeDegrees>-69.2744031362235546112060546875</LongitudeDegrees>
            </Position>
            <AltitudeMeters>1781.4000244140625</AltitudeMeters>
            <DistanceMeters>12401.199585726</DistanceMeters>
          </Trackpoint>
          <Trackpoint>
            <Time>2021-08-29T16:31:07.000Z</Time>
            <Position>
              <LatitudeDegrees>-32.97715977765619754791259765625</LatitudeDegrees>
              <LongitudeDegrees>-69.2744500748813152313232421875</LongitudeDegrees>
            </Position>
            <AltitudeMeters>1781.800048828125</AltitudeMeters>
            <DistanceMeters>12405.764825745</DistanceMeters>
          </Trackpoint>
          <Trackpoint>
            <Time>2021-08-29T16:31:10.000Z</Time>
            <Position>
              <LatitudeDegrees>-32.977192215621471405029296875</LatitudeDegrees>
              <LongitudeDegrees>-69.2745429463684558868408203125</LongitudeDegrees>
            </Position>
            <AltitudeMeters>1783</AltitudeMeters>
            <DistanceMeters>12415.158061446</DistanceMeters>
          </Trackpoint>
          <Trackpoint>
            <Time>2021-08-29T16:31:12.000Z</Time>
            <Position>
              <LatitudeDegrees>-32.9772188700735569000244140625</LatitudeDegrees>
              <LongitudeDegrees>-69.27460455335676670074462890625</LongitudeDegrees>
            </Position>
            <AltitudeMeters>1784</AltitudeMeters>
            <DistanceMeters>12421.631047982</DistanceMeters>
          </Trackpoint>
          <Trackpoint>
            <Time>2021-08-29T16:31:15.000Z</Time>
            <Position>
              <LatitudeDegrees>-32.9772855900228023529052734375</LatitudeDegrees>
              <LongitudeDegrees>-69.27467621862888336181640625</LongitudeDegrees>
            </Position>
            <AltitudeMeters>1784.800048828125</AltitudeMeters>
            <DistanceMeters>12431.627388609</DistanceMeters>
          </Trackpoint>
          <Trackpoint>
            <Time>2021-08-29T16:31:19.000Z</Time>
            <Position>
              <LatitudeDegrees>-32.97740603797137737274169921875</LatitudeDegrees>
              <LongitudeDegrees>-69.274675548076629638671875</LongitudeDegrees>
            </Position>
            <AltitudeMeters>1784.4000244140625</AltitudeMeters>
            <DistanceMeters>12445.033903501</DistanceMeters>
          </Trackpoint>
          <Trackpoint>
            <Time>2021-08-29T16:31:26.000Z</Time>
            <Position>
              <LatitudeDegrees>-32.9775460995733737945556640625</LatitudeDegrees>
              <LongitudeDegrees>-69.27453984506428241729736328125</LongitudeDegrees>
            </Position>
            <AltitudeMeters>1782.199951171875</AltitudeMeters>
            <DistanceMeters>12465.122559909</DistanceMeters>
          </Trackpoint>
          <Trackpoint>
            <Time>2021-08-29T16:31:32.000Z</Time>
            <Position>
              <LatitudeDegrees>-32.97766420058906078338623046875</LatitudeDegrees>
              <LongitudeDegrees>-69.2743401043117046356201171875</LongitudeDegrees>
            </Position>
            <AltitudeMeters>1779.5999755859375</AltitudeMeters>
            <DistanceMeters>12487.939263596</DistanceMeters>
          </Trackpoint>
          <Trackpoint>
            <Time>2021-08-29T16:31:37.000Z</Time>
            <Position>
              <LatitudeDegrees>-32.97777081839740276336669921875</LatitudeDegrees>
              <LongitudeDegrees>-69.27421395666897296905517578125</LongitudeDegrees>
            </Position>
            <AltitudeMeters>1778.199951171875</AltitudeMeters>
            <DistanceMeters>12504.659105298</DistanceMeters>
          </Trackpoint>
          <Trackpoint>
            <Time>2021-08-29T16:31:40.000Z</Time>
            <Position>
              <LatitudeDegrees>-32.97785916365683078765869140625</LatitudeDegrees>
              <LongitudeDegrees>-69.27416282705962657928466796875</LongitudeDegrees>
            </Position>
            <AltitudeMeters>1777.4000244140625</AltitudeMeters>
            <DistanceMeters>12515.589656127</DistanceMeters>
          </Trackpoint>
          <Trackpoint>
            <Time>2021-08-29T16:31:42.000Z</Time>
            <Position>
              <LatitudeDegrees>-32.97792035154998302459716796875</LatitudeDegrees>
              <LongitudeDegrees>-69.27414488978683948516845703125</LongitudeDegrees>
            </Position>
            <AltitudeMeters>1777.199951171875</AltitudeMeters>
            <DistanceMeters>12522.602344365</DistanceMeters>
          </Trackpoint>
          <Trackpoint>
            <Time>2021-08-29T16:31:43.000Z</Time>
            <Position>
              <LatitudeDegrees>-32.97794918529689311981201171875</LatitudeDegrees>
              <LongitudeDegrees>-69.2741404473781585693359375</LongitudeDegrees>
            </Position>
            <AltitudeMeters>1777</AltitudeMeters>
            <DistanceMeters>12525.838837633</DistanceMeters>
          </Trackpoint>
          <Trackpoint>
            <Time>2021-08-29T16:31:45.000Z</Time>
            <Position>
              <LatitudeDegrees>-32.97799947671592235565185546875</LatitudeDegrees>
              <LongitudeDegrees>-69.27414304576814174652099609375</LongitudeDegrees>
            </Position>
            <AltitudeMeters>1776.800048828125</AltitudeMeters>
            <DistanceMeters>12531.44057983</DistanceMeters>
          </Trackpoint>
          <Trackpoint>
            <Time>2021-08-29T16:31:46.000Z</Time>
            <Position>
              <LatitudeDegrees>-32.978032417595386505126953125</LatitudeDegrees>
              <LongitudeDegrees>-69.27415142767131328582763671875</LongitudeDegrees>
            </Position>
            <AltitudeMeters>1776.800048828125</AltitudeMeters>
            <DistanceMeters>12535.189019365</DistanceMeters>
          </Trackpoint>
          <Trackpoint>
            <Time>2021-08-29T16:31:48.000Z</Time>
            <Position>
              <LatitudeDegrees>-32.97808379866182804107666015625</LatitudeDegrees>
              <LongitudeDegrees>-69.27418579347431659698486328125</LongitudeDegrees>
            </Position>
            <AltitudeMeters>1776.800048828125</AltitudeMeters>
            <DistanceMeters>12541.74655122</DistanceMeters>
          </Trackpoint>
          <Trackpoint>
            <Time>2021-08-29T16:31:52.000Z</Time>
            <Position>
              <LatitudeDegrees>-32.97819008119404315948486328125</LatitudeDegrees>
              <LongitudeDegrees>-69.2742683552205562591552734375</LongitudeDegrees>
            </Position>
            <AltitudeMeters>1777.199951171875</AltitudeMeters>
            <DistanceMeters>12555.866254748</DistanceMeters>
          </Trackpoint>
          <Trackpoint>
            <Time>2021-08-29T16:31:55.000Z</Time>
            <Position>
              <LatitudeDegrees>-32.97828345559537410736083984375</LatitudeDegrees>
              <LongitudeDegrees>-69.2743488214910030364990234375</LongitudeDegrees>
            </Position>
            <AltitudeMeters>1777.5999755859375</AltitudeMeters>
            <DistanceMeters>12568.690285011</DistanceMeters>
          </Trackpoint>
          <Trackpoint>
            <Time>2021-08-29T16:31:58.000Z</Time>
            <Position>
              <LatitudeDegrees>-32.97839610837399959564208984375</LatitudeDegrees>
              <LongitudeDegrees>-69.27443490363657474517822265625</LongitudeDegrees>
            </Position>
            <AltitudeMeters>1777.800048828125</AltitudeMeters>
            <DistanceMeters>12583.583430001</DistanceMeters>
          </Trackpoint>
          <Trackpoint>
            <Time>2021-08-29T16:32:00.000Z</Time>
            <Position>
              <LatitudeDegrees>-32.97848093323409557342529296875</LatitudeDegrees>
              <LongitudeDegrees>-69.27444982342422008514404296875</LongitudeDegrees>
            </Position>
            <AltitudeMeters>1778</AltitudeMeters>
            <DistanceMeters>12593.126875449</DistanceMeters>
          </Trackpoint>
          <Trackpoint>
            <Time>2021-08-29T16:32:01.000Z</Time>
            <Position>
              <LatitudeDegrees>-32.97851747833192348480224609375</LatitudeDegrees>
              <LongitudeDegrees>-69.2744380049407482147216796875</LongitudeDegrees>
            </Position>
            <AltitudeMeters>1778</AltitudeMeters>
            <DistanceMeters>12597.342464428</DistanceMeters>
          </Trackpoint>
          <Trackpoint>
            <Time>2021-08-29T16:32:04.000Z</Time>
            <Position>
              <LatitudeDegrees>-32.9786075837910175323486328125</LatitudeDegrees>
              <LongitudeDegrees>-69.2743645794689655303955078125</LongitudeDegrees>
            </Position>
            <AltitudeMeters>1777.5999755859375</AltitudeMeters>
            <DistanceMeters>12609.49102687</DistanceMeters>
          </Trackpoint>
          <Trackpoint>
            <Time>2021-08-29T16:32:06.000Z</Time>
            <Position>
              <LatitudeDegrees>-32.97866986133158206939697265625</LatitudeDegrees>
              <LongitudeDegrees>-69.27430179901421070098876953125</LongitudeDegrees>
            </Position>
            <AltitudeMeters>1777.199951171875</AltitudeMeters>
            <DistanceMeters>12618.568441015</DistanceMeters>
          </Trackpoint>
          <Trackpoint>
            <Time>2021-08-29T16:32:10.000Z</Time>
            <Position>
              <LatitudeDegrees>-32.978773377835750579833984375</LatitudeDegrees>
              <LongitudeDegrees>-69.27418403327465057373046875</LongitudeDegrees>
            </Position>
            <AltitudeMeters>1776.4000244140625</AltitudeMeters>
            <DistanceMeters>12634.494986381</DistanceMeters>
          </Trackpoint>
          <Trackpoint>
            <Time>2021-08-29T16:32:12.000Z</Time>
            <Position>
              <LatitudeDegrees>-32.9788147844374179840087890625</LatitudeDegrees>
              <LongitudeDegrees>-69.27414706908166408538818359375</LongitudeDegrees>
            </Position>
            <AltitudeMeters>1776.199951171875</AltitudeMeters>
            <DistanceMeters>12640.252538867</DistanceMeters>
          </Trackpoint>
          <Trackpoint>
            <Time>2021-08-29T16:32:13.000Z</Time>
            <Position>
              <LatitudeDegrees>-32.9788392595946788787841796875</LatitudeDegrees>
              <LongitudeDegrees>-69.27412460558116436004638671875</LongitudeDegrees>
            </Position>
            <AltitudeMeters>1776</AltitudeMeters>
            <DistanceMeters>12643.689301877</DistanceMeters>
          </Trackpoint>
          <Trackpoint>
            <Time>2021-08-29T16:32:15.000Z</Time>
            <Position>
              <LatitudeDegrees>-32.978888712823390960693359375</LatitudeDegrees>
              <LongitudeDegrees>-69.27408336661756038665771484375</LongitudeDegrees>
            </Position>
            <AltitudeMeters>1775.800048828125</AltitudeMeters>
            <DistanceMeters>12650.40601699</DistanceMeters>
          </Trackpoint>
          <Trackpoint>
            <Time>2021-08-29T16:32:20.000Z</Time>
            <Position>
              <LatitudeDegrees>-32.97902978025376796722412109375</LatitudeDegrees>
              <LongitudeDegrees>-69.27402536384761333465576171875</LongitudeDegrees>
            </Position>
            <AltitudeMeters>1775.800048828125</AltitudeMeters>
            <DistanceMeters>12667.014772971</DistanceMeters>
          </Trackpoint>
          <Trackpoint>
            <Time>2021-08-29T16:32:26.000Z</Time>
            <Position>
              <LatitudeDegrees>-32.979223988950252532958984375</LatitudeDegrees>
              <LongitudeDegrees>-69.27406375296413898468017578125</LongitudeDegrees>
            </Position>
            <AltitudeMeters>1776.5999755859375</AltitudeMeters>
            <DistanceMeters>12688.926004663</DistanceMeters>
          </Trackpoint>
          <Trackpoint>
            <Time>2021-08-29T16:32:32.000Z</Time>
            <Position>
              <LatitudeDegrees>-32.97945725731551647186279296875</LatitudeDegrees>
              <LongitudeDegrees>-69.27414103411138057708740234375</LongitudeDegrees>
            </Position>
            <AltitudeMeters>1777.4000244140625</AltitudeMeters>
            <DistanceMeters>12715.873074396</DistanceMeters>
          </Trackpoint>
          <Trackpoint>
            <Time>2021-08-29T16:32:33.000Z</Time>
            <Position>
              <LatitudeDegrees>-32.97950084321200847625732421875</LatitudeDegrees>
              <LongitudeDegrees>-69.2741550318896770477294921875</LongitudeDegrees>
            </Position>
            <AltitudeMeters>1777.4000244140625</AltitudeMeters>
            <DistanceMeters>12720.896025081</DistanceMeters>
          </Trackpoint>
          <Trackpoint>
            <Time>2021-08-29T16:32:34.000Z</Time>
            <Position>
              <LatitudeDegrees>-32.97955230809748172760009765625</LatitudeDegrees>
              <LongitudeDegrees>-69.274165928363800048828125</LongitudeDegrees>
            </Position>
            <AltitudeMeters>1777.5999755859375</AltitudeMeters>
            <DistanceMeters>12726.713647148</DistanceMeters>
          </Trackpoint>
          <Trackpoint>
            <Time>2021-08-29T16:32:36.000Z</Time>
            <Position>
              <LatitudeDegrees>-32.9796311818063259124755859375</LatitudeDegrees>
              <LongitudeDegrees>-69.2741592228412628173828125</LongitudeDegrees>
            </Position>
            <AltitudeMeters>1777.5999755859375</AltitudeMeters>
            <DistanceMeters>12735.514783196</DistanceMeters>
          </Trackpoint>
          <Trackpoint>
            <Time>2021-08-29T16:32:38.000Z</Time>
            <Position>
              <LatitudeDegrees>-32.97971927560865879058837890625</LatitudeDegrees>
              <LongitudeDegrees>-69.27413164637982845306396484375</LongitudeDegrees>
            </Position>
            <AltitudeMeters>1777.5999755859375</AltitudeMeters>
            <DistanceMeters>12745.651955875</DistanceMeters>
          </Trackpoint>
          <Trackpoint>
            <Time>2021-08-29T16:32:43.000Z</Time>
            <Position>
              <LatitudeDegrees>-32.9798695631325244903564453125</LatitudeDegrees>
              <LongitudeDegrees>-69.27403542213141918182373046875</LongitudeDegrees>
            </Position>
            <AltitudeMeters>1775.4000244140625</AltitudeMeters>
            <DistanceMeters>12764.638997295</DistanceMeters>
          </Trackpoint>
          <Trackpoint>
            <Time>2021-08-29T16:32:45.000Z</Time>
            <Position>
              <LatitudeDegrees>-32.97991608269512653350830078125</LatitudeDegrees>
              <LongitudeDegrees>-69.27400440908968448638916015625</LongitudeDegrees>
            </Position>
            <AltitudeMeters>1774.5999755859375</AltitudeMeters>
            <DistanceMeters>12770.570369634</DistanceMeters>
          </Trackpoint>
          <Trackpoint>
            <Time>2021-08-29T16:32:48.000Z</Time>
            <Position>
              <LatitudeDegrees>-32.980006523430347442626953125</LatitudeDegrees>
              <LongitudeDegrees>-69.27396543323993682861328125</LongitudeDegrees>
            </Position>
            <AltitudeMeters>1773.4000244140625</AltitudeMeters>
            <DistanceMeters>12781.274275927</DistanceMeters>
          </Trackpoint>
          <Trackpoint>
            <Time>2021-08-29T16:32:49.000Z</Time>
            <Position>
              <LatitudeDegrees>-32.98004264943301677703857421875</LatitudeDegrees>
              <LongitudeDegrees>-69.27395512349903583526611328125</LongitudeDegrees>
            </Position>
            <AltitudeMeters>1773</AltitudeMeters>
            <DistanceMeters>12785.408757116</DistanceMeters>
          </Trackpoint>
          <Trackpoint>
            <Time>2021-08-29T16:32:54.000Z</Time>
            <Position>
              <LatitudeDegrees>-32.9802229441702365875244140625</LatitudeDegrees>
              <LongitudeDegrees>-69.2738963663578033447265625</LongitudeDegrees>
            </Position>
            <AltitudeMeters>1772.199951171875</AltitudeMeters>
            <DistanceMeters>12806.212446784</DistanceMeters>
          </Trackpoint>
          <Trackpoint>
            <Time>2021-08-29T16:32:56.000Z</Time>
            <Position>
              <LatitudeDegrees>-32.9802940227091312408447265625</LatitudeDegrees>
              <LongitudeDegrees>-69.27387029863893985748291015625</LongitudeDegrees>
            </Position>
            <AltitudeMeters>1772</AltitudeMeters>
            <DistanceMeters>12814.489049947</DistanceMeters>
          </Trackpoint>
          <Trackpoint>
            <Time>2021-08-29T16:33:04.000Z</Time>
            <Position>
              <LatitudeDegrees>-32.9806051589548587799072265625</LatitudeDegrees>
              <LongitudeDegrees>-69.27377440966665744781494140625</LongitudeDegrees>
            </Position>
            <AltitudeMeters>1771.4000244140625</AltitudeMeters>
            <DistanceMeters>12850.257615205</DistanceMeters>
          </Trackpoint>
          <Trackpoint>
            <Time>2021-08-29T16:33:09.000Z</Time>
            <Position>
              <LatitudeDegrees>-32.98081814311444759368896484375</LatitudeDegrees>
              <LongitudeDegrees>-69.27372830919921398162841796875</LongitudeDegrees>
            </Position>
            <AltitudeMeters>1771.199951171875</AltitudeMeters>
            <DistanceMeters>12874.350588745</DistanceMeters>
          </Trackpoint>
          <Trackpoint>
            <Time>2021-08-29T16:33:10.000Z</Time>
            <Position>
              <LatitudeDegrees>-32.98085234127938747406005859375</LatitudeDegrees>
              <LongitudeDegrees>-69.2737238667905330657958984375</LongitudeDegrees>
            </Position>
            <AltitudeMeters>1771.199951171875</AltitudeMeters>
            <DistanceMeters>12878.178880017</DistanceMeters>
          </Trackpoint>
          <Trackpoint>
            <Time>2021-08-29T16:33:12.000Z</Time>
            <Position>
              <LatitudeDegrees>-32.98091067932546138763427734375</LatitudeDegrees>
              <LongitudeDegrees>-69.273713640868663787841796875</LongitudeDegrees>
            </Position>
            <AltitudeMeters>1771.199951171875</AltitudeMeters>
            <DistanceMeters>12884.741917777</DistanceMeters>
          </Trackpoint>
          <Trackpoint>
            <Time>2021-08-29T16:33:19.000Z</Time>
            <Position>
              <LatitudeDegrees>-32.98111016862094402313232421875</LatitudeDegrees>
              <LongitudeDegrees>-69.27366443909704685211181640625</LongitudeDegrees>
            </Position>
            <AltitudeMeters>1771</AltitudeMeters>
            <DistanceMeters>12907.415698055</DistanceMeters>
          </Trackpoint>
          <Trackpoint>
            <Time>2021-08-29T16:33:20.000Z</Time>
            <Position>
              <LatitudeDegrees>-32.981137745082378387451171875</LatitudeDegrees>
              <LongitudeDegrees>-69.2736551351845264434814453125</LongitudeDegrees>
            </Position>
            <AltitudeMeters>1771</AltitudeMeters>
            <DistanceMeters>12910.605822842</DistanceMeters>
          </Trackpoint>
          <Trackpoint>
            <Time>2021-08-29T16:33:21.000Z</Time>
            <Position>
              <LatitudeDegrees>-32.98115945421159267425537109375</LatitudeDegrees>
              <LongitudeDegrees>-69.27364734001457691192626953125</LongitudeDegrees>
            </Position>
            <AltitudeMeters>1771</AltitudeMeters>
            <DistanceMeters>12913.127166495</DistanceMeters>
          </Trackpoint>
          <Trackpoint>
            <Time>2021-08-29T16:33:22.000Z</Time>
            <Position>
              <LatitudeDegrees>-32.9811890423297882080078125</LatitudeDegrees>
              <LongitudeDegrees>-69.27363594062626361846923828125</LongitudeDegrees>
            </Position>
            <AltitudeMeters>1771</AltitudeMeters>
            <DistanceMeters>12916.587496156</DistanceMeters>
          </Trackpoint>
          <Trackpoint>
            <Time>2021-08-29T16:33:23.000Z</Time>
            <Position>
              <LatitudeDegrees>-32.9812136851251125335693359375</LatitudeDegrees>
              <LongitudeDegrees>-69.27362739108502864837646484375</LongitudeDegrees>
            </Position>
            <AltitudeMeters>1771</AltitudeMeters>
            <DistanceMeters>12919.444625678</DistanceMeters>
          </Trackpoint>
          <Trackpoint>
            <Time>2021-08-29T16:33:25.000Z</Time>
            <Position>
              <LatitudeDegrees>-32.9812643118202686309814453125</LatitudeDegrees>
              <LongitudeDegrees>-69.27361129783093929290771484375</LongitudeDegrees>
            </Position>
            <AltitudeMeters>1771.199951171875</AltitudeMeters>
            <DistanceMeters>12925.276974944</DistanceMeters>
          </Trackpoint>
          <Trackpoint>
            <Time>2021-08-29T16:33:28.000Z</Time>
            <Position>
              <LatitudeDegrees>-32.98133631236851215362548828125</LatitudeDegrees>
              <LongitudeDegrees>-69.2735951207578182220458984375</LongitudeDegrees>
            </Position>
            <AltitudeMeters>1771.4000244140625</AltitudeMeters>
            <DistanceMeters>12933.432681112</DistanceMeters>
          </Trackpoint>
          <Trackpoint>
            <Time>2021-08-29T16:33:31.000Z</Time>
            <Position>
              <LatitudeDegrees>-32.98140420578420162200927734375</LatitudeDegrees>
              <LongitudeDegrees>-69.27359486930072307586669921875</LongitudeDegrees>
            </Position>
            <AltitudeMeters>1771.5999755859375</AltitudeMeters>
            <DistanceMeters>12940.989545768</DistanceMeters>
          </Trackpoint>
          <Trackpoint>
            <Time>2021-08-29T16:33:32.000Z</Time>
            <Position>
              <LatitudeDegrees>-32.9814255796372890472412109375</LatitudeDegrees>
              <LongitudeDegrees>-69.2735974676907062530517578125</LongitudeDegrees>
            </Position>
            <AltitudeMeters>1771.5999755859375</AltitudeMeters>
            <DistanceMeters>12943.378480324</DistanceMeters>
          </Trackpoint>
          <Trackpoint>
            <Time>2021-08-29T16:33:34.000Z</Time>
            <Position>
              <LatitudeDegrees>-32.98145952634513378143310546875</LatitudeDegrees>
              <LongitudeDegrees>-69.27360735833644866943359375</LongitudeDegrees>
            </Position>
            <AltitudeMeters>1771.800048828125</AltitudeMeters>
            <DistanceMeters>12947.266455114</DistanceMeters>
          </Trackpoint>
          <Trackpoint>
            <Time>2021-08-29T16:33:36.000Z</Time>
            <Position>
              <LatitudeDegrees>-32.98149548470973968505859375</LatitudeDegrees>
              <LongitudeDegrees>-69.2736202664673328399658203125</LongitudeDegrees>
            </Position>
            <AltitudeMeters>1772</AltitudeMeters>
            <DistanceMeters>12951.446550557</DistanceMeters>
          </Trackpoint>
          <Trackpoint>
            <Time>2021-08-29T16:33:38.000Z</Time>
            <Position>
              <LatitudeDegrees>-32.981529347598552703857421875</LatitudeDegrees>
              <LongitudeDegrees>-69.2736388742923736572265625</LongitudeDegrees>
            </Position>
            <AltitudeMeters>1772.4000244140625</AltitudeMeters>
            <DistanceMeters>12955.597380096</DistanceMeters>
          </Trackpoint>
          <Trackpoint>
            <Time>2021-08-29T16:33:46.000Z</Time>
            <Position>
              <LatitudeDegrees>-32.9816321097314357757568359375</LatitudeDegrees>
              <LongitudeDegrees>-69.27376217208802700042724609375</LongitudeDegrees>
            </Position>
            <AltitudeMeters>1773.800048828125</AltitudeMeters>
            <DistanceMeters>12971.825261021</DistanceMeters>
          </Trackpoint>
          <Trackpoint>
            <Time>2021-08-29T16:33:56.000Z</Time>
            <Position>
              <LatitudeDegrees>-32.981673516333103179931640625</LatitudeDegrees>
              <LongitudeDegrees>-69.2739795148372650146484375</LongitudeDegrees>
            </Position>
            <AltitudeMeters>1775.5999755859375</AltitudeMeters>
            <DistanceMeters>12992.634158773</DistanceMeters>
          </Trackpoint>
          <Trackpoint>
            <Time>2021-08-29T16:33:59.000Z</Time>
            <Position>
              <LatitudeDegrees>-32.9816679842770099639892578125</LatitudeDegrees>
              <LongitudeDegrees>-69.274047911167144775390625</LongitudeDegrees>
            </Position>
            <AltitudeMeters>1776.199951171875</AltitudeMeters>
            <DistanceMeters>12999.049693702</DistanceMeters>
          </Trackpoint>
          <Trackpoint>
            <Time>2021-08-29T16:34:02.000Z</Time>
            <Position>
              <LatitudeDegrees>-32.98164300620555877685546875</LatitudeDegrees>
              <LongitudeDegrees>-69.27410264499485492706298828125</LongitudeDegrees>
            </Position>
            <AltitudeMeters>1776.5999755859375</AltitudeMeters>
            <DistanceMeters>13004.867315769</DistanceMeters>
          </Trackpoint>
          <Trackpoint>
            <Time>2021-08-29T16:34:04.000Z</Time>
            <Position>
              <LatitudeDegrees>-32.9816163517534732818603515625</LatitudeDegrees>
              <LongitudeDegrees>-69.2741362564265727996826171875</LongitudeDegrees>
            </Position>
            <AltitudeMeters>1776.800048828125</AltitudeMeters>
            <DistanceMeters>13009.185545482</DistanceMeters>
          </Trackpoint>
          <Trackpoint>
            <Time>2021-08-29T16:34:09.000Z</Time>
            <Position>
              <LatitudeDegrees>-32.9815591871738433837890625</LatitudeDegrees>
              <LongitudeDegrees>-69.274222590029239654541015625</LongitudeDegrees>
            </Position>
            <AltitudeMeters>1777.4000244140625</AltitudeMeters>
            <DistanceMeters>13019.454587926</DistanceMeters>
          </Trackpoint>
          <Trackpoint>
            <Time>2021-08-29T16:34:13.000Z</Time>
            <Position>
              <LatitudeDegrees>-32.98150864429771900177001953125</LatitudeDegrees>
              <LongitudeDegrees>-69.27427900023758411407470703125</LongitudeDegrees>
            </Position>
            <AltitudeMeters>1778</AltitudeMeters>
            <DistanceMeters>13027.160545537</DistanceMeters>
          </Trackpoint>
          <Trackpoint>
            <Time>2021-08-29T16:34:17.000Z</Time>
            <Position>
              <LatitudeDegrees>-32.98149238340556621551513671875</LatitudeDegrees>
              <LongitudeDegrees>-69.2742847837507724761962890625</LongitudeDegrees>
            </Position>
            <AltitudeMeters>1778</AltitudeMeters>
            <DistanceMeters>13029.051553277</DistanceMeters>
          </Trackpoint>
          <Trackpoint>
            <Time>2021-08-29T16:34:25.000Z</Time>
            <Position>
              <LatitudeDegrees>-32.98149858601391315460205078125</LatitudeDegrees>
              <LongitudeDegrees>-69.274300374090671539306640625</LongitudeDegrees>
            </Position>
            <AltitudeMeters>1778.199951171875</AltitudeMeters>
            <DistanceMeters>13030.664210096</DistanceMeters>
          </Trackpoint>
          <Trackpoint>
            <Time>2021-08-29T16:34:33.000Z</Time>
            <Position>
              <LatitudeDegrees>-32.98147142864763736724853515625</LatitudeDegrees>
              <LongitudeDegrees>-69.27433800883591175079345703125</LongitudeDegrees>
            </Position>
            <AltitudeMeters>1778.800048828125</AltitudeMeters>
            <DistanceMeters>13035.29913748</DistanceMeters>
          </Trackpoint>
          <Trackpoint>
            <Time>2021-08-29T16:34:35.000Z</Time>
            <Position>
              <LatitudeDegrees>-32.98144862987101078033447265625</LatitudeDegrees>
              <LongitudeDegrees>-69.2743642441928386688232421875</LongitudeDegrees>
            </Position>
            <AltitudeMeters>1779.4000244140625</AltitudeMeters>
            <DistanceMeters>13038.825384106</DistanceMeters>
          </Trackpoint>
          <Trackpoint>
            <Time>2021-08-29T16:34:42.000Z</Time>
            <Position>
              <LatitudeDegrees>-32.98138140700757503509521484375</LatitudeDegrees>
              <LongitudeDegrees>-69.27450631745159626007080078125</LongitudeDegrees>
            </Position>
            <AltitudeMeters>1781</AltitudeMeters>
            <DistanceMeters>13054.054582488</DistanceMeters>
          </Trackpoint>
          <Trackpoint>
            <Time>2021-08-29T16:34:53.000Z</Time>
            <Position>
              <LatitudeDegrees>-32.98132960684597492218017578125</LatitudeDegrees>
              <LongitudeDegrees>-69.274752326309680938720703125</LongitudeDegrees>
            </Position>
            <AltitudeMeters>1782.4000244140625</AltitudeMeters>
            <DistanceMeters>13077.73588033</DistanceMeters>
          </Trackpoint>
          <Trackpoint>
            <Time>2021-08-29T16:35:03.000Z</Time>
            <Position>
              <LatitudeDegrees>-32.98128937371075153350830078125</LatitudeDegrees>
              <LongitudeDegrees>-69.27499598823487758636474609375</LongitudeDegrees>
            </Position>
            <AltitudeMeters>1785.199951171875</AltitudeMeters>
            <DistanceMeters>13100.92200918</DistanceMeters>
          </Trackpoint>
          <Trackpoint>
            <Time>2021-08-29T16:35:12.000Z</Time>
            <Position>
              <LatitudeDegrees>-32.9812130145728588104248046875</LatitudeDegrees>
              <LongitudeDegrees>-69.27519614808261394500732421875</LongitudeDegrees>
            </Position>
            <AltitudeMeters>1789</AltitudeMeters>
            <DistanceMeters>13121.452178397</DistanceMeters>
          </Trackpoint>
          <Trackpoint>
            <Time>2021-08-29T16:35:23.000Z</Time>
            <Position>
              <LatitudeDegrees>-32.981136739253997802734375</LatitudeDegrees>
              <LongitudeDegrees>-69.2754398100078105926513671875</LongitudeDegrees>
            </Position>
            <AltitudeMeters>1792.5999755859375</AltitudeMeters>
            <DistanceMeters>13145.734432648</DistanceMeters>
          </Trackpoint>
          <Trackpoint>
            <Time>2021-08-29T16:35:25.000Z</Time>
            <Position>
              <LatitudeDegrees>-32.981127016246318817138671875</LatitudeDegrees>
              <LongitudeDegrees>-69.27547962404787540435791015625</LongitudeDegrees>
            </Position>
            <AltitudeMeters>1793.199951171875</AltitudeMeters>
            <DistanceMeters>13149.606115343</DistanceMeters>
          </Trackpoint>
          <Trackpoint>
            <Time>2021-08-29T16:35:33.000Z</Time>
            <Position>
              <LatitudeDegrees>-32.981134392321109771728515625</LatitudeDegrees>
              <LongitudeDegrees>-69.27565765567123889923095703125</LongitudeDegrees>
            </Position>
            <AltitudeMeters>1794.4000244140625</AltitudeMeters>
            <DistanceMeters>13166.248274897</DistanceMeters>
          </Trackpoint>
          <Trackpoint>
            <Time>2021-08-29T16:35:43.000Z</Time>
            <Position>
              <LatitudeDegrees>-32.981194071471691131591796875</LatitudeDegrees>
              <LongitudeDegrees>-69.27586753852665424346923828125</LongitudeDegrees>
            </Position>
            <AltitudeMeters>1795.4000244140625</AltitudeMeters>
            <DistanceMeters>13186.939019063</DistanceMeters>
          </Trackpoint>
          <Trackpoint>
            <Time>2021-08-29T16:35:51.000Z</Time>
            <Position>
              <LatitudeDegrees>-32.98119432292878627777099609375</LatitudeDegrees>
              <LongitudeDegrees>-69.27601707167923450469970703125</LongitudeDegrees>
            </Position>
            <AltitudeMeters>1796.4000244140625</AltitudeMeters>
            <DistanceMeters>13200.900186637</DistanceMeters>
          </Trackpoint>
          <Trackpoint>
            <Time>2021-08-29T16:35:58.000Z</Time>
            <Position>
              <LatitudeDegrees>-32.98120924271643161773681640625</LatitudeDegrees>
              <LongitudeDegrees>-69.27614967338740825653076171875</LongitudeDegrees>
            </Position>
            <AltitudeMeters>1797.4000244140625</AltitudeMeters>
            <DistanceMeters>13213.391772644</DistanceMeters>
          </Trackpoint>
          <Trackpoint>
            <Time>2021-08-29T16:36:07.000Z</Time>
            <Position>
              <LatitudeDegrees>-32.98122231848537921905517578125</LatitudeDegrees>
              <LongitudeDegrees>-69.2763363383710384368896484375</LongitudeDegrees>
            </Position>
            <AltitudeMeters>1798.5999755859375</AltitudeMeters>
            <DistanceMeters>13230.880302861</DistanceMeters>
          </Trackpoint>
          <Trackpoint>
            <Time>2021-08-29T16:36:16.000Z</Time>
            <Position>
              <LatitudeDegrees>-32.98127822577953338623046875</LatitudeDegrees>
              <LongitudeDegrees>-69.27651663310825824737548828125</LongitudeDegrees>
            </Position>
            <AltitudeMeters>1799.199951171875</AltitudeMeters>
            <DistanceMeters>13248.826519912</DistanceMeters>
          </Trackpoint>
          <Trackpoint>
            <Time>2021-08-29T16:36:28.000Z</Time>
            <Position>
              <LatitudeDegrees>-32.98138819634914398193359375</LatitudeDegrees>
              <LongitudeDegrees>-69.2767436988651752471923828125</LongitudeDegrees>
            </Position>
            <AltitudeMeters>1799.5999755859375</AltitudeMeters>
            <DistanceMeters>13273.306183573</DistanceMeters>
          </Trackpoint>
          <Trackpoint>
            <Time>2021-08-29T16:36:37.000Z</Time>
            <Position>
              <LatitudeDegrees>-32.98147679306566715240478515625</LatitudeDegrees>
              <LongitudeDegrees>-69.27689985372126102447509765625</LongitudeDegrees>
            </Position>
            <AltitudeMeters>1799.5999755859375</AltitudeMeters>
            <DistanceMeters>13290.906916583</DistanceMeters>
          </Trackpoint>
          <Trackpoint>
            <Time>2021-08-29T16:36:47.000Z</Time>
            <Position>
              <LatitudeDegrees>-32.981515936553478240966796875</LatitudeDegrees>
              <LongitudeDegrees>-69.27711627446115016937255859375</LongitudeDegrees>
            </Position>
            <AltitudeMeters>1801.199951171875</AltitudeMeters>
            <DistanceMeters>13311.577793613</DistanceMeters>
          </Trackpoint>
          <Trackpoint>
            <Time>2021-08-29T16:36:57.000Z</Time>
            <Position>
              <LatitudeDegrees>-32.9815187864005565643310546875</LatitudeDegrees>
              <LongitudeDegrees>-69.2773227207362651824951171875</LongitudeDegrees>
            </Position>
            <AltitudeMeters>1803</AltitudeMeters>
            <DistanceMeters>13330.855105041</DistanceMeters>
          </Trackpoint>
          <Trackpoint>
            <Time>2021-08-29T16:37:10.000Z</Time>
            <Position>
              <LatitudeDegrees>-32.98150663264095783233642578125</LatitudeDegrees>
              <LongitudeDegrees>-69.27759177982807159423828125</LongitudeDegrees>
            </Position>
            <AltitudeMeters>1805.5999755859375</AltitudeMeters>
            <DistanceMeters>13356.012249904</DistanceMeters>
          </Trackpoint>
          <Trackpoint>
            <Time>2021-08-29T16:37:21.000Z</Time>
            <Position>
              <LatitudeDegrees>-32.981505207717418670654296875</LatitudeDegrees>
              <LongitudeDegrees>-69.2778269760310649871826171875</LongitudeDegrees>
            </Position>
            <AltitudeMeters>1807.4000244140625</AltitudeMeters>
            <DistanceMeters>13377.97226362</DistanceMeters>
          </Trackpoint>
          <Trackpoint>
            <Time>2021-08-29T16:37:31.000Z</Time>
            <Position>
              <LatitudeDegrees>-32.9815010167658329010009765625</LatitudeDegrees>
              <LongitudeDegrees>-69.27801531739532947540283203125</LongitudeDegrees>
            </Position>
            <AltitudeMeters>1808.199951171875</AltitudeMeters>
            <DistanceMeters>13395.563245957</DistanceMeters>
          </Trackpoint>
          <Trackpoint>
            <Time>2021-08-29T16:37:43.000Z</Time>
            <Position>
              <LatitudeDegrees>-32.98148483969271183013916015625</LatitudeDegrees>
              <LongitudeDegrees>-69.27825118415057659149169921875</LongitudeDegrees>
            </Position>
            <AltitudeMeters>1809.4000244140625</AltitudeMeters>
            <DistanceMeters>13417.65854077</DistanceMeters>
          </Trackpoint>
          <Trackpoint>
            <Time>2021-08-29T16:37:55.000Z</Time>
            <Position>
              <LatitudeDegrees>-32.9814778827130794525146484375</LatitudeDegrees>
              <LongitudeDegrees>-69.27851982414722442626953125</LongitudeDegrees>
            </Position>
            <AltitudeMeters>1812</AltitudeMeters>
            <DistanceMeters>13442.752071621</DistanceMeters>
          </Trackpoint>
          <Trackpoint>
            <Time>2021-08-29T16:38:01.000Z</Time>
            <Position>
              <LatitudeDegrees>-32.98147595487534999847412109375</LatitudeDegrees>
              <LongitudeDegrees>-69.278584532439708709716796875</LongitudeDegrees>
            </Position>
            <AltitudeMeters>1813</AltitudeMeters>
            <DistanceMeters>13448.798041308</DistanceMeters>
          </Trackpoint>
          <Trackpoint>
            <Time>2021-08-29T16:38:12.000Z</Time>
            <Position>
              <LatitudeDegrees>-32.98147645778954029083251953125</LatitudeDegrees>
              <LongitudeDegrees>-69.278607666492462158203125</LongitudeDegrees>
            </Position>
            <AltitudeMeters>1813.199951171875</AltitudeMeters>
            <DistanceMeters>13450.956633313</DistanceMeters>
          </Trackpoint>
          <Trackpoint>
            <Time>2021-08-29T16:38:20.000Z</Time>
            <Position>
              <LatitudeDegrees>-32.98147411085665225982666015625</LatitudeDegrees>
              <LongitudeDegrees>-69.27860858850181102752685546875</LongitudeDegrees>
            </Position>
            <AltitudeMeters>1813.4000244140625</AltitudeMeters>
            <DistanceMeters>13451.225409449</DistanceMeters>
          </Trackpoint>
          <Trackpoint>
            <Time>2021-08-29T16:38:23.000Z</Time>
            <Position>
              <LatitudeDegrees>-32.98147411085665225982666015625</LatitudeDegrees>
              <LongitudeDegrees>-69.27860858850181102752685546875</LongitudeDegrees>
            </Position>
            <AltitudeMeters>1813.4000244140625</AltitudeMeters>
            <DistanceMeters>13451.225409449</DistanceMeters>
          </Trackpoint>
          <Trackpoint>
            <Time>2021-08-29T16:38:26.000Z</Time>
            <Position>
              <LatitudeDegrees>-32.98147411085665225982666015625</LatitudeDegrees>
              <LongitudeDegrees>-69.27860858850181102752685546875</LongitudeDegrees>
            </Position>
            <AltitudeMeters>1813.4000244140625</AltitudeMeters>
            <DistanceMeters>13451.225409449</DistanceMeters>
          </Trackpoint>
          <Trackpoint>
            <Time>2021-08-29T16:38:27.000Z</Time>
            <Position>
              <LatitudeDegrees>-32.98147411085665225982666015625</LatitudeDegrees>
              <LongitudeDegrees>-69.27860858850181102752685546875</LongitudeDegrees>
            </Position>
            <AltitudeMeters>1813.4000244140625</AltitudeMeters>
            <DistanceMeters>13451.225409449</DistanceMeters>
          </Trackpoint>
          <Trackpoint>
            <Time>2021-08-29T16:38:32.000Z</Time>
            <Position>
              <LatitudeDegrees>-32.98148366622626781463623046875</LatitudeDegrees>
              <LongitudeDegrees>-69.27868620492517948150634765625</LongitudeDegrees>
            </Position>
            <AltitudeMeters>1814.199951171875</AltitudeMeters>
            <DistanceMeters>13458.550483799</DistanceMeters>
          </Trackpoint>
          <Trackpoint>
            <Time>2021-08-29T16:38:43.000Z</Time>
            <Position>
              <LatitudeDegrees>-32.9814983345568180084228515625</LatitudeDegrees>
              <LongitudeDegrees>-69.27896180190145969390869140625</LongitudeDegrees>
            </Position>
            <AltitudeMeters>1817.5999755859375</AltitudeMeters>
            <DistanceMeters>13484.333387195</DistanceMeters>
          </Trackpoint>
          <Trackpoint>
            <Time>2021-08-29T16:38:57.000Z</Time>
            <Position>
              <LatitudeDegrees>-32.98152121715247631072998046875</LatitudeDegrees>
              <LongitudeDegrees>-69.2792592756450176239013671875</LongitudeDegrees>
            </Position>
            <AltitudeMeters>1821.4000244140625</AltitudeMeters>
            <DistanceMeters>13512.223687391</DistanceMeters>
          </Trackpoint>
          <Trackpoint>
            <Time>2021-08-29T16:39:08.000Z</Time>
            <Position>
              <LatitudeDegrees>-32.981542088091373443603515625</LatitudeDegrees>
              <LongitudeDegrees>-69.27948952652513980865478515625</LongitudeDegrees>
            </Position>
            <AltitudeMeters>1825.5999755859375</AltitudeMeters>
            <DistanceMeters>13533.846389302</DistanceMeters>
          </Trackpoint>
          <Trackpoint>
            <Time>2021-08-29T16:39:20.000Z</Time>
            <Position>
              <LatitudeDegrees>-32.98156430013477802276611328125</LatitudeDegrees>
              <LongitudeDegrees>-69.27976160310208797454833984375</LongitudeDegrees>
            </Position>
            <AltitudeMeters>1827</AltitudeMeters>
            <DistanceMeters>13559.368979775</DistanceMeters>
          </Trackpoint>
          <Trackpoint>
            <Time>2021-08-29T16:39:24.000Z</Time>
            <Position>
              <LatitudeDegrees>-32.98157184384763240814208984375</LatitudeDegrees>
              <LongitudeDegrees>-69.27984173409640789031982421875</LongitudeDegrees>
            </Position>
            <AltitudeMeters>1827.4000244140625</AltitudeMeters>
            <DistanceMeters>13566.898310417</DistanceMeters>
          </Trackpoint>
          <Trackpoint>
            <Time>2021-08-29T16:39:32.000Z</Time>
            <Position>
              <LatitudeDegrees>-32.98163973726332187652587890625</LatitudeDegrees>
              <LongitudeDegrees>-69.27999663166701793670654296875</LongitudeDegrees>
            </Position>
            <AltitudeMeters>1827.199951171875</AltitudeMeters>
            <DistanceMeters>13583.215811268</DistanceMeters>
          </Trackpoint>
          <Trackpoint>
            <Time>2021-08-29T16:39:39.000Z</Time>
            <Position>
              <LatitudeDegrees>-32.98176236450672149658203125</LatitudeDegrees>
              <LongitudeDegrees>-69.2800535447895526885986328125</LongitudeDegrees>
            </Position>
            <AltitudeMeters>1825.5999755859375</AltitudeMeters>
            <DistanceMeters>13597.862261214</DistanceMeters>
          </Trackpoint>
          <Trackpoint>
            <Time>2021-08-29T16:39:45.000Z</Time>
            <Position>
              <LatitudeDegrees>-32.9818758554756641387939453125</LatitudeDegrees>
              <LongitudeDegrees>-69.280012138187885284423828125</LongitudeDegrees>
            </Position>
            <AltitudeMeters>1827.800048828125</AltitudeMeters>
            <DistanceMeters>13611.072341731</DistanceMeters>
          </Trackpoint>
          <Trackpoint>
            <Time>2021-08-29T16:39:52.000Z</Time>
            <Position>
              <LatitudeDegrees>-32.98195037059485912322998046875</LatitudeDegrees>
              <LongitudeDegrees>-69.27988029085099697113037109375</LongitudeDegrees>
            </Position>
            <AltitudeMeters>1828.4000244140625</AltitudeMeters>
            <DistanceMeters>13625.915380675</DistanceMeters>
          </Trackpoint>
          <Trackpoint>
            <Time>2021-08-29T16:40:05.000Z</Time>
            <Position>
              <LatitudeDegrees>-32.98203603364527225494384765625</LatitudeDegrees>
              <LongitudeDegrees>-69.2795975692570209503173828125</LongitudeDegrees>
            </Position>
            <AltitudeMeters>1827.5999755859375</AltitudeMeters>
            <DistanceMeters>13653.980938001</DistanceMeters>
          </Trackpoint>
          <Trackpoint>
            <Time>2021-08-29T16:40:11.000Z</Time>
            <Position>
              <LatitudeDegrees>-32.98208029009401798248291015625</LatitudeDegrees>
              <LongitudeDegrees>-69.27947175689041614532470703125</LongitudeDegrees>
            </Position>
            <AltitudeMeters>1827.199951171875</AltitudeMeters>
            <DistanceMeters>13666.718771944</DistanceMeters>
          </Trackpoint>
          <Trackpoint>
            <Time>2021-08-29T16:40:13.000Z</Time>
            <Position>
              <LatitudeDegrees>-32.9820984788239002227783203125</LatitudeDegrees>
              <LongitudeDegrees>-69.2794238962233066558837890625</LongitudeDegrees>
            </Position>
            <AltitudeMeters>1826.800048828125</AltitudeMeters>
            <DistanceMeters>13671.62347618</DistanceMeters>
          </Trackpoint>
          <Trackpoint>
            <Time>2021-08-29T16:40:15.000Z</Time>
            <Position>
              <LatitudeDegrees>-32.982113398611545562744140625</LatitudeDegrees>
              <LongitudeDegrees>-69.2793870158493518829345703125</LongitudeDegrees>
            </Position>
            <AltitudeMeters>1826.5999755859375</AltitudeMeters>
            <DistanceMeters>13675.445865968</DistanceMeters>
          </Trackpoint>
          <Trackpoint>
            <Time>2021-08-29T16:40:27.000Z</Time>
            <Position>
              <LatitudeDegrees>-32.98221155069768428802490234375</LatitudeDegrees>
              <LongitudeDegrees>-69.2791338823735713958740234375</LongitudeDegrees>
            </Position>
            <AltitudeMeters>1825</AltitudeMeters>
            <DistanceMeters>13701.482318658</DistanceMeters>
          </Trackpoint>
          <Trackpoint>
            <Time>2021-08-29T16:40:34.000Z</Time>
            <Position>
              <LatitudeDegrees>-32.98220627009868621826171875</LatitudeDegrees>
              <LongitudeDegrees>-69.27898879162967205047607421875</LongitudeDegrees>
            </Position>
            <AltitudeMeters>1822.5999755859375</AltitudeMeters>
            <DistanceMeters>13715.041535317</DistanceMeters>
          </Trackpoint>
          <Trackpoint>
            <Time>2021-08-29T16:40:41.000Z</Time>
            <Position>
              <LatitudeDegrees>-32.9822922684252262115478515625</LatitudeDegrees>
              <LongitudeDegrees>-69.2788981832563877105712890625</LongitudeDegrees>
            </Position>
            <AltitudeMeters>1822.4000244140625</AltitudeMeters>
            <DistanceMeters>13727.816179793</DistanceMeters>
          </Trackpoint>
          <Trackpoint>
            <Time>2021-08-29T16:40:52.000Z</Time>
            <Position>
              <LatitudeDegrees>-32.9824565537273883819580078125</LatitudeDegrees>
              <LongitudeDegrees>-69.27883624099195003509521484375</LongitudeDegrees>
            </Position>
            <AltitudeMeters>1823.5999755859375</AltitudeMeters>
            <DistanceMeters>13746.994397741</DistanceMeters>
          </Trackpoint>
          <Trackpoint>
            <Time>2021-08-29T16:40:58.000Z</Time>
            <Position>
              <LatitudeDegrees>-32.98249267973005771636962890625</LatitudeDegrees>
              <LongitudeDegrees>-69.278732724487781524658203125</LongitudeDegrees>
            </Position>
            <AltitudeMeters>1822.4000244140625</AltitudeMeters>
            <DistanceMeters>13757.462011966</DistanceMeters>
          </Trackpoint>
          <Trackpoint>
            <Time>2021-08-29T16:41:07.000Z</Time>
            <Position>
              <LatitudeDegrees>-32.9824354313313961029052734375</LatitudeDegrees>
              <LongitudeDegrees>-69.27854924462735652923583984375</LongitudeDegrees>
            </Position>
            <AltitudeMeters>1819.5999755859375</AltitudeMeters>
            <DistanceMeters>13775.739283315</DistanceMeters>
          </Trackpoint>
          <Trackpoint>
            <Time>2021-08-29T16:41:15.000Z</Time>
            <Position>
              <LatitudeDegrees>-32.98243551515042781829833984375</LatitudeDegrees>
              <LongitudeDegrees>-69.2783996276557445526123046875</LongitudeDegrees>
            </Position>
            <AltitudeMeters>1818.4000244140625</AltitudeMeters>
            <DistanceMeters>13789.708210328</DistanceMeters>
          </Trackpoint>
          <Trackpoint>
            <Time>2021-08-29T16:41:22.000Z</Time>
            <Position>
              <LatitudeDegrees>-32.98254691064357757568359375</LatitudeDegrees>
              <LongitudeDegrees>-69.278331063687801361083984375</LongitudeDegrees>
            </Position>
            <AltitudeMeters>1818.5999755859375</AltitudeMeters>
            <DistanceMeters>13803.661937725</DistanceMeters>
          </Trackpoint>
          <Trackpoint>
            <Time>2021-08-29T16:41:30.000Z</Time>
            <Position>
              <LatitudeDegrees>-32.98265713267028331756591796875</LatitudeDegrees>
              <LongitudeDegrees>-69.27826845087110996246337890625</LongitudeDegrees>
            </Position>
            <AltitudeMeters>1818.800048828125</AltitudeMeters>
            <DistanceMeters>13817.251422386</DistanceMeters>
          </Trackpoint>
          <Trackpoint>
            <Time>2021-08-29T16:41:31.000Z</Time>
            <Position>
              <LatitudeDegrees>-32.982669956982135772705078125</LatitudeDegrees>
              <LongitudeDegrees>-69.2782742343842983245849609375</LongitudeDegrees>
            </Position>
            <AltitudeMeters>1819</AltitudeMeters>
            <DistanceMeters>13818.777777431</DistanceMeters>
          </Trackpoint>
          <Trackpoint>
            <Time>2021-08-29T16:41:40.000Z</Time>
            <Position>
              <LatitudeDegrees>-32.9827868007123470306396484375</LatitudeDegrees>
              <LongitudeDegrees>-69.27837842144072055816650390625</LongitudeDegrees>
            </Position>
            <AltitudeMeters>1821</AltitudeMeters>
            <DistanceMeters>13835.018173756</DistanceMeters>
          </Trackpoint>
          <Trackpoint>
            <Time>2021-08-29T16:41:48.000Z</Time>
            <Position>
              <LatitudeDegrees>-32.98282393254339694976806640625</LatitudeDegrees>
              <LongitudeDegrees>-69.2785204946994781494140625</LongitudeDegrees>
            </Position>
            <AltitudeMeters>1822.800048828125</AltitudeMeters>
            <DistanceMeters>13848.91158637</DistanceMeters>
          </Trackpoint>
          <Trackpoint>
            <Time>2021-08-29T16:41:52.000Z</Time>
            <Position>
              <LatitudeDegrees>-32.98284706659615039825439453125</LatitudeDegrees>
              <LongitudeDegrees>-69.27858956158161163330078125</LongitudeDegrees>
            </Position>
            <AltitudeMeters>1823.800048828125</AltitudeMeters>
            <DistanceMeters>13855.855692375</DistanceMeters>
          </Trackpoint>
          <Trackpoint>
            <Time>2021-08-29T16:41:57.000Z</Time>
            <Position>
              <LatitudeDegrees>-32.982874475419521331787109375</LatitudeDegrees>
              <LongitudeDegrees>-69.27867664955556392669677734375</LongitudeDegrees>
            </Position>
            <AltitudeMeters>1825.5999755859375</AltitudeMeters>
            <DistanceMeters>13864.540115122</DistanceMeters>
          </Trackpoint>
          <Trackpoint>
            <Time>2021-08-29T16:42:07.000Z</Time>
            <Position>
              <LatitudeDegrees>-32.9829604737460613250732421875</LatitudeDegrees>
              <LongitudeDegrees>-69.278841353952884674072265625</LongitudeDegrees>
            </Position>
            <AltitudeMeters>1830.199951171875</AltitudeMeters>
            <DistanceMeters>13882.653114249</DistanceMeters>
          </Trackpoint>
          <Trackpoint>
            <Time>2021-08-29T16:42:18.000Z</Time>
            <Position>
              <LatitudeDegrees>-32.9831016249954700469970703125</LatitudeDegrees>
              <LongitudeDegrees>-69.27895777858793735504150390625</LongitudeDegrees>
            </Position>
            <AltitudeMeters>1834.199951171875</AltitudeMeters>
            <DistanceMeters>13901.757029281</DistanceMeters>
          </Trackpoint>
          <Trackpoint>
            <Time>2021-08-29T16:42:30.000Z</Time>
            <Position>
              <LatitudeDegrees>-32.98324763774871826171875</LatitudeDegrees>
              <LongitudeDegrees>-69.27909440360963344573974609375</LongitudeDegrees>
            </Position>
            <AltitudeMeters>1838.800048828125</AltitudeMeters>
            <DistanceMeters>13922.416545084</DistanceMeters>
          </Trackpoint>
          <Trackpoint>
            <Time>2021-08-29T16:42:43.000Z</Time>
            <Position>
              <LatitudeDegrees>-32.98342265188694000244140625</LatitudeDegrees>
              <LongitudeDegrees>-69.27921828813850879669189453125</LongitudeDegrees>
            </Position>
            <AltitudeMeters>1843.199951171875</AltitudeMeters>
            <DistanceMeters>13945.071200781</DistanceMeters>
          </Trackpoint>
          <Trackpoint>
            <Time>2021-08-29T16:42:47.000Z</Time>
            <Position>
              <LatitudeDegrees>-32.9834298603236675262451171875</LatitudeDegrees>
              <LongitudeDegrees>-69.2792277596890926361083984375</LongitudeDegrees>
            </Position>
            <AltitudeMeters>1843.4000244140625</AltitudeMeters>
            <DistanceMeters>13946.269442057</DistanceMeters>
          </Trackpoint>
          <Trackpoint>
            <Time>2021-08-29T16:42:55.000Z</Time>
            <Position>
              <LatitudeDegrees>-32.9834288544952869415283203125</LatitudeDegrees>
              <LongitudeDegrees>-69.27923052571713924407958984375</LongitudeDegrees>
            </Position>
            <AltitudeMeters>1843.4000244140625</AltitudeMeters>
            <DistanceMeters>13946.538218194</DistanceMeters>
          </Trackpoint>
          <Trackpoint>
            <Time>2021-08-29T16:43:03.000Z</Time>
            <Position>
              <LatitudeDegrees>-32.9834456183016300201416015625</LatitudeDegrees>
              <LongitudeDegrees>-69.279243014752864837646484375</LongitudeDegrees>
            </Position>
            <AltitudeMeters>1843.800048828125</AltitudeMeters>
            <DistanceMeters>13948.738245687</DistanceMeters>
          </Trackpoint>
          <Trackpoint>
            <Time>2021-08-29T16:43:08.000Z</Time>
            <Position>
              <LatitudeDegrees>-32.98344570212066173553466796875</LatitudeDegrees>
              <LongitudeDegrees>-69.27924226038157939910888671875</LongitudeDegrees>
            </Position>
            <AltitudeMeters>1843.800048828125</AltitudeMeters>
            <DistanceMeters>13948.833272402</DistanceMeters>
          </Trackpoint>
          <Trackpoint>
            <Time>2021-08-29T16:43:11.000Z</Time>
            <Position>
              <LatitudeDegrees>-32.98344570212066173553466796875</LatitudeDegrees>
              <LongitudeDegrees>-69.27924226038157939910888671875</LongitudeDegrees>
            </Position>
            <AltitudeMeters>1843.800048828125</AltitudeMeters>
            <DistanceMeters>13948.833272402</DistanceMeters>
          </Trackpoint>
          <Trackpoint>
            <Time>2021-08-29T16:43:12.000Z</Time>
            <Position>
              <LatitudeDegrees>-32.98344570212066173553466796875</LatitudeDegrees>
              <LongitudeDegrees>-69.27924226038157939910888671875</LongitudeDegrees>
            </Position>
            <AltitudeMeters>1843.800048828125</AltitudeMeters>
            <DistanceMeters>13948.833272402</DistanceMeters>
          </Trackpoint>
          <Trackpoint>
            <Time>2021-08-29T16:43:21.000Z</Time>
            <Position>
              <LatitudeDegrees>-32.98345022834837436676025390625</LatitudeDegrees>
              <LongitudeDegrees>-69.2792441882193088531494140625</LongitudeDegrees>
            </Position>
            <AltitudeMeters>1843.800048828125</AltitudeMeters>
            <DistanceMeters>13949.370824675</DistanceMeters>
          </Trackpoint>
          <Trackpoint>
            <Time>2021-08-29T16:43:24.000Z</Time>
            <Position>
              <LatitudeDegrees>-32.98351761884987354278564453125</LatitudeDegrees>
              <LongitudeDegrees>-69.279268495738506317138671875</LongitudeDegrees>
            </Position>
            <AltitudeMeters>1844.4000244140625</AltitudeMeters>
            <DistanceMeters>13957.20750445</DistanceMeters>
          </Trackpoint>
          <Trackpoint>
            <Time>2021-08-29T16:43:29.000Z</Time>
            <Position>
              <LatitudeDegrees>-32.9836169444024562835693359375</LatitudeDegrees>
              <LongitudeDegrees>-69.27921988070011138916015625</LongitudeDegrees>
            </Position>
            <AltitudeMeters>1843.199951171875</AltitudeMeters>
            <DistanceMeters>13969.157845824</DistanceMeters>
          </Trackpoint>
          <Trackpoint>
            <Time>2021-08-29T16:43:37.000Z</Time>
            <Position>
              <LatitudeDegrees>-32.9836903698742389678955078125</LatitudeDegrees>
              <LongitudeDegrees>-69.279072023928165435791015625</LongitudeDegrees>
            </Position>
            <AltitudeMeters>1839.5999755859375</AltitudeMeters>
            <DistanceMeters>13985.200201594</DistanceMeters>
          </Trackpoint>
          <Trackpoint>
            <Time>2021-08-29T16:43:50.000Z</Time>
            <Position>
              <LatitudeDegrees>-32.98374694772064685821533203125</LatitudeDegrees>
              <LongitudeDegrees>-69.2787965945899486541748046875</LongitudeDegrees>
            </Position>
            <AltitudeMeters>1833.5999755859375</AltitudeMeters>
            <DistanceMeters>14011.674992124</DistanceMeters>
          </Trackpoint>
          <Trackpoint>
            <Time>2021-08-29T16:43:51.000Z</Time>
            <Position>
              <LatitudeDegrees>-32.9837617836892604827880859375</LatitudeDegrees>
              <LongitudeDegrees>-69.27877840586006641387939453125</LongitudeDegrees>
            </Position>
            <AltitudeMeters>1833.199951171875</AltitudeMeters>
            <DistanceMeters>14014.044951522</DistanceMeters>
          </Trackpoint>
          <Trackpoint>
            <Time>2021-08-29T16:43:55.000Z</Time>
            <Position>
              <LatitudeDegrees>-32.9838171042501926422119140625</LatitudeDegrees>
              <LongitudeDegrees>-69.27876817993819713592529296875</LongitudeDegrees>
            </Position>
            <AltitudeMeters>1833.199951171875</AltitudeMeters>
            <DistanceMeters>14020.276269898</DistanceMeters>
          </Trackpoint>
          <Trackpoint>
            <Time>2021-08-29T16:44:02.000Z</Time>
            <Position>
              <LatitudeDegrees>-32.98392313532531261444091796875</LatitudeDegrees>
              <LongitudeDegrees>-69.27884562872350215911865234375</LongitudeDegrees>
            </Position>
            <AltitudeMeters>1835.199951171875</AltitudeMeters>
            <DistanceMeters>14034.116609909</DistanceMeters>
          </Trackpoint>
          <Trackpoint>
            <Time>2021-08-29T16:44:08.000Z</Time>
            <Position>
              <LatitudeDegrees>-32.98400946892797946929931640625</LatitudeDegrees>
              <LongitudeDegrees>-69.2789089120924472808837890625</LongitudeDegrees>
            </Position>
            <AltitudeMeters>1836.800048828125</AltitudeMeters>
            <DistanceMeters>14045.397205516</DistanceMeters>
          </Trackpoint>
          <Trackpoint>
            <Time>2021-08-29T16:44:11.000Z</Time>
            <Position>
              <LatitudeDegrees>-32.98405892215669155120849609375</LatitudeDegrees>
              <LongitudeDegrees>-69.2789199762046337127685546875</LongitudeDegrees>
            </Position>
            <AltitudeMeters>1837.199951171875</AltitudeMeters>
            <DistanceMeters>14050.998141649</DistanceMeters>
          </Trackpoint>
          <Trackpoint>
            <Time>2021-08-29T16:44:18.000Z</Time>
            <Position>
              <LatitudeDegrees>-32.98421063460409641265869140625</LatitudeDegrees>
              <LongitudeDegrees>-69.2788609676063060760498046875</LongitudeDegrees>
            </Position>
            <AltitudeMeters>1836.5999755859375</AltitudeMeters>
            <DistanceMeters>14068.760258943</DistanceMeters>
          </Trackpoint>
          <Trackpoint>
            <Time>2021-08-29T16:44:21.000Z</Time>
            <Position>
              <LatitudeDegrees>-32.9842821322381496429443359375</LatitudeDegrees>
              <LongitudeDegrees>-69.278848059475421905517578125</LongitudeDegrees>
            </Position>
            <AltitudeMeters>1835.800048828125</AltitudeMeters>
            <DistanceMeters>14076.808971164</DistanceMeters>
          </Trackpoint>
          <Trackpoint>
            <Time>2021-08-29T16:44:24.000Z</Time>
            <Position>
              <LatitudeDegrees>-32.98434021882712841033935546875</LatitudeDegrees>
              <LongitudeDegrees>-69.2788646556437015533447265625</LongitudeDegrees>
            </Position>
            <AltitudeMeters>1835.199951171875</AltitudeMeters>
            <DistanceMeters>14083.456767349</DistanceMeters>
          </Trackpoint>
          <Trackpoint>
            <Time>2021-08-29T16:44:27.000Z</Time>
            <Position>
              <LatitudeDegrees>-32.98438145779073238372802734375</LatitudeDegrees>
              <LongitudeDegrees>-69.27889826707541942596435546875</LongitudeDegrees>
            </Position>
            <AltitudeMeters>1835</AltitudeMeters>
            <DistanceMeters>14089.018063225</DistanceMeters>
          </Trackpoint>
          <Trackpoint>
            <Time>2021-08-29T16:44:30.000Z</Time>
            <Position>
              <LatitudeDegrees>-32.98441749997437000274658203125</LatitudeDegrees>
              <LongitudeDegrees>-69.27895308472216129302978515625</LongitudeDegrees>
            </Position>
            <AltitudeMeters>1835.5999755859375</AltitudeMeters>
            <DistanceMeters>14095.520279609</DistanceMeters>
          </Trackpoint>
          <Trackpoint>
            <Time>2021-08-29T16:44:38.000Z</Time>
            <Position>
              <LatitudeDegrees>-32.98443241976201534271240234375</LatitudeDegrees>
              <LongitudeDegrees>-69.27913748659193515777587890625</LongitudeDegrees>
            </Position>
            <AltitudeMeters>1839</AltitudeMeters>
            <DistanceMeters>14112.816446888</DistanceMeters>
          </Trackpoint>
          <Trackpoint>
            <Time>2021-08-29T16:44:46.000Z</Time>
            <Position>
              <LatitudeDegrees>-32.9843813739717006683349609375</LatitudeDegrees>
              <LongitudeDegrees>-69.279391877353191375732421875</LongitudeDegrees>
            </Position>
            <AltitudeMeters>1845.199951171875</AltitudeMeters>
            <DistanceMeters>14137.237018308</DistanceMeters>
          </Trackpoint>
          <Trackpoint>
            <Time>2021-08-29T16:44:53.000Z</Time>
            <Position>
              <LatitudeDegrees>-32.98435312695801258087158203125</LatitudeDegrees>
              <LongitudeDegrees>-69.27960217930376529693603515625</LongitudeDegrees>
            </Position>
            <AltitudeMeters>1848</AltitudeMeters>
            <DistanceMeters>14157.121457631</DistanceMeters>
          </Trackpoint>
          <Trackpoint>
            <Time>2021-08-29T16:44:55.000Z</Time>
            <Position>
              <LatitudeDegrees>-32.9843609221279621124267578125</LatitudeDegrees>
              <LongitudeDegrees>-69.279665462672710418701171875</LongitudeDegrees>
            </Position>
            <AltitudeMeters>1848.199951171875</AltitudeMeters>
            <DistanceMeters>14163.092281845</DistanceMeters>
          </Trackpoint>
          <Trackpoint>
            <Time>2021-08-29T16:45:02.000Z</Time>
            <Position>
              <LatitudeDegrees>-32.98436972312629222869873046875</LatitudeDegrees>
              <LongitudeDegrees>-69.2798433266580104827880859375</LongitudeDegrees>
            </Position>
            <AltitudeMeters>1849.199951171875</AltitudeMeters>
            <DistanceMeters>14179.727114653</DistanceMeters>
          </Trackpoint>
          <Trackpoint>
            <Time>2021-08-29T16:45:07.000Z</Time>
            <Position>
              <LatitudeDegrees>-32.98431850969791412353515625</LatitudeDegrees>
              <LongitudeDegrees>-69.279960505664348602294921875</LongitudeDegrees>
            </Position>
            <AltitudeMeters>1850.800048828125</AltitudeMeters>
            <DistanceMeters>14192.063031653</DistanceMeters>
          </Trackpoint>
          <Trackpoint>
            <Time>2021-08-29T16:45:12.000Z</Time>
            <Position>
              <LatitudeDegrees>-32.98429378308355808258056640625</LatitudeDegrees>
              <LongitudeDegrees>-69.28009696304798126220703125</LongitudeDegrees>
            </Position>
            <AltitudeMeters>1852</AltitudeMeters>
            <DistanceMeters>14205.096595942</DistanceMeters>
          </Trackpoint>
          <Trackpoint>
            <Time>2021-08-29T16:45:21.000Z</Time>
            <Position>
              <LatitudeDegrees>-32.98430585302412509918212890625</LatitudeDegrees>
              <LongitudeDegrees>-69.28031916730105876922607421875</LongitudeDegrees>
            </Position>
            <AltitudeMeters>1853.199951171875</AltitudeMeters>
            <DistanceMeters>14225.885522288</DistanceMeters>
          </Trackpoint>
          <Trackpoint>
            <Time>2021-08-29T16:45:26.000Z</Time>
            <Position>
              <LatitudeDegrees>-32.9842737503349781036376953125</LatitudeDegrees>
              <LongitudeDegrees>-69.28041203878819942474365234375</LongitudeDegrees>
            </Position>
            <AltitudeMeters>1853.4000244140625</AltitudeMeters>
            <DistanceMeters>14235.263845409</DistanceMeters>
          </Trackpoint>
          <Trackpoint>
            <Time>2021-08-29T16:45:28.000Z</Time>
            <Position>
              <LatitudeDegrees>-32.9842569865286350250244140625</LatitudeDegrees>
              <LongitudeDegrees>-69.2804444767534732818603515625</LongitudeDegrees>
            </Position>
            <AltitudeMeters>1853.4000244140625</AltitudeMeters>
            <DistanceMeters>14238.823226991</DistanceMeters>
          </Trackpoint>
          <Trackpoint>
            <Time>2021-08-29T16:45:33.000Z</Time>
            <Position>
              <LatitudeDegrees>-32.98422387801110744476318359375</LatitudeDegrees>
              <LongitudeDegrees>-69.2804806865751743316650390625</LongitudeDegrees>
            </Position>
            <AltitudeMeters>1853.800048828125</AltitudeMeters>
            <DistanceMeters>14243.824557989</DistanceMeters>
          </Trackpoint>
          <Trackpoint>
            <Time>2021-08-29T16:45:34.000Z</Time>
            <Position>
              <LatitudeDegrees>-32.984223626554012298583984375</LatitudeDegrees>
              <LongitudeDegrees>-69.280484206974506378173828125</LongitudeDegrees>
            </Position>
            <AltitudeMeters>1853.800048828125</AltitudeMeters>
            <DistanceMeters>14244.153740184</DistanceMeters>
          </Trackpoint>
          <Trackpoint>
            <Time>2021-08-29T16:45:41.000Z</Time>
            <Position>
              <LatitudeDegrees>-32.98422396183013916015625</LatitudeDegrees>
              <LongitudeDegrees>-69.2804833687841892242431640625</LongitudeDegrees>
            </Position>
            <AltitudeMeters>1853.800048828125</AltitudeMeters>
            <DistanceMeters>14244.248766898</DistanceMeters>
          </Trackpoint>
          <Trackpoint>
            <Time>2021-08-29T16:45:47.000Z</Time>
            <Position>
              <LatitudeDegrees>-32.984224297106266021728515625</LatitudeDegrees>
              <LongitudeDegrees>-69.2804867215454578399658203125</LongitudeDegrees>
            </Position>
            <AltitudeMeters>1853.5999755859375</AltitudeMeters>
            <DistanceMeters>14244.577949093</DistanceMeters>
          </Trackpoint>
          <Trackpoint>
            <Time>2021-08-29T16:45:52.000Z</Time>
            <Position>
              <LatitudeDegrees>-32.98417073674499988555908203125</LatitudeDegrees>
              <LongitudeDegrees>-69.2805316485464572906494140625</LongitudeDegrees>
            </Position>
            <AltitudeMeters>1854.4000244140625</AltitudeMeters>
            <DistanceMeters>14251.867185665</DistanceMeters>
          </Trackpoint>
          <Trackpoint>
            <Time>2021-08-29T16:45:55.000Z</Time>
            <Position>
              <LatitudeDegrees>-32.98409915529191493988037109375</LatitudeDegrees>
              <LongitudeDegrees>-69.2805752344429492950439453125</LongitudeDegrees>
            </Position>
            <AltitudeMeters>1855.4000244140625</AltitudeMeters>
            <DistanceMeters>14260.813333859</DistanceMeters>
          </Trackpoint>
          <Trackpoint>
            <Time>2021-08-29T16:45:58.000Z</Time>
            <Position>
              <LatitudeDegrees>-32.984006367623805999755859375</LatitudeDegrees>
              <LongitudeDegrees>-69.28064203821122646331787109375</LongitudeDegrees>
            </Position>
            <AltitudeMeters>1856.800048828125</AltitudeMeters>
            <DistanceMeters>14272.877984795</DistanceMeters>
          </Trackpoint>
          <Trackpoint>
            <Time>2021-08-29T16:46:05.000Z</Time>
            <Position>
              <LatitudeDegrees>-32.983862869441509246826171875</LatitudeDegrees>
              <LongitudeDegrees>-69.28080364130437374114990234375</LongitudeDegrees>
            </Position>
            <AltitudeMeters>1859</AltitudeMeters>
            <DistanceMeters>14294.849098252</DistanceMeters>
          </Trackpoint>
          <Trackpoint>
            <Time>2021-08-29T16:46:11.000Z</Time>
            <Position>
              <LatitudeDegrees>-32.98383034765720367431640625</LatitudeDegrees>
              <LongitudeDegrees>-69.28095837123692035675048828125</LongitudeDegrees>
            </Position>
            <AltitudeMeters>1859.800048828125</AltitudeMeters>
            <DistanceMeters>14309.741940077</DistanceMeters>
          </Trackpoint>
          <Trackpoint>
            <Time>2021-08-29T16:46:18.000Z</Time>
            <Position>
              <LatitudeDegrees>-32.983877621591091156005859375</LatitudeDegrees>
              <LongitudeDegrees>-69.28110840730369091033935546875</LongitudeDegrees>
            </Position>
            <AltitudeMeters>1859</AltitudeMeters>
            <DistanceMeters>14324.705253394</DistanceMeters>
          </Trackpoint>
          <Trackpoint>
            <Time>2021-08-29T16:46:27.000Z</Time>
            <Position>
              <LatitudeDegrees>-32.98398591578006744384765625</LatitudeDegrees>
              <LongitudeDegrees>-69.2812268435955047607421875</LongitudeDegrees>
            </Position>
            <AltitudeMeters>1857.4000244140625</AltitudeMeters>
            <DistanceMeters>14341.062274362</DistanceMeters>
          </Trackpoint>
          <Trackpoint>
            <Time>2021-08-29T16:46:36.000Z</Time>
            <Position>
              <LatitudeDegrees>-32.98410250805318355560302734375</LatitudeDegrees>
              <LongitudeDegrees>-69.28137646056711673736572265625</LongitudeDegrees>
            </Position>
            <AltitudeMeters>1855.800048828125</AltitudeMeters>
            <DistanceMeters>14360.128337336</DistanceMeters>
          </Trackpoint>
          <Trackpoint>
            <Time>2021-08-29T16:46:39.000Z</Time>
            <Position>
              <LatitudeDegrees>-32.98413100652396678924560546875</LatitudeDegrees>
              <LongitudeDegrees>-69.28142121993005275726318359375</LongitudeDegrees>
            </Position>
            <AltitudeMeters>1855.5999755859375</AltitudeMeters>
            <DistanceMeters>14365.374638224</DistanceMeters>
          </Trackpoint>
          <Trackpoint>
            <Time>2021-08-29T16:46:42.000Z</Time>
            <Position>
              <LatitudeDegrees>-32.98415263183414936065673828125</LatitudeDegrees>
              <LongitudeDegrees>-69.28146748803555965423583984375</LongitudeDegrees>
            </Position>
            <AltitudeMeters>1855.4000244140625</AltitudeMeters>
            <DistanceMeters>14370.319680894</DistanceMeters>
          </Trackpoint>
          <Trackpoint>
            <Time>2021-08-29T16:46:45.000Z</Time>
            <Position>
              <LatitudeDegrees>-32.98416721634566783905029296875</LatitudeDegrees>
              <LongitudeDegrees>-69.28152414970099925994873046875</LongitudeDegrees>
            </Position>
            <AltitudeMeters>1855.5999755859375</AltitudeMeters>
            <DistanceMeters>14375.852488422</DistanceMeters>
          </Trackpoint>
          <Trackpoint>
            <Time>2021-08-29T16:46:47.000Z</Time>
            <Position>
              <LatitudeDegrees>-32.98416755162179470062255859375</LatitudeDegrees>
              <LongitudeDegrees>-69.28156237117946147918701171875</LongitudeDegrees>
            </Position>
            <AltitudeMeters>1855.800048828125</AltitudeMeters>
            <DistanceMeters>14379.420738384</DistanceMeters>
          </Trackpoint>
          <Trackpoint>
            <Time>2021-08-29T16:46:48.000Z</Time>
            <Position>
              <LatitudeDegrees>-32.98416671343147754669189453125</LatitudeDegrees>
              <LongitudeDegrees>-69.2815824039280414581298828125</LongitudeDegrees>
            </Position>
            <AltitudeMeters>1856</AltitudeMeters>
            <DistanceMeters>14381.294958151</DistanceMeters>
          </Trackpoint>
          <Trackpoint>
            <Time>2021-08-29T16:46:51.000Z</Time>
            <Position>
              <LatitudeDegrees>-32.98415631987154483795166015625</LatitudeDegrees>
              <LongitudeDegrees>-69.28164568729698657989501953125</LongitudeDegrees>
            </Position>
            <AltitudeMeters>1856.5999755859375</AltitudeMeters>
            <DistanceMeters>14387.315483614</DistanceMeters>
          </Trackpoint>
          <Trackpoint>
            <Time>2021-08-29T16:46:53.000Z</Time>
            <Position>
              <LatitudeDegrees>-32.98414475284516811370849609375</LatitudeDegrees>
              <LongitudeDegrees>-69.28168927319347858428955078125</LongitudeDegrees>
            </Position>
            <AltitudeMeters>1857.199951171875</AltitudeMeters>
            <DistanceMeters>14391.584288395</DistanceMeters>
          </Trackpoint>
          <Trackpoint>
            <Time>2021-08-29T16:46:58.000Z</Time>
            <Position>
              <LatitudeDegrees>-32.98411340452730655670166015625</LatitudeDegrees>
              <LongitudeDegrees>-69.28179874084889888763427734375</LongitudeDegrees>
            </Position>
            <AltitudeMeters>1858.5999755859375</AltitudeMeters>
            <DistanceMeters>14402.383939656</DistanceMeters>
          </Trackpoint>
          <Trackpoint>
            <Time>2021-08-29T16:47:00.000Z</Time>
            <Position>
              <LatitudeDegrees>-32.98410929739475250244140625</LatitudeDegrees>
              <LongitudeDegrees>-69.28182539530098438262939453125</LongitudeDegrees>
            </Position>
            <AltitudeMeters>1859</AltitudeMeters>
            <DistanceMeters>14404.912436071</DistanceMeters>
          </Trackpoint>
          <Trackpoint>
            <Time>2021-08-29T16:47:13.000Z</Time>
            <Position>
              <LatitudeDegrees>-32.98409563489258289337158203125</LatitudeDegrees>
              <LongitudeDegrees>-69.28214239887893199920654296875</LongitudeDegrees>
            </Position>
            <AltitudeMeters>1862.199951171875</AltitudeMeters>
            <DistanceMeters>14434.54767143</DistanceMeters>
          </Trackpoint>
          <Trackpoint>
            <Time>2021-08-29T16:47:22.000Z</Time>
            <Position>
              <LatitudeDegrees>-32.98413251526653766632080078125</LatitudeDegrees>
              <LongitudeDegrees>-69.282325208187103271484375</LongitudeDegrees>
            </Position>
            <AltitudeMeters>1863</AltitudeMeters>
            <DistanceMeters>14452.101654698</DistanceMeters>
          </Trackpoint>
          <Trackpoint>
            <Time>2021-08-29T16:47:23.000Z</Time>
            <Position>
              <LatitudeDegrees>-32.98413955606520175933837890625</LatitudeDegrees>
              <LongitudeDegrees>-69.2823428101837635040283203125</LongitudeDegrees>
            </Position>
            <AltitudeMeters>1863</AltitudeMeters>
            <DistanceMeters>14453.919622789</DistanceMeters>
          </Trackpoint>
          <Trackpoint>
            <Time>2021-08-29T16:47:34.000Z</Time>
            <Position>
              <LatitudeDegrees>-32.9842737503349781036376953125</LatitudeDegrees>
              <LongitudeDegrees>-69.2825208418071269989013671875</LongitudeDegrees>
            </Position>
            <AltitudeMeters>1862.199951171875</AltitudeMeters>
            <DistanceMeters>14476.266059358</DistanceMeters>
          </Trackpoint>
          <Trackpoint>
            <Time>2021-08-29T16:47:46.000Z</Time>
            <Position>
              <LatitudeDegrees>-32.9844149015843868255615234375</LatitudeDegrees>
              <LongitudeDegrees>-69.282682277262210845947265625</LongitudeDegrees>
            </Position>
            <AltitudeMeters>1862.4000244140625</AltitudeMeters>
            <DistanceMeters>14498.037133803</DistanceMeters>
          </Trackpoint>
          <Trackpoint>
            <Time>2021-08-29T16:47:59.000Z</Time>
            <Position>
              <LatitudeDegrees>-32.984596453607082366943359375</LatitudeDegrees>
              <LongitudeDegrees>-69.28283072076737880706787109375</LongitudeDegrees>
            </Position>
            <AltitudeMeters>1862.5999755859375</AltitudeMeters>
            <DistanceMeters>14522.540210195</DistanceMeters>
          </Trackpoint>
          <Trackpoint>
            <Time>2021-08-29T16:48:10.000Z</Time>
            <Position>
              <LatitudeDegrees>-32.984759397804737091064453125</LatitudeDegrees>
              <LongitudeDegrees>-69.28287011571228504180908203125</LongitudeDegrees>
            </Position>
            <AltitudeMeters>1861.800048828125</AltitudeMeters>
            <DistanceMeters>14541.04530568</DistanceMeters>
          </Trackpoint>
          <Trackpoint>
            <Time>2021-08-29T16:48:20.000Z</Time>
            <Position>
              <LatitudeDegrees>-32.98490549437701702117919921875</LatitudeDegrees>
              <LongitudeDegrees>-69.28285703994333744049072265625</LongitudeDegrees>
            </Position>
            <AltitudeMeters>1860.4000244140625</AltitudeMeters>
            <DistanceMeters>14557.35173481</DistanceMeters>
          </Trackpoint>
          <Trackpoint>
            <Time>2021-08-29T16:48:24.000Z</Time>
            <Position>
              <LatitudeDegrees>-32.984915636479854583740234375</LatitudeDegrees>
              <LongitudeDegrees>-69.28285636939108371734619140625</LongitudeDegrees>
            </Position>
            <AltitudeMeters>1860.199951171875</AltitudeMeters>
            <DistanceMeters>14558.484108801</DistanceMeters>
          </Trackpoint>
          <Trackpoint>
            <Time>2021-08-29T16:48:28.000Z</Time>
            <Position>
              <LatitudeDegrees>-32.9849365912377834320068359375</LatitudeDegrees>
              <LongitudeDegrees>-69.2828651703894138336181640625</LongitudeDegrees>
            </Position>
            <AltitudeMeters>1860.199951171875</AltitudeMeters>
            <DistanceMeters>14560.958455549</DistanceMeters>
          </Trackpoint>
          <Trackpoint>
            <Time>2021-08-29T16:48:31.000Z</Time>
            <Position>
              <LatitudeDegrees>-32.98498361371457576751708984375</LatitudeDegrees>
              <LongitudeDegrees>-69.28288436494767665863037109375</LongitudeDegrees>
            </Position>
            <AltitudeMeters>1860</AltitudeMeters>
            <DistanceMeters>14566.489630739</DistanceMeters>
          </Trackpoint>
          <Trackpoint>
            <Time>2021-08-29T16:48:39.000Z</Time>
            <Position>
              <LatitudeDegrees>-32.985084950923919677734375</LatitudeDegrees>
              <LongitudeDegrees>-69.2829771526157855987548828125</LongitudeDegrees>
            </Position>
            <AltitudeMeters>1860.5999755859375</AltitudeMeters>
            <DistanceMeters>14580.711292112</DistanceMeters>
          </Trackpoint>
          <Trackpoint>
            <Time>2021-08-29T16:48:50.000Z</Time>
            <Position>
              <LatitudeDegrees>-32.98516617156565189361572265625</LatitudeDegrees>
              <LongitudeDegrees>-69.28318242542445659637451171875</LongitudeDegrees>
            </Position>
            <AltitudeMeters>1863</AltitudeMeters>
            <DistanceMeters>14601.900757913</DistanceMeters>
          </Trackpoint>
          <Trackpoint>
            <Time>2021-08-29T16:48:52.000Z</Time>
            <Position>
              <LatitudeDegrees>-32.98517555929720401763916015625</LatitudeDegrees>
              <LongitudeDegrees>-69.28322299383580684661865234375</LongitudeDegrees>
            </Position>
            <AltitudeMeters>1863.4000244140625</AltitudeMeters>
            <DistanceMeters>14605.830316504</DistanceMeters>
          </Trackpoint>
          <Trackpoint>
            <Time>2021-08-29T16:49:02.000Z</Time>
            <Position>
              <LatitudeDegrees>-32.98520707525312900543212890625</LatitudeDegrees>
              <LongitudeDegrees>-69.283418543636798858642578125</LongitudeDegrees>
            </Position>
            <AltitudeMeters>1866</AltitudeMeters>
            <DistanceMeters>14624.421097709</DistanceMeters>
          </Trackpoint>
          <Trackpoint>
            <Time>2021-08-29T16:49:04.000Z</Time>
            <Position>
              <LatitudeDegrees>-32.98521277494728565216064453125</LatitudeDegrees>
              <LongitudeDegrees>-69.2834609560668468475341796875</LongitudeDegrees>
            </Position>
            <AltitudeMeters>1866.5999755859375</AltitudeMeters>
            <DistanceMeters>14628.430279181</DistanceMeters>
          </Trackpoint>
          <Trackpoint>
            <Time>2021-08-29T16:49:15.000Z</Time>
            <Position>
              <LatitudeDegrees>-32.98530028201639652252197265625</LatitudeDegrees>
              <LongitudeDegrees>-69.28369405679404735565185546875</LongitudeDegrees>
            </Position>
            <AltitudeMeters>1868.800048828125</AltitudeMeters>
            <DistanceMeters>14652.272707167</DistanceMeters>
          </Trackpoint>
          <Trackpoint>
            <Time>2021-08-29T16:49:27.000Z</Time>
            <Position>
              <LatitudeDegrees>-32.98537923954427242279052734375</LatitudeDegrees>
              <LongitudeDegrees>-69.28390301764011383056640625</LongitudeDegrees>
            </Position>
            <AltitudeMeters>1869.4000244140625</AltitudeMeters>
            <DistanceMeters>14673.669127792</DistanceMeters>
          </Trackpoint>
          <Trackpoint>
            <Time>2021-08-29T16:49:34.000Z</Time>
            <Position>
              <LatitudeDegrees>-32.985396422445774078369140625</LatitudeDegrees>
              <LongitudeDegrees>-69.2840225435793399810791015625</LongitudeDegrees>
            </Position>
            <AltitudeMeters>1870.4000244140625</AltitudeMeters>
            <DistanceMeters>14684.990475108</DistanceMeters>
          </Trackpoint>
          <Trackpoint>
            <Time>2021-08-29T16:49:37.000Z</Time>
            <Position>
              <LatitudeDegrees>-32.98541611991822719573974609375</LatitudeDegrees>
              <LongitudeDegrees>-69.28406571038067340850830078125</LongitudeDegrees>
            </Position>
            <AltitudeMeters>1870.5999755859375</AltitudeMeters>
            <DistanceMeters>14689.577421599</DistanceMeters>
          </Trackpoint>
          <Trackpoint>
            <Time>2021-08-29T16:49:38.000Z</Time>
            <Position>
              <LatitudeDegrees>-32.98542316071689128875732421875</LatitudeDegrees>
              <LongitudeDegrees>-69.284081049263477325439453125</LongitudeDegrees>
            </Position>
            <AltitudeMeters>1870.800048828125</AltitudeMeters>
            <DistanceMeters>14691.206790334</DistanceMeters>
          </Trackpoint>
          <Trackpoint>
            <Time>2021-08-29T16:49:47.000Z</Time>
            <Position>
              <LatitudeDegrees>-32.98551368527114391326904296875</LatitudeDegrees>
              <LongitudeDegrees>-69.2842723242938518524169921875</LongitudeDegrees>
            </Position>
            <AltitudeMeters>1871.800048828125</AltitudeMeters>
            <DistanceMeters>14711.710772118</DistanceMeters>
          </Trackpoint>
          <Trackpoint>
            <Time>2021-08-29T16:49:53.000Z</Time>
            <Position>
              <LatitudeDegrees>-32.98554235137999057769775390625</LatitudeDegrees>
              <LongitudeDegrees>-69.28444608114659786224365234375</LongitudeDegrees>
            </Position>
            <AltitudeMeters>1873.199951171875</AltitudeMeters>
            <DistanceMeters>14728.243781946</DistanceMeters>
          </Trackpoint>
          <Trackpoint>
            <Time>2021-08-29T16:49:59.000Z</Time>
            <Position>
              <LatitudeDegrees>-32.98557168804109096527099609375</LatitudeDegrees>
              <LongitudeDegrees>-69.284566529095172882080078125</LongitudeDegrees>
            </Position>
            <AltitudeMeters>1873.800048828125</AltitudeMeters>
            <DistanceMeters>14739.953294349</DistanceMeters>
          </Trackpoint>
          <Trackpoint>
            <Time>2021-08-29T16:50:04.000Z</Time>
            <Position>
              <LatitudeDegrees>-32.98568149097263813018798828125</LatitudeDegrees>
              <LongitudeDegrees>-69.2845874838531017303466796875</LongitudeDegrees>
            </Position>
            <AltitudeMeters>1872.5999755859375</AltitudeMeters>
            <DistanceMeters>14752.330136305</DistanceMeters>
          </Trackpoint>
          <Trackpoint>
            <Time>2021-08-29T16:50:09.000Z</Time>
            <Position>
              <LatitudeDegrees>-32.98577436245977878570556640625</LatitudeDegrees>
              <LongitudeDegrees>-69.2846236936748027801513671875</LongitudeDegrees>
            </Position>
            <AltitudeMeters>1871.5999755859375</AltitudeMeters>
            <DistanceMeters>14763.205610606</DistanceMeters>
          </Trackpoint>
          <Trackpoint>
            <Time>2021-08-29T16:50:10.000Z</Time>
            <Position>
              <LatitudeDegrees>-32.98578525893390178680419921875</LatitudeDegrees>
              <LongitudeDegrees>-69.28463970310986042022705078125</LongitudeDegrees>
            </Position>
            <AltitudeMeters>1871.5999755859375</AltitudeMeters>
            <DistanceMeters>14765.132100008</DistanceMeters>
          </Trackpoint>
          <Trackpoint>
            <Time>2021-08-29T16:50:18.000Z</Time>
            <Position>
              <LatitudeDegrees>-32.98585834912955760955810546875</LatitudeDegrees>
              <LongitudeDegrees>-69.2847923375666141510009765625</LongitudeDegrees>
            </Position>
            <AltitudeMeters>1871.5999755859375</AltitudeMeters>
            <DistanceMeters>14781.540657509</DistanceMeters>
          </Trackpoint>
          <Trackpoint>
            <Time>2021-08-29T16:50:29.000Z</Time>
            <Position>
              <LatitudeDegrees>-32.98599044792354106903076171875</LatitudeDegrees>
              <LongitudeDegrees>-69.2849733866751194000244140625</LongitudeDegrees>
            </Position>
            <AltitudeMeters>1872.5999755859375</AltitudeMeters>
            <DistanceMeters>14803.943192825</DistanceMeters>
          </Trackpoint>
          <Trackpoint>
            <Time>2021-08-29T16:50:41.000Z</Time>
            <Position>
              <LatitudeDegrees>-32.98612824641168117523193359375</LatitudeDegrees>
              <LongitudeDegrees>-69.285172708332538604736328125</LongitudeDegrees>
            </Position>
            <AltitudeMeters>1874.5999755859375</AltitudeMeters>
            <DistanceMeters>14828.057895039</DistanceMeters>
          </Trackpoint>
          <Trackpoint>
            <Time>2021-08-29T16:50:48.000Z</Time>
            <Position>
              <LatitudeDegrees>-32.986191697418689727783203125</LatitudeDegrees>
              <LongitudeDegrees>-69.28528477437794208526611328125</LongitudeDegrees>
            </Position>
            <AltitudeMeters>1875.5999755859375</AltitudeMeters>
            <DistanceMeters>14840.680361865</DistanceMeters>
          </Trackpoint>
          <Trackpoint>
            <Time>2021-08-29T16:50:52.000Z</Time>
            <Position>
              <LatitudeDegrees>-32.9862203635275363922119140625</LatitudeDegrees>
              <LongitudeDegrees>-69.28535283543169498443603515625</LongitudeDegrees>
            </Position>
            <AltitudeMeters>1876.199951171875</AltitudeMeters>
            <DistanceMeters>14847.790240059</DistanceMeters>
          </Trackpoint>
          <Trackpoint>
            <Time>2021-08-29T16:51:04.000Z</Time>
            <Position>
              <LatitudeDegrees>-32.98633645288646221160888671875</LatitudeDegrees>
              <LongitudeDegrees>-69.28552852012217044830322265625</LongitudeDegrees>
            </Position>
            <AltitudeMeters>1878.199951171875</AltitudeMeters>
            <DistanceMeters>14868.67018476</DistanceMeters>
          </Trackpoint>
          <Trackpoint>
            <Time>2021-08-29T16:51:14.000Z</Time>
            <Position>
              <LatitudeDegrees>-32.98643686808645725250244140625</LatitudeDegrees>
              <LongitudeDegrees>-69.28568609990179538726806640625</LongitudeDegrees>
            </Position>
            <AltitudeMeters>1880</AltitudeMeters>
            <DistanceMeters>14887.145733998</DistanceMeters>
          </Trackpoint>
          <Trackpoint>
            <Time>2021-08-29T16:51:24.000Z</Time>
            <Position>
              <LatitudeDegrees>-32.98652437515556812286376953125</LatitudeDegrees>
              <LongitudeDegrees>-69.28583948872983455657958984375</LongitudeDegrees>
            </Position>
            <AltitudeMeters>1881.5999755859375</AltitudeMeters>
            <DistanceMeters>14904.464075691</DistanceMeters>
          </Trackpoint>
          <Trackpoint>
            <Time>2021-08-29T16:51:28.000Z</Time>
            <Position>
              <LatitudeDegrees>-32.98655991442501544952392578125</LatitudeDegrees>
              <LongitudeDegrees>-69.28590185008943080902099609375</LongitudeDegrees>
            </Position>
            <AltitudeMeters>1882.199951171875</AltitudeMeters>
            <DistanceMeters>14911.50247035</DistanceMeters>
          </Trackpoint>
          <Trackpoint>
            <Time>2021-08-29T16:51:41.000Z</Time>
            <Position>
              <LatitudeDegrees>-32.986659742891788482666015625</LatitudeDegrees>
              <LongitudeDegrees>-69.28611944429576396942138671875</LongitudeDegrees>
            </Position>
            <AltitudeMeters>1884.5999755859375</AltitudeMeters>
            <DistanceMeters>14934.657031426</DistanceMeters>
          </Trackpoint>
          <Trackpoint>
            <Time>2021-08-29T16:51:53.000Z</Time>
            <Position>
              <LatitudeDegrees>-32.9867511056363582611083984375</LatitudeDegrees>
              <LongitudeDegrees>-69.28628741763532161712646484375</LongitudeDegrees>
            </Position>
            <AltitudeMeters>1886.199951171875</AltitudeMeters>
            <DistanceMeters>14953.347121773</DistanceMeters>
          </Trackpoint>
          <Trackpoint>
            <Time>2021-08-29T16:52:03.000Z</Time>
            <Position>
              <LatitudeDegrees>-32.9868550412356853485107421875</LatitudeDegrees>
              <LongitudeDegrees>-69.28643024526536464691162109375</LongitudeDegrees>
            </Position>
            <AltitudeMeters>1887</AltitudeMeters>
            <DistanceMeters>14971.000108435</DistanceMeters>
          </Trackpoint>
          <Trackpoint>
            <Time>2021-08-29T16:52:14.000Z</Time>
            <Position>
              <LatitudeDegrees>-32.98695285804569721221923828125</LatitudeDegrees>
              <LongitudeDegrees>-69.2866185866296291351318359375</LongitudeDegrees>
            </Position>
            <AltitudeMeters>1888.199951171875</AltitudeMeters>
            <DistanceMeters>14991.681467211</DistanceMeters>
          </Trackpoint>
          <Trackpoint>
            <Time>2021-08-29T16:52:27.000Z</Time>
            <Position>
              <LatitudeDegrees>-32.98702158965170383453369140625</LatitudeDegrees>
              <LongitudeDegrees>-69.28685319609940052032470703125</LongitudeDegrees>
            </Position>
            <AltitudeMeters>1889.800048828125</AltitudeMeters>
            <DistanceMeters>15014.882001616</DistanceMeters>
          </Trackpoint>
          <Trackpoint>
            <Time>2021-08-29T16:52:37.000Z</Time>
            <Position>
              <LatitudeDegrees>-32.98701304011046886444091796875</LatitudeDegrees>
              <LongitudeDegrees>-69.28701966069638729095458984375</LongitudeDegrees>
            </Position>
            <AltitudeMeters>1891.199951171875</AltitudeMeters>
            <DistanceMeters>15030.452180237</DistanceMeters>
          </Trackpoint>
          <Trackpoint>
            <Time>2021-08-29T16:52:46.000Z</Time>
            <Position>
              <LatitudeDegrees>-32.987028546631336212158203125</LatitudeDegrees>
              <LongitudeDegrees>-69.28717304952442646026611328125</LongitudeDegrees>
            </Position>
            <AltitudeMeters>1892.4000244140625</AltitudeMeters>
            <DistanceMeters>15044.876534342</DistanceMeters>
          </Trackpoint>
          <Trackpoint>
            <Time>2021-08-29T16:52:53.000Z</Time>
            <Position>
              <LatitudeDegrees>-32.9870367608964443206787109375</LatitudeDegrees>
              <LongitudeDegrees>-69.28720925934612751007080078125</LongitudeDegrees>
            </Position>
            <AltitudeMeters>1892.800048828125</AltitudeMeters>
            <DistanceMeters>15048.378368691</DistanceMeters>
          </Trackpoint>
          <Trackpoint>
            <Time>2021-08-29T16:53:04.000Z</Time>
            <Position>
              <LatitudeDegrees>-32.98703533597290515899658203125</LatitudeDegrees>
              <LongitudeDegrees>-69.28719970397651195526123046875</LongitudeDegrees>
            </Position>
            <AltitudeMeters>1892.5999755859375</AltitudeMeters>
            <DistanceMeters>15049.284865772</DistanceMeters>
          </Trackpoint>
          <Trackpoint>
            <Time>2021-08-29T16:53:08.000Z</Time>
            <Position>
              <LatitudeDegrees>-32.98703533597290515899658203125</LatitudeDegrees>
              <LongitudeDegrees>-69.28719970397651195526123046875</LongitudeDegrees>
            </Position>
            <AltitudeMeters>1892.5999755859375</AltitudeMeters>
            <DistanceMeters>15049.284865772</DistanceMeters>
          </Trackpoint>
          <Trackpoint>
            <Time>2021-08-29T16:53:19.000Z</Time>
            <Position>
              <LatitudeDegrees>-32.98703533597290515899658203125</LatitudeDegrees>
              <LongitudeDegrees>-69.28720205090939998626708984375</LongitudeDegrees>
            </Position>
            <AltitudeMeters>1892.5999755859375</AltitudeMeters>
            <DistanceMeters>15049.517632734</DistanceMeters>
          </Trackpoint>
          <Trackpoint>
            <Time>2021-08-29T16:53:23.000Z</Time>
            <Position>
              <LatitudeDegrees>-32.98703533597290515899658203125</LatitudeDegrees>
              <LongitudeDegrees>-69.28720305673778057098388671875</LongitudeDegrees>
            </Position>
            <AltitudeMeters>1892.5999755859375</AltitudeMeters>
            <DistanceMeters>15049.652020802</DistanceMeters>
          </Trackpoint>
          <Trackpoint>
            <Time>2021-08-29T16:53:27.000Z</Time>
            <Position>
              <LatitudeDegrees>-32.98703449778258800506591796875</LatitudeDegrees>
              <LongitudeDegrees>-69.2872043140232563018798828125</LongitudeDegrees>
            </Position>
            <AltitudeMeters>1892.5999755859375</AltitudeMeters>
            <DistanceMeters>15049.78640887</DistanceMeters>
          </Trackpoint>
          <Trackpoint>
            <Time>2021-08-29T16:53:31.000Z</Time>
            <Position>
              <LatitudeDegrees>-32.9870344139635562896728515625</LatitudeDegrees>
              <LongitudeDegrees>-69.2872063256800174713134765625</LongitudeDegrees>
            </Position>
            <AltitudeMeters>1892.5999755859375</AltitudeMeters>
            <DistanceMeters>15049.976462299</DistanceMeters>
          </Trackpoint>
          <Trackpoint>
            <Time>2021-08-29T16:53:33.000Z</Time>
            <Position>
              <LatitudeDegrees>-32.9870344139635562896728515625</LatitudeDegrees>
              <LongitudeDegrees>-69.2872080020606517791748046875</LongitudeDegrees>
            </Position>
            <AltitudeMeters>1892.800048828125</AltitudeMeters>
            <DistanceMeters>15050.166515728</DistanceMeters>
          </Trackpoint>
          <Trackpoint>
            <Time>2021-08-29T16:53:39.000Z</Time>
            <Position>
              <LatitudeDegrees>-32.98703466542065143585205078125</LatitudeDegrees>
              <LongitudeDegrees>-69.2872096784412860870361328125</LongitudeDegrees>
            </Position>
            <AltitudeMeters>1892.800048828125</AltitudeMeters>
            <DistanceMeters>15050.331106825</DistanceMeters>
          </Trackpoint>
          <Trackpoint>
            <Time>2021-08-29T16:53:42.000Z</Time>
            <Position>
              <LatitudeDegrees>-32.987035252153873443603515625</LatitudeDegrees>
              <LongitudeDegrees>-69.2872096784412860870361328125</LongitudeDegrees>
            </Position>
            <AltitudeMeters>1892.800048828125</AltitudeMeters>
            <DistanceMeters>15050.331106825</DistanceMeters>
          </Trackpoint>
          <Trackpoint>
            <Time>2021-08-29T16:53:44.000Z</Time>
            <Position>
              <LatitudeDegrees>-32.9870354197919368743896484375</LatitudeDegrees>
              <LongitudeDegrees>-69.2872096784412860870361328125</LongitudeDegrees>
            </Position>
            <AltitudeMeters>1892.800048828125</AltitudeMeters>
            <DistanceMeters>15050.331106825</DistanceMeters>
          </Trackpoint>
          <Trackpoint>
            <Time>2021-08-29T16:53:46.000Z</Time>
            <Position>
              <LatitudeDegrees>-32.9870357550680637359619140625</LatitudeDegrees>
              <LongitudeDegrees>-69.2872096784412860870361328125</LongitudeDegrees>
            </Position>
            <AltitudeMeters>1892.800048828125</AltitudeMeters>
            <DistanceMeters>15050.331106825</DistanceMeters>
          </Trackpoint>
          <Trackpoint>
            <Time>2021-08-29T16:53:50.000Z</Time>
            <Position>
              <LatitudeDegrees>-32.98703617416322231292724609375</LatitudeDegrees>
              <LongitudeDegrees>-69.2872083373367786407470703125</LongitudeDegrees>
            </Position>
            <AltitudeMeters>1892.800048828125</AltitudeMeters>
            <DistanceMeters>15050.465494893</DistanceMeters>
          </Trackpoint>
          <Trackpoint>
            <Time>2021-08-29T16:54:14.000Z</Time>
            <Position>
              <LatitudeDegrees>-32.987033911049365997314453125</LatitudeDegrees>
              <LongitudeDegrees>-69.28720079362392425537109375</LongitudeDegrees>
            </Position>
            <AltitudeMeters>1892.5999755859375</AltitudeMeters>
            <DistanceMeters>15051.213735991</DistanceMeters>
          </Trackpoint>
          <Trackpoint>
            <Time>2021-08-29T16:54:18.000Z</Time>
            <Position>
              <LatitudeDegrees>-32.98703382723033428192138671875</LatitudeDegrees>
              <LongitudeDegrees>-69.2871992848813533782958984375</LongitudeDegrees>
            </Position>
            <AltitudeMeters>1892.5999755859375</AltitudeMeters>
            <DistanceMeters>15051.348124059</DistanceMeters>
          </Trackpoint>
          <Trackpoint>
            <Time>2021-08-29T16:54:23.000Z</Time>
            <Position>
              <LatitudeDegrees>-32.98703382723033428192138671875</LatitudeDegrees>
              <LongitudeDegrees>-69.28719920106232166290283203125</LongitudeDegrees>
            </Position>
            <AltitudeMeters>1892.5999755859375</AltitudeMeters>
            <DistanceMeters>15051.348124059</DistanceMeters>
          </Trackpoint>
          <Trackpoint>
            <Time>2021-08-29T16:54:25.000Z</Time>
            <Position>
              <LatitudeDegrees>-32.98703399486839771270751953125</LatitudeDegrees>
              <LongitudeDegrees>-69.28719920106232166290283203125</LongitudeDegrees>
            </Position>
            <AltitudeMeters>1892.5999755859375</AltitudeMeters>
            <DistanceMeters>15051.348124059</DistanceMeters>
          </Trackpoint>
          <Trackpoint>
            <Time>2021-08-29T16:54:44.000Z</Time>
            <Position>
              <LatitudeDegrees>-32.98703290522098541259765625</LatitudeDegrees>
              <LongitudeDegrees>-69.287201128900051116943359375</LongitudeDegrees>
            </Position>
            <AltitudeMeters>1892.5999755859375</AltitudeMeters>
            <DistanceMeters>15051.560610252</DistanceMeters>
          </Trackpoint>
          <Trackpoint>
            <Time>2021-08-29T16:55:04.000Z</Time>
            <Position>
              <LatitudeDegrees>-32.98703181557357311248779296875</LatitudeDegrees>
              <LongitudeDegrees>-69.2871962673962116241455078125</LongitudeDegrees>
            </Position>
            <AltitudeMeters>1892.5999755859375</AltitudeMeters>
            <DistanceMeters>15052.026144176</DistanceMeters>
          </Trackpoint>
          <Trackpoint>
            <Time>2021-08-29T16:55:10.000Z</Time>
            <Position>
              <LatitudeDegrees>-32.987034581601619720458984375</LatitudeDegrees>
              <LongitudeDegrees>-69.28719501011073589324951171875</LongitudeDegrees>
            </Position>
            <AltitudeMeters>1892.5999755859375</AltitudeMeters>
            <DistanceMeters>15052.355326371</DistanceMeters>
          </Trackpoint>
          <Trackpoint>
            <Time>2021-08-29T16:55:28.000Z</Time>
            <Position>
              <LatitudeDegrees>-32.98703667707741260528564453125</LatitudeDegrees>
              <LongitudeDegrees>-69.2871972732245922088623046875</LongitudeDegrees>
            </Position>
            <AltitudeMeters>1892.5999755859375</AltitudeMeters>
            <DistanceMeters>15052.684508566</DistanceMeters>
          </Trackpoint>
          <Trackpoint>
            <Time>2021-08-29T16:55:51.000Z</Time>
            <Position>
              <LatitudeDegrees>-32.98703650943934917449951171875</LatitudeDegrees>
              <LongitudeDegrees>-69.28720054216682910919189453125</LongitudeDegrees>
            </Position>
            <AltitudeMeters>1892.5999755859375</AltitudeMeters>
            <DistanceMeters>15052.999676522</DistanceMeters>
          </Trackpoint>
          <Trackpoint>
            <Time>2021-08-29T16:55:55.000Z</Time>
            <Position>
              <LatitudeDegrees>-32.9870364256203174591064453125</LatitudeDegrees>
              <LongitudeDegrees>-69.28720037452876567840576171875</LongitudeDegrees>
            </Position>
            <AltitudeMeters>1892.5999755859375</AltitudeMeters>
            <DistanceMeters>15052.999676522</DistanceMeters>
          </Trackpoint>
          <Trackpoint>
            <Time>2021-08-29T16:56:12.000Z</Time>
            <Position>
              <LatitudeDegrees>-32.9870344139635562896728515625</LatitudeDegrees>
              <LongitudeDegrees>-69.28719886578619480133056640625</LongitudeDegrees>
            </Position>
            <AltitudeMeters>1892.5999755859375</AltitudeMeters>
            <DistanceMeters>15053.268452659</DistanceMeters>
          </Trackpoint>
          <Trackpoint>
            <Time>2021-08-29T16:56:17.000Z</Time>
            <Position>
              <LatitudeDegrees>-32.9870521835982799530029296875</LatitudeDegrees>
              <LongitudeDegrees>-69.28728419356048107147216796875</LongitudeDegrees>
            </Position>
            <AltitudeMeters>1893.4000244140625</AltitudeMeters>
            <DistanceMeters>15061.476032708</DistanceMeters>
          </Trackpoint>
          <Trackpoint>
            <Time>2021-08-29T16:56:25.000Z</Time>
            <Position>
              <LatitudeDegrees>-32.98709820024669170379638671875</LatitudeDegrees>
              <LongitudeDegrees>-69.2874507419764995574951171875</LongitudeDegrees>
            </Position>
            <AltitudeMeters>1894.800048828125</AltitudeMeters>
            <DistanceMeters>15077.846849389</DistanceMeters>
          </Trackpoint>
          <Trackpoint>
            <Time>2021-08-29T16:56:27.000Z</Time>
            <Position>
              <LatitudeDegrees>-32.98710876144468784332275390625</LatitudeDegrees>
              <LongitudeDegrees>-69.287487454712390899658203125</LongitudeDegrees>
            </Position>
            <AltitudeMeters>1895.199951171875</AltitudeMeters>
            <DistanceMeters>15081.470346477</DistanceMeters>
          </Trackpoint>
          <Trackpoint>
            <Time>2021-08-29T16:56:39.000Z</Time>
            <Position>
              <LatitudeDegrees>-32.98718889243900775909423828125</LatitudeDegrees>
              <LongitudeDegrees>-69.28770236670970916748046875</LongitudeDegrees>
            </Position>
            <AltitudeMeters>1897</AltitudeMeters>
            <DistanceMeters>15103.427481567</DistanceMeters>
          </Trackpoint>
          <Trackpoint>
            <Time>2021-08-29T16:56:41.000Z</Time>
            <Position>
              <LatitudeDegrees>-32.9872054047882556915283203125</LatitudeDegrees>
              <LongitudeDegrees>-69.28773731924593448638916015625</LongitudeDegrees>
            </Position>
            <AltitudeMeters>1897.4000244140625</AltitudeMeters>
            <DistanceMeters>15107.171099955</DistanceMeters>
          </Trackpoint>
          <Trackpoint>
            <Time>2021-08-29T16:56:45.000Z</Time>
            <Position>
              <LatitudeDegrees>-32.98724153079092502593994140625</LatitudeDegrees>
              <LongitudeDegrees>-69.28782516159117221832275390625</LongitudeDegrees>
            </Position>
            <AltitudeMeters>1898.199951171875</AltitudeMeters>
            <DistanceMeters>15116.304546522</DistanceMeters>
          </Trackpoint>
          <Trackpoint>
            <Time>2021-08-29T16:56:48.000Z</Time>
            <Position>
              <LatitudeDegrees>-32.9872634075582027435302734375</LatitudeDegrees>
              <LongitudeDegrees>-69.2878829129040241241455078125</LongitudeDegrees>
            </Position>
            <AltitudeMeters>1898.800048828125</AltitudeMeters>
            <DistanceMeters>15122.220675011</DistanceMeters>
          </Trackpoint>
          <Trackpoint>
            <Time>2021-08-29T16:56:50.000Z</Time>
            <Position>
              <LatitudeDegrees>-32.987280003726482391357421875</LatitudeDegrees>
              <LongitudeDegrees>-69.28791753016412258148193359375</LongitudeDegrees>
            </Position>
            <AltitudeMeters>1899.199951171875</AltitudeMeters>
            <DistanceMeters>15125.944946405</DistanceMeters>
          </Trackpoint>
          <Trackpoint>
            <Time>2021-08-29T16:56:52.000Z</Time>
            <Position>
              <LatitudeDegrees>-32.9873017966747283935546875</LatitudeDegrees>
              <LongitudeDegrees>-69.287952147424221038818359375</LongitudeDegrees>
            </Position>
            <AltitudeMeters>1899.5999755859375</AltitudeMeters>
            <DistanceMeters>15129.985537725</DistanceMeters>
          </Trackpoint>
          <Trackpoint>
            <Time>2021-08-29T16:56:53.000Z</Time>
            <Position>
              <LatitudeDegrees>-32.98731579445302486419677734375</LatitudeDegrees>
              <LongitudeDegrees>-69.2879684083163738250732421875</LongitudeDegrees>
            </Position>
            <AltitudeMeters>1899.5999755859375</AltitudeMeters>
            <DistanceMeters>15132.160798642</DistanceMeters>
          </Trackpoint>
          <Trackpoint>
            <Time>2021-08-29T16:56:54.000Z</Time>
            <Position>
              <LatitudeDegrees>-32.98732853494584560394287109375</LatitudeDegrees>
              <LongitudeDegrees>-69.28798492066562175750732421875</LongitudeDegrees>
            </Position>
            <AltitudeMeters>1899.800048828125</AltitudeMeters>
            <DistanceMeters>15134.255701301</DistanceMeters>
          </Trackpoint>
          <Trackpoint>
            <Time>2021-08-29T16:56:55.000Z</Time>
            <Position>
              <LatitudeDegrees>-32.9873401857912540435791015625</LatitudeDegrees>
              <LongitudeDegrees>-69.288003109395503997802734375</LongitudeDegrees>
            </Position>
            <AltitudeMeters>1900</AltitudeMeters>
            <DistanceMeters>15136.393274383</DistanceMeters>
          </Trackpoint>
          <Trackpoint>
            <Time>2021-08-29T16:56:56.000Z</Time>
            <Position>
              <LatitudeDegrees>-32.9873489029705524444580078125</LatitudeDegrees>
              <LongitudeDegrees>-69.2880208790302276611328125</LongitudeDegrees>
            </Position>
            <AltitudeMeters>1900.199951171875</AltitudeMeters>
            <DistanceMeters>15138.315070747</DistanceMeters>
          </Trackpoint>
          <Trackpoint>
            <Time>2021-08-29T16:56:57.000Z</Time>
            <Position>
              <LatitudeDegrees>-32.9873579554259777069091796875</LatitudeDegrees>
              <LongitudeDegrees>-69.2880396544933319091796875</LongitudeDegrees>
            </Position>
            <AltitudeMeters>1900.4000244140625</AltitudeMeters>
            <DistanceMeters>15140.335366407</DistanceMeters>
          </Trackpoint>
          <Trackpoint>
            <Time>2021-08-29T16:56:58.000Z</Time>
            <Position>
              <LatitudeDegrees>-32.9873680137097835540771484375</LatitudeDegrees>
              <LongitudeDegrees>-69.2880555801093578338623046875</LongitudeDegrees>
            </Position>
            <AltitudeMeters>1900.5999755859375</AltitudeMeters>
            <DistanceMeters>15142.195075868</DistanceMeters>
          </Trackpoint>
          <Trackpoint>
            <Time>2021-08-29T16:57:00.000Z</Time>
            <Position>
              <LatitudeDegrees>-32.98738561570644378662109375</LatitudeDegrees>
              <LongitudeDegrees>-69.28808332420885562896728515625</LongitudeDegrees>
            </Position>
            <AltitudeMeters>1900.800048828125</AltitudeMeters>
            <DistanceMeters>15145.442710281</DistanceMeters>
          </Trackpoint>
          <Trackpoint>
            <Time>2021-08-29T16:57:03.000Z</Time>
            <Position>
              <LatitudeDegrees>-32.9874246753752231597900390625</LatitudeDegrees>
              <LongitudeDegrees>-69.28812791593372821807861328125</LongitudeDegrees>
            </Position>
            <AltitudeMeters>1901.4000244140625</AltitudeMeters>
            <DistanceMeters>15151.461735675</DistanceMeters>
          </Trackpoint>
          <Trackpoint>
            <Time>2021-08-29T16:57:09.000Z</Time>
            <Position>
              <LatitudeDegrees>-32.98749424517154693603515625</LatitudeDegrees>
              <LongitudeDegrees>-69.28821844048798084259033203125</LongitudeDegrees>
            </Position>
            <AltitudeMeters>1902.199951171875</AltitudeMeters>
            <DistanceMeters>15162.923785326</DistanceMeters>
          </Trackpoint>
          <Trackpoint>
            <Time>2021-08-29T16:57:12.000Z</Time>
            <Position>
              <LatitudeDegrees>-32.98752316273748874664306640625</LatitudeDegrees>
              <LongitudeDegrees>-69.28825892508029937744140625</LongitudeDegrees>
            </Position>
            <AltitudeMeters>1902.5999755859375</AltitudeMeters>
            <DistanceMeters>15167.887964877</DistanceMeters>
          </Trackpoint>
          <Trackpoint>
            <Time>2021-08-29T16:57:21.000Z</Time>
            <Position>
              <LatitudeDegrees>-32.987597174942493438720703125</LatitudeDegrees>
              <LongitudeDegrees>-69.28840602748095989227294921875</LongitudeDegrees>
            </Position>
            <AltitudeMeters>1904.199951171875</AltitudeMeters>
            <DistanceMeters>15183.902151431</DistanceMeters>
          </Trackpoint>
          <Trackpoint>
            <Time>2021-08-29T16:57:25.000Z</Time>
            <Position>
              <LatitudeDegrees>-32.9876312054693698883056640625</LatitudeDegrees>
              <LongitudeDegrees>-69.2884746752679347991943359375</LongitudeDegrees>
            </Position>
            <AltitudeMeters>1905</AltitudeMeters>
            <DistanceMeters>15191.347056348</DistanceMeters>
          </Trackpoint>
          <Trackpoint>
            <Time>2021-08-29T16:57:26.000Z</Time>
            <Position>
              <LatitudeDegrees>-32.98763749189674854278564453125</LatitudeDegrees>
              <LongitudeDegrees>-69.2884929478168487548828125</LongitudeDegrees>
            </Position>
            <AltitudeMeters>1905.199951171875</AltitudeMeters>
            <DistanceMeters>15193.192141392</DistanceMeters>
          </Trackpoint>
          <Trackpoint>
            <Time>2021-08-29T16:57:39.000Z</Time>
            <Position>
              <LatitudeDegrees>-32.987702786922454833984375</LatitudeDegrees>
              <LongitudeDegrees>-69.28870576433837413787841796875</LongitudeDegrees>
            </Position>
            <AltitudeMeters>1907.4000244140625</AltitudeMeters>
            <DistanceMeters>15214.347913863</DistanceMeters>
          </Trackpoint>
          <Trackpoint>
            <Time>2021-08-29T16:57:44.000Z</Time>
            <Position>
              <LatitudeDegrees>-32.98773229122161865234375</LatitudeDegrees>
              <LongitudeDegrees>-69.2887878231704235076904296875</LongitudeDegrees>
            </Position>
            <AltitudeMeters>1907.800048828125</AltitudeMeters>
            <DistanceMeters>15222.682683091</DistanceMeters>
          </Trackpoint>
          <Trackpoint>
            <Time>2021-08-29T16:57:46.000Z</Time>
            <Position>
              <LatitudeDegrees>-32.9877441935241222381591796875</LatitudeDegrees>
              <LongitudeDegrees>-69.288820512592792510986328125</LongitudeDegrees>
            </Position>
            <AltitudeMeters>1908</AltitudeMeters>
            <DistanceMeters>15226.008618094</DistanceMeters>
          </Trackpoint>
          <Trackpoint>
            <Time>2021-08-29T16:57:49.000Z</Time>
            <Position>
              <LatitudeDegrees>-32.987763471901416778564453125</LatitudeDegrees>
              <LongitudeDegrees>-69.2888711392879486083984375</LongitudeDegrees>
            </Position>
            <AltitudeMeters>1908.4000244140625</AltitudeMeters>
            <DistanceMeters>15231.199547501</DistanceMeters>
          </Trackpoint>
          <Trackpoint>
            <Time>2021-08-29T16:57:53.000Z</Time>
            <Position>
              <LatitudeDegrees>-32.98778903670608997344970703125</LatitudeDegrees>
              <LongitudeDegrees>-69.288935177028179168701171875</LongitudeDegrees>
            </Position>
            <AltitudeMeters>1909</AltitudeMeters>
            <DistanceMeters>15237.820802755</DistanceMeters>
          </Trackpoint>
          <Trackpoint>
            <Time>2021-08-29T16:57:56.000Z</Time>
            <Position>
              <LatitudeDegrees>-32.98780412413179874420166015625</LatitudeDegrees>
              <LongitudeDegrees>-69.28897566162049770355224609375</LongitudeDegrees>
            </Position>
            <AltitudeMeters>1909.199951171875</AltitudeMeters>
            <DistanceMeters>15241.956375845</DistanceMeters>
          </Trackpoint>
          <Trackpoint>
            <Time>2021-08-29T16:58:06.000Z</Time>
            <Position>
              <LatitudeDegrees>-32.9878779686987400054931640625</LatitudeDegrees>
              <LongitudeDegrees>-69.28913005627691745758056640625</LongitudeDegrees>
            </Position>
            <AltitudeMeters>1910.4000244140625</AltitudeMeters>
            <DistanceMeters>15258.548812997</DistanceMeters>
          </Trackpoint>
          <Trackpoint>
            <Time>2021-08-29T16:58:19.000Z</Time>
            <Position>
              <LatitudeDegrees>-32.9879634641110897064208984375</LatitudeDegrees>
              <LongitudeDegrees>-69.2893292941153049468994140625</LongitudeDegrees>
            </Position>
            <AltitudeMeters>1911.800048828125</AltitudeMeters>
            <DistanceMeters>15279.442160154</DistanceMeters>
          </Trackpoint>
          <Trackpoint>
            <Time>2021-08-29T16:58:28.000Z</Time>
            <Position>
              <LatitudeDegrees>-32.9880553297698497772216796875</LatitudeDegrees>
              <LongitudeDegrees>-69.28946047089993953704833984375</LongitudeDegrees>
            </Position>
            <AltitudeMeters>1912.5999755859375</AltitudeMeters>
            <DistanceMeters>15295.39589748</DistanceMeters>
          </Trackpoint>
          <Trackpoint>
            <Time>2021-08-29T16:58:41.000Z</Time>
            <Position>
              <LatitudeDegrees>-32.98812112770974636077880859375</LatitudeDegrees>
              <LongitudeDegrees>-69.289670772850513458251953125</LongitudeDegrees>
            </Position>
            <AltitudeMeters>1914.199951171875</AltitudeMeters>
            <DistanceMeters>15316.350957902</DistanceMeters>
          </Trackpoint>
          <Trackpoint>
            <Time>2021-08-29T16:58:55.000Z</Time>
            <Position>
              <LatitudeDegrees>-32.98817695118486881256103515625</LatitudeDegrees>
              <LongitudeDegrees>-69.2899172008037567138671875</LongitudeDegrees>
            </Position>
            <AltitudeMeters>1916</AltitudeMeters>
            <DistanceMeters>15340.181452599</DistanceMeters>
          </Trackpoint>
          <Trackpoint>
            <Time>2021-08-29T16:59:09.000Z</Time>
            <Position>
              <LatitudeDegrees>-32.9882152564823627471923828125</LatitudeDegrees>
              <LongitudeDegrees>-69.2901456914842128753662109375</LongitudeDegrees>
            </Position>
            <AltitudeMeters>1917.800048828125</AltitudeMeters>
            <DistanceMeters>15361.934892005</DistanceMeters>
          </Trackpoint>
          <Trackpoint>
            <Time>2021-08-29T16:59:21.000Z</Time>
            <Position>
              <LatitudeDegrees>-32.98824350349605083465576171875</LatitudeDegrees>
              <LongitudeDegrees>-69.29034275002777576446533203125</LongitudeDegrees>
            </Position>
            <AltitudeMeters>1919.5999755859375</AltitudeMeters>
            <DistanceMeters>15380.598874133</DistanceMeters>
          </Trackpoint>
          <Trackpoint>
            <Time>2021-08-29T16:59:31.000Z</Time>
            <Position>
              <LatitudeDegrees>-32.9882581718266010284423828125</LatitudeDegrees>
              <LongitudeDegrees>-69.29049915634095668792724609375</LongitudeDegrees>
            </Position>
            <AltitudeMeters>1921.199951171875</AltitudeMeters>
            <DistanceMeters>15395.291491581</DistanceMeters>
          </Trackpoint>
          <Trackpoint>
            <Time>2021-08-29T16:59:40.000Z</Time>
            <Position>
              <LatitudeDegrees>-32.9882792942225933074951171875</LatitudeDegrees>
              <LongitudeDegrees>-69.29066947661340236663818359375</LongitudeDegrees>
            </Position>
            <AltitudeMeters>1922.800048828125</AltitudeMeters>
            <DistanceMeters>15411.365057369</DistanceMeters>
          </Trackpoint>
          <Trackpoint>
            <Time>2021-08-29T16:59:45.000Z</Time>
            <Position>
              <LatitudeDegrees>-32.9882863350212574005126953125</LatitudeDegrees>
              <LongitudeDegrees>-69.2907607555389404296875</LongitudeDegrees>
            </Position>
            <AltitudeMeters>1923.800048828125</AltitudeMeters>
            <DistanceMeters>15419.922739296</DistanceMeters>
          </Trackpoint>
          <Trackpoint>
            <Time>2021-08-29T16:59:59.000Z</Time>
            <Position>
              <LatitudeDegrees>-32.9882950522005558013916015625</LatitudeDegrees>
              <LongitudeDegrees>-69.2910006456077098846435546875</LongitudeDegrees>
            </Position>
            <AltitudeMeters>1926.4000244140625</AltitudeMeters>
            <DistanceMeters>15442.339378071</DistanceMeters>
          </Trackpoint>
          <Trackpoint>
            <Time>2021-08-29T17:00:13.000Z</Time>
            <Position>
              <LatitudeDegrees>-32.98831156454980373382568359375</LatitudeDegrees>
              <LongitudeDegrees>-69.29123491980135440826416015625</LongitudeDegrees>
            </Position>
            <AltitudeMeters>1928.4000244140625</AltitudeMeters>
            <DistanceMeters>15464.287875015</DistanceMeters>
          </Trackpoint>
          <Trackpoint>
            <Time>2021-08-29T17:00:23.000Z</Time>
            <Position>
              <LatitudeDegrees>-32.98831324093043804168701171875</LatitudeDegrees>
              <LongitudeDegrees>-69.29139576852321624755859375</LongitudeDegrees>
            </Position>
            <AltitudeMeters>1930</AltitudeMeters>
            <DistanceMeters>15479.305704062</DistanceMeters>
          </Trackpoint>
          <Trackpoint>
            <Time>2021-08-29T17:00:25.000Z</Time>
            <Position>
              <LatitudeDegrees>-32.98831240274012088775634765625</LatitudeDegrees>
              <LongitudeDegrees>-69.29139702580869197845458984375</LongitudeDegrees>
            </Position>
            <AltitudeMeters>1930</AltitudeMeters>
            <DistanceMeters>15479.44009213</DistanceMeters>
          </Trackpoint>
          <Trackpoint>
            <Time>2021-08-29T17:00:33.000Z</Time>
            <Position>
              <LatitudeDegrees>-32.9883076250553131103515625</LatitudeDegrees>
              <LongitudeDegrees>-69.291420243680477142333984375</LongitudeDegrees>
            </Position>
            <AltitudeMeters>1930.199951171875</AltitudeMeters>
            <DistanceMeters>15481.672714399</DistanceMeters>
          </Trackpoint>
          <Trackpoint>
            <Time>2021-08-29T17:00:44.000Z</Time>
            <Position>
              <LatitudeDegrees>-32.9883165098726749420166015625</LatitudeDegrees>
              <LongitudeDegrees>-69.2915166355669498443603515625</LongitudeDegrees>
            </Position>
            <AltitudeMeters>1931.199951171875</AltitudeMeters>
            <DistanceMeters>15490.725723501</DistanceMeters>
          </Trackpoint>
          <Trackpoint>
            <Time>2021-08-29T17:00:53.000Z</Time>
            <Position>
              <LatitudeDegrees>-32.988320700824260711669921875</LatitudeDegrees>
              <LongitudeDegrees>-69.29159048013389110565185546875</LongitudeDegrees>
            </Position>
            <AltitudeMeters>1931.800048828125</AltitudeMeters>
            <DistanceMeters>15497.634629644</DistanceMeters>
          </Trackpoint>
          <Trackpoint>
            <Time>2021-08-29T17:01:05.000Z</Time>
            <Position>
              <LatitudeDegrees>-32.98832749016582965850830078125</LatitudeDegrees>
              <LongitudeDegrees>-69.29166994057595729827880859375</LongitudeDegrees>
            </Position>
            <AltitudeMeters>1932.5999755859375</AltitudeMeters>
            <DistanceMeters>15505.091653899</DistanceMeters>
          </Trackpoint>
          <Trackpoint>
            <Time>2021-08-29T17:01:12.000Z</Time>
            <Position>
              <LatitudeDegrees>-32.98832681961357593536376953125</LatitudeDegrees>
              <LongitudeDegrees>-69.291695170104503631591796875</LongitudeDegrees>
            </Position>
            <AltitudeMeters>1932.800048828125</AltitudeMeters>
            <DistanceMeters>15507.446323076</DistanceMeters>
          </Trackpoint>
          <Trackpoint>
            <Time>2021-08-29T17:01:14.000Z</Time>
            <Position>
              <LatitudeDegrees>-32.98832464031875133514404296875</LatitudeDegrees>
              <LongitudeDegrees>-69.2917201481759548187255859375</LongitudeDegrees>
            </Position>
            <AltitudeMeters>1933</AltitudeMeters>
            <DistanceMeters>15509.789459111</DistanceMeters>
          </Trackpoint>
          <Trackpoint>
            <Time>2021-08-29T17:01:19.000Z</Time>
            <Position>
              <LatitudeDegrees>-32.98832707107067108154296875</LatitudeDegrees>
              <LongitudeDegrees>-69.29179944097995758056640625</LongitudeDegrees>
            </Position>
            <AltitudeMeters>1933.800048828125</AltitudeMeters>
            <DistanceMeters>15517.196668064</DistanceMeters>
          </Trackpoint>
          <Trackpoint>
            <Time>2021-08-29T17:01:29.000Z</Time>
            <Position>
              <LatitudeDegrees>-32.98831860534846782684326171875</LatitudeDegrees>
              <LongitudeDegrees>-69.29195811040699481964111328125</LongitudeDegrees>
            </Position>
            <AltitudeMeters>1935.4000244140625</AltitudeMeters>
            <DistanceMeters>15532.039707008</DistanceMeters>
          </Trackpoint>
          <Trackpoint>
            <Time>2021-08-29T17:01:38.000Z</Time>
            <Position>
              <LatitudeDegrees>-32.98832866363227367401123046875</LatitudeDegrees>
              <LongitudeDegrees>-69.29216061718761920928955078125</LongitudeDegrees>
            </Position>
            <AltitudeMeters>1937.5999755859375</AltitudeMeters>
            <DistanceMeters>15550.978414365</DistanceMeters>
          </Trackpoint>
          <Trackpoint>
            <Time>2021-08-29T17:01:40.000Z</Time>
            <Position>
              <LatitudeDegrees>-32.98833788372576236724853515625</LatitudeDegrees>
              <LongitudeDegrees>-69.292197413742542266845703125</LongitudeDegrees>
            </Position>
            <AltitudeMeters>1937.800048828125</AltitudeMeters>
            <DistanceMeters>15554.564335287</DistanceMeters>
          </Trackpoint>
          <Trackpoint>
            <Time>2021-08-29T17:01:45.000Z</Time>
            <Position>
              <LatitudeDegrees>-32.988416589796543121337890625</LatitudeDegrees>
              <LongitudeDegrees>-69.29225533269345760345458984375</LongitudeDegrees>
            </Position>
            <AltitudeMeters>1938.199951171875</AltitudeMeters>
            <DistanceMeters>15564.858847278</DistanceMeters>
          </Trackpoint>
          <Trackpoint>
            <Time>2021-08-29T17:01:53.000Z</Time>
            <Position>
              <LatitudeDegrees>-32.98857844434678554534912109375</LatitudeDegrees>
              <LongitudeDegrees>-69.2922451905906200408935546875</LongitudeDegrees>
            </Position>
            <AltitudeMeters>1937.199951171875</AltitudeMeters>
            <DistanceMeters>15582.898411987</DistanceMeters>
          </Trackpoint>
          <Trackpoint>
            <Time>2021-08-29T17:02:02.000Z</Time>
            <Position>
              <LatitudeDegrees>-32.9887339286506175994873046875</LatitudeDegrees>
              <LongitudeDegrees>-69.29221476428210735321044921875</LongitudeDegrees>
            </Position>
            <AltitudeMeters>1936</AltitudeMeters>
            <DistanceMeters>15600.435926169</DistanceMeters>
          </Trackpoint>
          <Trackpoint>
            <Time>2021-08-29T17:02:10.000Z</Time>
            <Position>
              <LatitudeDegrees>-32.9888546280562877655029296875</LatitudeDegrees>
              <LongitudeDegrees>-69.2922606132924556732177734375</LongitudeDegrees>
            </Position>
            <AltitudeMeters>1936</AltitudeMeters>
            <DistanceMeters>15614.535469882</DistanceMeters>
          </Trackpoint>
          <Trackpoint>
            <Time>2021-08-29T17:02:22.000Z</Time>
            <Position>
              <LatitudeDegrees>-32.98902302049100399017333984375</LatitudeDegrees>
              <LongitudeDegrees>-69.2923819832503795623779296875</LongitudeDegrees>
            </Position>
            <AltitudeMeters>1936.4000244140625</AltitudeMeters>
            <DistanceMeters>15636.436602285</DistanceMeters>
          </Trackpoint>
          <Trackpoint>
            <Time>2021-08-29T17:02:32.000Z</Time>
            <Position>
              <LatitudeDegrees>-32.9892073385417461395263671875</LatitudeDegrees>
              <LongitudeDegrees>-69.2925264872610569000244140625</LongitudeDegrees>
            </Position>
            <AltitudeMeters>1937</AltitudeMeters>
            <DistanceMeters>15660.989563479</DistanceMeters>
          </Trackpoint>
          <Trackpoint>
            <Time>2021-08-29T17:02:40.000Z</Time>
            <Position>
              <LatitudeDegrees>-32.9893562011420726776123046875</LatitudeDegrees>
              <LongitudeDegrees>-69.2926181852817535400390625</LongitudeDegrees>
            </Position>
            <AltitudeMeters>1937.4000244140625</AltitudeMeters>
            <DistanceMeters>15679.63902525</DistanceMeters>
          </Trackpoint>
          <Trackpoint>
            <Time>2021-08-29T17:02:43.000Z</Time>
            <Position>
              <LatitudeDegrees>-32.989400960505008697509765625</LatitudeDegrees>
              <LongitudeDegrees>-69.2926465161144733428955078125</LongitudeDegrees>
            </Position>
            <AltitudeMeters>1937.4000244140625</AltitudeMeters>
            <DistanceMeters>15685.279323053</DistanceMeters>
          </Trackpoint>
          <Trackpoint>
            <Time>2021-08-29T17:02:46.000Z</Time>
            <Position>
              <LatitudeDegrees>-32.9894500784575939178466796875</LatitudeDegrees>
              <LongitudeDegrees>-69.29267845116555690765380859375</LongitudeDegrees>
            </Position>
            <AltitudeMeters>1937.5999755859375</AltitudeMeters>
            <DistanceMeters>15691.506292481</DistanceMeters>
          </Trackpoint>
          <Trackpoint>
            <Time>2021-08-29T17:02:49.000Z</Time>
            <Position>
              <LatitudeDegrees>-32.9894946701824665069580078125</LatitudeDegrees>
              <LongitudeDegrees>-69.29271013475954532623291015625</LongitudeDegrees>
            </Position>
            <AltitudeMeters>1937.800048828125</AltitudeMeters>
            <DistanceMeters>15697.284979415</DistanceMeters>
          </Trackpoint>
          <Trackpoint>
            <Time>2021-08-29T17:02:50.000Z</Time>
            <Position>
              <LatitudeDegrees>-32.9895084165036678314208984375</LatitudeDegrees>
              <LongitudeDegrees>-69.29272086359560489654541015625</LongitudeDegrees>
            </Position>
            <AltitudeMeters>1937.800048828125</AltitudeMeters>
            <DistanceMeters>15699.115323197</DistanceMeters>
          </Trackpoint>
          <Trackpoint>
            <Time>2021-08-29T17:02:54.000Z</Time>
            <Position>
              <LatitudeDegrees>-32.98955409787595272064208984375</LatitudeDegrees>
              <LongitudeDegrees>-69.29277953691780567169189453125</LongitudeDegrees>
            </Position>
            <AltitudeMeters>1938.4000244140625</AltitudeMeters>
            <DistanceMeters>15706.588677384</DistanceMeters>
          </Trackpoint>
          <Trackpoint>
            <Time>2021-08-29T17:02:58.000Z</Time>
            <Position>
              <LatitudeDegrees>-32.98957237042486667633056640625</LatitudeDegrees>
              <LongitudeDegrees>-69.2928540520370006561279296875</LongitudeDegrees>
            </Position>
            <AltitudeMeters>1939</AltitudeMeters>
            <DistanceMeters>15713.836917499</DistanceMeters>
          </Trackpoint>
          <Trackpoint>
            <Time>2021-08-29T17:03:02.000Z</Time>
            <Position>
              <LatitudeDegrees>-32.98958376981317996978759765625</LatitudeDegrees>
              <LongitudeDegrees>-69.29293535649776458740234375</LongitudeDegrees>
            </Position>
            <AltitudeMeters>1939.800048828125</AltitudeMeters>
            <DistanceMeters>15721.532321407</DistanceMeters>
          </Trackpoint>
          <Trackpoint>
            <Time>2021-08-29T17:03:08.000Z</Time>
            <Position>
              <LatitudeDegrees>-32.98959986306726932525634765625</LatitudeDegrees>
              <LongitudeDegrees>-69.29308287799358367919921875</LongitudeDegrees>
            </Position>
            <AltitudeMeters>1941</AltitudeMeters>
            <DistanceMeters>15735.420533418</DistanceMeters>
          </Trackpoint>
          <Trackpoint>
            <Time>2021-08-29T17:03:19.000Z</Time>
            <Position>
              <LatitudeDegrees>-32.98967219889163970947265625</LatitudeDegrees>
              <LongitudeDegrees>-69.2932932637631893157958984375</LongitudeDegrees>
            </Position>
            <AltitudeMeters>1942.800048828125</AltitudeMeters>
            <DistanceMeters>15756.647468062</DistanceMeters>
          </Trackpoint>
          <Trackpoint>
            <Time>2021-08-29T17:03:30.000Z</Time>
            <Position>
              <LatitudeDegrees>-32.989801280200481414794921875</LatitudeDegrees>
              <LongitudeDegrees>-69.29346031509339809417724609375</LongitudeDegrees>
            </Position>
            <AltitudeMeters>1944</AltitudeMeters>
            <DistanceMeters>15777.851844174</DistanceMeters>
          </Trackpoint>
          <Trackpoint>
            <Time>2021-08-29T17:03:38.000Z</Time>
            <Position>
              <LatitudeDegrees>-32.9899456165730953216552734375</LatitudeDegrees>
              <LongitudeDegrees>-69.29351831786334514617919921875</LongitudeDegrees>
            </Position>
            <AltitudeMeters>1943.5999755859375</AltitudeMeters>
            <DistanceMeters>15794.804993529</DistanceMeters>
          </Trackpoint>
          <Trackpoint>
            <Time>2021-08-29T17:03:45.000Z</Time>
            <Position>
              <LatitudeDegrees>-32.99007360823452472686767578125</LatitudeDegrees>
              <LongitudeDegrees>-69.2934719659388065338134765625</LongitudeDegrees>
            </Position>
            <AltitudeMeters>1942.5999755859375</AltitudeMeters>
            <DistanceMeters>15809.693287134</DistanceMeters>
          </Trackpoint>
          <Trackpoint>
            <Time>2021-08-29T17:03:46.000Z</Time>
            <Position>
              <LatitudeDegrees>-32.9900881089270114898681640625</LatitudeDegrees>
              <LongitudeDegrees>-69.29345897398889064788818359375</LongitudeDegrees>
            </Position>
            <AltitudeMeters>1942.4000244140625</AltitudeMeters>
            <DistanceMeters>15811.713582794</DistanceMeters>
          </Trackpoint>
          <Trackpoint>
            <Time>2021-08-29T17:03:56.000Z</Time>
            <Position>
              <LatitudeDegrees>-32.99024560488760471343994140625</LatitudeDegrees>
              <LongitudeDegrees>-69.293323270976543426513671875</LongitudeDegrees>
            </Position>
            <AltitudeMeters>1942</AltitudeMeters>
            <DistanceMeters>15833.341713087</DistanceMeters>
          </Trackpoint>
          <Trackpoint>
            <Time>2021-08-29T17:03:58.000Z</Time>
            <Position>
              <LatitudeDegrees>-32.99027569591999053955078125</LatitudeDegrees>
              <LongitudeDegrees>-69.2932905815541744232177734375</LongitudeDegrees>
            </Position>
            <AltitudeMeters>1941.800048828125</AltitudeMeters>
            <DistanceMeters>15837.873202227</DistanceMeters>
          </Trackpoint>
          <Trackpoint>
            <Time>2021-08-29T17:04:06.000Z</Time>
            <Position>
              <LatitudeDegrees>-32.99043796956539154052734375</LatitudeDegrees>
              <LongitudeDegrees>-69.2931330017745494842529296875</LongitudeDegrees>
            </Position>
            <AltitudeMeters>1941.4000244140625</AltitudeMeters>
            <DistanceMeters>15861.167737073</DistanceMeters>
          </Trackpoint>
          <Trackpoint>
            <Time>2021-08-29T17:04:10.000Z</Time>
            <Position>
              <LatitudeDegrees>-32.990519441664218902587890625</LatitudeDegrees>
              <LongitudeDegrees>-69.29309503175318241119384765625</LongitudeDegrees>
            </Position>
            <AltitudeMeters>1941.4000244140625</AltitudeMeters>
            <DistanceMeters>15870.904150299</DistanceMeters>
          </Trackpoint>
          <Trackpoint>
            <Time>2021-08-29T17:04:13.000Z</Time>
            <Position>
              <LatitudeDegrees>-32.99057132564485073089599609375</LatitudeDegrees>
              <LongitudeDegrees>-69.2930723167955875396728515625</LongitudeDegrees>
            </Position>
            <AltitudeMeters>1941.5999755859375</AltitudeMeters>
            <DistanceMeters>15877.05598339</DistanceMeters>
          </Trackpoint>
          <Trackpoint>
            <Time>2021-08-29T17:04:21.000Z</Time>
            <Position>
              <LatitudeDegrees>-32.99069973640143871307373046875</LatitudeDegrees>
              <LongitudeDegrees>-69.29304691962897777557373046875</LongitudeDegrees>
            </Position>
            <AltitudeMeters>1942</AltitudeMeters>
            <DistanceMeters>15891.544363458</DistanceMeters>
          </Trackpoint>
          <Trackpoint>
            <Time>2021-08-29T17:04:27.000Z</Time>
            <Position>
              <LatitudeDegrees>-32.9907752573490142822265625</LatitudeDegrees>
              <LongitudeDegrees>-69.29308815859258174896240234375</LongitudeDegrees>
            </Position>
            <AltitudeMeters>1943</AltitudeMeters>
            <DistanceMeters>15900.789832815</DistanceMeters>
          </Trackpoint>
          <Trackpoint>
            <Time>2021-08-29T17:04:29.000Z</Time>
            <Position>
              <LatitudeDegrees>-32.99079847522079944610595703125</LatitudeDegrees>
              <LongitudeDegrees>-69.29310978390276432037353515625</LongitudeDegrees>
            </Position>
            <AltitudeMeters>1943.199951171875</AltitudeMeters>
            <DistanceMeters>15904.069287197</DistanceMeters>
          </Trackpoint>
          <Trackpoint>
            <Time>2021-08-29T17:04:38.000Z</Time>
            <Position>
              <LatitudeDegrees>-32.990876846015453338623046875</LatitudeDegrees>
              <LongitudeDegrees>-69.29322897456586360931396484375</LongitudeDegrees>
            </Position>
            <AltitudeMeters>1945</AltitudeMeters>
            <DistanceMeters>15918.207844487</DistanceMeters>
          </Trackpoint>
          <Trackpoint>
            <Time>2021-08-29T17:04:42.000Z</Time>
            <Position>
              <LatitudeDegrees>-32.99090593121945858001708984375</LatitudeDegrees>
              <LongitudeDegrees>-69.29329116828739643096923828125</LongitudeDegrees>
            </Position>
            <AltitudeMeters>1945.5999755859375</AltitudeMeters>
            <DistanceMeters>15924.855640672</DistanceMeters>
          </Trackpoint>
          <Trackpoint>
            <Time>2021-08-29T17:04:45.000Z</Time>
            <Position>
              <LatitudeDegrees>-32.9909241199493408203125</LatitudeDegrees>
              <LongitudeDegrees>-69.29333374835550785064697265625</LongitudeDegrees>
            </Position>
            <AltitudeMeters>1946.199951171875</AltitudeMeters>
            <DistanceMeters>15929.316838771</DistanceMeters>
          </Trackpoint>
          <Trackpoint>
            <Time>2021-08-29T17:04:50.000Z</Time>
            <Position>
              <LatitudeDegrees>-32.990941889584064483642578125</LatitudeDegrees>
              <LongitudeDegrees>-69.2933998815715312957763671875</LongitudeDegrees>
            </Position>
            <AltitudeMeters>1947</AltitudeMeters>
            <DistanceMeters>15935.799583234</DistanceMeters>
          </Trackpoint>
          <Trackpoint>
            <Time>2021-08-29T17:04:52.000Z</Time>
            <Position>
              <LatitudeDegrees>-32.9909447394311428070068359375</LatitudeDegrees>
              <LongitudeDegrees>-69.29342997260391712188720703125</LongitudeDegrees>
            </Position>
            <AltitudeMeters>1947.199951171875</AltitudeMeters>
            <DistanceMeters>15938.624930571</DistanceMeters>
          </Trackpoint>
          <Trackpoint>
            <Time>2021-08-29T17:05:02.000Z</Time>
            <Position>
              <LatitudeDegrees>-32.9910151474177837371826171875</LatitudeDegrees>
              <LongitudeDegrees>-69.29356039501726627349853515625</LongitudeDegrees>
            </Position>
            <AltitudeMeters>1949</AltitudeMeters>
            <DistanceMeters>15953.103958671</DistanceMeters>
          </Trackpoint>
          <Trackpoint>
            <Time>2021-08-29T17:05:09.000Z</Time>
            <Position>
              <LatitudeDegrees>-32.9910999722778797149658203125</LatitudeDegrees>
              <LongitudeDegrees>-69.2935970239341259002685546875</LongitudeDegrees>
            </Position>
            <AltitudeMeters>1949.800048828125</AltitudeMeters>
            <DistanceMeters>15963.144914975</DistanceMeters>
          </Trackpoint>
          <Trackpoint>
            <Time>2021-08-29T17:05:10.000Z</Time>
            <Position>
              <LatitudeDegrees>-32.991115562617778778076171875</LatitudeDegrees>
              <LongitudeDegrees>-69.2935990355908870697021484375</LongitudeDegrees>
            </Position>
            <AltitudeMeters>1949.800048828125</AltitudeMeters>
            <DistanceMeters>15964.889373562</DistanceMeters>
          </Trackpoint>
          <Trackpoint>
            <Time>2021-08-29T17:05:20.000Z</Time>
            <Position>
              <LatitudeDegrees>-32.9912511818110942840576171875</LatitudeDegrees>
              <LongitudeDegrees>-69.2936416156589984893798828125</LongitudeDegrees>
            </Position>
            <AltitudeMeters>1951.199951171875</AltitudeMeters>
            <DistanceMeters>15980.498650375</DistanceMeters>
          </Trackpoint>
          <Trackpoint>
            <Time>2021-08-29T17:05:22.000Z</Time>
            <Position>
              <LatitudeDegrees>-32.99127724952995777130126953125</LatitudeDegrees>
              <LongitudeDegrees>-69.293655864894390106201171875</LongitudeDegrees>
            </Position>
            <AltitudeMeters>1951.4000244140625</AltitudeMeters>
            <DistanceMeters>15983.690190164</DistanceMeters>
          </Trackpoint>
          <Trackpoint>
            <Time>2021-08-29T17:05:32.000Z</Time>
            <Position>
              <LatitudeDegrees>-32.99139476381242275238037109375</LatitudeDegrees>
              <LongitudeDegrees>-69.2937648296356201171875</LongitudeDegrees>
            </Position>
            <AltitudeMeters>1953.4000244140625</AltitudeMeters>
            <DistanceMeters>16000.259753955</DistanceMeters>
          </Trackpoint>
          <Trackpoint>
            <Time>2021-08-29T17:05:40.000Z</Time>
            <Position>
              <LatitudeDegrees>-32.991449832916259765625</LatitudeDegrees>
              <LongitudeDegrees>-69.293820150196552276611328125</LongitudeDegrees>
            </Position>
            <AltitudeMeters>1954.199951171875</AltitudeMeters>
            <DistanceMeters>16008.274737662</DistanceMeters>
          </Trackpoint>
          <Trackpoint>
            <Time>2021-08-29T17:05:49.000Z</Time>
            <Position>
              <LatitudeDegrees>-32.991483695805072784423828125</LatitudeDegrees>
              <LongitudeDegrees>-69.293847642838954925537109375</LongitudeDegrees>
            </Position>
            <AltitudeMeters>1954.800048828125</AltitudeMeters>
            <DistanceMeters>16012.836019952</DistanceMeters>
          </Trackpoint>
          <Trackpoint>
            <Time>2021-08-29T17:05:54.000Z</Time>
            <Position>
              <LatitudeDegrees>-32.99151194281876087188720703125</LatitudeDegrees>
              <LongitudeDegrees>-69.29386063478887081146240234375</LongitudeDegrees>
            </Position>
            <AltitudeMeters>1955</AltitudeMeters>
            <DistanceMeters>16016.206455556</DistanceMeters>
          </Trackpoint>
          <Trackpoint>
            <Time>2021-08-29T17:05:56.000Z</Time>
            <Position>
              <LatitudeDegrees>-32.99152049235999584197998046875</LatitudeDegrees>
              <LongitudeDegrees>-69.29386700503528118133544921875</LongitudeDegrees>
            </Position>
            <AltitudeMeters>1955.199951171875</AltitudeMeters>
            <DistanceMeters>16017.322766691</DistanceMeters>
          </Trackpoint>
          <Trackpoint>
            <Time>2021-08-29T17:06:03.000Z</Time>
            <Position>
              <LatitudeDegrees>-32.9915450513362884521484375</LatitudeDegrees>
              <LongitudeDegrees>-69.2938833497464656829833984375</LongitudeDegrees>
            </Position>
            <AltitudeMeters>1955.4000244140625</AltitudeMeters>
            <DistanceMeters>16020.451440989</DistanceMeters>
          </Trackpoint>
          <Trackpoint>
            <Time>2021-08-29T17:06:12.000Z</Time>
            <Position>
              <LatitudeDegrees>-32.99154714681208133697509765625</LatitudeDegrees>
              <LongitudeDegrees>-69.293883182108402252197265625</LongitudeDegrees>
            </Position>
            <AltitudeMeters>1955.5999755859375</AltitudeMeters>
            <DistanceMeters>16020.684207951</DistanceMeters>
          </Trackpoint>
          <Trackpoint>
            <Time>2021-08-29T17:06:16.000Z</Time>
            <Position>
              <LatitudeDegrees>-32.99154714681208133697509765625</LatitudeDegrees>
              <LongitudeDegrees>-69.293883182108402252197265625</LongitudeDegrees>
            </Position>
            <AltitudeMeters>1955.5999755859375</AltitudeMeters>
            <DistanceMeters>16020.684207951</DistanceMeters>
          </Trackpoint>
          <Trackpoint>
            <Time>2021-08-29T17:06:33.000Z</Time>
            <Position>
              <LatitudeDegrees>-32.99153775908052921295166015625</LatitudeDegrees>
              <LongitudeDegrees>-69.29388376884162425994873046875</LongitudeDegrees>
            </Position>
            <AltitudeMeters>1955.4000244140625</AltitudeMeters>
            <DistanceMeters>16021.725173452</DistanceMeters>
          </Trackpoint>
          <Trackpoint>
            <Time>2021-08-29T17:06:35.000Z</Time>
            <Position>
              <LatitudeDegrees>-32.99153625033795833587646484375</LatitudeDegrees>
              <LongitudeDegrees>-69.29388376884162425994873046875</LongitudeDegrees>
            </Position>
            <AltitudeMeters>1955.4000244140625</AltitudeMeters>
            <DistanceMeters>16021.915226881</DistanceMeters>
          </Trackpoint>
          <Trackpoint>
            <Time>2021-08-29T17:06:38.000Z</Time>
            <Position>
              <LatitudeDegrees>-32.99153474159538745880126953125</LatitudeDegrees>
              <LongitudeDegrees>-69.293883852660655975341796875</LongitudeDegrees>
            </Position>
            <AltitudeMeters>1955.4000244140625</AltitudeMeters>
            <DistanceMeters>16022.079817978</DistanceMeters>
          </Trackpoint>
          <Trackpoint>
            <Time>2021-08-29T17:06:41.000Z</Time>
            <Position>
              <LatitudeDegrees>-32.9915338195860385894775390625</LatitudeDegrees>
              <LongitudeDegrees>-69.29388427175581455230712890625</LongitudeDegrees>
            </Position>
            <AltitudeMeters>1955.4000244140625</AltitudeMeters>
            <DistanceMeters>16022.174844692</DistanceMeters>
          </Trackpoint>
          <Trackpoint>
            <Time>2021-08-29T17:06:43.000Z</Time>
            <Position>
              <LatitudeDegrees>-32.99153272993862628936767578125</LatitudeDegrees>
              <LongitudeDegrees>-69.29388427175581455230712890625</LongitudeDegrees>
            </Position>
            <AltitudeMeters>1955.4000244140625</AltitudeMeters>
            <DistanceMeters>16022.309232761</DistanceMeters>
          </Trackpoint>
          <Trackpoint>
            <Time>2021-08-29T17:06:46.000Z</Time>
            <Position>
              <LatitudeDegrees>-32.99153096973896026611328125</LatitudeDegrees>
              <LongitudeDegrees>-69.29388485848903656005859375</LongitudeDegrees>
            </Position>
            <AltitudeMeters>1955.4000244140625</AltitudeMeters>
            <DistanceMeters>16022.521718954</DistanceMeters>
          </Trackpoint>
          <Trackpoint>
            <Time>2021-08-29T17:06:50.000Z</Time>
            <Position>
              <LatitudeDegrees>-32.99153096973896026611328125</LatitudeDegrees>
              <LongitudeDegrees>-69.2938856966793537139892578125</LongitudeDegrees>
            </Position>
            <AltitudeMeters>1955.4000244140625</AltitudeMeters>
            <DistanceMeters>16022.616745668</DistanceMeters>
          </Trackpoint>
          <Trackpoint>
            <Time>2021-08-29T17:06:57.000Z</Time>
            <Position>
              <LatitudeDegrees>-32.9915308021008968353271484375</LatitudeDegrees>
              <LongitudeDegrees>-69.293887205421924591064453125</LongitudeDegrees>
            </Position>
            <AltitudeMeters>1955.4000244140625</AltitudeMeters>
            <DistanceMeters>16022.751133736</DistanceMeters>
          </Trackpoint>
          <Trackpoint>
            <Time>2021-08-29T17:06:59.000Z</Time>
            <Position>
              <LatitudeDegrees>-32.99153088591992855072021484375</LatitudeDegrees>
              <LongitudeDegrees>-69.29388728924095630645751953125</LongitudeDegrees>
            </Position>
            <AltitudeMeters>1955.4000244140625</AltitudeMeters>
            <DistanceMeters>16022.751133736</DistanceMeters>
          </Trackpoint>
          <Trackpoint>
            <Time>2021-08-29T17:07:00.000Z</Time>
            <Position>
              <LatitudeDegrees>-32.9915311373770236968994140625</LatitudeDegrees>
              <LongitudeDegrees>-69.29388728924095630645751953125</LongitudeDegrees>
            </Position>
            <AltitudeMeters>1955.4000244140625</AltitudeMeters>
            <DistanceMeters>16022.751133736</DistanceMeters>
          </Trackpoint>
          <Trackpoint>
            <Time>2021-08-29T17:07:02.000Z</Time>
            <Position>
              <LatitudeDegrees>-32.9915314726531505584716796875</LatitudeDegrees>
              <LongitudeDegrees>-69.29388728924095630645751953125</LongitudeDegrees>
            </Position>
            <AltitudeMeters>1955.4000244140625</AltitudeMeters>
            <DistanceMeters>16022.751133736</DistanceMeters>
          </Trackpoint>
          <Trackpoint>
            <Time>2021-08-29T17:07:04.000Z</Time>
            <Position>
              <LatitudeDegrees>-32.9915316402912139892578125</LatitudeDegrees>
              <LongitudeDegrees>-69.29388728924095630645751953125</LongitudeDegrees>
            </Position>
            <AltitudeMeters>1955.4000244140625</AltitudeMeters>
            <DistanceMeters>16022.751133736</DistanceMeters>
          </Trackpoint>
          <Trackpoint>
            <Time>2021-08-29T17:07:06.000Z</Time>
            <Position>
              <LatitudeDegrees>-32.99153189174830913543701171875</LatitudeDegrees>
              <LongitudeDegrees>-69.29388728924095630645751953125</LongitudeDegrees>
            </Position>
            <AltitudeMeters>1955.4000244140625</AltitudeMeters>
            <DistanceMeters>16022.751133736</DistanceMeters>
          </Trackpoint>
          <Trackpoint>
            <Time>2021-08-29T17:07:08.000Z</Time>
            <Position>
              <LatitudeDegrees>-32.99153222702443599700927734375</LatitudeDegrees>
              <LongitudeDegrees>-69.29388745687901973724365234375</LongitudeDegrees>
            </Position>
            <AltitudeMeters>1955.4000244140625</AltitudeMeters>
            <DistanceMeters>16022.751133736</DistanceMeters>
          </Trackpoint>
          <Trackpoint>
            <Time>2021-08-29T17:07:11.000Z</Time>
            <Position>
              <LatitudeDegrees>-32.991532646119594573974609375</LatitudeDegrees>
              <LongitudeDegrees>-69.2938947491347789764404296875</LongitudeDegrees>
            </Position>
            <AltitudeMeters>1955.5999755859375</AltitudeMeters>
            <DistanceMeters>16023.429760216</DistanceMeters>
          </Trackpoint>
          <Trackpoint>
            <Time>2021-08-29T17:07:19.000Z</Time>
            <Position>
              <LatitudeDegrees>-32.99153440631926059722900390625</LatitudeDegrees>
              <LongitudeDegrees>-69.29389717988669872283935546875</LongitudeDegrees>
            </Position>
            <AltitudeMeters>1955.5999755859375</AltitudeMeters>
            <DistanceMeters>16023.730261072</DistanceMeters>
          </Trackpoint>
          <Trackpoint>
            <Time>2021-08-29T17:07:28.000Z</Time>
            <Position>
              <LatitudeDegrees>-32.991541363298892974853515625</LatitudeDegrees>
              <LongitudeDegrees>-69.2938987724483013153076171875</LongitudeDegrees>
            </Position>
            <AltitudeMeters>1955.5999755859375</AltitudeMeters>
            <DistanceMeters>16024.519612245</DistanceMeters>
          </Trackpoint>
          <Trackpoint>
            <Time>2021-08-29T17:07:34.000Z</Time>
            <Position>
              <LatitudeDegrees>-32.99154630862176418304443359375</LatitudeDegrees>
              <LongitudeDegrees>-69.293901957571506500244140625</LongitudeDegrees>
            </Position>
            <AltitudeMeters>1955.800048828125</AltitudeMeters>
            <DistanceMeters>16025.149948158</DistanceMeters>
          </Trackpoint>
          <Trackpoint>
            <Time>2021-08-29T17:07:36.000Z</Time>
            <Position>
              <LatitudeDegrees>-32.99155066721141338348388671875</LatitudeDegrees>
              <LongitudeDegrees>-69.2939024604856967926025390625</LongitudeDegrees>
            </Position>
            <AltitudeMeters>1955.800048828125</AltitudeMeters>
            <DistanceMeters>16025.634491229</DistanceMeters>
          </Trackpoint>
          <Trackpoint>
            <Time>2021-08-29T17:07:38.000Z</Time>
            <Position>
              <LatitudeDegrees>-32.9915579594671726226806640625</LatitudeDegrees>
              <LongitudeDegrees>-69.29390707053244113922119140625</LongitudeDegrees>
            </Position>
            <AltitudeMeters>1955.800048828125</AltitudeMeters>
            <DistanceMeters>16026.555809407</DistanceMeters>
          </Trackpoint>
          <Trackpoint>
            <Time>2021-08-29T17:07:40.000Z</Time>
            <Position>
              <LatitudeDegrees>-32.99158394336700439453125</LatitudeDegrees>
              <LongitudeDegrees>-69.29392769001424312591552734375</LongitudeDegrees>
            </Position>
            <AltitudeMeters>1956.199951171875</AltitudeMeters>
            <DistanceMeters>16030.029162561</DistanceMeters>
          </Trackpoint>
          <Trackpoint>
            <Time>2021-08-29T17:07:42.000Z</Time>
            <Position>
              <LatitudeDegrees>-32.991610430181026458740234375</LatitudeDegrees>
              <LongitudeDegrees>-69.293949566781520843505859375</LongitudeDegrees>
            </Position>
            <AltitudeMeters>1956.5999755859375</AltitudeMeters>
            <DistanceMeters>16033.615083483</DistanceMeters>
          </Trackpoint>
          <Trackpoint>
            <Time>2021-08-29T17:07:47.000Z</Time>
            <Position>
              <LatitudeDegrees>-32.991669438779354095458984375</LatitudeDegrees>
              <LongitudeDegrees>-69.29400178603827953338623046875</LongitudeDegrees>
            </Position>
            <AltitudeMeters>1957.5999755859375</AltitudeMeters>
            <DistanceMeters>16041.795111994</DistanceMeters>
          </Trackpoint>
          <Trackpoint>
            <Time>2021-08-29T17:07:52.000Z</Time>
            <Position>
              <LatitudeDegrees>-32.9916981048882007598876953125</LatitudeDegrees>
              <LongitudeDegrees>-69.2940372414886951446533203125</LongitudeDegrees>
            </Position>
            <AltitudeMeters>1958</AltitudeMeters>
            <DistanceMeters>16046.392873292</DistanceMeters>
          </Trackpoint>
          <Trackpoint>
            <Time>2021-08-29T17:07:54.000Z</Time>
            <Position>
              <LatitudeDegrees>-32.9917048104107379913330078125</LatitudeDegrees>
              <LongitudeDegrees>-69.29404134862124919891357421875</LongitudeDegrees>
            </Position>
            <AltitudeMeters>1958.199951171875</AltitudeMeters>
            <DistanceMeters>16047.23212651</DistanceMeters>
          </Trackpoint>
          <Trackpoint>
            <Time>2021-08-29T17:08:00.000Z</Time>
            <Position>
              <LatitudeDegrees>-32.99170665442943572998046875</LatitudeDegrees>
              <LongitudeDegrees>-69.29403950460255146026611328125</LongitudeDegrees>
            </Position>
            <AltitudeMeters>1958.199951171875</AltitudeMeters>
            <DistanceMeters>16047.532627366</DistanceMeters>
          </Trackpoint>
          <Trackpoint>
            <Time>2021-08-29T17:08:04.000Z</Time>
            <Position>
              <LatitudeDegrees>-32.99172115512192249298095703125</LatitudeDegrees>
              <LongitudeDegrees>-69.29404973052442073822021484375</LongitudeDegrees>
            </Position>
            <AltitudeMeters>1958.4000244140625</AltitudeMeters>
            <DistanceMeters>16049.40925461</DistanceMeters>
          </Trackpoint>
          <Trackpoint>
            <Time>2021-08-29T17:08:06.000Z</Time>
            <Position>
              <LatitudeDegrees>-32.9917406849563121795654296875</LatitudeDegrees>
              <LongitudeDegrees>-69.29405794478952884674072265625</LongitudeDegrees>
            </Position>
            <AltitudeMeters>1958.5999755859375</AltitudeMeters>
            <DistanceMeters>16051.713529973</DistanceMeters>
          </Trackpoint>
          <Trackpoint>
            <Time>2021-08-29T17:08:07.000Z</Time>
            <Position>
              <LatitudeDegrees>-32.99175091087818145751953125</LatitudeDegrees>
              <LongitudeDegrees>-69.29406783543527126312255859375</LongitudeDegrees>
            </Position>
            <AltitudeMeters>1958.800048828125</AltitudeMeters>
            <DistanceMeters>16053.176447646</DistanceMeters>
          </Trackpoint>
          <Trackpoint>
            <Time>2021-08-29T17:08:15.000Z</Time>
            <Position>
              <LatitudeDegrees>-32.99187873490154743194580078125</LatitudeDegrees>
              <LongitudeDegrees>-69.29414193145930767059326171875</LongitudeDegrees>
            </Position>
            <AltitudeMeters>1959.5999755859375</AltitudeMeters>
            <DistanceMeters>16068.996041147</DistanceMeters>
          </Trackpoint>
          <Trackpoint>
            <Time>2021-08-29T17:08:21.000Z</Time>
            <Position>
              <LatitudeDegrees>-32.99195433966815471649169921875</LatitudeDegrees>
              <LongitudeDegrees>-69.29421384818851947784423828125</LongitudeDegrees>
            </Position>
            <AltitudeMeters>1960.199951171875</AltitudeMeters>
            <DistanceMeters>16079.760936456</DistanceMeters>
          </Trackpoint>
          <Trackpoint>
            <Time>2021-08-29T17:08:24.000Z</Time>
            <Position>
              <LatitudeDegrees>-32.9919837601482868194580078125</LatitudeDegrees>
              <LongitudeDegrees>-69.29425994865596294403076171875</LongitudeDegrees>
            </Position>
            <AltitudeMeters>1960.800048828125</AltitudeMeters>
            <DistanceMeters>16085.168282157</DistanceMeters>
          </Trackpoint>
          <Trackpoint>
            <Time>2021-08-29T17:08:38.000Z</Time>
            <Position>
              <LatitudeDegrees>-32.9921270906925201416015625</LatitudeDegrees>
              <LongitudeDegrees>-69.2944761179387569427490234375</LongitudeDegrees>
            </Position>
            <AltitudeMeters>1963.199951171875</AltitudeMeters>
            <DistanceMeters>16110.892629806</DistanceMeters>
          </Trackpoint>
          <Trackpoint>
            <Time>2021-08-29T17:08:47.000Z</Time>
            <Position>
              <LatitudeDegrees>-32.9922156035900115966796875</LatitudeDegrees>
              <LongitudeDegrees>-69.2945904470980167388916015625</LongitudeDegrees>
            </Position>
            <AltitudeMeters>1964.5999755859375</AltitudeMeters>
            <DistanceMeters>16125.417425018</DistanceMeters>
          </Trackpoint>
          <Trackpoint>
            <Time>2021-08-29T17:08:48.000Z</Time>
            <Position>
              <LatitudeDegrees>-32.992221973836421966552734375</LatitudeDegrees>
              <LongitudeDegrees>-69.2946028523147106170654296875</LongitudeDegrees>
            </Position>
            <AltitudeMeters>1964.5999755859375</AltitudeMeters>
            <DistanceMeters>16126.77134729</DistanceMeters>
          </Trackpoint>
          <Trackpoint>
            <Time>2021-08-29T17:08:50.000Z</Time>
            <Position>
              <LatitudeDegrees>-32.9922305233776569366455078125</LatitudeDegrees>
              <LongitudeDegrees>-69.29463076405227184295654296875</LongitudeDegrees>
            </Position>
            <AltitudeMeters>1965</AltitudeMeters>
            <DistanceMeters>16129.545085765</DistanceMeters>
          </Trackpoint>
          <Trackpoint>
            <Time>2021-08-29T17:08:54.000Z</Time>
            <Position>
              <LatitudeDegrees>-32.99224602989852428436279296875</LatitudeDegrees>
              <LongitudeDegrees>-69.29467787034809589385986328125</LongitudeDegrees>
            </Position>
            <AltitudeMeters>1965.5999755859375</AltitudeMeters>
            <DistanceMeters>16134.269739083</DistanceMeters>
          </Trackpoint>
          <Trackpoint>
            <Time>2021-08-29T17:08:56.000Z</Time>
            <Position>
              <LatitudeDegrees>-32.992249466478824615478515625</LatitudeDegrees>
              <LongitudeDegrees>-69.294687844812870025634765625</LongitudeDegrees>
            </Position>
            <AltitudeMeters>1965.5999755859375</AltitudeMeters>
            <DistanceMeters>16135.275407299</DistanceMeters>
          </Trackpoint>
          <Trackpoint>
            <Time>2021-08-29T17:09:04.000Z</Time>
            <Position>
              <LatitudeDegrees>-32.99225893802940845489501953125</LatitudeDegrees>
              <LongitudeDegrees>-69.29471475072205066680908203125</LongitudeDegrees>
            </Position>
            <AltitudeMeters>1966</AltitudeMeters>
            <DistanceMeters>16137.99987474</DistanceMeters>
          </Trackpoint>
          <Trackpoint>
            <Time>2021-08-29T17:09:12.000Z</Time>
            <Position>
              <LatitudeDegrees>-32.99226128496229648590087890625</LatitudeDegrees>
              <LongitudeDegrees>-69.294720701873302459716796875</LongitudeDegrees>
            </Position>
            <AltitudeMeters>1966</AltitudeMeters>
            <DistanceMeters>16138.615718235</DistanceMeters>
          </Trackpoint>
          <Trackpoint>
            <Time>2021-08-29T17:09:15.000Z</Time>
            <Position>
              <LatitudeDegrees>-32.99229984171688556671142578125</LatitudeDegrees>
              <LongitudeDegrees>-69.2947704903781414031982421875</LongitudeDegrees>
            </Position>
            <AltitudeMeters>1966.5999755859375</AltitudeMeters>
            <DistanceMeters>16144.94195715</DistanceMeters>
          </Trackpoint>
          <Trackpoint>
            <Time>2021-08-29T17:09:20.000Z</Time>
            <Position>
              <LatitudeDegrees>-32.9923341237008571624755859375</LatitudeDegrees>
              <LongitudeDegrees>-69.294819273054599761962890625</LongitudeDegrees>
            </Position>
            <AltitudeMeters>1967.199951171875</AltitudeMeters>
            <DistanceMeters>16150.882457023</DistanceMeters>
          </Trackpoint>
          <Trackpoint>
            <Time>2021-08-29T17:09:22.000Z</Time>
            <Position>
              <LatitudeDegrees>-32.99233940429985523223876953125</LatitudeDegrees>
              <LongitudeDegrees>-69.29483477957546710968017578125</LongitudeDegrees>
            </Position>
            <AltitudeMeters>1967.4000244140625</AltitudeMeters>
            <DistanceMeters>16152.443905274</DistanceMeters>
          </Trackpoint>
          <Trackpoint>
            <Time>2021-08-29T17:09:29.000Z</Time>
            <Position>
              <LatitudeDegrees>-32.9923683218657970428466796875</LatitudeDegrees>
              <LongitudeDegrees>-69.29488926194608211517333984375</LongitudeDegrees>
            </Position>
            <AltitudeMeters>1968</AltitudeMeters>
            <DistanceMeters>16158.462930668</DistanceMeters>
          </Trackpoint>
          <Trackpoint>
            <Time>2021-08-29T17:09:38.000Z</Time>
            <Position>
              <LatitudeDegrees>-32.99241341650485992431640625</LatitudeDegrees>
              <LongitudeDegrees>-69.294946677982807159423828125</LongitudeDegrees>
            </Position>
            <AltitudeMeters>1968.800048828125</AltitudeMeters>
            <DistanceMeters>16165.806473173</DistanceMeters>
          </Trackpoint>
          <Trackpoint>
            <Time>2021-08-29T17:09:39.000Z</Time>
            <Position>
              <LatitudeDegrees>-32.99241534434258937835693359375</LatitudeDegrees>
              <LongitudeDegrees>-69.29495413787662982940673828125</LongitudeDegrees>
            </Position>
            <AltitudeMeters>1968.800048828125</AltitudeMeters>
            <DistanceMeters>16166.530175068</DistanceMeters>
          </Trackpoint>
          <Trackpoint>
            <Time>2021-08-29T17:09:49.000Z</Time>
            <Position>
              <LatitudeDegrees>-32.9924424178898334503173828125</LatitudeDegrees>
              <LongitudeDegrees>-69.2950018309056758880615234375</LongitudeDegrees>
            </Position>
            <AltitudeMeters>1969.4000244140625</AltitudeMeters>
            <DistanceMeters>16171.906537658</DistanceMeters>
          </Trackpoint>
          <Trackpoint>
            <Time>2021-08-29T17:09:57.000Z</Time>
            <Position>
              <LatitudeDegrees>-32.99244769848883152008056640625</LatitudeDegrees>
              <LongitudeDegrees>-69.29499395191669464111328125</LongitudeDegrees>
            </Position>
            <AltitudeMeters>1969.4000244140625</AltitudeMeters>
            <DistanceMeters>16172.847254136</DistanceMeters>
          </Trackpoint>
          <Trackpoint>
            <Time>2021-08-29T17:09:59.000Z</Time>
            <Position>
              <LatitudeDegrees>-32.99244769848883152008056640625</LatitudeDegrees>
              <LongitudeDegrees>-69.29499395191669464111328125</LongitudeDegrees>
            </Position>
            <AltitudeMeters>1969.4000244140625</AltitudeMeters>
            <DistanceMeters>16172.94228085</DistanceMeters>
          </Trackpoint>
          <Trackpoint>
            <Time>2021-08-29T17:10:04.000Z</Time>
            <Position>
              <LatitudeDegrees>-32.99244769848883152008056640625</LatitudeDegrees>
              <LongitudeDegrees>-69.29499395191669464111328125</LongitudeDegrees>
            </Position>
            <AltitudeMeters>1969.4000244140625</AltitudeMeters>
            <DistanceMeters>16173.037307564</DistanceMeters>
          </Trackpoint>
          <Trackpoint>
            <Time>2021-08-29T17:10:16.000Z</Time>
            <Position>
              <LatitudeDegrees>-32.9925000853836536407470703125</LatitudeDegrees>
              <LongitudeDegrees>-69.29507575929164886474609375</LongitudeDegrees>
            </Position>
            <AltitudeMeters>1970.4000244140625</AltitudeMeters>
            <DistanceMeters>16182.645819497</DistanceMeters>
          </Trackpoint>
          <Trackpoint>
            <Time>2021-08-29T17:10:19.000Z</Time>
            <Position>
              <LatitudeDegrees>-32.9925466887652873992919921875</LatitudeDegrees>
              <LongitudeDegrees>-69.29514683783054351806640625</LongitudeDegrees>
            </Position>
            <AltitudeMeters>1971.199951171875</AltitudeMeters>
            <DistanceMeters>16191.068424827</DistanceMeters>
          </Trackpoint>
          <Trackpoint>
            <Time>2021-08-29T17:10:27.000Z</Time>
            <Position>
              <LatitudeDegrees>-32.992649115622043609619140625</LatitudeDegrees>
              <LongitudeDegrees>-69.2952941916882991790771484375</LongitudeDegrees>
            </Position>
            <AltitudeMeters>1972.4000244140625</AltitudeMeters>
            <DistanceMeters>16208.934458023</DistanceMeters>
          </Trackpoint>
          <Trackpoint>
            <Time>2021-08-29T17:10:35.000Z</Time>
            <Position>
              <LatitudeDegrees>-32.99274726770818233489990234375</LatitudeDegrees>
              <LongitudeDegrees>-69.2954276315867900848388671875</LongitudeDegrees>
            </Position>
            <AltitudeMeters>1973.199951171875</AltitudeMeters>
            <DistanceMeters>16225.503204323</DistanceMeters>
          </Trackpoint>
          <Trackpoint>
            <Time>2021-08-29T17:10:38.000Z</Time>
            <Position>
              <LatitudeDegrees>-32.99277953803539276123046875</LatitudeDegrees>
              <LongitudeDegrees>-69.2954775877296924591064453125</LongitudeDegrees>
            </Position>
            <AltitudeMeters>1973.4000244140625</AltitudeMeters>
            <DistanceMeters>16231.390260752</DistanceMeters>
          </Trackpoint>
          <Trackpoint>
            <Time>2021-08-29T17:10:53.000Z</Time>
            <Position>
              <LatitudeDegrees>-32.99293485470116138458251953125</LatitudeDegrees>
              <LongitudeDegrees>-69.2957541905343532562255859375</LongitudeDegrees>
            </Position>
            <AltitudeMeters>1975.4000244140625</AltitudeMeters>
            <DistanceMeters>16262.46443225</DistanceMeters>
          </Trackpoint>
          <Trackpoint>
            <Time>2021-08-29T17:11:06.000Z</Time>
            <Position>
              <LatitudeDegrees>-32.9930667020380496978759765625</LatitudeDegrees>
              <LongitudeDegrees>-69.29599617607891559600830078125</LongitudeDegrees>
            </Position>
            <AltitudeMeters>1977</AltitudeMeters>
            <DistanceMeters>16289.402787864</DistanceMeters>
          </Trackpoint>
          <Trackpoint>
            <Time>2021-08-29T17:11:14.000Z</Time>
            <Position>
              <LatitudeDegrees>-32.99314104951918125152587890625</LatitudeDegrees>
              <LongitudeDegrees>-69.29615811444818973541259765625</LongitudeDegrees>
            </Position>
            <AltitudeMeters>1978.199951171875</AltitudeMeters>
            <DistanceMeters>16306.636976977</DistanceMeters>
          </Trackpoint>
          <Trackpoint>
            <Time>2021-08-29T17:11:18.000Z</Time>
            <Position>
              <LatitudeDegrees>-32.99322302453219890594482421875</LatitudeDegrees>
              <LongitudeDegrees>-69.296259619295597076416015625</LongitudeDegrees>
            </Position>
            <AltitudeMeters>1979</AltitudeMeters>
            <DistanceMeters>16319.791228185</DistanceMeters>
          </Trackpoint>
          <Trackpoint>
            <Time>2021-08-29T17:11:21.000Z</Time>
            <Position>
              <LatitudeDegrees>-32.9932930134236812591552734375</LatitudeDegrees>
              <LongitudeDegrees>-69.29630513302981853485107421875</LongitudeDegrees>
            </Position>
            <AltitudeMeters>1979</AltitudeMeters>
            <DistanceMeters>16328.663894438</DistanceMeters>
          </Trackpoint>
          <Trackpoint>
            <Time>2021-08-29T17:11:25.000Z</Time>
            <Position>
              <LatitudeDegrees>-32.99337758682668209075927734375</LatitudeDegrees>
              <LongitudeDegrees>-69.296311922371387481689453125</LongitudeDegrees>
            </Position>
            <AltitudeMeters>1978.4000244140625</AltitudeMeters>
            <DistanceMeters>16338.098377121</DistanceMeters>
          </Trackpoint>
          <Trackpoint>
            <Time>2021-08-29T17:11:30.000Z</Time>
            <Position>
              <LatitudeDegrees>-32.993479259312152862548828125</LatitudeDegrees>
              <LongitudeDegrees>-69.29625903256237506866455078125</LongitudeDegrees>
            </Position>
            <AltitudeMeters>1977.800048828125</AltitudeMeters>
            <DistanceMeters>16350.445269464</DistanceMeters>
          </Trackpoint>
          <Trackpoint>
            <Time>2021-08-29T17:11:32.000Z</Time>
            <Position>
              <LatitudeDegrees>-32.9935183189809322357177734375</LatitudeDegrees>
              <LongitudeDegrees>-69.2962400056421756744384765625</LongitudeDegrees>
            </Position>
            <AltitudeMeters>1977.800048828125</AltitudeMeters>
            <DistanceMeters>16355.143088834</DistanceMeters>
          </Trackpoint>
          <Trackpoint>
            <Time>2021-08-29T17:11:35.000Z</Time>
            <Position>
              <LatitudeDegrees>-32.99357573501765727996826171875</LatitudeDegrees>
              <LongitudeDegrees>-69.29621561430394649505615234375</LongitudeDegrees>
            </Position>
            <AltitudeMeters>1977.199951171875</AltitudeMeters>
            <DistanceMeters>16361.926691826</DistanceMeters>
          </Trackpoint>
          <Trackpoint>
            <Time>2021-08-29T17:11:43.000Z</Time>
            <Position>
              <LatitudeDegrees>-32.993748150765895843505859375</LatitudeDegrees>
              <LongitudeDegrees>-69.29621729068458080291748046875</LongitudeDegrees>
            </Position>
            <AltitudeMeters>1976.800048828125</AltitudeMeters>
            <DistanceMeters>16381.11761853</DistanceMeters>
          </Trackpoint>
          <Trackpoint>
            <Time>2021-08-29T17:11:53.000Z</Time>
            <Position>
              <LatitudeDegrees>-32.993929199874401092529296875</LatitudeDegrees>
              <LongitudeDegrees>-69.296324662864208221435546875</LongitudeDegrees>
            </Position>
            <AltitudeMeters>1978.4000244140625</AltitudeMeters>
            <DistanceMeters>16403.623908941</DistanceMeters>
          </Trackpoint>
          <Trackpoint>
            <Time>2021-08-29T17:12:02.000Z</Time>
            <Position>
              <LatitudeDegrees>-32.9941238276660442352294921875</LatitudeDegrees>
              <LongitudeDegrees>-69.29635609500110149383544921875</LongitudeDegrees>
            </Position>
            <AltitudeMeters>1978.5999755859375</AltitudeMeters>
            <DistanceMeters>16425.484184452</DistanceMeters>
          </Trackpoint>
          <Trackpoint>
            <Time>2021-08-29T17:12:07.000Z</Time>
            <Position>
              <LatitudeDegrees>-32.9942237399518489837646484375</LatitudeDegrees>
              <LongitudeDegrees>-69.29632307030260562896728515625</LongitudeDegrees>
            </Position>
            <AltitudeMeters>1977.800048828125</AltitudeMeters>
            <DistanceMeters>16437.023965096</DistanceMeters>
          </Trackpoint>
          <Trackpoint>
            <Time>2021-08-29T17:12:12.000Z</Time>
            <Position>
              <LatitudeDegrees>-32.994325496256351470947265625</LatitudeDegrees>
              <LongitudeDegrees>-69.2962983436882495880126953125</LongitudeDegrees>
            </Position>
            <AltitudeMeters>1977.199951171875</AltitudeMeters>
            <DistanceMeters>16448.582901512</DistanceMeters>
          </Trackpoint>
          <Trackpoint>
            <Time>2021-08-29T17:12:19.000Z</Time>
            <Position>
              <LatitudeDegrees>-32.99446128308773040771484375</LatitudeDegrees>
              <LongitudeDegrees>-69.29629507474601268768310546875</LongitudeDegrees>
            </Position>
            <AltitudeMeters>1977.4000244140625</AltitudeMeters>
            <DistanceMeters>16463.699617905</DistanceMeters>
          </Trackpoint>
          <Trackpoint>
            <Time>2021-08-29T17:12:22.000Z</Time>
            <Position>
              <LatitudeDegrees>-32.994528673589229583740234375</LatitudeDegrees>
              <LongitudeDegrees>-69.29628166370093822479248046875</LongitudeDegrees>
            </Position>
            <AltitudeMeters>1977.4000244140625</AltitudeMeters>
            <DistanceMeters>16471.304130351</DistanceMeters>
          </Trackpoint>
          <Trackpoint>
            <Time>2021-08-29T17:12:33.000Z</Time>
            <Position>
              <LatitudeDegrees>-32.9947715811431407928466796875</LatitudeDegrees>
              <LongitudeDegrees>-69.29617236368358135223388671875</LongitudeDegrees>
            </Position>
            <AltitudeMeters>1976.5999755859375</AltitudeMeters>
            <DistanceMeters>16500.201627634</DistanceMeters>
          </Trackpoint>
          <Trackpoint>
            <Time>2021-08-29T17:12:44.000Z</Time>
            <Position>
              <LatitudeDegrees>-32.994985990226268768310546875</LatitudeDegrees>
              <LongitudeDegrees>-69.29612391628324985504150390625</LongitudeDegrees>
            </Position>
            <AltitudeMeters>1976.5999755859375</AltitudeMeters>
            <DistanceMeters>16524.490574796</DistanceMeters>
          </Trackpoint>
          <Trackpoint>
            <Time>2021-08-29T17:12:53.000Z</Time>
            <Position>
              <LatitudeDegrees>-32.9951883293688297271728515625</LatitudeDegrees>
              <LongitudeDegrees>-69.296114444732666015625</LongitudeDegrees>
            </Position>
            <AltitudeMeters>1976.5999755859375</AltitudeMeters>
            <DistanceMeters>16547.028739988</DistanceMeters>
          </Trackpoint>
          <Trackpoint>
            <Time>2021-08-29T17:12:57.000Z</Time>
            <Position>
              <LatitudeDegrees>-32.9952882416546344757080078125</LatitudeDegrees>
              <LongitudeDegrees>-69.2961290292441844940185546875</LongitudeDegrees>
            </Position>
            <AltitudeMeters>1976.800048828125</AltitudeMeters>
            <DistanceMeters>16558.232224382</DistanceMeters>
          </Trackpoint>
          <Trackpoint>
            <Time>2021-08-29T17:13:02.000Z</Time>
            <Position>
              <LatitudeDegrees>-32.9954072646796703338623046875</LatitudeDegrees>
              <LongitudeDegrees>-69.2961558513343334197998046875</LongitudeDegrees>
            </Position>
            <AltitudeMeters>1976.800048828125</AltitudeMeters>
            <DistanceMeters>16571.714636585</DistanceMeters>
          </Trackpoint>
          <Trackpoint>
            <Time>2021-08-29T17:13:07.000Z</Time>
            <Position>
              <LatitudeDegrees>-32.9955262877047061920166015625</LatitudeDegrees>
              <LongitudeDegrees>-69.29619734175503253936767578125</LongitudeDegrees>
            </Position>
            <AltitudeMeters>1977.199951171875</AltitudeMeters>
            <DistanceMeters>16585.516755722</DistanceMeters>
          </Trackpoint>
          <Trackpoint>
            <Time>2021-08-29T17:13:16.000Z</Time>
            <Position>
              <LatitudeDegrees>-32.995706163346767425537109375</LatitudeDegrees>
              <LongitudeDegrees>-69.296295829117298126220703125</LongitudeDegrees>
            </Position>
            <AltitudeMeters>1978.199951171875</AltitudeMeters>
            <DistanceMeters>16607.547383237</DistanceMeters>
          </Trackpoint>
          <Trackpoint>
            <Time>2021-08-29T17:13:26.000Z</Time>
            <Position>
              <LatitudeDegrees>-32.995919398963451385498046875</LatitudeDegrees>
              <LongitudeDegrees>-69.2964291013777256011962890625</LongitudeDegrees>
            </Position>
            <AltitudeMeters>1979.5999755859375</AltitudeMeters>
            <DistanceMeters>16634.344242732</DistanceMeters>
          </Trackpoint>
          <Trackpoint>
            <Time>2021-08-29T17:13:28.000Z</Time>
            <Position>
              <LatitudeDegrees>-32.9959628172218799591064453125</LatitudeDegrees>
              <LongitudeDegrees>-69.296465478837490081787109375</LongitudeDegrees>
            </Position>
            <AltitudeMeters>1979.800048828125</AltitudeMeters>
            <DistanceMeters>16640.251206028</DistanceMeters>
          </Trackpoint>
          <Trackpoint>
            <Time>2021-08-29T17:13:37.000Z</Time>
            <Position>
              <LatitudeDegrees>-32.99615903757512569427490234375</LatitudeDegrees>
              <LongitudeDegrees>-69.29656916297972202301025390625</LongitudeDegrees>
            </Position>
            <AltitudeMeters>1980.4000244140625</AltitudeMeters>
            <DistanceMeters>16664.139417573</DistanceMeters>
          </Trackpoint>
          <Trackpoint>
            <Time>2021-08-29T17:13:42.000Z</Time>
            <Position>
              <LatitudeDegrees>-32.9962850175797939300537109375</LatitudeDegrees>
              <LongitudeDegrees>-69.29648702032864093780517578125</LongitudeDegrees>
            </Position>
            <AltitudeMeters>1978.800048828125</AltitudeMeters>
            <DistanceMeters>16680.120865634</DistanceMeters>
          </Trackpoint>
          <Trackpoint>
            <Time>2021-08-29T17:13:48.000Z</Time>
            <Position>
              <LatitudeDegrees>-32.996437065303325653076171875</LatitudeDegrees>
              <LongitudeDegrees>-69.296379983425140380859375</LongitudeDegrees>
            </Position>
            <AltitudeMeters>1975.4000244140625</AltitudeMeters>
            <DistanceMeters>16699.77348377</DistanceMeters>
          </Trackpoint>
          <Trackpoint>
            <Time>2021-08-29T17:13:53.000Z</Time>
            <Position>
              <LatitudeDegrees>-32.99653035588562488555908203125</LatitudeDegrees>
              <LongitudeDegrees>-69.2964341305196285247802734375</LongitudeDegrees>
            </Position>
            <AltitudeMeters>1975.5999755859375</AltitudeMeters>
            <DistanceMeters>16711.321477922</DistanceMeters>
          </Trackpoint>
          <Trackpoint>
            <Time>2021-08-29T17:13:57.000Z</Time>
            <Position>
              <LatitudeDegrees>-32.99656589515507221221923828125</LatitudeDegrees>
              <LongitudeDegrees>-69.296549297869205474853515625</LongitudeDegrees>
            </Position>
            <AltitudeMeters>1977.199951171875</AltitudeMeters>
            <DistanceMeters>16722.776434962</DistanceMeters>
          </Trackpoint>
          <Trackpoint>
            <Time>2021-08-29T17:13:59.000Z</Time>
            <Position>
              <LatitudeDegrees>-32.9965706728398799896240234375</LatitudeDegrees>
              <LongitudeDegrees>-69.29661476053297519683837890625</LongitudeDegrees>
            </Position>
            <AltitudeMeters>1978.4000244140625</AltitudeMeters>
            <DistanceMeters>16728.909892264</DistanceMeters>
          </Trackpoint>
          <Trackpoint>
            <Time>2021-08-29T17:14:05.000Z</Time>
            <Position>
              <LatitudeDegrees>-32.996628843247890472412109375</LatitudeDegrees>
              <LongitudeDegrees>-69.296793043613433837890625</LongitudeDegrees>
            </Position>
            <AltitudeMeters>1981</AltitudeMeters>
            <DistanceMeters>16746.767836706</DistanceMeters>
          </Trackpoint>
          <Trackpoint>
            <Time>2021-08-29T17:14:08.000Z</Time>
            <Position>
              <LatitudeDegrees>-32.9966927133500576019287109375</LatitudeDegrees>
              <LongitudeDegrees>-69.2968404851853847503662109375</LongitudeDegrees>
            </Position>
            <AltitudeMeters>1981.199951171875</AltitudeMeters>
            <DistanceMeters>16755.144213844</DistanceMeters>
          </Trackpoint>
          <Trackpoint>
            <Time>2021-08-29T17:14:10.000Z</Time>
            <Position>
              <LatitudeDegrees>-32.99673805944621562957763671875</LatitudeDegrees>
              <LongitudeDegrees>-69.2968399822711944580078125</LongitudeDegrees>
            </Position>
            <AltitudeMeters>1980.800048828125</AltitudeMeters>
            <DistanceMeters>16760.191375982</DistanceMeters>
          </Trackpoint>
          <Trackpoint>
            <Time>2021-08-29T17:14:16.000Z</Time>
            <Position>
              <LatitudeDegrees>-32.9968543164432048797607421875</LatitudeDegrees>
              <LongitudeDegrees>-69.29672255180776119232177734375</LongitudeDegrees>
            </Position>
            <AltitudeMeters>1977.5999755859375</AltitudeMeters>
            <DistanceMeters>16777.150117229</DistanceMeters>
          </Trackpoint>
          <Trackpoint>
            <Time>2021-08-29T17:14:20.000Z</Time>
            <Position>
              <LatitudeDegrees>-32.996920533478260040283203125</LatitudeDegrees>
              <LongitudeDegrees>-69.29660855792462825775146484375</LongitudeDegrees>
            </Position>
            <AltitudeMeters>1975</AltitudeMeters>
            <DistanceMeters>16790.094346384</DistanceMeters>
          </Trackpoint>
          <Trackpoint>
            <Time>2021-08-29T17:14:23.000Z</Time>
            <Position>
              <LatitudeDegrees>-32.9969847388565540313720703125</LatitudeDegrees>
              <LongitudeDegrees>-69.29653814993798732757568359375</LongitudeDegrees>
            </Position>
            <AltitudeMeters>1973</AltitudeMeters>
            <DistanceMeters>16799.803361164</DistanceMeters>
          </Trackpoint>
          <Trackpoint>
            <Time>2021-08-29T17:14:27.000Z</Time>
            <Position>
              <LatitudeDegrees>-32.9970665462315082550048828125</LatitudeDegrees>
              <LongitudeDegrees>-69.296478219330310821533203125</LongitudeDegrees>
            </Position>
            <AltitudeMeters>1971.199951171875</AltitudeMeters>
            <DistanceMeters>16810.489959163</DistanceMeters>
          </Trackpoint>
          <Trackpoint>
            <Time>2021-08-29T17:14:32.000Z</Time>
            <Position>
              <LatitudeDegrees>-32.9971832223236560821533203125</LatitudeDegrees>
              <LongitudeDegrees>-69.29639632813632488250732421875</LongitudeDegrees>
            </Position>
            <AltitudeMeters>1969.4000244140625</AltitudeMeters>
            <DistanceMeters>16825.558811218</DistanceMeters>
          </Trackpoint>
          <Trackpoint>
            <Time>2021-08-29T17:14:40.000Z</Time>
            <Position>
              <LatitudeDegrees>-32.99737206660211086273193359375</LatitudeDegrees>
              <LongitudeDegrees>-69.29634788073599338531494140625</LongitudeDegrees>
            </Position>
            <AltitudeMeters>1967.800048828125</AltitudeMeters>
            <DistanceMeters>16847.058382214</DistanceMeters>
          </Trackpoint>
          <Trackpoint>
            <Time>2021-08-29T17:14:47.000Z</Time>
            <Position>
              <LatitudeDegrees>-32.99752277322113513946533203125</LatitudeDegrees>
              <LongitudeDegrees>-69.296326003968715667724609375</LongitudeDegrees>
            </Position>
            <AltitudeMeters>1966.800048828125</AltitudeMeters>
            <DistanceMeters>16863.956312479</DistanceMeters>
          </Trackpoint>
          <Trackpoint>
            <Time>2021-08-29T17:14:55.000Z</Time>
            <Position>
              <LatitudeDegrees>-32.99770784564316272735595703125</LatitudeDegrees>
              <LongitudeDegrees>-69.2963813245296478271484375</LongitudeDegrees>
            </Position>
            <AltitudeMeters>1966.800048828125</AltitudeMeters>
            <DistanceMeters>16885.192604004</DistanceMeters>
          </Trackpoint>
          <Trackpoint>
            <Time>2021-08-29T17:14:59.000Z</Time>
            <Position>
              <LatitudeDegrees>-32.99782812595367431640625</LatitudeDegrees>
              <LongitudeDegrees>-69.2964525707066059112548828125</LongitudeDegrees>
            </Position>
            <AltitudeMeters>1967.4000244140625</AltitudeMeters>
            <DistanceMeters>16900.141124723</DistanceMeters>
          </Trackpoint>
          <Trackpoint>
            <Time>2021-08-29T17:15:02.000Z</Time>
            <Position>
              <LatitudeDegrees>-32.99792124889791011810302734375</LatitudeDegrees>
              <LongitudeDegrees>-69.296508729457855224609375</LongitudeDegrees>
            </Position>
            <AltitudeMeters>1967.800048828125</AltitudeMeters>
            <DistanceMeters>16911.756561527</DistanceMeters>
          </Trackpoint>
          <Trackpoint>
            <Time>2021-08-29T17:15:04.000Z</Time>
            <Position>
              <LatitudeDegrees>-32.99798302352428436279296875</LatitudeDegrees>
              <LongitudeDegrees>-69.2965524829924106597900390625</LongitudeDegrees>
            </Position>
            <AltitudeMeters>1968.199951171875</AltitudeMeters>
            <DistanceMeters>16919.753498527</DistanceMeters>
          </Trackpoint>
          <Trackpoint>
            <Time>2021-08-29T17:15:07.000Z</Time>
            <Position>
              <LatitudeDegrees>-32.998083271086215972900390625</LatitudeDegrees>
              <LongitudeDegrees>-69.296583496034145355224609375</LongitudeDegrees>
            </Position>
            <AltitudeMeters>1968.199951171875</AltitudeMeters>
            <DistanceMeters>16931.280752097</DistanceMeters>
          </Trackpoint>
          <Trackpoint>
            <Time>2021-08-29T17:15:08.000Z</Time>
            <Position>
              <LatitudeDegrees>-32.99812207929790019989013671875</LatitudeDegrees>
              <LongitudeDegrees>-69.29659598506987094879150390625</LongitudeDegrees>
            </Position>
            <AltitudeMeters>1968.4000244140625</AltitudeMeters>
            <DistanceMeters>16935.754078533</DistanceMeters>
          </Trackpoint>
          <Trackpoint>
            <Time>2021-08-29T17:15:13.000Z</Time>
            <Position>
              <LatitudeDegrees>-32.99821511842310428619384765625</LatitudeDegrees>
              <LongitudeDegrees>-69.2966668121516704559326171875</LongitudeDegrees>
            </Position>
            <AltitudeMeters>1969</AltitudeMeters>
            <DistanceMeters>16948.040117676</DistanceMeters>
          </Trackpoint>
          <Trackpoint>
            <Time>2021-08-29T17:15:17.000Z</Time>
            <Position>
              <LatitudeDegrees>-32.998204641044139862060546875</LatitudeDegrees>
              <LongitudeDegrees>-69.2966671474277973175048828125</LongitudeDegrees>
            </Position>
            <AltitudeMeters>1969</AltitudeMeters>
            <DistanceMeters>16949.203952487</DistanceMeters>
          </Trackpoint>
          <Trackpoint>
            <Time>2021-08-29T17:15:22.000Z</Time>
            <Position>
              <LatitudeDegrees>-32.99819617532193660736083984375</LatitudeDegrees>
              <LongitudeDegrees>-69.29668064229190349578857421875</LongitudeDegrees>
            </Position>
            <AltitudeMeters>1969.199951171875</AltitudeMeters>
            <DistanceMeters>16950.776924497</DistanceMeters>
          </Trackpoint>
          <Trackpoint>
            <Time>2021-08-29T17:15:24.000Z</Time>
            <Position>
              <LatitudeDegrees>-32.9982024617493152618408203125</LatitudeDegrees>
              <LongitudeDegrees>-69.29669975303113460540771484375</LongitudeDegrees>
            </Position>
            <AltitudeMeters>1969.4000244140625</AltitudeMeters>
            <DistanceMeters>16952.691659737</DistanceMeters>
          </Trackpoint>
          <Trackpoint>
            <Time>2021-08-29T17:15:26.000Z</Time>
            <Position>
              <LatitudeDegrees>-32.99821964465081691741943359375</LatitudeDegrees>
              <LongitudeDegrees>-69.2967298440635204315185546875</LongitudeDegrees>
            </Position>
            <AltitudeMeters>1969.5999755859375</AltitudeMeters>
            <DistanceMeters>16956.088781709</DistanceMeters>
          </Trackpoint>
          <Trackpoint>
            <Time>2021-08-29T17:15:27.000Z</Time>
            <Position>
              <LatitudeDegrees>-32.9982339777052402496337890625</LatitudeDegrees>
              <LongitudeDegrees>-69.29674006998538970947265625</LongitudeDegrees>
            </Position>
            <AltitudeMeters>1969.800048828125</AltitudeMeters>
            <DistanceMeters>16957.950917406</DistanceMeters>
          </Trackpoint>
          <Trackpoint>
            <Time>2021-08-29T17:15:30.000Z</Time>
            <Position>
              <LatitudeDegrees>-32.998265326023101806640625</LatitudeDegrees>
              <LongitudeDegrees>-69.29673864506185054779052734375</LongitudeDegrees>
            </Position>
            <AltitudeMeters>1969.800048828125</AltitudeMeters>
            <DistanceMeters>16961.443714749</DistanceMeters>
          </Trackpoint>
          <Trackpoint>
            <Time>2021-08-29T17:15:38.000Z</Time>
            <Position>
              <LatitudeDegrees>-32.99831234849989414215087890625</LatitudeDegrees>
              <LongitudeDegrees>-69.29675825871527194976806640625</LongitudeDegrees>
            </Position>
            <AltitudeMeters>1969.800048828125</AltitudeMeters>
            <DistanceMeters>16966.987935182</DistanceMeters>
          </Trackpoint>
          <Trackpoint>
            <Time>2021-08-29T17:15:40.000Z</Time>
            <Position>
              <LatitudeDegrees>-32.99829659052193164825439453125</LatitudeDegrees>
              <LongitudeDegrees>-69.2967764474451541900634765625</LongitudeDegrees>
            </Position>
            <AltitudeMeters>1970</AltitudeMeters>
            <DistanceMeters>16969.429215677</DistanceMeters>
          </Trackpoint>
          <Trackpoint>
            <Time>2021-08-29T17:15:43.000Z</Time>
            <Position>
              <LatitudeDegrees>-32.998283766210079193115234375</LatitudeDegrees>
              <LongitudeDegrees>-69.29680301807820796966552734375</LongitudeDegrees>
            </Position>
            <AltitudeMeters>1970.4000244140625</AltitudeMeters>
            <DistanceMeters>16972.292659305</DistanceMeters>
          </Trackpoint>
          <Trackpoint>
            <Time>2021-08-29T17:15:48.000Z</Time>
            <Position>
              <LatitudeDegrees>-32.998297512531280517578125</LatitudeDegrees>
              <LongitudeDegrees>-69.29681391455233097076416015625</LongitudeDegrees>
            </Position>
            <AltitudeMeters>1970.5999755859375</AltitudeMeters>
            <DistanceMeters>16974.130388499</DistanceMeters>
          </Trackpoint>
          <Trackpoint>
            <Time>2021-08-29T17:15:56.000Z</Time>
            <Position>
              <LatitudeDegrees>-32.99833598546683788299560546875</LatitudeDegrees>
              <LongitudeDegrees>-69.29684308357536792755126953125</LongitudeDegrees>
            </Position>
            <AltitudeMeters>1970.800048828125</AltitudeMeters>
            <DistanceMeters>16979.205206527</DistanceMeters>
          </Trackpoint>
          <Trackpoint>
            <Time>2021-08-29T17:16:03.000Z</Time>
            <Position>
              <LatitudeDegrees>-32.99841888248920440673828125</LatitudeDegrees>
              <LongitudeDegrees>-69.296929836273193359375</LongitudeDegrees>
            </Position>
            <AltitudeMeters>1971.5999755859375</AltitudeMeters>
            <DistanceMeters>16991.481687124</DistanceMeters>
          </Trackpoint>
          <Trackpoint>
            <Time>2021-08-29T17:16:10.000Z</Time>
            <Position>
              <LatitudeDegrees>-32.99850245006382465362548828125</LatitudeDegrees>
              <LongitudeDegrees>-69.297046177089214324951171875</LongitudeDegrees>
            </Position>
            <AltitudeMeters>1973.800048828125</AltitudeMeters>
            <DistanceMeters>17005.780602846</DistanceMeters>
          </Trackpoint>
          <Trackpoint>
            <Time>2021-08-29T17:16:19.000Z</Time>
            <Position>
              <LatitudeDegrees>-32.99862868152558803558349609375</LatitudeDegrees>
              <LongitudeDegrees>-69.297142736613750457763671875</LongitudeDegrees>
            </Position>
            <AltitudeMeters>1976.199951171875</AltitudeMeters>
            <DistanceMeters>17022.473418634</DistanceMeters>
          </Trackpoint>
          <Trackpoint>
            <Time>2021-08-29T17:16:30.000Z</Time>
            <Position>
              <LatitudeDegrees>-32.99882800318300724029541015625</LatitudeDegrees>
              <LongitudeDegrees>-69.2971938662230968475341796875</LongitudeDegrees>
            </Position>
            <AltitudeMeters>1977.5999755859375</AltitudeMeters>
            <DistanceMeters>17045.16571048</DistanceMeters>
          </Trackpoint>
          <Trackpoint>
            <Time>2021-08-29T17:16:42.000Z</Time>
            <Position>
              <LatitudeDegrees>-32.99901944585144519805908203125</LatitudeDegrees>
              <LongitudeDegrees>-69.29715220816433429718017578125</LongitudeDegrees>
            </Position>
            <AltitudeMeters>1977.199951171875</AltitudeMeters>
            <DistanceMeters>17066.825548696</DistanceMeters>
          </Trackpoint>
          <Trackpoint>
            <Time>2021-08-29T17:16:44.000Z</Time>
            <Position>
              <LatitudeDegrees>-32.999054901301860809326171875</LatitudeDegrees>
              <LongitudeDegrees>-69.297137372195720672607421875</LongitudeDegrees>
            </Position>
            <AltitudeMeters>1977</AltitudeMeters>
            <DistanceMeters>17071.006724128</DistanceMeters>
          </Trackpoint>
          <Trackpoint>
            <Time>2021-08-29T17:16:45.000Z</Time>
            <Position>
              <LatitudeDegrees>-32.99907392822206020355224609375</LatitudeDegrees>
              <LongitudeDegrees>-69.29713167250156402587890625</LongitudeDegrees>
            </Position>
            <AltitudeMeters>1977</AltitudeMeters>
            <DistanceMeters>17073.190271784</DistanceMeters>
          </Trackpoint>
          <Trackpoint>
            <Time>2021-08-29T17:16:46.000Z</Time>
            <Position>
              <LatitudeDegrees>-32.99909287132322788238525390625</LatitudeDegrees>
              <LongitudeDegrees>-69.297122955322265625</LongitudeDegrees>
            </Position>
            <AltitudeMeters>1976.800048828125</AltitudeMeters>
            <DistanceMeters>17075.449030999</DistanceMeters>
          </Trackpoint>
          <Trackpoint>
            <Time>2021-08-29T17:16:47.000Z</Time>
            <Position>
              <LatitudeDegrees>-32.99911550246179103851318359375</LatitudeDegrees>
              <LongitudeDegrees>-69.29711834527552127838134765625</LongitudeDegrees>
            </Position>
            <AltitudeMeters>1976.800048828125</AltitudeMeters>
            <DistanceMeters>17078.002404295</DistanceMeters>
          </Trackpoint>
          <Trackpoint>
            <Time>2021-08-29T17:16:48.000Z</Time>
            <Position>
              <LatitudeDegrees>-32.9991378821432590484619140625</LatitudeDegrees>
              <LongitudeDegrees>-69.29710359312593936920166015625</LongitudeDegrees>
            </Position>
            <AltitudeMeters>1976.5999755859375</AltitudeMeters>
            <DistanceMeters>17080.850036407</DistanceMeters>
          </Trackpoint>
          <Trackpoint>
            <Time>2021-08-29T17:16:49.000Z</Time>
            <Position>
              <LatitudeDegrees>-32.99916294403374195098876953125</LatitudeDegrees>
              <LongitudeDegrees>-69.29709009826183319091796875</LongitudeDegrees>
            </Position>
            <AltitudeMeters>1976.4000244140625</AltitudeMeters>
            <DistanceMeters>17083.911607793</DistanceMeters>
          </Trackpoint>
          <Trackpoint>
            <Time>2021-08-29T17:16:50.000Z</Time>
            <Position>
              <LatitudeDegrees>-32.99918591044843196868896484375</LatitudeDegrees>
              <LongitudeDegrees>-69.2970795370638370513916015625</LongitudeDegrees>
            </Position>
            <AltitudeMeters>1976.199951171875</AltitudeMeters>
            <DistanceMeters>17086.652597323</DistanceMeters>
          </Trackpoint>
          <Trackpoint>
            <Time>2021-08-29T17:16:51.000Z</Time>
            <Position>
              <LatitudeDegrees>-32.9992069490253925323486328125</LatitudeDegrees>
              <LongitudeDegrees>-69.2970714904367923736572265625</LongitudeDegrees>
            </Position>
            <AltitudeMeters>1976</AltitudeMeters>
            <DistanceMeters>17089.112302837</DistanceMeters>
          </Trackpoint>
          <Trackpoint>
            <Time>2021-08-29T17:16:52.000Z</Time>
            <Position>
              <LatitudeDegrees>-32.99922882579267024993896484375</LatitudeDegrees>
              <LongitudeDegrees>-69.29706051014363765716552734375</LongitudeDegrees>
            </Position>
            <AltitudeMeters>1975.800048828125</AltitudeMeters>
            <DistanceMeters>17091.752609451</DistanceMeters>
          </Trackpoint>
          <Trackpoint>
            <Time>2021-08-29T17:16:53.000Z</Time>
            <Position>
              <LatitudeDegrees>-32.99925514496862888336181640625</LatitudeDegrees>
              <LongitudeDegrees>-69.29704508744180202484130859375</LongitudeDegrees>
            </Position>
            <AltitudeMeters>1975.5999755859375</AltitudeMeters>
            <DistanceMeters>17095.015500826</DistanceMeters>
          </Trackpoint>
          <Trackpoint>
            <Time>2021-08-29T17:16:54.000Z</Time>
            <Position>
              <LatitudeDegrees>-32.9992817156016826629638671875</LatitudeDegrees>
              <LongitudeDegrees>-69.29702832363545894622802734375</LongitudeDegrees>
            </Position>
            <AltitudeMeters>1975.800048828125</AltitudeMeters>
            <DistanceMeters>17098.36173674</DistanceMeters>
          </Trackpoint>
          <Trackpoint>
            <Time>2021-08-29T17:16:55.000Z</Time>
            <Position>
              <LatitudeDegrees>-32.999307699501514434814453125</LatitudeDegrees>
              <LongitudeDegrees>-69.29701943881809711456298828125</LongitudeDegrees>
            </Position>
            <AltitudeMeters>1976</AltitudeMeters>
            <DistanceMeters>17101.369748807</DistanceMeters>
          </Trackpoint>
          <Trackpoint>
            <Time>2021-08-29T17:16:59.000Z</Time>
            <Position>
              <LatitudeDegrees>-32.99943669699132442474365234375</LatitudeDegrees>
              <LongitudeDegrees>-69.296942912042140960693359375</LongitudeDegrees>
            </Position>
            <AltitudeMeters>1975.5999755859375</AltitudeMeters>
            <DistanceMeters>17117.406474693</DistanceMeters>
          </Trackpoint>
          <Trackpoint>
            <Time>2021-08-29T17:17:00.000Z</Time>
            <Position>
              <LatitudeDegrees>-32.999469973146915435791015625</LatitudeDegrees>
              <LongitudeDegrees>-69.29691650904715061187744140625</LongitudeDegrees>
            </Position>
            <AltitudeMeters>1975.800048828125</AltitudeMeters>
            <DistanceMeters>17121.854496443</DistanceMeters>
          </Trackpoint>
          <Trackpoint>
            <Time>2021-08-29T17:17:10.000Z</Time>
            <Position>
              <LatitudeDegrees>-32.99978806637227535247802734375</LatitudeDegrees>
              <LongitudeDegrees>-69.2966678179800510406494140625</LongitudeDegrees>
            </Position>
            <AltitudeMeters>1976.5999755859375</AltitudeMeters>
            <DistanceMeters>17164.191004014</DistanceMeters>
          </Trackpoint>
          <Trackpoint>
            <Time>2021-08-29T17:17:17.000Z</Time>
            <Position>
              <LatitudeDegrees>-32.99995520152151584625244140625</LatitudeDegrees>
              <LongitudeDegrees>-69.296444356441497802734375</LongitudeDegrees>
            </Position>
            <AltitudeMeters>1979.800048828125</AltitudeMeters>
            <DistanceMeters>17192.140329998</DistanceMeters>
          </Trackpoint>
          <Trackpoint>
            <Time>2021-08-29T17:17:22.000Z</Time>
            <Position>
              <LatitudeDegrees>-32.999992333352565765380859375</LatitudeDegrees>
              <LongitudeDegrees>-69.296266995370388031005859375</LongitudeDegrees>
            </Position>
            <AltitudeMeters>1980.4000244140625</AltitudeMeters>
            <DistanceMeters>17209.204439849</DistanceMeters>
          </Trackpoint>
          <Trackpoint>
            <Time>2021-08-29T17:17:29.000Z</Time>
            <Position>
              <LatitudeDegrees>-32.9999271221458911895751953125</LatitudeDegrees>
              <LongitudeDegrees>-69.29601830430328845977783203125</LongitudeDegrees>
            </Position>
            <AltitudeMeters>1978.800048828125</AltitudeMeters>
            <DistanceMeters>17233.526823943</DistanceMeters>
          </Trackpoint>
          <Trackpoint>
            <Time>2021-08-29T17:17:36.000Z</Time>
            <Position>
              <LatitudeDegrees>-32.9999230988323688507080078125</LatitudeDegrees>
              <LongitudeDegrees>-69.29574589245021343231201171875</LongitudeDegrees>
            </Position>
            <AltitudeMeters>1976.5999755859375</AltitudeMeters>
            <DistanceMeters>17258.959211081</DistanceMeters>
          </Trackpoint>
          <Trackpoint>
            <Time>2021-08-29T17:17:44.000Z</Time>
            <Position>
              <LatitudeDegrees>-32.99997632391750812530517578125</LatitudeDegrees>
              <LongitudeDegrees>-69.295454286038875579833984375</LongitudeDegrees>
            </Position>
            <AltitudeMeters>1974.800048828125</AltitudeMeters>
            <DistanceMeters>17286.816467037</DistanceMeters>
          </Trackpoint>
          <Trackpoint>
            <Time>2021-08-29T17:17:50.000Z</Time>
            <Position>
              <LatitudeDegrees>-33.0000350810587406158447265625</LatitudeDegrees>
              <LongitudeDegrees>-69.295221604406833648681640625</LongitudeDegrees>
            </Position>
            <AltitudeMeters>1974.800048828125</AltitudeMeters>
            <DistanceMeters>17309.499604512</DistanceMeters>
          </Trackpoint>
          <Trackpoint>
            <Time>2021-08-29T17:17:56.000Z</Time>
            <Position>
              <LatitudeDegrees>-33.00009719096124172210693359375</LatitudeDegrees>
              <LongitudeDegrees>-69.29501532576978206634521484375</LongitudeDegrees>
            </Position>
            <AltitudeMeters>1974.5999755859375</AltitudeMeters>
            <DistanceMeters>17329.957953497</DistanceMeters>
          </Trackpoint>
          <Trackpoint>
            <Time>2021-08-29T17:18:00.000Z</Time>
            <Position>
              <LatitudeDegrees>-33.00010959617793560028076171875</LatitudeDegrees>
              <LongitudeDegrees>-69.2948888428509235382080078125</LongitudeDegrees>
            </Position>
            <AltitudeMeters>1974.4000244140625</AltitudeMeters>
            <DistanceMeters>17341.845032036</DistanceMeters>
          </Trackpoint>
          <Trackpoint>
            <Time>2021-08-29T17:18:03.000Z</Time>
            <Position>
              <LatitudeDegrees>-33.00011211074888706207275390625</LatitudeDegrees>
              <LongitudeDegrees>-69.294824302196502685546875</LongitudeDegrees>
            </Position>
            <AltitudeMeters>1974.4000244140625</AltitudeMeters>
            <DistanceMeters>17347.876796122</DistanceMeters>
          </Trackpoint>
          <Trackpoint>
            <Time>2021-08-29T17:18:09.000Z</Time>
            <Position>
              <LatitudeDegrees>-33.00014396198093891143798828125</LatitudeDegrees>
              <LongitudeDegrees>-69.294759929180145263671875</LongitudeDegrees>
            </Position>
            <AltitudeMeters>1974.199951171875</AltitudeMeters>
            <DistanceMeters>17354.853336241</DistanceMeters>
          </Trackpoint>
          <Trackpoint>
            <Time>2021-08-29T17:18:16.000Z</Time>
            <Position>
              <LatitudeDegrees>-33.000175058841705322265625</LatitudeDegrees>
              <LongitudeDegrees>-69.2947493679821491241455078125</LongitudeDegrees>
            </Position>
            <AltitudeMeters>1974.199951171875</AltitudeMeters>
            <DistanceMeters>17358.45182615</DistanceMeters>
          </Trackpoint>
          <Trackpoint>
            <Time>2021-08-29T17:18:23.000Z</Time>
            <Position>
              <LatitudeDegrees>-33.00018888898193836212158203125</LatitudeDegrees>
              <LongitudeDegrees>-69.29474676959216594696044921875</LongitudeDegrees>
            </Position>
            <AltitudeMeters>1974.199951171875</AltitudeMeters>
            <DistanceMeters>17360.007480509</DistanceMeters>
          </Trackpoint>
          <Trackpoint>
            <Time>2021-08-29T17:18:25.000Z</Time>
            <Position>
              <LatitudeDegrees>-33.00019039772450923919677734375</LatitudeDegrees>
              <LongitudeDegrees>-69.29475263692438602447509765625</LongitudeDegrees>
            </Position>
            <AltitudeMeters>1974.199951171875</AltitudeMeters>
            <DistanceMeters>17360.577640796</DistanceMeters>
          </Trackpoint>
          <Trackpoint>
            <Time>2021-08-29T17:18:26.000Z</Time>
            <Position>
              <LatitudeDegrees>-33.00019039772450923919677734375</LatitudeDegrees>
              <LongitudeDegrees>-69.29475263692438602447509765625</LongitudeDegrees>
            </Position>
            <AltitudeMeters>1974.199951171875</AltitudeMeters>
            <DistanceMeters>17360.577640796</DistanceMeters>
          </Trackpoint>
          <Trackpoint>
            <Time>2021-08-29T17:18:29.000Z</Time>
            <Position>
              <LatitudeDegrees>-33.00019039772450923919677734375</LatitudeDegrees>
              <LongitudeDegrees>-69.29475263692438602447509765625</LongitudeDegrees>
            </Position>
            <AltitudeMeters>1974.199951171875</AltitudeMeters>
            <DistanceMeters>17360.577640796</DistanceMeters>
          </Trackpoint>
          <Trackpoint>
            <Time>2021-08-29T17:18:31.000Z</Time>
            <Position>
              <LatitudeDegrees>-33.00019039772450923919677734375</LatitudeDegrees>
              <LongitudeDegrees>-69.29475263692438602447509765625</LongitudeDegrees>
            </Position>
            <AltitudeMeters>1974.199951171875</AltitudeMeters>
            <DistanceMeters>17360.577640796</DistanceMeters>
          </Trackpoint>
          <Trackpoint>
            <Time>2021-08-29T17:18:34.000Z</Time>
            <Position>
              <LatitudeDegrees>-33.00019039772450923919677734375</LatitudeDegrees>
              <LongitudeDegrees>-69.29475263692438602447509765625</LongitudeDegrees>
            </Position>
            <AltitudeMeters>1974.199951171875</AltitudeMeters>
            <DistanceMeters>17360.577640796</DistanceMeters>
          </Trackpoint>
          <Trackpoint>
            <Time>2021-08-29T17:18:38.000Z</Time>
            <Position>
              <LatitudeDegrees>-33.0001889728009700775146484375</LatitudeDegrees>
              <LongitudeDegrees>-69.29475263692438602447509765625</LongitudeDegrees>
            </Position>
            <AltitudeMeters>1974.199951171875</AltitudeMeters>
            <DistanceMeters>17360.712028864</DistanceMeters>
          </Trackpoint>
          <Trackpoint>
            <Time>2021-08-29T17:18:39.000Z</Time>
            <Position>
              <LatitudeDegrees>-33.00018872134387493133544921875</LatitudeDegrees>
              <LongitudeDegrees>-69.29475263692438602447509765625</LongitudeDegrees>
            </Position>
            <AltitudeMeters>1974.199951171875</AltitudeMeters>
            <DistanceMeters>17360.712028864</DistanceMeters>
          </Trackpoint>
          <Trackpoint>
            <Time>2021-08-29T17:18:46.000Z</Time>
            <Position>
              <LatitudeDegrees>-33.00018570385873317718505859375</LatitudeDegrees>
              <LongitudeDegrees>-69.29476487450301647186279296875</LongitudeDegrees>
            </Position>
            <AltitudeMeters>1974.199951171875</AltitudeMeters>
            <DistanceMeters>17361.898912146</DistanceMeters>
          </Trackpoint>
          <Trackpoint>
            <Time>2021-08-29T17:18:50.000Z</Time>
            <Position>
              <LatitudeDegrees>-33.000186793506145477294921875</LatitudeDegrees>
              <LongitudeDegrees>-69.2947681434452533721923828125</LongitudeDegrees>
            </Position>
            <AltitudeMeters>1974.199951171875</AltitudeMeters>
            <DistanceMeters>17362.241535837</DistanceMeters>
          </Trackpoint>
          <Trackpoint>
            <Time>2021-08-29T17:19:00.000Z</Time>
            <Position>
              <LatitudeDegrees>-33.0001906491816043853759765625</LatitudeDegrees>
              <LongitudeDegrees>-69.29477610625326633453369140625</LongitudeDegrees>
            </Position>
            <AltitudeMeters>1974.199951171875</AltitudeMeters>
            <DistanceMeters>17363.096776266</DistanceMeters>
          </Trackpoint>
          <Trackpoint>
            <Time>2021-08-29T17:19:02.000Z</Time>
            <Position>
              <LatitudeDegrees>-33.0002298764884471893310546875</LatitudeDegrees>
              <LongitudeDegrees>-69.29479940794408321380615234375</LongitudeDegrees>
            </Position>
            <AltitudeMeters>1974.199951171875</AltitudeMeters>
            <DistanceMeters>17367.974711427</DistanceMeters>
          </Trackpoint>
          <Trackpoint>
            <Time>2021-08-29T17:19:10.000Z</Time>
            <Position>
              <LatitudeDegrees>-33.00037999637424945831298828125</LatitudeDegrees>
              <LongitudeDegrees>-69.29490770213305950164794921875</LongitudeDegrees>
            </Position>
            <AltitudeMeters>1974.199951171875</AltitudeMeters>
            <DistanceMeters>17387.502874636</DistanceMeters>
          </Trackpoint>
          <Trackpoint>
            <Time>2021-08-29T17:19:13.000Z</Time>
            <Position>
              <LatitudeDegrees>-33.00042861141264438629150390625</LatitudeDegrees>
              <LongitudeDegrees>-69.2949361167848110198974609375</LongitudeDegrees>
            </Position>
            <AltitudeMeters>1974.199951171875</AltitudeMeters>
            <DistanceMeters>17393.527898063</DistanceMeters>
          </Trackpoint>
          <Trackpoint>
            <Time>2021-08-29T17:19:20.000Z</Time>
            <Position>
              <LatitudeDegrees>-33.000559620559215545654296875</LatitudeDegrees>
              <LongitudeDegrees>-69.2949649505317211151123046875</LongitudeDegrees>
            </Position>
            <AltitudeMeters>1974</AltitudeMeters>
            <DistanceMeters>17408.356328911</DistanceMeters>
          </Trackpoint>
          <Trackpoint>
            <Time>2021-08-29T17:19:22.000Z</Time>
            <Position>
              <LatitudeDegrees>-33.000615276396274566650390625</LatitudeDegrees>
              <LongitudeDegrees>-69.29497425444424152374267578125</LongitudeDegrees>
            </Position>
            <AltitudeMeters>1973.5999755859375</AltitudeMeters>
            <DistanceMeters>17414.612234226</DistanceMeters>
          </Trackpoint>
          <Trackpoint>
            <Time>2021-08-29T17:19:24.000Z</Time>
            <Position>
              <LatitudeDegrees>-33.0006710998713970184326171875</LatitudeDegrees>
              <LongitudeDegrees>-69.2949807085096836090087890625</LongitudeDegrees>
            </Position>
            <AltitudeMeters>1973</AltitudeMeters>
            <DistanceMeters>17420.855134989</DistanceMeters>
          </Trackpoint>
          <Trackpoint>
            <Time>2021-08-29T17:19:26.000Z</Time>
            <Position>
              <LatitudeDegrees>-33.00072432495653629302978515625</LatitudeDegrees>
              <LongitudeDegrees>-69.29498255252838134765625</LongitudeDegrees>
            </Position>
            <AltitudeMeters>1972.4000244140625</AltitudeMeters>
            <DistanceMeters>17426.78270004</DistanceMeters>
          </Trackpoint>
          <Trackpoint>
            <Time>2021-08-29T17:19:29.000Z</Time>
            <Position>
              <LatitudeDegrees>-33.00079909153282642364501953125</LatitudeDegrees>
              <LongitudeDegrees>-69.29500040598213672637939453125</LongitudeDegrees>
            </Position>
            <AltitudeMeters>1971.5999755859375</AltitudeMeters>
            <DistanceMeters>17435.269389013</DistanceMeters>
          </Trackpoint>
          <Trackpoint>
            <Time>2021-08-29T17:19:40.000Z</Time>
            <Position>
              <LatitudeDegrees>-33.00106194801628589630126953125</LatitudeDegrees>
              <LongitudeDegrees>-69.29512110538780689239501953125</LongitudeDegrees>
            </Position>
            <AltitudeMeters>1970</AltitudeMeters>
            <DistanceMeters>17466.620140846</DistanceMeters>
          </Trackpoint>
          <Trackpoint>
            <Time>2021-08-29T17:19:47.000Z</Time>
            <Position>
              <LatitudeDegrees>-33.00126445479691028594970703125</LatitudeDegrees>
              <LongitudeDegrees>-69.29511892609298229217529296875</LongitudeDegrees>
            </Position>
            <AltitudeMeters>1967.800048828125</AltitudeMeters>
            <DistanceMeters>17489.160509544</DistanceMeters>
          </Trackpoint>
          <Trackpoint>
            <Time>2021-08-29T17:19:52.000Z</Time>
            <Position>
              <LatitudeDegrees>-33.00135313533246517181396484375</LatitudeDegrees>
              <LongitudeDegrees>-69.29503141902387142181396484375</LongitudeDegrees>
            </Position>
            <AltitudeMeters>1965.800048828125</AltitudeMeters>
            <DistanceMeters>17501.972563618</DistanceMeters>
          </Trackpoint>
          <Trackpoint>
            <Time>2021-08-29T17:19:57.000Z</Time>
            <Position>
              <LatitudeDegrees>-33.00149244256317615509033203125</LatitudeDegrees>
              <LongitudeDegrees>-69.29499437101185321807861328125</LongitudeDegrees>
            </Position>
            <AltitudeMeters>1963.800048828125</AltitudeMeters>
            <DistanceMeters>17517.858802205</DistanceMeters>
          </Trackpoint>
          <Trackpoint>
            <Time>2021-08-29T17:20:04.000Z</Time>
            <Position>
              <LatitudeDegrees>-33.00167634151875972747802734375</LatitudeDegrees>
              <LongitudeDegrees>-69.295062012970447540283203125</LongitudeDegrees>
            </Position>
            <AltitudeMeters>1962.4000244140625</AltitudeMeters>
            <DistanceMeters>17539.278843851</DistanceMeters>
          </Trackpoint>
          <Trackpoint>
            <Time>2021-08-29T17:20:05.000Z</Time>
            <Position>
              <LatitudeDegrees>-33.001698218286037445068359375</LatitudeDegrees>
              <LongitudeDegrees>-69.29507575929164886474609375</LongitudeDegrees>
            </Position>
            <AltitudeMeters>1962.4000244140625</AltitudeMeters>
            <DistanceMeters>17542.029699002</DistanceMeters>
          </Trackpoint>
          <Trackpoint>
            <Time>2021-08-29T17:20:10.000Z</Time>
            <Position>
              <LatitudeDegrees>-33.0017858929932117462158203125</LatitudeDegrees>
              <LongitudeDegrees>-69.2951235361397266387939453125</LongitudeDegrees>
            </Position>
            <AltitudeMeters>1962</AltitudeMeters>
            <DistanceMeters>17552.75846335</DistanceMeters>
          </Trackpoint>
          <Trackpoint>
            <Time>2021-08-29T17:20:16.000Z</Time>
            <Position>
              <LatitudeDegrees>-33.0019049160182476043701171875</LatitudeDegrees>
              <LongitudeDegrees>-69.29517961107194423675537109375</LongitudeDegrees>
            </Position>
            <AltitudeMeters>1961.4000244140625</AltitudeMeters>
            <DistanceMeters>17567.002330716</DistanceMeters>
          </Trackpoint>
          <Trackpoint>
            <Time>2021-08-29T17:20:20.000Z</Time>
            <Position>
              <LatitudeDegrees>-33.00199300982058048248291015625</LatitudeDegrees>
              <LongitudeDegrees>-69.29521665908396244049072265625</LongitudeDegrees>
            </Position>
            <AltitudeMeters>1960.800048828125</AltitudeMeters>
            <DistanceMeters>17577.399399779</DistanceMeters>
          </Trackpoint>
          <Trackpoint>
            <Time>2021-08-29T17:20:24.000Z</Time>
            <Position>
              <LatitudeDegrees>-33.0020819418132305145263671875</LatitudeDegrees>
              <LongitudeDegrees>-69.29526208899915218353271484375</LongitudeDegrees>
            </Position>
            <AltitudeMeters>1960.4000244140625</AltitudeMeters>
            <DistanceMeters>17588.167230644</DistanceMeters>
          </Trackpoint>
          <Trackpoint>
            <Time>2021-08-29T17:20:31.000Z</Time>
            <Position>
              <LatitudeDegrees>-33.00225486047565937042236328125</LatitudeDegrees>
              <LongitudeDegrees>-69.2953106202185153961181640625</LongitudeDegrees>
            </Position>
            <AltitudeMeters>1959</AltitudeMeters>
            <DistanceMeters>17607.939182228</DistanceMeters>
          </Trackpoint>
          <Trackpoint>
            <Time>2021-08-29T17:20:39.000Z</Time>
            <Position>
              <LatitudeDegrees>-33.00244747661054134368896484375</LatitudeDegrees>
              <LongitudeDegrees>-69.295427463948726654052734375</LongitudeDegrees>
            </Position>
            <AltitudeMeters>1958</AltitudeMeters>
            <DistanceMeters>17631.992394025</DistanceMeters>
          </Trackpoint>
          <Trackpoint>
            <Time>2021-08-29T17:20:48.000Z</Time>
            <Position>
              <LatitudeDegrees>-33.00261612050235271453857421875</LatitudeDegrees>
              <LongitudeDegrees>-69.295536093413829803466796875</LongitudeDegrees>
            </Position>
            <AltitudeMeters>1957.199951171875</AltitudeMeters>
            <DistanceMeters>17653.326261769</DistanceMeters>
          </Trackpoint>
          <Trackpoint>
            <Time>2021-08-29T17:20:53.000Z</Time>
            <Position>
              <LatitudeDegrees>-33.00267630256712436676025390625</LatitudeDegrees>
              <LongitudeDegrees>-69.295625276863574981689453125</LongitudeDegrees>
            </Position>
            <AltitudeMeters>1957.5999755859375</AltitudeMeters>
            <DistanceMeters>17664.011169653</DistanceMeters>
          </Trackpoint>
          <Trackpoint>
            <Time>2021-08-29T17:20:54.000Z</Time>
            <Position>
              <LatitudeDegrees>-33.002685941755771636962890625</LatitudeDegrees>
              <LongitudeDegrees>-69.2956472374498844146728515625</LongitudeDegrees>
            </Position>
            <AltitudeMeters>1957.800048828125</AltitudeMeters>
            <DistanceMeters>17666.327171684</DistanceMeters>
          </Trackpoint>
          <Trackpoint>
            <Time>2021-08-29T17:20:58.000Z</Time>
            <Position>
              <LatitudeDegrees>-33.00271041691303253173828125</LatitudeDegrees>
              <LongitudeDegrees>-69.295727871358394622802734375</LongitudeDegrees>
            </Position>
            <AltitudeMeters>1958.4000244140625</AltitudeMeters>
            <DistanceMeters>17674.332009124</DistanceMeters>
          </Trackpoint>
          <Trackpoint>
            <Time>2021-08-29T17:21:03.000Z</Time>
            <Position>
              <LatitudeDegrees>-33.0027729459106922149658203125</LatitudeDegrees>
              <LongitudeDegrees>-69.2958494089543819427490234375</LongitudeDegrees>
            </Position>
            <AltitudeMeters>1959.199951171875</AltitudeMeters>
            <DistanceMeters>17687.641178126</DistanceMeters>
          </Trackpoint>
          <Trackpoint>
            <Time>2021-08-29T17:21:09.000Z</Time>
            <Position>
              <LatitudeDegrees>-33.00290714018046855926513671875</LatitudeDegrees>
              <LongitudeDegrees>-69.29605719633400440216064453125</LongitudeDegrees>
            </Position>
            <AltitudeMeters>1960</AltitudeMeters>
            <DistanceMeters>17712.121210666</DistanceMeters>
          </Trackpoint>
          <Trackpoint>
            <Time>2021-08-29T17:21:15.000Z</Time>
            <Position>
              <LatitudeDegrees>-33.00296832807362079620361328125</LatitudeDegrees>
              <LongitudeDegrees>-69.29624855518341064453125</LongitudeDegrees>
            </Position>
            <AltitudeMeters>1961.199951171875</AltitudeMeters>
            <DistanceMeters>17731.237411479</DistanceMeters>
          </Trackpoint>
          <Trackpoint>
            <Time>2021-08-29T17:21:24.000Z</Time>
            <Position>
              <LatitudeDegrees>-33.00303823314607143402099609375</LatitudeDegrees>
              <LongitudeDegrees>-69.2965042032301425933837890625</LongitudeDegrees>
            </Position>
            <AltitudeMeters>1962.800048828125</AltitudeMeters>
            <DistanceMeters>17756.336699378</DistanceMeters>
          </Trackpoint>
          <Trackpoint>
            <Time>2021-08-29T17:21:25.000Z</Time>
            <Position>
              <LatitudeDegrees>-33.00304678268730640411376953125</LatitudeDegrees>
              <LongitudeDegrees>-69.29653613828122615814208984375</LongitudeDegrees>
            </Position>
            <AltitudeMeters>1963</AltitudeMeters>
            <DistanceMeters>17759.465373676</DistanceMeters>
          </Trackpoint>
          <Trackpoint>
            <Time>2021-08-29T17:21:34.000Z</Time>
            <Position>
              <LatitudeDegrees>-33.003129176795482635498046875</LatitudeDegrees>
              <LongitudeDegrees>-69.2967814765870571136474609375</LongitudeDegrees>
            </Position>
            <AltitudeMeters>1964.800048828125</AltitudeMeters>
            <DistanceMeters>17784.13373036</DistanceMeters>
          </Trackpoint>
          <Trackpoint>
            <Time>2021-08-29T17:21:41.000Z</Time>
            <Position>
              <LatitudeDegrees>-33.00324358977377414703369140625</LatitudeDegrees>
              <LongitudeDegrees>-69.296898655593395233154296875</LongitudeDegrees>
            </Position>
            <AltitudeMeters>1964.5999755859375</AltitudeMeters>
            <DistanceMeters>17800.920677539</DistanceMeters>
          </Trackpoint>
          <Trackpoint>
            <Time>2021-08-29T17:21:42.000Z</Time>
            <Position>
              <LatitudeDegrees>-33.0032594315707683563232421875</LatitudeDegrees>
              <LongitudeDegrees>-69.29691567085683345794677734375</LongitudeDegrees>
            </Position>
            <AltitudeMeters>1964.5999755859375</AltitudeMeters>
            <DistanceMeters>17803.294444103</DistanceMeters>
          </Trackpoint>
          <Trackpoint>
            <Time>2021-08-29T17:21:44.000Z</Time>
            <Position>
              <LatitudeDegrees>-33.003297485411167144775390625</LatitudeDegrees>
              <LongitudeDegrees>-69.2969397269189357757568359375</LongitudeDegrees>
            </Position>
            <AltitudeMeters>1964.4000244140625</AltitudeMeters>
            <DistanceMeters>17808.088351127</DistanceMeters>
          </Trackpoint>
          <Trackpoint>
            <Time>2021-08-29T17:21:46.000Z</Time>
            <Position>
              <LatitudeDegrees>-33.0033333599567413330078125</LatitudeDegrees>
              <LongitudeDegrees>-69.29697115905582904815673828125</LongitudeDegrees>
            </Position>
            <AltitudeMeters>1964.199951171875</AltitudeMeters>
            <DistanceMeters>17813.043427095</DistanceMeters>
          </Trackpoint>
          <Trackpoint>
            <Time>2021-08-29T17:21:49.000Z</Time>
            <Position>
              <LatitudeDegrees>-33.0033781193196773529052734375</LatitudeDegrees>
              <LongitudeDegrees>-69.297009296715259552001953125</LongitudeDegrees>
            </Position>
            <AltitudeMeters>1963.800048828125</AltitudeMeters>
            <DistanceMeters>17819.166569866</DistanceMeters>
          </Trackpoint>
          <Trackpoint>
            <Time>2021-08-29T17:21:52.000Z</Time>
            <Position>
              <LatitudeDegrees>-33.00340971909463405609130859375</LatitudeDegrees>
              <LongitudeDegrees>-69.29705397225916385650634765625</LongitudeDegrees>
            </Position>
            <AltitudeMeters>1963.800048828125</AltitudeMeters>
            <DistanceMeters>17824.622129595</DistanceMeters>
          </Trackpoint>
          <Trackpoint>
            <Time>2021-08-29T17:21:57.000Z</Time>
            <Position>
              <LatitudeDegrees>-33.003442995250225067138671875</LatitudeDegrees>
              <LongitudeDegrees>-69.29709487594664096832275390625</LongitudeDegrees>
            </Position>
            <AltitudeMeters>1964.199951171875</AltitudeMeters>
            <DistanceMeters>17829.940230706</DistanceMeters>
          </Trackpoint>
          <Trackpoint>
            <Time>2021-08-29T17:21:58.000Z</Time>
            <Position>
              <LatitudeDegrees>-33.00344131886959075927734375</LatitudeDegrees>
              <LongitudeDegrees>-69.297097139060497283935546875</LongitudeDegrees>
            </Position>
            <AltitudeMeters>1964.199951171875</AltitudeMeters>
            <DistanceMeters>17830.225310849</DistanceMeters>
          </Trackpoint>
          <Trackpoint>
            <Time>2021-08-29T17:22:06.000Z</Time>
            <Position>
              <LatitudeDegrees>-33.00342916510999202728271484375</LatitudeDegrees>
              <LongitudeDegrees>-69.2971281521022319793701171875</LongitudeDegrees>
            </Position>
            <AltitudeMeters>1964.4000244140625</AltitudeMeters>
            <DistanceMeters>17833.419678765</DistanceMeters>
          </Trackpoint>
          <Trackpoint>
            <Time>2021-08-29T17:22:15.000Z</Time>
            <Position>
              <LatitudeDegrees>-33.00342195667326450347900390625</LatitudeDegrees>
              <LongitudeDegrees>-69.29718070663511753082275390625</LongitudeDegrees>
            </Position>
            <AltitudeMeters>1964.5999755859375</AltitudeMeters>
            <DistanceMeters>17838.390220903</DistanceMeters>
          </Trackpoint>
          <Trackpoint>
            <Time>2021-08-29T17:22:21.000Z</Time>
            <Position>
              <LatitudeDegrees>-33.003428243100643157958984375</LatitudeDegrees>
              <LongitudeDegrees>-69.29723267443478107452392578125</LongitudeDegrees>
            </Position>
            <AltitudeMeters>1965</AltitudeMeters>
            <DistanceMeters>17843.291241546</DistanceMeters>
          </Trackpoint>
          <Trackpoint>
            <Time>2021-08-29T17:22:23.000Z</Time>
            <Position>
              <LatitudeDegrees>-33.00342380069196224212646484375</LatitudeDegrees>
              <LongitudeDegrees>-69.297255389392375946044921875</LongitudeDegrees>
            </Position>
            <AltitudeMeters>1965.199951171875</AltitudeMeters>
            <DistanceMeters>17845.470649771</DistanceMeters>
          </Trackpoint>
          <Trackpoint>
            <Time>2021-08-29T17:22:33.000Z</Time>
            <Position>
              <LatitudeDegrees>-33.00341357477009296417236328125</LatitudeDegrees>
              <LongitudeDegrees>-69.2973200976848602294921875</LongitudeDegrees>
            </Position>
            <AltitudeMeters>1965.5999755859375</AltitudeMeters>
            <DistanceMeters>17851.616608586</DistanceMeters>
          </Trackpoint>
          <Trackpoint>
            <Time>2021-08-29T17:22:39.000Z</Time>
            <Position>
              <LatitudeDegrees>-33.003402762115001678466796875</LatitudeDegrees>
              <LongitudeDegrees>-69.29731003940105438232421875</LongitudeDegrees>
            </Position>
            <AltitudeMeters>1965.5999755859375</AltitudeMeters>
            <DistanceMeters>17853.142963631</DistanceMeters>
          </Trackpoint>
          <Trackpoint>
            <Time>2021-08-29T17:22:49.000Z</Time>
            <Position>
              <LatitudeDegrees>-33.00340251065790653228759765625</LatitudeDegrees>
              <LongitudeDegrees>-69.29731540381908416748046875</LongitudeDegrees>
            </Position>
            <AltitudeMeters>1965.800048828125</AltitudeMeters>
            <DistanceMeters>17853.627506702</DistanceMeters>
          </Trackpoint>
          <Trackpoint>
            <Time>2021-08-29T17:22:56.000Z</Time>
            <Position>
              <LatitudeDegrees>-33.00340603105723857879638671875</LatitudeDegrees>
              <LongitudeDegrees>-69.29731012322008609771728515625</LongitudeDegrees>
            </Position>
            <AltitudeMeters>1965.5999755859375</AltitudeMeters>
            <DistanceMeters>17854.257842615</DistanceMeters>
          </Trackpoint>
          <Trackpoint>
            <Time>2021-08-29T17:23:05.000Z</Time>
            <Position>
              <LatitudeDegrees>-33.0034086294472217559814453125</LatitudeDegrees>
              <LongitudeDegrees>-69.29730962030589580535888671875</LongitudeDegrees>
            </Position>
            <AltitudeMeters>1965.5999755859375</AltitudeMeters>
            <DistanceMeters>17854.558343471</DistanceMeters>
          </Trackpoint>
          <Trackpoint>
            <Time>2021-08-29T17:23:09.000Z</Time>
            <Position>
              <LatitudeDegrees>-33.00341449677944183349609375</LatitudeDegrees>
              <LongitudeDegrees>-69.2973132245242595672607421875</LongitudeDegrees>
            </Position>
            <AltitudeMeters>1965.5999755859375</AltitudeMeters>
            <DistanceMeters>17855.294417236</DistanceMeters>
          </Trackpoint>
          <Trackpoint>
            <Time>2021-08-29T17:23:11.000Z</Time>
            <Position>
              <LatitudeDegrees>-33.00341642461717128753662109375</LatitudeDegrees>
              <LongitudeDegrees>-69.29731364361941814422607421875</LongitudeDegrees>
            </Position>
            <AltitudeMeters>1965.5999755859375</AltitudeMeters>
            <DistanceMeters>17855.506903429</DistanceMeters>
          </Trackpoint>
          <Trackpoint>
            <Time>2021-08-29T17:23:23.000Z</Time>
            <Position>
              <LatitudeDegrees>-33.0034165084362030029296875</LatitudeDegrees>
              <LongitudeDegrees>-69.2973323352634906768798828125</LongitudeDegrees>
            </Position>
            <AltitudeMeters>1965.5999755859375</AltitudeMeters>
            <DistanceMeters>17857.248771875</DistanceMeters>
          </Trackpoint>
          <Trackpoint>
            <Time>2021-08-29T17:23:34.000Z</Time>
            <Position>
              <LatitudeDegrees>-33.0034143291413784027099609375</LatitudeDegrees>
              <LongitudeDegrees>-69.29733459837734699249267578125</LongitudeDegrees>
            </Position>
            <AltitudeMeters>1965.5999755859375</AltitudeMeters>
            <DistanceMeters>17857.563939832</DistanceMeters>
          </Trackpoint>
          <Trackpoint>
            <Time>2021-08-29T17:23:45.000Z</Time>
            <Position>
              <LatitudeDegrees>-33.0034143291413784027099609375</LatitudeDegrees>
              <LongitudeDegrees>-69.29734180681407451629638671875</LongitudeDegrees>
            </Position>
            <AltitudeMeters>1965.800048828125</AltitudeMeters>
            <DistanceMeters>17858.235880173</DistanceMeters>
          </Trackpoint>
          <Trackpoint>
            <Time>2021-08-29T17:24:05.000Z</Time>
            <Position>
              <LatitudeDegrees>-33.00341181457042694091796875</LatitudeDegrees>
              <LongitudeDegrees>-69.29734314791858196258544921875</LongitudeDegrees>
            </Position>
            <AltitudeMeters>1965.800048828125</AltitudeMeters>
            <DistanceMeters>17858.536381029</DistanceMeters>
          </Trackpoint>
          <Trackpoint>
            <Time>2021-08-29T17:24:32.000Z</Time>
            <Position>
              <LatitudeDegrees>-33.0034186877310276031494140625</LatitudeDegrees>
              <LongitudeDegrees>-69.2973415553569793701171875</LongitudeDegrees>
            </Position>
            <AltitudeMeters>1965.800048828125</AltitudeMeters>
            <DistanceMeters>17859.308381706</DistanceMeters>
          </Trackpoint>
          <Trackpoint>
            <Time>2021-08-29T17:24:37.000Z</Time>
            <Position>
              <LatitudeDegrees>-33.00341877155005931854248046875</LatitudeDegrees>
              <LongitudeDegrees>-69.29733996279537677764892578125</LongitudeDegrees>
            </Position>
            <AltitudeMeters>1965.800048828125</AltitudeMeters>
            <DistanceMeters>17859.442769774</DistanceMeters>
          </Trackpoint>
          <Trackpoint>
            <Time>2021-08-29T17:24:50.000Z</Time>
            <Position>
              <LatitudeDegrees>-33.00341759808361530303955078125</LatitudeDegrees>
              <LongitudeDegrees>-69.29733409546315670013427734375</LongitudeDegrees>
            </Position>
            <AltitudeMeters>1965.5999755859375</AltitudeMeters>
            <DistanceMeters>17860.01293006</DistanceMeters>
          </Trackpoint>
          <Trackpoint>
            <Time>2021-08-29T17:24:56.000Z</Time>
            <Position>
              <LatitudeDegrees>-33.00341592170298099517822265625</LatitudeDegrees>
              <LongitudeDegrees>-69.29732973687350749969482421875</LongitudeDegrees>
            </Position>
            <AltitudeMeters>1965.5999755859375</AltitudeMeters>
            <DistanceMeters>17860.458644859</DistanceMeters>
          </Trackpoint>
          <Trackpoint>
            <Time>2021-08-29T17:25:06.000Z</Time>
            <Position>
              <LatitudeDegrees>-33.003415502607822418212890625</LatitudeDegrees>
              <LongitudeDegrees>-69.29732906632125377655029296875</LongitudeDegrees>
            </Position>
            <AltitudeMeters>1965.5999755859375</AltitudeMeters>
            <DistanceMeters>17860.593032927</DistanceMeters>
          </Trackpoint>
          <Trackpoint>
            <Time>2021-08-29T17:25:10.000Z</Time>
            <Position>
              <LatitudeDegrees>-33.00341625697910785675048828125</LatitudeDegrees>
              <LongitudeDegrees>-69.29733174853026866912841796875</LongitudeDegrees>
            </Position>
            <AltitudeMeters>1965.5999755859375</AltitudeMeters>
            <DistanceMeters>17860.861809064</DistanceMeters>
          </Trackpoint>
          <Trackpoint>
            <Time>2021-08-29T17:25:16.000Z</Time>
            <Position>
              <LatitudeDegrees>-33.00341776572167873382568359375</LatitudeDegrees>
              <LongitudeDegrees>-69.297340549528598785400390625</LongitudeDegrees>
            </Position>
            <AltitudeMeters>1965.800048828125</AltitudeMeters>
            <DistanceMeters>17861.701062281</DistanceMeters>
          </Trackpoint>
          <Trackpoint>
            <Time>2021-08-29T17:25:24.000Z</Time>
            <Position>
              <LatitudeDegrees>-33.0034193582832813262939453125</LatitudeDegrees>
              <LongitudeDegrees>-69.29734817706048488616943359375</LongitudeDegrees>
            </Position>
            <AltitudeMeters>1965.800048828125</AltitudeMeters>
            <DistanceMeters>17862.437136046</DistanceMeters>
          </Trackpoint>
          <Trackpoint>
            <Time>2021-08-29T17:25:31.000Z</Time>
            <Position>
              <LatitudeDegrees>-33.0034200288355350494384765625</LatitudeDegrees>
              <LongitudeDegrees>-69.29734935052692890167236328125</LongitudeDegrees>
            </Position>
            <AltitudeMeters>1965.800048828125</AltitudeMeters>
            <DistanceMeters>17862.571524114</DistanceMeters>
          </Trackpoint>
          <Trackpoint>
            <Time>2021-08-29T17:25:33.000Z</Time>
            <Position>
              <LatitudeDegrees>-33.00342011265456676483154296875</LatitudeDegrees>
              <LongitudeDegrees>-69.29734951816499233245849609375</LongitudeDegrees>
            </Position>
            <AltitudeMeters>1965.800048828125</AltitudeMeters>
            <DistanceMeters>17862.571524114</DistanceMeters>
          </Trackpoint>
          <Trackpoint>
            <Time>2021-08-29T17:25:36.000Z</Time>
            <Position>
              <LatitudeDegrees>-33.003420196473598480224609375</LatitudeDegrees>
              <LongitudeDegrees>-69.297349266707897186279296875</LongitudeDegrees>
            </Position>
            <AltitudeMeters>1965.800048828125</AltitudeMeters>
            <DistanceMeters>17862.571524114</DistanceMeters>
          </Trackpoint>
          <Trackpoint>
            <Time>2021-08-29T17:25:51.000Z</Time>
            <Position>
              <LatitudeDegrees>-33.0034206993877887725830078125</LatitudeDegrees>
              <LongitudeDegrees>-69.297346584498882293701171875</LongitudeDegrees>
            </Position>
            <AltitudeMeters>1965.800048828125</AltitudeMeters>
            <DistanceMeters>17862.84030025</DistanceMeters>
          </Trackpoint>
          <Trackpoint>
            <Time>2021-08-29T17:26:01.000Z</Time>
            <Position>
              <LatitudeDegrees>-33.00342111848294734954833984375</LatitudeDegrees>
              <LongitudeDegrees>-69.29734616540372371673583984375</LongitudeDegrees>
            </Position>
            <AltitudeMeters>1965.800048828125</AltitudeMeters>
            <DistanceMeters>17862.935326965</DistanceMeters>
          </Trackpoint>
          <Trackpoint>
            <Time>2021-08-29T17:26:08.000Z</Time>
            <Position>
              <LatitudeDegrees>-33.00342128612101078033447265625</LatitudeDegrees>
              <LongitudeDegrees>-69.29734616540372371673583984375</LongitudeDegrees>
            </Position>
            <AltitudeMeters>1965.800048828125</AltitudeMeters>
            <DistanceMeters>17863.030353679</DistanceMeters>
          </Trackpoint>
          <Trackpoint>
            <Time>2021-08-29T17:26:17.000Z</Time>
            <Position>
              <LatitudeDegrees>-33.00342162139713764190673828125</LatitudeDegrees>
              <LongitudeDegrees>-69.29734616540372371673583984375</LongitudeDegrees>
            </Position>
            <AltitudeMeters>1965.800048828125</AltitudeMeters>
            <DistanceMeters>17863.030353679</DistanceMeters>
          </Trackpoint>
          <Trackpoint>
            <Time>2021-08-29T17:26:21.000Z</Time>
            <Position>
              <LatitudeDegrees>-33.0034218728542327880859375</LatitudeDegrees>
              <LongitudeDegrees>-69.29734616540372371673583984375</LongitudeDegrees>
            </Position>
            <AltitudeMeters>1965.800048828125</AltitudeMeters>
            <DistanceMeters>17863.030353679</DistanceMeters>
          </Trackpoint>
          <Trackpoint>
            <Time>2021-08-29T17:26:40.000Z</Time>
            <Position>
              <LatitudeDegrees>-33.0034237168729305267333984375</LatitudeDegrees>
              <LongitudeDegrees>-69.29734650067985057830810546875</LongitudeDegrees>
            </Position>
            <AltitudeMeters>1965.800048828125</AltitudeMeters>
            <DistanceMeters>17863.242839872</DistanceMeters>
          </Trackpoint>
          <Trackpoint>
            <Time>2021-08-29T17:26:43.000Z</Time>
            <Position>
              <LatitudeDegrees>-33.0034240521490573883056640625</LatitudeDegrees>
              <LongitudeDegrees>-69.297346584498882293701171875</LongitudeDegrees>
            </Position>
            <AltitudeMeters>1965.800048828125</AltitudeMeters>
            <DistanceMeters>17863.242839872</DistanceMeters>
          </Trackpoint>
          <Trackpoint>
            <Time>2021-08-29T17:26:57.000Z</Time>
            <Position>
              <LatitudeDegrees>-33.0034253932535648345947265625</LatitudeDegrees>
              <LongitudeDegrees>-69.29734700359404087066650390625</LongitudeDegrees>
            </Position>
            <AltitudeMeters>1965.800048828125</AltitudeMeters>
            <DistanceMeters>17863.407430969</DistanceMeters>
          </Trackpoint>
          <Trackpoint>
            <Time>2021-08-29T17:27:03.000Z</Time>
            <Position>
              <LatitudeDegrees>-33.00342597998678684234619140625</LatitudeDegrees>
              <LongitudeDegrees>-69.297347255051136016845703125</LongitudeDegrees>
            </Position>
            <AltitudeMeters>1965.800048828125</AltitudeMeters>
            <DistanceMeters>17863.407430969</DistanceMeters>
          </Trackpoint>
          <Trackpoint>
            <Time>2021-08-29T17:27:07.000Z</Time>
            <Position>
              <LatitudeDegrees>-33.0034263990819454193115234375</LatitudeDegrees>
              <LongitudeDegrees>-69.2973474226891994476318359375</LongitudeDegrees>
            </Position>
            <AltitudeMeters>1965.800048828125</AltitudeMeters>
            <DistanceMeters>17863.407430969</DistanceMeters>
          </Trackpoint>
          <Trackpoint>
            <Time>2021-08-29T17:27:10.000Z</Time>
            <Position>
              <LatitudeDegrees>-33.0034267343580722808837890625</LatitudeDegrees>
              <LongitudeDegrees>-69.29734750650823116302490234375</LongitudeDegrees>
            </Position>
            <AltitudeMeters>1965.800048828125</AltitudeMeters>
            <DistanceMeters>17863.407430969</DistanceMeters>
          </Trackpoint>
          <Trackpoint>
            <Time>2021-08-29T17:27:14.000Z</Time>
            <Position>
              <LatitudeDegrees>-33.0034270696341991424560546875</LatitudeDegrees>
              <LongitudeDegrees>-69.29734767414629459381103515625</LongitudeDegrees>
            </Position>
            <AltitudeMeters>1965.800048828125</AltitudeMeters>
            <DistanceMeters>17863.407430969</DistanceMeters>
          </Trackpoint>
          <Trackpoint>
            <Time>2021-08-29T17:27:28.000Z</Time>
            <Position>
              <LatitudeDegrees>-33.00342832691967487335205078125</LatitudeDegrees>
              <LongitudeDegrees>-69.29734834469854831695556640625</LongitudeDegrees>
            </Position>
            <AltitudeMeters>1966</AltitudeMeters>
            <DistanceMeters>17863.572022067</DistanceMeters>
          </Trackpoint>
          <Trackpoint>
            <Time>2021-08-29T17:27:38.000Z</Time>
            <Position>
              <LatitudeDegrees>-33.0034290812909603118896484375</LatitudeDegrees>
              <LongitudeDegrees>-69.29734893143177032470703125</LongitudeDegrees>
            </Position>
            <AltitudeMeters>1966</AltitudeMeters>
            <DistanceMeters>17863.572022067</DistanceMeters>
          </Trackpoint>
          <Trackpoint>
            <Time>2021-08-29T17:27:40.000Z</Time>
            <Position>
              <LatitudeDegrees>-33.00342924892902374267578125</LatitudeDegrees>
              <LongitudeDegrees>-69.29734901525080204010009765625</LongitudeDegrees>
            </Position>
            <AltitudeMeters>1966</AltitudeMeters>
            <DistanceMeters>17863.572022067</DistanceMeters>
          </Trackpoint>
          <Trackpoint>
            <Time>2021-08-29T17:28:04.000Z</Time>
            <Position>
              <LatitudeDegrees>-33.003431260585784912109375</LatitudeDegrees>
              <LongitudeDegrees>-69.2973494343459606170654296875</LongitudeDegrees>
            </Position>
            <AltitudeMeters>1966</AltitudeMeters>
            <DistanceMeters>17863.804789029</DistanceMeters>
          </Trackpoint>
          <Trackpoint>
            <Time>2021-08-29T17:28:13.000Z</Time>
            <Position>
              <LatitudeDegrees>-33.00343218259513378143310546875</LatitudeDegrees>
              <LongitudeDegrees>-69.297349266707897186279296875</LongitudeDegrees>
            </Position>
            <AltitudeMeters>1966</AltitudeMeters>
            <DistanceMeters>17863.899815743</DistanceMeters>
          </Trackpoint>
          <Trackpoint>
            <Time>2021-08-29T17:28:20.000Z</Time>
            <Position>
              <LatitudeDegrees>-33.003432936966419219970703125</LatitudeDegrees>
              <LongitudeDegrees>-69.29734901525080204010009765625</LongitudeDegrees>
            </Position>
            <AltitudeMeters>1966</AltitudeMeters>
            <DistanceMeters>17863.994842458</DistanceMeters>
          </Trackpoint>
          <Trackpoint>
            <Time>2021-08-29T17:28:37.000Z</Time>
            <Position>
              <LatitudeDegrees>-33.00343469716608524322509765625</LatitudeDegrees>
              <LongitudeDegrees>-69.297348596155643463134765625</LongitudeDegrees>
            </Position>
            <AltitudeMeters>1966</AltitudeMeters>
            <DistanceMeters>17864.207328651</DistanceMeters>
          </Trackpoint>
          <Trackpoint>
            <Time>2021-08-29T17:29:14.000Z</Time>
            <Position>
              <LatitudeDegrees>-33.00343788228929042816162109375</LatitudeDegrees>
              <LongitudeDegrees>-69.29734884761273860931396484375</LongitudeDegrees>
            </Position>
            <AltitudeMeters>1966</AltitudeMeters>
            <DistanceMeters>17864.536510845</DistanceMeters>
          </Trackpoint>
          <Trackpoint>
            <Time>2021-08-29T17:29:21.000Z</Time>
            <Position>
              <LatitudeDegrees>-33.00343838520348072052001953125</LatitudeDegrees>
              <LongitudeDegrees>-69.29734901525080204010009765625</LongitudeDegrees>
            </Position>
            <AltitudeMeters>1966</AltitudeMeters>
            <DistanceMeters>17864.536510845</DistanceMeters>
          </Trackpoint>
          <Trackpoint>
            <Time>2021-08-29T17:29:26.000Z</Time>
            <Position>
              <LatitudeDegrees>-33.0034388042986392974853515625</LatitudeDegrees>
              <LongitudeDegrees>-69.29734918288886547088623046875</LongitudeDegrees>
            </Position>
            <AltitudeMeters>1966</AltitudeMeters>
            <DistanceMeters>17864.536510845</DistanceMeters>
          </Trackpoint>
          <Trackpoint>
            <Time>2021-08-29T17:29:37.000Z</Time>
            <Position>
              <LatitudeDegrees>-33.00343972630798816680908203125</LatitudeDegrees>
              <LongitudeDegrees>-69.29734951816499233245849609375</LongitudeDegrees>
            </Position>
            <AltitudeMeters>1966</AltitudeMeters>
            <DistanceMeters>17864.670898914</DistanceMeters>
          </Trackpoint>
          <Trackpoint>
            <Time>2021-08-29T17:29:46.000Z</Time>
            <Position>
              <LatitudeDegrees>-33.0034404806792736053466796875</LatitudeDegrees>
              <LongitudeDegrees>-69.2973497696220874786376953125</LongitudeDegrees>
            </Position>
            <AltitudeMeters>1966</AltitudeMeters>
            <DistanceMeters>17864.765925628</DistanceMeters>
          </Trackpoint>
          <Trackpoint>
            <Time>2021-08-29T17:30:02.000Z</Time>
            <Position>
              <LatitudeDegrees>-33.0034418217837810516357421875</LatitudeDegrees>
              <LongitudeDegrees>-69.29735027253627777099609375</LongitudeDegrees>
            </Position>
            <AltitudeMeters>1966</AltitudeMeters>
            <DistanceMeters>17864.900313696</DistanceMeters>
          </Trackpoint>
          <Trackpoint>
            <Time>2021-08-29T17:30:07.000Z</Time>
            <Position>
              <LatitudeDegrees>-33.00344224087893962860107421875</LatitudeDegrees>
              <LongitudeDegrees>-69.2973504401743412017822265625</LongitudeDegrees>
            </Position>
            <AltitudeMeters>1966.199951171875</AltitudeMeters>
            <DistanceMeters>17864.900313696</DistanceMeters>
          </Trackpoint>
          <Trackpoint>
            <Time>2021-08-29T17:30:22.000Z</Time>
            <Position>
              <LatitudeDegrees>-33.00344391725957393646240234375</LatitudeDegrees>
              <LongitudeDegrees>-69.29735085926949977874755859375</LongitudeDegrees>
            </Position>
            <AltitudeMeters>1966.199951171875</AltitudeMeters>
            <DistanceMeters>17865.090367125</DistanceMeters>
          </Trackpoint>
          <Trackpoint>
            <Time>2021-08-29T17:30:25.000Z</Time>
            <Position>
              <LatitudeDegrees>-33.0034441687166690826416015625</LatitudeDegrees>
              <LongitudeDegrees>-69.297350943088531494140625</LongitudeDegrees>
            </Position>
            <AltitudeMeters>1966.199951171875</AltitudeMeters>
            <DistanceMeters>17865.090367125</DistanceMeters>
          </Trackpoint>
          <Trackpoint>
            <Time>2021-08-29T17:30:31.000Z</Time>
            <Position>
              <LatitudeDegrees>-33.00344475544989109039306640625</LatitudeDegrees>
              <LongitudeDegrees>-69.2973511107265949249267578125</LongitudeDegrees>
            </Position>
            <AltitudeMeters>1966.199951171875</AltitudeMeters>
            <DistanceMeters>17865.185393839</DistanceMeters>
          </Trackpoint>
          <Trackpoint>
            <Time>2021-08-29T17:30:37.000Z</Time>
            <Position>
              <LatitudeDegrees>-33.00344534218311309814453125</LatitudeDegrees>
              <LongitudeDegrees>-69.297351278364658355712890625</LongitudeDegrees>
            </Position>
            <AltitudeMeters>1966.199951171875</AltitudeMeters>
            <DistanceMeters>17865.185393839</DistanceMeters>
          </Trackpoint>
          <Trackpoint>
            <Time>2021-08-29T17:30:55.000Z</Time>
            <Position>
              <LatitudeDegrees>-33.003447018563747406005859375</LatitudeDegrees>
              <LongitudeDegrees>-69.29735152982175350189208984375</LongitudeDegrees>
            </Position>
            <AltitudeMeters>1966.199951171875</AltitudeMeters>
            <DistanceMeters>17865.375447268</DistanceMeters>
          </Trackpoint>
          <Trackpoint>
            <Time>2021-08-29T17:31:02.000Z</Time>
            <Position>
              <LatitudeDegrees>-33.00344760529696941375732421875</LatitudeDegrees>
              <LongitudeDegrees>-69.29735161364078521728515625</LongitudeDegrees>
            </Position>
            <AltitudeMeters>1966.199951171875</AltitudeMeters>
            <DistanceMeters>17865.375447268</DistanceMeters>
          </Trackpoint>
          <Trackpoint>
            <Time>2021-08-29T17:31:21.000Z</Time>
            <Position>
              <LatitudeDegrees>-33.0034491978585720062255859375</LatitudeDegrees>
              <LongitudeDegrees>-69.29735203273594379425048828125</LongitudeDegrees>
            </Position>
            <AltitudeMeters>1966.199951171875</AltitudeMeters>
            <DistanceMeters>17865.565500697</DistanceMeters>
          </Trackpoint>
          <Trackpoint>
            <Time>2021-08-29T17:31:31.000Z</Time>
            <Position>
              <LatitudeDegrees>-33.00347895361483097076416015625</LatitudeDegrees>
              <LongitudeDegrees>-69.29735974408686161041259765625</LongitudeDegrees>
            </Position>
            <AltitudeMeters>1966.5999755859375</AltitudeMeters>
            <DistanceMeters>17868.954638823</DistanceMeters>
          </Trackpoint>
          <Trackpoint>
            <Time>2021-08-29T17:31:34.000Z</Time>
            <Position>
              <LatitudeDegrees>-33.0035400576889514923095703125</LatitudeDegrees>
              <LongitudeDegrees>-69.297377765178680419921875</LongitudeDegrees>
            </Position>
            <AltitudeMeters>1967.5999755859375</AltitudeMeters>
            <DistanceMeters>17875.960885717</DistanceMeters>
          </Trackpoint>
          <Trackpoint>
            <Time>2021-08-29T17:31:42.000Z</Time>
            <Position>
              <LatitudeDegrees>-33.00362505018711090087890625</LatitudeDegrees>
              <LongitudeDegrees>-69.297397546470165252685546875</LongitudeDegrees>
            </Position>
            <AltitudeMeters>1968.800048828125</AltitudeMeters>
            <DistanceMeters>17885.599424323</DistanceMeters>
          </Trackpoint>
          <Trackpoint>
            <Time>2021-08-29T17:31:54.000Z</Time>
            <Position>
              <LatitudeDegrees>-33.003620691597461700439453125</LatitudeDegrees>
              <LongitudeDegrees>-69.29738556034862995147705078125</LongitudeDegrees>
            </Position>
            <AltitudeMeters>1968.800048828125</AltitudeMeters>
            <DistanceMeters>17886.820064571</DistanceMeters>
          </Trackpoint>
          <Trackpoint>
            <Time>2021-08-29T17:31:57.000Z</Time>
            <Position>
              <LatitudeDegrees>-33.0036570690572261810302734375</LatitudeDegrees>
              <LongitudeDegrees>-69.297356307506561279296875</LongitudeDegrees>
            </Position>
            <AltitudeMeters>1969</AltitudeMeters>
            <DistanceMeters>17891.7035502</DistanceMeters>
          </Trackpoint>
          <Trackpoint>
            <Time>2021-08-29T17:32:00.000Z</Time>
            <Position>
              <LatitudeDegrees>-33.00369386561214923858642578125</LatitudeDegrees>
              <LongitudeDegrees>-69.29732889868319034576416015625</LongitudeDegrees>
            </Position>
            <AltitudeMeters>1969.199951171875</AltitudeMeters>
            <DistanceMeters>17896.533114099</DistanceMeters>
          </Trackpoint>
          <Trackpoint>
            <Time>2021-08-29T17:32:04.000Z</Time>
            <Position>
              <LatitudeDegrees>-33.00374306738376617431640625</LatitudeDegrees>
              <LongitudeDegrees>-69.29728816263377666473388671875</LongitudeDegrees>
            </Position>
            <AltitudeMeters>1969.5999755859375</AltitudeMeters>
            <DistanceMeters>17903.200577359</DistanceMeters>
          </Trackpoint>
          <Trackpoint>
            <Time>2021-08-29T17:32:07.000Z</Time>
            <Position>
              <LatitudeDegrees>-33.00377952866256237030029296875</LatitudeDegrees>
              <LongitudeDegrees>-69.29725530557334423065185546875</LongitudeDegrees>
            </Position>
            <AltitudeMeters>1969.800048828125</AltitudeMeters>
            <DistanceMeters>17908.287835863</DistanceMeters>
          </Trackpoint>
          <Trackpoint>
            <Time>2021-08-29T17:32:09.000Z</Time>
            <Position>
              <LatitudeDegrees>-33.00381624139845371246337890625</LatitudeDegrees>
              <LongitudeDegrees>-69.29722546599805355072021484375</LongitudeDegrees>
            </Position>
            <AltitudeMeters>1970.199951171875</AltitudeMeters>
            <DistanceMeters>17913.232878534</DistanceMeters>
          </Trackpoint>
          <Trackpoint>
            <Time>2021-08-29T17:32:11.000Z</Time>
            <Position>
              <LatitudeDegrees>-33.00386502407491207122802734375</LatitudeDegrees>
              <LongitudeDegrees>-69.2971874959766864776611328125</LongitudeDegrees>
            </Position>
            <AltitudeMeters>1970.5999755859375</AltitudeMeters>
            <DistanceMeters>17919.717015787</DistanceMeters>
          </Trackpoint>
          <Trackpoint>
            <Time>2021-08-29T17:32:12.000Z</Time>
            <Position>
              <LatitudeDegrees>-33.00388765521347522735595703125</LatitudeDegrees>
              <LongitudeDegrees>-69.2971620149910449981689453125</LongitudeDegrees>
            </Position>
            <AltitudeMeters>1970.5999755859375</AltitudeMeters>
            <DistanceMeters>17923.182560719</DistanceMeters>
          </Trackpoint>
          <Trackpoint>
            <Time>2021-08-29T17:32:17.000Z</Time>
            <Position>
              <LatitudeDegrees>-33.00397767685353755950927734375</LatitudeDegrees>
              <LongitudeDegrees>-69.2970124818384647369384765625</LongitudeDegrees>
            </Position>
            <AltitudeMeters>1970.800048828125</AltitudeMeters>
            <DistanceMeters>17940.364273646</DistanceMeters>
          </Trackpoint>
          <Trackpoint>
            <Time>2021-08-29T17:32:18.000Z</Time>
            <Position>
              <LatitudeDegrees>-33.0039906688034534454345703125</LatitudeDegrees>
              <LongitudeDegrees>-69.29697878658771514892578125</LongitudeDegrees>
            </Position>
            <AltitudeMeters>1970.5999755859375</AltitudeMeters>
            <DistanceMeters>17943.827211924</DistanceMeters>
          </Trackpoint>
          <Trackpoint>
            <Time>2021-08-29T17:32:27.000Z</Time>
            <Position>
              <LatitudeDegrees>-33.00409150309860706329345703125</LatitudeDegrees>
              <LongitudeDegrees>-69.2966441810131072998046875</LongitudeDegrees>
            </Position>
            <AltitudeMeters>1969.4000244140625</AltitudeMeters>
            <DistanceMeters>17977.015079348</DistanceMeters>
          </Trackpoint>
          <Trackpoint>
            <Time>2021-08-29T17:32:29.000Z</Time>
            <Position>
              <LatitudeDegrees>-33.0041026510298252105712890625</LatitudeDegrees>
              <LongitudeDegrees>-69.29656396619975566864013671875</LongitudeDegrees>
            </Position>
            <AltitudeMeters>1969</AltitudeMeters>
            <DistanceMeters>17984.604733993</DistanceMeters>
          </Trackpoint>
          <Trackpoint>
            <Time>2021-08-29T17:32:39.000Z</Time>
            <Position>
              <LatitudeDegrees>-33.0041231028735637664794921875</LatitudeDegrees>
              <LongitudeDegrees>-69.2961615510284900665283203125</LongitudeDegrees>
            </Position>
            <AltitudeMeters>1966.4000244140625</AltitudeMeters>
            <DistanceMeters>18022.23555285</DistanceMeters>
          </Trackpoint>
          <Trackpoint>
            <Time>2021-08-29T17:32:47.000Z</Time>
            <Position>
              <LatitudeDegrees>-33.00408546812832355499267578125</LatitudeDegrees>
              <LongitudeDegrees>-69.29584982804954051971435546875</LongitudeDegrees>
            </Position>
            <AltitudeMeters>1963.800048828125</AltitudeMeters>
            <DistanceMeters>18051.632155639</DistanceMeters>
          </Trackpoint>
          <Trackpoint>
            <Time>2021-08-29T17:32:57.000Z</Time>
            <Position>
              <LatitudeDegrees>-33.0040081031620502471923828125</LatitudeDegrees>
              <LongitudeDegrees>-69.2954071797430515289306640625</LongitudeDegrees>
            </Position>
            <AltitudeMeters>1959.800048828125</AltitudeMeters>
            <DistanceMeters>18093.837391207</DistanceMeters>
          </Trackpoint>
          <Trackpoint>
            <Time>2021-08-29T17:33:03.000Z</Time>
            <Position>
              <LatitudeDegrees>-33.00394582562148571014404296875</LatitudeDegrees>
              <LongitudeDegrees>-69.29506528191268444061279296875</LongitudeDegrees>
            </Position>
            <AltitudeMeters>1957.5999755859375</AltitudeMeters>
            <DistanceMeters>18126.494797848</DistanceMeters>
          </Trackpoint>
          <Trackpoint>
            <Time>2021-08-29T17:33:06.000Z</Time>
            <Position>
              <LatitudeDegrees>-33.0039122141897678375244140625</LatitudeDegrees>
              <LongitudeDegrees>-69.29484106600284576416015625</LongitudeDegrees>
            </Position>
            <AltitudeMeters>1956.199951171875</AltitudeMeters>
            <DistanceMeters>18147.755313046</DistanceMeters>
          </Trackpoint>
          <Trackpoint>
            <Time>2021-08-29T17:33:08.000Z</Time>
            <Position>
              <LatitudeDegrees>-33.00389184616506099700927734375</LatitudeDegrees>
              <LongitudeDegrees>-69.29467636160552501678466796875</LongitudeDegrees>
            </Position>
            <AltitudeMeters>1955</AltitudeMeters>
            <DistanceMeters>18163.295595039</DistanceMeters>
          </Trackpoint>
          <Trackpoint>
            <Time>2021-08-29T17:33:15.000Z</Time>
            <Position>
              <LatitudeDegrees>-33.00384809263050556182861328125</LatitudeDegrees>
              <LongitudeDegrees>-69.29403179325163364410400390625</LongitudeDegrees>
            </Position>
            <AltitudeMeters>1952</AltitudeMeters>
            <DistanceMeters>18223.657458616</DistanceMeters>
          </Trackpoint>
          <Trackpoint>
            <Time>2021-08-29T17:33:19.000Z</Time>
            <Position>
              <LatitudeDegrees>-33.0038260482251644134521484375</LatitudeDegrees>
              <LongitudeDegrees>-69.29367321543395519256591796875</LongitudeDegrees>
            </Position>
            <AltitudeMeters>1949.5999755859375</AltitudeMeters>
            <DistanceMeters>18257.217633147</DistanceMeters>
          </Trackpoint>
          <Trackpoint>
            <Time>2021-08-29T17:33:21.000Z</Time>
            <Position>
              <LatitudeDegrees>-33.0038153193891048431396484375</LatitudeDegrees>
              <LongitudeDegrees>-69.29353625513613224029541015625</LongitudeDegrees>
            </Position>
            <AltitudeMeters>1948.800048828125</AltitudeMeters>
            <DistanceMeters>18270.05784871</DistanceMeters>
          </Trackpoint>
          <Trackpoint>
            <Time>2021-08-29T17:33:24.000Z</Time>
            <Position>
              <LatitudeDegrees>-33.00381557084619998931884765625</LatitudeDegrees>
              <LongitudeDegrees>-69.29341815412044525146484375</LongitudeDegrees>
            </Position>
            <AltitudeMeters>1948</AltitudeMeters>
            <DistanceMeters>18281.081766742</DistanceMeters>
          </Trackpoint>
          <Trackpoint>
            <Time>2021-08-29T17:33:26.000Z</Time>
            <Position>
              <LatitudeDegrees>-33.00382864661514759063720703125</LatitudeDegrees>
              <LongitudeDegrees>-69.29337297566235065460205078125</LongitudeDegrees>
            </Position>
            <AltitudeMeters>1948</AltitudeMeters>
            <DistanceMeters>18285.542964842</DistanceMeters>
          </Trackpoint>
          <Trackpoint>
            <Time>2021-08-29T17:33:28.000Z</Time>
            <Position>
              <LatitudeDegrees>-33.00387240014970302581787109375</LatitudeDegrees>
              <LongitudeDegrees>-69.2933495901525020599365234375</LongitudeDegrees>
            </Position>
            <AltitudeMeters>1948.199951171875</AltitudeMeters>
            <DistanceMeters>18290.87886505</DistanceMeters>
          </Trackpoint>
          <Trackpoint>
            <Time>2021-08-29T17:33:31.000Z</Time>
            <Position>
              <LatitudeDegrees>-33.0039460770785808563232421875</LatitudeDegrees>
              <LongitudeDegrees>-69.29335646331310272216796875</LongitudeDegrees>
            </Position>
            <AltitudeMeters>1948.800048828125</AltitudeMeters>
            <DistanceMeters>18299.104029651</DistanceMeters>
          </Trackpoint>
          <Trackpoint>
            <Time>2021-08-29T17:33:34.000Z</Time>
            <Position>
              <LatitudeDegrees>-33.00402226857841014862060546875</LatitudeDegrees>
              <LongitudeDegrees>-69.2933794297277927398681640625</LongitudeDegrees>
            </Position>
            <AltitudeMeters>1949.4000244140625</AltitudeMeters>
            <DistanceMeters>18307.851134184</DistanceMeters>
          </Trackpoint>
          <Trackpoint>
            <Time>2021-08-29T17:33:37.000Z</Time>
            <Position>
              <LatitudeDegrees>-33.004095442593097686767578125</LatitudeDegrees>
              <LongitudeDegrees>-69.2934069223701953887939453125</LongitudeDegrees>
            </Position>
            <AltitudeMeters>1950</AltitudeMeters>
            <DistanceMeters>18316.389801364</DistanceMeters>
          </Trackpoint>
          <Trackpoint>
            <Time>2021-08-29T17:33:42.000Z</Time>
            <Position>
              <LatitudeDegrees>-33.00419032573699951171875</LatitudeDegrees>
              <LongitudeDegrees>-69.2934609018266201019287109375</LongitudeDegrees>
            </Position>
            <AltitudeMeters>1951</AltitudeMeters>
            <DistanceMeters>18328.090827773</DistanceMeters>
          </Trackpoint>
          <Trackpoint>
            <Time>2021-08-29T17:33:43.000Z</Time>
            <Position>
              <LatitudeDegrees>-33.0042104423046112060546875</LatitudeDegrees>
              <LongitudeDegrees>-69.29347372613847255706787109375</LongitudeDegrees>
            </Position>
            <AltitudeMeters>1951.199951171875</AltitudeMeters>
            <DistanceMeters>18330.630015553</DistanceMeters>
          </Trackpoint>
          <Trackpoint>
            <Time>2021-08-29T17:33:45.000Z</Time>
            <Position>
              <LatitudeDegrees>-33.00424732267856597900390625</LatitudeDegrees>
              <LongitudeDegrees>-69.293493926525115966796875</LongitudeDegrees>
            </Position>
            <AltitudeMeters>1951.5999755859375</AltitudeMeters>
            <DistanceMeters>18335.147533983</DistanceMeters>
          </Trackpoint>
          <Trackpoint>
            <Time>2021-08-29T17:33:47.000Z</Time>
            <Position>
              <LatitudeDegrees>-33.00427950918674468994140625</LatitudeDegrees>
              <LongitudeDegrees>-69.29351429454982280731201171875</LongitudeDegrees>
            </Position>
            <AltitudeMeters>1952</AltitudeMeters>
            <DistanceMeters>18339.202625746</DistanceMeters>
          </Trackpoint>
          <Trackpoint>
            <Time>2021-08-29T17:33:53.000Z</Time>
            <Position>
              <LatitudeDegrees>-33.00437950529158115386962890625</LatitudeDegrees>
              <LongitudeDegrees>-69.29355218075215816497802734375</LongitudeDegrees>
            </Position>
            <AltitudeMeters>1952.5999755859375</AltitudeMeters>
            <DistanceMeters>18350.880477194</DistanceMeters>
          </Trackpoint>
          <Trackpoint>
            <Time>2021-08-29T17:34:00.000Z</Time>
            <Position>
              <LatitudeDegrees>-33.00450523383915424346923828125</LatitudeDegrees>
              <LongitudeDegrees>-69.29359626956284046173095703125</LongitudeDegrees>
            </Position>
            <AltitudeMeters>1953.5999755859375</AltitudeMeters>
            <DistanceMeters>18365.467000467</DistanceMeters>
          </Trackpoint>
          <Trackpoint>
            <Time>2021-08-29T17:34:01.000Z</Time>
            <Position>
              <LatitudeDegrees>-33.00452359020709991455078125</LatitudeDegrees>
              <LongitudeDegrees>-69.29360029287636280059814453125</LongitudeDegrees>
            </Position>
            <AltitudeMeters>1953.5999755859375</AltitudeMeters>
            <DistanceMeters>18367.542415236</DistanceMeters>
          </Trackpoint>
          <Trackpoint>
            <Time>2021-08-29T17:34:05.000Z</Time>
            <Position>
              <LatitudeDegrees>-33.004602380096912384033203125</LatitudeDegrees>
              <LongitudeDegrees>-69.29362711496651172637939453125</LongitudeDegrees>
            </Position>
            <AltitudeMeters>1954.199951171875</AltitudeMeters>
            <DistanceMeters>18376.662009747</DistanceMeters>
          </Trackpoint>
          <Trackpoint>
            <Time>2021-08-29T17:34:18.000Z</Time>
            <Position>
              <LatitudeDegrees>-33.00484369508922100067138671875</LatitudeDegrees>
              <LongitudeDegrees>-69.29371529258787631988525390625</LongitudeDegrees>
            </Position>
            <AltitudeMeters>1955.800048828125</AltitudeMeters>
            <DistanceMeters>18404.753616686</DistanceMeters>
          </Trackpoint>
          <Trackpoint>
            <Time>2021-08-29T17:34:24.000Z</Time>
            <Position>
              <LatitudeDegrees>-33.0049498938024044036865234375</LatitudeDegrees>
              <LongitudeDegrees>-69.2937244288623332977294921875</LongitudeDegrees>
            </Position>
            <AltitudeMeters>1956.199951171875</AltitudeMeters>
            <DistanceMeters>18416.604175697</DistanceMeters>
          </Trackpoint>
          <Trackpoint>
            <Time>2021-08-29T17:34:28.000Z</Time>
            <Position>
              <LatitudeDegrees>-33.00501887686550617218017578125</LatitudeDegrees>
              <LongitudeDegrees>-69.29373557679355144500732421875</LongitudeDegrees>
            </Position>
            <AltitudeMeters>1956.5999755859375</AltitudeMeters>
            <DistanceMeters>18424.352204362</DistanceMeters>
          </Trackpoint>
          <Trackpoint>
            <Time>2021-08-29T17:34:32.000Z</Time>
            <Position>
              <LatitudeDegrees>-33.005096912384033203125</LatitudeDegrees>
              <LongitudeDegrees>-69.29375477135181427001953125</LongitudeDegrees>
            </Position>
            <AltitudeMeters>1957</AltitudeMeters>
            <DistanceMeters>18433.220798717</DistanceMeters>
          </Trackpoint>
          <Trackpoint>
            <Time>2021-08-29T17:34:35.000Z</Time>
            <Position>
              <LatitudeDegrees>-33.0051530711352825164794921875</LatitudeDegrees>
              <LongitudeDegrees>-69.29377312771975994110107421875</LongitudeDegrees>
            </Position>
            <AltitudeMeters>1957.4000244140625</AltitudeMeters>
            <DistanceMeters>18439.702150089</DistanceMeters>
          </Trackpoint>
          <Trackpoint>
            <Time>2021-08-29T17:34:40.000Z</Time>
            <Position>
              <LatitudeDegrees>-33.0052345432341098785400390625</LatitudeDegrees>
              <LongitudeDegrees>-69.2938059009611606597900390625</LongitudeDegrees>
            </Position>
            <AltitudeMeters>1958.199951171875</AltitudeMeters>
            <DistanceMeters>18449.272996209</DistanceMeters>
          </Trackpoint>
          <Trackpoint>
            <Time>2021-08-29T17:34:51.000Z</Time>
            <Position>
              <LatitudeDegrees>-33.0054253153502941131591796875</LatitudeDegrees>
              <LongitudeDegrees>-69.29386734031140804290771484375</LongitudeDegrees>
            </Position>
            <AltitudeMeters>1959.5999755859375</AltitudeMeters>
            <DistanceMeters>18471.267113493</DistanceMeters>
          </Trackpoint>
          <Trackpoint>
            <Time>2021-08-29T17:35:00.000Z</Time>
            <Position>
              <LatitudeDegrees>-33.0055641196668148040771484375</LatitudeDegrees>
              <LongitudeDegrees>-69.29391277022659778594970703125</LongitudeDegrees>
            </Position>
            <AltitudeMeters>1960.5999755859375</AltitudeMeters>
            <DistanceMeters>18487.287501525</DistanceMeters>
          </Trackpoint>
          <Trackpoint>
            <Time>2021-08-29T17:35:02.000Z</Time>
            <Position>
              <LatitudeDegrees>-33.00559555180370807647705078125</LatitudeDegrees>
              <LongitudeDegrees>-69.29392366670072078704833984375</LongitudeDegrees>
            </Position>
            <AltitudeMeters>1961</AltitudeMeters>
            <DistanceMeters>18490.930880777</DistanceMeters>
          </Trackpoint>
          <Trackpoint>
            <Time>2021-08-29T17:35:05.000Z</Time>
            <Position>
              <LatitudeDegrees>-33.005634360015392303466796875</LatitudeDegrees>
              <LongitudeDegrees>-69.2939405143260955810546875</LongitudeDegrees>
            </Position>
            <AltitudeMeters>1961.199951171875</AltitudeMeters>
            <DistanceMeters>18495.527659962</DistanceMeters>
          </Trackpoint>
          <Trackpoint>
            <Time>2021-08-29T17:35:07.000Z</Time>
            <Position>
              <LatitudeDegrees>-33.0056590028107166290283203125</LatitudeDegrees>
              <LongitudeDegrees>-69.293952248990535736083984375</LongitudeDegrees>
            </Position>
            <AltitudeMeters>1961.4000244140625</AltitudeMeters>
            <DistanceMeters>18498.48114161</DistanceMeters>
          </Trackpoint>
          <Trackpoint>
            <Time>2021-08-29T17:35:10.000Z</Time>
            <Position>
              <LatitudeDegrees>-33.00569194369018077850341796875</LatitudeDegrees>
              <LongitudeDegrees>-69.2939862795174121856689453125</LongitudeDegrees>
            </Position>
            <AltitudeMeters>1961.800048828125</AltitudeMeters>
            <DistanceMeters>18503.332159979</DistanceMeters>
          </Trackpoint>
          <Trackpoint>
            <Time>2021-08-29T17:35:11.000Z</Time>
            <Position>
              <LatitudeDegrees>-33.0056963860988616943359375</LatitudeDegrees>
              <LongitudeDegrees>-69.294003210961818695068359375</LongitudeDegrees>
            </Position>
            <AltitudeMeters>1962</AltitudeMeters>
            <DistanceMeters>18504.983548209</DistanceMeters>
          </Trackpoint>
          <Trackpoint>
            <Time>2021-08-29T17:35:12.000Z</Time>
            <Position>
              <LatitudeDegrees>-33.0056958831846714019775390625</LatitudeDegrees>
              <LongitudeDegrees>-69.2940209805965423583984375</LongitudeDegrees>
            </Position>
            <AltitudeMeters>1962.199951171875</AltitudeMeters>
            <DistanceMeters>18506.645836809</DistanceMeters>
          </Trackpoint>
          <Trackpoint>
            <Time>2021-08-29T17:35:15.000Z</Time>
            <Position>
              <LatitudeDegrees>-33.0056844837963581085205078125</LatitudeDegrees>
              <LongitudeDegrees>-69.29407395422458648681640625</LongitudeDegrees>
            </Position>
            <AltitudeMeters>1962.5999755859375</AltitudeMeters>
            <DistanceMeters>18511.751699194</DistanceMeters>
          </Trackpoint>
          <Trackpoint>
            <Time>2021-08-29T17:35:16.000Z</Time>
            <Position>
              <LatitudeDegrees>-33.00568473525345325469970703125</LatitudeDegrees>
              <LongitudeDegrees>-69.29408929310739040374755859375</LongitudeDegrees>
            </Position>
            <AltitudeMeters>1962.800048828125</AltitudeMeters>
            <DistanceMeters>18513.186571115</DistanceMeters>
          </Trackpoint>
          <Trackpoint>
            <Time>2021-08-29T17:35:18.000Z</Time>
            <Position>
              <LatitudeDegrees>-33.0056972242891788482666015625</LatitudeDegrees>
              <LongitudeDegrees>-69.2941230721771717071533203125</LongitudeDegrees>
            </Position>
            <AltitudeMeters>1963</AltitudeMeters>
            <DistanceMeters>18516.633828083</DistanceMeters>
          </Trackpoint>
          <Trackpoint>
            <Time>2021-08-29T17:35:20.000Z</Time>
            <Position>
              <LatitudeDegrees>-33.0057170055806636810302734375</LatitudeDegrees>
              <LongitudeDegrees>-69.2941505648195743560791015625</LongitudeDegrees>
            </Position>
            <AltitudeMeters>1963.4000244140625</AltitudeMeters>
            <DistanceMeters>18520.013627885</DistanceMeters>
          </Trackpoint>
          <Trackpoint>
            <Time>2021-08-29T17:35:22.000Z</Time>
            <Position>
              <LatitudeDegrees>-33.00573670305311679840087890625</LatitudeDegrees>
              <LongitudeDegrees>-69.2941840924322605133056640625</LongitudeDegrees>
            </Position>
            <AltitudeMeters>1963.800048828125</AltitudeMeters>
            <DistanceMeters>18523.833654525</DistanceMeters>
          </Trackpoint>
          <Trackpoint>
            <Time>2021-08-29T17:35:24.000Z</Time>
            <Position>
              <LatitudeDegrees>-33.00574625842273235321044921875</LatitudeDegrees>
              <LongitudeDegrees>-69.2942236550152301788330078125</LongitudeDegrees>
            </Position>
            <AltitudeMeters>1964.199951171875</AltitudeMeters>
            <DistanceMeters>18527.676072382</DistanceMeters>
          </Trackpoint>
          <Trackpoint>
            <Time>2021-08-29T17:35:26.000Z</Time>
            <Position>
              <LatitudeDegrees>-33.00575396977365016937255859375</LatitudeDegrees>
              <LongitudeDegrees>-69.2942658998072147369384765625</LongitudeDegrees>
            </Position>
            <AltitudeMeters>1964.5999755859375</AltitudeMeters>
            <DistanceMeters>18531.711072732</DistanceMeters>
          </Trackpoint>
          <Trackpoint>
            <Time>2021-08-29T17:35:32.000Z</Time>
            <Position>
              <LatitudeDegrees>-33.0057548917829990386962890625</LatitudeDegrees>
              <LongitudeDegrees>-69.294369332492351531982421875</LongitudeDegrees>
            </Position>
            <AltitudeMeters>1965.4000244140625</AltitudeMeters>
            <DistanceMeters>18541.365992677</DistanceMeters>
          </Trackpoint>
          <Trackpoint>
            <Time>2021-08-29T17:35:34.000Z</Time>
            <Position>
              <LatitudeDegrees>-33.0057535506784915924072265625</LatitudeDegrees>
              <LongitudeDegrees>-69.29437427781522274017333984375</LongitudeDegrees>
            </Position>
            <AltitudeMeters>1965.4000244140625</AltitudeMeters>
            <DistanceMeters>18541.859765969</DistanceMeters>
          </Trackpoint>
          <Trackpoint>
            <Time>2021-08-29T17:35:42.000Z</Time>
            <Position>
              <LatitudeDegrees>-33.00575296394526958465576171875</LatitudeDegrees>
              <LongitudeDegrees>-69.2943964898586273193359375</LongitudeDegrees>
            </Position>
            <AltitudeMeters>1965.5999755859375</AltitudeMeters>
            <DistanceMeters>18543.933004109</DistanceMeters>
          </Trackpoint>
          <Trackpoint>
            <Time>2021-08-29T17:35:57.000Z</Time>
            <Position>
              <LatitudeDegrees>-33.00575380213558673858642578125</LatitudeDegrees>
              <LongitudeDegrees>-69.29439489729702472686767578125</LongitudeDegrees>
            </Position>
            <AltitudeMeters>1965.5999755859375</AltitudeMeters>
            <DistanceMeters>18544.067392177</DistanceMeters>
          </Trackpoint>
          <Trackpoint>
            <Time>2021-08-29T17:36:01.000Z</Time>
            <Position>
              <LatitudeDegrees>-33.00575195811688899993896484375</LatitudeDegrees>
              <LongitudeDegrees>-69.29439154453575611114501953125</LongitudeDegrees>
            </Position>
            <AltitudeMeters>1965.4000244140625</AltitudeMeters>
            <DistanceMeters>18544.447499035</DistanceMeters>
          </Trackpoint>
          <Trackpoint>
            <Time>2021-08-29T17:36:04.000Z</Time>
            <Position>
              <LatitudeDegrees>-33.0057513713836669921875</LatitudeDegrees>
              <LongitudeDegrees>-69.2943884432315826416015625</LongitudeDegrees>
            </Position>
            <AltitudeMeters>1965.4000244140625</AltitudeMeters>
            <DistanceMeters>18544.747999891</DistanceMeters>
          </Trackpoint>
          <Trackpoint>
            <Time>2021-08-29T17:36:06.000Z</Time>
            <Position>
              <LatitudeDegrees>-33.0057545565068721771240234375</LatitudeDegrees>
              <LongitudeDegrees>-69.29439087398350238800048828125</LongitudeDegrees>
            </Position>
            <AltitudeMeters>1965.4000244140625</AltitudeMeters>
            <DistanceMeters>18545.172972277</DistanceMeters>
          </Trackpoint>
          <Trackpoint>
            <Time>2021-08-29T17:36:10.000Z</Time>
            <Position>
              <LatitudeDegrees>-33.0057800374925136566162109375</LatitudeDegrees>
              <LongitudeDegrees>-69.29444468580186367034912109375</LongitudeDegrees>
            </Position>
            <AltitudeMeters>1966</AltitudeMeters>
            <DistanceMeters>18550.940710275</DistanceMeters>
          </Trackpoint>
          <Trackpoint>
            <Time>2021-08-29T17:36:17.000Z</Time>
            <Position>
              <LatitudeDegrees>-33.0058025009930133819580078125</LatitudeDegrees>
              <LongitudeDegrees>-69.294464550912380218505859375</LongitudeDegrees>
            </Position>
            <AltitudeMeters>1966.4000244140625</AltitudeMeters>
            <DistanceMeters>18554.050567486</DistanceMeters>
          </Trackpoint>
          <Trackpoint>
            <Time>2021-08-29T17:36:24.000Z</Time>
            <Position>
              <LatitudeDegrees>-33.0057937838137149810791015625</LatitudeDegrees>
              <LongitudeDegrees>-69.2944409139454364776611328125</LongitudeDegrees>
            </Position>
            <AltitudeMeters>1966</AltitudeMeters>
            <DistanceMeters>18556.458327665</DistanceMeters>
          </Trackpoint>
          <Trackpoint>
            <Time>2021-08-29T17:36:30.000Z</Time>
            <Position>
              <LatitudeDegrees>-33.0057937838137149810791015625</LatitudeDegrees>
              <LongitudeDegrees>-69.2944409139454364776611328125</LongitudeDegrees>
            </Position>
            <AltitudeMeters>1966</AltitudeMeters>
            <DistanceMeters>18556.458327665</DistanceMeters>
          </Trackpoint>
          <Trackpoint>
            <Time>2021-08-29T17:36:34.000Z</Time>
            <Position>
              <LatitudeDegrees>-33.0057937838137149810791015625</LatitudeDegrees>
              <LongitudeDegrees>-69.2944409139454364776611328125</LongitudeDegrees>
            </Position>
            <AltitudeMeters>1966</AltitudeMeters>
            <DistanceMeters>18556.458327665</DistanceMeters>
          </Trackpoint>
          <Trackpoint>
            <Time>2021-08-29T17:36:42.000Z</Time>
            <Position>
              <LatitudeDegrees>-33.00578129477798938751220703125</LatitudeDegrees>
              <LongitudeDegrees>-69.29443999193608760833740234375</LongitudeDegrees>
            </Position>
            <AltitudeMeters>1966</AltitudeMeters>
            <DistanceMeters>18557.854929438</DistanceMeters>
          </Trackpoint>
          <Trackpoint>
            <Time>2021-08-29T17:36:54.000Z</Time>
            <Position>
              <LatitudeDegrees>-33.00577727146446704864501953125</LatitudeDegrees>
              <LongitudeDegrees>-69.2944368906319141387939453125</LongitudeDegrees>
            </Position>
            <AltitudeMeters>1966</AltitudeMeters>
            <DistanceMeters>18558.392481711</DistanceMeters>
          </Trackpoint>
          <Trackpoint>
            <Time>2021-08-29T17:37:12.000Z</Time>
            <Position>
              <LatitudeDegrees>-33.0057414807379245758056640625</LatitudeDegrees>
              <LongitudeDegrees>-69.2943938076496124267578125</LongitudeDegrees>
            </Position>
            <AltitudeMeters>1965.4000244140625</AltitudeMeters>
            <DistanceMeters>18564.052756547</DistanceMeters>
          </Trackpoint>
          <Trackpoint>
            <Time>2021-08-29T17:37:19.000Z</Time>
            <Position>
              <LatitudeDegrees>-33.005734272301197052001953125</LatitudeDegrees>
              <LongitudeDegrees>-69.29438366554677486419677734375</LongitudeDegrees>
            </Position>
            <AltitudeMeters>1965.4000244140625</AltitudeMeters>
            <DistanceMeters>18565.291753317</DistanceMeters>
          </Trackpoint>
          <Trackpoint>
            <Time>2021-08-29T17:37:31.000Z</Time>
            <Position>
              <LatitudeDegrees>-33.00573217682540416717529296875</LatitudeDegrees>
              <LongitudeDegrees>-69.294385425746440887451171875</LongitudeDegrees>
            </Position>
            <AltitudeMeters>1965.4000244140625</AltitudeMeters>
            <DistanceMeters>18565.592254173</DistanceMeters>
          </Trackpoint>
          <Trackpoint>
            <Time>2021-08-29T17:37:42.000Z</Time>
            <Position>
              <LatitudeDegrees>-33.00573435612022876739501953125</LatitudeDegrees>
              <LongitudeDegrees>-69.2943892814218997955322265625</LongitudeDegrees>
            </Position>
            <AltitudeMeters>1965.4000244140625</AltitudeMeters>
            <DistanceMeters>18566.017226559</DistanceMeters>
          </Trackpoint>
          <Trackpoint>
            <Time>2021-08-29T17:37:45.000Z</Time>
            <Position>
              <LatitudeDegrees>-33.00573435612022876739501953125</LatitudeDegrees>
              <LongitudeDegrees>-69.29438953287899494171142578125</LongitudeDegrees>
            </Position>
            <AltitudeMeters>1965.4000244140625</AltitudeMeters>
            <DistanceMeters>NAN</DistanceMeters>
          </Trackpoint>
          <Trackpoint>
            <Time>2021-08-29T17:37:48.000Z</Time>
            <Position>
              <LatitudeDegrees>-33.00573435612022876739501953125</LatitudeDegrees>
              <LongitudeDegrees>-69.29438970051705837249755859375</LongitudeDegrees>
            </Position>
            <AltitudeMeters>1965.4000244140625</AltitudeMeters>
            <DistanceMeters>NAN</DistanceMeters>
          </Trackpoint>
          <Trackpoint>
            <Time>2021-08-29T17:37:51.000Z</Time>
            <Position>
              <LatitudeDegrees>-33.00573452375829219818115234375</LatitudeDegrees>
              <LongitudeDegrees>-69.2943896166980266571044921875</LongitudeDegrees>
            </Position>
            <AltitudeMeters>1965.4000244140625</AltitudeMeters>
            <DistanceMeters>NAN</DistanceMeters>
          </Trackpoint>
          <Trackpoint>
            <Time>2021-08-29T17:37:53.000Z</Time>
            <Position>
              <LatitudeDegrees>-33.00573460757732391357421875</LatitudeDegrees>
              <LongitudeDegrees>-69.29439020343124866485595703125</LongitudeDegrees>
            </Position>
            <AltitudeMeters>1965.4000244140625</AltitudeMeters>
            <DistanceMeters>NAN</DistanceMeters>
          </Trackpoint>
          <Trackpoint>
            <Time>2021-08-29T17:38:00.000Z</Time>
            <Position>
              <LatitudeDegrees>-33.00573527812957763671875</LatitudeDegrees>
              <LongitudeDegrees>-69.294388778507709503173828125</LongitudeDegrees>
            </Position>
            <AltitudeMeters>1965.4000244140625</AltitudeMeters>
            <DistanceMeters>NAN</DistanceMeters>
          </Trackpoint>
          <Trackpoint>
            <Time>2021-08-29T17:38:15.000Z</Time>
            <Position>
              <LatitudeDegrees>-33.005743324756622314453125</LatitudeDegrees>
              <LongitudeDegrees>-69.29439405910670757293701171875</LongitudeDegrees>
            </Position>
            <AltitudeMeters>1965.4000244140625</AltitudeMeters>
            <DistanceMeters>NAN</DistanceMeters>
          </Trackpoint>
          <Trackpoint>
            <Time>2021-08-29T17:38:17.000Z</Time>
            <Position>
              <LatitudeDegrees>-33.005745001137256622314453125</LatitudeDegrees>
              <LongitudeDegrees>-69.29440696723759174346923828125</LongitudeDegrees>
            </Position>
            <AltitudeMeters>1965.5999755859375</AltitudeMeters>
            <DistanceMeters>NAN</DistanceMeters>
          </Trackpoint>
          <Trackpoint>
            <Time>2021-08-29T17:38:18.000Z</Time>
            <Position>
              <LatitudeDegrees>-33.0057285726070404052734375</LatitudeDegrees>
              <LongitudeDegrees>-69.2944110743701457977294921875</LongitudeDegrees>
            </Position>
            <AltitudeMeters>1965.4000244140625</AltitudeMeters>
            <DistanceMeters>NAN</DistanceMeters>
          </Trackpoint>
          <Trackpoint>
            <Time>2021-08-29T17:38:23.000Z</Time>
            <Position>
              <LatitudeDegrees>-33.00572211854159832000732421875</LatitudeDegrees>
              <LongitudeDegrees>-69.29446823894977569580078125</LongitudeDegrees>
            </Position>
            <AltitudeMeters>1965.800048828125</AltitudeMeters>
            <DistanceMeters>NAN</DistanceMeters>
          </Trackpoint>
          <Trackpoint>
            <Time>2021-08-29T17:38:27.000Z</Time>
            <Position>
              <LatitudeDegrees>-33.0057327635586261749267578125</LatitudeDegrees>
              <LongitudeDegrees>-69.29451920092105865478515625</LongitudeDegrees>
            </Position>
            <AltitudeMeters>1966.4000244140625</AltitudeMeters>
            <DistanceMeters>NAN</DistanceMeters>
          </Trackpoint>
          <Trackpoint>
            <Time>2021-08-29T17:38:29.000Z</Time>
            <Position>
              <LatitudeDegrees>-33.005744330585002899169921875</LatitudeDegrees>
              <LongitudeDegrees>-69.2945475317537784576416015625</LongitudeDegrees>
            </Position>
            <AltitudeMeters>1966.800048828125</AltitudeMeters>
            <DistanceMeters>NAN</DistanceMeters>
          </Trackpoint>
          <Trackpoint>
            <Time>2021-08-29T17:38:34.000Z</Time>
            <Position>
              <LatitudeDegrees>-33.00574189983308315277099609375</LatitudeDegrees>
              <LongitudeDegrees>-69.294534288346767425537109375</LongitudeDegrees>
            </Position>
            <AltitudeMeters>1966.5999755859375</AltitudeMeters>
            <DistanceMeters>NAN</DistanceMeters>
          </Trackpoint>
          <Trackpoint>
            <Time>2021-08-29T17:38:52.000Z</Time>
            <Position>
              <LatitudeDegrees>-33.0055560730397701263427734375</LatitudeDegrees>
              <LongitudeDegrees>-69.2945279181003570556640625</LongitudeDegrees>
            </Position>
            <AltitudeMeters>1965.4000244140625</AltitudeMeters>
            <DistanceMeters>NAN</DistanceMeters>
          </Trackpoint>
          <Trackpoint>
            <Time>2021-08-29T17:38:55.000Z</Time>
            <Position>
              <LatitudeDegrees>-33.00557090900838375091552734375</LatitudeDegrees>
              <LongitudeDegrees>-69.29464803077280521392822265625</LongitudeDegrees>
            </Position>
            <AltitudeMeters>1966.5999755859375</AltitudeMeters>
            <DistanceMeters>NAN</DistanceMeters>
          </Trackpoint>
          <Trackpoint>
            <Time>2021-08-29T17:38:58.000Z</Time>
            <Position>
              <LatitudeDegrees>-33.0055892653763294219970703125</LatitudeDegrees>
              <LongitudeDegrees>-69.294659681618213653564453125</LongitudeDegrees>
            </Position>
            <AltitudeMeters>1966.800048828125</AltitudeMeters>
            <DistanceMeters>NAN</DistanceMeters>
          </Trackpoint>
          <Trackpoint>
            <Time>2021-08-29T17:39:56.000Z</Time>
            <Position>
              <LatitudeDegrees>-33.00570418126881122589111328125</LatitudeDegrees>
              <LongitudeDegrees>-69.29452816955745220184326171875</LongitudeDegrees>
            </Position>
            <AltitudeMeters>1966.4000244140625</AltitudeMeters>
            <DistanceMeters>NAN</DistanceMeters>
          </Trackpoint>
          <Trackpoint>
            <Time>2021-08-29T17:40:01.000Z</Time>
            <Position>
              <LatitudeDegrees>-33.00567350350320339202880859375</LatitudeDegrees>
              <LongitudeDegrees>-69.29449380375444889068603515625</LongitudeDegrees>
            </Position>
            <AltitudeMeters>1965.800048828125</AltitudeMeters>
            <DistanceMeters>NAN</DistanceMeters>
          </Trackpoint>
          <Trackpoint>
            <Time>2021-08-29T17:40:06.000Z</Time>
            <Position>
              <LatitudeDegrees>-33.00572865642607212066650390625</LatitudeDegrees>
              <LongitudeDegrees>-69.2945482023060321807861328125</LongitudeDegrees>
            </Position>
            <AltitudeMeters>1966.5999755859375</AltitudeMeters>
            <DistanceMeters>NAN</DistanceMeters>
          </Trackpoint>
          <Trackpoint>
            <Time>2021-08-29T17:40:19.000Z</Time>
            <Position>
              <LatitudeDegrees>-33.0057927779853343963623046875</LatitudeDegrees>
              <LongitudeDegrees>-69.29459053091704845428466796875</LongitudeDegrees>
            </Position>
            <AltitudeMeters>1967.4000244140625</AltitudeMeters>
            <DistanceMeters>NAN</DistanceMeters>
          </Trackpoint>
          <Trackpoint>
            <Time>2021-08-29T17:40:21.000Z</Time>
            <Position>
              <LatitudeDegrees>-33.0057822167873382568359375</LatitudeDegrees>
              <LongitudeDegrees>-69.29464518092572689056396484375</LongitudeDegrees>
            </Position>
            <AltitudeMeters>1968</AltitudeMeters>
            <DistanceMeters>NAN</DistanceMeters>
          </Trackpoint>
          <Trackpoint>
            <Time>2021-08-29T17:40:29.000Z</Time>
            <Position>
              <LatitudeDegrees>-33.0057393014430999755859375</LatitudeDegrees>
              <LongitudeDegrees>-69.29469463415443897247314453125</LongitudeDegrees>
            </Position>
            <AltitudeMeters>1968.199951171875</AltitudeMeters>
            <DistanceMeters>NAN</DistanceMeters>
          </Trackpoint>
          <Trackpoint>
            <Time>2021-08-29T17:40:35.000Z</Time>
            <Position>
              <LatitudeDegrees>-33.005712144076824188232421875</LatitudeDegrees>
              <LongitudeDegrees>-69.29468776099383831024169921875</LongitudeDegrees>
            </Position>
            <AltitudeMeters>1968</AltitudeMeters>
            <DistanceMeters>NAN</DistanceMeters>
          </Trackpoint>
          <Trackpoint>
            <Time>2021-08-29T17:40:38.000Z</Time>
            <Position>
              <LatitudeDegrees>-33.00569529645144939422607421875</LatitudeDegrees>
              <LongitudeDegrees>-69.29469111375510692596435546875</LongitudeDegrees>
            </Position>
            <AltitudeMeters>1967.800048828125</AltitudeMeters>
            <DistanceMeters>NAN</DistanceMeters>
          </Trackpoint>
        </Track>
      </Lap>
    </Activity>
  </Activities>
</TrainingCenterDatabase>
